<?xml version="1.0"?>
<gpx
 version="1.1"
 creator="Satmap Active 20"
 xmlns:xsi="http://www.w3.org/2001/XMLSchema-instance"
 xmlns="http://www.topografix.com/GPX/1/1"
 xmlns:satmap="http://www.satmap.com/updates/xmlschemas/GpxExtensions/v2/GpxExtensions_v2.xsd"
 xsi:schemaLocation="http://www.topografix.com/GPX/1/1 http://www.topografix.com/GPX/1/1/gpx.xsd">
<metadata>
<time>2020-05-21T09:38:19Z</time>
<extensions>
<satmap:platform>43</satmap:platform>
<satmap:software version="3.12.831">SM15.exe</satmap:software>
<satmap:username>Jim Grant</satmap:username>
<satmap:network_ids>
<satmap:network_id type="wifi">00-23-A7-EC-D5-78</satmap:network_id>
<satmap:network_id type="bluetooth">80-BB-EB-D7-5B-7C</satmap:network_id>
</satmap:network_ids>
<satmap:snap_type>simple</satmap:snap_type>
</extensions>
</metadata>
<trk>
<name>2020-05-21_0938</name>
<desc>Track 1</desc>
<number>1</number>
<trkseg>
<trkpt lat="53.367229" lon="-1.616017"><ele>362</ele><time>2020-05-21T09:38:19Z</time><name>PT1</name></trkpt>
<trkpt lat="53.367229" lon="-1.616014"><ele>363</ele><time>2020-05-21T09:38:46Z</time><name>PT2</name></trkpt>
<trkpt lat="53.367226" lon="-1.616016"><ele>363</ele><time>2020-05-21T09:38:46Z</time><name>PT3</name></trkpt>
<trkpt lat="53.367227" lon="-1.616017"><ele>363</ele><time>2020-05-21T09:38:47Z</time><name>PT4</name></trkpt>
<trkpt lat="53.367227" lon="-1.616016"><ele>363</ele><time>2020-05-21T09:38:49Z</time><name>PT5</name></trkpt>
<trkpt lat="53.367226" lon="-1.616018"><ele>363</ele><time>2020-05-21T09:38:49Z</time><name>PT6</name></trkpt>
<trkpt lat="53.367223" lon="-1.616017"><ele>363</ele><time>2020-05-21T09:38:50Z</time><name>PT7</name></trkpt>
<trkpt lat="53.367220" lon="-1.616013"><ele>363</ele><time>2020-05-21T09:38:52Z</time><name>PT8</name></trkpt>
<trkpt lat="53.367221" lon="-1.616014"><ele>363</ele><time>2020-05-21T09:38:52Z</time><name>PT9</name></trkpt>
<trkpt lat="53.367221" lon="-1.616019"><ele>362</ele><time>2020-05-21T09:38:53Z</time><name>PT10</name></trkpt>
<trkpt lat="53.367219" lon="-1.616022"><ele>362</ele><time>2020-05-21T09:38:55Z</time><name>PT11</name></trkpt>
<trkpt lat="53.367216" lon="-1.616035"><ele>361</ele><time>2020-05-21T09:39:20Z</time><name>PT12</name></trkpt>
<trkpt lat="53.367218" lon="-1.616039"><ele>360</ele><time>2020-05-21T09:39:21Z</time><name>PT13</name></trkpt>
<trkpt lat="53.367220" lon="-1.616048"><ele>360</ele><time>2020-05-21T09:39:22Z</time><name>PT14</name></trkpt>
<trkpt lat="53.367223" lon="-1.616053"><ele>360</ele><time>2020-05-21T09:39:25Z</time><name>PT15</name></trkpt>
<trkpt lat="53.367222" lon="-1.616054"><ele>360</ele><time>2020-05-21T09:39:26Z</time><name>PT16</name></trkpt>
<trkpt lat="53.367218" lon="-1.616075"><ele>360</ele><time>2020-05-21T09:39:27Z</time><name>PT17</name></trkpt>
<trkpt lat="53.367212" lon="-1.616065"><ele>360</ele><time>2020-05-21T09:39:28Z</time><name>PT18</name></trkpt>
<trkpt lat="53.367197" lon="-1.616078"><ele>360</ele><time>2020-05-21T09:39:28Z</time><name>PT19</name></trkpt>
<trkpt lat="53.367195" lon="-1.616078"><ele>360</ele><time>2020-05-21T09:39:29Z</time><name>PT20</name></trkpt>
<trkpt lat="53.367195" lon="-1.616080"><ele>359</ele><time>2020-05-21T09:39:31Z</time><name>PT21</name></trkpt>
<trkpt lat="53.367193" lon="-1.616084"><ele>359</ele><time>2020-05-21T09:39:31Z</time><name>PT22</name></trkpt>
<trkpt lat="53.367191" lon="-1.616085"><ele>359</ele><time>2020-05-21T09:39:36Z</time><name>PT23</name></trkpt>
<trkpt lat="53.367184" lon="-1.616087"><ele>360</ele><time>2020-05-21T09:39:37Z</time><name>PT24</name></trkpt>
<trkpt lat="53.367181" lon="-1.616087"><ele>360</ele><time>2020-05-21T09:39:37Z</time><name>PT25</name></trkpt>
<trkpt lat="53.367181" lon="-1.616096"><ele>360</ele><time>2020-05-21T09:40:25Z</time><name>PT26</name></trkpt>
<trkpt lat="53.367183" lon="-1.616103"><ele>360</ele><time>2020-05-21T09:40:26Z</time><name>PT27</name></trkpt>
<trkpt lat="53.367182" lon="-1.616101"><ele>360</ele><time>2020-05-21T09:40:59Z</time><name>PT28</name></trkpt>
<trkpt lat="53.367182" lon="-1.616105"><ele>360</ele><time>2020-05-21T09:41:01Z</time><name>PT29</name></trkpt>
<trkpt lat="53.367183" lon="-1.616108"><ele>360</ele><time>2020-05-21T09:41:01Z</time><name>PT30</name></trkpt>
<trkpt lat="53.367185" lon="-1.616109"><ele>360</ele><time>2020-05-21T09:41:02Z</time><name>PT31</name></trkpt>
<trkpt lat="53.367184" lon="-1.616115"><ele>360</ele><time>2020-05-21T09:41:04Z</time><name>PT32</name></trkpt>
<trkpt lat="53.367185" lon="-1.616118"><ele>360</ele><time>2020-05-21T09:41:06Z</time><name>PT33</name></trkpt>
<trkpt lat="53.367185" lon="-1.616124"><ele>360</ele><time>2020-05-21T09:41:07Z</time><name>PT34</name></trkpt>
<trkpt lat="53.367183" lon="-1.616125"><ele>360</ele><time>2020-05-21T09:41:07Z</time><name>PT35</name></trkpt>
<trkpt lat="53.367180" lon="-1.616129"><ele>360</ele><time>2020-05-21T09:41:08Z</time><name>PT36</name></trkpt>
<trkpt lat="53.367181" lon="-1.616138"><ele>359</ele><time>2020-05-21T09:41:10Z</time><name>PT37</name></trkpt>
<trkpt lat="53.367181" lon="-1.616138"><ele>360</ele><time>2020-05-21T09:42:10Z</time><name>PT38</name></trkpt>
<trkpt lat="53.367184" lon="-1.616141"><ele>360</ele><time>2020-05-21T09:42:10Z</time><name>PT39</name></trkpt>
<trkpt lat="53.367184" lon="-1.616144"><ele>361</ele><time>2020-05-21T09:42:12Z</time><name>PT40</name></trkpt>
<trkpt lat="53.367174" lon="-1.616143"><ele>361</ele><time>2020-05-21T09:42:55Z</time><name>PT41</name></trkpt>
<trkpt lat="53.367178" lon="-1.616136"><ele>361</ele><time>2020-05-21T09:42:55Z</time><name>PT42</name></trkpt>
<trkpt lat="53.367183" lon="-1.616131"><ele>362</ele><time>2020-05-21T09:42:57Z</time><name>PT43</name></trkpt>
<trkpt lat="53.367177" lon="-1.616124"><ele>361</ele><time>2020-05-21T09:43:01Z</time><name>PT44</name></trkpt>
<trkpt lat="53.367178" lon="-1.616120"><ele>360</ele><time>2020-05-21T09:43:02Z</time><name>PT45</name></trkpt>
<trkpt lat="53.367182" lon="-1.616116"><ele>360</ele><time>2020-05-21T09:43:03Z</time><name>PT46</name></trkpt>
<trkpt lat="53.367183" lon="-1.616114"><ele>360</ele><time>2020-05-21T09:43:04Z</time><name>PT47</name></trkpt>
<trkpt lat="53.367188" lon="-1.616131"><ele>360</ele><time>2020-05-21T09:43:09Z</time><name>PT48</name></trkpt>
<trkpt lat="53.367190" lon="-1.616133"><ele>359</ele><time>2020-05-21T09:43:10Z</time><name>PT49</name></trkpt>
<trkpt lat="53.367192" lon="-1.616139"><ele>359</ele><time>2020-05-21T09:43:11Z</time><name>PT50</name></trkpt>
<trkpt lat="53.367193" lon="-1.616142"><ele>359</ele><time>2020-05-21T09:43:12Z</time><name>PT51</name></trkpt>
<trkpt lat="53.367200" lon="-1.616125"><ele>359</ele><time>2020-05-21T09:43:13Z</time><name>PT52</name></trkpt>
<trkpt lat="53.367205" lon="-1.616119"><ele>359</ele><time>2020-05-21T09:43:14Z</time><name>PT53</name></trkpt>
<trkpt lat="53.367215" lon="-1.616104"><ele>359</ele><time>2020-05-21T09:43:15Z</time><name>PT54</name></trkpt>
<trkpt lat="53.367227" lon="-1.616091"><ele>359</ele><time>2020-05-21T09:43:16Z</time><name>PT55</name></trkpt>
<trkpt lat="53.367234" lon="-1.616082"><ele>359</ele><time>2020-05-21T09:43:16Z</time><name>PT56</name></trkpt>
<trkpt lat="53.367240" lon="-1.616074"><ele>359</ele><time>2020-05-21T09:43:18Z</time><name>PT57</name></trkpt>
<trkpt lat="53.367243" lon="-1.616068"><ele>359</ele><time>2020-05-21T09:43:19Z</time><name>PT58</name></trkpt>
<trkpt lat="53.367252" lon="-1.616051"><ele>358</ele><time>2020-05-21T09:43:19Z</time><name>PT59</name></trkpt>
<trkpt lat="53.367254" lon="-1.616040"><ele>358</ele><time>2020-05-21T09:43:20Z</time><name>PT60</name></trkpt>
<trkpt lat="53.367262" lon="-1.616020"><ele>359</ele><time>2020-05-21T09:43:22Z</time><name>PT61</name></trkpt>
<trkpt lat="53.367270" lon="-1.616002"><ele>358</ele><time>2020-05-21T09:43:22Z</time><name>PT62</name></trkpt>
<trkpt lat="53.367277" lon="-1.615987"><ele>359</ele><time>2020-05-21T09:43:23Z</time><name>PT63</name></trkpt>
<trkpt lat="53.367280" lon="-1.615975"><ele>357</ele><time>2020-05-21T09:43:25Z</time><name>PT64</name></trkpt>
<trkpt lat="53.367289" lon="-1.615965"><ele>357</ele><time>2020-05-21T09:43:25Z</time><name>PT65</name></trkpt>
<trkpt lat="53.367295" lon="-1.615940"><ele>358</ele><time>2020-05-21T09:43:27Z</time><name>PT66</name></trkpt>
<trkpt lat="53.367301" lon="-1.615914"><ele>357</ele><time>2020-05-21T09:43:28Z</time><name>PT67</name></trkpt>
<trkpt lat="53.367303" lon="-1.615897"><ele>357</ele><time>2020-05-21T09:43:28Z</time><name>PT68</name></trkpt>
<trkpt lat="53.367304" lon="-1.615889"><ele>359</ele><time>2020-05-21T09:43:29Z</time><name>PT69</name></trkpt>
<trkpt lat="53.367305" lon="-1.615880"><ele>359</ele><time>2020-05-21T09:43:31Z</time><name>PT70</name></trkpt>
<trkpt lat="53.367314" lon="-1.615866"><ele>359</ele><time>2020-05-21T09:43:31Z</time><name>PT71</name></trkpt>
<trkpt lat="53.367318" lon="-1.615844"><ele>360</ele><time>2020-05-21T09:43:32Z</time><name>PT72</name></trkpt>
<trkpt lat="53.367320" lon="-1.615827"><ele>360</ele><time>2020-05-21T09:43:34Z</time><name>PT73</name></trkpt>
<trkpt lat="53.367319" lon="-1.615811"><ele>360</ele><time>2020-05-21T09:43:34Z</time><name>PT74</name></trkpt>
<trkpt lat="53.367325" lon="-1.615798"><ele>359</ele><time>2020-05-21T09:43:35Z</time><name>PT75</name></trkpt>
<trkpt lat="53.367325" lon="-1.615780"><ele>359</ele><time>2020-05-21T09:43:37Z</time><name>PT76</name></trkpt>
<trkpt lat="53.367323" lon="-1.615759"><ele>359</ele><time>2020-05-21T09:43:37Z</time><name>PT77</name></trkpt>
<trkpt lat="53.367321" lon="-1.615744"><ele>359</ele><time>2020-05-21T09:43:38Z</time><name>PT78</name></trkpt>
<trkpt lat="53.367321" lon="-1.615728"><ele>359</ele><time>2020-05-21T09:43:40Z</time><name>PT79</name></trkpt>
<trkpt lat="53.367323" lon="-1.615711"><ele>359</ele><time>2020-05-21T09:43:40Z</time><name>PT80</name></trkpt>
<trkpt lat="53.367328" lon="-1.615699"><ele>360</ele><time>2020-05-21T09:43:41Z</time><name>PT81</name></trkpt>
<trkpt lat="53.367331" lon="-1.615677"><ele>361</ele><time>2020-05-21T09:43:43Z</time><name>PT82</name></trkpt>
<trkpt lat="53.367333" lon="-1.615664"><ele>361</ele><time>2020-05-21T09:43:44Z</time><name>PT83</name></trkpt>
<trkpt lat="53.367338" lon="-1.615656"><ele>361</ele><time>2020-05-21T09:43:44Z</time><name>PT84</name></trkpt>
<trkpt lat="53.367342" lon="-1.615642"><ele>362</ele><time>2020-05-21T09:43:46Z</time><name>PT85</name></trkpt>
<trkpt lat="53.367347" lon="-1.615634"><ele>361</ele><time>2020-05-21T09:43:46Z</time><name>PT86</name></trkpt>
<trkpt lat="53.367349" lon="-1.615628"><ele>361</ele><time>2020-05-21T09:43:48Z</time><name>PT87</name></trkpt>
<trkpt lat="53.367353" lon="-1.615622"><ele>361</ele><time>2020-05-21T09:43:49Z</time><name>PT88</name></trkpt>
<trkpt lat="53.367354" lon="-1.615621"><ele>361</ele><time>2020-05-21T09:43:49Z</time><name>PT89</name></trkpt>
<trkpt lat="53.367361" lon="-1.615609"><ele>361</ele><time>2020-05-21T09:43:50Z</time><name>PT90</name></trkpt>
<trkpt lat="53.367362" lon="-1.615604"><ele>361</ele><time>2020-05-21T09:43:52Z</time><name>PT91</name></trkpt>
<trkpt lat="53.367366" lon="-1.615600"><ele>361</ele><time>2020-05-21T09:43:53Z</time><name>PT92</name></trkpt>
<trkpt lat="53.367371" lon="-1.615594"><ele>360</ele><time>2020-05-21T09:43:54Z</time><name>PT93</name></trkpt>
<trkpt lat="53.367383" lon="-1.615579"><ele>359</ele><time>2020-05-21T09:43:55Z</time><name>PT94</name></trkpt>
<trkpt lat="53.367392" lon="-1.615560"><ele>359</ele><time>2020-05-21T09:43:56Z</time><name>PT95</name></trkpt>
<trkpt lat="53.367397" lon="-1.615556"><ele>359</ele><time>2020-05-21T09:43:57Z</time><name>PT96</name></trkpt>
<trkpt lat="53.367403" lon="-1.615547"><ele>359</ele><time>2020-05-21T09:43:58Z</time><name>PT97</name></trkpt>
<trkpt lat="53.367405" lon="-1.615538"><ele>359</ele><time>2020-05-21T09:43:58Z</time><name>PT98</name></trkpt>
<trkpt lat="53.367411" lon="-1.615532"><ele>359</ele><time>2020-05-21T09:44:00Z</time><name>PT99</name></trkpt>
<trkpt lat="53.367421" lon="-1.615535"><ele>359</ele><time>2020-05-21T09:44:01Z</time><name>PT100</name></trkpt>
<trkpt lat="53.367426" lon="-1.615533"><ele>359</ele><time>2020-05-21T09:44:01Z</time><name>PT101</name></trkpt>
<trkpt lat="53.367433" lon="-1.615538"><ele>359</ele><time>2020-05-21T09:44:03Z</time><name>PT102</name></trkpt>
<trkpt lat="53.367436" lon="-1.615541"><ele>360</ele><time>2020-05-21T09:44:04Z</time><name>PT103</name></trkpt>
<trkpt lat="53.367440" lon="-1.615542"><ele>359</ele><time>2020-05-21T09:44:05Z</time><name>PT104</name></trkpt>
<trkpt lat="53.367443" lon="-1.615533"><ele>360</ele><time>2020-05-21T09:44:10Z</time><name>PT105</name></trkpt>
<trkpt lat="53.367453" lon="-1.615549"><ele>360</ele><time>2020-05-21T09:44:11Z</time><name>PT106</name></trkpt>
<trkpt lat="53.367458" lon="-1.615552"><ele>359</ele><time>2020-05-21T09:44:11Z</time><name>PT107</name></trkpt>
<trkpt lat="53.367468" lon="-1.615545"><ele>359</ele><time>2020-05-21T09:44:13Z</time><name>PT108</name></trkpt>
<trkpt lat="53.367473" lon="-1.615542"><ele>359</ele><time>2020-05-21T09:44:13Z</time><name>PT109</name></trkpt>
<trkpt lat="53.367482" lon="-1.615542"><ele>360</ele><time>2020-05-21T09:44:15Z</time><name>PT110</name></trkpt>
<trkpt lat="53.367493" lon="-1.615547"><ele>360</ele><time>2020-05-21T09:44:16Z</time><name>PT111</name></trkpt>
<trkpt lat="53.367509" lon="-1.615553"><ele>360</ele><time>2020-05-21T09:44:17Z</time><name>PT112</name></trkpt>
<trkpt lat="53.367518" lon="-1.615558"><ele>360</ele><time>2020-05-21T09:44:18Z</time><name>PT113</name></trkpt>
<trkpt lat="53.367529" lon="-1.615560"><ele>361</ele><time>2020-05-21T09:44:19Z</time><name>PT114</name></trkpt>
<trkpt lat="53.367537" lon="-1.615561"><ele>361</ele><time>2020-05-21T09:44:19Z</time><name>PT115</name></trkpt>
<trkpt lat="53.367548" lon="-1.615562"><ele>361</ele><time>2020-05-21T09:44:21Z</time><name>PT116</name></trkpt>
<trkpt lat="53.367555" lon="-1.615564"><ele>361</ele><time>2020-05-21T09:44:22Z</time><name>PT117</name></trkpt>
<trkpt lat="53.367561" lon="-1.615568"><ele>361</ele><time>2020-05-21T09:44:22Z</time><name>PT118</name></trkpt>
<trkpt lat="53.367563" lon="-1.615570"><ele>361</ele><time>2020-05-21T09:44:24Z</time><name>PT119</name></trkpt>
<trkpt lat="53.367566" lon="-1.615567"><ele>361</ele><time>2020-05-21T09:44:25Z</time><name>PT120</name></trkpt>
<trkpt lat="53.367570" lon="-1.615560"><ele>361</ele><time>2020-05-21T09:44:25Z</time><name>PT121</name></trkpt>
<trkpt lat="53.367575" lon="-1.615564"><ele>361</ele><time>2020-05-21T09:44:27Z</time><name>PT122</name></trkpt>
<trkpt lat="53.367581" lon="-1.615567"><ele>362</ele><time>2020-05-21T09:44:28Z</time><name>PT123</name></trkpt>
<trkpt lat="53.367590" lon="-1.615571"><ele>363</ele><time>2020-05-21T09:44:28Z</time><name>PT124</name></trkpt>
<trkpt lat="53.367596" lon="-1.615571"><ele>363</ele><time>2020-05-21T09:44:30Z</time><name>PT125</name></trkpt>
<trkpt lat="53.367601" lon="-1.615571"><ele>363</ele><time>2020-05-21T09:44:31Z</time><name>PT126</name></trkpt>
<trkpt lat="53.367611" lon="-1.615573"><ele>364</ele><time>2020-05-21T09:44:31Z</time><name>PT127</name></trkpt>
<trkpt lat="53.367621" lon="-1.615577"><ele>364</ele><time>2020-05-21T09:44:33Z</time><name>PT128</name></trkpt>
<trkpt lat="53.367628" lon="-1.615579"><ele>364</ele><time>2020-05-21T09:44:34Z</time><name>PT129</name></trkpt>
<trkpt lat="53.367635" lon="-1.615584"><ele>364</ele><time>2020-05-21T09:44:35Z</time><name>PT130</name></trkpt>
<trkpt lat="53.367647" lon="-1.615576"><ele>364</ele><time>2020-05-21T09:44:36Z</time><name>PT131</name></trkpt>
<trkpt lat="53.367660" lon="-1.615570"><ele>363</ele><time>2020-05-21T09:44:37Z</time><name>PT132</name></trkpt>
<trkpt lat="53.367669" lon="-1.615569"><ele>364</ele><time>2020-05-21T09:44:37Z</time><name>PT133</name></trkpt>
<trkpt lat="53.367672" lon="-1.615572"><ele>365</ele><time>2020-05-21T09:44:39Z</time><name>PT134</name></trkpt>
<trkpt lat="53.367675" lon="-1.615573"><ele>365</ele><time>2020-05-21T09:44:40Z</time><name>PT135</name></trkpt>
<trkpt lat="53.367681" lon="-1.615574"><ele>365</ele><time>2020-05-21T09:44:40Z</time><name>PT136</name></trkpt>
<trkpt lat="53.367686" lon="-1.615574"><ele>365</ele><time>2020-05-21T09:44:41Z</time><name>PT137</name></trkpt>
<trkpt lat="53.367692" lon="-1.615570"><ele>364</ele><time>2020-05-21T09:44:43Z</time><name>PT138</name></trkpt>
<trkpt lat="53.367698" lon="-1.615571"><ele>363</ele><time>2020-05-21T09:44:43Z</time><name>PT139</name></trkpt>
<trkpt lat="53.367703" lon="-1.615574"><ele>365</ele><time>2020-05-21T09:44:44Z</time><name>PT140</name></trkpt>
<trkpt lat="53.367712" lon="-1.615571"><ele>365</ele><time>2020-05-21T09:44:46Z</time><name>PT141</name></trkpt>
<trkpt lat="53.367718" lon="-1.615570"><ele>364</ele><time>2020-05-21T09:44:46Z</time><name>PT142</name></trkpt>
<trkpt lat="53.367729" lon="-1.615570"><ele>364</ele><time>2020-05-21T09:44:47Z</time><name>PT143</name></trkpt>
<trkpt lat="53.367739" lon="-1.615573"><ele>364</ele><time>2020-05-21T09:44:49Z</time><name>PT144</name></trkpt>
<trkpt lat="53.367744" lon="-1.615570"><ele>364</ele><time>2020-05-21T09:44:49Z</time><name>PT145</name></trkpt>
<trkpt lat="53.367755" lon="-1.615568"><ele>365</ele><time>2020-05-21T09:44:51Z</time><name>PT146</name></trkpt>
<trkpt lat="53.367766" lon="-1.615573"><ele>364</ele><time>2020-05-21T09:44:52Z</time><name>PT147</name></trkpt>
<trkpt lat="53.367776" lon="-1.615578"><ele>363</ele><time>2020-05-21T09:44:52Z</time><name>PT148</name></trkpt>
<trkpt lat="53.367783" lon="-1.615582"><ele>364</ele><time>2020-05-21T09:44:53Z</time><name>PT149</name></trkpt>
<trkpt lat="53.367788" lon="-1.615588"><ele>365</ele><time>2020-05-21T09:44:55Z</time><name>PT150</name></trkpt>
<trkpt lat="53.367793" lon="-1.615590"><ele>364</ele><time>2020-05-21T09:44:55Z</time><name>PT151</name></trkpt>
<trkpt lat="53.367798" lon="-1.615593"><ele>364</ele><time>2020-05-21T09:44:57Z</time><name>PT152</name></trkpt>
<trkpt lat="53.367804" lon="-1.615595"><ele>363</ele><time>2020-05-21T09:44:58Z</time><name>PT153</name></trkpt>
<trkpt lat="53.367812" lon="-1.615603"><ele>362</ele><time>2020-05-21T09:45:00Z</time><name>PT154</name></trkpt>
<trkpt lat="53.367821" lon="-1.615610"><ele>363</ele><time>2020-05-21T09:45:01Z</time><name>PT155</name></trkpt>
<trkpt lat="53.367829" lon="-1.615621"><ele>363</ele><time>2020-05-21T09:45:02Z</time><name>PT156</name></trkpt>
<trkpt lat="53.367844" lon="-1.615624"><ele>364</ele><time>2020-05-21T09:45:03Z</time><name>PT157</name></trkpt>
<trkpt lat="53.367852" lon="-1.615631"><ele>364</ele><time>2020-05-21T09:45:04Z</time><name>PT158</name></trkpt>
<trkpt lat="53.367859" lon="-1.615633"><ele>365</ele><time>2020-05-21T09:45:04Z</time><name>PT159</name></trkpt>
<trkpt lat="53.367868" lon="-1.615633"><ele>365</ele><time>2020-05-21T09:45:06Z</time><name>PT160</name></trkpt>
<trkpt lat="53.367882" lon="-1.615629"><ele>364</ele><time>2020-05-21T09:45:07Z</time><name>PT161</name></trkpt>
<trkpt lat="53.367894" lon="-1.615630"><ele>364</ele><time>2020-05-21T09:45:08Z</time><name>PT162</name></trkpt>
<trkpt lat="53.367902" lon="-1.615628"><ele>365</ele><time>2020-05-21T09:45:09Z</time><name>PT163</name></trkpt>
<trkpt lat="53.367909" lon="-1.615629"><ele>365</ele><time>2020-05-21T09:45:10Z</time><name>PT164</name></trkpt>
<trkpt lat="53.367917" lon="-1.615631"><ele>364</ele><time>2020-05-21T09:45:11Z</time><name>PT165</name></trkpt>
<trkpt lat="53.367925" lon="-1.615631"><ele>363</ele><time>2020-05-21T09:45:12Z</time><name>PT166</name></trkpt>
<trkpt lat="53.367934" lon="-1.615626"><ele>363</ele><time>2020-05-21T09:45:13Z</time><name>PT167</name></trkpt>
<trkpt lat="53.367941" lon="-1.615621"><ele>363</ele><time>2020-05-21T09:45:13Z</time><name>PT168</name></trkpt>
<trkpt lat="53.367949" lon="-1.615616"><ele>364</ele><time>2020-05-21T09:45:15Z</time><name>PT169</name></trkpt>
<trkpt lat="53.367959" lon="-1.615614"><ele>363</ele><time>2020-05-21T09:45:16Z</time><name>PT170</name></trkpt>
<trkpt lat="53.367967" lon="-1.615610"><ele>364</ele><time>2020-05-21T09:45:17Z</time><name>PT171</name></trkpt>
<trkpt lat="53.367976" lon="-1.615609"><ele>364</ele><time>2020-05-21T09:45:18Z</time><name>PT172</name></trkpt>
<trkpt lat="53.367981" lon="-1.615608"><ele>365</ele><time>2020-05-21T09:45:19Z</time><name>PT173</name></trkpt>
<trkpt lat="53.367987" lon="-1.615605"><ele>366</ele><time>2020-05-21T09:45:20Z</time><name>PT174</name></trkpt>
<trkpt lat="53.368002" lon="-1.615613"><ele>366</ele><time>2020-05-21T09:45:21Z</time><name>PT175</name></trkpt>
<trkpt lat="53.368017" lon="-1.615613"><ele>367</ele><time>2020-05-21T09:45:22Z</time><name>PT176</name></trkpt>
<trkpt lat="53.368027" lon="-1.615610"><ele>367</ele><time>2020-05-21T09:45:22Z</time><name>PT177</name></trkpt>
<trkpt lat="53.368035" lon="-1.615609"><ele>368</ele><time>2020-05-21T09:45:24Z</time><name>PT178</name></trkpt>
<trkpt lat="53.368041" lon="-1.615610"><ele>367</ele><time>2020-05-21T09:45:25Z</time><name>PT179</name></trkpt>
<trkpt lat="53.368044" lon="-1.615613"><ele>368</ele><time>2020-05-21T09:45:26Z</time><name>PT180</name></trkpt>
<trkpt lat="53.368054" lon="-1.615612"><ele>368</ele><time>2020-05-21T09:45:27Z</time><name>PT181</name></trkpt>
<trkpt lat="53.368069" lon="-1.615610"><ele>368</ele><time>2020-05-21T09:45:28Z</time><name>PT182</name></trkpt>
<trkpt lat="53.368078" lon="-1.615610"><ele>368</ele><time>2020-05-21T09:45:29Z</time><name>PT183</name></trkpt>
<trkpt lat="53.368087" lon="-1.615612"><ele>368</ele><time>2020-05-21T09:45:30Z</time><name>PT184</name></trkpt>
<trkpt lat="53.368094" lon="-1.615618"><ele>367</ele><time>2020-05-21T09:45:31Z</time><name>PT185</name></trkpt>
<trkpt lat="53.368104" lon="-1.615621"><ele>366</ele><time>2020-05-21T09:45:31Z</time><name>PT186</name></trkpt>
<trkpt lat="53.368111" lon="-1.615621"><ele>366</ele><time>2020-05-21T09:45:33Z</time><name>PT187</name></trkpt>
<trkpt lat="53.368118" lon="-1.615619"><ele>366</ele><time>2020-05-21T09:45:34Z</time><name>PT188</name></trkpt>
<trkpt lat="53.368119" lon="-1.615629"><ele>367</ele><time>2020-05-21T09:45:35Z</time><name>PT189</name></trkpt>
<trkpt lat="53.368122" lon="-1.615635"><ele>367</ele><time>2020-05-21T09:45:36Z</time><name>PT190</name></trkpt>
<trkpt lat="53.368130" lon="-1.615635"><ele>368</ele><time>2020-05-21T09:45:37Z</time><name>PT191</name></trkpt>
<trkpt lat="53.368138" lon="-1.615629"><ele>369</ele><time>2020-05-21T09:45:37Z</time><name>PT192</name></trkpt>
<trkpt lat="53.368144" lon="-1.615628"><ele>369</ele><time>2020-05-21T09:45:39Z</time><name>PT193</name></trkpt>
<trkpt lat="53.368158" lon="-1.615621"><ele>370</ele><time>2020-05-21T09:45:40Z</time><name>PT194</name></trkpt>
<trkpt lat="53.368169" lon="-1.615619"><ele>370</ele><time>2020-05-21T09:45:40Z</time><name>PT195</name></trkpt>
<trkpt lat="53.368177" lon="-1.615619"><ele>370</ele><time>2020-05-21T09:45:42Z</time><name>PT196</name></trkpt>
<trkpt lat="53.368186" lon="-1.615615"><ele>372</ele><time>2020-05-21T09:45:43Z</time><name>PT197</name></trkpt>
<trkpt lat="53.368190" lon="-1.615613"><ele>371</ele><time>2020-05-21T09:45:44Z</time><name>PT198</name></trkpt>
<trkpt lat="53.368190" lon="-1.615617"><ele>371</ele><time>2020-05-21T09:45:45Z</time><name>PT199</name></trkpt>
<trkpt lat="53.368195" lon="-1.615613"><ele>371</ele><time>2020-05-21T09:45:46Z</time><name>PT200</name></trkpt>
<trkpt lat="53.368200" lon="-1.615609"><ele>372</ele><time>2020-05-21T09:45:46Z</time><name>PT201</name></trkpt>
<trkpt lat="53.368203" lon="-1.615604"><ele>372</ele><time>2020-05-21T09:45:48Z</time><name>PT202</name></trkpt>
<trkpt lat="53.368204" lon="-1.615602"><ele>373</ele><time>2020-05-21T09:45:49Z</time><name>PT203</name></trkpt>
<trkpt lat="53.368204" lon="-1.615610"><ele>373</ele><time>2020-05-21T09:45:49Z</time><name>PT204</name></trkpt>
<trkpt lat="53.368213" lon="-1.615608"><ele>373</ele><time>2020-05-21T09:45:50Z</time><name>PT205</name></trkpt>
<trkpt lat="53.368214" lon="-1.615612"><ele>373</ele><time>2020-05-21T09:45:52Z</time><name>PT206</name></trkpt>
<trkpt lat="53.368225" lon="-1.615606"><ele>372</ele><time>2020-05-21T09:45:53Z</time><name>PT207</name></trkpt>
<trkpt lat="53.368223" lon="-1.615613"><ele>372</ele><time>2020-05-21T09:45:54Z</time><name>PT208</name></trkpt>
<trkpt lat="53.368223" lon="-1.615622"><ele>372</ele><time>2020-05-21T09:45:55Z</time><name>PT209</name></trkpt>
<trkpt lat="53.368220" lon="-1.615626"><ele>373</ele><time>2020-05-21T09:45:55Z</time><name>PT210</name></trkpt>
<trkpt lat="53.368221" lon="-1.615652"><ele>372</ele><time>2020-05-21T09:45:57Z</time><name>PT211</name></trkpt>
<trkpt lat="53.368223" lon="-1.615671"><ele>372</ele><time>2020-05-21T09:45:58Z</time><name>PT212</name></trkpt>
<trkpt lat="53.368226" lon="-1.615679"><ele>372</ele><time>2020-05-21T09:45:58Z</time><name>PT213</name></trkpt>
<trkpt lat="53.368229" lon="-1.615686"><ele>372</ele><time>2020-05-21T09:45:59Z</time><name>PT214</name></trkpt>
<trkpt lat="53.368234" lon="-1.615694"><ele>372</ele><time>2020-05-21T09:46:01Z</time><name>PT215</name></trkpt>
<trkpt lat="53.368243" lon="-1.615701"><ele>371</ele><time>2020-05-21T09:46:01Z</time><name>PT216</name></trkpt>
<trkpt lat="53.368256" lon="-1.615704"><ele>372</ele><time>2020-05-21T09:46:02Z</time><name>PT217</name></trkpt>
<trkpt lat="53.368265" lon="-1.615706"><ele>372</ele><time>2020-05-21T09:46:04Z</time><name>PT218</name></trkpt>
<trkpt lat="53.368280" lon="-1.615705"><ele>373</ele><time>2020-05-21T09:46:04Z</time><name>PT219</name></trkpt>
<trkpt lat="53.368292" lon="-1.615702"><ele>373</ele><time>2020-05-21T09:46:06Z</time><name>PT220</name></trkpt>
<trkpt lat="53.368303" lon="-1.615702"><ele>373</ele><time>2020-05-21T09:46:07Z</time><name>PT221</name></trkpt>
<trkpt lat="53.368312" lon="-1.615700"><ele>373</ele><time>2020-05-21T09:46:08Z</time><name>PT222</name></trkpt>
<trkpt lat="53.368323" lon="-1.615701"><ele>374</ele><time>2020-05-21T09:46:09Z</time><name>PT223</name></trkpt>
<trkpt lat="53.368330" lon="-1.615699"><ele>375</ele><time>2020-05-21T09:46:10Z</time><name>PT224</name></trkpt>
<trkpt lat="53.368341" lon="-1.615705"><ele>375</ele><time>2020-05-21T09:46:10Z</time><name>PT225</name></trkpt>
<trkpt lat="53.368351" lon="-1.615705"><ele>376</ele><time>2020-05-21T09:46:11Z</time><name>PT226</name></trkpt>
<trkpt lat="53.368357" lon="-1.615707"><ele>376</ele><time>2020-05-21T09:46:13Z</time><name>PT227</name></trkpt>
<trkpt lat="53.368364" lon="-1.615713"><ele>375</ele><time>2020-05-21T09:46:13Z</time><name>PT228</name></trkpt>
<trkpt lat="53.368376" lon="-1.615716"><ele>375</ele><time>2020-05-21T09:46:14Z</time><name>PT229</name></trkpt>
<trkpt lat="53.368385" lon="-1.615714"><ele>376</ele><time>2020-05-21T09:46:16Z</time><name>PT230</name></trkpt>
<trkpt lat="53.368390" lon="-1.615715"><ele>376</ele><time>2020-05-21T09:46:16Z</time><name>PT231</name></trkpt>
<trkpt lat="53.368399" lon="-1.615719"><ele>377</ele><time>2020-05-21T09:46:18Z</time><name>PT232</name></trkpt>
<trkpt lat="53.368407" lon="-1.615722"><ele>377</ele><time>2020-05-21T09:46:19Z</time><name>PT233</name></trkpt>
<trkpt lat="53.368419" lon="-1.615728"><ele>377</ele><time>2020-05-21T09:46:20Z</time><name>PT234</name></trkpt>
<trkpt lat="53.368429" lon="-1.615731"><ele>377</ele><time>2020-05-21T09:46:21Z</time><name>PT235</name></trkpt>
<trkpt lat="53.368435" lon="-1.615732"><ele>378</ele><time>2020-05-21T09:46:22Z</time><name>PT236</name></trkpt>
<trkpt lat="53.368444" lon="-1.615735"><ele>378</ele><time>2020-05-21T09:46:23Z</time><name>PT237</name></trkpt>
<trkpt lat="53.368451" lon="-1.615738"><ele>377</ele><time>2020-05-21T09:46:24Z</time><name>PT238</name></trkpt>
<trkpt lat="53.368462" lon="-1.615744"><ele>377</ele><time>2020-05-21T09:46:25Z</time><name>PT239</name></trkpt>
<trkpt lat="53.368470" lon="-1.615745"><ele>378</ele><time>2020-05-21T09:46:25Z</time><name>PT240</name></trkpt>
<trkpt lat="53.368475" lon="-1.615755"><ele>377</ele><time>2020-05-21T09:46:26Z</time><name>PT241</name></trkpt>
<trkpt lat="53.368481" lon="-1.615762"><ele>377</ele><time>2020-05-21T09:46:28Z</time><name>PT242</name></trkpt>
<trkpt lat="53.368491" lon="-1.615771"><ele>377</ele><time>2020-05-21T09:46:28Z</time><name>PT243</name></trkpt>
<trkpt lat="53.368501" lon="-1.615776"><ele>377</ele><time>2020-05-21T09:46:30Z</time><name>PT244</name></trkpt>
<trkpt lat="53.368509" lon="-1.615774"><ele>377</ele><time>2020-05-21T09:46:31Z</time><name>PT245</name></trkpt>
<trkpt lat="53.368518" lon="-1.615775"><ele>377</ele><time>2020-05-21T09:46:31Z</time><name>PT246</name></trkpt>
<trkpt lat="53.368527" lon="-1.615774"><ele>377</ele><time>2020-05-21T09:46:33Z</time><name>PT247</name></trkpt>
<trkpt lat="53.368542" lon="-1.615776"><ele>378</ele><time>2020-05-21T09:46:34Z</time><name>PT248</name></trkpt>
<trkpt lat="53.368554" lon="-1.615782"><ele>378</ele><time>2020-05-21T09:46:35Z</time><name>PT249</name></trkpt>
<trkpt lat="53.368563" lon="-1.615782"><ele>378</ele><time>2020-05-21T09:46:36Z</time><name>PT250</name></trkpt>
<trkpt lat="53.368577" lon="-1.615776"><ele>377</ele><time>2020-05-21T09:46:37Z</time><name>PT251</name></trkpt>
<trkpt lat="53.368590" lon="-1.615765"><ele>378</ele><time>2020-05-21T09:46:37Z</time><name>PT252</name></trkpt>
<trkpt lat="53.368599" lon="-1.615766"><ele>378</ele><time>2020-05-21T09:46:39Z</time><name>PT253</name></trkpt>
<trkpt lat="53.368607" lon="-1.615772"><ele>379</ele><time>2020-05-21T09:46:40Z</time><name>PT254</name></trkpt>
<trkpt lat="53.368615" lon="-1.615778"><ele>378</ele><time>2020-05-21T09:46:40Z</time><name>PT255</name></trkpt>
<trkpt lat="53.368627" lon="-1.615782"><ele>379</ele><time>2020-05-21T09:46:41Z</time><name>PT256</name></trkpt>
<trkpt lat="53.368638" lon="-1.615786"><ele>379</ele><time>2020-05-21T09:46:43Z</time><name>PT257</name></trkpt>
<trkpt lat="53.368650" lon="-1.615790"><ele>380</ele><time>2020-05-21T09:46:44Z</time><name>PT258</name></trkpt>
<trkpt lat="53.368658" lon="-1.615793"><ele>381</ele><time>2020-05-21T09:46:45Z</time><name>PT259</name></trkpt>
<trkpt lat="53.368667" lon="-1.615792"><ele>382</ele><time>2020-05-21T09:46:46Z</time><name>PT260</name></trkpt>
<trkpt lat="53.368679" lon="-1.615791"><ele>382</ele><time>2020-05-21T09:46:46Z</time><name>PT261</name></trkpt>
<trkpt lat="53.368692" lon="-1.615790"><ele>383</ele><time>2020-05-21T09:46:47Z</time><name>PT262</name></trkpt>
<trkpt lat="53.368705" lon="-1.615791"><ele>383</ele><time>2020-05-21T09:46:49Z</time><name>PT263</name></trkpt>
<trkpt lat="53.368710" lon="-1.615790"><ele>383</ele><time>2020-05-21T09:46:50Z</time><name>PT264</name></trkpt>
<trkpt lat="53.368716" lon="-1.615792"><ele>383</ele><time>2020-05-21T09:46:51Z</time><name>PT265</name></trkpt>
<trkpt lat="53.368723" lon="-1.615795"><ele>383</ele><time>2020-05-21T09:46:52Z</time><name>PT266</name></trkpt>
<trkpt lat="53.368736" lon="-1.615794"><ele>384</ele><time>2020-05-21T09:46:52Z</time><name>PT267</name></trkpt>
<trkpt lat="53.368747" lon="-1.615793"><ele>384</ele><time>2020-05-21T09:46:54Z</time><name>PT268</name></trkpt>
<trkpt lat="53.368755" lon="-1.615794"><ele>384</ele><time>2020-05-21T09:46:55Z</time><name>PT269</name></trkpt>
<trkpt lat="53.368767" lon="-1.615800"><ele>384</ele><time>2020-05-21T09:46:56Z</time><name>PT270</name></trkpt>
<trkpt lat="53.368780" lon="-1.615803"><ele>384</ele><time>2020-05-21T09:46:57Z</time><name>PT271</name></trkpt>
<trkpt lat="53.368792" lon="-1.615805"><ele>384</ele><time>2020-05-21T09:46:58Z</time><name>PT272</name></trkpt>
<trkpt lat="53.368800" lon="-1.615804"><ele>384</ele><time>2020-05-21T09:46:58Z</time><name>PT273</name></trkpt>
<trkpt lat="53.368812" lon="-1.615806"><ele>384</ele><time>2020-05-21T09:47:00Z</time><name>PT274</name></trkpt>
<trkpt lat="53.368823" lon="-1.615805"><ele>384</ele><time>2020-05-21T09:47:01Z</time><name>PT275</name></trkpt>
<trkpt lat="53.368834" lon="-1.615803"><ele>384</ele><time>2020-05-21T09:47:01Z</time><name>PT276</name></trkpt>
<trkpt lat="53.368845" lon="-1.615802"><ele>385</ele><time>2020-05-21T09:47:02Z</time><name>PT277</name></trkpt>
<trkpt lat="53.368853" lon="-1.615800"><ele>385</ele><time>2020-05-21T09:47:04Z</time><name>PT278</name></trkpt>
<trkpt lat="53.368864" lon="-1.615797"><ele>384</ele><time>2020-05-21T09:47:05Z</time><name>PT279</name></trkpt>
<trkpt lat="53.368876" lon="-1.615799"><ele>384</ele><time>2020-05-21T09:47:06Z</time><name>PT280</name></trkpt>
<trkpt lat="53.368890" lon="-1.615799"><ele>384</ele><time>2020-05-21T09:47:07Z</time><name>PT281</name></trkpt>
<trkpt lat="53.368901" lon="-1.615797"><ele>385</ele><time>2020-05-21T09:47:07Z</time><name>PT282</name></trkpt>
<trkpt lat="53.368911" lon="-1.615794"><ele>385</ele><time>2020-05-21T09:47:09Z</time><name>PT283</name></trkpt>
<trkpt lat="53.368921" lon="-1.615797"><ele>385</ele><time>2020-05-21T09:47:10Z</time><name>PT284</name></trkpt>
<trkpt lat="53.368933" lon="-1.615791"><ele>385</ele><time>2020-05-21T09:47:10Z</time><name>PT285</name></trkpt>
<trkpt lat="53.368948" lon="-1.615781"><ele>386</ele><time>2020-05-21T09:47:12Z</time><name>PT286</name></trkpt>
<trkpt lat="53.368960" lon="-1.615781"><ele>387</ele><time>2020-05-21T09:47:13Z</time><name>PT287</name></trkpt>
<trkpt lat="53.368965" lon="-1.615782"><ele>387</ele><time>2020-05-21T09:47:13Z</time><name>PT288</name></trkpt>
<trkpt lat="53.368974" lon="-1.615786"><ele>387</ele><time>2020-05-21T09:47:14Z</time><name>PT289</name></trkpt>
<trkpt lat="53.368984" lon="-1.615790"><ele>386</ele><time>2020-05-21T09:47:16Z</time><name>PT290</name></trkpt>
<trkpt lat="53.368995" lon="-1.615790"><ele>386</ele><time>2020-05-21T09:47:16Z</time><name>PT291</name></trkpt>
<trkpt lat="53.369005" lon="-1.615788"><ele>387</ele><time>2020-05-21T09:47:18Z</time><name>PT292</name></trkpt>
<trkpt lat="53.369014" lon="-1.615789"><ele>387</ele><time>2020-05-21T09:47:19Z</time><name>PT293</name></trkpt>
<trkpt lat="53.369021" lon="-1.615798"><ele>387</ele><time>2020-05-21T09:47:20Z</time><name>PT294</name></trkpt>
<trkpt lat="53.369027" lon="-1.615804"><ele>387</ele><time>2020-05-21T09:47:21Z</time><name>PT295</name></trkpt>
<trkpt lat="53.369038" lon="-1.615811"><ele>387</ele><time>2020-05-21T09:47:22Z</time><name>PT296</name></trkpt>
<trkpt lat="53.369049" lon="-1.615818"><ele>387</ele><time>2020-05-21T09:47:22Z</time><name>PT297</name></trkpt>
<trkpt lat="53.369063" lon="-1.615821"><ele>387</ele><time>2020-05-21T09:47:24Z</time><name>PT298</name></trkpt>
<trkpt lat="53.369071" lon="-1.615826"><ele>387</ele><time>2020-05-21T09:47:25Z</time><name>PT299</name></trkpt>
<trkpt lat="53.369081" lon="-1.615836"><ele>387</ele><time>2020-05-21T09:47:25Z</time><name>PT300</name></trkpt>
<trkpt lat="53.369094" lon="-1.615842"><ele>387</ele><time>2020-05-21T09:47:26Z</time><name>PT301</name></trkpt>
<trkpt lat="53.369106" lon="-1.615846"><ele>387</ele><time>2020-05-21T09:47:28Z</time><name>PT302</name></trkpt>
<trkpt lat="53.369118" lon="-1.615853"><ele>387</ele><time>2020-05-21T09:47:29Z</time><name>PT303</name></trkpt>
<trkpt lat="53.369129" lon="-1.615859"><ele>387</ele><time>2020-05-21T09:47:30Z</time><name>PT304</name></trkpt>
<trkpt lat="53.369139" lon="-1.615862"><ele>387</ele><time>2020-05-21T09:47:31Z</time><name>PT305</name></trkpt>
<trkpt lat="53.369151" lon="-1.615864"><ele>387</ele><time>2020-05-21T09:47:32Z</time><name>PT306</name></trkpt>
<trkpt lat="53.369163" lon="-1.615863"><ele>387</ele><time>2020-05-21T09:47:33Z</time><name>PT307</name></trkpt>
<trkpt lat="53.369175" lon="-1.615865"><ele>387</ele><time>2020-05-21T09:47:34Z</time><name>PT308</name></trkpt>
<trkpt lat="53.369187" lon="-1.615867"><ele>386</ele><time>2020-05-21T09:47:34Z</time><name>PT309</name></trkpt>
<trkpt lat="53.369195" lon="-1.615873"><ele>385</ele><time>2020-05-21T09:47:35Z</time><name>PT310</name></trkpt>
<trkpt lat="53.369203" lon="-1.615879"><ele>385</ele><time>2020-05-21T09:47:37Z</time><name>PT311</name></trkpt>
<trkpt lat="53.369212" lon="-1.615888"><ele>385</ele><time>2020-05-21T09:47:37Z</time><name>PT312</name></trkpt>
<trkpt lat="53.369226" lon="-1.615892"><ele>385</ele><time>2020-05-21T09:47:38Z</time><name>PT313</name></trkpt>
<trkpt lat="53.369241" lon="-1.615896"><ele>385</ele><time>2020-05-21T09:47:40Z</time><name>PT314</name></trkpt>
<trkpt lat="53.369253" lon="-1.615898"><ele>386</ele><time>2020-05-21T09:47:40Z</time><name>PT315</name></trkpt>
<trkpt lat="53.369263" lon="-1.615902"><ele>386</ele><time>2020-05-21T09:47:42Z</time><name>PT316</name></trkpt>
<trkpt lat="53.369271" lon="-1.615905"><ele>386</ele><time>2020-05-21T09:47:43Z</time><name>PT317</name></trkpt>
<trkpt lat="53.369285" lon="-1.615908"><ele>386</ele><time>2020-05-21T09:47:43Z</time><name>PT318</name></trkpt>
<trkpt lat="53.369298" lon="-1.615913"><ele>387</ele><time>2020-05-21T09:47:45Z</time><name>PT319</name></trkpt>
<trkpt lat="53.369310" lon="-1.615915"><ele>388</ele><time>2020-05-21T09:47:46Z</time><name>PT320</name></trkpt>
<trkpt lat="53.369326" lon="-1.615923"><ele>388</ele><time>2020-05-21T09:47:46Z</time><name>PT321</name></trkpt>
<trkpt lat="53.369340" lon="-1.615928"><ele>388</ele><time>2020-05-21T09:47:48Z</time><name>PT322</name></trkpt>
<trkpt lat="53.369345" lon="-1.615934"><ele>388</ele><time>2020-05-21T09:47:49Z</time><name>PT323</name></trkpt>
<trkpt lat="53.369354" lon="-1.615935"><ele>387</ele><time>2020-05-21T09:47:49Z</time><name>PT324</name></trkpt>
<trkpt lat="53.369368" lon="-1.615939"><ele>387</ele><time>2020-05-21T09:47:50Z</time><name>PT325</name></trkpt>
<trkpt lat="53.369384" lon="-1.615943"><ele>388</ele><time>2020-05-21T09:47:52Z</time><name>PT326</name></trkpt>
<trkpt lat="53.369396" lon="-1.615947"><ele>388</ele><time>2020-05-21T09:47:52Z</time><name>PT327</name></trkpt>
<trkpt lat="53.369405" lon="-1.615948"><ele>388</ele><time>2020-05-21T09:47:54Z</time><name>PT328</name></trkpt>
<trkpt lat="53.369413" lon="-1.615948"><ele>388</ele><time>2020-05-21T09:47:55Z</time><name>PT329</name></trkpt>
<trkpt lat="53.369426" lon="-1.615949"><ele>388</ele><time>2020-05-21T09:47:55Z</time><name>PT330</name></trkpt>
<trkpt lat="53.369438" lon="-1.615955"><ele>389</ele><time>2020-05-21T09:47:57Z</time><name>PT331</name></trkpt>
<trkpt lat="53.369450" lon="-1.615959"><ele>389</ele><time>2020-05-21T09:47:58Z</time><name>PT332</name></trkpt>
<trkpt lat="53.369459" lon="-1.615961"><ele>389</ele><time>2020-05-21T09:47:58Z</time><name>PT333</name></trkpt>
<trkpt lat="53.369467" lon="-1.615965"><ele>389</ele><time>2020-05-21T09:48:00Z</time><name>PT334</name></trkpt>
<trkpt lat="53.369478" lon="-1.615972"><ele>388</ele><time>2020-05-21T09:48:01Z</time><name>PT335</name></trkpt>
<trkpt lat="53.369489" lon="-1.615980"><ele>388</ele><time>2020-05-21T09:48:01Z</time><name>PT336</name></trkpt>
<trkpt lat="53.369502" lon="-1.615987"><ele>388</ele><time>2020-05-21T09:48:02Z</time><name>PT337</name></trkpt>
<trkpt lat="53.369517" lon="-1.615988"><ele>388</ele><time>2020-05-21T09:48:04Z</time><name>PT338</name></trkpt>
<trkpt lat="53.369529" lon="-1.615987"><ele>388</ele><time>2020-05-21T09:48:05Z</time><name>PT339</name></trkpt>
<trkpt lat="53.369537" lon="-1.615989"><ele>388</ele><time>2020-05-21T09:48:06Z</time><name>PT340</name></trkpt>
<trkpt lat="53.369547" lon="-1.615996"><ele>387</ele><time>2020-05-21T09:48:07Z</time><name>PT341</name></trkpt>
<trkpt lat="53.369563" lon="-1.615999"><ele>387</ele><time>2020-05-21T09:48:07Z</time><name>PT342</name></trkpt>
<trkpt lat="53.369579" lon="-1.616000"><ele>388</ele><time>2020-05-21T09:48:09Z</time><name>PT343</name></trkpt>
<trkpt lat="53.369596" lon="-1.616003"><ele>388</ele><time>2020-05-21T09:48:10Z</time><name>PT344</name></trkpt>
<trkpt lat="53.369608" lon="-1.616007"><ele>388</ele><time>2020-05-21T09:48:11Z</time><name>PT345</name></trkpt>
<trkpt lat="53.369618" lon="-1.616008"><ele>388</ele><time>2020-05-21T09:48:12Z</time><name>PT346</name></trkpt>
<trkpt lat="53.369628" lon="-1.616006"><ele>388</ele><time>2020-05-21T09:48:13Z</time><name>PT347</name></trkpt>
<trkpt lat="53.369643" lon="-1.616016"><ele>386</ele><time>2020-05-21T09:48:14Z</time><name>PT348</name></trkpt>
<trkpt lat="53.369659" lon="-1.616024"><ele>386</ele><time>2020-05-21T09:48:15Z</time><name>PT349</name></trkpt>
<trkpt lat="53.369673" lon="-1.616029"><ele>386</ele><time>2020-05-21T09:48:16Z</time><name>PT350</name></trkpt>
<trkpt lat="53.369685" lon="-1.616035"><ele>386</ele><time>2020-05-21T09:48:17Z</time><name>PT351</name></trkpt>
<trkpt lat="53.369692" lon="-1.616036"><ele>386</ele><time>2020-05-21T09:48:17Z</time><name>PT352</name></trkpt>
<trkpt lat="53.369700" lon="-1.616037"><ele>386</ele><time>2020-05-21T09:48:19Z</time><name>PT353</name></trkpt>
<trkpt lat="53.369706" lon="-1.616038"><ele>385</ele><time>2020-05-21T09:48:19Z</time><name>PT354</name></trkpt>
<trkpt lat="53.369719" lon="-1.616039"><ele>385</ele><time>2020-05-21T09:48:20Z</time><name>PT355</name></trkpt>
<trkpt lat="53.369734" lon="-1.616039"><ele>386</ele><time>2020-05-21T09:48:22Z</time><name>PT356</name></trkpt>
<trkpt lat="53.369746" lon="-1.616041"><ele>386</ele><time>2020-05-21T09:48:23Z</time><name>PT357</name></trkpt>
<trkpt lat="53.369755" lon="-1.616045"><ele>385</ele><time>2020-05-21T09:48:24Z</time><name>PT358</name></trkpt>
<trkpt lat="53.369762" lon="-1.616047"><ele>385</ele><time>2020-05-21T09:48:25Z</time><name>PT359</name></trkpt>
<trkpt lat="53.369773" lon="-1.616049"><ele>385</ele><time>2020-05-21T09:48:26Z</time><name>PT360</name></trkpt>
<trkpt lat="53.369786" lon="-1.616056"><ele>385</ele><time>2020-05-21T09:48:27Z</time><name>PT361</name></trkpt>
<trkpt lat="53.369796" lon="-1.616058"><ele>385</ele><time>2020-05-21T09:48:28Z</time><name>PT362</name></trkpt>
<trkpt lat="53.369809" lon="-1.616059"><ele>386</ele><time>2020-05-21T09:48:29Z</time><name>PT363</name></trkpt>
<trkpt lat="53.369823" lon="-1.616062"><ele>386</ele><time>2020-05-21T09:48:30Z</time><name>PT364</name></trkpt>
<trkpt lat="53.369833" lon="-1.616065"><ele>385</ele><time>2020-05-21T09:48:31Z</time><name>PT365</name></trkpt>
<trkpt lat="53.369841" lon="-1.616062"><ele>385</ele><time>2020-05-21T09:48:32Z</time><name>PT366</name></trkpt>
<trkpt lat="53.369850" lon="-1.616071"><ele>384</ele><time>2020-05-21T09:48:33Z</time><name>PT367</name></trkpt>
<trkpt lat="53.369861" lon="-1.616077"><ele>384</ele><time>2020-05-21T09:48:34Z</time><name>PT368</name></trkpt>
<trkpt lat="53.369871" lon="-1.616083"><ele>383</ele><time>2020-05-21T09:48:34Z</time><name>PT369</name></trkpt>
<trkpt lat="53.369882" lon="-1.616086"><ele>383</ele><time>2020-05-21T09:48:35Z</time><name>PT370</name></trkpt>
<trkpt lat="53.369889" lon="-1.616085"><ele>383</ele><time>2020-05-21T09:48:37Z</time><name>PT371</name></trkpt>
<trkpt lat="53.369899" lon="-1.616080"><ele>383</ele><time>2020-05-21T09:48:37Z</time><name>PT372</name></trkpt>
<trkpt lat="53.369907" lon="-1.616081"><ele>383</ele><time>2020-05-21T09:48:39Z</time><name>PT373</name></trkpt>
<trkpt lat="53.369915" lon="-1.616079"><ele>383</ele><time>2020-05-21T09:48:40Z</time><name>PT374</name></trkpt>
<trkpt lat="53.369925" lon="-1.616079"><ele>383</ele><time>2020-05-21T09:48:40Z</time><name>PT375</name></trkpt>
<trkpt lat="53.369930" lon="-1.616083"><ele>382</ele><time>2020-05-21T09:48:41Z</time><name>PT376</name></trkpt>
<trkpt lat="53.369935" lon="-1.616082"><ele>382</ele><time>2020-05-21T09:48:43Z</time><name>PT377</name></trkpt>
<trkpt lat="53.369937" lon="-1.616076"><ele>382</ele><time>2020-05-21T09:48:43Z</time><name>PT378</name></trkpt>
<trkpt lat="53.369941" lon="-1.616067"><ele>382</ele><time>2020-05-21T09:48:45Z</time><name>PT379</name></trkpt>
<trkpt lat="53.369950" lon="-1.616060"><ele>383</ele><time>2020-05-21T09:48:46Z</time><name>PT380</name></trkpt>
<trkpt lat="53.369962" lon="-1.616058"><ele>383</ele><time>2020-05-21T09:48:46Z</time><name>PT381</name></trkpt>
<trkpt lat="53.369969" lon="-1.616061"><ele>383</ele><time>2020-05-21T09:48:48Z</time><name>PT382</name></trkpt>
<trkpt lat="53.369976" lon="-1.616062"><ele>382</ele><time>2020-05-21T09:48:49Z</time><name>PT383</name></trkpt>
<trkpt lat="53.369982" lon="-1.616063"><ele>382</ele><time>2020-05-21T09:48:49Z</time><name>PT384</name></trkpt>
<trkpt lat="53.369986" lon="-1.616064"><ele>381</ele><time>2020-05-21T09:48:51Z</time><name>PT385</name></trkpt>
<trkpt lat="53.369988" lon="-1.616069"><ele>381</ele><time>2020-05-21T09:48:52Z</time><name>PT386</name></trkpt>
<trkpt lat="53.369993" lon="-1.616071"><ele>381</ele><time>2020-05-21T09:48:52Z</time><name>PT387</name></trkpt>
<trkpt lat="53.369997" lon="-1.616072"><ele>381</ele><time>2020-05-21T09:48:54Z</time><name>PT388</name></trkpt>
<trkpt lat="53.370002" lon="-1.616070"><ele>381</ele><time>2020-05-21T09:48:55Z</time><name>PT389</name></trkpt>
<trkpt lat="53.370004" lon="-1.616067"><ele>381</ele><time>2020-05-21T09:48:57Z</time><name>PT390</name></trkpt>
<trkpt lat="53.370006" lon="-1.616063"><ele>381</ele><time>2020-05-21T09:48:58Z</time><name>PT391</name></trkpt>
<trkpt lat="53.370014" lon="-1.616058"><ele>381</ele><time>2020-05-21T09:48:59Z</time><name>PT392</name></trkpt>
<trkpt lat="53.370019" lon="-1.616060"><ele>381</ele><time>2020-05-21T09:49:00Z</time><name>PT393</name></trkpt>
<trkpt lat="53.370022" lon="-1.616059"><ele>380</ele><time>2020-05-21T09:49:01Z</time><name>PT394</name></trkpt>
<trkpt lat="53.370025" lon="-1.616057"><ele>380</ele><time>2020-05-21T09:49:02Z</time><name>PT395</name></trkpt>
<trkpt lat="53.370029" lon="-1.616057"><ele>380</ele><time>2020-05-21T09:49:03Z</time><name>PT396</name></trkpt>
<trkpt lat="53.370030" lon="-1.616054"><ele>380</ele><time>2020-05-21T09:49:04Z</time><name>PT397</name></trkpt>
<trkpt lat="53.370032" lon="-1.616054"><ele>380</ele><time>2020-05-21T09:49:05Z</time><name>PT398</name></trkpt>
<trkpt lat="53.370033" lon="-1.616053"><ele>380</ele><time>2020-05-21T09:49:06Z</time><name>PT399</name></trkpt>
<trkpt lat="53.370037" lon="-1.616050"><ele>380</ele><time>2020-05-21T09:49:07Z</time><name>PT400</name></trkpt>
<trkpt lat="53.370040" lon="-1.616053"><ele>379</ele><time>2020-05-21T09:49:08Z</time><name>PT401</name></trkpt>
<trkpt lat="53.370043" lon="-1.616056"><ele>379</ele><time>2020-05-21T09:49:09Z</time><name>PT402</name></trkpt>
<trkpt lat="53.370047" lon="-1.616061"><ele>379</ele><time>2020-05-21T09:49:10Z</time><name>PT403</name></trkpt>
<trkpt lat="53.370048" lon="-1.616064"><ele>379</ele><time>2020-05-21T09:49:11Z</time><name>PT404</name></trkpt>
<trkpt lat="53.370053" lon="-1.616066"><ele>379</ele><time>2020-05-21T09:49:12Z</time><name>PT405</name></trkpt>
<trkpt lat="53.370062" lon="-1.616068"><ele>379</ele><time>2020-05-21T09:49:13Z</time><name>PT406</name></trkpt>
<trkpt lat="53.370069" lon="-1.616070"><ele>379</ele><time>2020-05-21T09:49:14Z</time><name>PT407</name></trkpt>
<trkpt lat="53.370078" lon="-1.616076"><ele>378</ele><time>2020-05-21T09:49:15Z</time><name>PT408</name></trkpt>
<trkpt lat="53.370083" lon="-1.616085"><ele>378</ele><time>2020-05-21T09:49:16Z</time><name>PT409</name></trkpt>
<trkpt lat="53.370088" lon="-1.616093"><ele>378</ele><time>2020-05-21T09:49:17Z</time><name>PT410</name></trkpt>
<trkpt lat="53.370099" lon="-1.616100"><ele>377</ele><time>2020-05-21T09:49:18Z</time><name>PT411</name></trkpt>
<trkpt lat="53.370111" lon="-1.616101"><ele>377</ele><time>2020-05-21T09:49:19Z</time><name>PT412</name></trkpt>
<trkpt lat="53.370119" lon="-1.616105"><ele>377</ele><time>2020-05-21T09:49:19Z</time><name>PT413</name></trkpt>
<trkpt lat="53.370125" lon="-1.616111"><ele>378</ele><time>2020-05-21T09:49:21Z</time><name>PT414</name></trkpt>
<trkpt lat="53.370132" lon="-1.616116"><ele>378</ele><time>2020-05-21T09:49:22Z</time><name>PT415</name></trkpt>
<trkpt lat="53.370140" lon="-1.616119"><ele>378</ele><time>2020-05-21T09:49:22Z</time><name>PT416</name></trkpt>
<trkpt lat="53.370153" lon="-1.616123"><ele>378</ele><time>2020-05-21T09:49:23Z</time><name>PT417</name></trkpt>
<trkpt lat="53.370165" lon="-1.616131"><ele>378</ele><time>2020-05-21T09:49:25Z</time><name>PT418</name></trkpt>
<trkpt lat="53.370174" lon="-1.616138"><ele>378</ele><time>2020-05-21T09:49:25Z</time><name>PT419</name></trkpt>
<trkpt lat="53.370182" lon="-1.616145"><ele>378</ele><time>2020-05-21T09:49:26Z</time><name>PT420</name></trkpt>
<trkpt lat="53.370194" lon="-1.616149"><ele>378</ele><time>2020-05-21T09:49:28Z</time><name>PT421</name></trkpt>
<trkpt lat="53.370209" lon="-1.616153"><ele>378</ele><time>2020-05-21T09:49:28Z</time><name>PT422</name></trkpt>
<trkpt lat="53.370224" lon="-1.616161"><ele>378</ele><time>2020-05-21T09:49:29Z</time><name>PT423</name></trkpt>
<trkpt lat="53.370240" lon="-1.616165"><ele>378</ele><time>2020-05-21T09:49:31Z</time><name>PT424</name></trkpt>
<trkpt lat="53.370251" lon="-1.616168"><ele>378</ele><time>2020-05-21T09:49:31Z</time><name>PT425</name></trkpt>
<trkpt lat="53.370263" lon="-1.616173"><ele>378</ele><time>2020-05-21T09:49:33Z</time><name>PT426</name></trkpt>
<trkpt lat="53.370277" lon="-1.616175"><ele>377</ele><time>2020-05-21T09:49:34Z</time><name>PT427</name></trkpt>
<trkpt lat="53.370289" lon="-1.616173"><ele>378</ele><time>2020-05-21T09:49:34Z</time><name>PT428</name></trkpt>
<trkpt lat="53.370302" lon="-1.616172"><ele>378</ele><time>2020-05-21T09:49:35Z</time><name>PT429</name></trkpt>
<trkpt lat="53.370315" lon="-1.616174"><ele>378</ele><time>2020-05-21T09:49:37Z</time><name>PT430</name></trkpt>
<trkpt lat="53.370325" lon="-1.616175"><ele>379</ele><time>2020-05-21T09:49:37Z</time><name>PT431</name></trkpt>
<trkpt lat="53.370334" lon="-1.616177"><ele>379</ele><time>2020-05-21T09:49:38Z</time><name>PT432</name></trkpt>
<trkpt lat="53.370347" lon="-1.616179"><ele>379</ele><time>2020-05-21T09:49:40Z</time><name>PT433</name></trkpt>
<trkpt lat="53.370362" lon="-1.616178"><ele>379</ele><time>2020-05-21T09:49:40Z</time><name>PT434</name></trkpt>
<trkpt lat="53.370374" lon="-1.616185"><ele>379</ele><time>2020-05-21T09:49:41Z</time><name>PT435</name></trkpt>
<trkpt lat="53.370387" lon="-1.616192"><ele>379</ele><time>2020-05-21T09:49:43Z</time><name>PT436</name></trkpt>
<trkpt lat="53.370396" lon="-1.616194"><ele>379</ele><time>2020-05-21T09:49:43Z</time><name>PT437</name></trkpt>
<trkpt lat="53.370406" lon="-1.616188"><ele>380</ele><time>2020-05-21T09:49:44Z</time><name>PT438</name></trkpt>
<trkpt lat="53.370413" lon="-1.616189"><ele>379</ele><time>2020-05-21T09:49:46Z</time><name>PT439</name></trkpt>
<trkpt lat="53.370425" lon="-1.616188"><ele>380</ele><time>2020-05-21T09:49:46Z</time><name>PT440</name></trkpt>
<trkpt lat="53.370436" lon="-1.616187"><ele>380</ele><time>2020-05-21T09:49:48Z</time><name>PT441</name></trkpt>
<trkpt lat="53.370443" lon="-1.616186"><ele>380</ele><time>2020-05-21T09:49:49Z</time><name>PT442</name></trkpt>
<trkpt lat="53.370449" lon="-1.616182"><ele>380</ele><time>2020-05-21T09:49:49Z</time><name>PT443</name></trkpt>
<trkpt lat="53.370452" lon="-1.616182"><ele>380</ele><time>2020-05-21T09:49:50Z</time><name>PT444</name></trkpt>
<trkpt lat="53.370454" lon="-1.616182"><ele>380</ele><time>2020-05-21T09:49:52Z</time><name>PT445</name></trkpt>
<trkpt lat="53.370456" lon="-1.616180"><ele>380</ele><time>2020-05-21T09:49:53Z</time><name>PT446</name></trkpt>
<trkpt lat="53.370459" lon="-1.616180"><ele>380</ele><time>2020-05-21T09:49:54Z</time><name>PT447</name></trkpt>
<trkpt lat="53.370464" lon="-1.616181"><ele>380</ele><time>2020-05-21T09:49:55Z</time><name>PT448</name></trkpt>
<trkpt lat="53.370467" lon="-1.616183"><ele>380</ele><time>2020-05-21T09:49:55Z</time><name>PT449</name></trkpt>
<trkpt lat="53.370468" lon="-1.616186"><ele>380</ele><time>2020-05-21T09:49:57Z</time><name>PT450</name></trkpt>
<trkpt lat="53.370468" lon="-1.616189"><ele>380</ele><time>2020-05-21T09:49:58Z</time><name>PT451</name></trkpt>
<trkpt lat="53.370476" lon="-1.616192"><ele>380</ele><time>2020-05-21T09:49:58Z</time><name>PT452</name></trkpt>
<trkpt lat="53.370484" lon="-1.616193"><ele>380</ele><time>2020-05-21T09:50:00Z</time><name>PT453</name></trkpt>
<trkpt lat="53.370491" lon="-1.616198"><ele>380</ele><time>2020-05-21T09:50:01Z</time><name>PT454</name></trkpt>
<trkpt lat="53.370498" lon="-1.616201"><ele>380</ele><time>2020-05-21T09:50:02Z</time><name>PT455</name></trkpt>
<trkpt lat="53.370506" lon="-1.616206"><ele>381</ele><time>2020-05-21T09:50:03Z</time><name>PT456</name></trkpt>
<trkpt lat="53.370513" lon="-1.616214"><ele>381</ele><time>2020-05-21T09:50:04Z</time><name>PT457</name></trkpt>
<trkpt lat="53.370521" lon="-1.616218"><ele>381</ele><time>2020-05-21T09:50:05Z</time><name>PT458</name></trkpt>
<trkpt lat="53.370527" lon="-1.616223"><ele>381</ele><time>2020-05-21T09:50:06Z</time><name>PT459</name></trkpt>
<trkpt lat="53.370538" lon="-1.616231"><ele>381</ele><time>2020-05-21T09:50:07Z</time><name>PT460</name></trkpt>
<trkpt lat="53.370550" lon="-1.616233"><ele>382</ele><time>2020-05-21T09:50:08Z</time><name>PT461</name></trkpt>
<trkpt lat="53.370560" lon="-1.616237"><ele>382</ele><time>2020-05-21T09:50:08Z</time><name>PT462</name></trkpt>
<trkpt lat="53.370571" lon="-1.616241"><ele>382</ele><time>2020-05-21T09:50:10Z</time><name>PT463</name></trkpt>
<trkpt lat="53.370580" lon="-1.616243"><ele>382</ele><time>2020-05-21T09:50:11Z</time><name>PT464</name></trkpt>
<trkpt lat="53.370589" lon="-1.616244"><ele>382</ele><time>2020-05-21T09:50:12Z</time><name>PT465</name></trkpt>
<trkpt lat="53.370600" lon="-1.616247"><ele>383</ele><time>2020-05-21T09:50:13Z</time><name>PT466</name></trkpt>
<trkpt lat="53.370613" lon="-1.616254"><ele>383</ele><time>2020-05-21T09:50:14Z</time><name>PT467</name></trkpt>
<trkpt lat="53.370626" lon="-1.616259"><ele>382</ele><time>2020-05-21T09:50:15Z</time><name>PT468</name></trkpt>
<trkpt lat="53.370636" lon="-1.616266"><ele>382</ele><time>2020-05-21T09:50:16Z</time><name>PT469</name></trkpt>
<trkpt lat="53.370646" lon="-1.616269"><ele>383</ele><time>2020-05-21T09:50:16Z</time><name>PT470</name></trkpt>
<trkpt lat="53.370660" lon="-1.616269"><ele>382</ele><time>2020-05-21T09:50:18Z</time><name>PT471</name></trkpt>
<trkpt lat="53.370671" lon="-1.616272"><ele>381</ele><time>2020-05-21T09:50:19Z</time><name>PT472</name></trkpt>
<trkpt lat="53.370682" lon="-1.616276"><ele>381</ele><time>2020-05-21T09:50:19Z</time><name>PT473</name></trkpt>
<trkpt lat="53.370697" lon="-1.616278"><ele>381</ele><time>2020-05-21T09:50:20Z</time><name>PT474</name></trkpt>
<trkpt lat="53.370708" lon="-1.616277"><ele>381</ele><time>2020-05-21T09:50:22Z</time><name>PT475</name></trkpt>
<trkpt lat="53.370719" lon="-1.616281"><ele>381</ele><time>2020-05-21T09:50:22Z</time><name>PT476</name></trkpt>
<trkpt lat="53.370727" lon="-1.616282"><ele>381</ele><time>2020-05-21T09:50:24Z</time><name>PT477</name></trkpt>
<trkpt lat="53.370734" lon="-1.616288"><ele>381</ele><time>2020-05-21T09:50:25Z</time><name>PT478</name></trkpt>
<trkpt lat="53.370745" lon="-1.616290"><ele>380</ele><time>2020-05-21T09:50:26Z</time><name>PT479</name></trkpt>
<trkpt lat="53.370762" lon="-1.616289"><ele>380</ele><time>2020-05-21T09:50:27Z</time><name>PT480</name></trkpt>
<trkpt lat="53.370779" lon="-1.616284"><ele>381</ele><time>2020-05-21T09:50:28Z</time><name>PT481</name></trkpt>
<trkpt lat="53.370794" lon="-1.616291"><ele>381</ele><time>2020-05-21T09:50:28Z</time><name>PT482</name></trkpt>
<trkpt lat="53.370809" lon="-1.616298"><ele>381</ele><time>2020-05-21T09:50:30Z</time><name>PT483</name></trkpt>
<trkpt lat="53.370818" lon="-1.616297"><ele>382</ele><time>2020-05-21T09:50:31Z</time><name>PT484</name></trkpt>
<trkpt lat="53.370828" lon="-1.616294"><ele>382</ele><time>2020-05-21T09:50:32Z</time><name>PT485</name></trkpt>
<trkpt lat="53.370844" lon="-1.616292"><ele>382</ele><time>2020-05-21T09:50:33Z</time><name>PT486</name></trkpt>
<trkpt lat="53.370860" lon="-1.616286"><ele>383</ele><time>2020-05-21T09:50:34Z</time><name>PT487</name></trkpt>
<trkpt lat="53.370877" lon="-1.616293"><ele>384</ele><time>2020-05-21T09:50:34Z</time><name>PT488</name></trkpt>
<trkpt lat="53.370888" lon="-1.616307"><ele>383</ele><time>2020-05-21T09:50:36Z</time><name>PT489</name></trkpt>
<trkpt lat="53.370900" lon="-1.616312"><ele>384</ele><time>2020-05-21T09:50:37Z</time><name>PT490</name></trkpt>
<trkpt lat="53.370908" lon="-1.616312"><ele>383</ele><time>2020-05-21T09:50:37Z</time><name>PT491</name></trkpt>
<trkpt lat="53.370919" lon="-1.616314"><ele>384</ele><time>2020-05-21T09:50:39Z</time><name>PT492</name></trkpt>
<trkpt lat="53.370929" lon="-1.616315"><ele>384</ele><time>2020-05-21T09:50:40Z</time><name>PT493</name></trkpt>
<trkpt lat="53.370939" lon="-1.616318"><ele>384</ele><time>2020-05-21T09:50:40Z</time><name>PT494</name></trkpt>
<trkpt lat="53.370951" lon="-1.616323"><ele>385</ele><time>2020-05-21T09:50:41Z</time><name>PT495</name></trkpt>
<trkpt lat="53.370962" lon="-1.616330"><ele>385</ele><time>2020-05-21T09:50:43Z</time><name>PT496</name></trkpt>
<trkpt lat="53.370968" lon="-1.616332"><ele>386</ele><time>2020-05-21T09:50:44Z</time><name>PT497</name></trkpt>
<trkpt lat="53.370977" lon="-1.616331"><ele>386</ele><time>2020-05-21T09:50:45Z</time><name>PT498</name></trkpt>
<trkpt lat="53.370990" lon="-1.616331"><ele>386</ele><time>2020-05-21T09:50:46Z</time><name>PT499</name></trkpt>
<trkpt lat="53.371002" lon="-1.616331"><ele>386</ele><time>2020-05-21T09:50:46Z</time><name>PT500</name></trkpt>
<trkpt lat="53.371011" lon="-1.616333"><ele>386</ele><time>2020-05-21T09:50:48Z</time><name>PT501</name></trkpt>
<trkpt lat="53.371015" lon="-1.616342"><ele>386</ele><time>2020-05-21T09:50:49Z</time><name>PT502</name></trkpt>
<trkpt lat="53.371024" lon="-1.616345"><ele>386</ele><time>2020-05-21T09:50:49Z</time><name>PT503</name></trkpt>
<trkpt lat="53.371033" lon="-1.616345"><ele>386</ele><time>2020-05-21T09:50:50Z</time><name>PT504</name></trkpt>
<trkpt lat="53.371044" lon="-1.616345"><ele>386</ele><time>2020-05-21T09:50:52Z</time><name>PT505</name></trkpt>
<trkpt lat="53.371055" lon="-1.616351"><ele>385</ele><time>2020-05-21T09:50:52Z</time><name>PT506</name></trkpt>
<trkpt lat="53.371070" lon="-1.616363"><ele>385</ele><time>2020-05-21T09:50:53Z</time><name>PT507</name></trkpt>
<trkpt lat="53.371079" lon="-1.616372"><ele>385</ele><time>2020-05-21T09:50:55Z</time><name>PT508</name></trkpt>
<trkpt lat="53.371087" lon="-1.616374"><ele>385</ele><time>2020-05-21T09:50:55Z</time><name>PT509</name></trkpt>
<trkpt lat="53.371095" lon="-1.616375"><ele>385</ele><time>2020-05-21T09:50:56Z</time><name>PT510</name></trkpt>
<trkpt lat="53.371105" lon="-1.616375"><ele>385</ele><time>2020-05-21T09:50:58Z</time><name>PT511</name></trkpt>
<trkpt lat="53.371117" lon="-1.616379"><ele>386</ele><time>2020-05-21T09:50:58Z</time><name>PT512</name></trkpt>
<trkpt lat="53.371128" lon="-1.616384"><ele>386</ele><time>2020-05-21T09:51:00Z</time><name>PT513</name></trkpt>
<trkpt lat="53.371137" lon="-1.616381"><ele>386</ele><time>2020-05-21T09:51:01Z</time><name>PT514</name></trkpt>
<trkpt lat="53.371148" lon="-1.616385"><ele>386</ele><time>2020-05-21T09:51:01Z</time><name>PT515</name></trkpt>
<trkpt lat="53.371160" lon="-1.616397"><ele>386</ele><time>2020-05-21T09:51:02Z</time><name>PT516</name></trkpt>
<trkpt lat="53.371174" lon="-1.616408"><ele>387</ele><time>2020-05-21T09:51:04Z</time><name>PT517</name></trkpt>
<trkpt lat="53.371187" lon="-1.616417"><ele>388</ele><time>2020-05-21T09:51:04Z</time><name>PT518</name></trkpt>
<trkpt lat="53.371198" lon="-1.616422"><ele>389</ele><time>2020-05-21T09:51:06Z</time><name>PT519</name></trkpt>
<trkpt lat="53.371203" lon="-1.616425"><ele>389</ele><time>2020-05-21T09:51:07Z</time><name>PT520</name></trkpt>
<trkpt lat="53.371215" lon="-1.616429"><ele>389</ele><time>2020-05-21T09:51:07Z</time><name>PT521</name></trkpt>
<trkpt lat="53.371229" lon="-1.616433"><ele>389</ele><time>2020-05-21T09:51:09Z</time><name>PT522</name></trkpt>
<trkpt lat="53.371241" lon="-1.616432"><ele>390</ele><time>2020-05-21T09:51:10Z</time><name>PT523</name></trkpt>
<trkpt lat="53.371253" lon="-1.616438"><ele>390</ele><time>2020-05-21T09:51:11Z</time><name>PT524</name></trkpt>
<trkpt lat="53.371262" lon="-1.616441"><ele>390</ele><time>2020-05-21T09:51:11Z</time><name>PT525</name></trkpt>
<trkpt lat="53.371269" lon="-1.616442"><ele>390</ele><time>2020-05-21T09:51:13Z</time><name>PT526</name></trkpt>
<trkpt lat="53.371281" lon="-1.616439"><ele>391</ele><time>2020-05-21T09:51:14Z</time><name>PT527</name></trkpt>
<trkpt lat="53.371290" lon="-1.616436"><ele>392</ele><time>2020-05-21T09:51:15Z</time><name>PT528</name></trkpt>
<trkpt lat="53.371297" lon="-1.616438"><ele>392</ele><time>2020-05-21T09:51:16Z</time><name>PT529</name></trkpt>
<trkpt lat="53.371304" lon="-1.616438"><ele>392</ele><time>2020-05-21T09:51:17Z</time><name>PT530</name></trkpt>
<trkpt lat="53.371313" lon="-1.616441"><ele>393</ele><time>2020-05-21T09:51:18Z</time><name>PT531</name></trkpt>
<trkpt lat="53.371330" lon="-1.616439"><ele>394</ele><time>2020-05-21T09:51:19Z</time><name>PT532</name></trkpt>
<trkpt lat="53.371344" lon="-1.616442"><ele>394</ele><time>2020-05-21T09:51:19Z</time><name>PT533</name></trkpt>
<trkpt lat="53.371355" lon="-1.616442"><ele>394</ele><time>2020-05-21T09:51:21Z</time><name>PT534</name></trkpt>
<trkpt lat="53.371364" lon="-1.616445"><ele>393</ele><time>2020-05-21T09:51:22Z</time><name>PT535</name></trkpt>
<trkpt lat="53.371378" lon="-1.616446"><ele>393</ele><time>2020-05-21T09:51:23Z</time><name>PT536</name></trkpt>
<trkpt lat="53.371390" lon="-1.616449"><ele>393</ele><time>2020-05-21T09:51:24Z</time><name>PT537</name></trkpt>
<trkpt lat="53.371400" lon="-1.616452"><ele>394</ele><time>2020-05-21T09:51:25Z</time><name>PT538</name></trkpt>
<trkpt lat="53.371405" lon="-1.616454"><ele>393</ele><time>2020-05-21T09:51:26Z</time><name>PT539</name></trkpt>
<trkpt lat="53.371413" lon="-1.616457"><ele>392</ele><time>2020-05-21T09:51:27Z</time><name>PT540</name></trkpt>
<trkpt lat="53.371421" lon="-1.616455"><ele>393</ele><time>2020-05-21T09:51:28Z</time><name>PT541</name></trkpt>
<trkpt lat="53.371435" lon="-1.616452"><ele>394</ele><time>2020-05-21T09:51:29Z</time><name>PT542</name></trkpt>
<trkpt lat="53.371449" lon="-1.616455"><ele>394</ele><time>2020-05-21T09:51:30Z</time><name>PT543</name></trkpt>
<trkpt lat="53.371462" lon="-1.616463"><ele>393</ele><time>2020-05-21T09:51:31Z</time><name>PT544</name></trkpt>
<trkpt lat="53.371474" lon="-1.616465"><ele>394</ele><time>2020-05-21T09:51:32Z</time><name>PT545</name></trkpt>
<trkpt lat="53.371481" lon="-1.616466"><ele>393</ele><time>2020-05-21T09:51:33Z</time><name>PT546</name></trkpt>
<trkpt lat="53.371489" lon="-1.616470"><ele>393</ele><time>2020-05-21T09:51:34Z</time><name>PT547</name></trkpt>
<trkpt lat="53.371500" lon="-1.616471"><ele>393</ele><time>2020-05-21T09:51:34Z</time><name>PT548</name></trkpt>
<trkpt lat="53.371513" lon="-1.616475"><ele>394</ele><time>2020-05-21T09:51:35Z</time><name>PT549</name></trkpt>
<trkpt lat="53.371525" lon="-1.616479"><ele>394</ele><time>2020-05-21T09:51:37Z</time><name>PT550</name></trkpt>
<trkpt lat="53.371538" lon="-1.616486"><ele>395</ele><time>2020-05-21T09:51:37Z</time><name>PT551</name></trkpt>
<trkpt lat="53.371551" lon="-1.616492"><ele>395</ele><time>2020-05-21T09:51:39Z</time><name>PT552</name></trkpt>
<trkpt lat="53.371559" lon="-1.616498"><ele>395</ele><time>2020-05-21T09:51:40Z</time><name>PT553</name></trkpt>
<trkpt lat="53.371567" lon="-1.616500"><ele>395</ele><time>2020-05-21T09:51:41Z</time><name>PT554</name></trkpt>
<trkpt lat="53.371575" lon="-1.616505"><ele>393</ele><time>2020-05-21T09:51:42Z</time><name>PT555</name></trkpt>
<trkpt lat="53.371587" lon="-1.616508"><ele>392</ele><time>2020-05-21T09:51:43Z</time><name>PT556</name></trkpt>
<trkpt lat="53.371601" lon="-1.616507"><ele>392</ele><time>2020-05-21T09:51:43Z</time><name>PT557</name></trkpt>
<trkpt lat="53.371611" lon="-1.616510"><ele>391</ele><time>2020-05-21T09:51:45Z</time><name>PT558</name></trkpt>
<trkpt lat="53.371624" lon="-1.616512"><ele>391</ele><time>2020-05-21T09:51:46Z</time><name>PT559</name></trkpt>
<trkpt lat="53.371635" lon="-1.616512"><ele>391</ele><time>2020-05-21T09:51:46Z</time><name>PT560</name></trkpt>
<trkpt lat="53.371643" lon="-1.616517"><ele>391</ele><time>2020-05-21T09:51:47Z</time><name>PT561</name></trkpt>
<trkpt lat="53.371655" lon="-1.616521"><ele>391</ele><time>2020-05-21T09:51:49Z</time><name>PT562</name></trkpt>
<trkpt lat="53.371670" lon="-1.616522"><ele>391</ele><time>2020-05-21T09:51:49Z</time><name>PT563</name></trkpt>
<trkpt lat="53.371683" lon="-1.616524"><ele>391</ele><time>2020-05-21T09:51:51Z</time><name>PT564</name></trkpt>
<trkpt lat="53.371692" lon="-1.616522"><ele>391</ele><time>2020-05-21T09:51:52Z</time><name>PT565</name></trkpt>
<trkpt lat="53.371701" lon="-1.616519"><ele>391</ele><time>2020-05-21T09:51:53Z</time><name>PT566</name></trkpt>
<trkpt lat="53.371714" lon="-1.616512"><ele>391</ele><time>2020-05-21T09:51:54Z</time><name>PT567</name></trkpt>
<trkpt lat="53.371728" lon="-1.616509"><ele>391</ele><time>2020-05-21T09:51:55Z</time><name>PT568</name></trkpt>
<trkpt lat="53.371738" lon="-1.616511"><ele>391</ele><time>2020-05-21T09:51:56Z</time><name>PT569</name></trkpt>
<trkpt lat="53.371745" lon="-1.616513"><ele>392</ele><time>2020-05-21T09:51:57Z</time><name>PT570</name></trkpt>
<trkpt lat="53.371753" lon="-1.616520"><ele>391</ele><time>2020-05-21T09:51:58Z</time><name>PT571</name></trkpt>
<trkpt lat="53.371765" lon="-1.616524"><ele>391</ele><time>2020-05-21T09:51:58Z</time><name>PT572</name></trkpt>
<trkpt lat="53.371777" lon="-1.616527"><ele>391</ele><time>2020-05-21T09:52:00Z</time><name>PT573</name></trkpt>
<trkpt lat="53.371785" lon="-1.616529"><ele>392</ele><time>2020-05-21T09:52:01Z</time><name>PT574</name></trkpt>
<trkpt lat="53.371792" lon="-1.616531"><ele>391</ele><time>2020-05-21T09:52:02Z</time><name>PT575</name></trkpt>
<trkpt lat="53.371803" lon="-1.616530"><ele>391</ele><time>2020-05-21T09:52:03Z</time><name>PT576</name></trkpt>
<trkpt lat="53.371815" lon="-1.616531"><ele>391</ele><time>2020-05-21T09:52:04Z</time><name>PT577</name></trkpt>
<trkpt lat="53.371828" lon="-1.616536"><ele>392</ele><time>2020-05-21T09:52:05Z</time><name>PT578</name></trkpt>
<trkpt lat="53.371838" lon="-1.616543"><ele>392</ele><time>2020-05-21T09:52:06Z</time><name>PT579</name></trkpt>
<trkpt lat="53.371847" lon="-1.616548"><ele>392</ele><time>2020-05-21T09:52:07Z</time><name>PT580</name></trkpt>
<trkpt lat="53.371859" lon="-1.616555"><ele>392</ele><time>2020-05-21T09:52:07Z</time><name>PT581</name></trkpt>
<trkpt lat="53.371869" lon="-1.616562"><ele>391</ele><time>2020-05-21T09:52:09Z</time><name>PT582</name></trkpt>
<trkpt lat="53.371881" lon="-1.616567"><ele>391</ele><time>2020-05-21T09:52:10Z</time><name>PT583</name></trkpt>
<trkpt lat="53.371893" lon="-1.616571"><ele>391</ele><time>2020-05-21T09:52:10Z</time><name>PT584</name></trkpt>
<trkpt lat="53.371899" lon="-1.616576"><ele>392</ele><time>2020-05-21T09:52:12Z</time><name>PT585</name></trkpt>
<trkpt lat="53.371907" lon="-1.616580"><ele>392</ele><time>2020-05-21T09:52:13Z</time><name>PT586</name></trkpt>
<trkpt lat="53.371914" lon="-1.616579"><ele>392</ele><time>2020-05-21T09:52:13Z</time><name>PT587</name></trkpt>
<trkpt lat="53.371924" lon="-1.616581"><ele>393</ele><time>2020-05-21T09:52:14Z</time><name>PT588</name></trkpt>
<trkpt lat="53.371939" lon="-1.616587"><ele>393</ele><time>2020-05-21T09:52:16Z</time><name>PT589</name></trkpt>
<trkpt lat="53.371947" lon="-1.616593"><ele>393</ele><time>2020-05-21T09:52:16Z</time><name>PT590</name></trkpt>
<trkpt lat="53.371962" lon="-1.616592"><ele>394</ele><time>2020-05-21T09:52:17Z</time><name>PT591</name></trkpt>
<trkpt lat="53.371973" lon="-1.616599"><ele>394</ele><time>2020-05-21T09:52:19Z</time><name>PT592</name></trkpt>
<trkpt lat="53.371985" lon="-1.616606"><ele>394</ele><time>2020-05-21T09:52:19Z</time><name>PT593</name></trkpt>
<trkpt lat="53.372000" lon="-1.616615"><ele>394</ele><time>2020-05-21T09:52:21Z</time><name>PT594</name></trkpt>
<trkpt lat="53.372005" lon="-1.616623"><ele>395</ele><time>2020-05-21T09:52:22Z</time><name>PT595</name></trkpt>
<trkpt lat="53.372006" lon="-1.616628"><ele>395</ele><time>2020-05-21T09:52:23Z</time><name>PT596</name></trkpt>
<trkpt lat="53.372007" lon="-1.616631"><ele>395</ele><time>2020-05-21T09:52:24Z</time><name>PT597</name></trkpt>
<trkpt lat="53.372016" lon="-1.616630"><ele>395</ele><time>2020-05-21T09:52:39Z</time><name>PT598</name></trkpt>
<trkpt lat="53.372041" lon="-1.616617"><ele>395</ele><time>2020-05-21T09:52:40Z</time><name>PT599</name></trkpt>
<trkpt lat="53.372052" lon="-1.616617"><ele>395</ele><time>2020-05-21T09:52:40Z</time><name>PT600</name></trkpt>
<trkpt lat="53.372057" lon="-1.616608"><ele>394</ele><time>2020-05-21T09:52:42Z</time><name>PT601</name></trkpt>
<trkpt lat="53.372064" lon="-1.616606"><ele>394</ele><time>2020-05-21T09:52:43Z</time><name>PT602</name></trkpt>
<trkpt lat="53.372077" lon="-1.616611"><ele>394</ele><time>2020-05-21T09:52:43Z</time><name>PT603</name></trkpt>
<trkpt lat="53.372088" lon="-1.616622"><ele>393</ele><time>2020-05-21T09:52:45Z</time><name>PT604</name></trkpt>
<trkpt lat="53.372095" lon="-1.616620"><ele>392</ele><time>2020-05-21T09:52:46Z</time><name>PT605</name></trkpt>
<trkpt lat="53.372105" lon="-1.616622"><ele>389</ele><time>2020-05-21T09:52:46Z</time><name>PT606</name></trkpt>
<trkpt lat="53.372115" lon="-1.616621"><ele>389</ele><time>2020-05-21T09:52:47Z</time><name>PT607</name></trkpt>
<trkpt lat="53.372130" lon="-1.616623"><ele>388</ele><time>2020-05-21T09:52:49Z</time><name>PT608</name></trkpt>
<trkpt lat="53.372142" lon="-1.616633"><ele>389</ele><time>2020-05-21T09:52:49Z</time><name>PT609</name></trkpt>
<trkpt lat="53.372150" lon="-1.616638"><ele>389</ele><time>2020-05-21T09:52:50Z</time><name>PT610</name></trkpt>
<trkpt lat="53.372162" lon="-1.616645"><ele>388</ele><time>2020-05-21T09:52:52Z</time><name>PT611</name></trkpt>
<trkpt lat="53.372174" lon="-1.616643"><ele>388</ele><time>2020-05-21T09:52:52Z</time><name>PT612</name></trkpt>
<trkpt lat="53.372189" lon="-1.616642"><ele>389</ele><time>2020-05-21T09:52:54Z</time><name>PT613</name></trkpt>
<trkpt lat="53.372199" lon="-1.616648"><ele>390</ele><time>2020-05-21T09:52:55Z</time><name>PT614</name></trkpt>
<trkpt lat="53.372214" lon="-1.616652"><ele>390</ele><time>2020-05-21T09:52:55Z</time><name>PT615</name></trkpt>
<trkpt lat="53.372229" lon="-1.616655"><ele>390</ele><time>2020-05-21T09:52:56Z</time><name>PT616</name></trkpt>
<trkpt lat="53.372249" lon="-1.616660"><ele>389</ele><time>2020-05-21T09:52:58Z</time><name>PT617</name></trkpt>
<trkpt lat="53.372266" lon="-1.616663"><ele>389</ele><time>2020-05-21T09:52:58Z</time><name>PT618</name></trkpt>
<trkpt lat="53.372277" lon="-1.616663"><ele>389</ele><time>2020-05-21T09:53:00Z</time><name>PT619</name></trkpt>
<trkpt lat="53.372287" lon="-1.616663"><ele>388</ele><time>2020-05-21T09:53:01Z</time><name>PT620</name></trkpt>
<trkpt lat="53.372297" lon="-1.616664"><ele>387</ele><time>2020-05-21T09:53:01Z</time><name>PT621</name></trkpt>
<trkpt lat="53.372310" lon="-1.616668"><ele>386</ele><time>2020-05-21T09:53:02Z</time><name>PT622</name></trkpt>
<trkpt lat="53.372324" lon="-1.616671"><ele>386</ele><time>2020-05-21T09:53:04Z</time><name>PT623</name></trkpt>
<trkpt lat="53.372334" lon="-1.616672"><ele>384</ele><time>2020-05-21T09:53:04Z</time><name>PT624</name></trkpt>
<trkpt lat="53.372346" lon="-1.616678"><ele>383</ele><time>2020-05-21T09:53:06Z</time><name>PT625</name></trkpt>
<trkpt lat="53.372356" lon="-1.616681"><ele>384</ele><time>2020-05-21T09:53:07Z</time><name>PT626</name></trkpt>
<trkpt lat="53.372368" lon="-1.616684"><ele>384</ele><time>2020-05-21T09:53:08Z</time><name>PT627</name></trkpt>
<trkpt lat="53.372382" lon="-1.616686"><ele>384</ele><time>2020-05-21T09:53:09Z</time><name>PT628</name></trkpt>
<trkpt lat="53.372395" lon="-1.616689"><ele>384</ele><time>2020-05-21T09:53:10Z</time><name>PT629</name></trkpt>
<trkpt lat="53.372409" lon="-1.616690"><ele>384</ele><time>2020-05-21T09:53:10Z</time><name>PT630</name></trkpt>
<trkpt lat="53.372426" lon="-1.616691"><ele>384</ele><time>2020-05-21T09:53:12Z</time><name>PT631</name></trkpt>
<trkpt lat="53.372439" lon="-1.616692"><ele>384</ele><time>2020-05-21T09:53:13Z</time><name>PT632</name></trkpt>
<trkpt lat="53.372448" lon="-1.616693"><ele>384</ele><time>2020-05-21T09:53:14Z</time><name>PT633</name></trkpt>
<trkpt lat="53.372456" lon="-1.616697"><ele>384</ele><time>2020-05-21T09:53:15Z</time><name>PT634</name></trkpt>
<trkpt lat="53.372465" lon="-1.616699"><ele>384</ele><time>2020-05-21T09:53:16Z</time><name>PT635</name></trkpt>
<trkpt lat="53.372473" lon="-1.616701"><ele>384</ele><time>2020-05-21T09:53:17Z</time><name>PT636</name></trkpt>
<trkpt lat="53.372482" lon="-1.616707"><ele>384</ele><time>2020-05-21T09:53:18Z</time><name>PT637</name></trkpt>
<trkpt lat="53.372498" lon="-1.616723"><ele>385</ele><time>2020-05-21T09:53:19Z</time><name>PT638</name></trkpt>
<trkpt lat="53.372509" lon="-1.616735"><ele>384</ele><time>2020-05-21T09:53:20Z</time><name>PT639</name></trkpt>
<trkpt lat="53.372526" lon="-1.616742"><ele>385</ele><time>2020-05-21T09:53:21Z</time><name>PT640</name></trkpt>
<trkpt lat="53.372539" lon="-1.616752"><ele>385</ele><time>2020-05-21T09:53:22Z</time><name>PT641</name></trkpt>
<trkpt lat="53.372552" lon="-1.616759"><ele>385</ele><time>2020-05-21T09:53:22Z</time><name>PT642</name></trkpt>
<trkpt lat="53.372564" lon="-1.616764"><ele>385</ele><time>2020-05-21T09:53:24Z</time><name>PT643</name></trkpt>
<trkpt lat="53.372572" lon="-1.616770"><ele>385</ele><time>2020-05-21T09:53:25Z</time><name>PT644</name></trkpt>
<trkpt lat="53.372579" lon="-1.616778"><ele>385</ele><time>2020-05-21T09:53:25Z</time><name>PT645</name></trkpt>
<trkpt lat="53.372587" lon="-1.616784"><ele>385</ele><time>2020-05-21T09:53:27Z</time><name>PT646</name></trkpt>
<trkpt lat="53.372597" lon="-1.616790"><ele>385</ele><time>2020-05-21T09:53:28Z</time><name>PT647</name></trkpt>
<trkpt lat="53.372606" lon="-1.616796"><ele>385</ele><time>2020-05-21T09:53:29Z</time><name>PT648</name></trkpt>
<trkpt lat="53.372616" lon="-1.616799"><ele>386</ele><time>2020-05-21T09:53:30Z</time><name>PT649</name></trkpt>
<trkpt lat="53.372623" lon="-1.616809"><ele>385</ele><time>2020-05-21T09:53:31Z</time><name>PT650</name></trkpt>
<trkpt lat="53.372637" lon="-1.616816"><ele>385</ele><time>2020-05-21T09:53:32Z</time><name>PT651</name></trkpt>
<trkpt lat="53.372650" lon="-1.616822"><ele>386</ele><time>2020-05-21T09:53:33Z</time><name>PT652</name></trkpt>
<trkpt lat="53.372664" lon="-1.616824"><ele>386</ele><time>2020-05-21T09:53:34Z</time><name>PT653</name></trkpt>
<trkpt lat="53.372671" lon="-1.616829"><ele>385</ele><time>2020-05-21T09:53:35Z</time><name>PT654</name></trkpt>
<trkpt lat="53.372677" lon="-1.616828"><ele>384</ele><time>2020-05-21T09:53:35Z</time><name>PT655</name></trkpt>
<trkpt lat="53.372684" lon="-1.616824"><ele>384</ele><time>2020-05-21T09:53:37Z</time><name>PT656</name></trkpt>
<trkpt lat="53.372692" lon="-1.616819"><ele>384</ele><time>2020-05-21T09:53:38Z</time><name>PT657</name></trkpt>
<trkpt lat="53.372698" lon="-1.616813"><ele>384</ele><time>2020-05-21T09:53:39Z</time><name>PT658</name></trkpt>
<trkpt lat="53.372705" lon="-1.616820"><ele>383</ele><time>2020-05-21T09:53:40Z</time><name>PT659</name></trkpt>
<trkpt lat="53.372715" lon="-1.616827"><ele>382</ele><time>2020-05-21T09:53:40Z</time><name>PT660</name></trkpt>
<trkpt lat="53.372730" lon="-1.616836"><ele>382</ele><time>2020-05-21T09:53:42Z</time><name>PT661</name></trkpt>
<trkpt lat="53.372743" lon="-1.616844"><ele>381</ele><time>2020-05-21T09:53:43Z</time><name>PT662</name></trkpt>
<trkpt lat="53.372755" lon="-1.616853"><ele>381</ele><time>2020-05-21T09:53:43Z</time><name>PT663</name></trkpt>
<trkpt lat="53.372766" lon="-1.616861"><ele>381</ele><time>2020-05-21T09:53:44Z</time><name>PT664</name></trkpt>
<trkpt lat="53.372776" lon="-1.616865"><ele>381</ele><time>2020-05-21T09:53:46Z</time><name>PT665</name></trkpt>
<trkpt lat="53.372785" lon="-1.616864"><ele>381</ele><time>2020-05-21T09:53:46Z</time><name>PT666</name></trkpt>
<trkpt lat="53.372793" lon="-1.616866"><ele>380</ele><time>2020-05-21T09:53:47Z</time><name>PT667</name></trkpt>
<trkpt lat="53.372803" lon="-1.616868"><ele>380</ele><time>2020-05-21T09:53:49Z</time><name>PT668</name></trkpt>
<trkpt lat="53.372809" lon="-1.616867"><ele>380</ele><time>2020-05-21T09:53:49Z</time><name>PT669</name></trkpt>
<trkpt lat="53.372817" lon="-1.616870"><ele>379</ele><time>2020-05-21T09:53:51Z</time><name>PT670</name></trkpt>
<trkpt lat="53.372822" lon="-1.616872"><ele>379</ele><time>2020-05-21T09:53:52Z</time><name>PT671</name></trkpt>
<trkpt lat="53.372830" lon="-1.616871"><ele>379</ele><time>2020-05-21T09:53:53Z</time><name>PT672</name></trkpt>
<trkpt lat="53.372838" lon="-1.616868"><ele>379</ele><time>2020-05-21T09:53:54Z</time><name>PT673</name></trkpt>
<trkpt lat="53.372847" lon="-1.616872"><ele>378</ele><time>2020-05-21T09:53:55Z</time><name>PT674</name></trkpt>
<trkpt lat="53.372858" lon="-1.616880"><ele>377</ele><time>2020-05-21T09:53:56Z</time><name>PT675</name></trkpt>
<trkpt lat="53.372867" lon="-1.616888"><ele>377</ele><time>2020-05-21T09:53:57Z</time><name>PT676</name></trkpt>
<trkpt lat="53.372878" lon="-1.616897"><ele>376</ele><time>2020-05-21T09:53:58Z</time><name>PT677</name></trkpt>
<trkpt lat="53.372887" lon="-1.616903"><ele>376</ele><time>2020-05-21T09:53:58Z</time><name>PT678</name></trkpt>
<trkpt lat="53.372895" lon="-1.616906"><ele>376</ele><time>2020-05-21T09:54:00Z</time><name>PT679</name></trkpt>
<trkpt lat="53.372903" lon="-1.616907"><ele>376</ele><time>2020-05-21T09:54:01Z</time><name>PT680</name></trkpt>
<trkpt lat="53.372911" lon="-1.616905"><ele>376</ele><time>2020-05-21T09:54:02Z</time><name>PT681</name></trkpt>
<trkpt lat="53.372921" lon="-1.616908"><ele>376</ele><time>2020-05-21T09:54:03Z</time><name>PT682</name></trkpt>
<trkpt lat="53.372934" lon="-1.616914"><ele>376</ele><time>2020-05-21T09:54:04Z</time><name>PT683</name></trkpt>
<trkpt lat="53.372948" lon="-1.616923"><ele>376</ele><time>2020-05-21T09:54:05Z</time><name>PT684</name></trkpt>
<trkpt lat="53.372959" lon="-1.616929"><ele>375</ele><time>2020-05-21T09:54:05Z</time><name>PT685</name></trkpt>
<trkpt lat="53.372967" lon="-1.616927"><ele>375</ele><time>2020-05-21T09:54:07Z</time><name>PT686</name></trkpt>
<trkpt lat="53.372979" lon="-1.616925"><ele>375</ele><time>2020-05-21T09:54:08Z</time><name>PT687</name></trkpt>
<trkpt lat="53.372992" lon="-1.616926"><ele>375</ele><time>2020-05-21T09:54:09Z</time><name>PT688</name></trkpt>
<trkpt lat="53.373006" lon="-1.616920"><ele>375</ele><time>2020-05-21T09:54:10Z</time><name>PT689</name></trkpt>
<trkpt lat="53.373021" lon="-1.616911"><ele>376</ele><time>2020-05-21T09:54:10Z</time><name>PT690</name></trkpt>
<trkpt lat="53.373034" lon="-1.616905"><ele>376</ele><time>2020-05-21T09:54:12Z</time><name>PT691</name></trkpt>
<trkpt lat="53.373042" lon="-1.616905"><ele>376</ele><time>2020-05-21T09:54:13Z</time><name>PT692</name></trkpt>
<trkpt lat="53.373047" lon="-1.616901"><ele>377</ele><time>2020-05-21T09:54:13Z</time><name>PT693</name></trkpt>
<trkpt lat="53.373053" lon="-1.616905"><ele>376</ele><time>2020-05-21T09:54:14Z</time><name>PT694</name></trkpt>
<trkpt lat="53.373062" lon="-1.616903"><ele>376</ele><time>2020-05-21T09:54:16Z</time><name>PT695</name></trkpt>
<trkpt lat="53.373073" lon="-1.616904"><ele>376</ele><time>2020-05-21T09:54:16Z</time><name>PT696</name></trkpt>
<trkpt lat="53.373085" lon="-1.616905"><ele>375</ele><time>2020-05-21T09:54:18Z</time><name>PT697</name></trkpt>
<trkpt lat="53.373097" lon="-1.616907"><ele>375</ele><time>2020-05-21T09:54:19Z</time><name>PT698</name></trkpt>
<trkpt lat="53.373106" lon="-1.616909"><ele>375</ele><time>2020-05-21T09:54:19Z</time><name>PT699</name></trkpt>
<trkpt lat="53.373116" lon="-1.616909"><ele>375</ele><time>2020-05-21T09:54:20Z</time><name>PT700</name></trkpt>
<trkpt lat="53.373129" lon="-1.616909"><ele>374</ele><time>2020-05-21T09:54:22Z</time><name>PT701</name></trkpt>
<trkpt lat="53.373141" lon="-1.616912"><ele>373</ele><time>2020-05-21T09:54:23Z</time><name>PT702</name></trkpt>
<trkpt lat="53.373153" lon="-1.616912"><ele>373</ele><time>2020-05-21T09:54:24Z</time><name>PT703</name></trkpt>
<trkpt lat="53.373169" lon="-1.616912"><ele>374</ele><time>2020-05-21T09:54:25Z</time><name>PT704</name></trkpt>
<trkpt lat="53.373183" lon="-1.616916"><ele>374</ele><time>2020-05-21T09:54:25Z</time><name>PT705</name></trkpt>
<trkpt lat="53.373196" lon="-1.616920"><ele>373</ele><time>2020-05-21T09:54:27Z</time><name>PT706</name></trkpt>
<trkpt lat="53.373204" lon="-1.616925"><ele>373</ele><time>2020-05-21T09:54:28Z</time><name>PT707</name></trkpt>
<trkpt lat="53.373213" lon="-1.616927"><ele>373</ele><time>2020-05-21T09:54:29Z</time><name>PT708</name></trkpt>
<trkpt lat="53.373222" lon="-1.616930"><ele>373</ele><time>2020-05-21T09:54:30Z</time><name>PT709</name></trkpt>
<trkpt lat="53.373234" lon="-1.616927"><ele>374</ele><time>2020-05-21T09:54:31Z</time><name>PT710</name></trkpt>
<trkpt lat="53.373244" lon="-1.616931"><ele>374</ele><time>2020-05-21T09:54:32Z</time><name>PT711</name></trkpt>
<trkpt lat="53.373257" lon="-1.616935"><ele>373</ele><time>2020-05-21T09:54:33Z</time><name>PT712</name></trkpt>
<trkpt lat="53.373272" lon="-1.616934"><ele>373</ele><time>2020-05-21T09:54:34Z</time><name>PT713</name></trkpt>
<trkpt lat="53.373282" lon="-1.616939"><ele>372</ele><time>2020-05-21T09:54:34Z</time><name>PT714</name></trkpt>
<trkpt lat="53.373292" lon="-1.616944"><ele>372</ele><time>2020-05-21T09:54:36Z</time><name>PT715</name></trkpt>
<trkpt lat="53.373303" lon="-1.616946"><ele>372</ele><time>2020-05-21T09:54:37Z</time><name>PT716</name></trkpt>
<trkpt lat="53.373317" lon="-1.616943"><ele>372</ele><time>2020-05-21T09:54:38Z</time><name>PT717</name></trkpt>
<trkpt lat="53.373329" lon="-1.616960"><ele>373</ele><time>2020-05-21T09:54:39Z</time><name>PT718</name></trkpt>
<trkpt lat="53.373343" lon="-1.616963"><ele>373</ele><time>2020-05-21T09:54:40Z</time><name>PT719</name></trkpt>
<trkpt lat="53.373357" lon="-1.616971"><ele>374</ele><time>2020-05-21T09:54:40Z</time><name>PT720</name></trkpt>
<trkpt lat="53.373368" lon="-1.616980"><ele>373</ele><time>2020-05-21T09:54:42Z</time><name>PT721</name></trkpt>
<trkpt lat="53.373379" lon="-1.616984"><ele>374</ele><time>2020-05-21T09:54:43Z</time><name>PT722</name></trkpt>
<trkpt lat="53.373381" lon="-1.616986"><ele>373</ele><time>2020-05-21T09:54:44Z</time><name>PT723</name></trkpt>
<trkpt lat="53.373379" lon="-1.616987"><ele>373</ele><time>2020-05-21T09:54:44Z</time><name>PT724</name></trkpt>
<trkpt lat="53.373378" lon="-1.616986"><ele>373</ele><time>2020-05-21T09:54:46Z</time><name>PT725</name></trkpt>
<trkpt lat="53.373380" lon="-1.616986"><ele>373</ele><time>2020-05-21T09:54:46Z</time><name>PT726</name></trkpt>
<trkpt lat="53.373381" lon="-1.616985"><ele>373</ele><time>2020-05-21T09:54:47Z</time><name>PT727</name></trkpt>
<trkpt lat="53.373379" lon="-1.616979"><ele>373</ele><time>2020-05-21T09:55:29Z</time><name>PT728</name></trkpt>
<trkpt lat="53.373390" lon="-1.616981"><ele>373</ele><time>2020-05-21T09:55:30Z</time><name>PT729</name></trkpt>
<trkpt lat="53.373404" lon="-1.616987"><ele>373</ele><time>2020-05-21T09:55:31Z</time><name>PT730</name></trkpt>
<trkpt lat="53.373420" lon="-1.616996"><ele>373</ele><time>2020-05-21T09:55:32Z</time><name>PT731</name></trkpt>
<trkpt lat="53.373436" lon="-1.617002"><ele>373</ele><time>2020-05-21T09:55:33Z</time><name>PT732</name></trkpt>
<trkpt lat="53.373450" lon="-1.617005"><ele>373</ele><time>2020-05-21T09:55:33Z</time><name>PT733</name></trkpt>
<trkpt lat="53.373467" lon="-1.617016"><ele>373</ele><time>2020-05-21T09:55:35Z</time><name>PT734</name></trkpt>
<trkpt lat="53.373479" lon="-1.617028"><ele>373</ele><time>2020-05-21T09:55:35Z</time><name>PT735</name></trkpt>
<trkpt lat="53.373487" lon="-1.617038"><ele>373</ele><time>2020-05-21T09:55:37Z</time><name>PT736</name></trkpt>
<trkpt lat="53.373495" lon="-1.617045"><ele>373</ele><time>2020-05-21T09:55:37Z</time><name>PT737</name></trkpt>
<trkpt lat="53.373505" lon="-1.617044"><ele>373</ele><time>2020-05-21T09:55:39Z</time><name>PT738</name></trkpt>
<trkpt lat="53.373515" lon="-1.617045"><ele>372</ele><time>2020-05-21T09:55:39Z</time><name>PT739</name></trkpt>
<trkpt lat="53.373530" lon="-1.617046"><ele>373</ele><time>2020-05-21T09:55:41Z</time><name>PT740</name></trkpt>
<trkpt lat="53.373542" lon="-1.617041"><ele>372</ele><time>2020-05-21T09:55:41Z</time><name>PT741</name></trkpt>
<trkpt lat="53.373557" lon="-1.617030"><ele>372</ele><time>2020-05-21T09:55:43Z</time><name>PT742</name></trkpt>
<trkpt lat="53.373570" lon="-1.617022"><ele>373</ele><time>2020-05-21T09:55:43Z</time><name>PT743</name></trkpt>
<trkpt lat="53.373582" lon="-1.617017"><ele>373</ele><time>2020-05-21T09:55:45Z</time><name>PT744</name></trkpt>
<trkpt lat="53.373593" lon="-1.617015"><ele>373</ele><time>2020-05-21T09:55:45Z</time><name>PT745</name></trkpt>
<trkpt lat="53.373606" lon="-1.617014"><ele>373</ele><time>2020-05-21T09:55:46Z</time><name>PT746</name></trkpt>
<trkpt lat="53.373613" lon="-1.617015"><ele>373</ele><time>2020-05-21T09:55:48Z</time><name>PT747</name></trkpt>
<trkpt lat="53.373622" lon="-1.617018"><ele>373</ele><time>2020-05-21T09:55:48Z</time><name>PT748</name></trkpt>
<trkpt lat="53.373632" lon="-1.617016"><ele>373</ele><time>2020-05-21T09:55:50Z</time><name>PT749</name></trkpt>
<trkpt lat="53.373644" lon="-1.617014"><ele>373</ele><time>2020-05-21T09:55:51Z</time><name>PT750</name></trkpt>
<trkpt lat="53.373654" lon="-1.617015"><ele>373</ele><time>2020-05-21T09:55:51Z</time><name>PT751</name></trkpt>
<trkpt lat="53.373667" lon="-1.617015"><ele>373</ele><time>2020-05-21T09:55:53Z</time><name>PT752</name></trkpt>
<trkpt lat="53.373683" lon="-1.617014"><ele>373</ele><time>2020-05-21T09:55:54Z</time><name>PT753</name></trkpt>
<trkpt lat="53.373697" lon="-1.617012"><ele>374</ele><time>2020-05-21T09:55:54Z</time><name>PT754</name></trkpt>
<trkpt lat="53.373707" lon="-1.617008"><ele>374</ele><time>2020-05-21T09:55:56Z</time><name>PT755</name></trkpt>
<trkpt lat="53.373724" lon="-1.617012"><ele>374</ele><time>2020-05-21T09:55:57Z</time><name>PT756</name></trkpt>
<trkpt lat="53.373741" lon="-1.617014"><ele>374</ele><time>2020-05-21T09:55:57Z</time><name>PT757</name></trkpt>
<trkpt lat="53.373758" lon="-1.617021"><ele>373</ele><time>2020-05-21T09:55:58Z</time><name>PT758</name></trkpt>
<trkpt lat="53.373774" lon="-1.617023"><ele>373</ele><time>2020-05-21T09:56:00Z</time><name>PT759</name></trkpt>
<trkpt lat="53.373785" lon="-1.617022"><ele>373</ele><time>2020-05-21T09:56:00Z</time><name>PT760</name></trkpt>
<trkpt lat="53.373799" lon="-1.617018"><ele>372</ele><time>2020-05-21T09:56:02Z</time><name>PT761</name></trkpt>
<trkpt lat="53.373814" lon="-1.617013"><ele>372</ele><time>2020-05-21T09:56:03Z</time><name>PT762</name></trkpt>
<trkpt lat="53.373825" lon="-1.617009"><ele>372</ele><time>2020-05-21T09:56:03Z</time><name>PT763</name></trkpt>
<trkpt lat="53.373838" lon="-1.617003"><ele>372</ele><time>2020-05-21T09:56:05Z</time><name>PT764</name></trkpt>
<trkpt lat="53.373851" lon="-1.616998"><ele>371</ele><time>2020-05-21T09:56:06Z</time><name>PT765</name></trkpt>
<trkpt lat="53.373864" lon="-1.616996"><ele>371</ele><time>2020-05-21T09:56:06Z</time><name>PT766</name></trkpt>
<trkpt lat="53.373876" lon="-1.616992"><ele>372</ele><time>2020-05-21T09:56:08Z</time><name>PT767</name></trkpt>
<trkpt lat="53.373888" lon="-1.616986"><ele>371</ele><time>2020-05-21T09:56:09Z</time><name>PT768</name></trkpt>
<trkpt lat="53.373901" lon="-1.616979"><ele>371</ele><time>2020-05-21T09:56:09Z</time><name>PT769</name></trkpt>
<trkpt lat="53.373912" lon="-1.616973"><ele>371</ele><time>2020-05-21T09:56:11Z</time><name>PT770</name></trkpt>
<trkpt lat="53.373924" lon="-1.616969"><ele>371</ele><time>2020-05-21T09:56:12Z</time><name>PT771</name></trkpt>
<trkpt lat="53.373938" lon="-1.616965"><ele>371</ele><time>2020-05-21T09:56:12Z</time><name>PT772</name></trkpt>
<trkpt lat="53.373950" lon="-1.616957"><ele>370</ele><time>2020-05-21T09:56:14Z</time><name>PT773</name></trkpt>
<trkpt lat="53.373963" lon="-1.616949"><ele>370</ele><time>2020-05-21T09:56:15Z</time><name>PT774</name></trkpt>
<trkpt lat="53.373975" lon="-1.616939"><ele>370</ele><time>2020-05-21T09:56:15Z</time><name>PT775</name></trkpt>
<trkpt lat="53.373987" lon="-1.616931"><ele>370</ele><time>2020-05-21T09:56:17Z</time><name>PT776</name></trkpt>
<trkpt lat="53.374002" lon="-1.616926"><ele>370</ele><time>2020-05-21T09:56:18Z</time><name>PT777</name></trkpt>
<trkpt lat="53.374015" lon="-1.616921"><ele>370</ele><time>2020-05-21T09:56:18Z</time><name>PT778</name></trkpt>
<trkpt lat="53.374028" lon="-1.616917"><ele>370</ele><time>2020-05-21T09:56:20Z</time><name>PT779</name></trkpt>
<trkpt lat="53.374042" lon="-1.616915"><ele>370</ele><time>2020-05-21T09:56:21Z</time><name>PT780</name></trkpt>
<trkpt lat="53.374054" lon="-1.616912"><ele>370</ele><time>2020-05-21T09:56:21Z</time><name>PT781</name></trkpt>
<trkpt lat="53.374064" lon="-1.616909"><ele>370</ele><time>2020-05-21T09:56:23Z</time><name>PT782</name></trkpt>
<trkpt lat="53.374076" lon="-1.616909"><ele>371</ele><time>2020-05-21T09:56:24Z</time><name>PT783</name></trkpt>
<trkpt lat="53.374086" lon="-1.616911"><ele>371</ele><time>2020-05-21T09:56:25Z</time><name>PT784</name></trkpt>
<trkpt lat="53.374095" lon="-1.616912"><ele>370</ele><time>2020-05-21T09:56:26Z</time><name>PT785</name></trkpt>
<trkpt lat="53.374111" lon="-1.616906"><ele>371</ele><time>2020-05-21T09:56:27Z</time><name>PT786</name></trkpt>
<trkpt lat="53.374122" lon="-1.616906"><ele>371</ele><time>2020-05-21T09:56:28Z</time><name>PT787</name></trkpt>
<trkpt lat="53.374134" lon="-1.616905"><ele>371</ele><time>2020-05-21T09:56:29Z</time><name>PT788</name></trkpt>
<trkpt lat="53.374145" lon="-1.616906"><ele>371</ele><time>2020-05-21T09:56:30Z</time><name>PT789</name></trkpt>
<trkpt lat="53.374155" lon="-1.616906"><ele>371</ele><time>2020-05-21T09:56:31Z</time><name>PT790</name></trkpt>
<trkpt lat="53.374166" lon="-1.616903"><ele>370</ele><time>2020-05-21T09:56:32Z</time><name>PT791</name></trkpt>
<trkpt lat="53.374180" lon="-1.616897"><ele>370</ele><time>2020-05-21T09:56:33Z</time><name>PT792</name></trkpt>
<trkpt lat="53.374190" lon="-1.616890"><ele>370</ele><time>2020-05-21T09:56:34Z</time><name>PT793</name></trkpt>
<trkpt lat="53.374199" lon="-1.616883"><ele>369</ele><time>2020-05-21T09:56:35Z</time><name>PT794</name></trkpt>
<trkpt lat="53.374210" lon="-1.616876"><ele>369</ele><time>2020-05-21T09:56:36Z</time><name>PT795</name></trkpt>
<trkpt lat="53.374222" lon="-1.616871"><ele>368</ele><time>2020-05-21T09:56:37Z</time><name>PT796</name></trkpt>
<trkpt lat="53.374236" lon="-1.616868"><ele>368</ele><time>2020-05-21T09:56:38Z</time><name>PT797</name></trkpt>
<trkpt lat="53.374248" lon="-1.616861"><ele>368</ele><time>2020-05-21T09:56:38Z</time><name>PT798</name></trkpt>
<trkpt lat="53.374258" lon="-1.616854"><ele>368</ele><time>2020-05-21T09:56:40Z</time><name>PT799</name></trkpt>
<trkpt lat="53.374272" lon="-1.616849"><ele>369</ele><time>2020-05-21T09:56:41Z</time><name>PT800</name></trkpt>
<trkpt lat="53.374283" lon="-1.616849"><ele>369</ele><time>2020-05-21T09:56:42Z</time><name>PT801</name></trkpt>
<trkpt lat="53.374293" lon="-1.616848"><ele>368</ele><time>2020-05-21T09:56:43Z</time><name>PT802</name></trkpt>
<trkpt lat="53.374305" lon="-1.616843"><ele>368</ele><time>2020-05-21T09:56:44Z</time><name>PT803</name></trkpt>
<trkpt lat="53.374316" lon="-1.616840"><ele>368</ele><time>2020-05-21T09:56:45Z</time><name>PT804</name></trkpt>
<trkpt lat="53.374328" lon="-1.616839"><ele>367</ele><time>2020-05-21T09:56:46Z</time><name>PT805</name></trkpt>
<trkpt lat="53.374341" lon="-1.616840"><ele>367</ele><time>2020-05-21T09:56:47Z</time><name>PT806</name></trkpt>
<trkpt lat="53.374352" lon="-1.616838"><ele>367</ele><time>2020-05-21T09:56:48Z</time><name>PT807</name></trkpt>
<trkpt lat="53.374360" lon="-1.616836"><ele>367</ele><time>2020-05-21T09:56:49Z</time><name>PT808</name></trkpt>
<trkpt lat="53.374372" lon="-1.616834"><ele>366</ele><time>2020-05-21T09:56:50Z</time><name>PT809</name></trkpt>
<trkpt lat="53.374385" lon="-1.616832"><ele>367</ele><time>2020-05-21T09:56:50Z</time><name>PT810</name></trkpt>
<trkpt lat="53.374398" lon="-1.616828"><ele>367</ele><time>2020-05-21T09:56:52Z</time><name>PT811</name></trkpt>
<trkpt lat="53.374412" lon="-1.616821"><ele>367</ele><time>2020-05-21T09:56:53Z</time><name>PT812</name></trkpt>
<trkpt lat="53.374426" lon="-1.616814"><ele>367</ele><time>2020-05-21T09:56:53Z</time><name>PT813</name></trkpt>
<trkpt lat="53.374438" lon="-1.616810"><ele>367</ele><time>2020-05-21T09:56:54Z</time><name>PT814</name></trkpt>
<trkpt lat="53.374450" lon="-1.616804"><ele>367</ele><time>2020-05-21T09:56:56Z</time><name>PT815</name></trkpt>
<trkpt lat="53.374464" lon="-1.616801"><ele>366</ele><time>2020-05-21T09:56:56Z</time><name>PT816</name></trkpt>
<trkpt lat="53.374474" lon="-1.616798"><ele>366</ele><time>2020-05-21T09:56:58Z</time><name>PT817</name></trkpt>
<trkpt lat="53.374484" lon="-1.616795"><ele>366</ele><time>2020-05-21T09:56:59Z</time><name>PT818</name></trkpt>
<trkpt lat="53.374493" lon="-1.616792"><ele>366</ele><time>2020-05-21T09:57:00Z</time><name>PT819</name></trkpt>
<trkpt lat="53.374504" lon="-1.616789"><ele>365</ele><time>2020-05-21T09:57:00Z</time><name>PT820</name></trkpt>
<trkpt lat="53.374514" lon="-1.616790"><ele>365</ele><time>2020-05-21T09:57:02Z</time><name>PT821</name></trkpt>
<trkpt lat="53.374524" lon="-1.616790"><ele>365</ele><time>2020-05-21T09:57:03Z</time><name>PT822</name></trkpt>
<trkpt lat="53.374536" lon="-1.616791"><ele>365</ele><time>2020-05-21T09:57:04Z</time><name>PT823</name></trkpt>
<trkpt lat="53.374550" lon="-1.616793"><ele>364</ele><time>2020-05-21T09:57:05Z</time><name>PT824</name></trkpt>
<trkpt lat="53.374561" lon="-1.616796"><ele>364</ele><time>2020-05-21T09:57:05Z</time><name>PT825</name></trkpt>
<trkpt lat="53.374571" lon="-1.616799"><ele>364</ele><time>2020-05-21T09:57:07Z</time><name>PT826</name></trkpt>
<trkpt lat="53.374584" lon="-1.616799"><ele>364</ele><time>2020-05-21T09:57:08Z</time><name>PT827</name></trkpt>
<trkpt lat="53.374596" lon="-1.616801"><ele>363</ele><time>2020-05-21T09:57:09Z</time><name>PT828</name></trkpt>
<trkpt lat="53.374608" lon="-1.616804"><ele>363</ele><time>2020-05-21T09:57:10Z</time><name>PT829</name></trkpt>
<trkpt lat="53.374617" lon="-1.616809"><ele>363</ele><time>2020-05-21T09:57:11Z</time><name>PT830</name></trkpt>
<trkpt lat="53.374625" lon="-1.616812"><ele>363</ele><time>2020-05-21T09:57:12Z</time><name>PT831</name></trkpt>
<trkpt lat="53.374638" lon="-1.616814"><ele>364</ele><time>2020-05-21T09:57:13Z</time><name>PT832</name></trkpt>
<trkpt lat="53.374647" lon="-1.616818"><ele>363</ele><time>2020-05-21T09:57:14Z</time><name>PT833</name></trkpt>
<trkpt lat="53.374658" lon="-1.616823"><ele>363</ele><time>2020-05-21T09:57:15Z</time><name>PT834</name></trkpt>
<trkpt lat="53.374671" lon="-1.616830"><ele>364</ele><time>2020-05-21T09:57:16Z</time><name>PT835</name></trkpt>
<trkpt lat="53.374682" lon="-1.616831"><ele>364</ele><time>2020-05-21T09:57:17Z</time><name>PT836</name></trkpt>
<trkpt lat="53.374694" lon="-1.616829"><ele>363</ele><time>2020-05-21T09:57:18Z</time><name>PT837</name></trkpt>
<trkpt lat="53.374707" lon="-1.616830"><ele>363</ele><time>2020-05-21T09:57:19Z</time><name>PT838</name></trkpt>
<trkpt lat="53.374718" lon="-1.616832"><ele>363</ele><time>2020-05-21T09:57:19Z</time><name>PT839</name></trkpt>
<trkpt lat="53.374732" lon="-1.616837"><ele>363</ele><time>2020-05-21T09:57:21Z</time><name>PT840</name></trkpt>
<trkpt lat="53.374747" lon="-1.616844"><ele>364</ele><time>2020-05-21T09:57:22Z</time><name>PT841</name></trkpt>
<trkpt lat="53.374761" lon="-1.616847"><ele>365</ele><time>2020-05-21T09:57:22Z</time><name>PT842</name></trkpt>
<trkpt lat="53.374774" lon="-1.616845"><ele>364</ele><time>2020-05-21T09:57:23Z</time><name>PT843</name></trkpt>
<trkpt lat="53.374785" lon="-1.616846"><ele>364</ele><time>2020-05-21T09:57:25Z</time><name>PT844</name></trkpt>
<trkpt lat="53.374799" lon="-1.616848"><ele>364</ele><time>2020-05-21T09:57:25Z</time><name>PT845</name></trkpt>
<trkpt lat="53.374813" lon="-1.616851"><ele>364</ele><time>2020-05-21T09:57:27Z</time><name>PT846</name></trkpt>
<trkpt lat="53.374824" lon="-1.616856"><ele>364</ele><time>2020-05-21T09:57:28Z</time><name>PT847</name></trkpt>
<trkpt lat="53.374833" lon="-1.616859"><ele>363</ele><time>2020-05-21T09:57:29Z</time><name>PT848</name></trkpt>
<trkpt lat="53.374845" lon="-1.616858"><ele>363</ele><time>2020-05-21T09:57:30Z</time><name>PT849</name></trkpt>
<trkpt lat="53.374858" lon="-1.616857"><ele>363</ele><time>2020-05-21T09:57:31Z</time><name>PT850</name></trkpt>
<trkpt lat="53.374871" lon="-1.616858"><ele>363</ele><time>2020-05-21T09:57:31Z</time><name>PT851</name></trkpt>
<trkpt lat="53.374884" lon="-1.616858"><ele>364</ele><time>2020-05-21T09:57:33Z</time><name>PT852</name></trkpt>
<trkpt lat="53.374900" lon="-1.616863"><ele>364</ele><time>2020-05-21T09:57:34Z</time><name>PT853</name></trkpt>
<trkpt lat="53.374915" lon="-1.616868"><ele>363</ele><time>2020-05-21T09:57:35Z</time><name>PT854</name></trkpt>
<trkpt lat="53.374926" lon="-1.616873"><ele>363</ele><time>2020-05-21T09:57:35Z</time><name>PT855</name></trkpt>
<trkpt lat="53.374936" lon="-1.616876"><ele>364</ele><time>2020-05-21T09:57:37Z</time><name>PT856</name></trkpt>
<trkpt lat="53.374948" lon="-1.616882"><ele>363</ele><time>2020-05-21T09:57:38Z</time><name>PT857</name></trkpt>
<trkpt lat="53.374960" lon="-1.616888"><ele>363</ele><time>2020-05-21T09:57:39Z</time><name>PT858</name></trkpt>
<trkpt lat="53.374970" lon="-1.616895"><ele>363</ele><time>2020-05-21T09:57:40Z</time><name>PT859</name></trkpt>
<trkpt lat="53.374986" lon="-1.616901"><ele>364</ele><time>2020-05-21T09:57:41Z</time><name>PT860</name></trkpt>
<trkpt lat="53.374998" lon="-1.616907"><ele>363</ele><time>2020-05-21T09:57:42Z</time><name>PT861</name></trkpt>
<trkpt lat="53.375009" lon="-1.616913"><ele>363</ele><time>2020-05-21T09:57:42Z</time><name>PT862</name></trkpt>
<trkpt lat="53.375020" lon="-1.616917"><ele>363</ele><time>2020-05-21T09:57:44Z</time><name>PT863</name></trkpt>
<trkpt lat="53.375033" lon="-1.616921"><ele>363</ele><time>2020-05-21T09:57:45Z</time><name>PT864</name></trkpt>
<trkpt lat="53.375046" lon="-1.616927"><ele>362</ele><time>2020-05-21T09:57:45Z</time><name>PT865</name></trkpt>
<trkpt lat="53.375058" lon="-1.616933"><ele>362</ele><time>2020-05-21T09:57:47Z</time><name>PT866</name></trkpt>
<trkpt lat="53.375072" lon="-1.616940"><ele>362</ele><time>2020-05-21T09:57:48Z</time><name>PT867</name></trkpt>
<trkpt lat="53.375083" lon="-1.616945"><ele>362</ele><time>2020-05-21T09:57:48Z</time><name>PT868</name></trkpt>
<trkpt lat="53.375094" lon="-1.616946"><ele>362</ele><time>2020-05-21T09:57:49Z</time><name>PT869</name></trkpt>
<trkpt lat="53.375107" lon="-1.616946"><ele>362</ele><time>2020-05-21T09:57:51Z</time><name>PT870</name></trkpt>
<trkpt lat="53.375120" lon="-1.616949"><ele>362</ele><time>2020-05-21T09:57:51Z</time><name>PT871</name></trkpt>
<trkpt lat="53.375133" lon="-1.616950"><ele>361</ele><time>2020-05-21T09:57:53Z</time><name>PT872</name></trkpt>
<trkpt lat="53.375149" lon="-1.616950"><ele>362</ele><time>2020-05-21T09:57:54Z</time><name>PT873</name></trkpt>
<trkpt lat="53.375162" lon="-1.616951"><ele>361</ele><time>2020-05-21T09:57:55Z</time><name>PT874</name></trkpt>
<trkpt lat="53.375174" lon="-1.616954"><ele>361</ele><time>2020-05-21T09:57:55Z</time><name>PT875</name></trkpt>
<trkpt lat="53.375182" lon="-1.616956"><ele>361</ele><time>2020-05-21T09:57:57Z</time><name>PT876</name></trkpt>
<trkpt lat="53.375194" lon="-1.616957"><ele>361</ele><time>2020-05-21T09:57:57Z</time><name>PT877</name></trkpt>
<trkpt lat="53.375208" lon="-1.616958"><ele>360</ele><time>2020-05-21T09:57:59Z</time><name>PT878</name></trkpt>
<trkpt lat="53.375221" lon="-1.616959"><ele>361</ele><time>2020-05-21T09:58:00Z</time><name>PT879</name></trkpt>
<trkpt lat="53.375231" lon="-1.616963"><ele>361</ele><time>2020-05-21T09:58:00Z</time><name>PT880</name></trkpt>
<trkpt lat="53.375245" lon="-1.616965"><ele>361</ele><time>2020-05-21T09:58:01Z</time><name>PT881</name></trkpt>
<trkpt lat="53.375257" lon="-1.616964"><ele>361</ele><time>2020-05-21T09:58:03Z</time><name>PT882</name></trkpt>
<trkpt lat="53.375268" lon="-1.616962"><ele>361</ele><time>2020-05-21T09:58:04Z</time><name>PT883</name></trkpt>
<trkpt lat="53.375280" lon="-1.616963"><ele>361</ele><time>2020-05-21T09:58:05Z</time><name>PT884</name></trkpt>
<trkpt lat="53.375293" lon="-1.616961"><ele>361</ele><time>2020-05-21T09:58:06Z</time><name>PT885</name></trkpt>
<trkpt lat="53.375306" lon="-1.616959"><ele>361</ele><time>2020-05-21T09:58:07Z</time><name>PT886</name></trkpt>
<trkpt lat="53.375321" lon="-1.616957"><ele>362</ele><time>2020-05-21T09:58:08Z</time><name>PT887</name></trkpt>
<trkpt lat="53.375334" lon="-1.616956"><ele>361</ele><time>2020-05-21T09:58:09Z</time><name>PT888</name></trkpt>
<trkpt lat="53.375345" lon="-1.616954"><ele>361</ele><time>2020-05-21T09:58:10Z</time><name>PT889</name></trkpt>
<trkpt lat="53.375357" lon="-1.616951"><ele>361</ele><time>2020-05-21T09:58:11Z</time><name>PT890</name></trkpt>
<trkpt lat="53.375371" lon="-1.616948"><ele>361</ele><time>2020-05-21T09:58:12Z</time><name>PT891</name></trkpt>
<trkpt lat="53.375380" lon="-1.616945"><ele>361</ele><time>2020-05-21T09:58:12Z</time><name>PT892</name></trkpt>
<trkpt lat="53.375391" lon="-1.616942"><ele>361</ele><time>2020-05-21T09:58:14Z</time><name>PT893</name></trkpt>
<trkpt lat="53.375404" lon="-1.616938"><ele>360</ele><time>2020-05-21T09:58:15Z</time><name>PT894</name></trkpt>
<trkpt lat="53.375416" lon="-1.616935"><ele>360</ele><time>2020-05-21T09:58:15Z</time><name>PT895</name></trkpt>
<trkpt lat="53.375425" lon="-1.616930"><ele>360</ele><time>2020-05-21T09:58:17Z</time><name>PT896</name></trkpt>
<trkpt lat="53.375437" lon="-1.616923"><ele>360</ele><time>2020-05-21T09:58:18Z</time><name>PT897</name></trkpt>
<trkpt lat="53.375448" lon="-1.616917"><ele>359</ele><time>2020-05-21T09:58:18Z</time><name>PT898</name></trkpt>
<trkpt lat="53.375461" lon="-1.616912"><ele>359</ele><time>2020-05-21T09:58:20Z</time><name>PT899</name></trkpt>
<trkpt lat="53.375475" lon="-1.616913"><ele>360</ele><time>2020-05-21T09:58:20Z</time><name>PT900</name></trkpt>
<trkpt lat="53.375486" lon="-1.616911"><ele>360</ele><time>2020-05-21T09:58:21Z</time><name>PT901</name></trkpt>
<trkpt lat="53.375498" lon="-1.616906"><ele>359</ele><time>2020-05-21T09:58:23Z</time><name>PT902</name></trkpt>
<trkpt lat="53.375509" lon="-1.616901"><ele>360</ele><time>2020-05-21T09:58:23Z</time><name>PT903</name></trkpt>
<trkpt lat="53.375518" lon="-1.616898"><ele>360</ele><time>2020-05-21T09:58:25Z</time><name>PT904</name></trkpt>
<trkpt lat="53.375527" lon="-1.616891"><ele>359</ele><time>2020-05-21T09:58:26Z</time><name>PT905</name></trkpt>
<trkpt lat="53.375539" lon="-1.616888"><ele>360</ele><time>2020-05-21T09:58:26Z</time><name>PT906</name></trkpt>
<trkpt lat="53.375548" lon="-1.616883"><ele>359</ele><time>2020-05-21T09:58:27Z</time><name>PT907</name></trkpt>
<trkpt lat="53.375558" lon="-1.616877"><ele>359</ele><time>2020-05-21T09:58:29Z</time><name>PT908</name></trkpt>
<trkpt lat="53.375570" lon="-1.616870"><ele>359</ele><time>2020-05-21T09:58:29Z</time><name>PT909</name></trkpt>
<trkpt lat="53.375582" lon="-1.616867"><ele>359</ele><time>2020-05-21T09:58:31Z</time><name>PT910</name></trkpt>
<trkpt lat="53.375594" lon="-1.616865"><ele>359</ele><time>2020-05-21T09:58:32Z</time><name>PT911</name></trkpt>
<trkpt lat="53.375607" lon="-1.616863"><ele>359</ele><time>2020-05-21T09:58:32Z</time><name>PT912</name></trkpt>
<trkpt lat="53.375620" lon="-1.616859"><ele>359</ele><time>2020-05-21T09:58:34Z</time><name>PT913</name></trkpt>
<trkpt lat="53.375633" lon="-1.616856"><ele>359</ele><time>2020-05-21T09:58:35Z</time><name>PT914</name></trkpt>
<trkpt lat="53.375645" lon="-1.616853"><ele>359</ele><time>2020-05-21T09:58:35Z</time><name>PT915</name></trkpt>
<trkpt lat="53.375657" lon="-1.616849"><ele>359</ele><time>2020-05-21T09:58:37Z</time><name>PT916</name></trkpt>
<trkpt lat="53.375670" lon="-1.616840"><ele>359</ele><time>2020-05-21T09:58:38Z</time><name>PT917</name></trkpt>
<trkpt lat="53.375682" lon="-1.616834"><ele>359</ele><time>2020-05-21T09:58:38Z</time><name>PT918</name></trkpt>
<trkpt lat="53.375695" lon="-1.616829"><ele>360</ele><time>2020-05-21T09:58:39Z</time><name>PT919</name></trkpt>
<trkpt lat="53.375708" lon="-1.616822"><ele>360</ele><time>2020-05-21T09:58:41Z</time><name>PT920</name></trkpt>
<trkpt lat="53.375720" lon="-1.616819"><ele>360</ele><time>2020-05-21T09:58:42Z</time><name>PT921</name></trkpt>
<trkpt lat="53.375730" lon="-1.616815"><ele>360</ele><time>2020-05-21T09:58:42Z</time><name>PT922</name></trkpt>
<trkpt lat="53.375743" lon="-1.616809"><ele>360</ele><time>2020-05-21T09:58:44Z</time><name>PT923</name></trkpt>
<trkpt lat="53.375754" lon="-1.616803"><ele>360</ele><time>2020-05-21T09:58:44Z</time><name>PT924</name></trkpt>
<trkpt lat="53.375765" lon="-1.616799"><ele>360</ele><time>2020-05-21T09:58:46Z</time><name>PT925</name></trkpt>
<trkpt lat="53.375777" lon="-1.616793"><ele>360</ele><time>2020-05-21T09:58:47Z</time><name>PT926</name></trkpt>
<trkpt lat="53.375791" lon="-1.616788"><ele>360</ele><time>2020-05-21T09:58:48Z</time><name>PT927</name></trkpt>
<trkpt lat="53.375802" lon="-1.616783"><ele>360</ele><time>2020-05-21T09:58:49Z</time><name>PT928</name></trkpt>
<trkpt lat="53.375811" lon="-1.616777"><ele>359</ele><time>2020-05-21T09:58:50Z</time><name>PT929</name></trkpt>
<trkpt lat="53.375822" lon="-1.616768"><ele>359</ele><time>2020-05-21T09:58:51Z</time><name>PT930</name></trkpt>
<trkpt lat="53.375834" lon="-1.616761"><ele>359</ele><time>2020-05-21T09:58:52Z</time><name>PT931</name></trkpt>
<trkpt lat="53.375847" lon="-1.616756"><ele>359</ele><time>2020-05-21T09:58:53Z</time><name>PT932</name></trkpt>
<trkpt lat="53.375859" lon="-1.616750"><ele>359</ele><time>2020-05-21T09:58:54Z</time><name>PT933</name></trkpt>
<trkpt lat="53.375872" lon="-1.616744"><ele>359</ele><time>2020-05-21T09:58:55Z</time><name>PT934</name></trkpt>
<trkpt lat="53.375884" lon="-1.616738"><ele>359</ele><time>2020-05-21T09:58:56Z</time><name>PT935</name></trkpt>
<trkpt lat="53.375896" lon="-1.616732"><ele>359</ele><time>2020-05-21T09:58:56Z</time><name>PT936</name></trkpt>
<trkpt lat="53.375908" lon="-1.616725"><ele>359</ele><time>2020-05-21T09:58:58Z</time><name>PT937</name></trkpt>
<trkpt lat="53.375920" lon="-1.616721"><ele>359</ele><time>2020-05-21T09:58:59Z</time><name>PT938</name></trkpt>
<trkpt lat="53.375933" lon="-1.616716"><ele>360</ele><time>2020-05-21T09:59:00Z</time><name>PT939</name></trkpt>
<trkpt lat="53.375946" lon="-1.616708"><ele>360</ele><time>2020-05-21T09:59:00Z</time><name>PT940</name></trkpt>
<trkpt lat="53.375958" lon="-1.616702"><ele>360</ele><time>2020-05-21T09:59:02Z</time><name>PT941</name></trkpt>
<trkpt lat="53.375970" lon="-1.616697"><ele>360</ele><time>2020-05-21T09:59:02Z</time><name>PT942</name></trkpt>
<trkpt lat="53.375983" lon="-1.616692"><ele>360</ele><time>2020-05-21T09:59:04Z</time><name>PT943</name></trkpt>
<trkpt lat="53.375994" lon="-1.616685"><ele>359</ele><time>2020-05-21T09:59:05Z</time><name>PT944</name></trkpt>
<trkpt lat="53.376003" lon="-1.616680"><ele>359</ele><time>2020-05-21T09:59:06Z</time><name>PT945</name></trkpt>
<trkpt lat="53.376014" lon="-1.616675"><ele>360</ele><time>2020-05-21T09:59:07Z</time><name>PT946</name></trkpt>
<trkpt lat="53.376027" lon="-1.616669"><ele>359</ele><time>2020-05-21T09:59:08Z</time><name>PT947</name></trkpt>
<trkpt lat="53.376040" lon="-1.616664"><ele>359</ele><time>2020-05-21T09:59:09Z</time><name>PT948</name></trkpt>
<trkpt lat="53.376052" lon="-1.616658"><ele>359</ele><time>2020-05-21T09:59:10Z</time><name>PT949</name></trkpt>
<trkpt lat="53.376065" lon="-1.616650"><ele>359</ele><time>2020-05-21T09:59:11Z</time><name>PT950</name></trkpt>
<trkpt lat="53.376079" lon="-1.616642"><ele>359</ele><time>2020-05-21T09:59:11Z</time><name>PT951</name></trkpt>
<trkpt lat="53.376092" lon="-1.616637"><ele>359</ele><time>2020-05-21T09:59:13Z</time><name>PT952</name></trkpt>
<trkpt lat="53.376103" lon="-1.616633"><ele>359</ele><time>2020-05-21T09:59:14Z</time><name>PT953</name></trkpt>
<trkpt lat="53.376117" lon="-1.616628"><ele>359</ele><time>2020-05-21T09:59:15Z</time><name>PT954</name></trkpt>
<trkpt lat="53.376130" lon="-1.616621"><ele>359</ele><time>2020-05-21T09:59:16Z</time><name>PT955</name></trkpt>
<trkpt lat="53.376140" lon="-1.616615"><ele>359</ele><time>2020-05-21T09:59:17Z</time><name>PT956</name></trkpt>
<trkpt lat="53.376150" lon="-1.616611"><ele>358</ele><time>2020-05-21T09:59:18Z</time><name>PT957</name></trkpt>
<trkpt lat="53.376164" lon="-1.616602"><ele>358</ele><time>2020-05-21T09:59:19Z</time><name>PT958</name></trkpt>
<trkpt lat="53.376177" lon="-1.616596"><ele>359</ele><time>2020-05-21T09:59:20Z</time><name>PT959</name></trkpt>
<trkpt lat="53.376191" lon="-1.616592"><ele>359</ele><time>2020-05-21T09:59:21Z</time><name>PT960</name></trkpt>
<trkpt lat="53.376201" lon="-1.616592"><ele>359</ele><time>2020-05-21T09:59:22Z</time><name>PT961</name></trkpt>
<trkpt lat="53.376212" lon="-1.616594"><ele>359</ele><time>2020-05-21T09:59:23Z</time><name>PT962</name></trkpt>
<trkpt lat="53.376223" lon="-1.616594"><ele>359</ele><time>2020-05-21T09:59:24Z</time><name>PT963</name></trkpt>
<trkpt lat="53.376236" lon="-1.616593"><ele>359</ele><time>2020-05-21T09:59:25Z</time><name>PT964</name></trkpt>
<trkpt lat="53.376248" lon="-1.616590"><ele>359</ele><time>2020-05-21T09:59:26Z</time><name>PT965</name></trkpt>
<trkpt lat="53.376261" lon="-1.616586"><ele>359</ele><time>2020-05-21T09:59:27Z</time><name>PT966</name></trkpt>
<trkpt lat="53.376274" lon="-1.616581"><ele>359</ele><time>2020-05-21T09:59:28Z</time><name>PT967</name></trkpt>
<trkpt lat="53.376288" lon="-1.616576"><ele>359</ele><time>2020-05-21T09:59:29Z</time><name>PT968</name></trkpt>
<trkpt lat="53.376301" lon="-1.616573"><ele>360</ele><time>2020-05-21T09:59:29Z</time><name>PT969</name></trkpt>
<trkpt lat="53.376313" lon="-1.616571"><ele>359</ele><time>2020-05-21T09:59:31Z</time><name>PT970</name></trkpt>
<trkpt lat="53.376326" lon="-1.616564"><ele>360</ele><time>2020-05-21T09:59:32Z</time><name>PT971</name></trkpt>
<trkpt lat="53.376338" lon="-1.616556"><ele>359</ele><time>2020-05-21T09:59:32Z</time><name>PT972</name></trkpt>
<trkpt lat="53.376351" lon="-1.616549"><ele>359</ele><time>2020-05-21T09:59:34Z</time><name>PT973</name></trkpt>
<trkpt lat="53.376365" lon="-1.616542"><ele>360</ele><time>2020-05-21T09:59:35Z</time><name>PT974</name></trkpt>
<trkpt lat="53.376380" lon="-1.616534"><ele>360</ele><time>2020-05-21T09:59:36Z</time><name>PT975</name></trkpt>
<trkpt lat="53.376394" lon="-1.616529"><ele>360</ele><time>2020-05-21T09:59:36Z</time><name>PT976</name></trkpt>
<trkpt lat="53.376406" lon="-1.616524"><ele>360</ele><time>2020-05-21T09:59:38Z</time><name>PT977</name></trkpt>
<trkpt lat="53.376417" lon="-1.616521"><ele>360</ele><time>2020-05-21T09:59:39Z</time><name>PT978</name></trkpt>
<trkpt lat="53.376432" lon="-1.616517"><ele>360</ele><time>2020-05-21T09:59:40Z</time><name>PT979</name></trkpt>
<trkpt lat="53.376445" lon="-1.616510"><ele>360</ele><time>2020-05-21T09:59:41Z</time><name>PT980</name></trkpt>
<trkpt lat="53.376456" lon="-1.616505"><ele>360</ele><time>2020-05-21T09:59:41Z</time><name>PT981</name></trkpt>
<trkpt lat="53.376468" lon="-1.616500"><ele>360</ele><time>2020-05-21T09:59:43Z</time><name>PT982</name></trkpt>
<trkpt lat="53.376482" lon="-1.616496"><ele>359</ele><time>2020-05-21T09:59:44Z</time><name>PT983</name></trkpt>
<trkpt lat="53.376493" lon="-1.616491"><ele>359</ele><time>2020-05-21T09:59:45Z</time><name>PT984</name></trkpt>
<trkpt lat="53.376502" lon="-1.616486"><ele>359</ele><time>2020-05-21T09:59:46Z</time><name>PT985</name></trkpt>
<trkpt lat="53.376515" lon="-1.616481"><ele>359</ele><time>2020-05-21T09:59:47Z</time><name>PT986</name></trkpt>
<trkpt lat="53.376526" lon="-1.616475"><ele>359</ele><time>2020-05-21T09:59:47Z</time><name>PT987</name></trkpt>
<trkpt lat="53.376536" lon="-1.616469"><ele>358</ele><time>2020-05-21T09:59:49Z</time><name>PT988</name></trkpt>
<trkpt lat="53.376548" lon="-1.616463"><ele>358</ele><time>2020-05-21T09:59:50Z</time><name>PT989</name></trkpt>
<trkpt lat="53.376562" lon="-1.616457"><ele>358</ele><time>2020-05-21T09:59:50Z</time><name>PT990</name></trkpt>
<trkpt lat="53.376574" lon="-1.616452"><ele>358</ele><time>2020-05-21T09:59:52Z</time><name>PT991</name></trkpt>
<trkpt lat="53.376586" lon="-1.616443"><ele>358</ele><time>2020-05-21T09:59:53Z</time><name>PT992</name></trkpt>
<trkpt lat="53.376601" lon="-1.616430"><ele>358</ele><time>2020-05-21T09:59:53Z</time><name>PT993</name></trkpt>
<trkpt lat="53.376615" lon="-1.616418"><ele>358</ele><time>2020-05-21T09:59:54Z</time><name>PT994</name></trkpt>
<trkpt lat="53.376626" lon="-1.616409"><ele>358</ele><time>2020-05-21T09:59:56Z</time><name>PT995</name></trkpt>
<trkpt lat="53.376637" lon="-1.616400"><ele>358</ele><time>2020-05-21T09:59:56Z</time><name>PT996</name></trkpt>
<trkpt lat="53.376653" lon="-1.616390"><ele>358</ele><time>2020-05-21T09:59:57Z</time><name>PT997</name></trkpt>
<trkpt lat="53.376666" lon="-1.616379"><ele>357</ele><time>2020-05-21T09:59:59Z</time><name>PT998</name></trkpt>
<trkpt lat="53.376676" lon="-1.616368"><ele>357</ele><time>2020-05-21T10:00:00Z</time><name>PT999</name></trkpt>
<trkpt lat="53.376687" lon="-1.616354"><ele>357</ele><time>2020-05-21T10:00:01Z</time><name>PT1000</name></trkpt>
<trkpt lat="53.376696" lon="-1.616338"><ele>357</ele><time>2020-05-21T10:00:02Z</time><name>PT1001</name></trkpt>
<trkpt lat="53.376710" lon="-1.616322"><ele>358</ele><time>2020-05-21T10:00:02Z</time><name>PT1002</name></trkpt>
<trkpt lat="53.376720" lon="-1.616308"><ele>357</ele><time>2020-05-21T10:00:04Z</time><name>PT1003</name></trkpt>
<trkpt lat="53.376731" lon="-1.616294"><ele>357</ele><time>2020-05-21T10:00:05Z</time><name>PT1004</name></trkpt>
<trkpt lat="53.376742" lon="-1.616279"><ele>357</ele><time>2020-05-21T10:00:06Z</time><name>PT1005</name></trkpt>
<trkpt lat="53.376757" lon="-1.616265"><ele>357</ele><time>2020-05-21T10:00:06Z</time><name>PT1006</name></trkpt>
<trkpt lat="53.376770" lon="-1.616256"><ele>357</ele><time>2020-05-21T10:00:08Z</time><name>PT1007</name></trkpt>
<trkpt lat="53.376780" lon="-1.616248"><ele>357</ele><time>2020-05-21T10:00:09Z</time><name>PT1008</name></trkpt>
<trkpt lat="53.376792" lon="-1.616238"><ele>357</ele><time>2020-05-21T10:00:10Z</time><name>PT1009</name></trkpt>
<trkpt lat="53.376804" lon="-1.616230"><ele>357</ele><time>2020-05-21T10:00:11Z</time><name>PT1010</name></trkpt>
<trkpt lat="53.376814" lon="-1.616220"><ele>357</ele><time>2020-05-21T10:00:12Z</time><name>PT1011</name></trkpt>
<trkpt lat="53.376825" lon="-1.616216"><ele>357</ele><time>2020-05-21T10:00:13Z</time><name>PT1012</name></trkpt>
<trkpt lat="53.376835" lon="-1.616211"><ele>356</ele><time>2020-05-21T10:00:14Z</time><name>PT1013</name></trkpt>
<trkpt lat="53.376845" lon="-1.616206"><ele>356</ele><time>2020-05-21T10:00:15Z</time><name>PT1014</name></trkpt>
<trkpt lat="53.376856" lon="-1.616202"><ele>356</ele><time>2020-05-21T10:00:16Z</time><name>PT1015</name></trkpt>
<trkpt lat="53.376869" lon="-1.616198"><ele>356</ele><time>2020-05-21T10:00:16Z</time><name>PT1016</name></trkpt>
<trkpt lat="53.376881" lon="-1.616197"><ele>356</ele><time>2020-05-21T10:00:18Z</time><name>PT1017</name></trkpt>
<trkpt lat="53.376892" lon="-1.616199"><ele>356</ele><time>2020-05-21T10:00:19Z</time><name>PT1018</name></trkpt>
<trkpt lat="53.376906" lon="-1.616199"><ele>356</ele><time>2020-05-21T10:00:19Z</time><name>PT1019</name></trkpt>
<trkpt lat="53.376917" lon="-1.616196"><ele>356</ele><time>2020-05-21T10:00:20Z</time><name>PT1020</name></trkpt>
<trkpt lat="53.376927" lon="-1.616193"><ele>356</ele><time>2020-05-21T10:00:22Z</time><name>PT1021</name></trkpt>
<trkpt lat="53.376939" lon="-1.616188"><ele>356</ele><time>2020-05-21T10:00:22Z</time><name>PT1022</name></trkpt>
<trkpt lat="53.376950" lon="-1.616184"><ele>355</ele><time>2020-05-21T10:00:24Z</time><name>PT1023</name></trkpt>
<trkpt lat="53.376962" lon="-1.616180"><ele>355</ele><time>2020-05-21T10:00:25Z</time><name>PT1024</name></trkpt>
<trkpt lat="53.376973" lon="-1.616174"><ele>355</ele><time>2020-05-21T10:00:26Z</time><name>PT1025</name></trkpt>
<trkpt lat="53.376984" lon="-1.616167"><ele>356</ele><time>2020-05-21T10:00:27Z</time><name>PT1026</name></trkpt>
<trkpt lat="53.376992" lon="-1.616158"><ele>356</ele><time>2020-05-21T10:00:28Z</time><name>PT1027</name></trkpt>
<trkpt lat="53.377001" lon="-1.616147"><ele>356</ele><time>2020-05-21T10:00:28Z</time><name>PT1028</name></trkpt>
<trkpt lat="53.377009" lon="-1.616139"><ele>355</ele><time>2020-05-21T10:00:30Z</time><name>PT1029</name></trkpt>
<trkpt lat="53.377018" lon="-1.616130"><ele>355</ele><time>2020-05-21T10:00:31Z</time><name>PT1030</name></trkpt>
<trkpt lat="53.377027" lon="-1.616121"><ele>355</ele><time>2020-05-21T10:00:31Z</time><name>PT1031</name></trkpt>
<trkpt lat="53.377035" lon="-1.616109"><ele>356</ele><time>2020-05-21T10:00:32Z</time><name>PT1032</name></trkpt>
<trkpt lat="53.377038" lon="-1.616096"><ele>356</ele><time>2020-05-21T10:00:34Z</time><name>PT1033</name></trkpt>
<trkpt lat="53.377043" lon="-1.616087"><ele>356</ele><time>2020-05-21T10:00:35Z</time><name>PT1034</name></trkpt>
<trkpt lat="53.377045" lon="-1.616082"><ele>356</ele><time>2020-05-21T10:00:36Z</time><name>PT1035</name></trkpt>
<trkpt lat="53.377048" lon="-1.616080"><ele>356</ele><time>2020-05-21T10:00:37Z</time><name>PT1036</name></trkpt>
<trkpt lat="53.377049" lon="-1.616079"><ele>356</ele><time>2020-05-21T10:00:38Z</time><name>PT1037</name></trkpt>
<trkpt lat="53.377054" lon="-1.616077"><ele>356</ele><time>2020-05-21T10:00:42Z</time><name>PT1038</name></trkpt>
<trkpt lat="53.377055" lon="-1.616064"><ele>357</ele><time>2020-05-21T10:00:43Z</time><name>PT1039</name></trkpt>
<trkpt lat="53.377051" lon="-1.616051"><ele>357</ele><time>2020-05-21T10:00:43Z</time><name>PT1040</name></trkpt>
<trkpt lat="53.377048" lon="-1.616035"><ele>357</ele><time>2020-05-21T10:00:45Z</time><name>PT1041</name></trkpt>
<trkpt lat="53.377043" lon="-1.616022"><ele>357</ele><time>2020-05-21T10:00:45Z</time><name>PT1042</name></trkpt>
<trkpt lat="53.377040" lon="-1.616004"><ele>357</ele><time>2020-05-21T10:00:47Z</time><name>PT1043</name></trkpt>
<trkpt lat="53.377035" lon="-1.615989"><ele>357</ele><time>2020-05-21T10:00:48Z</time><name>PT1044</name></trkpt>
<trkpt lat="53.377030" lon="-1.615972"><ele>357</ele><time>2020-05-21T10:00:48Z</time><name>PT1045</name></trkpt>
<trkpt lat="53.377021" lon="-1.615954"><ele>357</ele><time>2020-05-21T10:00:49Z</time><name>PT1046</name></trkpt>
<trkpt lat="53.377018" lon="-1.615933"><ele>357</ele><time>2020-05-21T10:00:51Z</time><name>PT1047</name></trkpt>
<trkpt lat="53.377012" lon="-1.615914"><ele>357</ele><time>2020-05-21T10:00:51Z</time><name>PT1048</name></trkpt>
<trkpt lat="53.377005" lon="-1.615900"><ele>357</ele><time>2020-05-21T10:00:53Z</time><name>PT1049</name></trkpt>
<trkpt lat="53.377000" lon="-1.615884"><ele>357</ele><time>2020-05-21T10:00:54Z</time><name>PT1050</name></trkpt>
<trkpt lat="53.376997" lon="-1.615865"><ele>357</ele><time>2020-05-21T10:00:55Z</time><name>PT1051</name></trkpt>
<trkpt lat="53.376992" lon="-1.615846"><ele>357</ele><time>2020-05-21T10:00:56Z</time><name>PT1052</name></trkpt>
<trkpt lat="53.376988" lon="-1.615830"><ele>357</ele><time>2020-05-21T10:00:57Z</time><name>PT1053</name></trkpt>
<trkpt lat="53.376983" lon="-1.615811"><ele>357</ele><time>2020-05-21T10:00:57Z</time><name>PT1054</name></trkpt>
<trkpt lat="53.376979" lon="-1.615796"><ele>357</ele><time>2020-05-21T10:00:59Z</time><name>PT1055</name></trkpt>
<trkpt lat="53.376973" lon="-1.615778"><ele>357</ele><time>2020-05-21T10:00:59Z</time><name>PT1056</name></trkpt>
<trkpt lat="53.376966" lon="-1.615757"><ele>357</ele><time>2020-05-21T10:01:01Z</time><name>PT1057</name></trkpt>
<trkpt lat="53.376958" lon="-1.615738"><ele>356</ele><time>2020-05-21T10:01:01Z</time><name>PT1058</name></trkpt>
<trkpt lat="53.376955" lon="-1.615721"><ele>358</ele><time>2020-05-21T10:01:03Z</time><name>PT1059</name></trkpt>
<trkpt lat="53.376949" lon="-1.615704"><ele>358</ele><time>2020-05-21T10:01:03Z</time><name>PT1060</name></trkpt>
<trkpt lat="53.376941" lon="-1.615686"><ele>358</ele><time>2020-05-21T10:01:05Z</time><name>PT1061</name></trkpt>
<trkpt lat="53.376935" lon="-1.615672"><ele>358</ele><time>2020-05-21T10:01:05Z</time><name>PT1062</name></trkpt>
<trkpt lat="53.376928" lon="-1.615654"><ele>358</ele><time>2020-05-21T10:01:07Z</time><name>PT1063</name></trkpt>
<trkpt lat="53.376919" lon="-1.615633"><ele>357</ele><time>2020-05-21T10:01:07Z</time><name>PT1064</name></trkpt>
<trkpt lat="53.376911" lon="-1.615614"><ele>357</ele><time>2020-05-21T10:01:09Z</time><name>PT1065</name></trkpt>
<trkpt lat="53.376904" lon="-1.615595"><ele>357</ele><time>2020-05-21T10:01:09Z</time><name>PT1066</name></trkpt>
<trkpt lat="53.376897" lon="-1.615576"><ele>357</ele><time>2020-05-21T10:01:11Z</time><name>PT1067</name></trkpt>
<trkpt lat="53.376890" lon="-1.615556"><ele>357</ele><time>2020-05-21T10:01:12Z</time><name>PT1068</name></trkpt>
<trkpt lat="53.376884" lon="-1.615537"><ele>356</ele><time>2020-05-21T10:01:13Z</time><name>PT1069</name></trkpt>
<trkpt lat="53.376878" lon="-1.615521"><ele>356</ele><time>2020-05-21T10:01:13Z</time><name>PT1070</name></trkpt>
<trkpt lat="53.376869" lon="-1.615500"><ele>356</ele><time>2020-05-21T10:01:15Z</time><name>PT1071</name></trkpt>
<trkpt lat="53.376858" lon="-1.615477"><ele>356</ele><time>2020-05-21T10:01:16Z</time><name>PT1072</name></trkpt>
<trkpt lat="53.376850" lon="-1.615459"><ele>356</ele><time>2020-05-21T10:01:16Z</time><name>PT1073</name></trkpt>
<trkpt lat="53.376844" lon="-1.615440"><ele>356</ele><time>2020-05-21T10:01:18Z</time><name>PT1074</name></trkpt>
<trkpt lat="53.376837" lon="-1.615420"><ele>356</ele><time>2020-05-21T10:01:18Z</time><name>PT1075</name></trkpt>
<trkpt lat="53.376831" lon="-1.615403"><ele>356</ele><time>2020-05-21T10:01:20Z</time><name>PT1076</name></trkpt>
<trkpt lat="53.376826" lon="-1.615388"><ele>356</ele><time>2020-05-21T10:01:20Z</time><name>PT1077</name></trkpt>
<trkpt lat="53.376819" lon="-1.615373"><ele>355</ele><time>2020-05-21T10:01:22Z</time><name>PT1078</name></trkpt>
<trkpt lat="53.376812" lon="-1.615355"><ele>355</ele><time>2020-05-21T10:01:22Z</time><name>PT1079</name></trkpt>
<trkpt lat="53.376806" lon="-1.615337"><ele>356</ele><time>2020-05-21T10:01:24Z</time><name>PT1080</name></trkpt>
<trkpt lat="53.376799" lon="-1.615317"><ele>355</ele><time>2020-05-21T10:01:25Z</time><name>PT1081</name></trkpt>
<trkpt lat="53.376793" lon="-1.615301"><ele>355</ele><time>2020-05-21T10:01:26Z</time><name>PT1082</name></trkpt>
<trkpt lat="53.376787" lon="-1.615285"><ele>355</ele><time>2020-05-21T10:01:26Z</time><name>PT1083</name></trkpt>
<trkpt lat="53.376780" lon="-1.615264"><ele>355</ele><time>2020-05-21T10:01:28Z</time><name>PT1084</name></trkpt>
<trkpt lat="53.376773" lon="-1.615245"><ele>355</ele><time>2020-05-21T10:01:29Z</time><name>PT1085</name></trkpt>
<trkpt lat="53.376765" lon="-1.615228"><ele>355</ele><time>2020-05-21T10:01:29Z</time><name>PT1086</name></trkpt>
<trkpt lat="53.376758" lon="-1.615210"><ele>355</ele><time>2020-05-21T10:01:31Z</time><name>PT1087</name></trkpt>
<trkpt lat="53.376753" lon="-1.615188"><ele>355</ele><time>2020-05-21T10:01:31Z</time><name>PT1088</name></trkpt>
<trkpt lat="53.376747" lon="-1.615169"><ele>355</ele><time>2020-05-21T10:01:33Z</time><name>PT1089</name></trkpt>
<trkpt lat="53.376740" lon="-1.615152"><ele>354</ele><time>2020-05-21T10:01:33Z</time><name>PT1090</name></trkpt>
<trkpt lat="53.376735" lon="-1.615131"><ele>354</ele><time>2020-05-21T10:01:35Z</time><name>PT1091</name></trkpt>
<trkpt lat="53.376729" lon="-1.615107"><ele>354</ele><time>2020-05-21T10:01:36Z</time><name>PT1092</name></trkpt>
<trkpt lat="53.376722" lon="-1.615091"><ele>354</ele><time>2020-05-21T10:01:37Z</time><name>PT1093</name></trkpt>
<trkpt lat="53.376715" lon="-1.615075"><ele>354</ele><time>2020-05-21T10:01:38Z</time><name>PT1094</name></trkpt>
<trkpt lat="53.376709" lon="-1.615059"><ele>353</ele><time>2020-05-21T10:01:38Z</time><name>PT1095</name></trkpt>
<trkpt lat="53.376702" lon="-1.615041"><ele>353</ele><time>2020-05-21T10:01:40Z</time><name>PT1096</name></trkpt>
<trkpt lat="53.376697" lon="-1.615026"><ele>353</ele><time>2020-05-21T10:01:41Z</time><name>PT1097</name></trkpt>
<trkpt lat="53.376692" lon="-1.615008"><ele>353</ele><time>2020-05-21T10:01:42Z</time><name>PT1098</name></trkpt>
<trkpt lat="53.376688" lon="-1.614984"><ele>353</ele><time>2020-05-21T10:01:43Z</time><name>PT1099</name></trkpt>
<trkpt lat="53.376683" lon="-1.614966"><ele>353</ele><time>2020-05-21T10:01:44Z</time><name>PT1100</name></trkpt>
<trkpt lat="53.376677" lon="-1.614948"><ele>352</ele><time>2020-05-21T10:01:45Z</time><name>PT1101</name></trkpt>
<trkpt lat="53.376671" lon="-1.614932"><ele>353</ele><time>2020-05-21T10:01:46Z</time><name>PT1102</name></trkpt>
<trkpt lat="53.376665" lon="-1.614913"><ele>353</ele><time>2020-05-21T10:01:47Z</time><name>PT1103</name></trkpt>
<trkpt lat="53.376659" lon="-1.614895"><ele>353</ele><time>2020-05-21T10:01:48Z</time><name>PT1104</name></trkpt>
<trkpt lat="53.376653" lon="-1.614873"><ele>353</ele><time>2020-05-21T10:01:48Z</time><name>PT1105</name></trkpt>
<trkpt lat="53.376645" lon="-1.614854"><ele>353</ele><time>2020-05-21T10:01:50Z</time><name>PT1106</name></trkpt>
<trkpt lat="53.376638" lon="-1.614838"><ele>352</ele><time>2020-05-21T10:01:51Z</time><name>PT1107</name></trkpt>
<trkpt lat="53.376631" lon="-1.614823"><ele>352</ele><time>2020-05-21T10:01:52Z</time><name>PT1108</name></trkpt>
<trkpt lat="53.376625" lon="-1.614803"><ele>352</ele><time>2020-05-21T10:01:53Z</time><name>PT1109</name></trkpt>
<trkpt lat="53.376620" lon="-1.614784"><ele>352</ele><time>2020-05-21T10:01:53Z</time><name>PT1110</name></trkpt>
<trkpt lat="53.376615" lon="-1.614768"><ele>352</ele><time>2020-05-21T10:01:55Z</time><name>PT1111</name></trkpt>
<trkpt lat="53.376607" lon="-1.614750"><ele>352</ele><time>2020-05-21T10:01:56Z</time><name>PT1112</name></trkpt>
<trkpt lat="53.376599" lon="-1.614729"><ele>352</ele><time>2020-05-21T10:01:57Z</time><name>PT1113</name></trkpt>
<trkpt lat="53.376592" lon="-1.614711"><ele>352</ele><time>2020-05-21T10:01:58Z</time><name>PT1114</name></trkpt>
<trkpt lat="53.376586" lon="-1.614694"><ele>352</ele><time>2020-05-21T10:01:59Z</time><name>PT1115</name></trkpt>
<trkpt lat="53.376580" lon="-1.614674"><ele>353</ele><time>2020-05-21T10:02:00Z</time><name>PT1116</name></trkpt>
<trkpt lat="53.376573" lon="-1.614654"><ele>352</ele><time>2020-05-21T10:02:01Z</time><name>PT1117</name></trkpt>
<trkpt lat="53.376566" lon="-1.614636"><ele>352</ele><time>2020-05-21T10:02:01Z</time><name>PT1118</name></trkpt>
<trkpt lat="53.376559" lon="-1.614620"><ele>352</ele><time>2020-05-21T10:02:02Z</time><name>PT1119</name></trkpt>
<trkpt lat="53.376552" lon="-1.614601"><ele>352</ele><time>2020-05-21T10:02:04Z</time><name>PT1120</name></trkpt>
<trkpt lat="53.376546" lon="-1.614581"><ele>352</ele><time>2020-05-21T10:02:04Z</time><name>PT1121</name></trkpt>
<trkpt lat="53.376540" lon="-1.614564"><ele>353</ele><time>2020-05-21T10:02:05Z</time><name>PT1122</name></trkpt>
<trkpt lat="53.376534" lon="-1.614548"><ele>352</ele><time>2020-05-21T10:02:07Z</time><name>PT1123</name></trkpt>
<trkpt lat="53.376527" lon="-1.614527"><ele>352</ele><time>2020-05-21T10:02:07Z</time><name>PT1124</name></trkpt>
<trkpt lat="53.376521" lon="-1.614507"><ele>352</ele><time>2020-05-21T10:02:09Z</time><name>PT1125</name></trkpt>
<trkpt lat="53.376515" lon="-1.614488"><ele>353</ele><time>2020-05-21T10:02:10Z</time><name>PT1126</name></trkpt>
<trkpt lat="53.376508" lon="-1.614470"><ele>353</ele><time>2020-05-21T10:02:11Z</time><name>PT1127</name></trkpt>
<trkpt lat="53.376501" lon="-1.614449"><ele>353</ele><time>2020-05-21T10:02:12Z</time><name>PT1128</name></trkpt>
<trkpt lat="53.376495" lon="-1.614431"><ele>353</ele><time>2020-05-21T10:02:13Z</time><name>PT1129</name></trkpt>
<trkpt lat="53.376489" lon="-1.614414"><ele>353</ele><time>2020-05-21T10:02:13Z</time><name>PT1130</name></trkpt>
<trkpt lat="53.376484" lon="-1.614398"><ele>353</ele><time>2020-05-21T10:02:15Z</time><name>PT1131</name></trkpt>
<trkpt lat="53.376478" lon="-1.614379"><ele>353</ele><time>2020-05-21T10:02:16Z</time><name>PT1132</name></trkpt>
<trkpt lat="53.376471" lon="-1.614362"><ele>352</ele><time>2020-05-21T10:02:17Z</time><name>PT1133</name></trkpt>
<trkpt lat="53.376463" lon="-1.614343"><ele>352</ele><time>2020-05-21T10:02:17Z</time><name>PT1134</name></trkpt>
<trkpt lat="53.376457" lon="-1.614323"><ele>352</ele><time>2020-05-21T10:02:19Z</time><name>PT1135</name></trkpt>
<trkpt lat="53.376450" lon="-1.614300"><ele>352</ele><time>2020-05-21T10:02:19Z</time><name>PT1136</name></trkpt>
<trkpt lat="53.376444" lon="-1.614280"><ele>352</ele><time>2020-05-21T10:02:21Z</time><name>PT1137</name></trkpt>
<trkpt lat="53.376438" lon="-1.614259"><ele>353</ele><time>2020-05-21T10:02:22Z</time><name>PT1138</name></trkpt>
<trkpt lat="53.376432" lon="-1.614242"><ele>353</ele><time>2020-05-21T10:02:23Z</time><name>PT1139</name></trkpt>
<trkpt lat="53.376427" lon="-1.614222"><ele>353</ele><time>2020-05-21T10:02:24Z</time><name>PT1140</name></trkpt>
<trkpt lat="53.376422" lon="-1.614205"><ele>353</ele><time>2020-05-21T10:02:25Z</time><name>PT1141</name></trkpt>
<trkpt lat="53.376417" lon="-1.614185"><ele>353</ele><time>2020-05-21T10:02:26Z</time><name>PT1142</name></trkpt>
<trkpt lat="53.376409" lon="-1.614164"><ele>353</ele><time>2020-05-21T10:02:27Z</time><name>PT1143</name></trkpt>
<trkpt lat="53.376403" lon="-1.614143"><ele>353</ele><time>2020-05-21T10:02:28Z</time><name>PT1144</name></trkpt>
<trkpt lat="53.376398" lon="-1.614124"><ele>353</ele><time>2020-05-21T10:02:29Z</time><name>PT1145</name></trkpt>
<trkpt lat="53.376392" lon="-1.614103"><ele>353</ele><time>2020-05-21T10:02:30Z</time><name>PT1146</name></trkpt>
<trkpt lat="53.376388" lon="-1.614079"><ele>353</ele><time>2020-05-21T10:02:31Z</time><name>PT1147</name></trkpt>
<trkpt lat="53.376383" lon="-1.614063"><ele>353</ele><time>2020-05-21T10:02:32Z</time><name>PT1148</name></trkpt>
<trkpt lat="53.376377" lon="-1.614048"><ele>353</ele><time>2020-05-21T10:02:33Z</time><name>PT1149</name></trkpt>
<trkpt lat="53.376372" lon="-1.614030"><ele>353</ele><time>2020-05-21T10:02:34Z</time><name>PT1150</name></trkpt>
<trkpt lat="53.376365" lon="-1.614012"><ele>353</ele><time>2020-05-21T10:02:34Z</time><name>PT1151</name></trkpt>
<trkpt lat="53.376358" lon="-1.613996"><ele>353</ele><time>2020-05-21T10:02:36Z</time><name>PT1152</name></trkpt>
<trkpt lat="53.376352" lon="-1.613978"><ele>353</ele><time>2020-05-21T10:02:37Z</time><name>PT1153</name></trkpt>
<trkpt lat="53.376347" lon="-1.613960"><ele>353</ele><time>2020-05-21T10:02:37Z</time><name>PT1154</name></trkpt>
<trkpt lat="53.376342" lon="-1.613943"><ele>353</ele><time>2020-05-21T10:02:39Z</time><name>PT1155</name></trkpt>
<trkpt lat="53.376337" lon="-1.613927"><ele>352</ele><time>2020-05-21T10:02:40Z</time><name>PT1156</name></trkpt>
<trkpt lat="53.376330" lon="-1.613905"><ele>352</ele><time>2020-05-21T10:02:40Z</time><name>PT1157</name></trkpt>
<trkpt lat="53.376323" lon="-1.613887"><ele>352</ele><time>2020-05-21T10:02:42Z</time><name>PT1158</name></trkpt>
<trkpt lat="53.376318" lon="-1.613871"><ele>352</ele><time>2020-05-21T10:02:43Z</time><name>PT1159</name></trkpt>
<trkpt lat="53.376313" lon="-1.613850"><ele>351</ele><time>2020-05-21T10:02:43Z</time><name>PT1160</name></trkpt>
<trkpt lat="53.376308" lon="-1.613833"><ele>351</ele><time>2020-05-21T10:02:45Z</time><name>PT1161</name></trkpt>
<trkpt lat="53.376303" lon="-1.613817"><ele>351</ele><time>2020-05-21T10:02:46Z</time><name>PT1162</name></trkpt>
<trkpt lat="53.376295" lon="-1.613798"><ele>351</ele><time>2020-05-21T10:02:47Z</time><name>PT1163</name></trkpt>
<trkpt lat="53.376290" lon="-1.613782"><ele>351</ele><time>2020-05-21T10:02:47Z</time><name>PT1164</name></trkpt>
<trkpt lat="53.376285" lon="-1.613765"><ele>351</ele><time>2020-05-21T10:02:49Z</time><name>PT1165</name></trkpt>
<trkpt lat="53.376280" lon="-1.613746"><ele>351</ele><time>2020-05-21T10:02:49Z</time><name>PT1166</name></trkpt>
<trkpt lat="53.376274" lon="-1.613730"><ele>350</ele><time>2020-05-21T10:02:50Z</time><name>PT1167</name></trkpt>
<trkpt lat="53.376268" lon="-1.613711"><ele>351</ele><time>2020-05-21T10:02:52Z</time><name>PT1168</name></trkpt>
<trkpt lat="53.376263" lon="-1.613693"><ele>350</ele><time>2020-05-21T10:02:52Z</time><name>PT1169</name></trkpt>
<trkpt lat="53.376256" lon="-1.613674"><ele>350</ele><time>2020-05-21T10:02:53Z</time><name>PT1170</name></trkpt>
<trkpt lat="53.376250" lon="-1.613656"><ele>350</ele><time>2020-05-21T10:02:55Z</time><name>PT1171</name></trkpt>
<trkpt lat="53.376243" lon="-1.613637"><ele>350</ele><time>2020-05-21T10:02:55Z</time><name>PT1172</name></trkpt>
<trkpt lat="53.376239" lon="-1.613618"><ele>349</ele><time>2020-05-21T10:02:56Z</time><name>PT1173</name></trkpt>
<trkpt lat="53.376234" lon="-1.613600"><ele>349</ele><time>2020-05-21T10:02:58Z</time><name>PT1174</name></trkpt>
<trkpt lat="53.376227" lon="-1.613580"><ele>350</ele><time>2020-05-21T10:02:58Z</time><name>PT1175</name></trkpt>
<trkpt lat="53.376219" lon="-1.613556"><ele>349</ele><time>2020-05-21T10:02:59Z</time><name>PT1176</name></trkpt>
<trkpt lat="53.376214" lon="-1.613533"><ele>349</ele><time>2020-05-21T10:03:01Z</time><name>PT1177</name></trkpt>
<trkpt lat="53.376209" lon="-1.613513"><ele>349</ele><time>2020-05-21T10:03:01Z</time><name>PT1178</name></trkpt>
<trkpt lat="53.376204" lon="-1.613493"><ele>349</ele><time>2020-05-21T10:03:02Z</time><name>PT1179</name></trkpt>
<trkpt lat="53.376199" lon="-1.613473"><ele>348</ele><time>2020-05-21T10:03:04Z</time><name>PT1180</name></trkpt>
<trkpt lat="53.376191" lon="-1.613453"><ele>348</ele><time>2020-05-21T10:03:04Z</time><name>PT1181</name></trkpt>
<trkpt lat="53.376185" lon="-1.613435"><ele>349</ele><time>2020-05-21T10:03:05Z</time><name>PT1182</name></trkpt>
<trkpt lat="53.376177" lon="-1.613415"><ele>349</ele><time>2020-05-21T10:03:07Z</time><name>PT1183</name></trkpt>
<trkpt lat="53.376169" lon="-1.613396"><ele>349</ele><time>2020-05-21T10:03:07Z</time><name>PT1184</name></trkpt>
<trkpt lat="53.376158" lon="-1.613374"><ele>348</ele><time>2020-05-21T10:03:09Z</time><name>PT1185</name></trkpt>
<trkpt lat="53.376151" lon="-1.613353"><ele>348</ele><time>2020-05-21T10:03:10Z</time><name>PT1186</name></trkpt>
<trkpt lat="53.376146" lon="-1.613334"><ele>348</ele><time>2020-05-21T10:03:10Z</time><name>PT1187</name></trkpt>
<trkpt lat="53.376142" lon="-1.613317"><ele>348</ele><time>2020-05-21T10:03:11Z</time><name>PT1188</name></trkpt>
<trkpt lat="53.376136" lon="-1.613300"><ele>348</ele><time>2020-05-21T10:03:13Z</time><name>PT1189</name></trkpt>
<trkpt lat="53.376129" lon="-1.613277"><ele>348</ele><time>2020-05-21T10:03:13Z</time><name>PT1190</name></trkpt>
<trkpt lat="53.376123" lon="-1.613261"><ele>348</ele><time>2020-05-21T10:03:14Z</time><name>PT1191</name></trkpt>
<trkpt lat="53.376117" lon="-1.613240"><ele>349</ele><time>2020-05-21T10:03:16Z</time><name>PT1192</name></trkpt>
<trkpt lat="53.376111" lon="-1.613218"><ele>349</ele><time>2020-05-21T10:03:16Z</time><name>PT1193</name></trkpt>
<trkpt lat="53.376105" lon="-1.613201"><ele>349</ele><time>2020-05-21T10:03:17Z</time><name>PT1194</name></trkpt>
<trkpt lat="53.376098" lon="-1.613184"><ele>349</ele><time>2020-05-21T10:03:19Z</time><name>PT1195</name></trkpt>
<trkpt lat="53.376091" lon="-1.613162"><ele>349</ele><time>2020-05-21T10:03:19Z</time><name>PT1196</name></trkpt>
<trkpt lat="53.376083" lon="-1.613142"><ele>349</ele><time>2020-05-21T10:03:20Z</time><name>PT1197</name></trkpt>
<trkpt lat="53.376078" lon="-1.613125"><ele>349</ele><time>2020-05-21T10:03:22Z</time><name>PT1198</name></trkpt>
<trkpt lat="53.376073" lon="-1.613105"><ele>348</ele><time>2020-05-21T10:03:22Z</time><name>PT1199</name></trkpt>
<trkpt lat="53.376069" lon="-1.613090"><ele>348</ele><time>2020-05-21T10:03:23Z</time><name>PT1200</name></trkpt>
<trkpt lat="53.376063" lon="-1.613072"><ele>348</ele><time>2020-05-21T10:03:25Z</time><name>PT1201</name></trkpt>
<trkpt lat="53.376057" lon="-1.613051"><ele>348</ele><time>2020-05-21T10:03:25Z</time><name>PT1202</name></trkpt>
<trkpt lat="53.376051" lon="-1.613032"><ele>348</ele><time>2020-05-21T10:03:27Z</time><name>PT1203</name></trkpt>
<trkpt lat="53.376046" lon="-1.613012"><ele>348</ele><time>2020-05-21T10:03:28Z</time><name>PT1204</name></trkpt>
<trkpt lat="53.376041" lon="-1.612993"><ele>348</ele><time>2020-05-21T10:03:28Z</time><name>PT1205</name></trkpt>
<trkpt lat="53.376037" lon="-1.612972"><ele>348</ele><time>2020-05-21T10:03:29Z</time><name>PT1206</name></trkpt>
<trkpt lat="53.376032" lon="-1.612954"><ele>348</ele><time>2020-05-21T10:03:31Z</time><name>PT1207</name></trkpt>
<trkpt lat="53.376021" lon="-1.612939"><ele>349</ele><time>2020-05-21T10:03:31Z</time><name>PT1208</name></trkpt>
<trkpt lat="53.376014" lon="-1.612924"><ele>349</ele><time>2020-05-21T10:03:32Z</time><name>PT1209</name></trkpt>
<trkpt lat="53.376011" lon="-1.612908"><ele>349</ele><time>2020-05-21T10:03:34Z</time><name>PT1210</name></trkpt>
<trkpt lat="53.376006" lon="-1.612890"><ele>349</ele><time>2020-05-21T10:03:34Z</time><name>PT1211</name></trkpt>
<trkpt lat="53.375999" lon="-1.612870"><ele>349</ele><time>2020-05-21T10:03:35Z</time><name>PT1212</name></trkpt>
<trkpt lat="53.375994" lon="-1.612850"><ele>349</ele><time>2020-05-21T10:03:37Z</time><name>PT1213</name></trkpt>
<trkpt lat="53.375988" lon="-1.612831"><ele>349</ele><time>2020-05-21T10:03:37Z</time><name>PT1214</name></trkpt>
<trkpt lat="53.375980" lon="-1.612808"><ele>349</ele><time>2020-05-21T10:03:39Z</time><name>PT1215</name></trkpt>
<trkpt lat="53.375974" lon="-1.612785"><ele>349</ele><time>2020-05-21T10:03:40Z</time><name>PT1216</name></trkpt>
<trkpt lat="53.375968" lon="-1.612764"><ele>349</ele><time>2020-05-21T10:03:40Z</time><name>PT1217</name></trkpt>
<trkpt lat="53.375963" lon="-1.612744"><ele>349</ele><time>2020-05-21T10:03:41Z</time><name>PT1218</name></trkpt>
<trkpt lat="53.375957" lon="-1.612725"><ele>349</ele><time>2020-05-21T10:03:43Z</time><name>PT1219</name></trkpt>
<trkpt lat="53.375951" lon="-1.612705"><ele>349</ele><time>2020-05-21T10:03:43Z</time><name>PT1220</name></trkpt>
<trkpt lat="53.375944" lon="-1.612687"><ele>349</ele><time>2020-05-21T10:03:44Z</time><name>PT1221</name></trkpt>
<trkpt lat="53.375937" lon="-1.612669"><ele>349</ele><time>2020-05-21T10:03:46Z</time><name>PT1222</name></trkpt>
<trkpt lat="53.375932" lon="-1.612652"><ele>349</ele><time>2020-05-21T10:03:46Z</time><name>PT1223</name></trkpt>
<trkpt lat="53.375927" lon="-1.612632"><ele>349</ele><time>2020-05-21T10:03:47Z</time><name>PT1224</name></trkpt>
<trkpt lat="53.375921" lon="-1.612615"><ele>349</ele><time>2020-05-21T10:03:49Z</time><name>PT1225</name></trkpt>
<trkpt lat="53.375915" lon="-1.612600"><ele>349</ele><time>2020-05-21T10:03:49Z</time><name>PT1226</name></trkpt>
<trkpt lat="53.375907" lon="-1.612580"><ele>349</ele><time>2020-05-21T10:03:50Z</time><name>PT1227</name></trkpt>
<trkpt lat="53.375901" lon="-1.612558"><ele>349</ele><time>2020-05-21T10:03:52Z</time><name>PT1228</name></trkpt>
<trkpt lat="53.375896" lon="-1.612541"><ele>349</ele><time>2020-05-21T10:03:52Z</time><name>PT1229</name></trkpt>
<trkpt lat="53.375891" lon="-1.612523"><ele>349</ele><time>2020-05-21T10:03:53Z</time><name>PT1230</name></trkpt>
<trkpt lat="53.375887" lon="-1.612506"><ele>349</ele><time>2020-05-21T10:03:55Z</time><name>PT1231</name></trkpt>
<trkpt lat="53.375880" lon="-1.612485"><ele>349</ele><time>2020-05-21T10:03:55Z</time><name>PT1232</name></trkpt>
<trkpt lat="53.375873" lon="-1.612466"><ele>349</ele><time>2020-05-21T10:03:56Z</time><name>PT1233</name></trkpt>
<trkpt lat="53.375868" lon="-1.612446"><ele>349</ele><time>2020-05-21T10:03:58Z</time><name>PT1234</name></trkpt>
<trkpt lat="53.375863" lon="-1.612424"><ele>349</ele><time>2020-05-21T10:03:58Z</time><name>PT1235</name></trkpt>
<trkpt lat="53.375859" lon="-1.612404"><ele>349</ele><time>2020-05-21T10:03:59Z</time><name>PT1236</name></trkpt>
<trkpt lat="53.375854" lon="-1.612390"><ele>349</ele><time>2020-05-21T10:04:01Z</time><name>PT1237</name></trkpt>
<trkpt lat="53.375847" lon="-1.612373"><ele>349</ele><time>2020-05-21T10:04:01Z</time><name>PT1238</name></trkpt>
<trkpt lat="53.375835" lon="-1.612347"><ele>349</ele><time>2020-05-21T10:04:02Z</time><name>PT1239</name></trkpt>
<trkpt lat="53.375828" lon="-1.612325"><ele>350</ele><time>2020-05-21T10:04:04Z</time><name>PT1240</name></trkpt>
<trkpt lat="53.375824" lon="-1.612305"><ele>350</ele><time>2020-05-21T10:04:04Z</time><name>PT1241</name></trkpt>
<trkpt lat="53.375819" lon="-1.612283"><ele>350</ele><time>2020-05-21T10:04:05Z</time><name>PT1242</name></trkpt>
<trkpt lat="53.375813" lon="-1.612265"><ele>350</ele><time>2020-05-21T10:04:07Z</time><name>PT1243</name></trkpt>
<trkpt lat="53.375806" lon="-1.612249"><ele>350</ele><time>2020-05-21T10:04:07Z</time><name>PT1244</name></trkpt>
<trkpt lat="53.375800" lon="-1.612229"><ele>350</ele><time>2020-05-21T10:04:08Z</time><name>PT1245</name></trkpt>
<trkpt lat="53.375794" lon="-1.612210"><ele>350</ele><time>2020-05-21T10:04:10Z</time><name>PT1246</name></trkpt>
<trkpt lat="53.375787" lon="-1.612187"><ele>350</ele><time>2020-05-21T10:04:10Z</time><name>PT1247</name></trkpt>
<trkpt lat="53.375782" lon="-1.612164"><ele>350</ele><time>2020-05-21T10:04:12Z</time><name>PT1248</name></trkpt>
<trkpt lat="53.375777" lon="-1.612146"><ele>350</ele><time>2020-05-21T10:04:13Z</time><name>PT1249</name></trkpt>
<trkpt lat="53.375772" lon="-1.612131"><ele>350</ele><time>2020-05-21T10:04:13Z</time><name>PT1250</name></trkpt>
<trkpt lat="53.375765" lon="-1.612110"><ele>350</ele><time>2020-05-21T10:04:15Z</time><name>PT1251</name></trkpt>
<trkpt lat="53.375760" lon="-1.612089"><ele>350</ele><time>2020-05-21T10:04:16Z</time><name>PT1252</name></trkpt>
<trkpt lat="53.375754" lon="-1.612067"><ele>350</ele><time>2020-05-21T10:04:16Z</time><name>PT1253</name></trkpt>
<trkpt lat="53.375748" lon="-1.612046"><ele>350</ele><time>2020-05-21T10:04:17Z</time><name>PT1254</name></trkpt>
<trkpt lat="53.375742" lon="-1.612027"><ele>350</ele><time>2020-05-21T10:04:19Z</time><name>PT1255</name></trkpt>
<trkpt lat="53.375738" lon="-1.612008"><ele>350</ele><time>2020-05-21T10:04:19Z</time><name>PT1256</name></trkpt>
<trkpt lat="53.375731" lon="-1.611987"><ele>350</ele><time>2020-05-21T10:04:20Z</time><name>PT1257</name></trkpt>
<trkpt lat="53.375725" lon="-1.611965"><ele>351</ele><time>2020-05-21T10:04:22Z</time><name>PT1258</name></trkpt>
<trkpt lat="53.375719" lon="-1.611944"><ele>351</ele><time>2020-05-21T10:04:22Z</time><name>PT1259</name></trkpt>
<trkpt lat="53.375715" lon="-1.611925"><ele>351</ele><time>2020-05-21T10:04:23Z</time><name>PT1260</name></trkpt>
<trkpt lat="53.375711" lon="-1.611905"><ele>351</ele><time>2020-05-21T10:04:25Z</time><name>PT1261</name></trkpt>
<trkpt lat="53.375707" lon="-1.611889"><ele>351</ele><time>2020-05-21T10:04:25Z</time><name>PT1262</name></trkpt>
<trkpt lat="53.375701" lon="-1.611870"><ele>351</ele><time>2020-05-21T10:04:26Z</time><name>PT1263</name></trkpt>
<trkpt lat="53.375696" lon="-1.611851"><ele>351</ele><time>2020-05-21T10:04:28Z</time><name>PT1264</name></trkpt>
<trkpt lat="53.375692" lon="-1.611832"><ele>351</ele><time>2020-05-21T10:04:28Z</time><name>PT1265</name></trkpt>
<trkpt lat="53.375689" lon="-1.611812"><ele>351</ele><time>2020-05-21T10:04:30Z</time><name>PT1266</name></trkpt>
<trkpt lat="53.375687" lon="-1.611794"><ele>350</ele><time>2020-05-21T10:04:31Z</time><name>PT1267</name></trkpt>
<trkpt lat="53.375684" lon="-1.611777"><ele>350</ele><time>2020-05-21T10:04:31Z</time><name>PT1268</name></trkpt>
<trkpt lat="53.375680" lon="-1.611754"><ele>350</ele><time>2020-05-21T10:04:32Z</time><name>PT1269</name></trkpt>
<trkpt lat="53.375677" lon="-1.611736"><ele>350</ele><time>2020-05-21T10:04:34Z</time><name>PT1270</name></trkpt>
<trkpt lat="53.375674" lon="-1.611719"><ele>350</ele><time>2020-05-21T10:04:34Z</time><name>PT1271</name></trkpt>
<trkpt lat="53.375670" lon="-1.611700"><ele>350</ele><time>2020-05-21T10:04:35Z</time><name>PT1272</name></trkpt>
<trkpt lat="53.375667" lon="-1.611686"><ele>350</ele><time>2020-05-21T10:04:37Z</time><name>PT1273</name></trkpt>
<trkpt lat="53.375664" lon="-1.611671"><ele>350</ele><time>2020-05-21T10:04:37Z</time><name>PT1274</name></trkpt>
<trkpt lat="53.375660" lon="-1.611650"><ele>349</ele><time>2020-05-21T10:04:38Z</time><name>PT1275</name></trkpt>
<trkpt lat="53.375656" lon="-1.611634"><ele>349</ele><time>2020-05-21T10:04:40Z</time><name>PT1276</name></trkpt>
<trkpt lat="53.375653" lon="-1.611614"><ele>349</ele><time>2020-05-21T10:04:40Z</time><name>PT1277</name></trkpt>
<trkpt lat="53.375650" lon="-1.611589"><ele>349</ele><time>2020-05-21T10:04:42Z</time><name>PT1278</name></trkpt>
<trkpt lat="53.375647" lon="-1.611570"><ele>349</ele><time>2020-05-21T10:04:42Z</time><name>PT1279</name></trkpt>
<trkpt lat="53.375643" lon="-1.611553"><ele>349</ele><time>2020-05-21T10:04:43Z</time><name>PT1280</name></trkpt>
<trkpt lat="53.375638" lon="-1.611532"><ele>349</ele><time>2020-05-21T10:04:45Z</time><name>PT1281</name></trkpt>
<trkpt lat="53.375633" lon="-1.611514"><ele>350</ele><time>2020-05-21T10:04:45Z</time><name>PT1282</name></trkpt>
<trkpt lat="53.375628" lon="-1.611494"><ele>349</ele><time>2020-05-21T10:04:46Z</time><name>PT1283</name></trkpt>
<trkpt lat="53.375625" lon="-1.611474"><ele>349</ele><time>2020-05-21T10:04:48Z</time><name>PT1284</name></trkpt>
<trkpt lat="53.375621" lon="-1.611455"><ele>349</ele><time>2020-05-21T10:04:48Z</time><name>PT1285</name></trkpt>
<trkpt lat="53.375617" lon="-1.611439"><ele>349</ele><time>2020-05-21T10:04:49Z</time><name>PT1286</name></trkpt>
<trkpt lat="53.375613" lon="-1.611419"><ele>349</ele><time>2020-05-21T10:04:51Z</time><name>PT1287</name></trkpt>
<trkpt lat="53.375610" lon="-1.611398"><ele>350</ele><time>2020-05-21T10:04:51Z</time><name>PT1288</name></trkpt>
<trkpt lat="53.375605" lon="-1.611379"><ele>350</ele><time>2020-05-21T10:04:53Z</time><name>PT1289</name></trkpt>
<trkpt lat="53.375603" lon="-1.611360"><ele>350</ele><time>2020-05-21T10:04:54Z</time><name>PT1290</name></trkpt>
<trkpt lat="53.375600" lon="-1.611344"><ele>350</ele><time>2020-05-21T10:04:54Z</time><name>PT1291</name></trkpt>
<trkpt lat="53.375595" lon="-1.611325"><ele>350</ele><time>2020-05-21T10:04:55Z</time><name>PT1292</name></trkpt>
<trkpt lat="53.375591" lon="-1.611305"><ele>350</ele><time>2020-05-21T10:04:57Z</time><name>PT1293</name></trkpt>
<trkpt lat="53.375590" lon="-1.611284"><ele>350</ele><time>2020-05-21T10:04:58Z</time><name>PT1294</name></trkpt>
<trkpt lat="53.375587" lon="-1.611265"><ele>350</ele><time>2020-05-21T10:04:59Z</time><name>PT1295</name></trkpt>
<trkpt lat="53.375585" lon="-1.611242"><ele>350</ele><time>2020-05-21T10:05:00Z</time><name>PT1296</name></trkpt>
<trkpt lat="53.375582" lon="-1.611224"><ele>349</ele><time>2020-05-21T10:05:00Z</time><name>PT1297</name></trkpt>
<trkpt lat="53.375577" lon="-1.611202"><ele>350</ele><time>2020-05-21T10:05:01Z</time><name>PT1298</name></trkpt>
<trkpt lat="53.375574" lon="-1.611185"><ele>350</ele><time>2020-05-21T10:05:03Z</time><name>PT1299</name></trkpt>
<trkpt lat="53.375572" lon="-1.611168"><ele>350</ele><time>2020-05-21T10:05:03Z</time><name>PT1300</name></trkpt>
<trkpt lat="53.375571" lon="-1.611151"><ele>349</ele><time>2020-05-21T10:05:04Z</time><name>PT1301</name></trkpt>
<trkpt lat="53.375568" lon="-1.611134"><ele>349</ele><time>2020-05-21T10:05:06Z</time><name>PT1302</name></trkpt>
<trkpt lat="53.375564" lon="-1.611113"><ele>349</ele><time>2020-05-21T10:05:06Z</time><name>PT1303</name></trkpt>
<trkpt lat="53.375560" lon="-1.611086"><ele>349</ele><time>2020-05-21T10:05:08Z</time><name>PT1304</name></trkpt>
<trkpt lat="53.375554" lon="-1.611063"><ele>349</ele><time>2020-05-21T10:05:09Z</time><name>PT1305</name></trkpt>
<trkpt lat="53.375550" lon="-1.611040"><ele>349</ele><time>2020-05-21T10:05:09Z</time><name>PT1306</name></trkpt>
<trkpt lat="53.375546" lon="-1.611019"><ele>349</ele><time>2020-05-21T10:05:10Z</time><name>PT1307</name></trkpt>
<trkpt lat="53.375543" lon="-1.610997"><ele>349</ele><time>2020-05-21T10:05:12Z</time><name>PT1308</name></trkpt>
<trkpt lat="53.375538" lon="-1.610977"><ele>349</ele><time>2020-05-21T10:05:12Z</time><name>PT1309</name></trkpt>
<trkpt lat="53.375534" lon="-1.610957"><ele>349</ele><time>2020-05-21T10:05:14Z</time><name>PT1310</name></trkpt>
<trkpt lat="53.375528" lon="-1.610939"><ele>349</ele><time>2020-05-21T10:05:15Z</time><name>PT1311</name></trkpt>
<trkpt lat="53.375524" lon="-1.610918"><ele>349</ele><time>2020-05-21T10:05:15Z</time><name>PT1312</name></trkpt>
<trkpt lat="53.375520" lon="-1.610896"><ele>349</ele><time>2020-05-21T10:05:16Z</time><name>PT1313</name></trkpt>
<trkpt lat="53.375517" lon="-1.610876"><ele>349</ele><time>2020-05-21T10:05:18Z</time><name>PT1314</name></trkpt>
<trkpt lat="53.375513" lon="-1.610857"><ele>349</ele><time>2020-05-21T10:05:18Z</time><name>PT1315</name></trkpt>
<trkpt lat="53.375509" lon="-1.610837"><ele>349</ele><time>2020-05-21T10:05:20Z</time><name>PT1316</name></trkpt>
<trkpt lat="53.375506" lon="-1.610819"><ele>349</ele><time>2020-05-21T10:05:20Z</time><name>PT1317</name></trkpt>
<trkpt lat="53.375500" lon="-1.610804"><ele>349</ele><time>2020-05-21T10:05:21Z</time><name>PT1318</name></trkpt>
<trkpt lat="53.375496" lon="-1.610788"><ele>349</ele><time>2020-05-21T10:05:23Z</time><name>PT1319</name></trkpt>
<trkpt lat="53.375492" lon="-1.610771"><ele>349</ele><time>2020-05-21T10:05:23Z</time><name>PT1320</name></trkpt>
<trkpt lat="53.375484" lon="-1.610751"><ele>349</ele><time>2020-05-21T10:05:24Z</time><name>PT1321</name></trkpt>
<trkpt lat="53.375475" lon="-1.610730"><ele>349</ele><time>2020-05-21T10:05:26Z</time><name>PT1322</name></trkpt>
<trkpt lat="53.375471" lon="-1.610712"><ele>349</ele><time>2020-05-21T10:05:26Z</time><name>PT1323</name></trkpt>
<trkpt lat="53.375466" lon="-1.610692"><ele>348</ele><time>2020-05-21T10:05:28Z</time><name>PT1324</name></trkpt>
<trkpt lat="53.375460" lon="-1.610674"><ele>348</ele><time>2020-05-21T10:05:29Z</time><name>PT1325</name></trkpt>
<trkpt lat="53.375455" lon="-1.610657"><ele>348</ele><time>2020-05-21T10:05:29Z</time><name>PT1326</name></trkpt>
<trkpt lat="53.375448" lon="-1.610639"><ele>349</ele><time>2020-05-21T10:05:30Z</time><name>PT1327</name></trkpt>
<trkpt lat="53.375440" lon="-1.610620"><ele>349</ele><time>2020-05-21T10:05:32Z</time><name>PT1328</name></trkpt>
<trkpt lat="53.375435" lon="-1.610605"><ele>349</ele><time>2020-05-21T10:05:32Z</time><name>PT1329</name></trkpt>
<trkpt lat="53.375429" lon="-1.610584"><ele>349</ele><time>2020-05-21T10:05:33Z</time><name>PT1330</name></trkpt>
<trkpt lat="53.375423" lon="-1.610565"><ele>349</ele><time>2020-05-21T10:05:35Z</time><name>PT1331</name></trkpt>
<trkpt lat="53.375417" lon="-1.610548"><ele>349</ele><time>2020-05-21T10:05:35Z</time><name>PT1332</name></trkpt>
<trkpt lat="53.375408" lon="-1.610527"><ele>350</ele><time>2020-05-21T10:05:36Z</time><name>PT1333</name></trkpt>
<trkpt lat="53.375402" lon="-1.610509"><ele>350</ele><time>2020-05-21T10:05:38Z</time><name>PT1334</name></trkpt>
<trkpt lat="53.375395" lon="-1.610489"><ele>350</ele><time>2020-05-21T10:05:38Z</time><name>PT1335</name></trkpt>
<trkpt lat="53.375388" lon="-1.610469"><ele>350</ele><time>2020-05-21T10:05:39Z</time><name>PT1336</name></trkpt>
<trkpt lat="53.375381" lon="-1.610448"><ele>350</ele><time>2020-05-21T10:05:41Z</time><name>PT1337</name></trkpt>
<trkpt lat="53.375375" lon="-1.610434"><ele>350</ele><time>2020-05-21T10:05:41Z</time><name>PT1338</name></trkpt>
<trkpt lat="53.375368" lon="-1.610414"><ele>350</ele><time>2020-05-21T10:05:42Z</time><name>PT1339</name></trkpt>
<trkpt lat="53.375361" lon="-1.610394"><ele>350</ele><time>2020-05-21T10:05:44Z</time><name>PT1340</name></trkpt>
<trkpt lat="53.375354" lon="-1.610378"><ele>350</ele><time>2020-05-21T10:05:44Z</time><name>PT1341</name></trkpt>
<trkpt lat="53.375347" lon="-1.610357"><ele>350</ele><time>2020-05-21T10:05:46Z</time><name>PT1342</name></trkpt>
<trkpt lat="53.375341" lon="-1.610337"><ele>350</ele><time>2020-05-21T10:05:46Z</time><name>PT1343</name></trkpt>
<trkpt lat="53.375334" lon="-1.610317"><ele>350</ele><time>2020-05-21T10:05:47Z</time><name>PT1344</name></trkpt>
<trkpt lat="53.375326" lon="-1.610297"><ele>350</ele><time>2020-05-21T10:05:49Z</time><name>PT1345</name></trkpt>
<trkpt lat="53.375319" lon="-1.610284"><ele>350</ele><time>2020-05-21T10:05:49Z</time><name>PT1346</name></trkpt>
<trkpt lat="53.375311" lon="-1.610265"><ele>350</ele><time>2020-05-21T10:05:50Z</time><name>PT1347</name></trkpt>
<trkpt lat="53.375303" lon="-1.610247"><ele>350</ele><time>2020-05-21T10:05:52Z</time><name>PT1348</name></trkpt>
<trkpt lat="53.375297" lon="-1.610231"><ele>350</ele><time>2020-05-21T10:05:52Z</time><name>PT1349</name></trkpt>
<trkpt lat="53.375289" lon="-1.610214"><ele>350</ele><time>2020-05-21T10:05:53Z</time><name>PT1350</name></trkpt>
<trkpt lat="53.375279" lon="-1.610195"><ele>350</ele><time>2020-05-21T10:05:55Z</time><name>PT1351</name></trkpt>
<trkpt lat="53.375270" lon="-1.610177"><ele>350</ele><time>2020-05-21T10:05:55Z</time><name>PT1352</name></trkpt>
<trkpt lat="53.375261" lon="-1.610162"><ele>350</ele><time>2020-05-21T10:05:56Z</time><name>PT1353</name></trkpt>
<trkpt lat="53.375251" lon="-1.610144"><ele>350</ele><time>2020-05-21T10:05:58Z</time><name>PT1354</name></trkpt>
<trkpt lat="53.375244" lon="-1.610131"><ele>350</ele><time>2020-05-21T10:05:58Z</time><name>PT1355</name></trkpt>
<trkpt lat="53.375236" lon="-1.610116"><ele>350</ele><time>2020-05-21T10:05:59Z</time><name>PT1356</name></trkpt>
<trkpt lat="53.375227" lon="-1.610097"><ele>350</ele><time>2020-05-21T10:06:01Z</time><name>PT1357</name></trkpt>
<trkpt lat="53.375218" lon="-1.610080"><ele>350</ele><time>2020-05-21T10:06:01Z</time><name>PT1358</name></trkpt>
<trkpt lat="53.375210" lon="-1.610060"><ele>351</ele><time>2020-05-21T10:06:02Z</time><name>PT1359</name></trkpt>
<trkpt lat="53.375202" lon="-1.610045"><ele>350</ele><time>2020-05-21T10:06:04Z</time><name>PT1360</name></trkpt>
<trkpt lat="53.375195" lon="-1.610032"><ele>350</ele><time>2020-05-21T10:06:04Z</time><name>PT1361</name></trkpt>
<trkpt lat="53.375187" lon="-1.610014"><ele>351</ele><time>2020-05-21T10:06:05Z</time><name>PT1362</name></trkpt>
<trkpt lat="53.375179" lon="-1.610000"><ele>350</ele><time>2020-05-21T10:06:07Z</time><name>PT1363</name></trkpt>
<trkpt lat="53.375173" lon="-1.609985"><ele>350</ele><time>2020-05-21T10:06:07Z</time><name>PT1364</name></trkpt>
<trkpt lat="53.375166" lon="-1.609969"><ele>350</ele><time>2020-05-21T10:06:08Z</time><name>PT1365</name></trkpt>
<trkpt lat="53.375158" lon="-1.609956"><ele>350</ele><time>2020-05-21T10:06:10Z</time><name>PT1366</name></trkpt>
<trkpt lat="53.375149" lon="-1.609940"><ele>350</ele><time>2020-05-21T10:06:10Z</time><name>PT1367</name></trkpt>
<trkpt lat="53.375138" lon="-1.609924"><ele>350</ele><time>2020-05-21T10:06:11Z</time><name>PT1368</name></trkpt>
<trkpt lat="53.375129" lon="-1.609910"><ele>350</ele><time>2020-05-21T10:06:13Z</time><name>PT1369</name></trkpt>
<trkpt lat="53.375124" lon="-1.609897"><ele>350</ele><time>2020-05-21T10:06:13Z</time><name>PT1370</name></trkpt>
<trkpt lat="53.375116" lon="-1.609885"><ele>350</ele><time>2020-05-21T10:06:14Z</time><name>PT1371</name></trkpt>
<trkpt lat="53.375108" lon="-1.609872"><ele>349</ele><time>2020-05-21T10:06:16Z</time><name>PT1372</name></trkpt>
<trkpt lat="53.375099" lon="-1.609858"><ele>349</ele><time>2020-05-21T10:06:16Z</time><name>PT1373</name></trkpt>
<trkpt lat="53.375088" lon="-1.609842"><ele>349</ele><time>2020-05-21T10:06:17Z</time><name>PT1374</name></trkpt>
<trkpt lat="53.375080" lon="-1.609827"><ele>349</ele><time>2020-05-21T10:06:19Z</time><name>PT1375</name></trkpt>
<trkpt lat="53.375072" lon="-1.609813"><ele>349</ele><time>2020-05-21T10:06:19Z</time><name>PT1376</name></trkpt>
<trkpt lat="53.375062" lon="-1.609793"><ele>348</ele><time>2020-05-21T10:06:20Z</time><name>PT1377</name></trkpt>
<trkpt lat="53.375053" lon="-1.609780"><ele>348</ele><time>2020-05-21T10:06:22Z</time><name>PT1378</name></trkpt>
<trkpt lat="53.375043" lon="-1.609765"><ele>348</ele><time>2020-05-21T10:06:22Z</time><name>PT1379</name></trkpt>
<trkpt lat="53.375033" lon="-1.609747"><ele>348</ele><time>2020-05-21T10:06:23Z</time><name>PT1380</name></trkpt>
<trkpt lat="53.375022" lon="-1.609729"><ele>348</ele><time>2020-05-21T10:06:25Z</time><name>PT1381</name></trkpt>
<trkpt lat="53.375014" lon="-1.609711"><ele>348</ele><time>2020-05-21T10:06:25Z</time><name>PT1382</name></trkpt>
<trkpt lat="53.375006" lon="-1.609689"><ele>349</ele><time>2020-05-21T10:06:26Z</time><name>PT1383</name></trkpt>
<trkpt lat="53.374998" lon="-1.609673"><ele>348</ele><time>2020-05-21T10:06:28Z</time><name>PT1384</name></trkpt>
<trkpt lat="53.374990" lon="-1.609657"><ele>348</ele><time>2020-05-21T10:06:28Z</time><name>PT1385</name></trkpt>
<trkpt lat="53.374980" lon="-1.609639"><ele>349</ele><time>2020-05-21T10:06:29Z</time><name>PT1386</name></trkpt>
<trkpt lat="53.374972" lon="-1.609622"><ele>348</ele><time>2020-05-21T10:06:31Z</time><name>PT1387</name></trkpt>
<trkpt lat="53.374964" lon="-1.609606"><ele>348</ele><time>2020-05-21T10:06:31Z</time><name>PT1388</name></trkpt>
<trkpt lat="53.374954" lon="-1.609582"><ele>349</ele><time>2020-05-21T10:06:33Z</time><name>PT1389</name></trkpt>
<trkpt lat="53.374947" lon="-1.609566"><ele>349</ele><time>2020-05-21T10:06:34Z</time><name>PT1390</name></trkpt>
<trkpt lat="53.374940" lon="-1.609548"><ele>349</ele><time>2020-05-21T10:06:34Z</time><name>PT1391</name></trkpt>
<trkpt lat="53.374933" lon="-1.609527"><ele>349</ele><time>2020-05-21T10:06:36Z</time><name>PT1392</name></trkpt>
<trkpt lat="53.374927" lon="-1.609508"><ele>350</ele><time>2020-05-21T10:06:36Z</time><name>PT1393</name></trkpt>
<trkpt lat="53.374921" lon="-1.609490"><ele>350</ele><time>2020-05-21T10:06:38Z</time><name>PT1394</name></trkpt>
<trkpt lat="53.374913" lon="-1.609470"><ele>350</ele><time>2020-05-21T10:06:39Z</time><name>PT1395</name></trkpt>
<trkpt lat="53.374908" lon="-1.609455"><ele>350</ele><time>2020-05-21T10:06:39Z</time><name>PT1396</name></trkpt>
<trkpt lat="53.374901" lon="-1.609438"><ele>350</ele><time>2020-05-21T10:06:41Z</time><name>PT1397</name></trkpt>
<trkpt lat="53.374894" lon="-1.609417"><ele>351</ele><time>2020-05-21T10:06:42Z</time><name>PT1398</name></trkpt>
<trkpt lat="53.374886" lon="-1.609395"><ele>351</ele><time>2020-05-21T10:06:42Z</time><name>PT1399</name></trkpt>
<trkpt lat="53.374880" lon="-1.609375"><ele>351</ele><time>2020-05-21T10:06:43Z</time><name>PT1400</name></trkpt>
<trkpt lat="53.374875" lon="-1.609356"><ele>351</ele><time>2020-05-21T10:06:45Z</time><name>PT1401</name></trkpt>
<trkpt lat="53.374869" lon="-1.609337"><ele>352</ele><time>2020-05-21T10:06:45Z</time><name>PT1402</name></trkpt>
<trkpt lat="53.374865" lon="-1.609316"><ele>351</ele><time>2020-05-21T10:06:46Z</time><name>PT1403</name></trkpt>
<trkpt lat="53.374860" lon="-1.609298"><ele>351</ele><time>2020-05-21T10:06:48Z</time><name>PT1404</name></trkpt>
<trkpt lat="53.374855" lon="-1.609280"><ele>351</ele><time>2020-05-21T10:06:48Z</time><name>PT1405</name></trkpt>
<trkpt lat="53.374851" lon="-1.609260"><ele>351</ele><time>2020-05-21T10:06:49Z</time><name>PT1406</name></trkpt>
<trkpt lat="53.374848" lon="-1.609241"><ele>351</ele><time>2020-05-21T10:06:51Z</time><name>PT1407</name></trkpt>
<trkpt lat="53.374843" lon="-1.609223"><ele>351</ele><time>2020-05-21T10:06:51Z</time><name>PT1408</name></trkpt>
<trkpt lat="53.374838" lon="-1.609201"><ele>351</ele><time>2020-05-21T10:06:52Z</time><name>PT1409</name></trkpt>
<trkpt lat="53.374832" lon="-1.609179"><ele>351</ele><time>2020-05-21T10:06:54Z</time><name>PT1410</name></trkpt>
<trkpt lat="53.374828" lon="-1.609159"><ele>351</ele><time>2020-05-21T10:06:54Z</time><name>PT1411</name></trkpt>
<trkpt lat="53.374825" lon="-1.609139"><ele>350</ele><time>2020-05-21T10:06:55Z</time><name>PT1412</name></trkpt>
<trkpt lat="53.374822" lon="-1.609119"><ele>350</ele><time>2020-05-21T10:06:57Z</time><name>PT1413</name></trkpt>
<trkpt lat="53.374818" lon="-1.609101"><ele>350</ele><time>2020-05-21T10:06:57Z</time><name>PT1414</name></trkpt>
<trkpt lat="53.374814" lon="-1.609078"><ele>351</ele><time>2020-05-21T10:06:58Z</time><name>PT1415</name></trkpt>
<trkpt lat="53.374809" lon="-1.609055"><ele>351</ele><time>2020-05-21T10:07:00Z</time><name>PT1416</name></trkpt>
<trkpt lat="53.374805" lon="-1.609034"><ele>351</ele><time>2020-05-21T10:07:00Z</time><name>PT1417</name></trkpt>
<trkpt lat="53.374801" lon="-1.609014"><ele>351</ele><time>2020-05-21T10:07:02Z</time><name>PT1418</name></trkpt>
<trkpt lat="53.374799" lon="-1.608995"><ele>351</ele><time>2020-05-21T10:07:03Z</time><name>PT1419</name></trkpt>
<trkpt lat="53.374796" lon="-1.608973"><ele>352</ele><time>2020-05-21T10:07:03Z</time><name>PT1420</name></trkpt>
<trkpt lat="53.374791" lon="-1.608955"><ele>351</ele><time>2020-05-21T10:07:04Z</time><name>PT1421</name></trkpt>
<trkpt lat="53.374786" lon="-1.608934"><ele>351</ele><time>2020-05-21T10:07:06Z</time><name>PT1422</name></trkpt>
<trkpt lat="53.374782" lon="-1.608915"><ele>351</ele><time>2020-05-21T10:07:06Z</time><name>PT1423</name></trkpt>
<trkpt lat="53.374780" lon="-1.608894"><ele>351</ele><time>2020-05-21T10:07:07Z</time><name>PT1424</name></trkpt>
<trkpt lat="53.374777" lon="-1.608872"><ele>351</ele><time>2020-05-21T10:07:09Z</time><name>PT1425</name></trkpt>
<trkpt lat="53.374774" lon="-1.608853"><ele>351</ele><time>2020-05-21T10:07:09Z</time><name>PT1426</name></trkpt>
<trkpt lat="53.374770" lon="-1.608835"><ele>351</ele><time>2020-05-21T10:07:10Z</time><name>PT1427</name></trkpt>
<trkpt lat="53.374766" lon="-1.608813"><ele>351</ele><time>2020-05-21T10:07:12Z</time><name>PT1428</name></trkpt>
<trkpt lat="53.374762" lon="-1.608793"><ele>351</ele><time>2020-05-21T10:07:12Z</time><name>PT1429</name></trkpt>
<trkpt lat="53.374760" lon="-1.608770"><ele>351</ele><time>2020-05-21T10:07:13Z</time><name>PT1430</name></trkpt>
<trkpt lat="53.374757" lon="-1.608754"><ele>351</ele><time>2020-05-21T10:07:15Z</time><name>PT1431</name></trkpt>
<trkpt lat="53.374754" lon="-1.608734"><ele>351</ele><time>2020-05-21T10:07:15Z</time><name>PT1432</name></trkpt>
<trkpt lat="53.374750" lon="-1.608713"><ele>351</ele><time>2020-05-21T10:07:16Z</time><name>PT1433</name></trkpt>
<trkpt lat="53.374745" lon="-1.608695"><ele>351</ele><time>2020-05-21T10:07:18Z</time><name>PT1434</name></trkpt>
<trkpt lat="53.374740" lon="-1.608673"><ele>352</ele><time>2020-05-21T10:07:18Z</time><name>PT1435</name></trkpt>
<trkpt lat="53.374735" lon="-1.608651"><ele>352</ele><time>2020-05-21T10:07:19Z</time><name>PT1436</name></trkpt>
<trkpt lat="53.374731" lon="-1.608634"><ele>352</ele><time>2020-05-21T10:07:21Z</time><name>PT1437</name></trkpt>
<trkpt lat="53.374726" lon="-1.608612"><ele>352</ele><time>2020-05-21T10:07:21Z</time><name>PT1438</name></trkpt>
<trkpt lat="53.374721" lon="-1.608587"><ele>352</ele><time>2020-05-21T10:07:22Z</time><name>PT1439</name></trkpt>
<trkpt lat="53.374718" lon="-1.608566"><ele>352</ele><time>2020-05-21T10:07:24Z</time><name>PT1440</name></trkpt>
<trkpt lat="53.374714" lon="-1.608547"><ele>352</ele><time>2020-05-21T10:07:24Z</time><name>PT1441</name></trkpt>
<trkpt lat="53.374710" lon="-1.608526"><ele>352</ele><time>2020-05-21T10:07:25Z</time><name>PT1442</name></trkpt>
<trkpt lat="53.374705" lon="-1.608508"><ele>352</ele><time>2020-05-21T10:07:27Z</time><name>PT1443</name></trkpt>
<trkpt lat="53.374701" lon="-1.608490"><ele>351</ele><time>2020-05-21T10:07:27Z</time><name>PT1444</name></trkpt>
<trkpt lat="53.374696" lon="-1.608470"><ele>351</ele><time>2020-05-21T10:07:29Z</time><name>PT1445</name></trkpt>
<trkpt lat="53.374690" lon="-1.608446"><ele>352</ele><time>2020-05-21T10:07:30Z</time><name>PT1446</name></trkpt>
<trkpt lat="53.374685" lon="-1.608426"><ele>351</ele><time>2020-05-21T10:07:30Z</time><name>PT1447</name></trkpt>
<trkpt lat="53.374680" lon="-1.608403"><ele>351</ele><time>2020-05-21T10:07:31Z</time><name>PT1448</name></trkpt>
<trkpt lat="53.374675" lon="-1.608386"><ele>351</ele><time>2020-05-21T10:07:33Z</time><name>PT1449</name></trkpt>
<trkpt lat="53.374669" lon="-1.608369"><ele>351</ele><time>2020-05-21T10:07:34Z</time><name>PT1450</name></trkpt>
<trkpt lat="53.374666" lon="-1.608351"><ele>351</ele><time>2020-05-21T10:07:34Z</time><name>PT1451</name></trkpt>
<trkpt lat="53.374663" lon="-1.608333"><ele>351</ele><time>2020-05-21T10:07:36Z</time><name>PT1452</name></trkpt>
<trkpt lat="53.374658" lon="-1.608312"><ele>351</ele><time>2020-05-21T10:07:36Z</time><name>PT1453</name></trkpt>
<trkpt lat="53.374653" lon="-1.608291"><ele>351</ele><time>2020-05-21T10:07:37Z</time><name>PT1454</name></trkpt>
<trkpt lat="53.374647" lon="-1.608273"><ele>351</ele><time>2020-05-21T10:07:39Z</time><name>PT1455</name></trkpt>
<trkpt lat="53.374641" lon="-1.608253"><ele>351</ele><time>2020-05-21T10:07:39Z</time><name>PT1456</name></trkpt>
<trkpt lat="53.374635" lon="-1.608233"><ele>351</ele><time>2020-05-21T10:07:41Z</time><name>PT1457</name></trkpt>
<trkpt lat="53.374629" lon="-1.608215"><ele>350</ele><time>2020-05-21T10:07:42Z</time><name>PT1458</name></trkpt>
<trkpt lat="53.374625" lon="-1.608194"><ele>350</ele><time>2020-05-21T10:07:42Z</time><name>PT1459</name></trkpt>
<trkpt lat="53.374620" lon="-1.608178"><ele>350</ele><time>2020-05-21T10:07:44Z</time><name>PT1460</name></trkpt>
<trkpt lat="53.374615" lon="-1.608164"><ele>350</ele><time>2020-05-21T10:07:45Z</time><name>PT1461</name></trkpt>
<trkpt lat="53.374611" lon="-1.608150"><ele>350</ele><time>2020-05-21T10:07:45Z</time><name>PT1462</name></trkpt>
<trkpt lat="53.374603" lon="-1.608130"><ele>350</ele><time>2020-05-21T10:07:47Z</time><name>PT1463</name></trkpt>
<trkpt lat="53.374595" lon="-1.608113"><ele>350</ele><time>2020-05-21T10:07:48Z</time><name>PT1464</name></trkpt>
<trkpt lat="53.374589" lon="-1.608094"><ele>350</ele><time>2020-05-21T10:07:48Z</time><name>PT1465</name></trkpt>
<trkpt lat="53.374583" lon="-1.608075"><ele>350</ele><time>2020-05-21T10:07:49Z</time><name>PT1466</name></trkpt>
<trkpt lat="53.374576" lon="-1.608056"><ele>350</ele><time>2020-05-21T10:07:51Z</time><name>PT1467</name></trkpt>
<trkpt lat="53.374569" lon="-1.608038"><ele>350</ele><time>2020-05-21T10:07:51Z</time><name>PT1468</name></trkpt>
<trkpt lat="53.374561" lon="-1.608016"><ele>351</ele><time>2020-05-21T10:07:52Z</time><name>PT1469</name></trkpt>
<trkpt lat="53.374551" lon="-1.607997"><ele>350</ele><time>2020-05-21T10:07:54Z</time><name>PT1470</name></trkpt>
<trkpt lat="53.374543" lon="-1.607982"><ele>350</ele><time>2020-05-21T10:07:54Z</time><name>PT1471</name></trkpt>
<trkpt lat="53.374540" lon="-1.607973"><ele>350</ele><time>2020-05-21T10:07:55Z</time><name>PT1472</name></trkpt>
<trkpt lat="53.374539" lon="-1.607971"><ele>350</ele><time>2020-05-21T10:07:57Z</time><name>PT1473</name></trkpt>
<trkpt lat="53.374538" lon="-1.607970"><ele>350</ele><time>2020-05-21T10:07:57Z</time><name>PT1474</name></trkpt>
<trkpt lat="53.374537" lon="-1.607967"><ele>350</ele><time>2020-05-21T10:07:59Z</time><name>PT1475</name></trkpt>
<trkpt lat="53.374533" lon="-1.607964"><ele>350</ele><time>2020-05-21T10:08:00Z</time><name>PT1476</name></trkpt>
<trkpt lat="53.374525" lon="-1.607947"><ele>350</ele><time>2020-05-21T10:08:02Z</time><name>PT1477</name></trkpt>
<trkpt lat="53.374516" lon="-1.607926"><ele>350</ele><time>2020-05-21T10:08:03Z</time><name>PT1478</name></trkpt>
<trkpt lat="53.374505" lon="-1.607909"><ele>350</ele><time>2020-05-21T10:08:03Z</time><name>PT1479</name></trkpt>
<trkpt lat="53.374497" lon="-1.607893"><ele>349</ele><time>2020-05-21T10:08:05Z</time><name>PT1480</name></trkpt>
<trkpt lat="53.374488" lon="-1.607875"><ele>349</ele><time>2020-05-21T10:08:06Z</time><name>PT1481</name></trkpt>
<trkpt lat="53.374481" lon="-1.607855"><ele>349</ele><time>2020-05-21T10:08:06Z</time><name>PT1482</name></trkpt>
<trkpt lat="53.374475" lon="-1.607844"><ele>349</ele><time>2020-05-21T10:08:07Z</time><name>PT1483</name></trkpt>
<trkpt lat="53.374468" lon="-1.607823"><ele>349</ele><time>2020-05-21T10:08:09Z</time><name>PT1484</name></trkpt>
<trkpt lat="53.374453" lon="-1.607797"><ele>351</ele><time>2020-05-21T10:08:09Z</time><name>PT1485</name></trkpt>
<trkpt lat="53.374445" lon="-1.607779"><ele>351</ele><time>2020-05-21T10:08:10Z</time><name>PT1486</name></trkpt>
<trkpt lat="53.374434" lon="-1.607760"><ele>352</ele><time>2020-05-21T10:08:12Z</time><name>PT1487</name></trkpt>
<trkpt lat="53.374424" lon="-1.607744"><ele>352</ele><time>2020-05-21T10:08:12Z</time><name>PT1488</name></trkpt>
<trkpt lat="53.374414" lon="-1.607730"><ele>352</ele><time>2020-05-21T10:08:13Z</time><name>PT1489</name></trkpt>
<trkpt lat="53.374404" lon="-1.607716"><ele>353</ele><time>2020-05-21T10:08:15Z</time><name>PT1490</name></trkpt>
<trkpt lat="53.374396" lon="-1.607705"><ele>353</ele><time>2020-05-21T10:08:15Z</time><name>PT1491</name></trkpt>
<trkpt lat="53.374388" lon="-1.607693"><ele>353</ele><time>2020-05-21T10:08:17Z</time><name>PT1492</name></trkpt>
<trkpt lat="53.374380" lon="-1.607682"><ele>353</ele><time>2020-05-21T10:08:18Z</time><name>PT1493</name></trkpt>
<trkpt lat="53.374372" lon="-1.607668"><ele>352</ele><time>2020-05-21T10:08:18Z</time><name>PT1494</name></trkpt>
<trkpt lat="53.374365" lon="-1.607662"><ele>352</ele><time>2020-05-21T10:08:19Z</time><name>PT1495</name></trkpt>
<trkpt lat="53.374357" lon="-1.607659"><ele>352</ele><time>2020-05-21T10:08:21Z</time><name>PT1496</name></trkpt>
<trkpt lat="53.374353" lon="-1.607651"><ele>352</ele><time>2020-05-21T10:08:21Z</time><name>PT1497</name></trkpt>
<trkpt lat="53.374351" lon="-1.607648"><ele>352</ele><time>2020-05-21T10:08:22Z</time><name>PT1498</name></trkpt>
<trkpt lat="53.374351" lon="-1.607646"><ele>352</ele><time>2020-05-21T10:08:24Z</time><name>PT1499</name></trkpt>
<trkpt lat="53.374349" lon="-1.607637"><ele>352</ele><time>2020-05-21T10:08:24Z</time><name>PT1500</name></trkpt>
<trkpt lat="53.374348" lon="-1.607635"><ele>352</ele><time>2020-05-21T10:08:25Z</time><name>PT1501</name></trkpt>
<trkpt lat="53.374345" lon="-1.607626"><ele>352</ele><time>2020-05-21T10:08:27Z</time><name>PT1502</name></trkpt>
<trkpt lat="53.374336" lon="-1.607615"><ele>352</ele><time>2020-05-21T10:08:28Z</time><name>PT1503</name></trkpt>
<trkpt lat="53.374326" lon="-1.607607"><ele>351</ele><time>2020-05-21T10:08:30Z</time><name>PT1504</name></trkpt>
<trkpt lat="53.374317" lon="-1.607595"><ele>351</ele><time>2020-05-21T10:08:30Z</time><name>PT1505</name></trkpt>
<trkpt lat="53.374314" lon="-1.607585"><ele>351</ele><time>2020-05-21T10:08:31Z</time><name>PT1506</name></trkpt>
<trkpt lat="53.374311" lon="-1.607578"><ele>351</ele><time>2020-05-21T10:08:33Z</time><name>PT1507</name></trkpt>
<trkpt lat="53.374308" lon="-1.607574"><ele>351</ele><time>2020-05-21T10:08:33Z</time><name>PT1508</name></trkpt>
<trkpt lat="53.374307" lon="-1.607568"><ele>351</ele><time>2020-05-21T10:08:34Z</time><name>PT1509</name></trkpt>
<trkpt lat="53.374307" lon="-1.607560"><ele>351</ele><time>2020-05-21T10:08:36Z</time><name>PT1510</name></trkpt>
<trkpt lat="53.374304" lon="-1.607549"><ele>351</ele><time>2020-05-21T10:08:36Z</time><name>PT1511</name></trkpt>
<trkpt lat="53.374301" lon="-1.607541"><ele>350</ele><time>2020-05-21T10:08:37Z</time><name>PT1512</name></trkpt>
<trkpt lat="53.374294" lon="-1.607537"><ele>351</ele><time>2020-05-21T10:08:39Z</time><name>PT1513</name></trkpt>
<trkpt lat="53.374292" lon="-1.607531"><ele>351</ele><time>2020-05-21T10:08:39Z</time><name>PT1514</name></trkpt>
<trkpt lat="53.374291" lon="-1.607530"><ele>351</ele><time>2020-05-21T10:08:40Z</time><name>PT1515</name></trkpt>
<trkpt lat="53.374292" lon="-1.607523"><ele>351</ele><time>2020-05-21T10:08:42Z</time><name>PT1516</name></trkpt>
<trkpt lat="53.374293" lon="-1.607515"><ele>351</ele><time>2020-05-21T10:08:42Z</time><name>PT1517</name></trkpt>
<trkpt lat="53.374294" lon="-1.607512"><ele>350</ele><time>2020-05-21T10:08:43Z</time><name>PT1518</name></trkpt>
<trkpt lat="53.374292" lon="-1.607506"><ele>350</ele><time>2020-05-21T10:08:45Z</time><name>PT1519</name></trkpt>
<trkpt lat="53.374290" lon="-1.607498"><ele>350</ele><time>2020-05-21T10:08:45Z</time><name>PT1520</name></trkpt>
<trkpt lat="53.374289" lon="-1.607492"><ele>351</ele><time>2020-05-21T10:08:46Z</time><name>PT1521</name></trkpt>
<trkpt lat="53.374290" lon="-1.607481"><ele>350</ele><time>2020-05-21T10:08:48Z</time><name>PT1522</name></trkpt>
<trkpt lat="53.374290" lon="-1.607467"><ele>350</ele><time>2020-05-21T10:08:48Z</time><name>PT1523</name></trkpt>
<trkpt lat="53.374296" lon="-1.607448"><ele>349</ele><time>2020-05-21T10:08:49Z</time><name>PT1524</name></trkpt>
<trkpt lat="53.374299" lon="-1.607433"><ele>349</ele><time>2020-05-21T10:08:51Z</time><name>PT1525</name></trkpt>
<trkpt lat="53.374301" lon="-1.607414"><ele>349</ele><time>2020-05-21T10:08:51Z</time><name>PT1526</name></trkpt>
<trkpt lat="53.374303" lon="-1.607394"><ele>349</ele><time>2020-05-21T10:08:52Z</time><name>PT1527</name></trkpt>
<trkpt lat="53.374304" lon="-1.607375"><ele>348</ele><time>2020-05-21T10:08:54Z</time><name>PT1528</name></trkpt>
<trkpt lat="53.374305" lon="-1.607355"><ele>348</ele><time>2020-05-21T10:08:54Z</time><name>PT1529</name></trkpt>
<trkpt lat="53.374306" lon="-1.607335"><ele>348</ele><time>2020-05-21T10:08:55Z</time><name>PT1530</name></trkpt>
<trkpt lat="53.374309" lon="-1.607314"><ele>349</ele><time>2020-05-21T10:08:57Z</time><name>PT1531</name></trkpt>
<trkpt lat="53.374308" lon="-1.607293"><ele>349</ele><time>2020-05-21T10:08:57Z</time><name>PT1532</name></trkpt>
<trkpt lat="53.374309" lon="-1.607272"><ele>349</ele><time>2020-05-21T10:08:58Z</time><name>PT1533</name></trkpt>
<trkpt lat="53.374310" lon="-1.607250"><ele>349</ele><time>2020-05-21T10:09:00Z</time><name>PT1534</name></trkpt>
<trkpt lat="53.374313" lon="-1.607233"><ele>349</ele><time>2020-05-21T10:09:00Z</time><name>PT1535</name></trkpt>
<trkpt lat="53.374317" lon="-1.607214"><ele>349</ele><time>2020-05-21T10:09:01Z</time><name>PT1536</name></trkpt>
<trkpt lat="53.374320" lon="-1.607194"><ele>349</ele><time>2020-05-21T10:09:03Z</time><name>PT1537</name></trkpt>
<trkpt lat="53.374319" lon="-1.607174"><ele>349</ele><time>2020-05-21T10:09:03Z</time><name>PT1538</name></trkpt>
<trkpt lat="53.374317" lon="-1.607152"><ele>350</ele><time>2020-05-21T10:09:04Z</time><name>PT1539</name></trkpt>
<trkpt lat="53.374319" lon="-1.607134"><ele>350</ele><time>2020-05-21T10:09:06Z</time><name>PT1540</name></trkpt>
<trkpt lat="53.374321" lon="-1.607119"><ele>350</ele><time>2020-05-21T10:09:06Z</time><name>PT1541</name></trkpt>
<trkpt lat="53.374321" lon="-1.607101"><ele>350</ele><time>2020-05-21T10:09:08Z</time><name>PT1542</name></trkpt>
<trkpt lat="53.374323" lon="-1.607086"><ele>349</ele><time>2020-05-21T10:09:09Z</time><name>PT1543</name></trkpt>
<trkpt lat="53.374323" lon="-1.607078"><ele>350</ele><time>2020-05-21T10:09:09Z</time><name>PT1544</name></trkpt>
<trkpt lat="53.374322" lon="-1.607076"><ele>350</ele><time>2020-05-21T10:09:10Z</time><name>PT1545</name></trkpt>
<trkpt lat="53.374321" lon="-1.607075"><ele>350</ele><time>2020-05-21T10:09:12Z</time><name>PT1546</name></trkpt>
<trkpt lat="53.374322" lon="-1.607063"><ele>350</ele><time>2020-05-21T10:09:21Z</time><name>PT1547</name></trkpt>
<trkpt lat="53.374319" lon="-1.607039"><ele>350</ele><time>2020-05-21T10:09:21Z</time><name>PT1548</name></trkpt>
<trkpt lat="53.374319" lon="-1.607016"><ele>350</ele><time>2020-05-21T10:09:22Z</time><name>PT1549</name></trkpt>
<trkpt lat="53.374320" lon="-1.606992"><ele>350</ele><time>2020-05-21T10:09:24Z</time><name>PT1550</name></trkpt>
<trkpt lat="53.374321" lon="-1.606967"><ele>350</ele><time>2020-05-21T10:09:24Z</time><name>PT1551</name></trkpt>
<trkpt lat="53.374325" lon="-1.606948"><ele>349</ele><time>2020-05-21T10:09:25Z</time><name>PT1552</name></trkpt>
<trkpt lat="53.374328" lon="-1.606931"><ele>349</ele><time>2020-05-21T10:09:27Z</time><name>PT1553</name></trkpt>
<trkpt lat="53.374328" lon="-1.606915"><ele>349</ele><time>2020-05-21T10:09:27Z</time><name>PT1554</name></trkpt>
<trkpt lat="53.374329" lon="-1.606906"><ele>349</ele><time>2020-05-21T10:09:28Z</time><name>PT1555</name></trkpt>
<trkpt lat="53.374324" lon="-1.606907"><ele>349</ele><time>2020-05-21T10:09:30Z</time><name>PT1556</name></trkpt>
<trkpt lat="53.374322" lon="-1.606901"><ele>349</ele><time>2020-05-21T10:09:30Z</time><name>PT1557</name></trkpt>
<trkpt lat="53.374325" lon="-1.606893"><ele>349</ele><time>2020-05-21T10:09:31Z</time><name>PT1558</name></trkpt>
<trkpt lat="53.374325" lon="-1.606882"><ele>349</ele><time>2020-05-21T10:09:33Z</time><name>PT1559</name></trkpt>
<trkpt lat="53.374328" lon="-1.606865"><ele>349</ele><time>2020-05-21T10:09:33Z</time><name>PT1560</name></trkpt>
<trkpt lat="53.374329" lon="-1.606845"><ele>348</ele><time>2020-05-21T10:09:34Z</time><name>PT1561</name></trkpt>
<trkpt lat="53.374330" lon="-1.606826"><ele>348</ele><time>2020-05-21T10:09:36Z</time><name>PT1562</name></trkpt>
<trkpt lat="53.374330" lon="-1.606808"><ele>348</ele><time>2020-05-21T10:09:36Z</time><name>PT1563</name></trkpt>
<trkpt lat="53.374329" lon="-1.606789"><ele>348</ele><time>2020-05-21T10:09:37Z</time><name>PT1564</name></trkpt>
<trkpt lat="53.374331" lon="-1.606768"><ele>348</ele><time>2020-05-21T10:09:39Z</time><name>PT1565</name></trkpt>
<trkpt lat="53.374329" lon="-1.606749"><ele>348</ele><time>2020-05-21T10:09:39Z</time><name>PT1566</name></trkpt>
<trkpt lat="53.374329" lon="-1.606733"><ele>348</ele><time>2020-05-21T10:09:40Z</time><name>PT1567</name></trkpt>
<trkpt lat="53.374331" lon="-1.606718"><ele>348</ele><time>2020-05-21T10:09:42Z</time><name>PT1568</name></trkpt>
<trkpt lat="53.374332" lon="-1.606701"><ele>348</ele><time>2020-05-21T10:09:42Z</time><name>PT1569</name></trkpt>
<trkpt lat="53.374333" lon="-1.606687"><ele>347</ele><time>2020-05-21T10:09:43Z</time><name>PT1570</name></trkpt>
<trkpt lat="53.374337" lon="-1.606669"><ele>347</ele><time>2020-05-21T10:09:45Z</time><name>PT1571</name></trkpt>
<trkpt lat="53.374339" lon="-1.606653"><ele>347</ele><time>2020-05-21T10:09:45Z</time><name>PT1572</name></trkpt>
<trkpt lat="53.374339" lon="-1.606642"><ele>346</ele><time>2020-05-21T10:09:46Z</time><name>PT1573</name></trkpt>
<trkpt lat="53.374340" lon="-1.606631"><ele>346</ele><time>2020-05-21T10:09:48Z</time><name>PT1574</name></trkpt>
<trkpt lat="53.374339" lon="-1.606615"><ele>346</ele><time>2020-05-21T10:09:48Z</time><name>PT1575</name></trkpt>
<trkpt lat="53.374340" lon="-1.606593"><ele>346</ele><time>2020-05-21T10:09:49Z</time><name>PT1576</name></trkpt>
<trkpt lat="53.374339" lon="-1.606578"><ele>346</ele><time>2020-05-21T10:09:51Z</time><name>PT1577</name></trkpt>
<trkpt lat="53.374340" lon="-1.606562"><ele>347</ele><time>2020-05-21T10:09:51Z</time><name>PT1578</name></trkpt>
<trkpt lat="53.374338" lon="-1.606546"><ele>347</ele><time>2020-05-21T10:09:52Z</time><name>PT1579</name></trkpt>
<trkpt lat="53.374333" lon="-1.606533"><ele>346</ele><time>2020-05-21T10:09:54Z</time><name>PT1580</name></trkpt>
<trkpt lat="53.374334" lon="-1.606517"><ele>346</ele><time>2020-05-21T10:09:54Z</time><name>PT1581</name></trkpt>
<trkpt lat="53.374336" lon="-1.606500"><ele>346</ele><time>2020-05-21T10:09:56Z</time><name>PT1582</name></trkpt>
<trkpt lat="53.374339" lon="-1.606487"><ele>346</ele><time>2020-05-21T10:09:57Z</time><name>PT1583</name></trkpt>
<trkpt lat="53.374341" lon="-1.606472"><ele>346</ele><time>2020-05-21T10:09:57Z</time><name>PT1584</name></trkpt>
<trkpt lat="53.374342" lon="-1.606459"><ele>346</ele><time>2020-05-21T10:09:58Z</time><name>PT1585</name></trkpt>
<trkpt lat="53.374344" lon="-1.606445"><ele>345</ele><time>2020-05-21T10:10:00Z</time><name>PT1586</name></trkpt>
<trkpt lat="53.374346" lon="-1.606429"><ele>345</ele><time>2020-05-21T10:10:00Z</time><name>PT1587</name></trkpt>
<trkpt lat="53.374349" lon="-1.606415"><ele>345</ele><time>2020-05-21T10:10:01Z</time><name>PT1588</name></trkpt>
<trkpt lat="53.374352" lon="-1.606403"><ele>345</ele><time>2020-05-21T10:10:03Z</time><name>PT1589</name></trkpt>
<trkpt lat="53.374355" lon="-1.606387"><ele>345</ele><time>2020-05-21T10:10:03Z</time><name>PT1590</name></trkpt>
<trkpt lat="53.374357" lon="-1.606371"><ele>345</ele><time>2020-05-21T10:10:04Z</time><name>PT1591</name></trkpt>
<trkpt lat="53.374359" lon="-1.606355"><ele>344</ele><time>2020-05-21T10:10:06Z</time><name>PT1592</name></trkpt>
<trkpt lat="53.374361" lon="-1.606334"><ele>344</ele><time>2020-05-21T10:10:06Z</time><name>PT1593</name></trkpt>
<trkpt lat="53.374364" lon="-1.606317"><ele>343</ele><time>2020-05-21T10:10:07Z</time><name>PT1594</name></trkpt>
<trkpt lat="53.374366" lon="-1.606304"><ele>344</ele><time>2020-05-21T10:10:09Z</time><name>PT1595</name></trkpt>
<trkpt lat="53.374366" lon="-1.606284"><ele>343</ele><time>2020-05-21T10:10:09Z</time><name>PT1596</name></trkpt>
<trkpt lat="53.374366" lon="-1.606267"><ele>343</ele><time>2020-05-21T10:10:11Z</time><name>PT1597</name></trkpt>
<trkpt lat="53.374363" lon="-1.606248"><ele>343</ele><time>2020-05-21T10:10:11Z</time><name>PT1598</name></trkpt>
<trkpt lat="53.374360" lon="-1.606231"><ele>343</ele><time>2020-05-21T10:10:12Z</time><name>PT1599</name></trkpt>
<trkpt lat="53.374361" lon="-1.606214"><ele>343</ele><time>2020-05-21T10:10:14Z</time><name>PT1600</name></trkpt>
<trkpt lat="53.374362" lon="-1.606196"><ele>343</ele><time>2020-05-21T10:10:14Z</time><name>PT1601</name></trkpt>
<trkpt lat="53.374365" lon="-1.606180"><ele>343</ele><time>2020-05-21T10:10:15Z</time><name>PT1602</name></trkpt>
<trkpt lat="53.374367" lon="-1.606157"><ele>343</ele><time>2020-05-21T10:10:17Z</time><name>PT1603</name></trkpt>
<trkpt lat="53.374370" lon="-1.606140"><ele>343</ele><time>2020-05-21T10:10:17Z</time><name>PT1604</name></trkpt>
<trkpt lat="53.374371" lon="-1.606123"><ele>342</ele><time>2020-05-21T10:10:18Z</time><name>PT1605</name></trkpt>
<trkpt lat="53.374372" lon="-1.606099"><ele>342</ele><time>2020-05-21T10:10:20Z</time><name>PT1606</name></trkpt>
<trkpt lat="53.374373" lon="-1.606077"><ele>342</ele><time>2020-05-21T10:10:20Z</time><name>PT1607</name></trkpt>
<trkpt lat="53.374375" lon="-1.606058"><ele>342</ele><time>2020-05-21T10:10:21Z</time><name>PT1608</name></trkpt>
<trkpt lat="53.374377" lon="-1.606038"><ele>342</ele><time>2020-05-21T10:10:23Z</time><name>PT1609</name></trkpt>
<trkpt lat="53.374381" lon="-1.606020"><ele>342</ele><time>2020-05-21T10:10:23Z</time><name>PT1610</name></trkpt>
<trkpt lat="53.374383" lon="-1.606006"><ele>341</ele><time>2020-05-21T10:10:24Z</time><name>PT1611</name></trkpt>
<trkpt lat="53.374384" lon="-1.605990"><ele>341</ele><time>2020-05-21T10:10:26Z</time><name>PT1612</name></trkpt>
<trkpt lat="53.374384" lon="-1.605970"><ele>341</ele><time>2020-05-21T10:10:26Z</time><name>PT1613</name></trkpt>
<trkpt lat="53.374389" lon="-1.605950"><ele>341</ele><time>2020-05-21T10:10:27Z</time><name>PT1614</name></trkpt>
<trkpt lat="53.374390" lon="-1.605925"><ele>342</ele><time>2020-05-21T10:10:29Z</time><name>PT1615</name></trkpt>
<trkpt lat="53.374391" lon="-1.605903"><ele>343</ele><time>2020-05-21T10:10:29Z</time><name>PT1616</name></trkpt>
<trkpt lat="53.374390" lon="-1.605880"><ele>344</ele><time>2020-05-21T10:10:30Z</time><name>PT1617</name></trkpt>
<trkpt lat="53.374392" lon="-1.605858"><ele>344</ele><time>2020-05-21T10:10:32Z</time><name>PT1618</name></trkpt>
<trkpt lat="53.374394" lon="-1.605837"><ele>344</ele><time>2020-05-21T10:10:32Z</time><name>PT1619</name></trkpt>
<trkpt lat="53.374395" lon="-1.605822"><ele>344</ele><time>2020-05-21T10:10:33Z</time><name>PT1620</name></trkpt>
<trkpt lat="53.374396" lon="-1.605807"><ele>344</ele><time>2020-05-21T10:10:35Z</time><name>PT1621</name></trkpt>
<trkpt lat="53.374395" lon="-1.605795"><ele>344</ele><time>2020-05-21T10:10:35Z</time><name>PT1622</name></trkpt>
<trkpt lat="53.374394" lon="-1.605789"><ele>344</ele><time>2020-05-21T10:10:36Z</time><name>PT1623</name></trkpt>
<trkpt lat="53.374392" lon="-1.605784"><ele>344</ele><time>2020-05-21T10:10:38Z</time><name>PT1624</name></trkpt>
<trkpt lat="53.374390" lon="-1.605790"><ele>343</ele><time>2020-05-21T10:10:39Z</time><name>PT1625</name></trkpt>
<trkpt lat="53.374392" lon="-1.605792"><ele>343</ele><time>2020-05-21T10:10:41Z</time><name>PT1626</name></trkpt>
<trkpt lat="53.374393" lon="-1.605778"><ele>344</ele><time>2020-05-21T10:10:47Z</time><name>PT1627</name></trkpt>
<trkpt lat="53.374397" lon="-1.605779"><ele>344</ele><time>2020-05-21T10:10:49Z</time><name>PT1628</name></trkpt>
<trkpt lat="53.374394" lon="-1.605781"><ele>344</ele><time>2020-05-21T10:10:49Z</time><name>PT1629</name></trkpt>
<trkpt lat="53.374393" lon="-1.605781"><ele>344</ele><time>2020-05-21T10:10:51Z</time><name>PT1630</name></trkpt>
<trkpt lat="53.374393" lon="-1.605779"><ele>344</ele><time>2020-05-21T10:10:52Z</time><name>PT1631</name></trkpt>
<trkpt lat="53.374393" lon="-1.605776"><ele>344</ele><time>2020-05-21T10:10:52Z</time><name>PT1632</name></trkpt>
<trkpt lat="53.374392" lon="-1.605771"><ele>344</ele><time>2020-05-21T10:11:02Z</time><name>PT1633</name></trkpt>
<trkpt lat="53.374395" lon="-1.605754"><ele>344</ele><time>2020-05-21T10:11:04Z</time><name>PT1634</name></trkpt>
<trkpt lat="53.374394" lon="-1.605738"><ele>343</ele><time>2020-05-21T10:11:04Z</time><name>PT1635</name></trkpt>
<trkpt lat="53.374395" lon="-1.605721"><ele>343</ele><time>2020-05-21T10:11:05Z</time><name>PT1636</name></trkpt>
<trkpt lat="53.374398" lon="-1.605706"><ele>343</ele><time>2020-05-21T10:11:07Z</time><name>PT1637</name></trkpt>
<trkpt lat="53.374402" lon="-1.605688"><ele>342</ele><time>2020-05-21T10:11:07Z</time><name>PT1638</name></trkpt>
<trkpt lat="53.374403" lon="-1.605670"><ele>341</ele><time>2020-05-21T10:11:08Z</time><name>PT1639</name></trkpt>
<trkpt lat="53.374401" lon="-1.605653"><ele>341</ele><time>2020-05-21T10:11:10Z</time><name>PT1640</name></trkpt>
<trkpt lat="53.374403" lon="-1.605631"><ele>342</ele><time>2020-05-21T10:11:10Z</time><name>PT1641</name></trkpt>
<trkpt lat="53.374404" lon="-1.605612"><ele>341</ele><time>2020-05-21T10:11:11Z</time><name>PT1642</name></trkpt>
<trkpt lat="53.374407" lon="-1.605595"><ele>341</ele><time>2020-05-21T10:11:13Z</time><name>PT1643</name></trkpt>
<trkpt lat="53.374411" lon="-1.605576"><ele>341</ele><time>2020-05-21T10:11:13Z</time><name>PT1644</name></trkpt>
<trkpt lat="53.374415" lon="-1.605557"><ele>341</ele><time>2020-05-21T10:11:14Z</time><name>PT1645</name></trkpt>
<trkpt lat="53.374417" lon="-1.605541"><ele>341</ele><time>2020-05-21T10:11:16Z</time><name>PT1646</name></trkpt>
<trkpt lat="53.374418" lon="-1.605525"><ele>341</ele><time>2020-05-21T10:11:16Z</time><name>PT1647</name></trkpt>
<trkpt lat="53.374420" lon="-1.605504"><ele>340</ele><time>2020-05-21T10:11:17Z</time><name>PT1648</name></trkpt>
<trkpt lat="53.374422" lon="-1.605486"><ele>340</ele><time>2020-05-21T10:11:19Z</time><name>PT1649</name></trkpt>
<trkpt lat="53.374425" lon="-1.605467"><ele>340</ele><time>2020-05-21T10:11:19Z</time><name>PT1650</name></trkpt>
<trkpt lat="53.374428" lon="-1.605446"><ele>339</ele><time>2020-05-21T10:11:20Z</time><name>PT1651</name></trkpt>
<trkpt lat="53.374430" lon="-1.605430"><ele>339</ele><time>2020-05-21T10:11:22Z</time><name>PT1652</name></trkpt>
<trkpt lat="53.374431" lon="-1.605406"><ele>339</ele><time>2020-05-21T10:11:22Z</time><name>PT1653</name></trkpt>
<trkpt lat="53.374433" lon="-1.605385"><ele>339</ele><time>2020-05-21T10:11:23Z</time><name>PT1654</name></trkpt>
<trkpt lat="53.374436" lon="-1.605368"><ele>338</ele><time>2020-05-21T10:11:25Z</time><name>PT1655</name></trkpt>
<trkpt lat="53.374439" lon="-1.605347"><ele>339</ele><time>2020-05-21T10:11:25Z</time><name>PT1656</name></trkpt>
<trkpt lat="53.374442" lon="-1.605324"><ele>339</ele><time>2020-05-21T10:11:27Z</time><name>PT1657</name></trkpt>
<trkpt lat="53.374442" lon="-1.605305"><ele>339</ele><time>2020-05-21T10:11:27Z</time><name>PT1658</name></trkpt>
<trkpt lat="53.374441" lon="-1.605286"><ele>338</ele><time>2020-05-21T10:11:28Z</time><name>PT1659</name></trkpt>
<trkpt lat="53.374443" lon="-1.605263"><ele>338</ele><time>2020-05-21T10:11:30Z</time><name>PT1660</name></trkpt>
<trkpt lat="53.374445" lon="-1.605243"><ele>338</ele><time>2020-05-21T10:11:30Z</time><name>PT1661</name></trkpt>
<trkpt lat="53.374446" lon="-1.605223"><ele>338</ele><time>2020-05-21T10:11:31Z</time><name>PT1662</name></trkpt>
<trkpt lat="53.374446" lon="-1.605207"><ele>338</ele><time>2020-05-21T10:11:33Z</time><name>PT1663</name></trkpt>
<trkpt lat="53.374446" lon="-1.605190"><ele>338</ele><time>2020-05-21T10:11:33Z</time><name>PT1664</name></trkpt>
<trkpt lat="53.374446" lon="-1.605172"><ele>338</ele><time>2020-05-21T10:11:34Z</time><name>PT1665</name></trkpt>
<trkpt lat="53.374446" lon="-1.605155"><ele>338</ele><time>2020-05-21T10:11:36Z</time><name>PT1666</name></trkpt>
<trkpt lat="53.374446" lon="-1.605142"><ele>337</ele><time>2020-05-21T10:11:36Z</time><name>PT1667</name></trkpt>
<trkpt lat="53.374449" lon="-1.605120"><ele>337</ele><time>2020-05-21T10:11:37Z</time><name>PT1668</name></trkpt>
<trkpt lat="53.374448" lon="-1.605101"><ele>337</ele><time>2020-05-21T10:11:39Z</time><name>PT1669</name></trkpt>
<trkpt lat="53.374445" lon="-1.605079"><ele>337</ele><time>2020-05-21T10:11:40Z</time><name>PT1670</name></trkpt>
<trkpt lat="53.374441" lon="-1.605052"><ele>337</ele><time>2020-05-21T10:11:40Z</time><name>PT1671</name></trkpt>
<trkpt lat="53.374440" lon="-1.605030"><ele>337</ele><time>2020-05-21T10:11:42Z</time><name>PT1672</name></trkpt>
<trkpt lat="53.374442" lon="-1.605010"><ele>337</ele><time>2020-05-21T10:11:42Z</time><name>PT1673</name></trkpt>
<trkpt lat="53.374445" lon="-1.604988"><ele>337</ele><time>2020-05-21T10:11:43Z</time><name>PT1674</name></trkpt>
<trkpt lat="53.374447" lon="-1.604970"><ele>337</ele><time>2020-05-21T10:11:45Z</time><name>PT1675</name></trkpt>
<trkpt lat="53.374448" lon="-1.604951"><ele>337</ele><time>2020-05-21T10:11:45Z</time><name>PT1676</name></trkpt>
<trkpt lat="53.374447" lon="-1.604927"><ele>337</ele><time>2020-05-21T10:11:46Z</time><name>PT1677</name></trkpt>
<trkpt lat="53.374445" lon="-1.604906"><ele>336</ele><time>2020-05-21T10:11:48Z</time><name>PT1678</name></trkpt>
<trkpt lat="53.374447" lon="-1.604886"><ele>336</ele><time>2020-05-21T10:11:48Z</time><name>PT1679</name></trkpt>
<trkpt lat="53.374447" lon="-1.604867"><ele>337</ele><time>2020-05-21T10:11:49Z</time><name>PT1680</name></trkpt>
<trkpt lat="53.374448" lon="-1.604847"><ele>336</ele><time>2020-05-21T10:11:51Z</time><name>PT1681</name></trkpt>
<trkpt lat="53.374449" lon="-1.604826"><ele>336</ele><time>2020-05-21T10:11:51Z</time><name>PT1682</name></trkpt>
<trkpt lat="53.374451" lon="-1.604806"><ele>336</ele><time>2020-05-21T10:11:52Z</time><name>PT1683</name></trkpt>
<trkpt lat="53.374451" lon="-1.604784"><ele>336</ele><time>2020-05-21T10:11:54Z</time><name>PT1684</name></trkpt>
<trkpt lat="53.374454" lon="-1.604766"><ele>336</ele><time>2020-05-21T10:11:54Z</time><name>PT1685</name></trkpt>
<trkpt lat="53.374458" lon="-1.604747"><ele>335</ele><time>2020-05-21T10:11:55Z</time><name>PT1686</name></trkpt>
<trkpt lat="53.374458" lon="-1.604726"><ele>335</ele><time>2020-05-21T10:11:57Z</time><name>PT1687</name></trkpt>
<trkpt lat="53.374458" lon="-1.604707"><ele>335</ele><time>2020-05-21T10:11:57Z</time><name>PT1688</name></trkpt>
<trkpt lat="53.374458" lon="-1.604686"><ele>334</ele><time>2020-05-21T10:11:58Z</time><name>PT1689</name></trkpt>
<trkpt lat="53.374458" lon="-1.604669"><ele>334</ele><time>2020-05-21T10:12:00Z</time><name>PT1690</name></trkpt>
<trkpt lat="53.374457" lon="-1.604647"><ele>334</ele><time>2020-05-21T10:12:00Z</time><name>PT1691</name></trkpt>
<trkpt lat="53.374459" lon="-1.604624"><ele>334</ele><time>2020-05-21T10:12:01Z</time><name>PT1692</name></trkpt>
<trkpt lat="53.374460" lon="-1.604602"><ele>334</ele><time>2020-05-21T10:12:03Z</time><name>PT1693</name></trkpt>
<trkpt lat="53.374462" lon="-1.604582"><ele>334</ele><time>2020-05-21T10:12:03Z</time><name>PT1694</name></trkpt>
<trkpt lat="53.374463" lon="-1.604559"><ele>334</ele><time>2020-05-21T10:12:05Z</time><name>PT1695</name></trkpt>
<trkpt lat="53.374465" lon="-1.604544"><ele>334</ele><time>2020-05-21T10:12:06Z</time><name>PT1696</name></trkpt>
<trkpt lat="53.374469" lon="-1.604524"><ele>334</ele><time>2020-05-21T10:12:06Z</time><name>PT1697</name></trkpt>
<trkpt lat="53.374472" lon="-1.604503"><ele>334</ele><time>2020-05-21T10:12:07Z</time><name>PT1698</name></trkpt>
<trkpt lat="53.374471" lon="-1.604487"><ele>334</ele><time>2020-05-21T10:12:09Z</time><name>PT1699</name></trkpt>
<trkpt lat="53.374469" lon="-1.604467"><ele>334</ele><time>2020-05-21T10:12:09Z</time><name>PT1700</name></trkpt>
<trkpt lat="53.374470" lon="-1.604448"><ele>333</ele><time>2020-05-21T10:12:10Z</time><name>PT1701</name></trkpt>
<trkpt lat="53.374473" lon="-1.604427"><ele>334</ele><time>2020-05-21T10:12:12Z</time><name>PT1702</name></trkpt>
<trkpt lat="53.374477" lon="-1.604402"><ele>334</ele><time>2020-05-21T10:12:12Z</time><name>PT1703</name></trkpt>
<trkpt lat="53.374481" lon="-1.604377"><ele>334</ele><time>2020-05-21T10:12:13Z</time><name>PT1704</name></trkpt>
<trkpt lat="53.374482" lon="-1.604357"><ele>334</ele><time>2020-05-21T10:12:15Z</time><name>PT1705</name></trkpt>
<trkpt lat="53.374485" lon="-1.604335"><ele>334</ele><time>2020-05-21T10:12:15Z</time><name>PT1706</name></trkpt>
<trkpt lat="53.374486" lon="-1.604315"><ele>334</ele><time>2020-05-21T10:12:17Z</time><name>PT1707</name></trkpt>
<trkpt lat="53.374489" lon="-1.604296"><ele>334</ele><time>2020-05-21T10:12:17Z</time><name>PT1708</name></trkpt>
<trkpt lat="53.374494" lon="-1.604273"><ele>334</ele><time>2020-05-21T10:12:18Z</time><name>PT1709</name></trkpt>
<trkpt lat="53.374498" lon="-1.604251"><ele>333</ele><time>2020-05-21T10:12:20Z</time><name>PT1710</name></trkpt>
<trkpt lat="53.374500" lon="-1.604236"><ele>333</ele><time>2020-05-21T10:12:20Z</time><name>PT1711</name></trkpt>
<trkpt lat="53.374499" lon="-1.604215"><ele>334</ele><time>2020-05-21T10:12:21Z</time><name>PT1712</name></trkpt>
<trkpt lat="53.374500" lon="-1.604190"><ele>333</ele><time>2020-05-21T10:12:23Z</time><name>PT1713</name></trkpt>
<trkpt lat="53.374502" lon="-1.604172"><ele>333</ele><time>2020-05-21T10:12:23Z</time><name>PT1714</name></trkpt>
<trkpt lat="53.374502" lon="-1.604150"><ele>334</ele><time>2020-05-21T10:12:25Z</time><name>PT1715</name></trkpt>
<trkpt lat="53.374501" lon="-1.604128"><ele>334</ele><time>2020-05-21T10:12:26Z</time><name>PT1716</name></trkpt>
<trkpt lat="53.374500" lon="-1.604107"><ele>334</ele><time>2020-05-21T10:12:26Z</time><name>PT1717</name></trkpt>
<trkpt lat="53.374501" lon="-1.604081"><ele>333</ele><time>2020-05-21T10:12:27Z</time><name>PT1718</name></trkpt>
<trkpt lat="53.374503" lon="-1.604061"><ele>333</ele><time>2020-05-21T10:12:29Z</time><name>PT1719</name></trkpt>
<trkpt lat="53.374505" lon="-1.604040"><ele>333</ele><time>2020-05-21T10:12:29Z</time><name>PT1720</name></trkpt>
<trkpt lat="53.374507" lon="-1.604017"><ele>333</ele><time>2020-05-21T10:12:30Z</time><name>PT1721</name></trkpt>
<trkpt lat="53.374507" lon="-1.603995"><ele>333</ele><time>2020-05-21T10:12:32Z</time><name>PT1722</name></trkpt>
<trkpt lat="53.374507" lon="-1.603973"><ele>333</ele><time>2020-05-21T10:12:32Z</time><name>PT1723</name></trkpt>
<trkpt lat="53.374508" lon="-1.603950"><ele>333</ele><time>2020-05-21T10:12:33Z</time><name>PT1724</name></trkpt>
<trkpt lat="53.374510" lon="-1.603930"><ele>333</ele><time>2020-05-21T10:12:35Z</time><name>PT1725</name></trkpt>
<trkpt lat="53.374512" lon="-1.603908"><ele>333</ele><time>2020-05-21T10:12:35Z</time><name>PT1726</name></trkpt>
<trkpt lat="53.374516" lon="-1.603883"><ele>333</ele><time>2020-05-21T10:12:36Z</time><name>PT1727</name></trkpt>
<trkpt lat="53.374516" lon="-1.603860"><ele>333</ele><time>2020-05-21T10:12:38Z</time><name>PT1728</name></trkpt>
<trkpt lat="53.374517" lon="-1.603836"><ele>333</ele><time>2020-05-21T10:12:38Z</time><name>PT1729</name></trkpt>
<trkpt lat="53.374517" lon="-1.603815"><ele>333</ele><time>2020-05-21T10:12:40Z</time><name>PT1730</name></trkpt>
<trkpt lat="53.374517" lon="-1.603795"><ele>332</ele><time>2020-05-21T10:12:41Z</time><name>PT1731</name></trkpt>
<trkpt lat="53.374518" lon="-1.603775"><ele>333</ele><time>2020-05-21T10:12:41Z</time><name>PT1732</name></trkpt>
<trkpt lat="53.374521" lon="-1.603753"><ele>333</ele><time>2020-05-21T10:12:43Z</time><name>PT1733</name></trkpt>
<trkpt lat="53.374522" lon="-1.603732"><ele>333</ele><time>2020-05-21T10:12:44Z</time><name>PT1734</name></trkpt>
<trkpt lat="53.374525" lon="-1.603711"><ele>333</ele><time>2020-05-21T10:12:44Z</time><name>PT1735</name></trkpt>
<trkpt lat="53.374529" lon="-1.603690"><ele>333</ele><time>2020-05-21T10:12:45Z</time><name>PT1736</name></trkpt>
<trkpt lat="53.374532" lon="-1.603672"><ele>333</ele><time>2020-05-21T10:12:47Z</time><name>PT1737</name></trkpt>
<trkpt lat="53.374537" lon="-1.603657"><ele>333</ele><time>2020-05-21T10:12:47Z</time><name>PT1738</name></trkpt>
<trkpt lat="53.374540" lon="-1.603635"><ele>333</ele><time>2020-05-21T10:12:48Z</time><name>PT1739</name></trkpt>
<trkpt lat="53.374542" lon="-1.603612"><ele>333</ele><time>2020-05-21T10:12:50Z</time><name>PT1740</name></trkpt>
<trkpt lat="53.374542" lon="-1.603591"><ele>333</ele><time>2020-05-21T10:12:50Z</time><name>PT1741</name></trkpt>
<trkpt lat="53.374542" lon="-1.603571"><ele>333</ele><time>2020-05-21T10:12:51Z</time><name>PT1742</name></trkpt>
<trkpt lat="53.374543" lon="-1.603556"><ele>333</ele><time>2020-05-21T10:12:53Z</time><name>PT1743</name></trkpt>
<trkpt lat="53.374547" lon="-1.603536"><ele>333</ele><time>2020-05-21T10:12:53Z</time><name>PT1744</name></trkpt>
<trkpt lat="53.374550" lon="-1.603514"><ele>333</ele><time>2020-05-21T10:12:55Z</time><name>PT1745</name></trkpt>
<trkpt lat="53.374553" lon="-1.603500"><ele>333</ele><time>2020-05-21T10:12:56Z</time><name>PT1746</name></trkpt>
<trkpt lat="53.374555" lon="-1.603484"><ele>333</ele><time>2020-05-21T10:12:56Z</time><name>PT1747</name></trkpt>
<trkpt lat="53.374555" lon="-1.603463"><ele>333</ele><time>2020-05-21T10:12:57Z</time><name>PT1748</name></trkpt>
<trkpt lat="53.374555" lon="-1.603444"><ele>333</ele><time>2020-05-21T10:12:59Z</time><name>PT1749</name></trkpt>
<trkpt lat="53.374556" lon="-1.603423"><ele>333</ele><time>2020-05-21T10:12:59Z</time><name>PT1750</name></trkpt>
<trkpt lat="53.374559" lon="-1.603401"><ele>332</ele><time>2020-05-21T10:13:00Z</time><name>PT1751</name></trkpt>
<trkpt lat="53.374560" lon="-1.603383"><ele>332</ele><time>2020-05-21T10:13:02Z</time><name>PT1752</name></trkpt>
<trkpt lat="53.374560" lon="-1.603364"><ele>332</ele><time>2020-05-21T10:13:02Z</time><name>PT1753</name></trkpt>
<trkpt lat="53.374560" lon="-1.603343"><ele>332</ele><time>2020-05-21T10:13:03Z</time><name>PT1754</name></trkpt>
<trkpt lat="53.374560" lon="-1.603324"><ele>332</ele><time>2020-05-21T10:13:05Z</time><name>PT1755</name></trkpt>
<trkpt lat="53.374561" lon="-1.603306"><ele>332</ele><time>2020-05-21T10:13:05Z</time><name>PT1756</name></trkpt>
<trkpt lat="53.374561" lon="-1.603286"><ele>331</ele><time>2020-05-21T10:13:06Z</time><name>PT1757</name></trkpt>
<trkpt lat="53.374563" lon="-1.603267"><ele>331</ele><time>2020-05-21T10:13:08Z</time><name>PT1758</name></trkpt>
<trkpt lat="53.374564" lon="-1.603248"><ele>331</ele><time>2020-05-21T10:13:08Z</time><name>PT1759</name></trkpt>
<trkpt lat="53.374566" lon="-1.603228"><ele>331</ele><time>2020-05-21T10:13:10Z</time><name>PT1760</name></trkpt>
<trkpt lat="53.374565" lon="-1.603214"><ele>331</ele><time>2020-05-21T10:13:11Z</time><name>PT1761</name></trkpt>
<trkpt lat="53.374565" lon="-1.603195"><ele>331</ele><time>2020-05-21T10:13:11Z</time><name>PT1762</name></trkpt>
<trkpt lat="53.374565" lon="-1.603176"><ele>331</ele><time>2020-05-21T10:13:13Z</time><name>PT1763</name></trkpt>
<trkpt lat="53.374565" lon="-1.603158"><ele>331</ele><time>2020-05-21T10:13:14Z</time><name>PT1764</name></trkpt>
<trkpt lat="53.374565" lon="-1.603135"><ele>332</ele><time>2020-05-21T10:13:14Z</time><name>PT1765</name></trkpt>
<trkpt lat="53.374565" lon="-1.603112"><ele>332</ele><time>2020-05-21T10:13:16Z</time><name>PT1766</name></trkpt>
<trkpt lat="53.374567" lon="-1.603092"><ele>332</ele><time>2020-05-21T10:13:17Z</time><name>PT1767</name></trkpt>
<trkpt lat="53.374567" lon="-1.603071"><ele>332</ele><time>2020-05-21T10:13:17Z</time><name>PT1768</name></trkpt>
<trkpt lat="53.374567" lon="-1.603049"><ele>332</ele><time>2020-05-21T10:13:19Z</time><name>PT1769</name></trkpt>
<trkpt lat="53.374567" lon="-1.603027"><ele>332</ele><time>2020-05-21T10:13:20Z</time><name>PT1770</name></trkpt>
<trkpt lat="53.374565" lon="-1.603011"><ele>332</ele><time>2020-05-21T10:13:20Z</time><name>PT1771</name></trkpt>
<trkpt lat="53.374562" lon="-1.602989"><ele>332</ele><time>2020-05-21T10:13:21Z</time><name>PT1772</name></trkpt>
<trkpt lat="53.374561" lon="-1.602965"><ele>332</ele><time>2020-05-21T10:13:23Z</time><name>PT1773</name></trkpt>
<trkpt lat="53.374560" lon="-1.602945"><ele>332</ele><time>2020-05-21T10:13:23Z</time><name>PT1774</name></trkpt>
<trkpt lat="53.374560" lon="-1.602924"><ele>331</ele><time>2020-05-21T10:13:24Z</time><name>PT1775</name></trkpt>
<trkpt lat="53.374560" lon="-1.602899"><ele>332</ele><time>2020-05-21T10:13:26Z</time><name>PT1776</name></trkpt>
<trkpt lat="53.374562" lon="-1.602878"><ele>331</ele><time>2020-05-21T10:13:26Z</time><name>PT1777</name></trkpt>
<trkpt lat="53.374562" lon="-1.602861"><ele>331</ele><time>2020-05-21T10:13:28Z</time><name>PT1778</name></trkpt>
<trkpt lat="53.374561" lon="-1.602842"><ele>331</ele><time>2020-05-21T10:13:29Z</time><name>PT1779</name></trkpt>
<trkpt lat="53.374560" lon="-1.602816"><ele>331</ele><time>2020-05-21T10:13:29Z</time><name>PT1780</name></trkpt>
<trkpt lat="53.374562" lon="-1.602796"><ele>330</ele><time>2020-05-21T10:13:31Z</time><name>PT1781</name></trkpt>
<trkpt lat="53.374567" lon="-1.602775"><ele>330</ele><time>2020-05-21T10:13:32Z</time><name>PT1782</name></trkpt>
<trkpt lat="53.374572" lon="-1.602753"><ele>330</ele><time>2020-05-21T10:13:32Z</time><name>PT1783</name></trkpt>
<trkpt lat="53.374574" lon="-1.602738"><ele>330</ele><time>2020-05-21T10:13:33Z</time><name>PT1784</name></trkpt>
<trkpt lat="53.374575" lon="-1.602722"><ele>330</ele><time>2020-05-21T10:13:35Z</time><name>PT1785</name></trkpt>
<trkpt lat="53.374576" lon="-1.602694"><ele>330</ele><time>2020-05-21T10:13:35Z</time><name>PT1786</name></trkpt>
<trkpt lat="53.374579" lon="-1.602667"><ele>330</ele><time>2020-05-21T10:13:36Z</time><name>PT1787</name></trkpt>
<trkpt lat="53.374583" lon="-1.602647"><ele>330</ele><time>2020-05-21T10:13:38Z</time><name>PT1788</name></trkpt>
<trkpt lat="53.374584" lon="-1.602629"><ele>330</ele><time>2020-05-21T10:13:38Z</time><name>PT1789</name></trkpt>
<trkpt lat="53.374585" lon="-1.602607"><ele>330</ele><time>2020-05-21T10:13:39Z</time><name>PT1790</name></trkpt>
<trkpt lat="53.374586" lon="-1.602590"><ele>330</ele><time>2020-05-21T10:13:41Z</time><name>PT1791</name></trkpt>
<trkpt lat="53.374589" lon="-1.602573"><ele>330</ele><time>2020-05-21T10:13:41Z</time><name>PT1792</name></trkpt>
<trkpt lat="53.374595" lon="-1.602551"><ele>330</ele><time>2020-05-21T10:13:42Z</time><name>PT1793</name></trkpt>
<trkpt lat="53.374597" lon="-1.602534"><ele>330</ele><time>2020-05-21T10:13:44Z</time><name>PT1794</name></trkpt>
<trkpt lat="53.374597" lon="-1.602518"><ele>331</ele><time>2020-05-21T10:13:44Z</time><name>PT1795</name></trkpt>
<trkpt lat="53.374598" lon="-1.602501"><ele>330</ele><time>2020-05-21T10:13:46Z</time><name>PT1796</name></trkpt>
<trkpt lat="53.374598" lon="-1.602484"><ele>330</ele><time>2020-05-21T10:13:47Z</time><name>PT1797</name></trkpt>
<trkpt lat="53.374598" lon="-1.602472"><ele>330</ele><time>2020-05-21T10:13:47Z</time><name>PT1798</name></trkpt>
<trkpt lat="53.374598" lon="-1.602453"><ele>330</ele><time>2020-05-21T10:13:48Z</time><name>PT1799</name></trkpt>
<trkpt lat="53.374600" lon="-1.602434"><ele>330</ele><time>2020-05-21T10:13:50Z</time><name>PT1800</name></trkpt>
<trkpt lat="53.374604" lon="-1.602418"><ele>329</ele><time>2020-05-21T10:13:50Z</time><name>PT1801</name></trkpt>
<trkpt lat="53.374607" lon="-1.602400"><ele>329</ele><time>2020-05-21T10:13:51Z</time><name>PT1802</name></trkpt>
<trkpt lat="53.374609" lon="-1.602382"><ele>329</ele><time>2020-05-21T10:13:53Z</time><name>PT1803</name></trkpt>
<trkpt lat="53.374612" lon="-1.602357"><ele>329</ele><time>2020-05-21T10:13:53Z</time><name>PT1804</name></trkpt>
<trkpt lat="53.374612" lon="-1.602339"><ele>329</ele><time>2020-05-21T10:13:54Z</time><name>PT1805</name></trkpt>
<trkpt lat="53.374612" lon="-1.602324"><ele>329</ele><time>2020-05-21T10:13:56Z</time><name>PT1806</name></trkpt>
<trkpt lat="53.374612" lon="-1.602307"><ele>329</ele><time>2020-05-21T10:13:56Z</time><name>PT1807</name></trkpt>
<trkpt lat="53.374612" lon="-1.602288"><ele>329</ele><time>2020-05-21T10:13:58Z</time><name>PT1808</name></trkpt>
<trkpt lat="53.374612" lon="-1.602270"><ele>329</ele><time>2020-05-21T10:13:58Z</time><name>PT1809</name></trkpt>
<trkpt lat="53.374614" lon="-1.602251"><ele>328</ele><time>2020-05-21T10:13:59Z</time><name>PT1810</name></trkpt>
<trkpt lat="53.374615" lon="-1.602235"><ele>329</ele><time>2020-05-21T10:14:01Z</time><name>PT1811</name></trkpt>
<trkpt lat="53.374612" lon="-1.602214"><ele>328</ele><time>2020-05-21T10:14:01Z</time><name>PT1812</name></trkpt>
<trkpt lat="53.374611" lon="-1.602196"><ele>328</ele><time>2020-05-21T10:14:02Z</time><name>PT1813</name></trkpt>
<trkpt lat="53.374610" lon="-1.602175"><ele>328</ele><time>2020-05-21T10:14:04Z</time><name>PT1814</name></trkpt>
<trkpt lat="53.374608" lon="-1.602154"><ele>328</ele><time>2020-05-21T10:14:04Z</time><name>PT1815</name></trkpt>
<trkpt lat="53.374606" lon="-1.602139"><ele>327</ele><time>2020-05-21T10:14:05Z</time><name>PT1816</name></trkpt>
<trkpt lat="53.374606" lon="-1.602124"><ele>327</ele><time>2020-05-21T10:14:07Z</time><name>PT1817</name></trkpt>
<trkpt lat="53.374611" lon="-1.602108"><ele>327</ele><time>2020-05-21T10:14:07Z</time><name>PT1818</name></trkpt>
<trkpt lat="53.374619" lon="-1.602094"><ele>327</ele><time>2020-05-21T10:14:08Z</time><name>PT1819</name></trkpt>
<trkpt lat="53.374625" lon="-1.602078"><ele>328</ele><time>2020-05-21T10:14:10Z</time><name>PT1820</name></trkpt>
<trkpt lat="53.374631" lon="-1.602065"><ele>328</ele><time>2020-05-21T10:14:10Z</time><name>PT1821</name></trkpt>
<trkpt lat="53.374643" lon="-1.602042"><ele>328</ele><time>2020-05-21T10:14:11Z</time><name>PT1822</name></trkpt>
<trkpt lat="53.374651" lon="-1.602012"><ele>328</ele><time>2020-05-21T10:14:13Z</time><name>PT1823</name></trkpt>
<trkpt lat="53.374658" lon="-1.601992"><ele>328</ele><time>2020-05-21T10:14:13Z</time><name>PT1824</name></trkpt>
<trkpt lat="53.374664" lon="-1.601970"><ele>328</ele><time>2020-05-21T10:14:14Z</time><name>PT1825</name></trkpt>
<trkpt lat="53.374668" lon="-1.601949"><ele>328</ele><time>2020-05-21T10:14:16Z</time><name>PT1826</name></trkpt>
<trkpt lat="53.374670" lon="-1.601928"><ele>328</ele><time>2020-05-21T10:14:16Z</time><name>PT1827</name></trkpt>
<trkpt lat="53.374673" lon="-1.601906"><ele>328</ele><time>2020-05-21T10:14:17Z</time><name>PT1828</name></trkpt>
<trkpt lat="53.374672" lon="-1.601887"><ele>329</ele><time>2020-05-21T10:14:19Z</time><name>PT1829</name></trkpt>
<trkpt lat="53.374671" lon="-1.601868"><ele>329</ele><time>2020-05-21T10:14:19Z</time><name>PT1830</name></trkpt>
<trkpt lat="53.374670" lon="-1.601850"><ele>328</ele><time>2020-05-21T10:14:20Z</time><name>PT1831</name></trkpt>
<trkpt lat="53.374671" lon="-1.601832"><ele>329</ele><time>2020-05-21T10:14:22Z</time><name>PT1832</name></trkpt>
<trkpt lat="53.374670" lon="-1.601818"><ele>329</ele><time>2020-05-21T10:14:22Z</time><name>PT1833</name></trkpt>
<trkpt lat="53.374666" lon="-1.601803"><ele>329</ele><time>2020-05-21T10:14:23Z</time><name>PT1834</name></trkpt>
<trkpt lat="53.374659" lon="-1.601786"><ele>328</ele><time>2020-05-21T10:14:24Z</time><name>PT1835</name></trkpt>
<trkpt lat="53.374657" lon="-1.601771"><ele>328</ele><time>2020-05-21T10:14:25Z</time><name>PT1836</name></trkpt>
<trkpt lat="53.374657" lon="-1.601755"><ele>327</ele><time>2020-05-21T10:14:27Z</time><name>PT1837</name></trkpt>
<trkpt lat="53.374656" lon="-1.601736"><ele>328</ele><time>2020-05-21T10:14:27Z</time><name>PT1838</name></trkpt>
<trkpt lat="53.374653" lon="-1.601719"><ele>327</ele><time>2020-05-21T10:14:28Z</time><name>PT1839</name></trkpt>
<trkpt lat="53.374649" lon="-1.601705"><ele>327</ele><time>2020-05-21T10:14:30Z</time><name>PT1840</name></trkpt>
<trkpt lat="53.374646" lon="-1.601697"><ele>326</ele><time>2020-05-21T10:14:30Z</time><name>PT1841</name></trkpt>
<trkpt lat="53.374645" lon="-1.601680"><ele>325</ele><time>2020-05-21T10:14:31Z</time><name>PT1842</name></trkpt>
<trkpt lat="53.374645" lon="-1.601663"><ele>325</ele><time>2020-05-21T10:14:33Z</time><name>PT1843</name></trkpt>
<trkpt lat="53.374646" lon="-1.601641"><ele>325</ele><time>2020-05-21T10:14:33Z</time><name>PT1844</name></trkpt>
<trkpt lat="53.374648" lon="-1.601625"><ele>325</ele><time>2020-05-21T10:14:34Z</time><name>PT1845</name></trkpt>
<trkpt lat="53.374651" lon="-1.601602"><ele>324</ele><time>2020-05-21T10:14:36Z</time><name>PT1846</name></trkpt>
<trkpt lat="53.374651" lon="-1.601580"><ele>324</ele><time>2020-05-21T10:14:36Z</time><name>PT1847</name></trkpt>
<trkpt lat="53.374648" lon="-1.601563"><ele>323</ele><time>2020-05-21T10:14:37Z</time><name>PT1848</name></trkpt>
<trkpt lat="53.374643" lon="-1.601544"><ele>324</ele><time>2020-05-21T10:14:39Z</time><name>PT1849</name></trkpt>
<trkpt lat="53.374642" lon="-1.601527"><ele>323</ele><time>2020-05-21T10:14:39Z</time><name>PT1850</name></trkpt>
<trkpt lat="53.374641" lon="-1.601509"><ele>323</ele><time>2020-05-21T10:14:41Z</time><name>PT1851</name></trkpt>
<trkpt lat="53.374643" lon="-1.601489"><ele>322</ele><time>2020-05-21T10:14:42Z</time><name>PT1852</name></trkpt>
<trkpt lat="53.374646" lon="-1.601469"><ele>322</ele><time>2020-05-21T10:14:42Z</time><name>PT1853</name></trkpt>
<trkpt lat="53.374647" lon="-1.601443"><ele>322</ele><time>2020-05-21T10:14:43Z</time><name>PT1854</name></trkpt>
<trkpt lat="53.374649" lon="-1.601423"><ele>322</ele><time>2020-05-21T10:14:45Z</time><name>PT1855</name></trkpt>
<trkpt lat="53.374652" lon="-1.601405"><ele>322</ele><time>2020-05-21T10:14:45Z</time><name>PT1856</name></trkpt>
<trkpt lat="53.374656" lon="-1.601388"><ele>322</ele><time>2020-05-21T10:14:46Z</time><name>PT1857</name></trkpt>
<trkpt lat="53.374659" lon="-1.601371"><ele>322</ele><time>2020-05-21T10:14:48Z</time><name>PT1858</name></trkpt>
<trkpt lat="53.374662" lon="-1.601358"><ele>322</ele><time>2020-05-21T10:14:48Z</time><name>PT1859</name></trkpt>
<trkpt lat="53.374664" lon="-1.601339"><ele>322</ele><time>2020-05-21T10:14:49Z</time><name>PT1860</name></trkpt>
<trkpt lat="53.374667" lon="-1.601324"><ele>322</ele><time>2020-05-21T10:14:51Z</time><name>PT1861</name></trkpt>
<trkpt lat="53.374672" lon="-1.601304"><ele>322</ele><time>2020-05-21T10:14:51Z</time><name>PT1862</name></trkpt>
<trkpt lat="53.374678" lon="-1.601282"><ele>321</ele><time>2020-05-21T10:14:52Z</time><name>PT1863</name></trkpt>
<trkpt lat="53.374680" lon="-1.601263"><ele>321</ele><time>2020-05-21T10:14:54Z</time><name>PT1864</name></trkpt>
<trkpt lat="53.374681" lon="-1.601243"><ele>321</ele><time>2020-05-21T10:14:54Z</time><name>PT1865</name></trkpt>
<trkpt lat="53.374680" lon="-1.601218"><ele>320</ele><time>2020-05-21T10:14:55Z</time><name>PT1866</name></trkpt>
<trkpt lat="53.374680" lon="-1.601202"><ele>320</ele><time>2020-05-21T10:14:57Z</time><name>PT1867</name></trkpt>
<trkpt lat="53.374682" lon="-1.601183"><ele>321</ele><time>2020-05-21T10:14:57Z</time><name>PT1868</name></trkpt>
<trkpt lat="53.374686" lon="-1.601165"><ele>320</ele><time>2020-05-21T10:14:58Z</time><name>PT1869</name></trkpt>
<trkpt lat="53.374686" lon="-1.601147"><ele>320</ele><time>2020-05-21T10:15:00Z</time><name>PT1870</name></trkpt>
<trkpt lat="53.374687" lon="-1.601127"><ele>320</ele><time>2020-05-21T10:15:00Z</time><name>PT1871</name></trkpt>
<trkpt lat="53.374687" lon="-1.601109"><ele>320</ele><time>2020-05-21T10:15:02Z</time><name>PT1872</name></trkpt>
<trkpt lat="53.374688" lon="-1.601088"><ele>320</ele><time>2020-05-21T10:15:02Z</time><name>PT1873</name></trkpt>
<trkpt lat="53.374688" lon="-1.601066"><ele>320</ele><time>2020-05-21T10:15:03Z</time><name>PT1874</name></trkpt>
<trkpt lat="53.374689" lon="-1.601047"><ele>320</ele><time>2020-05-21T10:15:05Z</time><name>PT1875</name></trkpt>
<trkpt lat="53.374689" lon="-1.601022"><ele>320</ele><time>2020-05-21T10:15:05Z</time><name>PT1876</name></trkpt>
<trkpt lat="53.374690" lon="-1.600996"><ele>320</ele><time>2020-05-21T10:15:06Z</time><name>PT1877</name></trkpt>
<trkpt lat="53.374690" lon="-1.600977"><ele>319</ele><time>2020-05-21T10:15:08Z</time><name>PT1878</name></trkpt>
<trkpt lat="53.374690" lon="-1.600954"><ele>319</ele><time>2020-05-21T10:15:08Z</time><name>PT1879</name></trkpt>
<trkpt lat="53.374691" lon="-1.600934"><ele>319</ele><time>2020-05-21T10:15:09Z</time><name>PT1880</name></trkpt>
<trkpt lat="53.374690" lon="-1.600917"><ele>319</ele><time>2020-05-21T10:15:11Z</time><name>PT1881</name></trkpt>
<trkpt lat="53.374688" lon="-1.600896"><ele>319</ele><time>2020-05-21T10:15:11Z</time><name>PT1882</name></trkpt>
<trkpt lat="53.374687" lon="-1.600877"><ele>318</ele><time>2020-05-21T10:15:12Z</time><name>PT1883</name></trkpt>
<trkpt lat="53.374687" lon="-1.600860"><ele>318</ele><time>2020-05-21T10:15:14Z</time><name>PT1884</name></trkpt>
<trkpt lat="53.374687" lon="-1.600840"><ele>318</ele><time>2020-05-21T10:15:14Z</time><name>PT1885</name></trkpt>
<trkpt lat="53.374688" lon="-1.600825"><ele>318</ele><time>2020-05-21T10:15:15Z</time><name>PT1886</name></trkpt>
<trkpt lat="53.374688" lon="-1.600809"><ele>318</ele><time>2020-05-21T10:15:17Z</time><name>PT1887</name></trkpt>
<trkpt lat="53.374686" lon="-1.600786"><ele>318</ele><time>2020-05-21T10:15:17Z</time><name>PT1888</name></trkpt>
<trkpt lat="53.374684" lon="-1.600766"><ele>318</ele><time>2020-05-21T10:15:18Z</time><name>PT1889</name></trkpt>
<trkpt lat="53.374685" lon="-1.600750"><ele>318</ele><time>2020-05-21T10:15:20Z</time><name>PT1890</name></trkpt>
<trkpt lat="53.374687" lon="-1.600735"><ele>318</ele><time>2020-05-21T10:15:20Z</time><name>PT1891</name></trkpt>
<trkpt lat="53.374689" lon="-1.600720"><ele>318</ele><time>2020-05-21T10:15:21Z</time><name>PT1892</name></trkpt>
<trkpt lat="53.374689" lon="-1.600705"><ele>317</ele><time>2020-05-21T10:15:23Z</time><name>PT1893</name></trkpt>
<trkpt lat="53.374691" lon="-1.600687"><ele>317</ele><time>2020-05-21T10:15:23Z</time><name>PT1894</name></trkpt>
<trkpt lat="53.374694" lon="-1.600662"><ele>317</ele><time>2020-05-21T10:15:24Z</time><name>PT1895</name></trkpt>
<trkpt lat="53.374697" lon="-1.600644"><ele>317</ele><time>2020-05-21T10:15:26Z</time><name>PT1896</name></trkpt>
<trkpt lat="53.374702" lon="-1.600622"><ele>317</ele><time>2020-05-21T10:15:26Z</time><name>PT1897</name></trkpt>
<trkpt lat="53.374706" lon="-1.600607"><ele>317</ele><time>2020-05-21T10:15:27Z</time><name>PT1898</name></trkpt>
<trkpt lat="53.374711" lon="-1.600590"><ele>316</ele><time>2020-05-21T10:15:29Z</time><name>PT1899</name></trkpt>
<trkpt lat="53.374713" lon="-1.600568"><ele>316</ele><time>2020-05-21T10:15:29Z</time><name>PT1900</name></trkpt>
<trkpt lat="53.374714" lon="-1.600550"><ele>316</ele><time>2020-05-21T10:15:30Z</time><name>PT1901</name></trkpt>
<trkpt lat="53.374716" lon="-1.600528"><ele>317</ele><time>2020-05-21T10:15:32Z</time><name>PT1902</name></trkpt>
<trkpt lat="53.374716" lon="-1.600508"><ele>316</ele><time>2020-05-21T10:15:32Z</time><name>PT1903</name></trkpt>
<trkpt lat="53.374716" lon="-1.600488"><ele>316</ele><time>2020-05-21T10:15:33Z</time><name>PT1904</name></trkpt>
<trkpt lat="53.374717" lon="-1.600472"><ele>316</ele><time>2020-05-21T10:15:35Z</time><name>PT1905</name></trkpt>
<trkpt lat="53.374725" lon="-1.600458"><ele>315</ele><time>2020-05-21T10:15:35Z</time><name>PT1906</name></trkpt>
<trkpt lat="53.374726" lon="-1.600440"><ele>314</ele><time>2020-05-21T10:15:37Z</time><name>PT1907</name></trkpt>
<trkpt lat="53.374723" lon="-1.600424"><ele>314</ele><time>2020-05-21T10:15:37Z</time><name>PT1908</name></trkpt>
<trkpt lat="53.374723" lon="-1.600408"><ele>315</ele><time>2020-05-21T10:15:38Z</time><name>PT1909</name></trkpt>
<trkpt lat="53.374724" lon="-1.600394"><ele>315</ele><time>2020-05-21T10:15:40Z</time><name>PT1910</name></trkpt>
<trkpt lat="53.374725" lon="-1.600373"><ele>315</ele><time>2020-05-21T10:15:40Z</time><name>PT1911</name></trkpt>
<trkpt lat="53.374726" lon="-1.600353"><ele>315</ele><time>2020-05-21T10:15:41Z</time><name>PT1912</name></trkpt>
<trkpt lat="53.374727" lon="-1.600332"><ele>314</ele><time>2020-05-21T10:15:43Z</time><name>PT1913</name></trkpt>
<trkpt lat="53.374728" lon="-1.600315"><ele>314</ele><time>2020-05-21T10:15:44Z</time><name>PT1914</name></trkpt>
<trkpt lat="53.374729" lon="-1.600294"><ele>314</ele><time>2020-05-21T10:15:44Z</time><name>PT1915</name></trkpt>
<trkpt lat="53.374732" lon="-1.600275"><ele>314</ele><time>2020-05-21T10:15:46Z</time><name>PT1916</name></trkpt>
<trkpt lat="53.374733" lon="-1.600259"><ele>314</ele><time>2020-05-21T10:15:46Z</time><name>PT1917</name></trkpt>
<trkpt lat="53.374731" lon="-1.600241"><ele>314</ele><time>2020-05-21T10:15:47Z</time><name>PT1918</name></trkpt>
<trkpt lat="53.374730" lon="-1.600220"><ele>314</ele><time>2020-05-21T10:15:49Z</time><name>PT1919</name></trkpt>
<trkpt lat="53.374730" lon="-1.600203"><ele>314</ele><time>2020-05-21T10:15:49Z</time><name>PT1920</name></trkpt>
<trkpt lat="53.374729" lon="-1.600182"><ele>313</ele><time>2020-05-21T10:15:51Z</time><name>PT1921</name></trkpt>
<trkpt lat="53.374727" lon="-1.600160"><ele>314</ele><time>2020-05-21T10:15:52Z</time><name>PT1922</name></trkpt>
<trkpt lat="53.374727" lon="-1.600142"><ele>313</ele><time>2020-05-21T10:15:52Z</time><name>PT1923</name></trkpt>
<trkpt lat="53.374726" lon="-1.600122"><ele>313</ele><time>2020-05-21T10:15:53Z</time><name>PT1924</name></trkpt>
<trkpt lat="53.374725" lon="-1.600098"><ele>314</ele><time>2020-05-21T10:15:55Z</time><name>PT1925</name></trkpt>
<trkpt lat="53.374725" lon="-1.600075"><ele>314</ele><time>2020-05-21T10:15:55Z</time><name>PT1926</name></trkpt>
<trkpt lat="53.374728" lon="-1.600059"><ele>313</ele><time>2020-05-21T10:15:56Z</time><name>PT1927</name></trkpt>
<trkpt lat="53.374730" lon="-1.600039"><ele>313</ele><time>2020-05-21T10:15:58Z</time><name>PT1928</name></trkpt>
<trkpt lat="53.374731" lon="-1.600019"><ele>313</ele><time>2020-05-21T10:15:58Z</time><name>PT1929</name></trkpt>
<trkpt lat="53.374732" lon="-1.600000"><ele>313</ele><time>2020-05-21T10:15:59Z</time><name>PT1930</name></trkpt>
<trkpt lat="53.374734" lon="-1.599979"><ele>313</ele><time>2020-05-21T10:16:01Z</time><name>PT1931</name></trkpt>
<trkpt lat="53.374733" lon="-1.599959"><ele>314</ele><time>2020-05-21T10:16:01Z</time><name>PT1932</name></trkpt>
<trkpt lat="53.374735" lon="-1.599939"><ele>314</ele><time>2020-05-21T10:16:02Z</time><name>PT1933</name></trkpt>
<trkpt lat="53.374739" lon="-1.599922"><ele>314</ele><time>2020-05-21T10:16:04Z</time><name>PT1934</name></trkpt>
<trkpt lat="53.374743" lon="-1.599903"><ele>314</ele><time>2020-05-21T10:16:04Z</time><name>PT1935</name></trkpt>
<trkpt lat="53.374746" lon="-1.599888"><ele>314</ele><time>2020-05-21T10:16:06Z</time><name>PT1936</name></trkpt>
<trkpt lat="53.374746" lon="-1.599868"><ele>314</ele><time>2020-05-21T10:16:07Z</time><name>PT1937</name></trkpt>
<trkpt lat="53.374745" lon="-1.599844"><ele>314</ele><time>2020-05-21T10:16:07Z</time><name>PT1938</name></trkpt>
<trkpt lat="53.374745" lon="-1.599824"><ele>313</ele><time>2020-05-21T10:16:08Z</time><name>PT1939</name></trkpt>
<trkpt lat="53.374745" lon="-1.599807"><ele>313</ele><time>2020-05-21T10:16:10Z</time><name>PT1940</name></trkpt>
<trkpt lat="53.374743" lon="-1.599785"><ele>313</ele><time>2020-05-21T10:16:10Z</time><name>PT1941</name></trkpt>
<trkpt lat="53.374744" lon="-1.599768"><ele>313</ele><time>2020-05-21T10:16:11Z</time><name>PT1942</name></trkpt>
<trkpt lat="53.374744" lon="-1.599750"><ele>313</ele><time>2020-05-21T10:16:13Z</time><name>PT1943</name></trkpt>
<trkpt lat="53.374743" lon="-1.599727"><ele>312</ele><time>2020-05-21T10:16:13Z</time><name>PT1944</name></trkpt>
<trkpt lat="53.374742" lon="-1.599705"><ele>312</ele><time>2020-05-21T10:16:14Z</time><name>PT1945</name></trkpt>
<trkpt lat="53.374743" lon="-1.599682"><ele>312</ele><time>2020-05-21T10:16:16Z</time><name>PT1946</name></trkpt>
<trkpt lat="53.374746" lon="-1.599657"><ele>312</ele><time>2020-05-21T10:16:16Z</time><name>PT1947</name></trkpt>
<trkpt lat="53.374748" lon="-1.599632"><ele>312</ele><time>2020-05-21T10:16:18Z</time><name>PT1948</name></trkpt>
<trkpt lat="53.374750" lon="-1.599610"><ele>312</ele><time>2020-05-21T10:16:18Z</time><name>PT1949</name></trkpt>
<trkpt lat="53.374751" lon="-1.599587"><ele>312</ele><time>2020-05-21T10:16:19Z</time><name>PT1950</name></trkpt>
<trkpt lat="53.374750" lon="-1.599565"><ele>312</ele><time>2020-05-21T10:16:21Z</time><name>PT1951</name></trkpt>
<trkpt lat="53.374752" lon="-1.599544"><ele>312</ele><time>2020-05-21T10:16:21Z</time><name>PT1952</name></trkpt>
<trkpt lat="53.374753" lon="-1.599524"><ele>312</ele><time>2020-05-21T10:16:22Z</time><name>PT1953</name></trkpt>
<trkpt lat="53.374754" lon="-1.599503"><ele>312</ele><time>2020-05-21T10:16:24Z</time><name>PT1954</name></trkpt>
<trkpt lat="53.374755" lon="-1.599482"><ele>312</ele><time>2020-05-21T10:16:24Z</time><name>PT1955</name></trkpt>
<trkpt lat="53.374755" lon="-1.599455"><ele>311</ele><time>2020-05-21T10:16:26Z</time><name>PT1956</name></trkpt>
<trkpt lat="53.374753" lon="-1.599431"><ele>311</ele><time>2020-05-21T10:16:27Z</time><name>PT1957</name></trkpt>
<trkpt lat="53.374752" lon="-1.599413"><ele>311</ele><time>2020-05-21T10:16:27Z</time><name>PT1958</name></trkpt>
<trkpt lat="53.374751" lon="-1.599391"><ele>311</ele><time>2020-05-21T10:16:28Z</time><name>PT1959</name></trkpt>
<trkpt lat="53.374751" lon="-1.599371"><ele>311</ele><time>2020-05-21T10:16:30Z</time><name>PT1960</name></trkpt>
<trkpt lat="53.374750" lon="-1.599354"><ele>310</ele><time>2020-05-21T10:16:30Z</time><name>PT1961</name></trkpt>
<trkpt lat="53.374749" lon="-1.599331"><ele>310</ele><time>2020-05-21T10:16:31Z</time><name>PT1962</name></trkpt>
<trkpt lat="53.374751" lon="-1.599312"><ele>310</ele><time>2020-05-21T10:16:33Z</time><name>PT1963</name></trkpt>
<trkpt lat="53.374753" lon="-1.599293"><ele>310</ele><time>2020-05-21T10:16:33Z</time><name>PT1964</name></trkpt>
<trkpt lat="53.374756" lon="-1.599273"><ele>310</ele><time>2020-05-21T10:16:34Z</time><name>PT1965</name></trkpt>
<trkpt lat="53.374761" lon="-1.599252"><ele>310</ele><time>2020-05-21T10:16:36Z</time><name>PT1966</name></trkpt>
<trkpt lat="53.374765" lon="-1.599232"><ele>310</ele><time>2020-05-21T10:16:36Z</time><name>PT1967</name></trkpt>
<trkpt lat="53.374766" lon="-1.599213"><ele>310</ele><time>2020-05-21T10:16:37Z</time><name>PT1968</name></trkpt>
<trkpt lat="53.374765" lon="-1.599193"><ele>310</ele><time>2020-05-21T10:16:39Z</time><name>PT1969</name></trkpt>
<trkpt lat="53.374767" lon="-1.599167"><ele>311</ele><time>2020-05-21T10:16:39Z</time><name>PT1970</name></trkpt>
<trkpt lat="53.374769" lon="-1.599144"><ele>311</ele><time>2020-05-21T10:16:40Z</time><name>PT1971</name></trkpt>
<trkpt lat="53.374772" lon="-1.599126"><ele>311</ele><time>2020-05-21T10:16:42Z</time><name>PT1972</name></trkpt>
<trkpt lat="53.374775" lon="-1.599106"><ele>310</ele><time>2020-05-21T10:16:42Z</time><name>PT1973</name></trkpt>
<trkpt lat="53.374777" lon="-1.599088"><ele>310</ele><time>2020-05-21T10:16:44Z</time><name>PT1974</name></trkpt>
<trkpt lat="53.374777" lon="-1.599074"><ele>310</ele><time>2020-05-21T10:16:44Z</time><name>PT1975</name></trkpt>
<trkpt lat="53.374778" lon="-1.599055"><ele>310</ele><time>2020-05-21T10:16:46Z</time><name>PT1976</name></trkpt>
<trkpt lat="53.374778" lon="-1.599029"><ele>310</ele><time>2020-05-21T10:16:46Z</time><name>PT1977</name></trkpt>
<trkpt lat="53.374778" lon="-1.599004"><ele>310</ele><time>2020-05-21T10:16:48Z</time><name>PT1978</name></trkpt>
<trkpt lat="53.374779" lon="-1.598983"><ele>310</ele><time>2020-05-21T10:16:48Z</time><name>PT1979</name></trkpt>
<trkpt lat="53.374780" lon="-1.598960"><ele>309</ele><time>2020-05-21T10:16:50Z</time><name>PT1980</name></trkpt>
<trkpt lat="53.374780" lon="-1.598940"><ele>309</ele><time>2020-05-21T10:16:50Z</time><name>PT1981</name></trkpt>
<trkpt lat="53.374780" lon="-1.598922"><ele>309</ele><time>2020-05-21T10:16:52Z</time><name>PT1982</name></trkpt>
<trkpt lat="53.374780" lon="-1.598900"><ele>309</ele><time>2020-05-21T10:16:52Z</time><name>PT1983</name></trkpt>
<trkpt lat="53.374780" lon="-1.598880"><ele>309</ele><time>2020-05-21T10:16:53Z</time><name>PT1984</name></trkpt>
<trkpt lat="53.374780" lon="-1.598859"><ele>309</ele><time>2020-05-21T10:16:55Z</time><name>PT1985</name></trkpt>
<trkpt lat="53.374783" lon="-1.598837"><ele>309</ele><time>2020-05-21T10:16:55Z</time><name>PT1986</name></trkpt>
<trkpt lat="53.374787" lon="-1.598819"><ele>309</ele><time>2020-05-21T10:16:57Z</time><name>PT1987</name></trkpt>
<trkpt lat="53.374787" lon="-1.598798"><ele>309</ele><time>2020-05-21T10:16:57Z</time><name>PT1988</name></trkpt>
<trkpt lat="53.374789" lon="-1.598768"><ele>310</ele><time>2020-05-21T10:16:58Z</time><name>PT1989</name></trkpt>
<trkpt lat="53.374791" lon="-1.598740"><ele>310</ele><time>2020-05-21T10:17:00Z</time><name>PT1990</name></trkpt>
<trkpt lat="53.374791" lon="-1.598712"><ele>310</ele><time>2020-05-21T10:17:00Z</time><name>PT1991</name></trkpt>
<trkpt lat="53.374793" lon="-1.598689"><ele>309</ele><time>2020-05-21T10:17:01Z</time><name>PT1992</name></trkpt>
<trkpt lat="53.374797" lon="-1.598665"><ele>309</ele><time>2020-05-21T10:17:03Z</time><name>PT1993</name></trkpt>
<trkpt lat="53.374801" lon="-1.598645"><ele>309</ele><time>2020-05-21T10:17:03Z</time><name>PT1994</name></trkpt>
<trkpt lat="53.374806" lon="-1.598626"><ele>309</ele><time>2020-05-21T10:17:04Z</time><name>PT1995</name></trkpt>
<trkpt lat="53.374810" lon="-1.598604"><ele>309</ele><time>2020-05-21T10:17:05Z</time><name>PT1996</name></trkpt>
<trkpt lat="53.374812" lon="-1.598585"><ele>309</ele><time>2020-05-21T10:17:06Z</time><name>PT1997</name></trkpt>
<trkpt lat="53.374812" lon="-1.598565"><ele>309</ele><time>2020-05-21T10:17:08Z</time><name>PT1998</name></trkpt>
<trkpt lat="53.374812" lon="-1.598547"><ele>309</ele><time>2020-05-21T10:17:08Z</time><name>PT1999</name></trkpt>
<trkpt lat="53.374812" lon="-1.598528"><ele>308</ele><time>2020-05-21T10:17:10Z</time><name>PT2000</name></trkpt>
<trkpt lat="53.374813" lon="-1.598506"><ele>308</ele><time>2020-05-21T10:17:10Z</time><name>PT2001</name></trkpt>
<trkpt lat="53.374815" lon="-1.598488"><ele>308</ele><time>2020-05-21T10:17:11Z</time><name>PT2002</name></trkpt>
<trkpt lat="53.374815" lon="-1.598469"><ele>308</ele><time>2020-05-21T10:17:13Z</time><name>PT2003</name></trkpt>
<trkpt lat="53.374815" lon="-1.598443"><ele>308</ele><time>2020-05-21T10:17:13Z</time><name>PT2004</name></trkpt>
<trkpt lat="53.374813" lon="-1.598422"><ele>308</ele><time>2020-05-21T10:17:14Z</time><name>PT2005</name></trkpt>
<trkpt lat="53.374813" lon="-1.598402"><ele>308</ele><time>2020-05-21T10:17:16Z</time><name>PT2006</name></trkpt>
<trkpt lat="53.374813" lon="-1.598382"><ele>308</ele><time>2020-05-21T10:17:16Z</time><name>PT2007</name></trkpt>
<trkpt lat="53.374812" lon="-1.598361"><ele>308</ele><time>2020-05-21T10:17:17Z</time><name>PT2008</name></trkpt>
<trkpt lat="53.374810" lon="-1.598340"><ele>308</ele><time>2020-05-21T10:17:19Z</time><name>PT2009</name></trkpt>
<trkpt lat="53.374807" lon="-1.598322"><ele>308</ele><time>2020-05-21T10:17:19Z</time><name>PT2010</name></trkpt>
<trkpt lat="53.374804" lon="-1.598307"><ele>308</ele><time>2020-05-21T10:17:20Z</time><name>PT2011</name></trkpt>
<trkpt lat="53.374803" lon="-1.598287"><ele>307</ele><time>2020-05-21T10:17:22Z</time><name>PT2012</name></trkpt>
<trkpt lat="53.374799" lon="-1.598271"><ele>307</ele><time>2020-05-21T10:17:22Z</time><name>PT2013</name></trkpt>
<trkpt lat="53.374792" lon="-1.598255"><ele>307</ele><time>2020-05-21T10:17:23Z</time><name>PT2014</name></trkpt>
<trkpt lat="53.374785" lon="-1.598236"><ele>307</ele><time>2020-05-21T10:17:25Z</time><name>PT2015</name></trkpt>
<trkpt lat="53.374783" lon="-1.598216"><ele>307</ele><time>2020-05-21T10:17:25Z</time><name>PT2016</name></trkpt>
<trkpt lat="53.374781" lon="-1.598192"><ele>307</ele><time>2020-05-21T10:17:26Z</time><name>PT2017</name></trkpt>
<trkpt lat="53.374779" lon="-1.598173"><ele>307</ele><time>2020-05-21T10:17:28Z</time><name>PT2018</name></trkpt>
<trkpt lat="53.374778" lon="-1.598156"><ele>307</ele><time>2020-05-21T10:17:28Z</time><name>PT2019</name></trkpt>
<trkpt lat="53.374776" lon="-1.598134"><ele>306</ele><time>2020-05-21T10:17:29Z</time><name>PT2020</name></trkpt>
<trkpt lat="53.374775" lon="-1.598112"><ele>306</ele><time>2020-05-21T10:17:31Z</time><name>PT2021</name></trkpt>
<trkpt lat="53.374776" lon="-1.598091"><ele>306</ele><time>2020-05-21T10:17:31Z</time><name>PT2022</name></trkpt>
<trkpt lat="53.374776" lon="-1.598065"><ele>305</ele><time>2020-05-21T10:17:32Z</time><name>PT2023</name></trkpt>
<trkpt lat="53.374776" lon="-1.598042"><ele>305</ele><time>2020-05-21T10:17:34Z</time><name>PT2024</name></trkpt>
<trkpt lat="53.374776" lon="-1.598019"><ele>304</ele><time>2020-05-21T10:17:34Z</time><name>PT2025</name></trkpt>
<trkpt lat="53.374774" lon="-1.597999"><ele>304</ele><time>2020-05-21T10:17:35Z</time><name>PT2026</name></trkpt>
<trkpt lat="53.374774" lon="-1.597979"><ele>304</ele><time>2020-05-21T10:17:37Z</time><name>PT2027</name></trkpt>
<trkpt lat="53.374775" lon="-1.597960"><ele>304</ele><time>2020-05-21T10:17:37Z</time><name>PT2028</name></trkpt>
<trkpt lat="53.374778" lon="-1.597928"><ele>304</ele><time>2020-05-21T10:17:38Z</time><name>PT2029</name></trkpt>
<trkpt lat="53.374776" lon="-1.597912"><ele>304</ele><time>2020-05-21T10:17:40Z</time><name>PT2030</name></trkpt>
<trkpt lat="53.374774" lon="-1.597897"><ele>303</ele><time>2020-05-21T10:17:40Z</time><name>PT2031</name></trkpt>
<trkpt lat="53.374771" lon="-1.597874"><ele>303</ele><time>2020-05-21T10:17:41Z</time><name>PT2032</name></trkpt>
<trkpt lat="53.374769" lon="-1.597859"><ele>303</ele><time>2020-05-21T10:17:43Z</time><name>PT2033</name></trkpt>
<trkpt lat="53.374768" lon="-1.597839"><ele>303</ele><time>2020-05-21T10:17:43Z</time><name>PT2034</name></trkpt>
<trkpt lat="53.374767" lon="-1.597818"><ele>303</ele><time>2020-05-21T10:17:45Z</time><name>PT2035</name></trkpt>
<trkpt lat="53.374769" lon="-1.597794"><ele>302</ele><time>2020-05-21T10:17:46Z</time><name>PT2036</name></trkpt>
<trkpt lat="53.374769" lon="-1.597776"><ele>302</ele><time>2020-05-21T10:17:46Z</time><name>PT2037</name></trkpt>
<trkpt lat="53.374769" lon="-1.597755"><ele>303</ele><time>2020-05-21T10:17:48Z</time><name>PT2038</name></trkpt>
<trkpt lat="53.374771" lon="-1.597735"><ele>303</ele><time>2020-05-21T10:17:48Z</time><name>PT2039</name></trkpt>
<trkpt lat="53.374770" lon="-1.597713"><ele>302</ele><time>2020-05-21T10:17:50Z</time><name>PT2040</name></trkpt>
<trkpt lat="53.374773" lon="-1.597695"><ele>302</ele><time>2020-05-21T10:17:51Z</time><name>PT2041</name></trkpt>
<trkpt lat="53.374777" lon="-1.597679"><ele>302</ele><time>2020-05-21T10:17:51Z</time><name>PT2042</name></trkpt>
<trkpt lat="53.374778" lon="-1.597657"><ele>302</ele><time>2020-05-21T10:17:53Z</time><name>PT2043</name></trkpt>
<trkpt lat="53.374777" lon="-1.597642"><ele>302</ele><time>2020-05-21T10:17:54Z</time><name>PT2044</name></trkpt>
<trkpt lat="53.374779" lon="-1.597626"><ele>302</ele><time>2020-05-21T10:17:54Z</time><name>PT2045</name></trkpt>
<trkpt lat="53.374779" lon="-1.597610"><ele>301</ele><time>2020-05-21T10:17:55Z</time><name>PT2046</name></trkpt>
<trkpt lat="53.374778" lon="-1.597591"><ele>301</ele><time>2020-05-21T10:17:57Z</time><name>PT2047</name></trkpt>
<trkpt lat="53.374777" lon="-1.597575"><ele>301</ele><time>2020-05-21T10:17:57Z</time><name>PT2048</name></trkpt>
<trkpt lat="53.374777" lon="-1.597560"><ele>301</ele><time>2020-05-21T10:17:58Z</time><name>PT2049</name></trkpt>
<trkpt lat="53.374777" lon="-1.597541"><ele>301</ele><time>2020-05-21T10:18:00Z</time><name>PT2050</name></trkpt>
<trkpt lat="53.374776" lon="-1.597524"><ele>301</ele><time>2020-05-21T10:18:00Z</time><name>PT2051</name></trkpt>
<trkpt lat="53.374776" lon="-1.597504"><ele>300</ele><time>2020-05-21T10:18:01Z</time><name>PT2052</name></trkpt>
<trkpt lat="53.374772" lon="-1.597488"><ele>300</ele><time>2020-05-21T10:18:03Z</time><name>PT2053</name></trkpt>
<trkpt lat="53.374767" lon="-1.597471"><ele>300</ele><time>2020-05-21T10:18:03Z</time><name>PT2054</name></trkpt>
<trkpt lat="53.374762" lon="-1.597453"><ele>300</ele><time>2020-05-21T10:18:04Z</time><name>PT2055</name></trkpt>
<trkpt lat="53.374755" lon="-1.597439"><ele>300</ele><time>2020-05-21T10:18:06Z</time><name>PT2056</name></trkpt>
<trkpt lat="53.374747" lon="-1.597424"><ele>300</ele><time>2020-05-21T10:18:06Z</time><name>PT2057</name></trkpt>
<trkpt lat="53.374742" lon="-1.597411"><ele>300</ele><time>2020-05-21T10:18:07Z</time><name>PT2058</name></trkpt>
<trkpt lat="53.374741" lon="-1.597392"><ele>300</ele><time>2020-05-21T10:18:09Z</time><name>PT2059</name></trkpt>
<trkpt lat="53.374740" lon="-1.597378"><ele>300</ele><time>2020-05-21T10:18:09Z</time><name>PT2060</name></trkpt>
<trkpt lat="53.374738" lon="-1.597353"><ele>300</ele><time>2020-05-21T10:18:10Z</time><name>PT2061</name></trkpt>
<trkpt lat="53.374733" lon="-1.597331"><ele>300</ele><time>2020-05-21T10:18:12Z</time><name>PT2062</name></trkpt>
<trkpt lat="53.374728" lon="-1.597311"><ele>299</ele><time>2020-05-21T10:18:12Z</time><name>PT2063</name></trkpt>
<trkpt lat="53.374724" lon="-1.597290"><ele>299</ele><time>2020-05-21T10:18:13Z</time><name>PT2064</name></trkpt>
<trkpt lat="53.374721" lon="-1.597269"><ele>300</ele><time>2020-05-21T10:18:15Z</time><name>PT2065</name></trkpt>
<trkpt lat="53.374718" lon="-1.597253"><ele>300</ele><time>2020-05-21T10:18:15Z</time><name>PT2066</name></trkpt>
<trkpt lat="53.374710" lon="-1.597227"><ele>300</ele><time>2020-05-21T10:18:16Z</time><name>PT2067</name></trkpt>
<trkpt lat="53.374703" lon="-1.597205"><ele>300</ele><time>2020-05-21T10:18:18Z</time><name>PT2068</name></trkpt>
<trkpt lat="53.374699" lon="-1.597187"><ele>300</ele><time>2020-05-21T10:18:18Z</time><name>PT2069</name></trkpt>
<trkpt lat="53.374695" lon="-1.597168"><ele>300</ele><time>2020-05-21T10:18:19Z</time><name>PT2070</name></trkpt>
<trkpt lat="53.374692" lon="-1.597148"><ele>299</ele><time>2020-05-21T10:18:21Z</time><name>PT2071</name></trkpt>
<trkpt lat="53.374690" lon="-1.597128"><ele>299</ele><time>2020-05-21T10:18:21Z</time><name>PT2072</name></trkpt>
<trkpt lat="53.374686" lon="-1.597113"><ele>299</ele><time>2020-05-21T10:18:22Z</time><name>PT2073</name></trkpt>
<trkpt lat="53.374682" lon="-1.597089"><ele>299</ele><time>2020-05-21T10:18:24Z</time><name>PT2074</name></trkpt>
<trkpt lat="53.374678" lon="-1.597068"><ele>299</ele><time>2020-05-21T10:18:24Z</time><name>PT2075</name></trkpt>
<trkpt lat="53.374675" lon="-1.597050"><ele>298</ele><time>2020-05-21T10:18:25Z</time><name>PT2076</name></trkpt>
<trkpt lat="53.374672" lon="-1.597028"><ele>298</ele><time>2020-05-21T10:18:26Z</time><name>PT2077</name></trkpt>
<trkpt lat="53.374669" lon="-1.597003"><ele>299</ele><time>2020-05-21T10:18:27Z</time><name>PT2078</name></trkpt>
<trkpt lat="53.374667" lon="-1.596981"><ele>299</ele><time>2020-05-21T10:18:29Z</time><name>PT2079</name></trkpt>
<trkpt lat="53.374666" lon="-1.596961"><ele>299</ele><time>2020-05-21T10:18:29Z</time><name>PT2080</name></trkpt>
<trkpt lat="53.374667" lon="-1.596942"><ele>299</ele><time>2020-05-21T10:18:30Z</time><name>PT2081</name></trkpt>
<trkpt lat="53.374668" lon="-1.596919"><ele>299</ele><time>2020-05-21T10:18:32Z</time><name>PT2082</name></trkpt>
<trkpt lat="53.374668" lon="-1.596900"><ele>299</ele><time>2020-05-21T10:18:32Z</time><name>PT2083</name></trkpt>
<trkpt lat="53.374671" lon="-1.596878"><ele>299</ele><time>2020-05-21T10:18:33Z</time><name>PT2084</name></trkpt>
<trkpt lat="53.374672" lon="-1.596861"><ele>298</ele><time>2020-05-21T10:18:35Z</time><name>PT2085</name></trkpt>
<trkpt lat="53.374667" lon="-1.596845"><ele>298</ele><time>2020-05-21T10:18:35Z</time><name>PT2086</name></trkpt>
<trkpt lat="53.374662" lon="-1.596825"><ele>298</ele><time>2020-05-21T10:18:36Z</time><name>PT2087</name></trkpt>
<trkpt lat="53.374663" lon="-1.596804"><ele>298</ele><time>2020-05-21T10:18:38Z</time><name>PT2088</name></trkpt>
<trkpt lat="53.374666" lon="-1.596781"><ele>298</ele><time>2020-05-21T10:18:38Z</time><name>PT2089</name></trkpt>
<trkpt lat="53.374664" lon="-1.596760"><ele>298</ele><time>2020-05-21T10:18:39Z</time><name>PT2090</name></trkpt>
<trkpt lat="53.374659" lon="-1.596740"><ele>298</ele><time>2020-05-21T10:18:41Z</time><name>PT2091</name></trkpt>
<trkpt lat="53.374654" lon="-1.596724"><ele>297</ele><time>2020-05-21T10:18:41Z</time><name>PT2092</name></trkpt>
<trkpt lat="53.374650" lon="-1.596701"><ele>297</ele><time>2020-05-21T10:18:42Z</time><name>PT2093</name></trkpt>
<trkpt lat="53.374649" lon="-1.596678"><ele>297</ele><time>2020-05-21T10:18:44Z</time><name>PT2094</name></trkpt>
<trkpt lat="53.374648" lon="-1.596659"><ele>297</ele><time>2020-05-21T10:18:44Z</time><name>PT2095</name></trkpt>
<trkpt lat="53.374647" lon="-1.596634"><ele>297</ele><time>2020-05-21T10:18:45Z</time><name>PT2096</name></trkpt>
<trkpt lat="53.374646" lon="-1.596611"><ele>297</ele><time>2020-05-21T10:18:47Z</time><name>PT2097</name></trkpt>
<trkpt lat="53.374644" lon="-1.596592"><ele>297</ele><time>2020-05-21T10:18:47Z</time><name>PT2098</name></trkpt>
<trkpt lat="53.374642" lon="-1.596575"><ele>297</ele><time>2020-05-21T10:18:48Z</time><name>PT2099</name></trkpt>
<trkpt lat="53.374640" lon="-1.596558"><ele>297</ele><time>2020-05-21T10:18:50Z</time><name>PT2100</name></trkpt>
<trkpt lat="53.374640" lon="-1.596538"><ele>296</ele><time>2020-05-21T10:18:50Z</time><name>PT2101</name></trkpt>
<trkpt lat="53.374636" lon="-1.596519"><ele>296</ele><time>2020-05-21T10:18:51Z</time><name>PT2102</name></trkpt>
<trkpt lat="53.374636" lon="-1.596502"><ele>296</ele><time>2020-05-21T10:18:53Z</time><name>PT2103</name></trkpt>
<trkpt lat="53.374634" lon="-1.596483"><ele>296</ele><time>2020-05-21T10:18:53Z</time><name>PT2104</name></trkpt>
<trkpt lat="53.374630" lon="-1.596464"><ele>295</ele><time>2020-05-21T10:18:54Z</time><name>PT2105</name></trkpt>
<trkpt lat="53.374626" lon="-1.596447"><ele>294</ele><time>2020-05-21T10:18:56Z</time><name>PT2106</name></trkpt>
<trkpt lat="53.374621" lon="-1.596432"><ele>294</ele><time>2020-05-21T10:18:56Z</time><name>PT2107</name></trkpt>
<trkpt lat="53.374614" lon="-1.596417"><ele>295</ele><time>2020-05-21T10:18:57Z</time><name>PT2108</name></trkpt>
<trkpt lat="53.374610" lon="-1.596404"><ele>294</ele><time>2020-05-21T10:18:59Z</time><name>PT2109</name></trkpt>
<trkpt lat="53.374604" lon="-1.596388"><ele>295</ele><time>2020-05-21T10:18:59Z</time><name>PT2110</name></trkpt>
<trkpt lat="53.374600" lon="-1.596369"><ele>295</ele><time>2020-05-21T10:19:00Z</time><name>PT2111</name></trkpt>
<trkpt lat="53.374596" lon="-1.596354"><ele>295</ele><time>2020-05-21T10:19:02Z</time><name>PT2112</name></trkpt>
<trkpt lat="53.374591" lon="-1.596338"><ele>295</ele><time>2020-05-21T10:19:02Z</time><name>PT2113</name></trkpt>
<trkpt lat="53.374586" lon="-1.596323"><ele>294</ele><time>2020-05-21T10:19:03Z</time><name>PT2114</name></trkpt>
<trkpt lat="53.374580" lon="-1.596314"><ele>293</ele><time>2020-05-21T10:19:04Z</time><name>PT2115</name></trkpt>
<trkpt lat="53.374576" lon="-1.596291"><ele>293</ele><time>2020-05-21T10:19:05Z</time><name>PT2116</name></trkpt>
<trkpt lat="53.374574" lon="-1.596277"><ele>293</ele><time>2020-05-21T10:19:07Z</time><name>PT2117</name></trkpt>
<trkpt lat="53.374573" lon="-1.596262"><ele>293</ele><time>2020-05-21T10:19:07Z</time><name>PT2118</name></trkpt>
<trkpt lat="53.374570" lon="-1.596248"><ele>293</ele><time>2020-05-21T10:19:08Z</time><name>PT2119</name></trkpt>
<trkpt lat="53.374564" lon="-1.596235"><ele>293</ele><time>2020-05-21T10:19:10Z</time><name>PT2120</name></trkpt>
<trkpt lat="53.374560" lon="-1.596226"><ele>292</ele><time>2020-05-21T10:19:10Z</time><name>PT2121</name></trkpt>
<trkpt lat="53.374555" lon="-1.596208"><ele>292</ele><time>2020-05-21T10:19:11Z</time><name>PT2122</name></trkpt>
<trkpt lat="53.374547" lon="-1.596194"><ele>292</ele><time>2020-05-21T10:19:13Z</time><name>PT2123</name></trkpt>
<trkpt lat="53.374539" lon="-1.596177"><ele>292</ele><time>2020-05-21T10:19:13Z</time><name>PT2124</name></trkpt>
<trkpt lat="53.374530" lon="-1.596158"><ele>293</ele><time>2020-05-21T10:19:14Z</time><name>PT2125</name></trkpt>
<trkpt lat="53.374525" lon="-1.596135"><ele>293</ele><time>2020-05-21T10:19:16Z</time><name>PT2126</name></trkpt>
<trkpt lat="53.374522" lon="-1.596118"><ele>292</ele><time>2020-05-21T10:19:16Z</time><name>PT2127</name></trkpt>
<trkpt lat="53.374517" lon="-1.596090"><ele>293</ele><time>2020-05-21T10:19:17Z</time><name>PT2128</name></trkpt>
<trkpt lat="53.374513" lon="-1.596059"><ele>293</ele><time>2020-05-21T10:19:19Z</time><name>PT2129</name></trkpt>
<trkpt lat="53.374506" lon="-1.596034"><ele>294</ele><time>2020-05-21T10:19:19Z</time><name>PT2130</name></trkpt>
<trkpt lat="53.374502" lon="-1.596015"><ele>294</ele><time>2020-05-21T10:19:20Z</time><name>PT2131</name></trkpt>
<trkpt lat="53.374499" lon="-1.595995"><ele>295</ele><time>2020-05-21T10:19:22Z</time><name>PT2132</name></trkpt>
<trkpt lat="53.374493" lon="-1.595972"><ele>295</ele><time>2020-05-21T10:19:22Z</time><name>PT2133</name></trkpt>
<trkpt lat="53.374491" lon="-1.595950"><ele>295</ele><time>2020-05-21T10:19:23Z</time><name>PT2134</name></trkpt>
<trkpt lat="53.374493" lon="-1.595931"><ele>295</ele><time>2020-05-21T10:19:25Z</time><name>PT2135</name></trkpt>
<trkpt lat="53.374497" lon="-1.595914"><ele>295</ele><time>2020-05-21T10:19:25Z</time><name>PT2136</name></trkpt>
<trkpt lat="53.374499" lon="-1.595897"><ele>295</ele><time>2020-05-21T10:19:26Z</time><name>PT2137</name></trkpt>
<trkpt lat="53.374501" lon="-1.595882"><ele>295</ele><time>2020-05-21T10:19:28Z</time><name>PT2138</name></trkpt>
<trkpt lat="53.374505" lon="-1.595868"><ele>295</ele><time>2020-05-21T10:19:28Z</time><name>PT2139</name></trkpt>
<trkpt lat="53.374511" lon="-1.595853"><ele>295</ele><time>2020-05-21T10:19:29Z</time><name>PT2140</name></trkpt>
<trkpt lat="53.374515" lon="-1.595834"><ele>295</ele><time>2020-05-21T10:19:31Z</time><name>PT2141</name></trkpt>
<trkpt lat="53.374520" lon="-1.595814"><ele>296</ele><time>2020-05-21T10:19:31Z</time><name>PT2142</name></trkpt>
<trkpt lat="53.374528" lon="-1.595800"><ele>296</ele><time>2020-05-21T10:19:32Z</time><name>PT2143</name></trkpt>
<trkpt lat="53.374535" lon="-1.595782"><ele>296</ele><time>2020-05-21T10:19:34Z</time><name>PT2144</name></trkpt>
<trkpt lat="53.374542" lon="-1.595770"><ele>296</ele><time>2020-05-21T10:19:34Z</time><name>PT2145</name></trkpt>
<trkpt lat="53.374547" lon="-1.595750"><ele>295</ele><time>2020-05-21T10:19:35Z</time><name>PT2146</name></trkpt>
<trkpt lat="53.374552" lon="-1.595734"><ele>295</ele><time>2020-05-21T10:19:37Z</time><name>PT2147</name></trkpt>
<trkpt lat="53.374555" lon="-1.595716"><ele>295</ele><time>2020-05-21T10:19:37Z</time><name>PT2148</name></trkpt>
<trkpt lat="53.374560" lon="-1.595699"><ele>295</ele><time>2020-05-21T10:19:38Z</time><name>PT2149</name></trkpt>
<trkpt lat="53.374563" lon="-1.595681"><ele>294</ele><time>2020-05-21T10:19:40Z</time><name>PT2150</name></trkpt>
<trkpt lat="53.374567" lon="-1.595663"><ele>294</ele><time>2020-05-21T10:19:40Z</time><name>PT2151</name></trkpt>
<trkpt lat="53.374569" lon="-1.595649"><ele>294</ele><time>2020-05-21T10:19:41Z</time><name>PT2152</name></trkpt>
<trkpt lat="53.374569" lon="-1.595635"><ele>293</ele><time>2020-05-21T10:19:43Z</time><name>PT2153</name></trkpt>
<trkpt lat="53.374570" lon="-1.595626"><ele>293</ele><time>2020-05-21T10:19:43Z</time><name>PT2154</name></trkpt>
<trkpt lat="53.374568" lon="-1.595619"><ele>293</ele><time>2020-05-21T10:19:45Z</time><name>PT2155</name></trkpt>
<trkpt lat="53.374566" lon="-1.595609"><ele>292</ele><time>2020-05-21T10:19:46Z</time><name>PT2156</name></trkpt>
<trkpt lat="53.374566" lon="-1.595596"><ele>292</ele><time>2020-05-21T10:19:46Z</time><name>PT2157</name></trkpt>
<trkpt lat="53.374569" lon="-1.595583"><ele>292</ele><time>2020-05-21T10:19:47Z</time><name>PT2158</name></trkpt>
<trkpt lat="53.374576" lon="-1.595573"><ele>292</ele><time>2020-05-21T10:19:49Z</time><name>PT2159</name></trkpt>
<trkpt lat="53.374583" lon="-1.595565"><ele>292</ele><time>2020-05-21T10:19:49Z</time><name>PT2160</name></trkpt>
<trkpt lat="53.374589" lon="-1.595556"><ele>292</ele><time>2020-05-21T10:19:50Z</time><name>PT2161</name></trkpt>
<trkpt lat="53.374591" lon="-1.595558"><ele>292</ele><time>2020-05-21T10:19:52Z</time><name>PT2162</name></trkpt>
<trkpt lat="53.374595" lon="-1.595555"><ele>292</ele><time>2020-05-21T10:19:52Z</time><name>PT2163</name></trkpt>
<trkpt lat="53.374596" lon="-1.595553"><ele>292</ele><time>2020-05-21T10:19:53Z</time><name>PT2164</name></trkpt>
<trkpt lat="53.374596" lon="-1.595552"><ele>292</ele><time>2020-05-21T10:19:54Z</time><name>PT2165</name></trkpt>
<trkpt lat="53.374598" lon="-1.595548"><ele>293</ele><time>2020-05-21T10:19:55Z</time><name>PT2166</name></trkpt>
<trkpt lat="53.374600" lon="-1.595541"><ele>293</ele><time>2020-05-21T10:19:57Z</time><name>PT2167</name></trkpt>
<trkpt lat="53.374601" lon="-1.595538"><ele>293</ele><time>2020-05-21T10:19:57Z</time><name>PT2168</name></trkpt>
<trkpt lat="53.374603" lon="-1.595537"><ele>293</ele><time>2020-05-21T10:19:58Z</time><name>PT2169</name></trkpt>
<trkpt lat="53.374603" lon="-1.595538"><ele>293</ele><time>2020-05-21T10:20:00Z</time><name>PT2170</name></trkpt>
<trkpt lat="53.374606" lon="-1.595536"><ele>293</ele><time>2020-05-21T10:20:00Z</time><name>PT2171</name></trkpt>
<trkpt lat="53.374611" lon="-1.595534"><ele>293</ele><time>2020-05-21T10:20:02Z</time><name>PT2172</name></trkpt>
<trkpt lat="53.374617" lon="-1.595531"><ele>293</ele><time>2020-05-21T10:20:03Z</time><name>PT2173</name></trkpt>
<trkpt lat="53.374621" lon="-1.595529"><ele>293</ele><time>2020-05-21T10:20:03Z</time><name>PT2174</name></trkpt>
<trkpt lat="53.374623" lon="-1.595530"><ele>294</ele><time>2020-05-21T10:20:04Z</time><name>PT2175</name></trkpt>
<trkpt lat="53.374623" lon="-1.595529"><ele>293</ele><time>2020-05-21T10:20:06Z</time><name>PT2176</name></trkpt>
<trkpt lat="53.374624" lon="-1.595528"><ele>293</ele><time>2020-05-21T10:20:06Z</time><name>PT2177</name></trkpt>
<trkpt lat="53.374624" lon="-1.595527"><ele>293</ele><time>2020-05-21T10:20:07Z</time><name>PT2178</name></trkpt>
<trkpt lat="53.374623" lon="-1.595526"><ele>293</ele><time>2020-05-21T10:20:09Z</time><name>PT2179</name></trkpt>
<trkpt lat="53.374626" lon="-1.595524"><ele>293</ele><time>2020-05-21T10:20:27Z</time><name>PT2180</name></trkpt>
<trkpt lat="53.374623" lon="-1.595517"><ele>292</ele><time>2020-05-21T10:20:28Z</time><name>PT2181</name></trkpt>
<trkpt lat="53.374625" lon="-1.595522"><ele>292</ele><time>2020-05-21T10:20:30Z</time><name>PT2182</name></trkpt>
<trkpt lat="53.374627" lon="-1.595530"><ele>292</ele><time>2020-05-21T10:20:30Z</time><name>PT2183</name></trkpt>
<trkpt lat="53.374628" lon="-1.595529"><ele>293</ele><time>2020-05-21T10:20:32Z</time><name>PT2184</name></trkpt>
<trkpt lat="53.374628" lon="-1.595529"><ele>292</ele><time>2020-05-21T10:20:33Z</time><name>PT2185</name></trkpt>
<trkpt lat="53.374631" lon="-1.595540"><ele>293</ele><time>2020-05-21T10:20:58Z</time><name>PT2186</name></trkpt>
<trkpt lat="53.374633" lon="-1.595543"><ele>294</ele><time>2020-05-21T10:21:00Z</time><name>PT2187</name></trkpt>
<trkpt lat="53.374634" lon="-1.595544"><ele>294</ele><time>2020-05-21T10:21:00Z</time><name>PT2188</name></trkpt>
<trkpt lat="53.374636" lon="-1.595539"><ele>295</ele><time>2020-05-21T10:22:22Z</time><name>PT2189</name></trkpt>
<trkpt lat="53.374638" lon="-1.595537"><ele>295</ele><time>2020-05-21T10:22:24Z</time><name>PT2190</name></trkpt>
<trkpt lat="53.374653" lon="-1.595560"><ele>297</ele><time>2020-05-21T10:22:50Z</time><name>PT2191</name></trkpt>
<trkpt lat="53.374659" lon="-1.595566"><ele>298</ele><time>2020-05-21T10:22:51Z</time><name>PT2192</name></trkpt>
<trkpt lat="53.374661" lon="-1.595570"><ele>298</ele><time>2020-05-21T10:22:53Z</time><name>PT2193</name></trkpt>
<trkpt lat="53.374671" lon="-1.595563"><ele>297</ele><time>2020-05-21T10:22:53Z</time><name>PT2194</name></trkpt>
<trkpt lat="53.374680" lon="-1.595552"><ele>296</ele><time>2020-05-21T10:22:54Z</time><name>PT2195</name></trkpt>
<trkpt lat="53.374687" lon="-1.595546"><ele>296</ele><time>2020-05-21T10:22:56Z</time><name>PT2196</name></trkpt>
<trkpt lat="53.374693" lon="-1.595544"><ele>295</ele><time>2020-05-21T10:22:56Z</time><name>PT2197</name></trkpt>
<trkpt lat="53.374701" lon="-1.595541"><ele>295</ele><time>2020-05-21T10:22:57Z</time><name>PT2198</name></trkpt>
<trkpt lat="53.374705" lon="-1.595538"><ele>295</ele><time>2020-05-21T10:22:59Z</time><name>PT2199</name></trkpt>
<trkpt lat="53.374720" lon="-1.595536"><ele>295</ele><time>2020-05-21T10:22:59Z</time><name>PT2200</name></trkpt>
<trkpt lat="53.374732" lon="-1.595552"><ele>295</ele><time>2020-05-21T10:23:00Z</time><name>PT2201</name></trkpt>
<trkpt lat="53.374739" lon="-1.595554"><ele>294</ele><time>2020-05-21T10:23:02Z</time><name>PT2202</name></trkpt>
<trkpt lat="53.374741" lon="-1.595562"><ele>294</ele><time>2020-05-21T10:23:02Z</time><name>PT2203</name></trkpt>
<trkpt lat="53.374752" lon="-1.595565"><ele>294</ele><time>2020-05-21T10:23:03Z</time><name>PT2204</name></trkpt>
<trkpt lat="53.374759" lon="-1.595575"><ele>293</ele><time>2020-05-21T10:23:05Z</time><name>PT2205</name></trkpt>
<trkpt lat="53.374769" lon="-1.595581"><ele>293</ele><time>2020-05-21T10:23:05Z</time><name>PT2206</name></trkpt>
<trkpt lat="53.374779" lon="-1.595583"><ele>292</ele><time>2020-05-21T10:23:06Z</time><name>PT2207</name></trkpt>
<trkpt lat="53.374788" lon="-1.595583"><ele>293</ele><time>2020-05-21T10:23:08Z</time><name>PT2208</name></trkpt>
<trkpt lat="53.374795" lon="-1.595584"><ele>293</ele><time>2020-05-21T10:23:08Z</time><name>PT2209</name></trkpt>
<trkpt lat="53.374802" lon="-1.595581"><ele>293</ele><time>2020-05-21T10:23:09Z</time><name>PT2210</name></trkpt>
<trkpt lat="53.374811" lon="-1.595578"><ele>293</ele><time>2020-05-21T10:23:11Z</time><name>PT2211</name></trkpt>
<trkpt lat="53.374823" lon="-1.595573"><ele>293</ele><time>2020-05-21T10:23:11Z</time><name>PT2212</name></trkpt>
<trkpt lat="53.374833" lon="-1.595567"><ele>292</ele><time>2020-05-21T10:23:12Z</time><name>PT2213</name></trkpt>
<trkpt lat="53.374844" lon="-1.595560"><ele>292</ele><time>2020-05-21T10:23:14Z</time><name>PT2214</name></trkpt>
<trkpt lat="53.374856" lon="-1.595549"><ele>292</ele><time>2020-05-21T10:23:14Z</time><name>PT2215</name></trkpt>
<trkpt lat="53.374867" lon="-1.595539"><ele>292</ele><time>2020-05-21T10:23:15Z</time><name>PT2216</name></trkpt>
<trkpt lat="53.374876" lon="-1.595529"><ele>292</ele><time>2020-05-21T10:23:17Z</time><name>PT2217</name></trkpt>
<trkpt lat="53.374884" lon="-1.595521"><ele>292</ele><time>2020-05-21T10:23:17Z</time><name>PT2218</name></trkpt>
<trkpt lat="53.374894" lon="-1.595512"><ele>291</ele><time>2020-05-21T10:23:18Z</time><name>PT2219</name></trkpt>
<trkpt lat="53.374903" lon="-1.595503"><ele>291</ele><time>2020-05-21T10:23:20Z</time><name>PT2220</name></trkpt>
<trkpt lat="53.374911" lon="-1.595497"><ele>291</ele><time>2020-05-21T10:23:20Z</time><name>PT2221</name></trkpt>
<trkpt lat="53.374921" lon="-1.595491"><ele>291</ele><time>2020-05-21T10:23:21Z</time><name>PT2222</name></trkpt>
<trkpt lat="53.374928" lon="-1.595487"><ele>290</ele><time>2020-05-21T10:23:23Z</time><name>PT2223</name></trkpt>
<trkpt lat="53.374937" lon="-1.595484"><ele>290</ele><time>2020-05-21T10:23:23Z</time><name>PT2224</name></trkpt>
<trkpt lat="53.374947" lon="-1.595479"><ele>290</ele><time>2020-05-21T10:23:24Z</time><name>PT2225</name></trkpt>
<trkpt lat="53.374956" lon="-1.595475"><ele>289</ele><time>2020-05-21T10:23:26Z</time><name>PT2226</name></trkpt>
<trkpt lat="53.374963" lon="-1.595469"><ele>289</ele><time>2020-05-21T10:23:26Z</time><name>PT2227</name></trkpt>
<trkpt lat="53.374974" lon="-1.595458"><ele>288</ele><time>2020-05-21T10:23:27Z</time><name>PT2228</name></trkpt>
<trkpt lat="53.374982" lon="-1.595444"><ele>287</ele><time>2020-05-21T10:23:29Z</time><name>PT2229</name></trkpt>
<trkpt lat="53.374991" lon="-1.595438"><ele>287</ele><time>2020-05-21T10:23:29Z</time><name>PT2230</name></trkpt>
<trkpt lat="53.374998" lon="-1.595435"><ele>287</ele><time>2020-05-21T10:23:31Z</time><name>PT2231</name></trkpt>
<trkpt lat="53.375004" lon="-1.595434"><ele>287</ele><time>2020-05-21T10:23:32Z</time><name>PT2232</name></trkpt>
<trkpt lat="53.375011" lon="-1.595429"><ele>286</ele><time>2020-05-21T10:23:32Z</time><name>PT2233</name></trkpt>
<trkpt lat="53.375016" lon="-1.595425"><ele>286</ele><time>2020-05-21T10:23:33Z</time><name>PT2234</name></trkpt>
<trkpt lat="53.375021" lon="-1.595420"><ele>285</ele><time>2020-05-21T10:23:35Z</time><name>PT2235</name></trkpt>
<trkpt lat="53.375025" lon="-1.595415"><ele>285</ele><time>2020-05-21T10:23:35Z</time><name>PT2236</name></trkpt>
<trkpt lat="53.375032" lon="-1.595413"><ele>284</ele><time>2020-05-21T10:23:36Z</time><name>PT2237</name></trkpt>
<trkpt lat="53.375040" lon="-1.595411"><ele>284</ele><time>2020-05-21T10:23:38Z</time><name>PT2238</name></trkpt>
<trkpt lat="53.375044" lon="-1.595407"><ele>283</ele><time>2020-05-21T10:23:38Z</time><name>PT2239</name></trkpt>
<trkpt lat="53.375050" lon="-1.595402"><ele>283</ele><time>2020-05-21T10:23:39Z</time><name>PT2240</name></trkpt>
<trkpt lat="53.375057" lon="-1.595404"><ele>283</ele><time>2020-05-21T10:23:41Z</time><name>PT2241</name></trkpt>
<trkpt lat="53.375071" lon="-1.595401"><ele>283</ele><time>2020-05-21T10:23:41Z</time><name>PT2242</name></trkpt>
<trkpt lat="53.375082" lon="-1.595399"><ele>281</ele><time>2020-05-21T10:23:42Z</time><name>PT2243</name></trkpt>
<trkpt lat="53.375089" lon="-1.595398"><ele>281</ele><time>2020-05-21T10:23:44Z</time><name>PT2244</name></trkpt>
<trkpt lat="53.375103" lon="-1.595386"><ele>282</ele><time>2020-05-21T10:23:44Z</time><name>PT2245</name></trkpt>
<trkpt lat="53.375113" lon="-1.595382"><ele>281</ele><time>2020-05-21T10:23:45Z</time><name>PT2246</name></trkpt>
<trkpt lat="53.375123" lon="-1.595382"><ele>281</ele><time>2020-05-21T10:23:47Z</time><name>PT2247</name></trkpt>
<trkpt lat="53.375129" lon="-1.595379"><ele>282</ele><time>2020-05-21T10:23:47Z</time><name>PT2248</name></trkpt>
<trkpt lat="53.375135" lon="-1.595372"><ele>282</ele><time>2020-05-21T10:23:48Z</time><name>PT2249</name></trkpt>
<trkpt lat="53.375146" lon="-1.595367"><ele>282</ele><time>2020-05-21T10:23:50Z</time><name>PT2250</name></trkpt>
<trkpt lat="53.375157" lon="-1.595360"><ele>282</ele><time>2020-05-21T10:23:50Z</time><name>PT2251</name></trkpt>
<trkpt lat="53.375171" lon="-1.595352"><ele>282</ele><time>2020-05-21T10:23:51Z</time><name>PT2252</name></trkpt>
<trkpt lat="53.375182" lon="-1.595349"><ele>282</ele><time>2020-05-21T10:23:53Z</time><name>PT2253</name></trkpt>
<trkpt lat="53.375193" lon="-1.595341"><ele>282</ele><time>2020-05-21T10:23:53Z</time><name>PT2254</name></trkpt>
<trkpt lat="53.375201" lon="-1.595335"><ele>282</ele><time>2020-05-21T10:23:54Z</time><name>PT2255</name></trkpt>
<trkpt lat="53.375210" lon="-1.595334"><ele>282</ele><time>2020-05-21T10:23:56Z</time><name>PT2256</name></trkpt>
<trkpt lat="53.375216" lon="-1.595330"><ele>282</ele><time>2020-05-21T10:23:56Z</time><name>PT2257</name></trkpt>
<trkpt lat="53.375227" lon="-1.595335"><ele>283</ele><time>2020-05-21T10:23:57Z</time><name>PT2258</name></trkpt>
<trkpt lat="53.375232" lon="-1.595333"><ele>283</ele><time>2020-05-21T10:23:59Z</time><name>PT2259</name></trkpt>
<trkpt lat="53.375235" lon="-1.595333"><ele>283</ele><time>2020-05-21T10:23:59Z</time><name>PT2260</name></trkpt>
<trkpt lat="53.375236" lon="-1.595331"><ele>283</ele><time>2020-05-21T10:24:00Z</time><name>PT2261</name></trkpt>
<trkpt lat="53.375237" lon="-1.595328"><ele>283</ele><time>2020-05-21T10:24:02Z</time><name>PT2262</name></trkpt>
<trkpt lat="53.375235" lon="-1.595325"><ele>284</ele><time>2020-05-21T10:24:02Z</time><name>PT2263</name></trkpt>
<trkpt lat="53.375238" lon="-1.595324"><ele>284</ele><time>2020-05-21T10:24:03Z</time><name>PT2264</name></trkpt>
<trkpt lat="53.375239" lon="-1.595328"><ele>284</ele><time>2020-05-21T10:24:09Z</time><name>PT2265</name></trkpt>
<trkpt lat="53.375246" lon="-1.595328"><ele>284</ele><time>2020-05-21T10:24:11Z</time><name>PT2266</name></trkpt>
<trkpt lat="53.375244" lon="-1.595329"><ele>284</ele><time>2020-05-21T10:24:11Z</time><name>PT2267</name></trkpt>
<trkpt lat="53.375242" lon="-1.595324"><ele>284</ele><time>2020-05-21T10:24:12Z</time><name>PT2268</name></trkpt>
<trkpt lat="53.375244" lon="-1.595313"><ele>284</ele><time>2020-05-21T10:24:14Z</time><name>PT2269</name></trkpt>
<trkpt lat="53.375243" lon="-1.595314"><ele>284</ele><time>2020-05-21T10:24:14Z</time><name>PT2270</name></trkpt>
<trkpt lat="53.375244" lon="-1.595309"><ele>283</ele><time>2020-05-21T10:24:23Z</time><name>PT2271</name></trkpt>
<trkpt lat="53.375242" lon="-1.595294"><ele>283</ele><time>2020-05-21T10:24:24Z</time><name>PT2272</name></trkpt>
<trkpt lat="53.375237" lon="-1.595278"><ele>282</ele><time>2020-05-21T10:24:26Z</time><name>PT2273</name></trkpt>
<trkpt lat="53.375232" lon="-1.595267"><ele>282</ele><time>2020-05-21T10:24:26Z</time><name>PT2274</name></trkpt>
<trkpt lat="53.375229" lon="-1.595257"><ele>282</ele><time>2020-05-21T10:24:27Z</time><name>PT2275</name></trkpt>
<trkpt lat="53.375225" lon="-1.595240"><ele>281</ele><time>2020-05-21T10:24:29Z</time><name>PT2276</name></trkpt>
<trkpt lat="53.375224" lon="-1.595226"><ele>280</ele><time>2020-05-21T10:24:29Z</time><name>PT2277</name></trkpt>
<trkpt lat="53.375223" lon="-1.595212"><ele>281</ele><time>2020-05-21T10:24:30Z</time><name>PT2278</name></trkpt>
<trkpt lat="53.375217" lon="-1.595199"><ele>280</ele><time>2020-05-21T10:24:32Z</time><name>PT2279</name></trkpt>
<trkpt lat="53.375218" lon="-1.595189"><ele>280</ele><time>2020-05-21T10:24:32Z</time><name>PT2280</name></trkpt>
<trkpt lat="53.375221" lon="-1.595184"><ele>280</ele><time>2020-05-21T10:24:33Z</time><name>PT2281</name></trkpt>
<trkpt lat="53.375223" lon="-1.595172"><ele>280</ele><time>2020-05-21T10:24:35Z</time><name>PT2282</name></trkpt>
<trkpt lat="53.375227" lon="-1.595166"><ele>280</ele><time>2020-05-21T10:24:35Z</time><name>PT2283</name></trkpt>
<trkpt lat="53.375230" lon="-1.595161"><ele>280</ele><time>2020-05-21T10:24:36Z</time><name>PT2284</name></trkpt>
<trkpt lat="53.375234" lon="-1.595164"><ele>279</ele><time>2020-05-21T10:24:38Z</time><name>PT2285</name></trkpt>
<trkpt lat="53.375239" lon="-1.595160"><ele>280</ele><time>2020-05-21T10:24:38Z</time><name>PT2286</name></trkpt>
<trkpt lat="53.375245" lon="-1.595158"><ele>280</ele><time>2020-05-21T10:24:39Z</time><name>PT2287</name></trkpt>
<trkpt lat="53.375254" lon="-1.595162"><ele>280</ele><time>2020-05-21T10:24:41Z</time><name>PT2288</name></trkpt>
<trkpt lat="53.375259" lon="-1.595169"><ele>280</ele><time>2020-05-21T10:24:41Z</time><name>PT2289</name></trkpt>
<trkpt lat="53.375267" lon="-1.595175"><ele>281</ele><time>2020-05-21T10:24:42Z</time><name>PT2290</name></trkpt>
<trkpt lat="53.375273" lon="-1.595178"><ele>281</ele><time>2020-05-21T10:24:44Z</time><name>PT2291</name></trkpt>
<trkpt lat="53.375276" lon="-1.595180"><ele>282</ele><time>2020-05-21T10:24:44Z</time><name>PT2292</name></trkpt>
<trkpt lat="53.375279" lon="-1.595180"><ele>282</ele><time>2020-05-21T10:24:45Z</time><name>PT2293</name></trkpt>
<trkpt lat="53.375282" lon="-1.595180"><ele>282</ele><time>2020-05-21T10:24:47Z</time><name>PT2294</name></trkpt>
<trkpt lat="53.375287" lon="-1.595186"><ele>282</ele><time>2020-05-21T10:24:47Z</time><name>PT2295</name></trkpt>
<trkpt lat="53.375294" lon="-1.595192"><ele>282</ele><time>2020-05-21T10:24:48Z</time><name>PT2296</name></trkpt>
<trkpt lat="53.375301" lon="-1.595202"><ele>282</ele><time>2020-05-21T10:24:50Z</time><name>PT2297</name></trkpt>
<trkpt lat="53.375310" lon="-1.595214"><ele>282</ele><time>2020-05-21T10:24:50Z</time><name>PT2298</name></trkpt>
<trkpt lat="53.375320" lon="-1.595220"><ele>282</ele><time>2020-05-21T10:24:51Z</time><name>PT2299</name></trkpt>
<trkpt lat="53.375329" lon="-1.595228"><ele>282</ele><time>2020-05-21T10:24:53Z</time><name>PT2300</name></trkpt>
<trkpt lat="53.375328" lon="-1.595238"><ele>283</ele><time>2020-05-21T10:24:53Z</time><name>PT2301</name></trkpt>
<trkpt lat="53.375330" lon="-1.595258"><ele>283</ele><time>2020-05-21T10:24:54Z</time><name>PT2302</name></trkpt>
<trkpt lat="53.375334" lon="-1.595269"><ele>284</ele><time>2020-05-21T10:24:56Z</time><name>PT2303</name></trkpt>
<trkpt lat="53.375342" lon="-1.595276"><ele>285</ele><time>2020-05-21T10:24:56Z</time><name>PT2304</name></trkpt>
<trkpt lat="53.375349" lon="-1.595286"><ele>285</ele><time>2020-05-21T10:24:58Z</time><name>PT2305</name></trkpt>
<trkpt lat="53.375358" lon="-1.595295"><ele>286</ele><time>2020-05-21T10:24:59Z</time><name>PT2306</name></trkpt>
<trkpt lat="53.375370" lon="-1.595305"><ele>288</ele><time>2020-05-21T10:24:59Z</time><name>PT2307</name></trkpt>
<trkpt lat="53.375374" lon="-1.595310"><ele>288</ele><time>2020-05-21T10:25:00Z</time><name>PT2308</name></trkpt>
<trkpt lat="53.375380" lon="-1.595315"><ele>287</ele><time>2020-05-21T10:25:02Z</time><name>PT2309</name></trkpt>
<trkpt lat="53.375386" lon="-1.595322"><ele>287</ele><time>2020-05-21T10:25:02Z</time><name>PT2310</name></trkpt>
<trkpt lat="53.375389" lon="-1.595326"><ele>288</ele><time>2020-05-21T10:25:03Z</time><name>PT2311</name></trkpt>
<trkpt lat="53.375393" lon="-1.595333"><ele>288</ele><time>2020-05-21T10:25:05Z</time><name>PT2312</name></trkpt>
<trkpt lat="53.375398" lon="-1.595339"><ele>288</ele><time>2020-05-21T10:25:05Z</time><name>PT2313</name></trkpt>
<trkpt lat="53.375405" lon="-1.595350"><ele>288</ele><time>2020-05-21T10:25:06Z</time><name>PT2314</name></trkpt>
<trkpt lat="53.375410" lon="-1.595360"><ele>288</ele><time>2020-05-21T10:25:08Z</time><name>PT2315</name></trkpt>
<trkpt lat="53.375412" lon="-1.595368"><ele>288</ele><time>2020-05-21T10:25:08Z</time><name>PT2316</name></trkpt>
<trkpt lat="53.375415" lon="-1.595373"><ele>288</ele><time>2020-05-21T10:25:09Z</time><name>PT2317</name></trkpt>
<trkpt lat="53.375416" lon="-1.595377"><ele>288</ele><time>2020-05-21T10:25:10Z</time><name>PT2318</name></trkpt>
<trkpt lat="53.375417" lon="-1.595379"><ele>288</ele><time>2020-05-21T10:25:11Z</time><name>PT2319</name></trkpt>
<trkpt lat="53.375416" lon="-1.595379"><ele>288</ele><time>2020-05-21T10:25:13Z</time><name>PT2320</name></trkpt>
<trkpt lat="53.375418" lon="-1.595386"><ele>287</ele><time>2020-05-21T10:25:14Z</time><name>PT2321</name></trkpt>
<trkpt lat="53.375409" lon="-1.595378"><ele>287</ele><time>2020-05-21T10:25:16Z</time><name>PT2322</name></trkpt>
<trkpt lat="53.375396" lon="-1.595369"><ele>287</ele><time>2020-05-21T10:25:16Z</time><name>PT2323</name></trkpt>
<trkpt lat="53.375389" lon="-1.595358"><ele>287</ele><time>2020-05-21T10:25:17Z</time><name>PT2324</name></trkpt>
<trkpt lat="53.375383" lon="-1.595345"><ele>287</ele><time>2020-05-21T10:25:19Z</time><name>PT2325</name></trkpt>
<trkpt lat="53.375376" lon="-1.595334"><ele>286</ele><time>2020-05-21T10:25:19Z</time><name>PT2326</name></trkpt>
<trkpt lat="53.375366" lon="-1.595330"><ele>286</ele><time>2020-05-21T10:25:20Z</time><name>PT2327</name></trkpt>
<trkpt lat="53.375359" lon="-1.595330"><ele>285</ele><time>2020-05-21T10:25:22Z</time><name>PT2328</name></trkpt>
<trkpt lat="53.375356" lon="-1.595328"><ele>284</ele><time>2020-05-21T10:25:22Z</time><name>PT2329</name></trkpt>
<trkpt lat="53.375351" lon="-1.595326"><ele>284</ele><time>2020-05-21T10:25:23Z</time><name>PT2330</name></trkpt>
<trkpt lat="53.375347" lon="-1.595326"><ele>283</ele><time>2020-05-21T10:25:25Z</time><name>PT2331</name></trkpt>
<trkpt lat="53.375344" lon="-1.595326"><ele>283</ele><time>2020-05-21T10:25:25Z</time><name>PT2332</name></trkpt>
<trkpt lat="53.375341" lon="-1.595328"><ele>283</ele><time>2020-05-21T10:25:28Z</time><name>PT2333</name></trkpt>
<trkpt lat="53.375339" lon="-1.595331"><ele>282</ele><time>2020-05-21T10:25:28Z</time><name>PT2334</name></trkpt>
<trkpt lat="53.375333" lon="-1.595338"><ele>281</ele><time>2020-05-21T10:25:29Z</time><name>PT2335</name></trkpt>
<trkpt lat="53.375324" lon="-1.595340"><ele>281</ele><time>2020-05-21T10:25:31Z</time><name>PT2336</name></trkpt>
<trkpt lat="53.375316" lon="-1.595335"><ele>280</ele><time>2020-05-21T10:25:31Z</time><name>PT2337</name></trkpt>
<trkpt lat="53.375311" lon="-1.595334"><ele>279</ele><time>2020-05-21T10:25:32Z</time><name>PT2338</name></trkpt>
<trkpt lat="53.375302" lon="-1.595333"><ele>278</ele><time>2020-05-21T10:25:34Z</time><name>PT2339</name></trkpt>
<trkpt lat="53.375292" lon="-1.595326"><ele>278</ele><time>2020-05-21T10:25:34Z</time><name>PT2340</name></trkpt>
<trkpt lat="53.375287" lon="-1.595326"><ele>277</ele><time>2020-05-21T10:25:35Z</time><name>PT2341</name></trkpt>
<trkpt lat="53.375283" lon="-1.595325"><ele>276</ele><time>2020-05-21T10:25:37Z</time><name>PT2342</name></trkpt>
<trkpt lat="53.375281" lon="-1.595325"><ele>276</ele><time>2020-05-21T10:25:37Z</time><name>PT2343</name></trkpt>
<trkpt lat="53.375275" lon="-1.595321"><ele>275</ele><time>2020-05-21T10:25:38Z</time><name>PT2344</name></trkpt>
<trkpt lat="53.375259" lon="-1.595302"><ele>275</ele><time>2020-05-21T10:25:40Z</time><name>PT2345</name></trkpt>
<trkpt lat="53.375250" lon="-1.595294"><ele>277</ele><time>2020-05-21T10:25:40Z</time><name>PT2346</name></trkpt>
<trkpt lat="53.375243" lon="-1.595293"><ele>277</ele><time>2020-05-21T10:25:41Z</time><name>PT2347</name></trkpt>
<trkpt lat="53.375242" lon="-1.595284"><ele>276</ele><time>2020-05-21T10:25:46Z</time><name>PT2348</name></trkpt>
<trkpt lat="53.375239" lon="-1.595271"><ele>276</ele><time>2020-05-21T10:25:46Z</time><name>PT2349</name></trkpt>
<trkpt lat="53.375241" lon="-1.595269"><ele>275</ele><time>2020-05-21T10:25:47Z</time><name>PT2350</name></trkpt>
<trkpt lat="53.375245" lon="-1.595251"><ele>275</ele><time>2020-05-21T10:25:49Z</time><name>PT2351</name></trkpt>
<trkpt lat="53.375245" lon="-1.595240"><ele>275</ele><time>2020-05-21T10:25:49Z</time><name>PT2352</name></trkpt>
<trkpt lat="53.375242" lon="-1.595236"><ele>274</ele><time>2020-05-21T10:25:50Z</time><name>PT2353</name></trkpt>
<trkpt lat="53.375229" lon="-1.595224"><ele>273</ele><time>2020-05-21T10:25:52Z</time><name>PT2354</name></trkpt>
<trkpt lat="53.375223" lon="-1.595221"><ele>272</ele><time>2020-05-21T10:25:52Z</time><name>PT2355</name></trkpt>
<trkpt lat="53.375215" lon="-1.595211"><ele>272</ele><time>2020-05-21T10:25:53Z</time><name>PT2356</name></trkpt>
<trkpt lat="53.375208" lon="-1.595198"><ele>272</ele><time>2020-05-21T10:25:55Z</time><name>PT2357</name></trkpt>
<trkpt lat="53.375207" lon="-1.595177"><ele>272</ele><time>2020-05-21T10:25:55Z</time><name>PT2358</name></trkpt>
<trkpt lat="53.375201" lon="-1.595167"><ele>272</ele><time>2020-05-21T10:25:56Z</time><name>PT2359</name></trkpt>
<trkpt lat="53.375195" lon="-1.595161"><ele>272</ele><time>2020-05-21T10:25:58Z</time><name>PT2360</name></trkpt>
<trkpt lat="53.375195" lon="-1.595144"><ele>272</ele><time>2020-05-21T10:25:58Z</time><name>PT2361</name></trkpt>
<trkpt lat="53.375190" lon="-1.595134"><ele>272</ele><time>2020-05-21T10:25:59Z</time><name>PT2362</name></trkpt>
<trkpt lat="53.375185" lon="-1.595120"><ele>273</ele><time>2020-05-21T10:26:01Z</time><name>PT2363</name></trkpt>
<trkpt lat="53.375179" lon="-1.595093"><ele>272</ele><time>2020-05-21T10:26:01Z</time><name>PT2364</name></trkpt>
<trkpt lat="53.375173" lon="-1.595078"><ele>272</ele><time>2020-05-21T10:26:02Z</time><name>PT2365</name></trkpt>
<trkpt lat="53.375167" lon="-1.595067"><ele>272</ele><time>2020-05-21T10:26:04Z</time><name>PT2366</name></trkpt>
<trkpt lat="53.375163" lon="-1.595045"><ele>274</ele><time>2020-05-21T10:26:04Z</time><name>PT2367</name></trkpt>
<trkpt lat="53.375162" lon="-1.595029"><ele>275</ele><time>2020-05-21T10:26:05Z</time><name>PT2368</name></trkpt>
<trkpt lat="53.375166" lon="-1.595023"><ele>277</ele><time>2020-05-21T10:26:07Z</time><name>PT2369</name></trkpt>
<trkpt lat="53.375163" lon="-1.595006"><ele>277</ele><time>2020-05-21T10:26:07Z</time><name>PT2370</name></trkpt>
<trkpt lat="53.375164" lon="-1.594989"><ele>277</ele><time>2020-05-21T10:26:08Z</time><name>PT2371</name></trkpt>
<trkpt lat="53.375164" lon="-1.594967"><ele>276</ele><time>2020-05-21T10:26:10Z</time><name>PT2372</name></trkpt>
<trkpt lat="53.375157" lon="-1.594949"><ele>276</ele><time>2020-05-21T10:26:10Z</time><name>PT2373</name></trkpt>
<trkpt lat="53.375157" lon="-1.594930"><ele>276</ele><time>2020-05-21T10:26:11Z</time><name>PT2374</name></trkpt>
<trkpt lat="53.375157" lon="-1.594918"><ele>276</ele><time>2020-05-21T10:26:13Z</time><name>PT2375</name></trkpt>
<trkpt lat="53.375159" lon="-1.594906"><ele>276</ele><time>2020-05-21T10:26:13Z</time><name>PT2376</name></trkpt>
<trkpt lat="53.375159" lon="-1.594897"><ele>276</ele><time>2020-05-21T10:26:14Z</time><name>PT2377</name></trkpt>
<trkpt lat="53.375161" lon="-1.594888"><ele>277</ele><time>2020-05-21T10:26:16Z</time><name>PT2378</name></trkpt>
<trkpt lat="53.375158" lon="-1.594879"><ele>276</ele><time>2020-05-21T10:26:16Z</time><name>PT2379</name></trkpt>
<trkpt lat="53.375158" lon="-1.594871"><ele>276</ele><time>2020-05-21T10:26:17Z</time><name>PT2380</name></trkpt>
<trkpt lat="53.375158" lon="-1.594861"><ele>276</ele><time>2020-05-21T10:26:19Z</time><name>PT2381</name></trkpt>
<trkpt lat="53.375162" lon="-1.594847"><ele>276</ele><time>2020-05-21T10:26:19Z</time><name>PT2382</name></trkpt>
<trkpt lat="53.375157" lon="-1.594832"><ele>276</ele><time>2020-05-21T10:26:20Z</time><name>PT2383</name></trkpt>
<trkpt lat="53.375156" lon="-1.594823"><ele>276</ele><time>2020-05-21T10:26:22Z</time><name>PT2384</name></trkpt>
<trkpt lat="53.375156" lon="-1.594807"><ele>277</ele><time>2020-05-21T10:26:22Z</time><name>PT2385</name></trkpt>
<trkpt lat="53.375161" lon="-1.594793"><ele>278</ele><time>2020-05-21T10:26:23Z</time><name>PT2386</name></trkpt>
<trkpt lat="53.375166" lon="-1.594777"><ele>277</ele><time>2020-05-21T10:26:25Z</time><name>PT2387</name></trkpt>
<trkpt lat="53.375168" lon="-1.594762"><ele>277</ele><time>2020-05-21T10:26:25Z</time><name>PT2388</name></trkpt>
<trkpt lat="53.375170" lon="-1.594746"><ele>277</ele><time>2020-05-21T10:26:26Z</time><name>PT2389</name></trkpt>
<trkpt lat="53.375168" lon="-1.594735"><ele>277</ele><time>2020-05-21T10:26:28Z</time><name>PT2390</name></trkpt>
<trkpt lat="53.375171" lon="-1.594708"><ele>277</ele><time>2020-05-21T10:26:28Z</time><name>PT2391</name></trkpt>
<trkpt lat="53.375174" lon="-1.594701"><ele>277</ele><time>2020-05-21T10:26:29Z</time><name>PT2392</name></trkpt>
<trkpt lat="53.375175" lon="-1.594681"><ele>276</ele><time>2020-05-21T10:26:31Z</time><name>PT2393</name></trkpt>
<trkpt lat="53.375177" lon="-1.594668"><ele>276</ele><time>2020-05-21T10:26:31Z</time><name>PT2394</name></trkpt>
<trkpt lat="53.375178" lon="-1.594643"><ele>277</ele><time>2020-05-21T10:26:32Z</time><name>PT2395</name></trkpt>
<trkpt lat="53.375176" lon="-1.594624"><ele>277</ele><time>2020-05-21T10:26:34Z</time><name>PT2396</name></trkpt>
<trkpt lat="53.375170" lon="-1.594611"><ele>278</ele><time>2020-05-21T10:26:34Z</time><name>PT2397</name></trkpt>
<trkpt lat="53.375167" lon="-1.594595"><ele>278</ele><time>2020-05-21T10:26:35Z</time><name>PT2398</name></trkpt>
<trkpt lat="53.375170" lon="-1.594585"><ele>278</ele><time>2020-05-21T10:26:37Z</time><name>PT2399</name></trkpt>
<trkpt lat="53.375170" lon="-1.594565"><ele>278</ele><time>2020-05-21T10:26:37Z</time><name>PT2400</name></trkpt>
<trkpt lat="53.375168" lon="-1.594550"><ele>277</ele><time>2020-05-21T10:26:38Z</time><name>PT2401</name></trkpt>
<trkpt lat="53.375165" lon="-1.594534"><ele>277</ele><time>2020-05-21T10:26:40Z</time><name>PT2402</name></trkpt>
<trkpt lat="53.375164" lon="-1.594521"><ele>278</ele><time>2020-05-21T10:26:40Z</time><name>PT2403</name></trkpt>
<trkpt lat="53.375158" lon="-1.594509"><ele>278</ele><time>2020-05-21T10:26:41Z</time><name>PT2404</name></trkpt>
<trkpt lat="53.375150" lon="-1.594491"><ele>279</ele><time>2020-05-21T10:26:43Z</time><name>PT2405</name></trkpt>
<trkpt lat="53.375139" lon="-1.594477"><ele>279</ele><time>2020-05-21T10:26:43Z</time><name>PT2406</name></trkpt>
<trkpt lat="53.375131" lon="-1.594468"><ele>280</ele><time>2020-05-21T10:26:44Z</time><name>PT2407</name></trkpt>
<trkpt lat="53.375124" lon="-1.594459"><ele>280</ele><time>2020-05-21T10:26:46Z</time><name>PT2408</name></trkpt>
<trkpt lat="53.375119" lon="-1.594449"><ele>280</ele><time>2020-05-21T10:26:46Z</time><name>PT2409</name></trkpt>
<trkpt lat="53.375111" lon="-1.594426"><ele>281</ele><time>2020-05-21T10:26:47Z</time><name>PT2410</name></trkpt>
<trkpt lat="53.375103" lon="-1.594401"><ele>282</ele><time>2020-05-21T10:26:49Z</time><name>PT2411</name></trkpt>
<trkpt lat="53.375100" lon="-1.594380"><ele>282</ele><time>2020-05-21T10:26:49Z</time><name>PT2412</name></trkpt>
<trkpt lat="53.375094" lon="-1.594353"><ele>283</ele><time>2020-05-21T10:26:50Z</time><name>PT2413</name></trkpt>
<trkpt lat="53.375087" lon="-1.594304"><ele>284</ele><time>2020-05-21T10:26:52Z</time><name>PT2414</name></trkpt>
<trkpt lat="53.375081" lon="-1.594291"><ele>285</ele><time>2020-05-21T10:26:52Z</time><name>PT2415</name></trkpt>
<trkpt lat="53.375084" lon="-1.594280"><ele>285</ele><time>2020-05-21T10:26:53Z</time><name>PT2416</name></trkpt>
<trkpt lat="53.375088" lon="-1.594274"><ele>286</ele><time>2020-05-21T10:26:55Z</time><name>PT2417</name></trkpt>
<trkpt lat="53.375092" lon="-1.594273"><ele>285</ele><time>2020-05-21T10:26:55Z</time><name>PT2418</name></trkpt>
<trkpt lat="53.375098" lon="-1.594277"><ele>285</ele><time>2020-05-21T10:26:56Z</time><name>PT2419</name></trkpt>
<trkpt lat="53.375104" lon="-1.594272"><ele>286</ele><time>2020-05-21T10:26:58Z</time><name>PT2420</name></trkpt>
<trkpt lat="53.375108" lon="-1.594268"><ele>286</ele><time>2020-05-21T10:26:58Z</time><name>PT2421</name></trkpt>
<trkpt lat="53.375114" lon="-1.594265"><ele>286</ele><time>2020-05-21T10:26:59Z</time><name>PT2422</name></trkpt>
<trkpt lat="53.375117" lon="-1.594259"><ele>286</ele><time>2020-05-21T10:27:01Z</time><name>PT2423</name></trkpt>
<trkpt lat="53.375126" lon="-1.594260"><ele>285</ele><time>2020-05-21T10:27:01Z</time><name>PT2424</name></trkpt>
<trkpt lat="53.375131" lon="-1.594258"><ele>286</ele><time>2020-05-21T10:27:02Z</time><name>PT2425</name></trkpt>
<trkpt lat="53.375130" lon="-1.594245"><ele>286</ele><time>2020-05-21T10:27:03Z</time><name>PT2426</name></trkpt>
<trkpt lat="53.375136" lon="-1.594237"><ele>286</ele><time>2020-05-21T10:27:04Z</time><name>PT2427</name></trkpt>
<trkpt lat="53.375143" lon="-1.594234"><ele>286</ele><time>2020-05-21T10:27:06Z</time><name>PT2428</name></trkpt>
<trkpt lat="53.375152" lon="-1.594233"><ele>286</ele><time>2020-05-21T10:27:06Z</time><name>PT2429</name></trkpt>
<trkpt lat="53.375158" lon="-1.594229"><ele>285</ele><time>2020-05-21T10:27:07Z</time><name>PT2430</name></trkpt>
<trkpt lat="53.375162" lon="-1.594227"><ele>285</ele><time>2020-05-21T10:27:09Z</time><name>PT2431</name></trkpt>
<trkpt lat="53.375170" lon="-1.594223"><ele>285</ele><time>2020-05-21T10:27:09Z</time><name>PT2432</name></trkpt>
<trkpt lat="53.375178" lon="-1.594216"><ele>285</ele><time>2020-05-21T10:27:10Z</time><name>PT2433</name></trkpt>
<trkpt lat="53.375186" lon="-1.594208"><ele>285</ele><time>2020-05-21T10:27:12Z</time><name>PT2434</name></trkpt>
<trkpt lat="53.375191" lon="-1.594200"><ele>285</ele><time>2020-05-21T10:27:12Z</time><name>PT2435</name></trkpt>
<trkpt lat="53.375200" lon="-1.594196"><ele>285</ele><time>2020-05-21T10:27:13Z</time><name>PT2436</name></trkpt>
<trkpt lat="53.375209" lon="-1.594195"><ele>285</ele><time>2020-05-21T10:27:15Z</time><name>PT2437</name></trkpt>
<trkpt lat="53.375217" lon="-1.594194"><ele>285</ele><time>2020-05-21T10:27:15Z</time><name>PT2438</name></trkpt>
<trkpt lat="53.375222" lon="-1.594192"><ele>285</ele><time>2020-05-21T10:27:16Z</time><name>PT2439</name></trkpt>
<trkpt lat="53.375230" lon="-1.594190"><ele>284</ele><time>2020-05-21T10:27:18Z</time><name>PT2440</name></trkpt>
<trkpt lat="53.375241" lon="-1.594183"><ele>284</ele><time>2020-05-21T10:27:18Z</time><name>PT2441</name></trkpt>
<trkpt lat="53.375250" lon="-1.594179"><ele>284</ele><time>2020-05-21T10:27:19Z</time><name>PT2442</name></trkpt>
<trkpt lat="53.375256" lon="-1.594176"><ele>284</ele><time>2020-05-21T10:27:21Z</time><name>PT2443</name></trkpt>
<trkpt lat="53.375267" lon="-1.594169"><ele>284</ele><time>2020-05-21T10:27:21Z</time><name>PT2444</name></trkpt>
<trkpt lat="53.375275" lon="-1.594164"><ele>283</ele><time>2020-05-21T10:27:22Z</time><name>PT2445</name></trkpt>
<trkpt lat="53.375279" lon="-1.594160"><ele>283</ele><time>2020-05-21T10:27:24Z</time><name>PT2446</name></trkpt>
<trkpt lat="53.375283" lon="-1.594157"><ele>282</ele><time>2020-05-21T10:27:24Z</time><name>PT2447</name></trkpt>
<trkpt lat="53.375291" lon="-1.594158"><ele>282</ele><time>2020-05-21T10:27:25Z</time><name>PT2448</name></trkpt>
<trkpt lat="53.375302" lon="-1.594153"><ele>282</ele><time>2020-05-21T10:27:27Z</time><name>PT2449</name></trkpt>
<trkpt lat="53.375306" lon="-1.594149"><ele>281</ele><time>2020-05-21T10:27:27Z</time><name>PT2450</name></trkpt>
<trkpt lat="53.375311" lon="-1.594142"><ele>280</ele><time>2020-05-21T10:27:28Z</time><name>PT2451</name></trkpt>
<trkpt lat="53.375321" lon="-1.594132"><ele>280</ele><time>2020-05-21T10:27:30Z</time><name>PT2452</name></trkpt>
<trkpt lat="53.375329" lon="-1.594120"><ele>280</ele><time>2020-05-21T10:27:30Z</time><name>PT2453</name></trkpt>
<trkpt lat="53.375335" lon="-1.594109"><ele>280</ele><time>2020-05-21T10:27:31Z</time><name>PT2454</name></trkpt>
<trkpt lat="53.375344" lon="-1.594097"><ele>280</ele><time>2020-05-21T10:27:33Z</time><name>PT2455</name></trkpt>
<trkpt lat="53.375351" lon="-1.594089"><ele>281</ele><time>2020-05-21T10:27:33Z</time><name>PT2456</name></trkpt>
<trkpt lat="53.375359" lon="-1.594077"><ele>280</ele><time>2020-05-21T10:27:34Z</time><name>PT2457</name></trkpt>
<trkpt lat="53.375365" lon="-1.594062"><ele>280</ele><time>2020-05-21T10:27:36Z</time><name>PT2458</name></trkpt>
<trkpt lat="53.375372" lon="-1.594048"><ele>280</ele><time>2020-05-21T10:27:36Z</time><name>PT2459</name></trkpt>
<trkpt lat="53.375375" lon="-1.594036"><ele>280</ele><time>2020-05-21T10:27:37Z</time><name>PT2460</name></trkpt>
<trkpt lat="53.375380" lon="-1.594025"><ele>279</ele><time>2020-05-21T10:27:39Z</time><name>PT2461</name></trkpt>
<trkpt lat="53.375380" lon="-1.594018"><ele>279</ele><time>2020-05-21T10:27:39Z</time><name>PT2462</name></trkpt>
<trkpt lat="53.375383" lon="-1.594011"><ele>280</ele><time>2020-05-21T10:27:40Z</time><name>PT2463</name></trkpt>
<trkpt lat="53.375382" lon="-1.594003"><ele>280</ele><time>2020-05-21T10:27:42Z</time><name>PT2464</name></trkpt>
<trkpt lat="53.375380" lon="-1.593995"><ele>280</ele><time>2020-05-21T10:27:42Z</time><name>PT2465</name></trkpt>
<trkpt lat="53.375383" lon="-1.593984"><ele>280</ele><time>2020-05-21T10:27:43Z</time><name>PT2466</name></trkpt>
<trkpt lat="53.375389" lon="-1.593973"><ele>279</ele><time>2020-05-21T10:27:45Z</time><name>PT2467</name></trkpt>
<trkpt lat="53.375394" lon="-1.593962"><ele>279</ele><time>2020-05-21T10:27:45Z</time><name>PT2468</name></trkpt>
<trkpt lat="53.375402" lon="-1.593950"><ele>279</ele><time>2020-05-21T10:27:46Z</time><name>PT2469</name></trkpt>
<trkpt lat="53.375407" lon="-1.593945"><ele>278</ele><time>2020-05-21T10:27:48Z</time><name>PT2470</name></trkpt>
<trkpt lat="53.375409" lon="-1.593943"><ele>278</ele><time>2020-05-21T10:27:48Z</time><name>PT2471</name></trkpt>
<trkpt lat="53.375409" lon="-1.593937"><ele>277</ele><time>2020-05-21T10:27:49Z</time><name>PT2472</name></trkpt>
<trkpt lat="53.375409" lon="-1.593931"><ele>277</ele><time>2020-05-21T10:27:51Z</time><name>PT2473</name></trkpt>
<trkpt lat="53.375415" lon="-1.593930"><ele>277</ele><time>2020-05-21T10:27:51Z</time><name>PT2474</name></trkpt>
<trkpt lat="53.375422" lon="-1.593910"><ele>277</ele><time>2020-05-21T10:27:52Z</time><name>PT2475</name></trkpt>
<trkpt lat="53.375434" lon="-1.593883"><ele>276</ele><time>2020-05-21T10:27:54Z</time><name>PT2476</name></trkpt>
<trkpt lat="53.375436" lon="-1.593862"><ele>275</ele><time>2020-05-21T10:27:54Z</time><name>PT2477</name></trkpt>
<trkpt lat="53.375442" lon="-1.593839"><ele>275</ele><time>2020-05-21T10:27:55Z</time><name>PT2478</name></trkpt>
<trkpt lat="53.375451" lon="-1.593814"><ele>274</ele><time>2020-05-21T10:27:57Z</time><name>PT2479</name></trkpt>
<trkpt lat="53.375463" lon="-1.593788"><ele>274</ele><time>2020-05-21T10:27:57Z</time><name>PT2480</name></trkpt>
<trkpt lat="53.375468" lon="-1.593767"><ele>273</ele><time>2020-05-21T10:27:58Z</time><name>PT2481</name></trkpt>
<trkpt lat="53.375475" lon="-1.593747"><ele>273</ele><time>2020-05-21T10:28:00Z</time><name>PT2482</name></trkpt>
<trkpt lat="53.375483" lon="-1.593733"><ele>273</ele><time>2020-05-21T10:28:00Z</time><name>PT2483</name></trkpt>
<trkpt lat="53.375487" lon="-1.593719"><ele>273</ele><time>2020-05-21T10:28:01Z</time><name>PT2484</name></trkpt>
<trkpt lat="53.375489" lon="-1.593703"><ele>274</ele><time>2020-05-21T10:28:03Z</time><name>PT2485</name></trkpt>
<trkpt lat="53.375494" lon="-1.593688"><ele>273</ele><time>2020-05-21T10:28:03Z</time><name>PT2486</name></trkpt>
<trkpt lat="53.375502" lon="-1.593669"><ele>273</ele><time>2020-05-21T10:28:04Z</time><name>PT2487</name></trkpt>
<trkpt lat="53.375505" lon="-1.593658"><ele>273</ele><time>2020-05-21T10:28:06Z</time><name>PT2488</name></trkpt>
<trkpt lat="53.375514" lon="-1.593651"><ele>273</ele><time>2020-05-21T10:28:06Z</time><name>PT2489</name></trkpt>
<trkpt lat="53.375523" lon="-1.593645"><ele>273</ele><time>2020-05-21T10:28:07Z</time><name>PT2490</name></trkpt>
<trkpt lat="53.375523" lon="-1.593642"><ele>273</ele><time>2020-05-21T10:28:09Z</time><name>PT2491</name></trkpt>
<trkpt lat="53.375530" lon="-1.593640"><ele>274</ele><time>2020-05-21T10:28:09Z</time><name>PT2492</name></trkpt>
<trkpt lat="53.375538" lon="-1.593631"><ele>273</ele><time>2020-05-21T10:28:10Z</time><name>PT2493</name></trkpt>
<trkpt lat="53.375547" lon="-1.593624"><ele>273</ele><time>2020-05-21T10:28:12Z</time><name>PT2494</name></trkpt>
<trkpt lat="53.375553" lon="-1.593618"><ele>272</ele><time>2020-05-21T10:28:12Z</time><name>PT2495</name></trkpt>
<trkpt lat="53.375561" lon="-1.593613"><ele>272</ele><time>2020-05-21T10:28:14Z</time><name>PT2496</name></trkpt>
<trkpt lat="53.375566" lon="-1.593610"><ele>271</ele><time>2020-05-21T10:28:15Z</time><name>PT2497</name></trkpt>
<trkpt lat="53.375572" lon="-1.593604"><ele>270</ele><time>2020-05-21T10:28:15Z</time><name>PT2498</name></trkpt>
<trkpt lat="53.375579" lon="-1.593598"><ele>270</ele><time>2020-05-21T10:28:16Z</time><name>PT2499</name></trkpt>
<trkpt lat="53.375583" lon="-1.593592"><ele>269</ele><time>2020-05-21T10:28:18Z</time><name>PT2500</name></trkpt>
<trkpt lat="53.375589" lon="-1.593583"><ele>269</ele><time>2020-05-21T10:28:18Z</time><name>PT2501</name></trkpt>
<trkpt lat="53.375597" lon="-1.593574"><ele>270</ele><time>2020-05-21T10:28:19Z</time><name>PT2502</name></trkpt>
<trkpt lat="53.375597" lon="-1.593568"><ele>270</ele><time>2020-05-21T10:28:21Z</time><name>PT2503</name></trkpt>
<trkpt lat="53.375609" lon="-1.593562"><ele>272</ele><time>2020-05-21T10:28:21Z</time><name>PT2504</name></trkpt>
<trkpt lat="53.375625" lon="-1.593560"><ele>272</ele><time>2020-05-21T10:28:22Z</time><name>PT2505</name></trkpt>
<trkpt lat="53.375632" lon="-1.593552"><ele>273</ele><time>2020-05-21T10:28:24Z</time><name>PT2506</name></trkpt>
<trkpt lat="53.375632" lon="-1.593549"><ele>273</ele><time>2020-05-21T10:28:24Z</time><name>PT2507</name></trkpt>
<trkpt lat="53.375637" lon="-1.593541"><ele>272</ele><time>2020-05-21T10:28:25Z</time><name>PT2508</name></trkpt>
<trkpt lat="53.375642" lon="-1.593539"><ele>272</ele><time>2020-05-21T10:28:27Z</time><name>PT2509</name></trkpt>
<trkpt lat="53.375647" lon="-1.593539"><ele>272</ele><time>2020-05-21T10:28:27Z</time><name>PT2510</name></trkpt>
<trkpt lat="53.375651" lon="-1.593536"><ele>271</ele><time>2020-05-21T10:28:28Z</time><name>PT2511</name></trkpt>
<trkpt lat="53.375656" lon="-1.593532"><ele>271</ele><time>2020-05-21T10:28:30Z</time><name>PT2512</name></trkpt>
<trkpt lat="53.375654" lon="-1.593526"><ele>270</ele><time>2020-05-21T10:28:30Z</time><name>PT2513</name></trkpt>
<trkpt lat="53.375656" lon="-1.593515"><ele>270</ele><time>2020-05-21T10:28:31Z</time><name>PT2514</name></trkpt>
<trkpt lat="53.375666" lon="-1.593508"><ele>269</ele><time>2020-05-21T10:28:33Z</time><name>PT2515</name></trkpt>
<trkpt lat="53.375673" lon="-1.593492"><ele>269</ele><time>2020-05-21T10:28:33Z</time><name>PT2516</name></trkpt>
<trkpt lat="53.375676" lon="-1.593475"><ele>269</ele><time>2020-05-21T10:28:34Z</time><name>PT2517</name></trkpt>
<trkpt lat="53.375679" lon="-1.593478"><ele>267</ele><time>2020-05-21T10:28:36Z</time><name>PT2518</name></trkpt>
<trkpt lat="53.375682" lon="-1.593469"><ele>266</ele><time>2020-05-21T10:28:36Z</time><name>PT2519</name></trkpt>
<trkpt lat="53.375685" lon="-1.593472"><ele>265</ele><time>2020-05-21T10:28:37Z</time><name>PT2520</name></trkpt>
<trkpt lat="53.375691" lon="-1.593466"><ele>265</ele><time>2020-05-21T10:28:39Z</time><name>PT2521</name></trkpt>
<trkpt lat="53.375695" lon="-1.593463"><ele>265</ele><time>2020-05-21T10:28:39Z</time><name>PT2522</name></trkpt>
<trkpt lat="53.375698" lon="-1.593466"><ele>264</ele><time>2020-05-21T10:28:40Z</time><name>PT2523</name></trkpt>
<trkpt lat="53.375703" lon="-1.593469"><ele>264</ele><time>2020-05-21T10:28:42Z</time><name>PT2524</name></trkpt>
<trkpt lat="53.375706" lon="-1.593473"><ele>263</ele><time>2020-05-21T10:28:42Z</time><name>PT2525</name></trkpt>
<trkpt lat="53.375711" lon="-1.593476"><ele>263</ele><time>2020-05-21T10:28:43Z</time><name>PT2526</name></trkpt>
<trkpt lat="53.375711" lon="-1.593475"><ele>262</ele><time>2020-05-21T10:28:45Z</time><name>PT2527</name></trkpt>
<trkpt lat="53.375713" lon="-1.593477"><ele>261</ele><time>2020-05-21T10:28:45Z</time><name>PT2528</name></trkpt>
<trkpt lat="53.375718" lon="-1.593475"><ele>261</ele><time>2020-05-21T10:28:47Z</time><name>PT2529</name></trkpt>
<trkpt lat="53.375728" lon="-1.593474"><ele>260</ele><time>2020-05-21T10:28:48Z</time><name>PT2530</name></trkpt>
<trkpt lat="53.375737" lon="-1.593476"><ele>261</ele><time>2020-05-21T10:28:48Z</time><name>PT2531</name></trkpt>
<trkpt lat="53.375743" lon="-1.593478"><ele>260</ele><time>2020-05-21T10:28:49Z</time><name>PT2532</name></trkpt>
<trkpt lat="53.375754" lon="-1.593478"><ele>260</ele><time>2020-05-21T10:28:51Z</time><name>PT2533</name></trkpt>
<trkpt lat="53.375758" lon="-1.593479"><ele>260</ele><time>2020-05-21T10:28:51Z</time><name>PT2534</name></trkpt>
<trkpt lat="53.375758" lon="-1.593481"><ele>260</ele><time>2020-05-21T10:28:52Z</time><name>PT2535</name></trkpt>
<trkpt lat="53.375765" lon="-1.593479"><ele>260</ele><time>2020-05-21T10:28:54Z</time><name>PT2536</name></trkpt>
<trkpt lat="53.375773" lon="-1.593477"><ele>260</ele><time>2020-05-21T10:28:54Z</time><name>PT2537</name></trkpt>
<trkpt lat="53.375776" lon="-1.593476"><ele>260</ele><time>2020-05-21T10:28:55Z</time><name>PT2538</name></trkpt>
<trkpt lat="53.375773" lon="-1.593494"><ele>259</ele><time>2020-05-21T10:28:57Z</time><name>PT2539</name></trkpt>
<trkpt lat="53.375780" lon="-1.593500"><ele>258</ele><time>2020-05-21T10:28:58Z</time><name>PT2540</name></trkpt>
<trkpt lat="53.375788" lon="-1.593514"><ele>257</ele><time>2020-05-21T10:29:00Z</time><name>PT2541</name></trkpt>
<trkpt lat="53.375794" lon="-1.593520"><ele>256</ele><time>2020-05-21T10:29:00Z</time><name>PT2542</name></trkpt>
<trkpt lat="53.375799" lon="-1.593517"><ele>255</ele><time>2020-05-21T10:29:01Z</time><name>PT2543</name></trkpt>
<trkpt lat="53.375814" lon="-1.593514"><ele>254</ele><time>2020-05-21T10:29:03Z</time><name>PT2544</name></trkpt>
<trkpt lat="53.375825" lon="-1.593514"><ele>254</ele><time>2020-05-21T10:29:03Z</time><name>PT2545</name></trkpt>
<trkpt lat="53.375834" lon="-1.593513"><ele>253</ele><time>2020-05-21T10:29:04Z</time><name>PT2546</name></trkpt>
<trkpt lat="53.375846" lon="-1.593507"><ele>253</ele><time>2020-05-21T10:29:06Z</time><name>PT2547</name></trkpt>
<trkpt lat="53.375855" lon="-1.593495"><ele>252</ele><time>2020-05-21T10:29:06Z</time><name>PT2548</name></trkpt>
<trkpt lat="53.375868" lon="-1.593442"><ele>252</ele><time>2020-05-21T10:29:10Z</time><name>PT2549</name></trkpt>
<trkpt lat="53.375874" lon="-1.593426"><ele>251</ele><time>2020-05-21T10:29:12Z</time><name>PT2550</name></trkpt>
<trkpt lat="53.375877" lon="-1.593420"><ele>251</ele><time>2020-05-21T10:29:12Z</time><name>PT2551</name></trkpt>
<trkpt lat="53.375881" lon="-1.593404"><ele>252</ele><time>2020-05-21T10:29:13Z</time><name>PT2552</name></trkpt>
<trkpt lat="53.375886" lon="-1.593388"><ele>252</ele><time>2020-05-21T10:29:15Z</time><name>PT2553</name></trkpt>
<trkpt lat="53.375886" lon="-1.593379"><ele>252</ele><time>2020-05-21T10:29:15Z</time><name>PT2554</name></trkpt>
<trkpt lat="53.375889" lon="-1.593370"><ele>252</ele><time>2020-05-21T10:29:16Z</time><name>PT2555</name></trkpt>
<trkpt lat="53.375891" lon="-1.593367"><ele>252</ele><time>2020-05-21T10:29:18Z</time><name>PT2556</name></trkpt>
<trkpt lat="53.375896" lon="-1.593356"><ele>251</ele><time>2020-05-21T10:29:18Z</time><name>PT2557</name></trkpt>
<trkpt lat="53.375900" lon="-1.593349"><ele>251</ele><time>2020-05-21T10:29:19Z</time><name>PT2558</name></trkpt>
<trkpt lat="53.375904" lon="-1.593344"><ele>251</ele><time>2020-05-21T10:29:21Z</time><name>PT2559</name></trkpt>
<trkpt lat="53.375906" lon="-1.593342"><ele>251</ele><time>2020-05-21T10:29:21Z</time><name>PT2560</name></trkpt>
<trkpt lat="53.375916" lon="-1.593340"><ele>251</ele><time>2020-05-21T10:29:22Z</time><name>PT2561</name></trkpt>
<trkpt lat="53.375922" lon="-1.593342"><ele>251</ele><time>2020-05-21T10:29:24Z</time><name>PT2562</name></trkpt>
<trkpt lat="53.375922" lon="-1.593340"><ele>250</ele><time>2020-05-21T10:29:24Z</time><name>PT2563</name></trkpt>
<trkpt lat="53.375926" lon="-1.593337"><ele>250</ele><time>2020-05-21T10:29:25Z</time><name>PT2564</name></trkpt>
<trkpt lat="53.375929" lon="-1.593327"><ele>250</ele><time>2020-05-21T10:29:27Z</time><name>PT2565</name></trkpt>
<trkpt lat="53.375932" lon="-1.593312"><ele>251</ele><time>2020-05-21T10:29:27Z</time><name>PT2566</name></trkpt>
<trkpt lat="53.375934" lon="-1.593300"><ele>251</ele><time>2020-05-21T10:29:28Z</time><name>PT2567</name></trkpt>
<trkpt lat="53.375935" lon="-1.593287"><ele>251</ele><time>2020-05-21T10:29:30Z</time><name>PT2568</name></trkpt>
<trkpt lat="53.375938" lon="-1.593282"><ele>251</ele><time>2020-05-21T10:29:30Z</time><name>PT2569</name></trkpt>
<trkpt lat="53.375942" lon="-1.593279"><ele>251</ele><time>2020-05-21T10:29:31Z</time><name>PT2570</name></trkpt>
<trkpt lat="53.375939" lon="-1.593286"><ele>251</ele><time>2020-05-21T10:29:33Z</time><name>PT2571</name></trkpt>
<trkpt lat="53.375940" lon="-1.593287"><ele>250</ele><time>2020-05-21T10:29:35Z</time><name>PT2572</name></trkpt>
<trkpt lat="53.375936" lon="-1.593289"><ele>250</ele><time>2020-05-21T10:29:35Z</time><name>PT2573</name></trkpt>
<trkpt lat="53.375936" lon="-1.593298"><ele>250</ele><time>2020-05-21T10:29:36Z</time><name>PT2574</name></trkpt>
<trkpt lat="53.375935" lon="-1.593299"><ele>250</ele><time>2020-05-21T10:29:38Z</time><name>PT2575</name></trkpt>
<trkpt lat="53.375935" lon="-1.593305"><ele>250</ele><time>2020-05-21T10:29:38Z</time><name>PT2576</name></trkpt>
<trkpt lat="53.375934" lon="-1.593311"><ele>250</ele><time>2020-05-21T10:29:39Z</time><name>PT2577</name></trkpt>
<trkpt lat="53.375932" lon="-1.593315"><ele>249</ele><time>2020-05-21T10:29:41Z</time><name>PT2578</name></trkpt>
<trkpt lat="53.375928" lon="-1.593320"><ele>250</ele><time>2020-05-21T10:29:41Z</time><name>PT2579</name></trkpt>
<trkpt lat="53.375929" lon="-1.593327"><ele>250</ele><time>2020-05-21T10:29:56Z</time><name>PT2580</name></trkpt>
<trkpt lat="53.375932" lon="-1.593335"><ele>250</ele><time>2020-05-21T10:29:57Z</time><name>PT2581</name></trkpt>
<trkpt lat="53.375935" lon="-1.593334"><ele>249</ele><time>2020-05-21T10:29:59Z</time><name>PT2582</name></trkpt>
<trkpt lat="53.375937" lon="-1.593334"><ele>249</ele><time>2020-05-21T10:29:59Z</time><name>PT2583</name></trkpt>
<trkpt lat="53.375936" lon="-1.593335"><ele>249</ele><time>2020-05-21T10:30:00Z</time><name>PT2584</name></trkpt>
<trkpt lat="53.375935" lon="-1.593335"><ele>249</ele><time>2020-05-21T10:30:02Z</time><name>PT2585</name></trkpt>
<trkpt lat="53.375931" lon="-1.593344"><ele>249</ele><time>2020-05-21T10:30:19Z</time><name>PT2586</name></trkpt>
<trkpt lat="53.375926" lon="-1.593342"><ele>248</ele><time>2020-05-21T10:30:20Z</time><name>PT2587</name></trkpt>
<trkpt lat="53.375924" lon="-1.593347"><ele>249</ele><time>2020-05-21T10:30:34Z</time><name>PT2588</name></trkpt>
<trkpt lat="53.375919" lon="-1.593341"><ele>248</ele><time>2020-05-21T10:30:34Z</time><name>PT2589</name></trkpt>
<trkpt lat="53.375908" lon="-1.593329"><ele>248</ele><time>2020-05-21T10:30:35Z</time><name>PT2590</name></trkpt>
<trkpt lat="53.375897" lon="-1.593311"><ele>248</ele><time>2020-05-21T10:30:37Z</time><name>PT2591</name></trkpt>
<trkpt lat="53.375890" lon="-1.593297"><ele>248</ele><time>2020-05-21T10:30:37Z</time><name>PT2592</name></trkpt>
<trkpt lat="53.375883" lon="-1.593287"><ele>247</ele><time>2020-05-21T10:30:38Z</time><name>PT2593</name></trkpt>
<trkpt lat="53.375874" lon="-1.593276"><ele>246</ele><time>2020-05-21T10:30:40Z</time><name>PT2594</name></trkpt>
<trkpt lat="53.375869" lon="-1.593267"><ele>246</ele><time>2020-05-21T10:30:40Z</time><name>PT2595</name></trkpt>
<trkpt lat="53.375860" lon="-1.593252"><ele>246</ele><time>2020-05-21T10:30:41Z</time><name>PT2596</name></trkpt>
<trkpt lat="53.375850" lon="-1.593237"><ele>246</ele><time>2020-05-21T10:30:43Z</time><name>PT2597</name></trkpt>
<trkpt lat="53.375841" lon="-1.593218"><ele>246</ele><time>2020-05-21T10:30:43Z</time><name>PT2598</name></trkpt>
<trkpt lat="53.375837" lon="-1.593200"><ele>247</ele><time>2020-05-21T10:30:44Z</time><name>PT2599</name></trkpt>
<trkpt lat="53.375839" lon="-1.593196"><ele>248</ele><time>2020-05-21T10:30:46Z</time><name>PT2600</name></trkpt>
<trkpt lat="53.375836" lon="-1.593184"><ele>249</ele><time>2020-05-21T10:30:46Z</time><name>PT2601</name></trkpt>
<trkpt lat="53.375836" lon="-1.593171"><ele>249</ele><time>2020-05-21T10:30:47Z</time><name>PT2602</name></trkpt>
<trkpt lat="53.375832" lon="-1.593163"><ele>250</ele><time>2020-05-21T10:30:49Z</time><name>PT2603</name></trkpt>
<trkpt lat="53.375825" lon="-1.593153"><ele>250</ele><time>2020-05-21T10:30:49Z</time><name>PT2604</name></trkpt>
<trkpt lat="53.375816" lon="-1.593147"><ele>250</ele><time>2020-05-21T10:30:50Z</time><name>PT2605</name></trkpt>
<trkpt lat="53.375808" lon="-1.593139"><ele>251</ele><time>2020-05-21T10:30:52Z</time><name>PT2606</name></trkpt>
<trkpt lat="53.375801" lon="-1.593126"><ele>252</ele><time>2020-05-21T10:30:52Z</time><name>PT2607</name></trkpt>
<trkpt lat="53.375793" lon="-1.593121"><ele>252</ele><time>2020-05-21T10:30:53Z</time><name>PT2608</name></trkpt>
<trkpt lat="53.375783" lon="-1.593108"><ele>252</ele><time>2020-05-21T10:30:55Z</time><name>PT2609</name></trkpt>
<trkpt lat="53.375776" lon="-1.593101"><ele>253</ele><time>2020-05-21T10:30:55Z</time><name>PT2610</name></trkpt>
<trkpt lat="53.375763" lon="-1.593093"><ele>253</ele><time>2020-05-21T10:30:56Z</time><name>PT2611</name></trkpt>
<trkpt lat="53.375748" lon="-1.593084"><ele>253</ele><time>2020-05-21T10:30:58Z</time><name>PT2612</name></trkpt>
<trkpt lat="53.375734" lon="-1.593075"><ele>253</ele><time>2020-05-21T10:30:58Z</time><name>PT2613</name></trkpt>
<trkpt lat="53.375721" lon="-1.593069"><ele>252</ele><time>2020-05-21T10:30:59Z</time><name>PT2614</name></trkpt>
<trkpt lat="53.375711" lon="-1.593065"><ele>253</ele><time>2020-05-21T10:31:01Z</time><name>PT2615</name></trkpt>
<trkpt lat="53.375705" lon="-1.593057"><ele>254</ele><time>2020-05-21T10:31:01Z</time><name>PT2616</name></trkpt>
<trkpt lat="53.375693" lon="-1.593049"><ele>253</ele><time>2020-05-21T10:31:02Z</time><name>PT2617</name></trkpt>
<trkpt lat="53.375681" lon="-1.593043"><ele>253</ele><time>2020-05-21T10:31:04Z</time><name>PT2618</name></trkpt>
<trkpt lat="53.375667" lon="-1.593037"><ele>253</ele><time>2020-05-21T10:31:04Z</time><name>PT2619</name></trkpt>
<trkpt lat="53.375652" lon="-1.593026"><ele>253</ele><time>2020-05-21T10:31:05Z</time><name>PT2620</name></trkpt>
<trkpt lat="53.375639" lon="-1.593018"><ele>252</ele><time>2020-05-21T10:31:07Z</time><name>PT2621</name></trkpt>
<trkpt lat="53.375628" lon="-1.593012"><ele>251</ele><time>2020-05-21T10:31:07Z</time><name>PT2622</name></trkpt>
<trkpt lat="53.375619" lon="-1.593006"><ele>251</ele><time>2020-05-21T10:31:08Z</time><name>PT2623</name></trkpt>
<trkpt lat="53.375608" lon="-1.592995"><ele>250</ele><time>2020-05-21T10:31:10Z</time><name>PT2624</name></trkpt>
<trkpt lat="53.375597" lon="-1.592990"><ele>249</ele><time>2020-05-21T10:31:10Z</time><name>PT2625</name></trkpt>
<trkpt lat="53.375584" lon="-1.592991"><ele>249</ele><time>2020-05-21T10:31:11Z</time><name>PT2626</name></trkpt>
<trkpt lat="53.375571" lon="-1.592983"><ele>248</ele><time>2020-05-21T10:31:13Z</time><name>PT2627</name></trkpt>
<trkpt lat="53.375557" lon="-1.592980"><ele>248</ele><time>2020-05-21T10:31:13Z</time><name>PT2628</name></trkpt>
<trkpt lat="53.375547" lon="-1.592983"><ele>249</ele><time>2020-05-21T10:31:14Z</time><name>PT2629</name></trkpt>
<trkpt lat="53.375538" lon="-1.592980"><ele>249</ele><time>2020-05-21T10:31:16Z</time><name>PT2630</name></trkpt>
<trkpt lat="53.375528" lon="-1.592972"><ele>249</ele><time>2020-05-21T10:31:16Z</time><name>PT2631</name></trkpt>
<trkpt lat="53.375519" lon="-1.592963"><ele>249</ele><time>2020-05-21T10:31:17Z</time><name>PT2632</name></trkpt>
<trkpt lat="53.375502" lon="-1.592962"><ele>249</ele><time>2020-05-21T10:31:19Z</time><name>PT2633</name></trkpt>
<trkpt lat="53.375484" lon="-1.592962"><ele>249</ele><time>2020-05-21T10:31:19Z</time><name>PT2634</name></trkpt>
<trkpt lat="53.375477" lon="-1.592957"><ele>249</ele><time>2020-05-21T10:31:20Z</time><name>PT2635</name></trkpt>
<trkpt lat="53.375471" lon="-1.592951"><ele>250</ele><time>2020-05-21T10:31:22Z</time><name>PT2636</name></trkpt>
<trkpt lat="53.375459" lon="-1.592945"><ele>252</ele><time>2020-05-21T10:31:22Z</time><name>PT2637</name></trkpt>
<trkpt lat="53.375448" lon="-1.592937"><ele>252</ele><time>2020-05-21T10:31:23Z</time><name>PT2638</name></trkpt>
<trkpt lat="53.375438" lon="-1.592926"><ele>253</ele><time>2020-05-21T10:31:25Z</time><name>PT2639</name></trkpt>
<trkpt lat="53.375425" lon="-1.592922"><ele>253</ele><time>2020-05-21T10:31:25Z</time><name>PT2640</name></trkpt>
<trkpt lat="53.375414" lon="-1.592917"><ele>253</ele><time>2020-05-21T10:31:27Z</time><name>PT2641</name></trkpt>
<trkpt lat="53.375402" lon="-1.592912"><ele>253</ele><time>2020-05-21T10:31:28Z</time><name>PT2642</name></trkpt>
<trkpt lat="53.375396" lon="-1.592907"><ele>254</ele><time>2020-05-21T10:31:28Z</time><name>PT2643</name></trkpt>
<trkpt lat="53.375387" lon="-1.592903"><ele>254</ele><time>2020-05-21T10:31:29Z</time><name>PT2644</name></trkpt>
<trkpt lat="53.375373" lon="-1.592905"><ele>255</ele><time>2020-05-21T10:31:31Z</time><name>PT2645</name></trkpt>
<trkpt lat="53.375368" lon="-1.592882"><ele>254</ele><time>2020-05-21T10:31:31Z</time><name>PT2646</name></trkpt>
<trkpt lat="53.375362" lon="-1.592859"><ele>257</ele><time>2020-05-21T10:31:32Z</time><name>PT2647</name></trkpt>
<trkpt lat="53.375360" lon="-1.592849"><ele>258</ele><time>2020-05-21T10:31:34Z</time><name>PT2648</name></trkpt>
<trkpt lat="53.375357" lon="-1.592846"><ele>258</ele><time>2020-05-21T10:31:34Z</time><name>PT2649</name></trkpt>
<trkpt lat="53.375353" lon="-1.592851"><ele>257</ele><time>2020-05-21T10:31:38Z</time><name>PT2650</name></trkpt>
<trkpt lat="53.375344" lon="-1.592851"><ele>257</ele><time>2020-05-21T10:31:40Z</time><name>PT2651</name></trkpt>
<trkpt lat="53.375333" lon="-1.592853"><ele>257</ele><time>2020-05-21T10:31:40Z</time><name>PT2652</name></trkpt>
<trkpt lat="53.375322" lon="-1.592854"><ele>258</ele><time>2020-05-21T10:31:41Z</time><name>PT2653</name></trkpt>
<trkpt lat="53.375308" lon="-1.592851"><ele>258</ele><time>2020-05-21T10:31:43Z</time><name>PT2654</name></trkpt>
<trkpt lat="53.375299" lon="-1.592851"><ele>259</ele><time>2020-05-21T10:31:43Z</time><name>PT2655</name></trkpt>
<trkpt lat="53.375290" lon="-1.592854"><ele>259</ele><time>2020-05-21T10:31:44Z</time><name>PT2656</name></trkpt>
<trkpt lat="53.375279" lon="-1.592859"><ele>260</ele><time>2020-05-21T10:31:46Z</time><name>PT2657</name></trkpt>
<trkpt lat="53.375270" lon="-1.592859"><ele>260</ele><time>2020-05-21T10:31:46Z</time><name>PT2658</name></trkpt>
<trkpt lat="53.375255" lon="-1.592857"><ele>261</ele><time>2020-05-21T10:31:47Z</time><name>PT2659</name></trkpt>
<trkpt lat="53.375241" lon="-1.592861"><ele>261</ele><time>2020-05-21T10:31:49Z</time><name>PT2660</name></trkpt>
<trkpt lat="53.375231" lon="-1.592867"><ele>262</ele><time>2020-05-21T10:31:49Z</time><name>PT2661</name></trkpt>
<trkpt lat="53.375225" lon="-1.592871"><ele>261</ele><time>2020-05-21T10:31:50Z</time><name>PT2662</name></trkpt>
<trkpt lat="53.375220" lon="-1.592882"><ele>261</ele><time>2020-05-21T10:31:52Z</time><name>PT2663</name></trkpt>
<trkpt lat="53.375209" lon="-1.592886"><ele>262</ele><time>2020-05-21T10:31:52Z</time><name>PT2664</name></trkpt>
<trkpt lat="53.375200" lon="-1.592900"><ele>261</ele><time>2020-05-21T10:31:53Z</time><name>PT2665</name></trkpt>
<trkpt lat="53.375189" lon="-1.592913"><ele>261</ele><time>2020-05-21T10:31:55Z</time><name>PT2666</name></trkpt>
<trkpt lat="53.375180" lon="-1.592923"><ele>262</ele><time>2020-05-21T10:31:55Z</time><name>PT2667</name></trkpt>
<trkpt lat="53.375172" lon="-1.592925"><ele>262</ele><time>2020-05-21T10:31:57Z</time><name>PT2668</name></trkpt>
<trkpt lat="53.375166" lon="-1.592932"><ele>261</ele><time>2020-05-21T10:31:58Z</time><name>PT2669</name></trkpt>
<trkpt lat="53.375161" lon="-1.592932"><ele>261</ele><time>2020-05-21T10:31:58Z</time><name>PT2670</name></trkpt>
<trkpt lat="53.375155" lon="-1.592936"><ele>262</ele><time>2020-05-21T10:31:59Z</time><name>PT2671</name></trkpt>
<trkpt lat="53.375143" lon="-1.592945"><ele>262</ele><time>2020-05-21T10:32:01Z</time><name>PT2672</name></trkpt>
<trkpt lat="53.375128" lon="-1.592958"><ele>264</ele><time>2020-05-21T10:32:01Z</time><name>PT2673</name></trkpt>
<trkpt lat="53.375123" lon="-1.592968"><ele>264</ele><time>2020-05-21T10:32:02Z</time><name>PT2674</name></trkpt>
<trkpt lat="53.375119" lon="-1.592972"><ele>264</ele><time>2020-05-21T10:32:04Z</time><name>PT2675</name></trkpt>
<trkpt lat="53.375110" lon="-1.592974"><ele>264</ele><time>2020-05-21T10:32:04Z</time><name>PT2676</name></trkpt>
<trkpt lat="53.375098" lon="-1.592978"><ele>265</ele><time>2020-05-21T10:32:05Z</time><name>PT2677</name></trkpt>
<trkpt lat="53.375084" lon="-1.592990"><ele>265</ele><time>2020-05-21T10:32:07Z</time><name>PT2678</name></trkpt>
<trkpt lat="53.375068" lon="-1.593005"><ele>266</ele><time>2020-05-21T10:32:07Z</time><name>PT2679</name></trkpt>
<trkpt lat="53.375059" lon="-1.593016"><ele>266</ele><time>2020-05-21T10:32:08Z</time><name>PT2680</name></trkpt>
<trkpt lat="53.375056" lon="-1.593024"><ele>267</ele><time>2020-05-21T10:32:10Z</time><name>PT2681</name></trkpt>
<trkpt lat="53.375052" lon="-1.593028"><ele>267</ele><time>2020-05-21T10:32:10Z</time><name>PT2682</name></trkpt>
<trkpt lat="53.375043" lon="-1.593028"><ele>267</ele><time>2020-05-21T10:32:11Z</time><name>PT2683</name></trkpt>
<trkpt lat="53.375034" lon="-1.593031"><ele>267</ele><time>2020-05-21T10:32:13Z</time><name>PT2684</name></trkpt>
<trkpt lat="53.375017" lon="-1.593043"><ele>269</ele><time>2020-05-21T10:32:13Z</time><name>PT2685</name></trkpt>
<trkpt lat="53.375002" lon="-1.593054"><ele>269</ele><time>2020-05-21T10:32:14Z</time><name>PT2686</name></trkpt>
<trkpt lat="53.374995" lon="-1.593063"><ele>270</ele><time>2020-05-21T10:32:16Z</time><name>PT2687</name></trkpt>
<trkpt lat="53.374986" lon="-1.593071"><ele>269</ele><time>2020-05-21T10:32:16Z</time><name>PT2688</name></trkpt>
<trkpt lat="53.374966" lon="-1.593073"><ele>267</ele><time>2020-05-21T10:32:17Z</time><name>PT2689</name></trkpt>
<trkpt lat="53.374955" lon="-1.593065"><ele>268</ele><time>2020-05-21T10:32:19Z</time><name>PT2690</name></trkpt>
<trkpt lat="53.374936" lon="-1.593058"><ele>268</ele><time>2020-05-21T10:32:19Z</time><name>PT2691</name></trkpt>
<trkpt lat="53.374921" lon="-1.593052"><ele>270</ele><time>2020-05-21T10:32:20Z</time><name>PT2692</name></trkpt>
<trkpt lat="53.374903" lon="-1.593062"><ele>268</ele><time>2020-05-21T10:32:22Z</time><name>PT2693</name></trkpt>
<trkpt lat="53.374894" lon="-1.593067"><ele>269</ele><time>2020-05-21T10:32:22Z</time><name>PT2694</name></trkpt>
<trkpt lat="53.374878" lon="-1.593069"><ele>268</ele><time>2020-05-21T10:32:23Z</time><name>PT2695</name></trkpt>
<trkpt lat="53.374866" lon="-1.593069"><ele>267</ele><time>2020-05-21T10:32:25Z</time><name>PT2696</name></trkpt>
<trkpt lat="53.374852" lon="-1.593066"><ele>267</ele><time>2020-05-21T10:32:25Z</time><name>PT2697</name></trkpt>
<trkpt lat="53.374834" lon="-1.593055"><ele>267</ele><time>2020-05-21T10:32:26Z</time><name>PT2698</name></trkpt>
<trkpt lat="53.374811" lon="-1.593049"><ele>267</ele><time>2020-05-21T10:32:28Z</time><name>PT2699</name></trkpt>
<trkpt lat="53.374796" lon="-1.593054"><ele>265</ele><time>2020-05-21T10:32:28Z</time><name>PT2700</name></trkpt>
<trkpt lat="53.374788" lon="-1.593051"><ele>266</ele><time>2020-05-21T10:32:29Z</time><name>PT2701</name></trkpt>
<trkpt lat="53.374781" lon="-1.593057"><ele>266</ele><time>2020-05-21T10:32:31Z</time><name>PT2702</name></trkpt>
<trkpt lat="53.374769" lon="-1.593043"><ele>265</ele><time>2020-05-21T10:32:31Z</time><name>PT2703</name></trkpt>
<trkpt lat="53.374757" lon="-1.593041"><ele>265</ele><time>2020-05-21T10:32:32Z</time><name>PT2704</name></trkpt>
<trkpt lat="53.374739" lon="-1.593041"><ele>265</ele><time>2020-05-21T10:32:34Z</time><name>PT2705</name></trkpt>
<trkpt lat="53.374730" lon="-1.593041"><ele>265</ele><time>2020-05-21T10:32:34Z</time><name>PT2706</name></trkpt>
<trkpt lat="53.374718" lon="-1.593037"><ele>265</ele><time>2020-05-21T10:32:35Z</time><name>PT2707</name></trkpt>
<trkpt lat="53.374707" lon="-1.593035"><ele>265</ele><time>2020-05-21T10:32:37Z</time><name>PT2708</name></trkpt>
<trkpt lat="53.374695" lon="-1.593030"><ele>267</ele><time>2020-05-21T10:32:37Z</time><name>PT2709</name></trkpt>
<trkpt lat="53.374682" lon="-1.593032"><ele>268</ele><time>2020-05-21T10:32:38Z</time><name>PT2710</name></trkpt>
<trkpt lat="53.374666" lon="-1.593023"><ele>267</ele><time>2020-05-21T10:32:40Z</time><name>PT2711</name></trkpt>
<trkpt lat="53.374649" lon="-1.593012"><ele>268</ele><time>2020-05-21T10:32:40Z</time><name>PT2712</name></trkpt>
<trkpt lat="53.374643" lon="-1.593005"><ele>269</ele><time>2020-05-21T10:32:41Z</time><name>PT2713</name></trkpt>
<trkpt lat="53.374638" lon="-1.593013"><ele>269</ele><time>2020-05-21T10:32:43Z</time><name>PT2714</name></trkpt>
<trkpt lat="53.374626" lon="-1.593011"><ele>268</ele><time>2020-05-21T10:32:43Z</time><name>PT2715</name></trkpt>
<trkpt lat="53.374617" lon="-1.593007"><ele>268</ele><time>2020-05-21T10:32:44Z</time><name>PT2716</name></trkpt>
<trkpt lat="53.374607" lon="-1.592999"><ele>269</ele><time>2020-05-21T10:32:46Z</time><name>PT2717</name></trkpt>
<trkpt lat="53.374596" lon="-1.592993"><ele>269</ele><time>2020-05-21T10:32:46Z</time><name>PT2718</name></trkpt>
<trkpt lat="53.374587" lon="-1.592984"><ele>271</ele><time>2020-05-21T10:32:47Z</time><name>PT2719</name></trkpt>
<trkpt lat="53.374571" lon="-1.592983"><ele>270</ele><time>2020-05-21T10:32:49Z</time><name>PT2720</name></trkpt>
<trkpt lat="53.374560" lon="-1.592978"><ele>271</ele><time>2020-05-21T10:32:49Z</time><name>PT2721</name></trkpt>
<trkpt lat="53.374549" lon="-1.592977"><ele>271</ele><time>2020-05-21T10:32:50Z</time><name>PT2722</name></trkpt>
<trkpt lat="53.374537" lon="-1.592971"><ele>272</ele><time>2020-05-21T10:32:52Z</time><name>PT2723</name></trkpt>
<trkpt lat="53.374524" lon="-1.592969"><ele>272</ele><time>2020-05-21T10:32:52Z</time><name>PT2724</name></trkpt>
<trkpt lat="53.374516" lon="-1.592968"><ele>272</ele><time>2020-05-21T10:32:53Z</time><name>PT2725</name></trkpt>
<trkpt lat="53.374506" lon="-1.592975"><ele>272</ele><time>2020-05-21T10:32:55Z</time><name>PT2726</name></trkpt>
<trkpt lat="53.374497" lon="-1.592970"><ele>272</ele><time>2020-05-21T10:32:55Z</time><name>PT2727</name></trkpt>
<trkpt lat="53.374487" lon="-1.592973"><ele>272</ele><time>2020-05-21T10:32:56Z</time><name>PT2728</name></trkpt>
<trkpt lat="53.374468" lon="-1.592979"><ele>272</ele><time>2020-05-21T10:32:58Z</time><name>PT2729</name></trkpt>
<trkpt lat="53.374458" lon="-1.592981"><ele>272</ele><time>2020-05-21T10:32:58Z</time><name>PT2730</name></trkpt>
<trkpt lat="53.374451" lon="-1.592979"><ele>274</ele><time>2020-05-21T10:32:59Z</time><name>PT2731</name></trkpt>
<trkpt lat="53.374434" lon="-1.592980"><ele>274</ele><time>2020-05-21T10:33:01Z</time><name>PT2732</name></trkpt>
<trkpt lat="53.374412" lon="-1.592977"><ele>274</ele><time>2020-05-21T10:33:01Z</time><name>PT2733</name></trkpt>
<trkpt lat="53.374399" lon="-1.592972"><ele>273</ele><time>2020-05-21T10:33:02Z</time><name>PT2734</name></trkpt>
<trkpt lat="53.374388" lon="-1.592977"><ele>272</ele><time>2020-05-21T10:33:04Z</time><name>PT2735</name></trkpt>
<trkpt lat="53.374381" lon="-1.592981"><ele>273</ele><time>2020-05-21T10:33:04Z</time><name>PT2736</name></trkpt>
<trkpt lat="53.374374" lon="-1.592980"><ele>272</ele><time>2020-05-21T10:33:05Z</time><name>PT2737</name></trkpt>
<trkpt lat="53.374359" lon="-1.592982"><ele>272</ele><time>2020-05-21T10:33:07Z</time><name>PT2738</name></trkpt>
<trkpt lat="53.374348" lon="-1.592989"><ele>271</ele><time>2020-05-21T10:33:07Z</time><name>PT2739</name></trkpt>
<trkpt lat="53.374345" lon="-1.592992"><ele>271</ele><time>2020-05-21T10:33:08Z</time><name>PT2740</name></trkpt>
<trkpt lat="53.374341" lon="-1.592995"><ele>271</ele><time>2020-05-21T10:33:10Z</time><name>PT2741</name></trkpt>
<trkpt lat="53.374334" lon="-1.592998"><ele>271</ele><time>2020-05-21T10:33:10Z</time><name>PT2742</name></trkpt>
<trkpt lat="53.374316" lon="-1.593000"><ele>271</ele><time>2020-05-21T10:33:11Z</time><name>PT2743</name></trkpt>
<trkpt lat="53.374310" lon="-1.592996"><ele>271</ele><time>2020-05-21T10:33:13Z</time><name>PT2744</name></trkpt>
<trkpt lat="53.374299" lon="-1.592989"><ele>273</ele><time>2020-05-21T10:33:13Z</time><name>PT2745</name></trkpt>
<trkpt lat="53.374278" lon="-1.592993"><ele>275</ele><time>2020-05-21T10:33:14Z</time><name>PT2746</name></trkpt>
<trkpt lat="53.374264" lon="-1.592993"><ele>275</ele><time>2020-05-21T10:33:16Z</time><name>PT2747</name></trkpt>
<trkpt lat="53.374246" lon="-1.592996"><ele>275</ele><time>2020-05-21T10:33:16Z</time><name>PT2748</name></trkpt>
<trkpt lat="53.374231" lon="-1.592999"><ele>276</ele><time>2020-05-21T10:33:17Z</time><name>PT2749</name></trkpt>
<trkpt lat="53.374193" lon="-1.593010"><ele>276</ele><time>2020-05-21T10:33:19Z</time><name>PT2750</name></trkpt>
<trkpt lat="53.374180" lon="-1.593008"><ele>276</ele><time>2020-05-21T10:33:19Z</time><name>PT2751</name></trkpt>
<trkpt lat="53.374164" lon="-1.593009"><ele>276</ele><time>2020-05-21T10:33:20Z</time><name>PT2752</name></trkpt>
<trkpt lat="53.374150" lon="-1.593008"><ele>277</ele><time>2020-05-21T10:33:22Z</time><name>PT2753</name></trkpt>
<trkpt lat="53.374141" lon="-1.593012"><ele>276</ele><time>2020-05-21T10:33:22Z</time><name>PT2754</name></trkpt>
<trkpt lat="53.374135" lon="-1.593010"><ele>277</ele><time>2020-05-21T10:33:23Z</time><name>PT2755</name></trkpt>
<trkpt lat="53.374122" lon="-1.593017"><ele>278</ele><time>2020-05-21T10:33:25Z</time><name>PT2756</name></trkpt>
<trkpt lat="53.374109" lon="-1.593016"><ele>279</ele><time>2020-05-21T10:33:25Z</time><name>PT2757</name></trkpt>
<trkpt lat="53.374098" lon="-1.593022"><ele>278</ele><time>2020-05-21T10:33:26Z</time><name>PT2758</name></trkpt>
<trkpt lat="53.374088" lon="-1.593030"><ele>278</ele><time>2020-05-21T10:33:28Z</time><name>PT2759</name></trkpt>
<trkpt lat="53.374076" lon="-1.593033"><ele>278</ele><time>2020-05-21T10:33:28Z</time><name>PT2760</name></trkpt>
<trkpt lat="53.374053" lon="-1.593042"><ele>276</ele><time>2020-05-21T10:33:29Z</time><name>PT2761</name></trkpt>
<trkpt lat="53.374037" lon="-1.593045"><ele>276</ele><time>2020-05-21T10:33:31Z</time><name>PT2762</name></trkpt>
<trkpt lat="53.374023" lon="-1.593057"><ele>275</ele><time>2020-05-21T10:33:31Z</time><name>PT2763</name></trkpt>
<trkpt lat="53.374005" lon="-1.593064"><ele>275</ele><time>2020-05-21T10:33:32Z</time><name>PT2764</name></trkpt>
<trkpt lat="53.373989" lon="-1.593073"><ele>275</ele><time>2020-05-21T10:33:34Z</time><name>PT2765</name></trkpt>
<trkpt lat="53.373981" lon="-1.593079"><ele>274</ele><time>2020-05-21T10:33:34Z</time><name>PT2766</name></trkpt>
<trkpt lat="53.373977" lon="-1.593081"><ele>274</ele><time>2020-05-21T10:33:35Z</time><name>PT2767</name></trkpt>
<trkpt lat="53.373967" lon="-1.593077"><ele>274</ele><time>2020-05-21T10:33:37Z</time><name>PT2768</name></trkpt>
<trkpt lat="53.373947" lon="-1.593081"><ele>275</ele><time>2020-05-21T10:33:37Z</time><name>PT2769</name></trkpt>
<trkpt lat="53.373931" lon="-1.593086"><ele>275</ele><time>2020-05-21T10:33:38Z</time><name>PT2770</name></trkpt>
<trkpt lat="53.373922" lon="-1.593087"><ele>275</ele><time>2020-05-21T10:33:40Z</time><name>PT2771</name></trkpt>
<trkpt lat="53.373903" lon="-1.593090"><ele>276</ele><time>2020-05-21T10:33:40Z</time><name>PT2772</name></trkpt>
<trkpt lat="53.373888" lon="-1.593100"><ele>276</ele><time>2020-05-21T10:33:41Z</time><name>PT2773</name></trkpt>
<trkpt lat="53.373874" lon="-1.593098"><ele>276</ele><time>2020-05-21T10:33:43Z</time><name>PT2774</name></trkpt>
<trkpt lat="53.373861" lon="-1.593097"><ele>276</ele><time>2020-05-21T10:33:43Z</time><name>PT2775</name></trkpt>
<trkpt lat="53.373854" lon="-1.593098"><ele>276</ele><time>2020-05-21T10:33:45Z</time><name>PT2776</name></trkpt>
<trkpt lat="53.373843" lon="-1.593098"><ele>277</ele><time>2020-05-21T10:33:46Z</time><name>PT2777</name></trkpt>
<trkpt lat="53.373829" lon="-1.593093"><ele>279</ele><time>2020-05-21T10:33:46Z</time><name>PT2778</name></trkpt>
<trkpt lat="53.373816" lon="-1.593081"><ele>280</ele><time>2020-05-21T10:33:47Z</time><name>PT2779</name></trkpt>
<trkpt lat="53.373802" lon="-1.593075"><ele>279</ele><time>2020-05-21T10:33:49Z</time><name>PT2780</name></trkpt>
<trkpt lat="53.373790" lon="-1.593084"><ele>281</ele><time>2020-05-21T10:33:49Z</time><name>PT2781</name></trkpt>
<trkpt lat="53.373778" lon="-1.593093"><ele>280</ele><time>2020-05-21T10:33:50Z</time><name>PT2782</name></trkpt>
<trkpt lat="53.373759" lon="-1.593094"><ele>280</ele><time>2020-05-21T10:33:52Z</time><name>PT2783</name></trkpt>
<trkpt lat="53.373739" lon="-1.593091"><ele>280</ele><time>2020-05-21T10:33:52Z</time><name>PT2784</name></trkpt>
<trkpt lat="53.373722" lon="-1.593088"><ele>279</ele><time>2020-05-21T10:33:53Z</time><name>PT2785</name></trkpt>
<trkpt lat="53.373706" lon="-1.593086"><ele>280</ele><time>2020-05-21T10:33:55Z</time><name>PT2786</name></trkpt>
<trkpt lat="53.373696" lon="-1.593082"><ele>280</ele><time>2020-05-21T10:33:55Z</time><name>PT2787</name></trkpt>
<trkpt lat="53.373686" lon="-1.593080"><ele>280</ele><time>2020-05-21T10:33:56Z</time><name>PT2788</name></trkpt>
<trkpt lat="53.373674" lon="-1.593073"><ele>280</ele><time>2020-05-21T10:33:58Z</time><name>PT2789</name></trkpt>
<trkpt lat="53.373663" lon="-1.593068"><ele>280</ele><time>2020-05-21T10:33:58Z</time><name>PT2790</name></trkpt>
<trkpt lat="53.373651" lon="-1.593069"><ele>279</ele><time>2020-05-21T10:33:59Z</time><name>PT2791</name></trkpt>
<trkpt lat="53.373637" lon="-1.593069"><ele>279</ele><time>2020-05-21T10:34:01Z</time><name>PT2792</name></trkpt>
<trkpt lat="53.373624" lon="-1.593067"><ele>279</ele><time>2020-05-21T10:34:01Z</time><name>PT2793</name></trkpt>
<trkpt lat="53.373618" lon="-1.593072"><ele>279</ele><time>2020-05-21T10:34:02Z</time><name>PT2794</name></trkpt>
<trkpt lat="53.373608" lon="-1.593068"><ele>280</ele><time>2020-05-21T10:34:04Z</time><name>PT2795</name></trkpt>
<trkpt lat="53.373595" lon="-1.593067"><ele>279</ele><time>2020-05-21T10:34:04Z</time><name>PT2796</name></trkpt>
<trkpt lat="53.373580" lon="-1.593067"><ele>279</ele><time>2020-05-21T10:34:06Z</time><name>PT2797</name></trkpt>
<trkpt lat="53.373567" lon="-1.593073"><ele>278</ele><time>2020-05-21T10:34:07Z</time><name>PT2798</name></trkpt>
<trkpt lat="53.373558" lon="-1.593078"><ele>277</ele><time>2020-05-21T10:34:07Z</time><name>PT2799</name></trkpt>
<trkpt lat="53.373547" lon="-1.593087"><ele>275</ele><time>2020-05-21T10:34:08Z</time><name>PT2800</name></trkpt>
<trkpt lat="53.373537" lon="-1.593090"><ele>274</ele><time>2020-05-21T10:34:10Z</time><name>PT2801</name></trkpt>
<trkpt lat="53.373526" lon="-1.593090"><ele>274</ele><time>2020-05-21T10:34:10Z</time><name>PT2802</name></trkpt>
<trkpt lat="53.373515" lon="-1.593096"><ele>275</ele><time>2020-05-21T10:34:11Z</time><name>PT2803</name></trkpt>
<trkpt lat="53.373512" lon="-1.593104"><ele>273</ele><time>2020-05-21T10:34:13Z</time><name>PT2804</name></trkpt>
<trkpt lat="53.373496" lon="-1.593112"><ele>277</ele><time>2020-05-21T10:34:13Z</time><name>PT2805</name></trkpt>
<trkpt lat="53.373482" lon="-1.593114"><ele>278</ele><time>2020-05-21T10:34:14Z</time><name>PT2806</name></trkpt>
<trkpt lat="53.373469" lon="-1.593115"><ele>279</ele><time>2020-05-21T10:34:16Z</time><name>PT2807</name></trkpt>
<trkpt lat="53.373457" lon="-1.593114"><ele>278</ele><time>2020-05-21T10:34:16Z</time><name>PT2808</name></trkpt>
<trkpt lat="53.373443" lon="-1.593118"><ele>278</ele><time>2020-05-21T10:34:17Z</time><name>PT2809</name></trkpt>
<trkpt lat="53.373429" lon="-1.593118"><ele>278</ele><time>2020-05-21T10:34:19Z</time><name>PT2810</name></trkpt>
<trkpt lat="53.373411" lon="-1.593114"><ele>277</ele><time>2020-05-21T10:34:19Z</time><name>PT2811</name></trkpt>
<trkpt lat="53.373396" lon="-1.593112"><ele>277</ele><time>2020-05-21T10:34:20Z</time><name>PT2812</name></trkpt>
<trkpt lat="53.373382" lon="-1.593115"><ele>277</ele><time>2020-05-21T10:34:22Z</time><name>PT2813</name></trkpt>
<trkpt lat="53.373371" lon="-1.593119"><ele>276</ele><time>2020-05-21T10:34:22Z</time><name>PT2814</name></trkpt>
<trkpt lat="53.373359" lon="-1.593115"><ele>275</ele><time>2020-05-21T10:34:23Z</time><name>PT2815</name></trkpt>
<trkpt lat="53.373347" lon="-1.593120"><ele>274</ele><time>2020-05-21T10:34:25Z</time><name>PT2816</name></trkpt>
<trkpt lat="53.373337" lon="-1.593135"><ele>275</ele><time>2020-05-21T10:34:25Z</time><name>PT2817</name></trkpt>
<trkpt lat="53.373326" lon="-1.593131"><ele>275</ele><time>2020-05-21T10:34:26Z</time><name>PT2818</name></trkpt>
<trkpt lat="53.373309" lon="-1.593129"><ele>274</ele><time>2020-05-21T10:34:28Z</time><name>PT2819</name></trkpt>
<trkpt lat="53.373298" lon="-1.593124"><ele>274</ele><time>2020-05-21T10:34:28Z</time><name>PT2820</name></trkpt>
<trkpt lat="53.373288" lon="-1.593129"><ele>275</ele><time>2020-05-21T10:34:29Z</time><name>PT2821</name></trkpt>
<trkpt lat="53.373272" lon="-1.593127"><ele>274</ele><time>2020-05-21T10:34:31Z</time><name>PT2822</name></trkpt>
<trkpt lat="53.373260" lon="-1.593123"><ele>274</ele><time>2020-05-21T10:34:31Z</time><name>PT2823</name></trkpt>
<trkpt lat="53.373245" lon="-1.593127"><ele>273</ele><time>2020-05-21T10:34:32Z</time><name>PT2824</name></trkpt>
<trkpt lat="53.373232" lon="-1.593134"><ele>273</ele><time>2020-05-21T10:34:34Z</time><name>PT2825</name></trkpt>
<trkpt lat="53.373219" lon="-1.593148"><ele>274</ele><time>2020-05-21T10:34:34Z</time><name>PT2826</name></trkpt>
<trkpt lat="53.373202" lon="-1.593148"><ele>273</ele><time>2020-05-21T10:34:35Z</time><name>PT2827</name></trkpt>
<trkpt lat="53.373190" lon="-1.593146"><ele>273</ele><time>2020-05-21T10:34:37Z</time><name>PT2828</name></trkpt>
<trkpt lat="53.373166" lon="-1.593139"><ele>273</ele><time>2020-05-21T10:34:37Z</time><name>PT2829</name></trkpt>
<trkpt lat="53.373154" lon="-1.593142"><ele>272</ele><time>2020-05-21T10:34:38Z</time><name>PT2830</name></trkpt>
<trkpt lat="53.373143" lon="-1.593147"><ele>273</ele><time>2020-05-21T10:34:40Z</time><name>PT2831</name></trkpt>
<trkpt lat="53.373129" lon="-1.593155"><ele>271</ele><time>2020-05-21T10:34:40Z</time><name>PT2832</name></trkpt>
<trkpt lat="53.373117" lon="-1.593158"><ele>271</ele><time>2020-05-21T10:34:41Z</time><name>PT2833</name></trkpt>
<trkpt lat="53.373103" lon="-1.593159"><ele>272</ele><time>2020-05-21T10:34:43Z</time><name>PT2834</name></trkpt>
<trkpt lat="53.373090" lon="-1.593154"><ele>272</ele><time>2020-05-21T10:34:43Z</time><name>PT2835</name></trkpt>
<trkpt lat="53.373080" lon="-1.593157"><ele>271</ele><time>2020-05-21T10:34:44Z</time><name>PT2836</name></trkpt>
<trkpt lat="53.373073" lon="-1.593155"><ele>272</ele><time>2020-05-21T10:34:46Z</time><name>PT2837</name></trkpt>
<trkpt lat="53.373064" lon="-1.593153"><ele>271</ele><time>2020-05-21T10:34:46Z</time><name>PT2838</name></trkpt>
<trkpt lat="53.373052" lon="-1.593154"><ele>271</ele><time>2020-05-21T10:34:47Z</time><name>PT2839</name></trkpt>
<trkpt lat="53.373038" lon="-1.593150"><ele>271</ele><time>2020-05-21T10:34:49Z</time><name>PT2840</name></trkpt>
<trkpt lat="53.373028" lon="-1.593148"><ele>271</ele><time>2020-05-21T10:34:49Z</time><name>PT2841</name></trkpt>
<trkpt lat="53.373018" lon="-1.593148"><ele>270</ele><time>2020-05-21T10:34:50Z</time><name>PT2842</name></trkpt>
<trkpt lat="53.373010" lon="-1.593146"><ele>269</ele><time>2020-05-21T10:34:52Z</time><name>PT2843</name></trkpt>
<trkpt lat="53.372997" lon="-1.593137"><ele>269</ele><time>2020-05-21T10:34:52Z</time><name>PT2844</name></trkpt>
<trkpt lat="53.372984" lon="-1.593121"><ele>269</ele><time>2020-05-21T10:34:53Z</time><name>PT2845</name></trkpt>
<trkpt lat="53.372974" lon="-1.593120"><ele>270</ele><time>2020-05-21T10:34:55Z</time><name>PT2846</name></trkpt>
<trkpt lat="53.372965" lon="-1.593118"><ele>271</ele><time>2020-05-21T10:34:55Z</time><name>PT2847</name></trkpt>
<trkpt lat="53.372957" lon="-1.593121"><ele>272</ele><time>2020-05-21T10:34:56Z</time><name>PT2848</name></trkpt>
<trkpt lat="53.372943" lon="-1.593112"><ele>274</ele><time>2020-05-21T10:34:58Z</time><name>PT2849</name></trkpt>
<trkpt lat="53.372929" lon="-1.593101"><ele>275</ele><time>2020-05-21T10:34:58Z</time><name>PT2850</name></trkpt>
<trkpt lat="53.372921" lon="-1.593091"><ele>276</ele><time>2020-05-21T10:34:59Z</time><name>PT2851</name></trkpt>
<trkpt lat="53.372911" lon="-1.593094"><ele>275</ele><time>2020-05-21T10:35:01Z</time><name>PT2852</name></trkpt>
<trkpt lat="53.372896" lon="-1.593092"><ele>274</ele><time>2020-05-21T10:35:01Z</time><name>PT2853</name></trkpt>
<trkpt lat="53.372881" lon="-1.593089"><ele>274</ele><time>2020-05-21T10:35:02Z</time><name>PT2854</name></trkpt>
<trkpt lat="53.372867" lon="-1.593085"><ele>275</ele><time>2020-05-21T10:35:04Z</time><name>PT2855</name></trkpt>
<trkpt lat="53.372854" lon="-1.593087"><ele>275</ele><time>2020-05-21T10:35:04Z</time><name>PT2856</name></trkpt>
<trkpt lat="53.372846" lon="-1.593085"><ele>274</ele><time>2020-05-21T10:35:05Z</time><name>PT2857</name></trkpt>
<trkpt lat="53.372834" lon="-1.593085"><ele>273</ele><time>2020-05-21T10:35:07Z</time><name>PT2858</name></trkpt>
<trkpt lat="53.372821" lon="-1.593074"><ele>274</ele><time>2020-05-21T10:35:07Z</time><name>PT2859</name></trkpt>
<trkpt lat="53.372807" lon="-1.593068"><ele>275</ele><time>2020-05-21T10:35:08Z</time><name>PT2860</name></trkpt>
<trkpt lat="53.372799" lon="-1.593069"><ele>275</ele><time>2020-05-21T10:35:10Z</time><name>PT2861</name></trkpt>
<trkpt lat="53.372789" lon="-1.593064"><ele>275</ele><time>2020-05-21T10:35:10Z</time><name>PT2862</name></trkpt>
<trkpt lat="53.372778" lon="-1.593056"><ele>275</ele><time>2020-05-21T10:35:11Z</time><name>PT2863</name></trkpt>
<trkpt lat="53.372768" lon="-1.593051"><ele>276</ele><time>2020-05-21T10:35:13Z</time><name>PT2864</name></trkpt>
<trkpt lat="53.372760" lon="-1.593044"><ele>277</ele><time>2020-05-21T10:35:13Z</time><name>PT2865</name></trkpt>
<trkpt lat="53.372747" lon="-1.593038"><ele>276</ele><time>2020-05-21T10:35:14Z</time><name>PT2866</name></trkpt>
<trkpt lat="53.372736" lon="-1.593042"><ele>275</ele><time>2020-05-21T10:35:16Z</time><name>PT2867</name></trkpt>
<trkpt lat="53.372727" lon="-1.593038"><ele>275</ele><time>2020-05-21T10:35:16Z</time><name>PT2868</name></trkpt>
<trkpt lat="53.372719" lon="-1.593038"><ele>276</ele><time>2020-05-21T10:35:17Z</time><name>PT2869</name></trkpt>
<trkpt lat="53.372699" lon="-1.593038"><ele>276</ele><time>2020-05-21T10:35:19Z</time><name>PT2870</name></trkpt>
<trkpt lat="53.372687" lon="-1.593032"><ele>275</ele><time>2020-05-21T10:35:19Z</time><name>PT2871</name></trkpt>
<trkpt lat="53.372677" lon="-1.593031"><ele>274</ele><time>2020-05-21T10:35:21Z</time><name>PT2872</name></trkpt>
<trkpt lat="53.372664" lon="-1.593023"><ele>274</ele><time>2020-05-21T10:35:22Z</time><name>PT2873</name></trkpt>
<trkpt lat="53.372657" lon="-1.593023"><ele>274</ele><time>2020-05-21T10:35:22Z</time><name>PT2874</name></trkpt>
<trkpt lat="53.372644" lon="-1.593018"><ele>274</ele><time>2020-05-21T10:35:23Z</time><name>PT2875</name></trkpt>
<trkpt lat="53.372633" lon="-1.593013"><ele>273</ele><time>2020-05-21T10:35:25Z</time><name>PT2876</name></trkpt>
<trkpt lat="53.372622" lon="-1.593010"><ele>273</ele><time>2020-05-21T10:35:25Z</time><name>PT2877</name></trkpt>
<trkpt lat="53.372616" lon="-1.593014"><ele>272</ele><time>2020-05-21T10:35:26Z</time><name>PT2878</name></trkpt>
<trkpt lat="53.372605" lon="-1.593006"><ele>272</ele><time>2020-05-21T10:35:28Z</time><name>PT2879</name></trkpt>
<trkpt lat="53.372586" lon="-1.593002"><ele>273</ele><time>2020-05-21T10:35:28Z</time><name>PT2880</name></trkpt>
<trkpt lat="53.372564" lon="-1.592986"><ele>275</ele><time>2020-05-21T10:35:29Z</time><name>PT2881</name></trkpt>
<trkpt lat="53.372552" lon="-1.592949"><ele>274</ele><time>2020-05-21T10:35:31Z</time><name>PT2882</name></trkpt>
<trkpt lat="53.372543" lon="-1.592943"><ele>274</ele><time>2020-05-21T10:35:31Z</time><name>PT2883</name></trkpt>
<trkpt lat="53.372536" lon="-1.592939"><ele>274</ele><time>2020-05-21T10:35:32Z</time><name>PT2884</name></trkpt>
<trkpt lat="53.372527" lon="-1.592939"><ele>273</ele><time>2020-05-21T10:35:34Z</time><name>PT2885</name></trkpt>
<trkpt lat="53.372514" lon="-1.592938"><ele>272</ele><time>2020-05-21T10:35:34Z</time><name>PT2886</name></trkpt>
<trkpt lat="53.372498" lon="-1.592938"><ele>272</ele><time>2020-05-21T10:35:35Z</time><name>PT2887</name></trkpt>
<trkpt lat="53.372491" lon="-1.592935"><ele>272</ele><time>2020-05-21T10:35:37Z</time><name>PT2888</name></trkpt>
<trkpt lat="53.372483" lon="-1.592915"><ele>273</ele><time>2020-05-21T10:35:37Z</time><name>PT2889</name></trkpt>
<trkpt lat="53.372471" lon="-1.592906"><ele>274</ele><time>2020-05-21T10:35:38Z</time><name>PT2890</name></trkpt>
<trkpt lat="53.372463" lon="-1.592904"><ele>274</ele><time>2020-05-21T10:35:40Z</time><name>PT2891</name></trkpt>
<trkpt lat="53.372454" lon="-1.592902"><ele>274</ele><time>2020-05-21T10:35:40Z</time><name>PT2892</name></trkpt>
<trkpt lat="53.372447" lon="-1.592909"><ele>273</ele><time>2020-05-21T10:35:41Z</time><name>PT2893</name></trkpt>
<trkpt lat="53.372440" lon="-1.592914"><ele>273</ele><time>2020-05-21T10:35:43Z</time><name>PT2894</name></trkpt>
<trkpt lat="53.372429" lon="-1.592915"><ele>273</ele><time>2020-05-21T10:35:43Z</time><name>PT2895</name></trkpt>
<trkpt lat="53.372415" lon="-1.592920"><ele>273</ele><time>2020-05-21T10:35:44Z</time><name>PT2896</name></trkpt>
<trkpt lat="53.372398" lon="-1.592920"><ele>274</ele><time>2020-05-21T10:35:46Z</time><name>PT2897</name></trkpt>
<trkpt lat="53.372384" lon="-1.592919"><ele>274</ele><time>2020-05-21T10:35:46Z</time><name>PT2898</name></trkpt>
<trkpt lat="53.372377" lon="-1.592918"><ele>274</ele><time>2020-05-21T10:35:47Z</time><name>PT2899</name></trkpt>
<trkpt lat="53.372369" lon="-1.592913"><ele>274</ele><time>2020-05-21T10:35:49Z</time><name>PT2900</name></trkpt>
<trkpt lat="53.372358" lon="-1.592905"><ele>274</ele><time>2020-05-21T10:35:49Z</time><name>PT2901</name></trkpt>
<trkpt lat="53.372345" lon="-1.592903"><ele>274</ele><time>2020-05-21T10:35:50Z</time><name>PT2902</name></trkpt>
<trkpt lat="53.372336" lon="-1.592899"><ele>273</ele><time>2020-05-21T10:35:52Z</time><name>PT2903</name></trkpt>
<trkpt lat="53.372332" lon="-1.592901"><ele>274</ele><time>2020-05-21T10:35:52Z</time><name>PT2904</name></trkpt>
<trkpt lat="53.372324" lon="-1.592897"><ele>275</ele><time>2020-05-21T10:35:53Z</time><name>PT2905</name></trkpt>
<trkpt lat="53.372315" lon="-1.592896"><ele>275</ele><time>2020-05-21T10:35:55Z</time><name>PT2906</name></trkpt>
<trkpt lat="53.372302" lon="-1.592887"><ele>275</ele><time>2020-05-21T10:35:55Z</time><name>PT2907</name></trkpt>
<trkpt lat="53.372295" lon="-1.592889"><ele>275</ele><time>2020-05-21T10:35:56Z</time><name>PT2908</name></trkpt>
<trkpt lat="53.372290" lon="-1.592889"><ele>275</ele><time>2020-05-21T10:35:58Z</time><name>PT2909</name></trkpt>
<trkpt lat="53.372283" lon="-1.592890"><ele>275</ele><time>2020-05-21T10:35:58Z</time><name>PT2910</name></trkpt>
<trkpt lat="53.372270" lon="-1.592887"><ele>276</ele><time>2020-05-21T10:35:59Z</time><name>PT2911</name></trkpt>
<trkpt lat="53.372257" lon="-1.592883"><ele>277</ele><time>2020-05-21T10:36:01Z</time><name>PT2912</name></trkpt>
<trkpt lat="53.372244" lon="-1.592882"><ele>276</ele><time>2020-05-21T10:36:01Z</time><name>PT2913</name></trkpt>
<trkpt lat="53.372235" lon="-1.592885"><ele>276</ele><time>2020-05-21T10:36:02Z</time><name>PT2914</name></trkpt>
<trkpt lat="53.372227" lon="-1.592879"><ele>277</ele><time>2020-05-21T10:36:04Z</time><name>PT2915</name></trkpt>
<trkpt lat="53.372213" lon="-1.592876"><ele>277</ele><time>2020-05-21T10:36:04Z</time><name>PT2916</name></trkpt>
<trkpt lat="53.372199" lon="-1.592871"><ele>277</ele><time>2020-05-21T10:36:05Z</time><name>PT2917</name></trkpt>
<trkpt lat="53.372183" lon="-1.592864"><ele>277</ele><time>2020-05-21T10:36:07Z</time><name>PT2918</name></trkpt>
<trkpt lat="53.372174" lon="-1.592865"><ele>278</ele><time>2020-05-21T10:36:07Z</time><name>PT2919</name></trkpt>
<trkpt lat="53.372166" lon="-1.592859"><ele>279</ele><time>2020-05-21T10:36:08Z</time><name>PT2920</name></trkpt>
<trkpt lat="53.372158" lon="-1.592863"><ele>280</ele><time>2020-05-21T10:36:10Z</time><name>PT2921</name></trkpt>
<trkpt lat="53.372143" lon="-1.592866"><ele>280</ele><time>2020-05-21T10:36:10Z</time><name>PT2922</name></trkpt>
<trkpt lat="53.372131" lon="-1.592869"><ele>282</ele><time>2020-05-21T10:36:11Z</time><name>PT2923</name></trkpt>
<trkpt lat="53.372119" lon="-1.592873"><ele>282</ele><time>2020-05-21T10:36:13Z</time><name>PT2924</name></trkpt>
<trkpt lat="53.372111" lon="-1.592872"><ele>282</ele><time>2020-05-21T10:36:13Z</time><name>PT2925</name></trkpt>
<trkpt lat="53.372100" lon="-1.592879"><ele>281</ele><time>2020-05-21T10:36:14Z</time><name>PT2926</name></trkpt>
<trkpt lat="53.372090" lon="-1.592886"><ele>282</ele><time>2020-05-21T10:36:16Z</time><name>PT2927</name></trkpt>
<trkpt lat="53.372076" lon="-1.592889"><ele>281</ele><time>2020-05-21T10:36:16Z</time><name>PT2928</name></trkpt>
<trkpt lat="53.372058" lon="-1.592889"><ele>280</ele><time>2020-05-21T10:36:17Z</time><name>PT2929</name></trkpt>
<trkpt lat="53.372049" lon="-1.592893"><ele>281</ele><time>2020-05-21T10:36:19Z</time><name>PT2930</name></trkpt>
<trkpt lat="53.372038" lon="-1.592884"><ele>282</ele><time>2020-05-21T10:36:19Z</time><name>PT2931</name></trkpt>
<trkpt lat="53.372025" lon="-1.592886"><ele>281</ele><time>2020-05-21T10:36:20Z</time><name>PT2932</name></trkpt>
<trkpt lat="53.372001" lon="-1.592890"><ele>280</ele><time>2020-05-21T10:36:22Z</time><name>PT2933</name></trkpt>
<trkpt lat="53.371991" lon="-1.592892"><ele>280</ele><time>2020-05-21T10:36:22Z</time><name>PT2934</name></trkpt>
<trkpt lat="53.371982" lon="-1.592889"><ele>282</ele><time>2020-05-21T10:36:23Z</time><name>PT2935</name></trkpt>
<trkpt lat="53.371968" lon="-1.592899"><ele>281</ele><time>2020-05-21T10:36:25Z</time><name>PT2936</name></trkpt>
<trkpt lat="53.371957" lon="-1.592902"><ele>281</ele><time>2020-05-21T10:36:25Z</time><name>PT2937</name></trkpt>
<trkpt lat="53.371939" lon="-1.592906"><ele>281</ele><time>2020-05-21T10:36:26Z</time><name>PT2938</name></trkpt>
<trkpt lat="53.371927" lon="-1.592904"><ele>281</ele><time>2020-05-21T10:36:28Z</time><name>PT2939</name></trkpt>
<trkpt lat="53.371920" lon="-1.592903"><ele>280</ele><time>2020-05-21T10:36:28Z</time><name>PT2940</name></trkpt>
<trkpt lat="53.371908" lon="-1.592900"><ele>280</ele><time>2020-05-21T10:36:29Z</time><name>PT2941</name></trkpt>
<trkpt lat="53.371897" lon="-1.592892"><ele>280</ele><time>2020-05-21T10:36:31Z</time><name>PT2942</name></trkpt>
<trkpt lat="53.371884" lon="-1.592894"><ele>280</ele><time>2020-05-21T10:36:31Z</time><name>PT2943</name></trkpt>
<trkpt lat="53.371877" lon="-1.592896"><ele>280</ele><time>2020-05-21T10:36:32Z</time><name>PT2944</name></trkpt>
<trkpt lat="53.371865" lon="-1.592897"><ele>280</ele><time>2020-05-21T10:36:34Z</time><name>PT2945</name></trkpt>
<trkpt lat="53.371848" lon="-1.592895"><ele>280</ele><time>2020-05-21T10:36:34Z</time><name>PT2946</name></trkpt>
<trkpt lat="53.371836" lon="-1.592886"><ele>281</ele><time>2020-05-21T10:36:35Z</time><name>PT2947</name></trkpt>
<trkpt lat="53.371828" lon="-1.592885"><ele>281</ele><time>2020-05-21T10:36:37Z</time><name>PT2948</name></trkpt>
<trkpt lat="53.371822" lon="-1.592896"><ele>281</ele><time>2020-05-21T10:36:37Z</time><name>PT2949</name></trkpt>
<trkpt lat="53.371810" lon="-1.592893"><ele>281</ele><time>2020-05-21T10:36:38Z</time><name>PT2950</name></trkpt>
<trkpt lat="53.371799" lon="-1.592900"><ele>281</ele><time>2020-05-21T10:36:40Z</time><name>PT2951</name></trkpt>
<trkpt lat="53.371788" lon="-1.592894"><ele>283</ele><time>2020-05-21T10:36:40Z</time><name>PT2952</name></trkpt>
<trkpt lat="53.371783" lon="-1.592893"><ele>284</ele><time>2020-05-21T10:36:41Z</time><name>PT2953</name></trkpt>
<trkpt lat="53.371778" lon="-1.592881"><ele>284</ele><time>2020-05-21T10:36:43Z</time><name>PT2954</name></trkpt>
<trkpt lat="53.371773" lon="-1.592877"><ele>284</ele><time>2020-05-21T10:36:43Z</time><name>PT2955</name></trkpt>
<trkpt lat="53.371769" lon="-1.592879"><ele>284</ele><time>2020-05-21T10:36:44Z</time><name>PT2956</name></trkpt>
<trkpt lat="53.371767" lon="-1.592889"><ele>285</ele><time>2020-05-21T10:36:46Z</time><name>PT2957</name></trkpt>
<trkpt lat="53.371763" lon="-1.592905"><ele>284</ele><time>2020-05-21T10:36:46Z</time><name>PT2958</name></trkpt>
<trkpt lat="53.371755" lon="-1.592922"><ele>285</ele><time>2020-05-21T10:36:47Z</time><name>PT2959</name></trkpt>
<trkpt lat="53.371743" lon="-1.592928"><ele>285</ele><time>2020-05-21T10:36:49Z</time><name>PT2960</name></trkpt>
<trkpt lat="53.371734" lon="-1.592943"><ele>285</ele><time>2020-05-21T10:36:49Z</time><name>PT2961</name></trkpt>
<trkpt lat="53.371724" lon="-1.592951"><ele>286</ele><time>2020-05-21T10:36:50Z</time><name>PT2962</name></trkpt>
<trkpt lat="53.371713" lon="-1.592965"><ele>286</ele><time>2020-05-21T10:36:52Z</time><name>PT2963</name></trkpt>
<trkpt lat="53.371708" lon="-1.592976"><ele>287</ele><time>2020-05-21T10:36:52Z</time><name>PT2964</name></trkpt>
<trkpt lat="53.371704" lon="-1.592986"><ele>288</ele><time>2020-05-21T10:36:53Z</time><name>PT2965</name></trkpt>
<trkpt lat="53.371697" lon="-1.593000"><ele>287</ele><time>2020-05-21T10:36:55Z</time><name>PT2966</name></trkpt>
<trkpt lat="53.371689" lon="-1.593022"><ele>287</ele><time>2020-05-21T10:36:55Z</time><name>PT2967</name></trkpt>
<trkpt lat="53.371683" lon="-1.593037"><ele>288</ele><time>2020-05-21T10:36:56Z</time><name>PT2968</name></trkpt>
<trkpt lat="53.371678" lon="-1.593049"><ele>288</ele><time>2020-05-21T10:36:58Z</time><name>PT2969</name></trkpt>
<trkpt lat="53.371672" lon="-1.593065"><ele>288</ele><time>2020-05-21T10:36:58Z</time><name>PT2970</name></trkpt>
<trkpt lat="53.371664" lon="-1.593079"><ele>288</ele><time>2020-05-21T10:36:59Z</time><name>PT2971</name></trkpt>
<trkpt lat="53.371654" lon="-1.593092"><ele>288</ele><time>2020-05-21T10:37:01Z</time><name>PT2972</name></trkpt>
<trkpt lat="53.371643" lon="-1.593102"><ele>288</ele><time>2020-05-21T10:37:01Z</time><name>PT2973</name></trkpt>
<trkpt lat="53.371637" lon="-1.593112"><ele>289</ele><time>2020-05-21T10:37:02Z</time><name>PT2974</name></trkpt>
<trkpt lat="53.371628" lon="-1.593125"><ele>289</ele><time>2020-05-21T10:37:04Z</time><name>PT2975</name></trkpt>
<trkpt lat="53.371621" lon="-1.593144"><ele>287</ele><time>2020-05-21T10:37:04Z</time><name>PT2976</name></trkpt>
<trkpt lat="53.371614" lon="-1.593162"><ele>288</ele><time>2020-05-21T10:37:05Z</time><name>PT2977</name></trkpt>
<trkpt lat="53.371603" lon="-1.593174"><ele>288</ele><time>2020-05-21T10:37:07Z</time><name>PT2978</name></trkpt>
<trkpt lat="53.371592" lon="-1.593185"><ele>287</ele><time>2020-05-21T10:37:07Z</time><name>PT2979</name></trkpt>
<trkpt lat="53.371585" lon="-1.593195"><ele>287</ele><time>2020-05-21T10:37:08Z</time><name>PT2980</name></trkpt>
<trkpt lat="53.371575" lon="-1.593209"><ele>286</ele><time>2020-05-21T10:37:10Z</time><name>PT2981</name></trkpt>
<trkpt lat="53.371567" lon="-1.593225"><ele>286</ele><time>2020-05-21T10:37:10Z</time><name>PT2982</name></trkpt>
<trkpt lat="53.371561" lon="-1.593234"><ele>287</ele><time>2020-05-21T10:37:11Z</time><name>PT2983</name></trkpt>
<trkpt lat="53.371556" lon="-1.593244"><ele>286</ele><time>2020-05-21T10:37:13Z</time><name>PT2984</name></trkpt>
<trkpt lat="53.371545" lon="-1.593262"><ele>287</ele><time>2020-05-21T10:37:13Z</time><name>PT2985</name></trkpt>
<trkpt lat="53.371535" lon="-1.593279"><ele>288</ele><time>2020-05-21T10:37:14Z</time><name>PT2986</name></trkpt>
<trkpt lat="53.371529" lon="-1.593293"><ele>288</ele><time>2020-05-21T10:37:16Z</time><name>PT2987</name></trkpt>
<trkpt lat="53.371521" lon="-1.593303"><ele>287</ele><time>2020-05-21T10:37:16Z</time><name>PT2988</name></trkpt>
<trkpt lat="53.371522" lon="-1.593309"><ele>287</ele><time>2020-05-21T10:37:17Z</time><name>PT2989</name></trkpt>
<trkpt lat="53.371515" lon="-1.593319"><ele>287</ele><time>2020-05-21T10:37:19Z</time><name>PT2990</name></trkpt>
<trkpt lat="53.371506" lon="-1.593335"><ele>288</ele><time>2020-05-21T10:37:19Z</time><name>PT2991</name></trkpt>
<trkpt lat="53.371502" lon="-1.593351"><ele>288</ele><time>2020-05-21T10:37:21Z</time><name>PT2992</name></trkpt>
<trkpt lat="53.371499" lon="-1.593364"><ele>289</ele><time>2020-05-21T10:37:22Z</time><name>PT2993</name></trkpt>
<trkpt lat="53.371493" lon="-1.593381"><ele>289</ele><time>2020-05-21T10:37:22Z</time><name>PT2994</name></trkpt>
<trkpt lat="53.371486" lon="-1.593397"><ele>290</ele><time>2020-05-21T10:37:23Z</time><name>PT2995</name></trkpt>
<trkpt lat="53.371479" lon="-1.593415"><ele>290</ele><time>2020-05-21T10:37:25Z</time><name>PT2996</name></trkpt>
<trkpt lat="53.371477" lon="-1.593432"><ele>290</ele><time>2020-05-21T10:37:25Z</time><name>PT2997</name></trkpt>
<trkpt lat="53.371477" lon="-1.593447"><ele>291</ele><time>2020-05-21T10:37:27Z</time><name>PT2998</name></trkpt>
<trkpt lat="53.371472" lon="-1.593467"><ele>293</ele><time>2020-05-21T10:37:28Z</time><name>PT2999</name></trkpt>
<trkpt lat="53.371468" lon="-1.593491"><ele>293</ele><time>2020-05-21T10:37:28Z</time><name>PT3000</name></trkpt>
<trkpt lat="53.371463" lon="-1.593509"><ele>292</ele><time>2020-05-21T10:37:29Z</time><name>PT3001</name></trkpt>
<trkpt lat="53.371462" lon="-1.593525"><ele>292</ele><time>2020-05-21T10:37:31Z</time><name>PT3002</name></trkpt>
<trkpt lat="53.371455" lon="-1.593538"><ele>292</ele><time>2020-05-21T10:37:31Z</time><name>PT3003</name></trkpt>
<trkpt lat="53.371452" lon="-1.593557"><ele>292</ele><time>2020-05-21T10:37:32Z</time><name>PT3004</name></trkpt>
<trkpt lat="53.371450" lon="-1.593576"><ele>292</ele><time>2020-05-21T10:37:34Z</time><name>PT3005</name></trkpt>
<trkpt lat="53.371449" lon="-1.593591"><ele>291</ele><time>2020-05-21T10:37:34Z</time><name>PT3006</name></trkpt>
<trkpt lat="53.371447" lon="-1.593604"><ele>291</ele><time>2020-05-21T10:37:35Z</time><name>PT3007</name></trkpt>
<trkpt lat="53.371436" lon="-1.593617"><ele>291</ele><time>2020-05-21T10:37:37Z</time><name>PT3008</name></trkpt>
<trkpt lat="53.371430" lon="-1.593637"><ele>291</ele><time>2020-05-21T10:37:37Z</time><name>PT3009</name></trkpt>
<trkpt lat="53.371434" lon="-1.593653"><ele>291</ele><time>2020-05-21T10:37:38Z</time><name>PT3010</name></trkpt>
<trkpt lat="53.371442" lon="-1.593671"><ele>290</ele><time>2020-05-21T10:37:40Z</time><name>PT3011</name></trkpt>
<trkpt lat="53.371440" lon="-1.593687"><ele>290</ele><time>2020-05-21T10:37:40Z</time><name>PT3012</name></trkpt>
<trkpt lat="53.371432" lon="-1.593703"><ele>289</ele><time>2020-05-21T10:37:42Z</time><name>PT3013</name></trkpt>
<trkpt lat="53.371428" lon="-1.593715"><ele>289</ele><time>2020-05-21T10:37:43Z</time><name>PT3014</name></trkpt>
<trkpt lat="53.371425" lon="-1.593725"><ele>290</ele><time>2020-05-21T10:37:43Z</time><name>PT3015</name></trkpt>
<trkpt lat="53.371422" lon="-1.593737"><ele>290</ele><time>2020-05-21T10:37:44Z</time><name>PT3016</name></trkpt>
<trkpt lat="53.371425" lon="-1.593753"><ele>289</ele><time>2020-05-21T10:37:46Z</time><name>PT3017</name></trkpt>
<trkpt lat="53.371427" lon="-1.593766"><ele>290</ele><time>2020-05-21T10:37:46Z</time><name>PT3018</name></trkpt>
<trkpt lat="53.371421" lon="-1.593793"><ele>289</ele><time>2020-05-21T10:37:47Z</time><name>PT3019</name></trkpt>
<trkpt lat="53.371414" lon="-1.593818"><ele>291</ele><time>2020-05-21T10:37:49Z</time><name>PT3020</name></trkpt>
<trkpt lat="53.371413" lon="-1.593834"><ele>290</ele><time>2020-05-21T10:37:49Z</time><name>PT3021</name></trkpt>
<trkpt lat="53.371409" lon="-1.593857"><ele>290</ele><time>2020-05-21T10:37:50Z</time><name>PT3022</name></trkpt>
<trkpt lat="53.371404" lon="-1.593884"><ele>290</ele><time>2020-05-21T10:37:52Z</time><name>PT3023</name></trkpt>
<trkpt lat="53.371385" lon="-1.593897"><ele>290</ele><time>2020-05-21T10:37:52Z</time><name>PT3024</name></trkpt>
<trkpt lat="53.371374" lon="-1.593915"><ele>290</ele><time>2020-05-21T10:37:53Z</time><name>PT3025</name></trkpt>
<trkpt lat="53.371365" lon="-1.593935"><ele>290</ele><time>2020-05-21T10:37:55Z</time><name>PT3026</name></trkpt>
<trkpt lat="53.371362" lon="-1.593952"><ele>291</ele><time>2020-05-21T10:37:55Z</time><name>PT3027</name></trkpt>
<trkpt lat="53.371354" lon="-1.593973"><ele>291</ele><time>2020-05-21T10:37:56Z</time><name>PT3028</name></trkpt>
<trkpt lat="53.371345" lon="-1.593987"><ele>293</ele><time>2020-05-21T10:37:58Z</time><name>PT3029</name></trkpt>
<trkpt lat="53.371335" lon="-1.594003"><ele>294</ele><time>2020-05-21T10:37:58Z</time><name>PT3030</name></trkpt>
<trkpt lat="53.371332" lon="-1.594019"><ele>294</ele><time>2020-05-21T10:37:59Z</time><name>PT3031</name></trkpt>
<trkpt lat="53.371331" lon="-1.594035"><ele>297</ele><time>2020-05-21T10:38:01Z</time><name>PT3032</name></trkpt>
<trkpt lat="53.371324" lon="-1.594063"><ele>300</ele><time>2020-05-21T10:38:01Z</time><name>PT3033</name></trkpt>
<trkpt lat="53.371317" lon="-1.594084"><ele>300</ele><time>2020-05-21T10:38:02Z</time><name>PT3034</name></trkpt>
<trkpt lat="53.371317" lon="-1.594113"><ele>299</ele><time>2020-05-21T10:38:04Z</time><name>PT3035</name></trkpt>
<trkpt lat="53.371311" lon="-1.594145"><ele>299</ele><time>2020-05-21T10:38:04Z</time><name>PT3036</name></trkpt>
<trkpt lat="53.371307" lon="-1.594162"><ele>300</ele><time>2020-05-21T10:38:05Z</time><name>PT3037</name></trkpt>
<trkpt lat="53.371301" lon="-1.594176"><ele>301</ele><time>2020-05-21T10:38:07Z</time><name>PT3038</name></trkpt>
<trkpt lat="53.371296" lon="-1.594196"><ele>302</ele><time>2020-05-21T10:38:07Z</time><name>PT3039</name></trkpt>
<trkpt lat="53.371293" lon="-1.594217"><ele>300</ele><time>2020-05-21T10:38:08Z</time><name>PT3040</name></trkpt>
<trkpt lat="53.371294" lon="-1.594239"><ele>300</ele><time>2020-05-21T10:38:10Z</time><name>PT3041</name></trkpt>
<trkpt lat="53.371298" lon="-1.594256"><ele>300</ele><time>2020-05-21T10:38:10Z</time><name>PT3042</name></trkpt>
<trkpt lat="53.371296" lon="-1.594273"><ele>302</ele><time>2020-05-21T10:38:11Z</time><name>PT3043</name></trkpt>
<trkpt lat="53.371296" lon="-1.594289"><ele>303</ele><time>2020-05-21T10:38:13Z</time><name>PT3044</name></trkpt>
<trkpt lat="53.371299" lon="-1.594308"><ele>302</ele><time>2020-05-21T10:38:13Z</time><name>PT3045</name></trkpt>
<trkpt lat="53.371299" lon="-1.594331"><ele>303</ele><time>2020-05-21T10:38:14Z</time><name>PT3046</name></trkpt>
<trkpt lat="53.371299" lon="-1.594350"><ele>302</ele><time>2020-05-21T10:38:16Z</time><name>PT3047</name></trkpt>
<trkpt lat="53.371296" lon="-1.594373"><ele>303</ele><time>2020-05-21T10:38:16Z</time><name>PT3048</name></trkpt>
<trkpt lat="53.371295" lon="-1.594392"><ele>303</ele><time>2020-05-21T10:38:17Z</time><name>PT3049</name></trkpt>
<trkpt lat="53.371288" lon="-1.594416"><ele>302</ele><time>2020-05-21T10:38:19Z</time><name>PT3050</name></trkpt>
<trkpt lat="53.371287" lon="-1.594440"><ele>301</ele><time>2020-05-21T10:38:19Z</time><name>PT3051</name></trkpt>
<trkpt lat="53.371283" lon="-1.594459"><ele>300</ele><time>2020-05-21T10:38:20Z</time><name>PT3052</name></trkpt>
<trkpt lat="53.371279" lon="-1.594472"><ele>300</ele><time>2020-05-21T10:38:22Z</time><name>PT3053</name></trkpt>
<trkpt lat="53.371267" lon="-1.594484"><ele>299</ele><time>2020-05-21T10:38:22Z</time><name>PT3054</name></trkpt>
<trkpt lat="53.371256" lon="-1.594500"><ele>299</ele><time>2020-05-21T10:38:23Z</time><name>PT3055</name></trkpt>
<trkpt lat="53.371248" lon="-1.594521"><ele>296</ele><time>2020-05-21T10:38:25Z</time><name>PT3056</name></trkpt>
<trkpt lat="53.371241" lon="-1.594537"><ele>295</ele><time>2020-05-21T10:38:25Z</time><name>PT3057</name></trkpt>
<trkpt lat="53.371233" lon="-1.594550"><ele>295</ele><time>2020-05-21T10:38:26Z</time><name>PT3058</name></trkpt>
<trkpt lat="53.371222" lon="-1.594566"><ele>295</ele><time>2020-05-21T10:38:28Z</time><name>PT3059</name></trkpt>
<trkpt lat="53.371214" lon="-1.594583"><ele>296</ele><time>2020-05-21T10:38:28Z</time><name>PT3060</name></trkpt>
<trkpt lat="53.371208" lon="-1.594604"><ele>295</ele><time>2020-05-21T10:38:29Z</time><name>PT3061</name></trkpt>
<trkpt lat="53.371198" lon="-1.594622"><ele>295</ele><time>2020-05-21T10:38:31Z</time><name>PT3062</name></trkpt>
<trkpt lat="53.371190" lon="-1.594631"><ele>296</ele><time>2020-05-21T10:38:31Z</time><name>PT3063</name></trkpt>
<trkpt lat="53.371186" lon="-1.594647"><ele>295</ele><time>2020-05-21T10:38:32Z</time><name>PT3064</name></trkpt>
<trkpt lat="53.371183" lon="-1.594664"><ele>295</ele><time>2020-05-21T10:38:34Z</time><name>PT3065</name></trkpt>
<trkpt lat="53.371177" lon="-1.594682"><ele>295</ele><time>2020-05-21T10:38:34Z</time><name>PT3066</name></trkpt>
<trkpt lat="53.371175" lon="-1.594702"><ele>295</ele><time>2020-05-21T10:38:35Z</time><name>PT3067</name></trkpt>
<trkpt lat="53.371172" lon="-1.594710"><ele>296</ele><time>2020-05-21T10:38:37Z</time><name>PT3068</name></trkpt>
<trkpt lat="53.371165" lon="-1.594722"><ele>296</ele><time>2020-05-21T10:38:37Z</time><name>PT3069</name></trkpt>
<trkpt lat="53.371159" lon="-1.594740"><ele>296</ele><time>2020-05-21T10:38:38Z</time><name>PT3070</name></trkpt>
<trkpt lat="53.371150" lon="-1.594761"><ele>296</ele><time>2020-05-21T10:38:40Z</time><name>PT3071</name></trkpt>
<trkpt lat="53.371147" lon="-1.594778"><ele>295</ele><time>2020-05-21T10:38:40Z</time><name>PT3072</name></trkpt>
<trkpt lat="53.371141" lon="-1.594791"><ele>295</ele><time>2020-05-21T10:38:41Z</time><name>PT3073</name></trkpt>
<trkpt lat="53.371134" lon="-1.594805"><ele>295</ele><time>2020-05-21T10:38:43Z</time><name>PT3074</name></trkpt>
<trkpt lat="53.371126" lon="-1.594819"><ele>294</ele><time>2020-05-21T10:38:43Z</time><name>PT3075</name></trkpt>
<trkpt lat="53.371117" lon="-1.594839"><ele>292</ele><time>2020-05-21T10:38:44Z</time><name>PT3076</name></trkpt>
<trkpt lat="53.371113" lon="-1.594860"><ele>292</ele><time>2020-05-21T10:38:46Z</time><name>PT3077</name></trkpt>
<trkpt lat="53.371112" lon="-1.594876"><ele>292</ele><time>2020-05-21T10:38:46Z</time><name>PT3078</name></trkpt>
<trkpt lat="53.371113" lon="-1.594887"><ele>292</ele><time>2020-05-21T10:38:47Z</time><name>PT3079</name></trkpt>
<trkpt lat="53.371103" lon="-1.594893"><ele>292</ele><time>2020-05-21T10:38:49Z</time><name>PT3080</name></trkpt>
<trkpt lat="53.371096" lon="-1.594911"><ele>293</ele><time>2020-05-21T10:38:49Z</time><name>PT3081</name></trkpt>
<trkpt lat="53.371096" lon="-1.594928"><ele>293</ele><time>2020-05-21T10:38:50Z</time><name>PT3082</name></trkpt>
<trkpt lat="53.371092" lon="-1.594947"><ele>293</ele><time>2020-05-21T10:38:52Z</time><name>PT3083</name></trkpt>
<trkpt lat="53.371081" lon="-1.594967"><ele>291</ele><time>2020-05-21T10:38:52Z</time><name>PT3084</name></trkpt>
<trkpt lat="53.371079" lon="-1.594981"><ele>292</ele><time>2020-05-21T10:38:53Z</time><name>PT3085</name></trkpt>
<trkpt lat="53.371069" lon="-1.594991"><ele>292</ele><time>2020-05-21T10:38:55Z</time><name>PT3086</name></trkpt>
<trkpt lat="53.371056" lon="-1.595003"><ele>291</ele><time>2020-05-21T10:38:55Z</time><name>PT3087</name></trkpt>
<trkpt lat="53.371053" lon="-1.595016"><ele>290</ele><time>2020-05-21T10:38:56Z</time><name>PT3088</name></trkpt>
<trkpt lat="53.371050" lon="-1.595023"><ele>290</ele><time>2020-05-21T10:38:58Z</time><name>PT3089</name></trkpt>
<trkpt lat="53.371042" lon="-1.595038"><ele>290</ele><time>2020-05-21T10:38:58Z</time><name>PT3090</name></trkpt>
<trkpt lat="53.371032" lon="-1.595047"><ele>290</ele><time>2020-05-21T10:38:59Z</time><name>PT3091</name></trkpt>
<trkpt lat="53.371026" lon="-1.595053"><ele>290</ele><time>2020-05-21T10:39:01Z</time><name>PT3092</name></trkpt>
<trkpt lat="53.371022" lon="-1.595065"><ele>289</ele><time>2020-05-21T10:39:01Z</time><name>PT3093</name></trkpt>
<trkpt lat="53.371013" lon="-1.595081"><ele>289</ele><time>2020-05-21T10:39:02Z</time><name>PT3094</name></trkpt>
<trkpt lat="53.371012" lon="-1.595107"><ele>289</ele><time>2020-05-21T10:39:04Z</time><name>PT3095</name></trkpt>
<trkpt lat="53.371009" lon="-1.595129"><ele>288</ele><time>2020-05-21T10:39:04Z</time><name>PT3096</name></trkpt>
<trkpt lat="53.371005" lon="-1.595151"><ele>288</ele><time>2020-05-21T10:39:05Z</time><name>PT3097</name></trkpt>
<trkpt lat="53.371000" lon="-1.595171"><ele>287</ele><time>2020-05-21T10:39:07Z</time><name>PT3098</name></trkpt>
<trkpt lat="53.370994" lon="-1.595181"><ele>287</ele><time>2020-05-21T10:39:07Z</time><name>PT3099</name></trkpt>
<trkpt lat="53.370986" lon="-1.595204"><ele>287</ele><time>2020-05-21T10:39:08Z</time><name>PT3100</name></trkpt>
<trkpt lat="53.370980" lon="-1.595224"><ele>287</ele><time>2020-05-21T10:39:10Z</time><name>PT3101</name></trkpt>
<trkpt lat="53.370976" lon="-1.595231"><ele>288</ele><time>2020-05-21T10:39:10Z</time><name>PT3102</name></trkpt>
<trkpt lat="53.370972" lon="-1.595252"><ele>286</ele><time>2020-05-21T10:39:11Z</time><name>PT3103</name></trkpt>
<trkpt lat="53.370963" lon="-1.595270"><ele>284</ele><time>2020-05-21T10:39:13Z</time><name>PT3104</name></trkpt>
<trkpt lat="53.370952" lon="-1.595290"><ele>283</ele><time>2020-05-21T10:39:13Z</time><name>PT3105</name></trkpt>
<trkpt lat="53.370949" lon="-1.595306"><ele>283</ele><time>2020-05-21T10:39:14Z</time><name>PT3106</name></trkpt>
<trkpt lat="53.370942" lon="-1.595338"><ele>282</ele><time>2020-05-21T10:39:16Z</time><name>PT3107</name></trkpt>
<trkpt lat="53.370910" lon="-1.595368"><ele>282</ele><time>2020-05-21T10:39:16Z</time><name>PT3108</name></trkpt>
<trkpt lat="53.370893" lon="-1.595390"><ele>285</ele><time>2020-05-21T10:39:17Z</time><name>PT3109</name></trkpt>
<trkpt lat="53.370879" lon="-1.595451"><ele>290</ele><time>2020-05-21T10:39:19Z</time><name>PT3110</name></trkpt>
<trkpt lat="53.370869" lon="-1.595471"><ele>292</ele><time>2020-05-21T10:39:19Z</time><name>PT3111</name></trkpt>
<trkpt lat="53.370865" lon="-1.595483"><ele>292</ele><time>2020-05-21T10:39:20Z</time><name>PT3112</name></trkpt>
<trkpt lat="53.370861" lon="-1.595489"><ele>293</ele><time>2020-05-21T10:39:22Z</time><name>PT3113</name></trkpt>
<trkpt lat="53.370855" lon="-1.595498"><ele>294</ele><time>2020-05-21T10:39:22Z</time><name>PT3114</name></trkpt>
<trkpt lat="53.370844" lon="-1.595511"><ele>294</ele><time>2020-05-21T10:39:23Z</time><name>PT3115</name></trkpt>
<trkpt lat="53.370842" lon="-1.595526"><ele>294</ele><time>2020-05-21T10:39:25Z</time><name>PT3116</name></trkpt>
<trkpt lat="53.370841" lon="-1.595537"><ele>295</ele><time>2020-05-21T10:39:25Z</time><name>PT3117</name></trkpt>
<trkpt lat="53.370840" lon="-1.595544"><ele>296</ele><time>2020-05-21T10:39:26Z</time><name>PT3118</name></trkpt>
<trkpt lat="53.370836" lon="-1.595554"><ele>297</ele><time>2020-05-21T10:39:28Z</time><name>PT3119</name></trkpt>
<trkpt lat="53.370831" lon="-1.595561"><ele>296</ele><time>2020-05-21T10:39:28Z</time><name>PT3120</name></trkpt>
<trkpt lat="53.370825" lon="-1.595574"><ele>296</ele><time>2020-05-21T10:39:29Z</time><name>PT3121</name></trkpt>
<trkpt lat="53.370816" lon="-1.595589"><ele>296</ele><time>2020-05-21T10:39:31Z</time><name>PT3122</name></trkpt>
<trkpt lat="53.370812" lon="-1.595596"><ele>297</ele><time>2020-05-21T10:39:31Z</time><name>PT3123</name></trkpt>
<trkpt lat="53.370803" lon="-1.595601"><ele>297</ele><time>2020-05-21T10:39:32Z</time><name>PT3124</name></trkpt>
<trkpt lat="53.370785" lon="-1.595612"><ele>298</ele><time>2020-05-21T10:39:34Z</time><name>PT3125</name></trkpt>
<trkpt lat="53.370774" lon="-1.595623"><ele>299</ele><time>2020-05-21T10:39:34Z</time><name>PT3126</name></trkpt>
<trkpt lat="53.370765" lon="-1.595637"><ele>299</ele><time>2020-05-21T10:39:35Z</time><name>PT3127</name></trkpt>
<trkpt lat="53.370763" lon="-1.595641"><ele>300</ele><time>2020-05-21T10:39:37Z</time><name>PT3128</name></trkpt>
<trkpt lat="53.370759" lon="-1.595650"><ele>300</ele><time>2020-05-21T10:39:37Z</time><name>PT3129</name></trkpt>
<trkpt lat="53.370752" lon="-1.595659"><ele>298</ele><time>2020-05-21T10:39:38Z</time><name>PT3130</name></trkpt>
<trkpt lat="53.370741" lon="-1.595672"><ele>298</ele><time>2020-05-21T10:39:40Z</time><name>PT3131</name></trkpt>
<trkpt lat="53.370730" lon="-1.595684"><ele>299</ele><time>2020-05-21T10:39:40Z</time><name>PT3132</name></trkpt>
<trkpt lat="53.370723" lon="-1.595699"><ele>300</ele><time>2020-05-21T10:39:41Z</time><name>PT3133</name></trkpt>
<trkpt lat="53.370714" lon="-1.595709"><ele>300</ele><time>2020-05-21T10:39:43Z</time><name>PT3134</name></trkpt>
<trkpt lat="53.370704" lon="-1.595713"><ele>300</ele><time>2020-05-21T10:39:43Z</time><name>PT3135</name></trkpt>
<trkpt lat="53.370692" lon="-1.595714"><ele>300</ele><time>2020-05-21T10:39:44Z</time><name>PT3136</name></trkpt>
<trkpt lat="53.370684" lon="-1.595720"><ele>300</ele><time>2020-05-21T10:39:46Z</time><name>PT3137</name></trkpt>
<trkpt lat="53.370677" lon="-1.595724"><ele>300</ele><time>2020-05-21T10:39:46Z</time><name>PT3138</name></trkpt>
<trkpt lat="53.370665" lon="-1.595734"><ele>300</ele><time>2020-05-21T10:39:47Z</time><name>PT3139</name></trkpt>
<trkpt lat="53.370653" lon="-1.595743"><ele>299</ele><time>2020-05-21T10:39:49Z</time><name>PT3140</name></trkpt>
<trkpt lat="53.370640" lon="-1.595751"><ele>299</ele><time>2020-05-21T10:39:49Z</time><name>PT3141</name></trkpt>
<trkpt lat="53.370628" lon="-1.595761"><ele>298</ele><time>2020-05-21T10:39:50Z</time><name>PT3142</name></trkpt>
<trkpt lat="53.370614" lon="-1.595768"><ele>298</ele><time>2020-05-21T10:39:52Z</time><name>PT3143</name></trkpt>
<trkpt lat="53.370600" lon="-1.595780"><ele>297</ele><time>2020-05-21T10:39:52Z</time><name>PT3144</name></trkpt>
<trkpt lat="53.370595" lon="-1.595788"><ele>297</ele><time>2020-05-21T10:39:53Z</time><name>PT3145</name></trkpt>
<trkpt lat="53.370586" lon="-1.595794"><ele>297</ele><time>2020-05-21T10:39:55Z</time><name>PT3146</name></trkpt>
<trkpt lat="53.370576" lon="-1.595806"><ele>296</ele><time>2020-05-21T10:39:55Z</time><name>PT3147</name></trkpt>
<trkpt lat="53.370570" lon="-1.595806"><ele>296</ele><time>2020-05-21T10:39:56Z</time><name>PT3148</name></trkpt>
<trkpt lat="53.370560" lon="-1.595809"><ele>296</ele><time>2020-05-21T10:39:58Z</time><name>PT3149</name></trkpt>
<trkpt lat="53.370549" lon="-1.595823"><ele>299</ele><time>2020-05-21T10:39:58Z</time><name>PT3150</name></trkpt>
<trkpt lat="53.370538" lon="-1.595833"><ele>300</ele><time>2020-05-21T10:39:59Z</time><name>PT3151</name></trkpt>
<trkpt lat="53.370526" lon="-1.595837"><ele>299</ele><time>2020-05-21T10:40:01Z</time><name>PT3152</name></trkpt>
<trkpt lat="53.370516" lon="-1.595843"><ele>298</ele><time>2020-05-21T10:40:01Z</time><name>PT3153</name></trkpt>
<trkpt lat="53.370503" lon="-1.595851"><ele>298</ele><time>2020-05-21T10:40:02Z</time><name>PT3154</name></trkpt>
<trkpt lat="53.370489" lon="-1.595856"><ele>297</ele><time>2020-05-21T10:40:04Z</time><name>PT3155</name></trkpt>
<trkpt lat="53.370474" lon="-1.595858"><ele>298</ele><time>2020-05-21T10:40:04Z</time><name>PT3156</name></trkpt>
<trkpt lat="53.370466" lon="-1.595864"><ele>297</ele><time>2020-05-21T10:40:05Z</time><name>PT3157</name></trkpt>
<trkpt lat="53.370461" lon="-1.595879"><ele>297</ele><time>2020-05-21T10:40:07Z</time><name>PT3158</name></trkpt>
<trkpt lat="53.370449" lon="-1.595889"><ele>298</ele><time>2020-05-21T10:40:07Z</time><name>PT3159</name></trkpt>
<trkpt lat="53.370437" lon="-1.595892"><ele>298</ele><time>2020-05-21T10:40:08Z</time><name>PT3160</name></trkpt>
<trkpt lat="53.370428" lon="-1.595897"><ele>296</ele><time>2020-05-21T10:40:10Z</time><name>PT3161</name></trkpt>
<trkpt lat="53.370414" lon="-1.595908"><ele>296</ele><time>2020-05-21T10:40:10Z</time><name>PT3162</name></trkpt>
<trkpt lat="53.370405" lon="-1.595910"><ele>298</ele><time>2020-05-21T10:40:11Z</time><name>PT3163</name></trkpt>
<trkpt lat="53.370394" lon="-1.595910"><ele>296</ele><time>2020-05-21T10:40:13Z</time><name>PT3164</name></trkpt>
<trkpt lat="53.370376" lon="-1.595914"><ele>296</ele><time>2020-05-21T10:40:13Z</time><name>PT3165</name></trkpt>
<trkpt lat="53.370347" lon="-1.595934"><ele>289</ele><time>2020-05-21T10:40:14Z</time><name>PT3166</name></trkpt>
<trkpt lat="53.370332" lon="-1.595936"><ele>289</ele><time>2020-05-21T10:40:16Z</time><name>PT3167</name></trkpt>
<trkpt lat="53.370321" lon="-1.595943"><ele>288</ele><time>2020-05-21T10:40:16Z</time><name>PT3168</name></trkpt>
<trkpt lat="53.370310" lon="-1.595953"><ele>288</ele><time>2020-05-21T10:40:17Z</time><name>PT3169</name></trkpt>
<trkpt lat="53.370296" lon="-1.595970"><ele>288</ele><time>2020-05-21T10:40:19Z</time><name>PT3170</name></trkpt>
<trkpt lat="53.370282" lon="-1.595977"><ele>289</ele><time>2020-05-21T10:40:19Z</time><name>PT3171</name></trkpt>
<trkpt lat="53.370267" lon="-1.595981"><ele>289</ele><time>2020-05-21T10:40:20Z</time><name>PT3172</name></trkpt>
<trkpt lat="53.370248" lon="-1.595983"><ele>291</ele><time>2020-05-21T10:40:22Z</time><name>PT3173</name></trkpt>
<trkpt lat="53.370235" lon="-1.595995"><ele>291</ele><time>2020-05-21T10:40:22Z</time><name>PT3174</name></trkpt>
<trkpt lat="53.370223" lon="-1.596005"><ele>291</ele><time>2020-05-21T10:40:23Z</time><name>PT3175</name></trkpt>
<trkpt lat="53.370215" lon="-1.596013"><ele>292</ele><time>2020-05-21T10:40:25Z</time><name>PT3176</name></trkpt>
<trkpt lat="53.370206" lon="-1.596020"><ele>291</ele><time>2020-05-21T10:40:25Z</time><name>PT3177</name></trkpt>
<trkpt lat="53.370199" lon="-1.596025"><ele>293</ele><time>2020-05-21T10:40:26Z</time><name>PT3178</name></trkpt>
<trkpt lat="53.370189" lon="-1.596039"><ele>292</ele><time>2020-05-21T10:40:28Z</time><name>PT3179</name></trkpt>
<trkpt lat="53.370172" lon="-1.596049"><ele>293</ele><time>2020-05-21T10:40:28Z</time><name>PT3180</name></trkpt>
<trkpt lat="53.370158" lon="-1.596062"><ele>294</ele><time>2020-05-21T10:40:29Z</time><name>PT3181</name></trkpt>
<trkpt lat="53.370148" lon="-1.596067"><ele>294</ele><time>2020-05-21T10:40:31Z</time><name>PT3182</name></trkpt>
<trkpt lat="53.370140" lon="-1.596067"><ele>293</ele><time>2020-05-21T10:40:31Z</time><name>PT3183</name></trkpt>
<trkpt lat="53.370132" lon="-1.596073"><ele>292</ele><time>2020-05-21T10:40:32Z</time><name>PT3184</name></trkpt>
<trkpt lat="53.370119" lon="-1.596079"><ele>292</ele><time>2020-05-21T10:40:34Z</time><name>PT3185</name></trkpt>
<trkpt lat="53.370113" lon="-1.596078"><ele>290</ele><time>2020-05-21T10:40:34Z</time><name>PT3186</name></trkpt>
<trkpt lat="53.370095" lon="-1.596086"><ele>289</ele><time>2020-05-21T10:40:35Z</time><name>PT3187</name></trkpt>
<trkpt lat="53.370076" lon="-1.596090"><ele>291</ele><time>2020-05-21T10:40:37Z</time><name>PT3188</name></trkpt>
<trkpt lat="53.370067" lon="-1.596096"><ele>291</ele><time>2020-05-21T10:40:37Z</time><name>PT3189</name></trkpt>
<trkpt lat="53.370058" lon="-1.596103"><ele>291</ele><time>2020-05-21T10:40:38Z</time><name>PT3190</name></trkpt>
<trkpt lat="53.370039" lon="-1.596108"><ele>293</ele><time>2020-05-21T10:40:40Z</time><name>PT3191</name></trkpt>
<trkpt lat="53.370022" lon="-1.596117"><ele>292</ele><time>2020-05-21T10:40:40Z</time><name>PT3192</name></trkpt>
<trkpt lat="53.370010" lon="-1.596124"><ele>292</ele><time>2020-05-21T10:40:41Z</time><name>PT3193</name></trkpt>
<trkpt lat="53.369988" lon="-1.596133"><ele>293</ele><time>2020-05-21T10:40:43Z</time><name>PT3194</name></trkpt>
<trkpt lat="53.369977" lon="-1.596137"><ele>293</ele><time>2020-05-21T10:40:43Z</time><name>PT3195</name></trkpt>
<trkpt lat="53.369967" lon="-1.596143"><ele>293</ele><time>2020-05-21T10:40:44Z</time><name>PT3196</name></trkpt>
<trkpt lat="53.369957" lon="-1.596148"><ele>291</ele><time>2020-05-21T10:40:46Z</time><name>PT3197</name></trkpt>
<trkpt lat="53.369941" lon="-1.596157"><ele>292</ele><time>2020-05-21T10:40:46Z</time><name>PT3198</name></trkpt>
<trkpt lat="53.369928" lon="-1.596161"><ele>291</ele><time>2020-05-21T10:40:47Z</time><name>PT3199</name></trkpt>
<trkpt lat="53.369909" lon="-1.596169"><ele>291</ele><time>2020-05-21T10:40:49Z</time><name>PT3200</name></trkpt>
<trkpt lat="53.369894" lon="-1.596181"><ele>293</ele><time>2020-05-21T10:40:49Z</time><name>PT3201</name></trkpt>
<trkpt lat="53.369888" lon="-1.596188"><ele>292</ele><time>2020-05-21T10:40:50Z</time><name>PT3202</name></trkpt>
<trkpt lat="53.369877" lon="-1.596195"><ele>291</ele><time>2020-05-21T10:40:52Z</time><name>PT3203</name></trkpt>
<trkpt lat="53.369865" lon="-1.596210"><ele>292</ele><time>2020-05-21T10:40:52Z</time><name>PT3204</name></trkpt>
<trkpt lat="53.369854" lon="-1.596215"><ele>292</ele><time>2020-05-21T10:40:53Z</time><name>PT3205</name></trkpt>
<trkpt lat="53.369845" lon="-1.596213"><ele>292</ele><time>2020-05-21T10:40:55Z</time><name>PT3206</name></trkpt>
<trkpt lat="53.369837" lon="-1.596219"><ele>292</ele><time>2020-05-21T10:40:55Z</time><name>PT3207</name></trkpt>
<trkpt lat="53.369804" lon="-1.596266"><ele>293</ele><time>2020-05-21T10:40:56Z</time><name>PT3208</name></trkpt>
<trkpt lat="53.369786" lon="-1.596275"><ele>295</ele><time>2020-05-21T10:40:58Z</time><name>PT3209</name></trkpt>
<trkpt lat="53.369778" lon="-1.596270"><ele>299</ele><time>2020-05-21T10:40:58Z</time><name>PT3210</name></trkpt>
<trkpt lat="53.369773" lon="-1.596265"><ele>300</ele><time>2020-05-21T10:40:59Z</time><name>PT3211</name></trkpt>
<trkpt lat="53.369770" lon="-1.596264"><ele>300</ele><time>2020-05-21T10:41:01Z</time><name>PT3212</name></trkpt>
<trkpt lat="53.369764" lon="-1.596253"><ele>299</ele><time>2020-05-21T10:41:01Z</time><name>PT3213</name></trkpt>
<trkpt lat="53.369758" lon="-1.596251"><ele>299</ele><time>2020-05-21T10:41:03Z</time><name>PT3214</name></trkpt>
<trkpt lat="53.369758" lon="-1.596249"><ele>299</ele><time>2020-05-21T10:41:04Z</time><name>PT3215</name></trkpt>
<trkpt lat="53.369755" lon="-1.596262"><ele>299</ele><time>2020-05-21T10:41:04Z</time><name>PT3216</name></trkpt>
<trkpt lat="53.369751" lon="-1.596262"><ele>298</ele><time>2020-05-21T10:41:05Z</time><name>PT3217</name></trkpt>
<trkpt lat="53.369748" lon="-1.596260"><ele>298</ele><time>2020-05-21T10:41:07Z</time><name>PT3218</name></trkpt>
<trkpt lat="53.369738" lon="-1.596253"><ele>298</ele><time>2020-05-21T10:41:07Z</time><name>PT3219</name></trkpt>
<trkpt lat="53.369725" lon="-1.596249"><ele>298</ele><time>2020-05-21T10:41:09Z</time><name>PT3220</name></trkpt>
<trkpt lat="53.369718" lon="-1.596246"><ele>298</ele><time>2020-05-21T10:41:10Z</time><name>PT3221</name></trkpt>
<trkpt lat="53.369714" lon="-1.596247"><ele>298</ele><time>2020-05-21T10:41:12Z</time><name>PT3222</name></trkpt>
<trkpt lat="53.369710" lon="-1.596247"><ele>298</ele><time>2020-05-21T10:41:12Z</time><name>PT3223</name></trkpt>
<trkpt lat="53.369705" lon="-1.596247"><ele>298</ele><time>2020-05-21T10:41:13Z</time><name>PT3224</name></trkpt>
<trkpt lat="53.369700" lon="-1.596243"><ele>297</ele><time>2020-05-21T10:41:15Z</time><name>PT3225</name></trkpt>
<trkpt lat="53.369693" lon="-1.596241"><ele>297</ele><time>2020-05-21T10:41:15Z</time><name>PT3226</name></trkpt>
<trkpt lat="53.369685" lon="-1.596243"><ele>296</ele><time>2020-05-21T10:41:16Z</time><name>PT3227</name></trkpt>
<trkpt lat="53.369677" lon="-1.596246"><ele>296</ele><time>2020-05-21T10:41:18Z</time><name>PT3228</name></trkpt>
<trkpt lat="53.369668" lon="-1.596250"><ele>296</ele><time>2020-05-21T10:41:18Z</time><name>PT3229</name></trkpt>
<trkpt lat="53.369658" lon="-1.596249"><ele>295</ele><time>2020-05-21T10:41:19Z</time><name>PT3230</name></trkpt>
<trkpt lat="53.369652" lon="-1.596247"><ele>295</ele><time>2020-05-21T10:41:21Z</time><name>PT3231</name></trkpt>
<trkpt lat="53.369645" lon="-1.596243"><ele>295</ele><time>2020-05-21T10:41:21Z</time><name>PT3232</name></trkpt>
<trkpt lat="53.369637" lon="-1.596241"><ele>295</ele><time>2020-05-21T10:41:22Z</time><name>PT3233</name></trkpt>
<trkpt lat="53.369626" lon="-1.596236"><ele>294</ele><time>2020-05-21T10:41:24Z</time><name>PT3234</name></trkpt>
<trkpt lat="53.369614" lon="-1.596237"><ele>293</ele><time>2020-05-21T10:41:24Z</time><name>PT3235</name></trkpt>
<trkpt lat="53.369607" lon="-1.596234"><ele>293</ele><time>2020-05-21T10:41:25Z</time><name>PT3236</name></trkpt>
<trkpt lat="53.369599" lon="-1.596233"><ele>293</ele><time>2020-05-21T10:41:27Z</time><name>PT3237</name></trkpt>
<trkpt lat="53.369587" lon="-1.596223"><ele>294</ele><time>2020-05-21T10:41:27Z</time><name>PT3238</name></trkpt>
<trkpt lat="53.369573" lon="-1.596215"><ele>293</ele><time>2020-05-21T10:41:28Z</time><name>PT3239</name></trkpt>
<trkpt lat="53.369560" lon="-1.596210"><ele>292</ele><time>2020-05-21T10:41:30Z</time><name>PT3240</name></trkpt>
<trkpt lat="53.369555" lon="-1.596207"><ele>292</ele><time>2020-05-21T10:41:31Z</time><name>PT3241</name></trkpt>
<trkpt lat="53.369547" lon="-1.596199"><ele>292</ele><time>2020-05-21T10:41:32Z</time><name>PT3242</name></trkpt>
<trkpt lat="53.369539" lon="-1.596189"><ele>292</ele><time>2020-05-21T10:41:33Z</time><name>PT3243</name></trkpt>
<trkpt lat="53.369528" lon="-1.596177"><ele>292</ele><time>2020-05-21T10:41:33Z</time><name>PT3244</name></trkpt>
<trkpt lat="53.369517" lon="-1.596157"><ele>291</ele><time>2020-05-21T10:41:34Z</time><name>PT3245</name></trkpt>
<trkpt lat="53.369507" lon="-1.596138"><ele>292</ele><time>2020-05-21T10:41:36Z</time><name>PT3246</name></trkpt>
<trkpt lat="53.369504" lon="-1.596124"><ele>292</ele><time>2020-05-21T10:41:36Z</time><name>PT3247</name></trkpt>
<trkpt lat="53.369503" lon="-1.596110"><ele>291</ele><time>2020-05-21T10:41:37Z</time><name>PT3248</name></trkpt>
<trkpt lat="53.369502" lon="-1.596094"><ele>291</ele><time>2020-05-21T10:41:39Z</time><name>PT3249</name></trkpt>
<trkpt lat="53.369502" lon="-1.596073"><ele>291</ele><time>2020-05-21T10:41:39Z</time><name>PT3250</name></trkpt>
<trkpt lat="53.369505" lon="-1.596058"><ele>291</ele><time>2020-05-21T10:41:40Z</time><name>PT3251</name></trkpt>
<trkpt lat="53.369514" lon="-1.596045"><ele>290</ele><time>2020-05-21T10:41:42Z</time><name>PT3252</name></trkpt>
<trkpt lat="53.369520" lon="-1.596041"><ele>291</ele><time>2020-05-21T10:41:42Z</time><name>PT3253</name></trkpt>
<trkpt lat="53.369525" lon="-1.596036"><ele>291</ele><time>2020-05-21T10:41:43Z</time><name>PT3254</name></trkpt>
<trkpt lat="53.369529" lon="-1.596038"><ele>291</ele><time>2020-05-21T10:41:45Z</time><name>PT3255</name></trkpt>
<trkpt lat="53.369535" lon="-1.596043"><ele>291</ele><time>2020-05-21T10:41:45Z</time><name>PT3256</name></trkpt>
<trkpt lat="53.369534" lon="-1.596042"><ele>291</ele><time>2020-05-21T10:41:47Z</time><name>PT3257</name></trkpt>
<trkpt lat="53.369535" lon="-1.596040"><ele>291</ele><time>2020-05-21T10:41:49Z</time><name>PT3258</name></trkpt>
<trkpt lat="53.369531" lon="-1.596034"><ele>291</ele><time>2020-05-21T10:41:51Z</time><name>PT3259</name></trkpt>
<trkpt lat="53.369529" lon="-1.596014"><ele>291</ele><time>2020-05-21T10:41:51Z</time><name>PT3260</name></trkpt>
<trkpt lat="53.369528" lon="-1.596003"><ele>291</ele><time>2020-05-21T10:41:52Z</time><name>PT3261</name></trkpt>
<trkpt lat="53.369534" lon="-1.595994"><ele>291</ele><time>2020-05-21T10:41:54Z</time><name>PT3262</name></trkpt>
<trkpt lat="53.369536" lon="-1.595978"><ele>291</ele><time>2020-05-21T10:41:54Z</time><name>PT3263</name></trkpt>
<trkpt lat="53.369534" lon="-1.595963"><ele>292</ele><time>2020-05-21T10:41:55Z</time><name>PT3264</name></trkpt>
<trkpt lat="53.369527" lon="-1.595945"><ele>292</ele><time>2020-05-21T10:41:57Z</time><name>PT3265</name></trkpt>
<trkpt lat="53.369522" lon="-1.595937"><ele>292</ele><time>2020-05-21T10:41:57Z</time><name>PT3266</name></trkpt>
<trkpt lat="53.369520" lon="-1.595928"><ele>292</ele><time>2020-05-21T10:41:58Z</time><name>PT3267</name></trkpt>
<trkpt lat="53.369510" lon="-1.595923"><ele>293</ele><time>2020-05-21T10:42:00Z</time><name>PT3268</name></trkpt>
<trkpt lat="53.369511" lon="-1.595917"><ele>293</ele><time>2020-05-21T10:42:00Z</time><name>PT3269</name></trkpt>
<trkpt lat="53.369511" lon="-1.595911"><ele>292</ele><time>2020-05-21T10:42:01Z</time><name>PT3270</name></trkpt>
<trkpt lat="53.369505" lon="-1.595904"><ele>292</ele><time>2020-05-21T10:42:03Z</time><name>PT3271</name></trkpt>
<trkpt lat="53.369511" lon="-1.595901"><ele>292</ele><time>2020-05-21T10:42:03Z</time><name>PT3272</name></trkpt>
<trkpt lat="53.369513" lon="-1.595895"><ele>291</ele><time>2020-05-21T10:42:04Z</time><name>PT3273</name></trkpt>
<trkpt lat="53.369515" lon="-1.595887"><ele>291</ele><time>2020-05-21T10:42:06Z</time><name>PT3274</name></trkpt>
<trkpt lat="53.369519" lon="-1.595882"><ele>291</ele><time>2020-05-21T10:42:06Z</time><name>PT3275</name></trkpt>
<trkpt lat="53.369523" lon="-1.595877"><ele>291</ele><time>2020-05-21T10:42:07Z</time><name>PT3276</name></trkpt>
<trkpt lat="53.369525" lon="-1.595872"><ele>290</ele><time>2020-05-21T10:42:09Z</time><name>PT3277</name></trkpt>
<trkpt lat="53.369527" lon="-1.595864"><ele>290</ele><time>2020-05-21T10:42:09Z</time><name>PT3278</name></trkpt>
<trkpt lat="53.369529" lon="-1.595855"><ele>290</ele><time>2020-05-21T10:42:10Z</time><name>PT3279</name></trkpt>
<trkpt lat="53.369533" lon="-1.595847"><ele>290</ele><time>2020-05-21T10:42:12Z</time><name>PT3280</name></trkpt>
<trkpt lat="53.369534" lon="-1.595844"><ele>289</ele><time>2020-05-21T10:42:12Z</time><name>PT3281</name></trkpt>
<trkpt lat="53.369529" lon="-1.595816"><ele>290</ele><time>2020-05-21T10:42:18Z</time><name>PT3282</name></trkpt>
<trkpt lat="53.369530" lon="-1.595802"><ele>290</ele><time>2020-05-21T10:42:19Z</time><name>PT3283</name></trkpt>
<trkpt lat="53.369533" lon="-1.595800"><ele>290</ele><time>2020-05-21T10:42:21Z</time><name>PT3284</name></trkpt>
<trkpt lat="53.369531" lon="-1.595791"><ele>289</ele><time>2020-05-21T10:42:24Z</time><name>PT3285</name></trkpt>
<trkpt lat="53.369532" lon="-1.595788"><ele>289</ele><time>2020-05-21T10:42:25Z</time><name>PT3286</name></trkpt>
<trkpt lat="53.369536" lon="-1.595785"><ele>289</ele><time>2020-05-21T10:42:27Z</time><name>PT3287</name></trkpt>
<trkpt lat="53.369539" lon="-1.595785"><ele>289</ele><time>2020-05-21T10:42:27Z</time><name>PT3288</name></trkpt>
<trkpt lat="53.369546" lon="-1.595775"><ele>289</ele><time>2020-05-21T10:42:30Z</time><name>PT3289</name></trkpt>
<trkpt lat="53.369553" lon="-1.595768"><ele>289</ele><time>2020-05-21T10:42:30Z</time><name>PT3290</name></trkpt>
<trkpt lat="53.369568" lon="-1.595750"><ele>289</ele><time>2020-05-21T10:42:31Z</time><name>PT3291</name></trkpt>
<trkpt lat="53.369575" lon="-1.595751"><ele>288</ele><time>2020-05-21T10:42:33Z</time><name>PT3292</name></trkpt>
<trkpt lat="53.369584" lon="-1.595750"><ele>287</ele><time>2020-05-21T10:42:33Z</time><name>PT3293</name></trkpt>
<trkpt lat="53.369603" lon="-1.595772"><ele>289</ele><time>2020-05-21T10:42:34Z</time><name>PT3294</name></trkpt>
<trkpt lat="53.369623" lon="-1.595793"><ele>292</ele><time>2020-05-21T10:42:36Z</time><name>PT3295</name></trkpt>
<trkpt lat="53.369650" lon="-1.595814"><ele>293</ele><time>2020-05-21T10:42:36Z</time><name>PT3296</name></trkpt>
<trkpt lat="53.369664" lon="-1.595807"><ele>293</ele><time>2020-05-21T10:42:37Z</time><name>PT3297</name></trkpt>
<trkpt lat="53.369676" lon="-1.595809"><ele>292</ele><time>2020-05-21T10:42:39Z</time><name>PT3298</name></trkpt>
<trkpt lat="53.369686" lon="-1.595815"><ele>293</ele><time>2020-05-21T10:42:39Z</time><name>PT3299</name></trkpt>
<trkpt lat="53.369693" lon="-1.595816"><ele>293</ele><time>2020-05-21T10:42:40Z</time><name>PT3300</name></trkpt>
<trkpt lat="53.369701" lon="-1.595816"><ele>293</ele><time>2020-05-21T10:42:42Z</time><name>PT3301</name></trkpt>
<trkpt lat="53.369711" lon="-1.595816"><ele>293</ele><time>2020-05-21T10:42:42Z</time><name>PT3302</name></trkpt>
<trkpt lat="53.369718" lon="-1.595817"><ele>294</ele><time>2020-05-21T10:42:43Z</time><name>PT3303</name></trkpt>
<trkpt lat="53.369721" lon="-1.595812"><ele>293</ele><time>2020-05-21T10:42:45Z</time><name>PT3304</name></trkpt>
<trkpt lat="53.369726" lon="-1.595817"><ele>294</ele><time>2020-05-21T10:42:45Z</time><name>PT3305</name></trkpt>
<trkpt lat="53.369740" lon="-1.595816"><ele>293</ele><time>2020-05-21T10:42:47Z</time><name>PT3306</name></trkpt>
<trkpt lat="53.369755" lon="-1.595815"><ele>294</ele><time>2020-05-21T10:42:48Z</time><name>PT3307</name></trkpt>
<trkpt lat="53.369764" lon="-1.595811"><ele>293</ele><time>2020-05-21T10:42:48Z</time><name>PT3308</name></trkpt>
<trkpt lat="53.369769" lon="-1.595813"><ele>293</ele><time>2020-05-21T10:42:49Z</time><name>PT3309</name></trkpt>
<trkpt lat="53.369777" lon="-1.595811"><ele>293</ele><time>2020-05-21T10:42:51Z</time><name>PT3310</name></trkpt>
<trkpt lat="53.369785" lon="-1.595814"><ele>292</ele><time>2020-05-21T10:42:51Z</time><name>PT3311</name></trkpt>
<trkpt lat="53.369793" lon="-1.595817"><ele>293</ele><time>2020-05-21T10:42:52Z</time><name>PT3312</name></trkpt>
<trkpt lat="53.369805" lon="-1.595819"><ele>295</ele><time>2020-05-21T10:42:54Z</time><name>PT3313</name></trkpt>
<trkpt lat="53.369814" lon="-1.595816"><ele>295</ele><time>2020-05-21T10:42:54Z</time><name>PT3314</name></trkpt>
<trkpt lat="53.369827" lon="-1.595800"><ele>294</ele><time>2020-05-21T10:42:55Z</time><name>PT3315</name></trkpt>
<trkpt lat="53.369832" lon="-1.595794"><ele>294</ele><time>2020-05-21T10:42:57Z</time><name>PT3316</name></trkpt>
<trkpt lat="53.369836" lon="-1.595788"><ele>292</ele><time>2020-05-21T10:42:57Z</time><name>PT3317</name></trkpt>
<trkpt lat="53.369836" lon="-1.595784"><ele>292</ele><time>2020-05-21T10:43:09Z</time><name>PT3318</name></trkpt>
<trkpt lat="53.369843" lon="-1.595779"><ele>293</ele><time>2020-05-21T10:43:09Z</time><name>PT3319</name></trkpt>
<trkpt lat="53.369852" lon="-1.595782"><ele>293</ele><time>2020-05-21T10:43:10Z</time><name>PT3320</name></trkpt>
<trkpt lat="53.369859" lon="-1.595781"><ele>293</ele><time>2020-05-21T10:43:12Z</time><name>PT3321</name></trkpt>
<trkpt lat="53.369867" lon="-1.595781"><ele>293</ele><time>2020-05-21T10:43:12Z</time><name>PT3322</name></trkpt>
<trkpt lat="53.369872" lon="-1.595777"><ele>294</ele><time>2020-05-21T10:43:13Z</time><name>PT3323</name></trkpt>
<trkpt lat="53.369877" lon="-1.595775"><ele>294</ele><time>2020-05-21T10:43:15Z</time><name>PT3324</name></trkpt>
<trkpt lat="53.369882" lon="-1.595774"><ele>294</ele><time>2020-05-21T10:43:15Z</time><name>PT3325</name></trkpt>
<trkpt lat="53.369882" lon="-1.595775"><ele>294</ele><time>2020-05-21T10:43:21Z</time><name>PT3326</name></trkpt>
<trkpt lat="53.369886" lon="-1.595773"><ele>294</ele><time>2020-05-21T10:43:21Z</time><name>PT3327</name></trkpt>
<trkpt lat="53.369887" lon="-1.595774"><ele>294</ele><time>2020-05-21T10:43:22Z</time><name>PT3328</name></trkpt>
<trkpt lat="53.369888" lon="-1.595776"><ele>294</ele><time>2020-05-21T10:43:24Z</time><name>PT3329</name></trkpt>
<trkpt lat="53.369877" lon="-1.595792"><ele>294</ele><time>2020-05-21T10:43:36Z</time><name>PT3330</name></trkpt>
<trkpt lat="53.369870" lon="-1.595799"><ele>294</ele><time>2020-05-21T10:43:36Z</time><name>PT3331</name></trkpt>
<trkpt lat="53.369863" lon="-1.595808"><ele>294</ele><time>2020-05-21T10:43:37Z</time><name>PT3332</name></trkpt>
<trkpt lat="53.369857" lon="-1.595817"><ele>295</ele><time>2020-05-21T10:43:39Z</time><name>PT3333</name></trkpt>
<trkpt lat="53.369848" lon="-1.595821"><ele>295</ele><time>2020-05-21T10:43:39Z</time><name>PT3334</name></trkpt>
<trkpt lat="53.369837" lon="-1.595836"><ele>295</ele><time>2020-05-21T10:43:40Z</time><name>PT3335</name></trkpt>
<trkpt lat="53.369830" lon="-1.595841"><ele>294</ele><time>2020-05-21T10:43:42Z</time><name>PT3336</name></trkpt>
<trkpt lat="53.369826" lon="-1.595850"><ele>294</ele><time>2020-05-21T10:43:42Z</time><name>PT3337</name></trkpt>
<trkpt lat="53.369821" lon="-1.595845"><ele>293</ele><time>2020-05-21T10:43:43Z</time><name>PT3338</name></trkpt>
<trkpt lat="53.369822" lon="-1.595842"><ele>293</ele><time>2020-05-21T10:43:54Z</time><name>PT3339</name></trkpt>
<trkpt lat="53.369825" lon="-1.595844"><ele>292</ele><time>2020-05-21T10:43:54Z</time><name>PT3340</name></trkpt>
<trkpt lat="53.369827" lon="-1.595847"><ele>292</ele><time>2020-05-21T10:43:55Z</time><name>PT3341</name></trkpt>
<trkpt lat="53.369827" lon="-1.595846"><ele>293</ele><time>2020-05-21T10:43:57Z</time><name>PT3342</name></trkpt>
<trkpt lat="53.369827" lon="-1.595845"><ele>292</ele><time>2020-05-21T10:43:57Z</time><name>PT3343</name></trkpt>
<trkpt lat="53.369829" lon="-1.595845"><ele>292</ele><time>2020-05-21T10:43:58Z</time><name>PT3344</name></trkpt>
<trkpt lat="53.369833" lon="-1.595849"><ele>292</ele><time>2020-05-21T10:44:00Z</time><name>PT3345</name></trkpt>
<trkpt lat="53.369839" lon="-1.595854"><ele>292</ele><time>2020-05-21T10:44:00Z</time><name>PT3346</name></trkpt>
<trkpt lat="53.369843" lon="-1.595859"><ele>292</ele><time>2020-05-21T10:44:01Z</time><name>PT3347</name></trkpt>
<trkpt lat="53.369849" lon="-1.595845"><ele>291</ele><time>2020-05-21T10:44:03Z</time><name>PT3348</name></trkpt>
<trkpt lat="53.369857" lon="-1.595837"><ele>291</ele><time>2020-05-21T10:44:04Z</time><name>PT3349</name></trkpt>
<trkpt lat="53.369864" lon="-1.595837"><ele>291</ele><time>2020-05-21T10:44:06Z</time><name>PT3350</name></trkpt>
<trkpt lat="53.369868" lon="-1.595835"><ele>290</ele><time>2020-05-21T10:44:06Z</time><name>PT3351</name></trkpt>
<trkpt lat="53.369871" lon="-1.595839"><ele>290</ele><time>2020-05-21T10:44:07Z</time><name>PT3352</name></trkpt>
<trkpt lat="53.369873" lon="-1.595849"><ele>290</ele><time>2020-05-21T10:44:09Z</time><name>PT3353</name></trkpt>
<trkpt lat="53.369872" lon="-1.595841"><ele>290</ele><time>2020-05-21T10:44:09Z</time><name>PT3354</name></trkpt>
<trkpt lat="53.369878" lon="-1.595834"><ele>292</ele><time>2020-05-21T10:44:10Z</time><name>PT3355</name></trkpt>
<trkpt lat="53.369884" lon="-1.595828"><ele>293</ele><time>2020-05-21T10:44:12Z</time><name>PT3356</name></trkpt>
<trkpt lat="53.369894" lon="-1.595823"><ele>295</ele><time>2020-05-21T10:44:12Z</time><name>PT3357</name></trkpt>
<trkpt lat="53.369900" lon="-1.595816"><ele>294</ele><time>2020-05-21T10:44:13Z</time><name>PT3358</name></trkpt>
<trkpt lat="53.369906" lon="-1.595817"><ele>296</ele><time>2020-05-21T10:44:15Z</time><name>PT3359</name></trkpt>
<trkpt lat="53.369911" lon="-1.595819"><ele>297</ele><time>2020-05-21T10:44:15Z</time><name>PT3360</name></trkpt>
<trkpt lat="53.369913" lon="-1.595822"><ele>297</ele><time>2020-05-21T10:44:16Z</time><name>PT3361</name></trkpt>
<trkpt lat="53.369914" lon="-1.595826"><ele>297</ele><time>2020-05-21T10:44:18Z</time><name>PT3362</name></trkpt>
<trkpt lat="53.369913" lon="-1.595833"><ele>298</ele><time>2020-05-21T10:44:18Z</time><name>PT3363</name></trkpt>
<trkpt lat="53.369920" lon="-1.595835"><ele>298</ele><time>2020-05-21T10:44:19Z</time><name>PT3364</name></trkpt>
<trkpt lat="53.369926" lon="-1.595838"><ele>298</ele><time>2020-05-21T10:44:21Z</time><name>PT3365</name></trkpt>
<trkpt lat="53.369930" lon="-1.595843"><ele>299</ele><time>2020-05-21T10:44:21Z</time><name>PT3366</name></trkpt>
<trkpt lat="53.369929" lon="-1.595845"><ele>299</ele><time>2020-05-21T10:44:22Z</time><name>PT3367</name></trkpt>
<trkpt lat="53.369927" lon="-1.595850"><ele>300</ele><time>2020-05-21T10:44:24Z</time><name>PT3368</name></trkpt>
<trkpt lat="53.369929" lon="-1.595852"><ele>299</ele><time>2020-05-21T10:44:24Z</time><name>PT3369</name></trkpt>
<trkpt lat="53.369927" lon="-1.595853"><ele>300</ele><time>2020-05-21T10:44:25Z</time><name>PT3370</name></trkpt>
<trkpt lat="53.369923" lon="-1.595863"><ele>300</ele><time>2020-05-21T10:44:27Z</time><name>PT3371</name></trkpt>
<trkpt lat="53.369920" lon="-1.595870"><ele>300</ele><time>2020-05-21T10:44:27Z</time><name>PT3372</name></trkpt>
<trkpt lat="53.369911" lon="-1.595875"><ele>300</ele><time>2020-05-21T10:44:28Z</time><name>PT3373</name></trkpt>
<trkpt lat="53.369906" lon="-1.595880"><ele>301</ele><time>2020-05-21T10:44:30Z</time><name>PT3374</name></trkpt>
<trkpt lat="53.369904" lon="-1.595885"><ele>300</ele><time>2020-05-21T10:44:30Z</time><name>PT3375</name></trkpt>
<trkpt lat="53.369894" lon="-1.595890"><ele>301</ele><time>2020-05-21T10:44:31Z</time><name>PT3376</name></trkpt>
<trkpt lat="53.369884" lon="-1.595889"><ele>299</ele><time>2020-05-21T10:44:33Z</time><name>PT3377</name></trkpt>
<trkpt lat="53.369866" lon="-1.595885"><ele>298</ele><time>2020-05-21T10:44:33Z</time><name>PT3378</name></trkpt>
<trkpt lat="53.369855" lon="-1.595884"><ele>298</ele><time>2020-05-21T10:44:34Z</time><name>PT3379</name></trkpt>
<trkpt lat="53.369847" lon="-1.595886"><ele>297</ele><time>2020-05-21T10:44:36Z</time><name>PT3380</name></trkpt>
<trkpt lat="53.369843" lon="-1.595886"><ele>297</ele><time>2020-05-21T10:44:36Z</time><name>PT3381</name></trkpt>
<trkpt lat="53.369831" lon="-1.595885"><ele>297</ele><time>2020-05-21T10:44:37Z</time><name>PT3382</name></trkpt>
<trkpt lat="53.369819" lon="-1.595882"><ele>298</ele><time>2020-05-21T10:44:39Z</time><name>PT3383</name></trkpt>
<trkpt lat="53.369809" lon="-1.595891"><ele>297</ele><time>2020-05-21T10:44:39Z</time><name>PT3384</name></trkpt>
<trkpt lat="53.369800" lon="-1.595897"><ele>296</ele><time>2020-05-21T10:44:40Z</time><name>PT3385</name></trkpt>
<trkpt lat="53.369794" lon="-1.595898"><ele>295</ele><time>2020-05-21T10:44:42Z</time><name>PT3386</name></trkpt>
<trkpt lat="53.369788" lon="-1.595901"><ele>295</ele><time>2020-05-21T10:44:42Z</time><name>PT3387</name></trkpt>
<trkpt lat="53.369778" lon="-1.595904"><ele>296</ele><time>2020-05-21T10:44:43Z</time><name>PT3388</name></trkpt>
<trkpt lat="53.369761" lon="-1.595905"><ele>296</ele><time>2020-05-21T10:44:45Z</time><name>PT3389</name></trkpt>
<trkpt lat="53.369755" lon="-1.595915"><ele>296</ele><time>2020-05-21T10:44:45Z</time><name>PT3390</name></trkpt>
<trkpt lat="53.369750" lon="-1.595922"><ele>296</ele><time>2020-05-21T10:44:46Z</time><name>PT3391</name></trkpt>
<trkpt lat="53.369750" lon="-1.595933"><ele>297</ele><time>2020-05-21T10:44:48Z</time><name>PT3392</name></trkpt>
<trkpt lat="53.369743" lon="-1.595933"><ele>297</ele><time>2020-05-21T10:44:48Z</time><name>PT3393</name></trkpt>
<trkpt lat="53.369739" lon="-1.595932"><ele>297</ele><time>2020-05-21T10:44:49Z</time><name>PT3394</name></trkpt>
<trkpt lat="53.369735" lon="-1.595936"><ele>297</ele><time>2020-05-21T10:44:51Z</time><name>PT3395</name></trkpt>
<trkpt lat="53.369726" lon="-1.595942"><ele>297</ele><time>2020-05-21T10:44:51Z</time><name>PT3396</name></trkpt>
<trkpt lat="53.369720" lon="-1.595941"><ele>298</ele><time>2020-05-21T10:44:52Z</time><name>PT3397</name></trkpt>
<trkpt lat="53.369713" lon="-1.595943"><ele>298</ele><time>2020-05-21T10:44:54Z</time><name>PT3398</name></trkpt>
<trkpt lat="53.369703" lon="-1.595945"><ele>299</ele><time>2020-05-21T10:44:54Z</time><name>PT3399</name></trkpt>
<trkpt lat="53.369695" lon="-1.595948"><ele>299</ele><time>2020-05-21T10:44:55Z</time><name>PT3400</name></trkpt>
<trkpt lat="53.369685" lon="-1.595946"><ele>299</ele><time>2020-05-21T10:44:57Z</time><name>PT3401</name></trkpt>
<trkpt lat="53.369675" lon="-1.595943"><ele>299</ele><time>2020-05-21T10:44:57Z</time><name>PT3402</name></trkpt>
<trkpt lat="53.369662" lon="-1.595938"><ele>297</ele><time>2020-05-21T10:44:58Z</time><name>PT3403</name></trkpt>
<trkpt lat="53.369656" lon="-1.595938"><ele>297</ele><time>2020-05-21T10:45:00Z</time><name>PT3404</name></trkpt>
<trkpt lat="53.369649" lon="-1.595942"><ele>296</ele><time>2020-05-21T10:45:00Z</time><name>PT3405</name></trkpt>
<trkpt lat="53.369643" lon="-1.595933"><ele>297</ele><time>2020-05-21T10:45:01Z</time><name>PT3406</name></trkpt>
<trkpt lat="53.369635" lon="-1.595922"><ele>294</ele><time>2020-05-21T10:45:03Z</time><name>PT3407</name></trkpt>
<trkpt lat="53.369623" lon="-1.595922"><ele>294</ele><time>2020-05-21T10:45:03Z</time><name>PT3408</name></trkpt>
<trkpt lat="53.369612" lon="-1.595930"><ele>294</ele><time>2020-05-21T10:45:04Z</time><name>PT3409</name></trkpt>
<trkpt lat="53.369604" lon="-1.595942"><ele>295</ele><time>2020-05-21T10:45:06Z</time><name>PT3410</name></trkpt>
<trkpt lat="53.369600" lon="-1.595947"><ele>294</ele><time>2020-05-21T10:45:06Z</time><name>PT3411</name></trkpt>
<trkpt lat="53.369594" lon="-1.595948"><ele>295</ele><time>2020-05-21T10:45:07Z</time><name>PT3412</name></trkpt>
<trkpt lat="53.369586" lon="-1.595955"><ele>297</ele><time>2020-05-21T10:45:09Z</time><name>PT3413</name></trkpt>
<trkpt lat="53.369580" lon="-1.595965"><ele>297</ele><time>2020-05-21T10:45:09Z</time><name>PT3414</name></trkpt>
<trkpt lat="53.369575" lon="-1.595971"><ele>297</ele><time>2020-05-21T10:45:10Z</time><name>PT3415</name></trkpt>
<trkpt lat="53.369566" lon="-1.595983"><ele>298</ele><time>2020-05-21T10:45:12Z</time><name>PT3416</name></trkpt>
<trkpt lat="53.369570" lon="-1.595993"><ele>300</ele><time>2020-05-21T10:45:12Z</time><name>PT3417</name></trkpt>
<trkpt lat="53.369576" lon="-1.595999"><ele>300</ele><time>2020-05-21T10:45:13Z</time><name>PT3418</name></trkpt>
<trkpt lat="53.369581" lon="-1.596006"><ele>300</ele><time>2020-05-21T10:45:15Z</time><name>PT3419</name></trkpt>
<trkpt lat="53.369578" lon="-1.596021"><ele>300</ele><time>2020-05-21T10:45:15Z</time><name>PT3420</name></trkpt>
<trkpt lat="53.369575" lon="-1.596029"><ele>300</ele><time>2020-05-21T10:45:16Z</time><name>PT3421</name></trkpt>
<trkpt lat="53.369568" lon="-1.596036"><ele>300</ele><time>2020-05-21T10:45:18Z</time><name>PT3422</name></trkpt>
<trkpt lat="53.369571" lon="-1.596042"><ele>300</ele><time>2020-05-21T10:45:18Z</time><name>PT3423</name></trkpt>
<trkpt lat="53.369569" lon="-1.596048"><ele>300</ele><time>2020-05-21T10:45:19Z</time><name>PT3424</name></trkpt>
<trkpt lat="53.369568" lon="-1.596055"><ele>300</ele><time>2020-05-21T10:45:21Z</time><name>PT3425</name></trkpt>
<trkpt lat="53.369574" lon="-1.596062"><ele>301</ele><time>2020-05-21T10:45:21Z</time><name>PT3426</name></trkpt>
<trkpt lat="53.369581" lon="-1.596079"><ele>301</ele><time>2020-05-21T10:45:22Z</time><name>PT3427</name></trkpt>
<trkpt lat="53.369592" lon="-1.596096"><ele>302</ele><time>2020-05-21T10:45:24Z</time><name>PT3428</name></trkpt>
<trkpt lat="53.369596" lon="-1.596104"><ele>303</ele><time>2020-05-21T10:45:24Z</time><name>PT3429</name></trkpt>
<trkpt lat="53.369599" lon="-1.596116"><ele>302</ele><time>2020-05-21T10:45:25Z</time><name>PT3430</name></trkpt>
<trkpt lat="53.369602" lon="-1.596131"><ele>302</ele><time>2020-05-21T10:45:27Z</time><name>PT3431</name></trkpt>
<trkpt lat="53.369604" lon="-1.596139"><ele>303</ele><time>2020-05-21T10:45:27Z</time><name>PT3432</name></trkpt>
<trkpt lat="53.369599" lon="-1.596148"><ele>302</ele><time>2020-05-21T10:45:28Z</time><name>PT3433</name></trkpt>
<trkpt lat="53.369588" lon="-1.596158"><ele>302</ele><time>2020-05-21T10:45:30Z</time><name>PT3434</name></trkpt>
<trkpt lat="53.369585" lon="-1.596162"><ele>301</ele><time>2020-05-21T10:45:30Z</time><name>PT3435</name></trkpt>
<trkpt lat="53.369564" lon="-1.596166"><ele>302</ele><time>2020-05-21T10:45:31Z</time><name>PT3436</name></trkpt>
<trkpt lat="53.369561" lon="-1.596171"><ele>303</ele><time>2020-05-21T10:45:33Z</time><name>PT3437</name></trkpt>
<trkpt lat="53.369559" lon="-1.596171"><ele>303</ele><time>2020-05-21T10:45:42Z</time><name>PT3438</name></trkpt>
<trkpt lat="53.369563" lon="-1.596173"><ele>302</ele><time>2020-05-21T10:45:43Z</time><name>PT3439</name></trkpt>
<trkpt lat="53.369565" lon="-1.596173"><ele>302</ele><time>2020-05-21T10:45:45Z</time><name>PT3440</name></trkpt>
<trkpt lat="53.369568" lon="-1.596167"><ele>302</ele><time>2020-05-21T10:45:45Z</time><name>PT3441</name></trkpt>
<trkpt lat="53.369573" lon="-1.596165"><ele>305</ele><time>2020-05-21T10:47:10Z</time><name>PT3442</name></trkpt>
<trkpt lat="53.369578" lon="-1.596169"><ele>306</ele><time>2020-05-21T10:47:12Z</time><name>PT3443</name></trkpt>
<trkpt lat="53.369582" lon="-1.596166"><ele>306</ele><time>2020-05-21T10:47:12Z</time><name>PT3444</name></trkpt>
<trkpt lat="53.369584" lon="-1.596156"><ele>307</ele><time>2020-05-21T10:47:13Z</time><name>PT3445</name></trkpt>
<trkpt lat="53.369593" lon="-1.596160"><ele>307</ele><time>2020-05-21T10:47:15Z</time><name>PT3446</name></trkpt>
<trkpt lat="53.369599" lon="-1.596171"><ele>307</ele><time>2020-05-21T10:47:15Z</time><name>PT3447</name></trkpt>
<trkpt lat="53.369604" lon="-1.596178"><ele>307</ele><time>2020-05-21T10:47:16Z</time><name>PT3448</name></trkpt>
<trkpt lat="53.369605" lon="-1.596188"><ele>307</ele><time>2020-05-21T10:47:18Z</time><name>PT3449</name></trkpt>
<trkpt lat="53.369609" lon="-1.596197"><ele>306</ele><time>2020-05-21T10:47:18Z</time><name>PT3450</name></trkpt>
<trkpt lat="53.369618" lon="-1.596197"><ele>306</ele><time>2020-05-21T10:47:19Z</time><name>PT3451</name></trkpt>
<trkpt lat="53.369628" lon="-1.596208"><ele>306</ele><time>2020-05-21T10:47:21Z</time><name>PT3452</name></trkpt>
<trkpt lat="53.369631" lon="-1.596202"><ele>306</ele><time>2020-05-21T10:47:21Z</time><name>PT3453</name></trkpt>
<trkpt lat="53.369627" lon="-1.596207"><ele>305</ele><time>2020-05-21T10:47:22Z</time><name>PT3454</name></trkpt>
<trkpt lat="53.369635" lon="-1.596208"><ele>305</ele><time>2020-05-21T10:47:24Z</time><name>PT3455</name></trkpt>
<trkpt lat="53.369646" lon="-1.596208"><ele>306</ele><time>2020-05-21T10:47:24Z</time><name>PT3456</name></trkpt>
<trkpt lat="53.369655" lon="-1.596205"><ele>306</ele><time>2020-05-21T10:47:25Z</time><name>PT3457</name></trkpt>
<trkpt lat="53.369659" lon="-1.596204"><ele>305</ele><time>2020-05-21T10:47:27Z</time><name>PT3458</name></trkpt>
<trkpt lat="53.369660" lon="-1.596207"><ele>304</ele><time>2020-05-21T10:47:27Z</time><name>PT3459</name></trkpt>
<trkpt lat="53.369670" lon="-1.596214"><ele>304</ele><time>2020-05-21T10:47:29Z</time><name>PT3460</name></trkpt>
<trkpt lat="53.369678" lon="-1.596194"><ele>304</ele><time>2020-05-21T10:47:30Z</time><name>PT3461</name></trkpt>
<trkpt lat="53.369684" lon="-1.596190"><ele>304</ele><time>2020-05-21T10:47:30Z</time><name>PT3462</name></trkpt>
<trkpt lat="53.369686" lon="-1.596191"><ele>304</ele><time>2020-05-21T10:47:32Z</time><name>PT3463</name></trkpt>
<trkpt lat="53.369692" lon="-1.596186"><ele>304</ele><time>2020-05-21T10:47:33Z</time><name>PT3464</name></trkpt>
<trkpt lat="53.369697" lon="-1.596190"><ele>303</ele><time>2020-05-21T10:47:33Z</time><name>PT3465</name></trkpt>
<trkpt lat="53.369702" lon="-1.596198"><ele>303</ele><time>2020-05-21T10:47:34Z</time><name>PT3466</name></trkpt>
<trkpt lat="53.369709" lon="-1.596206"><ele>303</ele><time>2020-05-21T10:47:36Z</time><name>PT3467</name></trkpt>
<trkpt lat="53.369713" lon="-1.596201"><ele>304</ele><time>2020-05-21T10:47:36Z</time><name>PT3468</name></trkpt>
<trkpt lat="53.369716" lon="-1.596211"><ele>302</ele><time>2020-05-21T10:47:37Z</time><name>PT3469</name></trkpt>
<trkpt lat="53.369721" lon="-1.596205"><ele>301</ele><time>2020-05-21T10:47:39Z</time><name>PT3470</name></trkpt>
<trkpt lat="53.369724" lon="-1.596194"><ele>302</ele><time>2020-05-21T10:47:39Z</time><name>PT3471</name></trkpt>
<trkpt lat="53.369726" lon="-1.596187"><ele>303</ele><time>2020-05-21T10:47:40Z</time><name>PT3472</name></trkpt>
<trkpt lat="53.369730" lon="-1.596190"><ele>303</ele><time>2020-05-21T10:47:42Z</time><name>PT3473</name></trkpt>
<trkpt lat="53.369737" lon="-1.596182"><ele>303</ele><time>2020-05-21T10:47:44Z</time><name>PT3474</name></trkpt>
<trkpt lat="53.369749" lon="-1.596176"><ele>303</ele><time>2020-05-21T10:47:45Z</time><name>PT3475</name></trkpt>
<trkpt lat="53.369764" lon="-1.596170"><ele>304</ele><time>2020-05-21T10:47:45Z</time><name>PT3476</name></trkpt>
<trkpt lat="53.369782" lon="-1.596186"><ele>305</ele><time>2020-05-21T10:47:46Z</time><name>PT3477</name></trkpt>
<trkpt lat="53.369799" lon="-1.596191"><ele>306</ele><time>2020-05-21T10:47:48Z</time><name>PT3478</name></trkpt>
<trkpt lat="53.369813" lon="-1.596203"><ele>306</ele><time>2020-05-21T10:47:48Z</time><name>PT3479</name></trkpt>
<trkpt lat="53.369840" lon="-1.596240"><ele>306</ele><time>2020-05-21T10:47:49Z</time><name>PT3480</name></trkpt>
<trkpt lat="53.369858" lon="-1.596247"><ele>306</ele><time>2020-05-21T10:47:51Z</time><name>PT3481</name></trkpt>
<trkpt lat="53.369866" lon="-1.596238"><ele>306</ele><time>2020-05-21T10:47:51Z</time><name>PT3482</name></trkpt>
<trkpt lat="53.369876" lon="-1.596233"><ele>305</ele><time>2020-05-21T10:47:52Z</time><name>PT3483</name></trkpt>
<trkpt lat="53.369885" lon="-1.596226"><ele>304</ele><time>2020-05-21T10:47:54Z</time><name>PT3484</name></trkpt>
<trkpt lat="53.369896" lon="-1.596219"><ele>304</ele><time>2020-05-21T10:47:54Z</time><name>PT3485</name></trkpt>
<trkpt lat="53.369907" lon="-1.596221"><ele>304</ele><time>2020-05-21T10:47:55Z</time><name>PT3486</name></trkpt>
<trkpt lat="53.369920" lon="-1.596219"><ele>304</ele><time>2020-05-21T10:47:57Z</time><name>PT3487</name></trkpt>
<trkpt lat="53.369927" lon="-1.596210"><ele>303</ele><time>2020-05-21T10:47:57Z</time><name>PT3488</name></trkpt>
<trkpt lat="53.369938" lon="-1.596206"><ele>302</ele><time>2020-05-21T10:47:58Z</time><name>PT3489</name></trkpt>
<trkpt lat="53.369947" lon="-1.596205"><ele>302</ele><time>2020-05-21T10:48:00Z</time><name>PT3490</name></trkpt>
<trkpt lat="53.369958" lon="-1.596203"><ele>302</ele><time>2020-05-21T10:48:00Z</time><name>PT3491</name></trkpt>
<trkpt lat="53.369968" lon="-1.596198"><ele>302</ele><time>2020-05-21T10:48:01Z</time><name>PT3492</name></trkpt>
<trkpt lat="53.369974" lon="-1.596194"><ele>302</ele><time>2020-05-21T10:48:03Z</time><name>PT3493</name></trkpt>
<trkpt lat="53.369980" lon="-1.596188"><ele>302</ele><time>2020-05-21T10:48:03Z</time><name>PT3494</name></trkpt>
<trkpt lat="53.369985" lon="-1.596184"><ele>302</ele><time>2020-05-21T10:48:04Z</time><name>PT3495</name></trkpt>
<trkpt lat="53.369992" lon="-1.596186"><ele>301</ele><time>2020-05-21T10:48:06Z</time><name>PT3496</name></trkpt>
<trkpt lat="53.370004" lon="-1.596184"><ele>301</ele><time>2020-05-21T10:48:06Z</time><name>PT3497</name></trkpt>
<trkpt lat="53.370015" lon="-1.596183"><ele>300</ele><time>2020-05-21T10:48:07Z</time><name>PT3498</name></trkpt>
<trkpt lat="53.370024" lon="-1.596172"><ele>300</ele><time>2020-05-21T10:48:09Z</time><name>PT3499</name></trkpt>
<trkpt lat="53.370031" lon="-1.596164"><ele>300</ele><time>2020-05-21T10:48:09Z</time><name>PT3500</name></trkpt>
<trkpt lat="53.370040" lon="-1.596162"><ele>300</ele><time>2020-05-21T10:48:10Z</time><name>PT3501</name></trkpt>
<trkpt lat="53.370050" lon="-1.596156"><ele>300</ele><time>2020-05-21T10:48:12Z</time><name>PT3502</name></trkpt>
<trkpt lat="53.370059" lon="-1.596151"><ele>300</ele><time>2020-05-21T10:48:12Z</time><name>PT3503</name></trkpt>
<trkpt lat="53.370070" lon="-1.596146"><ele>300</ele><time>2020-05-21T10:48:13Z</time><name>PT3504</name></trkpt>
<trkpt lat="53.370081" lon="-1.596141"><ele>300</ele><time>2020-05-21T10:48:15Z</time><name>PT3505</name></trkpt>
<trkpt lat="53.370093" lon="-1.596136"><ele>300</ele><time>2020-05-21T10:48:15Z</time><name>PT3506</name></trkpt>
<trkpt lat="53.370107" lon="-1.596127"><ele>299</ele><time>2020-05-21T10:48:16Z</time><name>PT3507</name></trkpt>
<trkpt lat="53.370119" lon="-1.596120"><ele>299</ele><time>2020-05-21T10:48:18Z</time><name>PT3508</name></trkpt>
<trkpt lat="53.370133" lon="-1.596107"><ele>299</ele><time>2020-05-21T10:48:18Z</time><name>PT3509</name></trkpt>
<trkpt lat="53.370147" lon="-1.596094"><ele>300</ele><time>2020-05-21T10:48:19Z</time><name>PT3510</name></trkpt>
<trkpt lat="53.370159" lon="-1.596087"><ele>300</ele><time>2020-05-21T10:48:21Z</time><name>PT3511</name></trkpt>
<trkpt lat="53.370165" lon="-1.596079"><ele>300</ele><time>2020-05-21T10:48:21Z</time><name>PT3512</name></trkpt>
<trkpt lat="53.370171" lon="-1.596073"><ele>300</ele><time>2020-05-21T10:48:22Z</time><name>PT3513</name></trkpt>
<trkpt lat="53.370179" lon="-1.596067"><ele>299</ele><time>2020-05-21T10:48:24Z</time><name>PT3514</name></trkpt>
<trkpt lat="53.370184" lon="-1.596066"><ele>299</ele><time>2020-05-21T10:48:24Z</time><name>PT3515</name></trkpt>
<trkpt lat="53.370188" lon="-1.596061"><ele>299</ele><time>2020-05-21T10:48:25Z</time><name>PT3516</name></trkpt>
<trkpt lat="53.370196" lon="-1.596059"><ele>298</ele><time>2020-05-21T10:48:27Z</time><name>PT3517</name></trkpt>
<trkpt lat="53.370207" lon="-1.596051"><ele>299</ele><time>2020-05-21T10:48:27Z</time><name>PT3518</name></trkpt>
<trkpt lat="53.370216" lon="-1.596036"><ele>299</ele><time>2020-05-21T10:48:28Z</time><name>PT3519</name></trkpt>
<trkpt lat="53.370230" lon="-1.596019"><ele>298</ele><time>2020-05-21T10:48:30Z</time><name>PT3520</name></trkpt>
<trkpt lat="53.370239" lon="-1.596010"><ele>298</ele><time>2020-05-21T10:48:31Z</time><name>PT3521</name></trkpt>
<trkpt lat="53.370246" lon="-1.595997"><ele>297</ele><time>2020-05-21T10:48:33Z</time><name>PT3522</name></trkpt>
<trkpt lat="53.370254" lon="-1.595987"><ele>296</ele><time>2020-05-21T10:48:33Z</time><name>PT3523</name></trkpt>
<trkpt lat="53.370260" lon="-1.595988"><ele>295</ele><time>2020-05-21T10:48:34Z</time><name>PT3524</name></trkpt>
<trkpt lat="53.370265" lon="-1.595988"><ele>295</ele><time>2020-05-21T10:48:36Z</time><name>PT3525</name></trkpt>
<trkpt lat="53.370266" lon="-1.595985"><ele>296</ele><time>2020-05-21T10:48:36Z</time><name>PT3526</name></trkpt>
<trkpt lat="53.370266" lon="-1.595982"><ele>295</ele><time>2020-05-21T10:48:37Z</time><name>PT3527</name></trkpt>
<trkpt lat="53.370267" lon="-1.595979"><ele>295</ele><time>2020-05-21T10:48:39Z</time><name>PT3528</name></trkpt>
<trkpt lat="53.370265" lon="-1.595976"><ele>295</ele><time>2020-05-21T10:48:39Z</time><name>PT3529</name></trkpt>
<trkpt lat="53.370264" lon="-1.595970"><ele>295</ele><time>2020-05-21T10:48:40Z</time><name>PT3530</name></trkpt>
<trkpt lat="53.370265" lon="-1.595967"><ele>296</ele><time>2020-05-21T10:48:42Z</time><name>PT3531</name></trkpt>
<trkpt lat="53.370270" lon="-1.595963"><ele>296</ele><time>2020-05-21T10:48:42Z</time><name>PT3532</name></trkpt>
<trkpt lat="53.370276" lon="-1.595961"><ele>296</ele><time>2020-05-21T10:48:43Z</time><name>PT3533</name></trkpt>
<trkpt lat="53.370278" lon="-1.595957"><ele>297</ele><time>2020-05-21T10:48:45Z</time><name>PT3534</name></trkpt>
<trkpt lat="53.370289" lon="-1.595950"><ele>296</ele><time>2020-05-21T10:48:52Z</time><name>PT3535</name></trkpt>
<trkpt lat="53.370300" lon="-1.595937"><ele>295</ele><time>2020-05-21T10:48:54Z</time><name>PT3536</name></trkpt>
<trkpt lat="53.370319" lon="-1.595923"><ele>294</ele><time>2020-05-21T10:48:54Z</time><name>PT3537</name></trkpt>
<trkpt lat="53.370333" lon="-1.595911"><ele>293</ele><time>2020-05-21T10:48:55Z</time><name>PT3538</name></trkpt>
<trkpt lat="53.370346" lon="-1.595903"><ele>293</ele><time>2020-05-21T10:48:57Z</time><name>PT3539</name></trkpt>
<trkpt lat="53.370359" lon="-1.595890"><ele>292</ele><time>2020-05-21T10:48:57Z</time><name>PT3540</name></trkpt>
<trkpt lat="53.370376" lon="-1.595869"><ele>292</ele><time>2020-05-21T10:48:58Z</time><name>PT3541</name></trkpt>
<trkpt lat="53.370390" lon="-1.595857"><ele>293</ele><time>2020-05-21T10:49:00Z</time><name>PT3542</name></trkpt>
<trkpt lat="53.370402" lon="-1.595839"><ele>292</ele><time>2020-05-21T10:49:00Z</time><name>PT3543</name></trkpt>
<trkpt lat="53.370413" lon="-1.595826"><ele>292</ele><time>2020-05-21T10:49:01Z</time><name>PT3544</name></trkpt>
<trkpt lat="53.370425" lon="-1.595823"><ele>293</ele><time>2020-05-21T10:49:03Z</time><name>PT3545</name></trkpt>
<trkpt lat="53.370443" lon="-1.595827"><ele>293</ele><time>2020-05-21T10:49:03Z</time><name>PT3546</name></trkpt>
<trkpt lat="53.370444" lon="-1.595825"><ele>293</ele><time>2020-05-21T10:49:04Z</time><name>PT3547</name></trkpt>
<trkpt lat="53.370443" lon="-1.595816"><ele>293</ele><time>2020-05-21T10:49:06Z</time><name>PT3548</name></trkpt>
<trkpt lat="53.370443" lon="-1.595812"><ele>293</ele><time>2020-05-21T10:49:06Z</time><name>PT3549</name></trkpt>
<trkpt lat="53.370441" lon="-1.595809"><ele>293</ele><time>2020-05-21T10:49:07Z</time><name>PT3550</name></trkpt>
<trkpt lat="53.370441" lon="-1.595797"><ele>293</ele><time>2020-05-21T10:49:12Z</time><name>PT3551</name></trkpt>
<trkpt lat="53.370440" lon="-1.595787"><ele>293</ele><time>2020-05-21T10:49:13Z</time><name>PT3552</name></trkpt>
<trkpt lat="53.370443" lon="-1.595779"><ele>293</ele><time>2020-05-21T10:49:15Z</time><name>PT3553</name></trkpt>
<trkpt lat="53.370450" lon="-1.595770"><ele>293</ele><time>2020-05-21T10:49:15Z</time><name>PT3554</name></trkpt>
<trkpt lat="53.370464" lon="-1.595762"><ele>293</ele><time>2020-05-21T10:49:16Z</time><name>PT3555</name></trkpt>
<trkpt lat="53.370474" lon="-1.595754"><ele>293</ele><time>2020-05-21T10:49:18Z</time><name>PT3556</name></trkpt>
<trkpt lat="53.370486" lon="-1.595748"><ele>292</ele><time>2020-05-21T10:49:18Z</time><name>PT3557</name></trkpt>
<trkpt lat="53.370495" lon="-1.595743"><ele>291</ele><time>2020-05-21T10:49:19Z</time><name>PT3558</name></trkpt>
<trkpt lat="53.370501" lon="-1.595735"><ele>290</ele><time>2020-05-21T10:49:21Z</time><name>PT3559</name></trkpt>
<trkpt lat="53.370514" lon="-1.595721"><ele>290</ele><time>2020-05-21T10:49:21Z</time><name>PT3560</name></trkpt>
<trkpt lat="53.370534" lon="-1.595708"><ele>290</ele><time>2020-05-21T10:49:22Z</time><name>PT3561</name></trkpt>
<trkpt lat="53.370545" lon="-1.595689"><ele>291</ele><time>2020-05-21T10:49:24Z</time><name>PT3562</name></trkpt>
<trkpt lat="53.370558" lon="-1.595680"><ele>291</ele><time>2020-05-21T10:49:24Z</time><name>PT3563</name></trkpt>
<trkpt lat="53.370567" lon="-1.595671"><ele>292</ele><time>2020-05-21T10:49:25Z</time><name>PT3564</name></trkpt>
<trkpt lat="53.370580" lon="-1.595664"><ele>292</ele><time>2020-05-21T10:49:27Z</time><name>PT3565</name></trkpt>
<trkpt lat="53.370597" lon="-1.595651"><ele>291</ele><time>2020-05-21T10:49:27Z</time><name>PT3566</name></trkpt>
<trkpt lat="53.370608" lon="-1.595642"><ele>291</ele><time>2020-05-21T10:49:28Z</time><name>PT3567</name></trkpt>
<trkpt lat="53.370622" lon="-1.595631"><ele>291</ele><time>2020-05-21T10:49:30Z</time><name>PT3568</name></trkpt>
<trkpt lat="53.370634" lon="-1.595618"><ele>292</ele><time>2020-05-21T10:49:30Z</time><name>PT3569</name></trkpt>
<trkpt lat="53.370643" lon="-1.595607"><ele>292</ele><time>2020-05-21T10:49:31Z</time><name>PT3570</name></trkpt>
<trkpt lat="53.370651" lon="-1.595601"><ele>290</ele><time>2020-05-21T10:49:33Z</time><name>PT3571</name></trkpt>
<trkpt lat="53.370658" lon="-1.595597"><ele>289</ele><time>2020-05-21T10:49:33Z</time><name>PT3572</name></trkpt>
<trkpt lat="53.370667" lon="-1.595599"><ele>289</ele><time>2020-05-21T10:49:34Z</time><name>PT3573</name></trkpt>
<trkpt lat="53.370678" lon="-1.595593"><ele>288</ele><time>2020-05-21T10:49:36Z</time><name>PT3574</name></trkpt>
<trkpt lat="53.370686" lon="-1.595584"><ele>288</ele><time>2020-05-21T10:49:36Z</time><name>PT3575</name></trkpt>
<trkpt lat="53.370698" lon="-1.595573"><ele>289</ele><time>2020-05-21T10:49:37Z</time><name>PT3576</name></trkpt>
<trkpt lat="53.370706" lon="-1.595560"><ele>290</ele><time>2020-05-21T10:49:39Z</time><name>PT3577</name></trkpt>
<trkpt lat="53.370711" lon="-1.595547"><ele>290</ele><time>2020-05-21T10:49:39Z</time><name>PT3578</name></trkpt>
<trkpt lat="53.370719" lon="-1.595537"><ele>291</ele><time>2020-05-21T10:49:40Z</time><name>PT3579</name></trkpt>
<trkpt lat="53.370730" lon="-1.595538"><ele>292</ele><time>2020-05-21T10:49:42Z</time><name>PT3580</name></trkpt>
<trkpt lat="53.370750" lon="-1.595521"><ele>294</ele><time>2020-05-21T10:49:42Z</time><name>PT3581</name></trkpt>
<trkpt lat="53.370772" lon="-1.595503"><ele>294</ele><time>2020-05-21T10:49:43Z</time><name>PT3582</name></trkpt>
<trkpt lat="53.370797" lon="-1.595500"><ele>296</ele><time>2020-05-21T10:49:45Z</time><name>PT3583</name></trkpt>
<trkpt lat="53.370823" lon="-1.595487"><ele>298</ele><time>2020-05-21T10:49:45Z</time><name>PT3584</name></trkpt>
<trkpt lat="53.370837" lon="-1.595473"><ele>299</ele><time>2020-05-21T10:49:46Z</time><name>PT3585</name></trkpt>
<trkpt lat="53.370852" lon="-1.595459"><ele>300</ele><time>2020-05-21T10:49:48Z</time><name>PT3586</name></trkpt>
<trkpt lat="53.370866" lon="-1.595449"><ele>301</ele><time>2020-05-21T10:49:48Z</time><name>PT3587</name></trkpt>
<trkpt lat="53.370877" lon="-1.595438"><ele>302</ele><time>2020-05-21T10:49:49Z</time><name>PT3588</name></trkpt>
<trkpt lat="53.370889" lon="-1.595426"><ele>303</ele><time>2020-05-21T10:49:51Z</time><name>PT3589</name></trkpt>
<trkpt lat="53.370899" lon="-1.595415"><ele>303</ele><time>2020-05-21T10:49:51Z</time><name>PT3590</name></trkpt>
<trkpt lat="53.370906" lon="-1.595401"><ele>303</ele><time>2020-05-21T10:49:52Z</time><name>PT3591</name></trkpt>
<trkpt lat="53.370906" lon="-1.595384"><ele>304</ele><time>2020-05-21T10:49:54Z</time><name>PT3592</name></trkpt>
<trkpt lat="53.370907" lon="-1.595373"><ele>303</ele><time>2020-05-21T10:49:54Z</time><name>PT3593</name></trkpt>
<trkpt lat="53.370906" lon="-1.595356"><ele>303</ele><time>2020-05-21T10:49:55Z</time><name>PT3594</name></trkpt>
<trkpt lat="53.370911" lon="-1.595342"><ele>303</ele><time>2020-05-21T10:49:57Z</time><name>PT3595</name></trkpt>
<trkpt lat="53.370922" lon="-1.595326"><ele>303</ele><time>2020-05-21T10:49:57Z</time><name>PT3596</name></trkpt>
<trkpt lat="53.370933" lon="-1.595305"><ele>302</ele><time>2020-05-21T10:49:58Z</time><name>PT3597</name></trkpt>
<trkpt lat="53.370938" lon="-1.595291"><ele>301</ele><time>2020-05-21T10:50:00Z</time><name>PT3598</name></trkpt>
<trkpt lat="53.370950" lon="-1.595282"><ele>300</ele><time>2020-05-21T10:50:00Z</time><name>PT3599</name></trkpt>
<trkpt lat="53.370960" lon="-1.595267"><ele>299</ele><time>2020-05-21T10:50:01Z</time><name>PT3600</name></trkpt>
<trkpt lat="53.370964" lon="-1.595251"><ele>299</ele><time>2020-05-21T10:50:03Z</time><name>PT3601</name></trkpt>
<trkpt lat="53.370969" lon="-1.595241"><ele>299</ele><time>2020-05-21T10:50:03Z</time><name>PT3602</name></trkpt>
<trkpt lat="53.370977" lon="-1.595232"><ele>299</ele><time>2020-05-21T10:50:04Z</time><name>PT3603</name></trkpt>
<trkpt lat="53.370984" lon="-1.595215"><ele>298</ele><time>2020-05-21T10:50:06Z</time><name>PT3604</name></trkpt>
<trkpt lat="53.370991" lon="-1.595199"><ele>297</ele><time>2020-05-21T10:50:06Z</time><name>PT3605</name></trkpt>
<trkpt lat="53.370996" lon="-1.595184"><ele>297</ele><time>2020-05-21T10:50:07Z</time><name>PT3606</name></trkpt>
<trkpt lat="53.371009" lon="-1.595165"><ele>296</ele><time>2020-05-21T10:50:09Z</time><name>PT3607</name></trkpt>
<trkpt lat="53.371018" lon="-1.595142"><ele>296</ele><time>2020-05-21T10:50:09Z</time><name>PT3608</name></trkpt>
<trkpt lat="53.371025" lon="-1.595123"><ele>295</ele><time>2020-05-21T10:50:10Z</time><name>PT3609</name></trkpt>
<trkpt lat="53.371030" lon="-1.595106"><ele>295</ele><time>2020-05-21T10:50:12Z</time><name>PT3610</name></trkpt>
<trkpt lat="53.371036" lon="-1.595089"><ele>295</ele><time>2020-05-21T10:50:12Z</time><name>PT3611</name></trkpt>
<trkpt lat="53.371044" lon="-1.595076"><ele>294</ele><time>2020-05-21T10:50:13Z</time><name>PT3612</name></trkpt>
<trkpt lat="53.371048" lon="-1.595056"><ele>294</ele><time>2020-05-21T10:50:15Z</time><name>PT3613</name></trkpt>
<trkpt lat="53.371053" lon="-1.595041"><ele>293</ele><time>2020-05-21T10:50:15Z</time><name>PT3614</name></trkpt>
<trkpt lat="53.371057" lon="-1.595021"><ele>292</ele><time>2020-05-21T10:50:16Z</time><name>PT3615</name></trkpt>
<trkpt lat="53.371061" lon="-1.595002"><ele>292</ele><time>2020-05-21T10:50:18Z</time><name>PT3616</name></trkpt>
<trkpt lat="53.371063" lon="-1.594983"><ele>292</ele><time>2020-05-21T10:50:18Z</time><name>PT3617</name></trkpt>
<trkpt lat="53.371069" lon="-1.594966"><ele>291</ele><time>2020-05-21T10:50:19Z</time><name>PT3618</name></trkpt>
<trkpt lat="53.371077" lon="-1.594952"><ele>292</ele><time>2020-05-21T10:50:21Z</time><name>PT3619</name></trkpt>
<trkpt lat="53.371081" lon="-1.594946"><ele>291</ele><time>2020-05-21T10:50:21Z</time><name>PT3620</name></trkpt>
<trkpt lat="53.371082" lon="-1.594942"><ele>292</ele><time>2020-05-21T10:50:23Z</time><name>PT3621</name></trkpt>
<trkpt lat="53.371084" lon="-1.594939"><ele>292</ele><time>2020-05-21T10:50:24Z</time><name>PT3622</name></trkpt>
<trkpt lat="53.371086" lon="-1.594935"><ele>292</ele><time>2020-05-21T10:50:24Z</time><name>PT3623</name></trkpt>
<trkpt lat="53.371090" lon="-1.594924"><ele>291</ele><time>2020-05-21T10:50:27Z</time><name>PT3624</name></trkpt>
<trkpt lat="53.371096" lon="-1.594901"><ele>290</ele><time>2020-05-21T10:50:27Z</time><name>PT3625</name></trkpt>
<trkpt lat="53.371100" lon="-1.594881"><ele>290</ele><time>2020-05-21T10:50:28Z</time><name>PT3626</name></trkpt>
<trkpt lat="53.371110" lon="-1.594858"><ele>289</ele><time>2020-05-21T10:50:30Z</time><name>PT3627</name></trkpt>
<trkpt lat="53.371113" lon="-1.594830"><ele>289</ele><time>2020-05-21T10:50:30Z</time><name>PT3628</name></trkpt>
<trkpt lat="53.371124" lon="-1.594808"><ele>288</ele><time>2020-05-21T10:50:31Z</time><name>PT3629</name></trkpt>
<trkpt lat="53.371128" lon="-1.594791"><ele>287</ele><time>2020-05-21T10:50:33Z</time><name>PT3630</name></trkpt>
<trkpt lat="53.371135" lon="-1.594773"><ele>287</ele><time>2020-05-21T10:50:33Z</time><name>PT3631</name></trkpt>
<trkpt lat="53.371145" lon="-1.594752"><ele>286</ele><time>2020-05-21T10:50:35Z</time><name>PT3632</name></trkpt>
<trkpt lat="53.371154" lon="-1.594735"><ele>286</ele><time>2020-05-21T10:50:35Z</time><name>PT3633</name></trkpt>
<trkpt lat="53.371159" lon="-1.594711"><ele>286</ele><time>2020-05-21T10:50:36Z</time><name>PT3634</name></trkpt>
<trkpt lat="53.371169" lon="-1.594692"><ele>287</ele><time>2020-05-21T10:50:38Z</time><name>PT3635</name></trkpt>
<trkpt lat="53.371177" lon="-1.594673"><ele>287</ele><time>2020-05-21T10:50:38Z</time><name>PT3636</name></trkpt>
<trkpt lat="53.371182" lon="-1.594652"><ele>287</ele><time>2020-05-21T10:50:39Z</time><name>PT3637</name></trkpt>
<trkpt lat="53.371188" lon="-1.594631"><ele>287</ele><time>2020-05-21T10:50:41Z</time><name>PT3638</name></trkpt>
<trkpt lat="53.371192" lon="-1.594611"><ele>287</ele><time>2020-05-21T10:50:41Z</time><name>PT3639</name></trkpt>
<trkpt lat="53.371199" lon="-1.594586"><ele>287</ele><time>2020-05-21T10:50:42Z</time><name>PT3640</name></trkpt>
<trkpt lat="53.371202" lon="-1.594567"><ele>287</ele><time>2020-05-21T10:50:44Z</time><name>PT3641</name></trkpt>
<trkpt lat="53.371204" lon="-1.594545"><ele>287</ele><time>2020-05-21T10:50:44Z</time><name>PT3642</name></trkpt>
<trkpt lat="53.371204" lon="-1.594523"><ele>287</ele><time>2020-05-21T10:50:45Z</time><name>PT3643</name></trkpt>
<trkpt lat="53.371206" lon="-1.594498"><ele>287</ele><time>2020-05-21T10:50:47Z</time><name>PT3644</name></trkpt>
<trkpt lat="53.371210" lon="-1.594480"><ele>286</ele><time>2020-05-21T10:50:47Z</time><name>PT3645</name></trkpt>
<trkpt lat="53.371216" lon="-1.594461"><ele>287</ele><time>2020-05-21T10:50:49Z</time><name>PT3646</name></trkpt>
<trkpt lat="53.371223" lon="-1.594444"><ele>287</ele><time>2020-05-21T10:50:50Z</time><name>PT3647</name></trkpt>
<trkpt lat="53.371227" lon="-1.594421"><ele>287</ele><time>2020-05-21T10:50:50Z</time><name>PT3648</name></trkpt>
<trkpt lat="53.371230" lon="-1.594401"><ele>286</ele><time>2020-05-21T10:50:51Z</time><name>PT3649</name></trkpt>
<trkpt lat="53.371231" lon="-1.594383"><ele>286</ele><time>2020-05-21T10:50:53Z</time><name>PT3650</name></trkpt>
<trkpt lat="53.371235" lon="-1.594366"><ele>286</ele><time>2020-05-21T10:50:53Z</time><name>PT3651</name></trkpt>
<trkpt lat="53.371240" lon="-1.594345"><ele>286</ele><time>2020-05-21T10:50:54Z</time><name>PT3652</name></trkpt>
<trkpt lat="53.371242" lon="-1.594328"><ele>285</ele><time>2020-05-21T10:50:56Z</time><name>PT3653</name></trkpt>
<trkpt lat="53.371242" lon="-1.594309"><ele>284</ele><time>2020-05-21T10:50:56Z</time><name>PT3654</name></trkpt>
<trkpt lat="53.371246" lon="-1.594291"><ele>284</ele><time>2020-05-21T10:50:57Z</time><name>PT3655</name></trkpt>
<trkpt lat="53.371248" lon="-1.594273"><ele>284</ele><time>2020-05-21T10:50:59Z</time><name>PT3656</name></trkpt>
<trkpt lat="53.371252" lon="-1.594254"><ele>284</ele><time>2020-05-21T10:50:59Z</time><name>PT3657</name></trkpt>
<trkpt lat="53.371258" lon="-1.594236"><ele>284</ele><time>2020-05-21T10:51:00Z</time><name>PT3658</name></trkpt>
<trkpt lat="53.371264" lon="-1.594216"><ele>284</ele><time>2020-05-21T10:51:02Z</time><name>PT3659</name></trkpt>
<trkpt lat="53.371270" lon="-1.594187"><ele>284</ele><time>2020-05-21T10:51:02Z</time><name>PT3660</name></trkpt>
<trkpt lat="53.371274" lon="-1.594163"><ele>285</ele><time>2020-05-21T10:51:03Z</time><name>PT3661</name></trkpt>
<trkpt lat="53.371278" lon="-1.594129"><ele>286</ele><time>2020-05-21T10:51:05Z</time><name>PT3662</name></trkpt>
<trkpt lat="53.371286" lon="-1.594106"><ele>286</ele><time>2020-05-21T10:51:05Z</time><name>PT3663</name></trkpt>
<trkpt lat="53.371293" lon="-1.594084"><ele>286</ele><time>2020-05-21T10:51:06Z</time><name>PT3664</name></trkpt>
<trkpt lat="53.371297" lon="-1.594067"><ele>286</ele><time>2020-05-21T10:51:08Z</time><name>PT3665</name></trkpt>
<trkpt lat="53.371300" lon="-1.594050"><ele>285</ele><time>2020-05-21T10:51:08Z</time><name>PT3666</name></trkpt>
<trkpt lat="53.371302" lon="-1.594027"><ele>285</ele><time>2020-05-21T10:51:09Z</time><name>PT3667</name></trkpt>
<trkpt lat="53.371308" lon="-1.594011"><ele>284</ele><time>2020-05-21T10:51:11Z</time><name>PT3668</name></trkpt>
<trkpt lat="53.371311" lon="-1.593995"><ele>285</ele><time>2020-05-21T10:51:11Z</time><name>PT3669</name></trkpt>
<trkpt lat="53.371316" lon="-1.593978"><ele>285</ele><time>2020-05-21T10:51:12Z</time><name>PT3670</name></trkpt>
<trkpt lat="53.371316" lon="-1.593976"><ele>285</ele><time>2020-05-21T10:51:14Z</time><name>PT3671</name></trkpt>
<trkpt lat="53.371315" lon="-1.593970"><ele>285</ele><time>2020-05-21T10:51:14Z</time><name>PT3672</name></trkpt>
<trkpt lat="53.371314" lon="-1.593965"><ele>286</ele><time>2020-05-21T10:51:15Z</time><name>PT3673</name></trkpt>
<trkpt lat="53.371313" lon="-1.593961"><ele>286</ele><time>2020-05-21T10:51:17Z</time><name>PT3674</name></trkpt>
<trkpt lat="53.371312" lon="-1.593959"><ele>286</ele><time>2020-05-21T10:51:17Z</time><name>PT3675</name></trkpt>
<trkpt lat="53.371308" lon="-1.593960"><ele>286</ele><time>2020-05-21T10:51:18Z</time><name>PT3676</name></trkpt>
<trkpt lat="53.371310" lon="-1.593955"><ele>286</ele><time>2020-05-21T10:51:20Z</time><name>PT3677</name></trkpt>
<trkpt lat="53.371309" lon="-1.593949"><ele>285</ele><time>2020-05-21T10:51:20Z</time><name>PT3678</name></trkpt>
<trkpt lat="53.371310" lon="-1.593945"><ele>286</ele><time>2020-05-21T10:51:21Z</time><name>PT3679</name></trkpt>
<trkpt lat="53.371317" lon="-1.593934"><ele>284</ele><time>2020-05-21T10:51:23Z</time><name>PT3680</name></trkpt>
<trkpt lat="53.371322" lon="-1.593919"><ele>283</ele><time>2020-05-21T10:51:23Z</time><name>PT3681</name></trkpt>
<trkpt lat="53.371326" lon="-1.593901"><ele>284</ele><time>2020-05-21T10:51:24Z</time><name>PT3682</name></trkpt>
<trkpt lat="53.371330" lon="-1.593873"><ele>285</ele><time>2020-05-21T10:51:26Z</time><name>PT3683</name></trkpt>
<trkpt lat="53.371337" lon="-1.593861"><ele>285</ele><time>2020-05-21T10:51:26Z</time><name>PT3684</name></trkpt>
<trkpt lat="53.371341" lon="-1.593845"><ele>285</ele><time>2020-05-21T10:51:27Z</time><name>PT3685</name></trkpt>
<trkpt lat="53.371351" lon="-1.593830"><ele>288</ele><time>2020-05-21T10:51:29Z</time><name>PT3686</name></trkpt>
<trkpt lat="53.371362" lon="-1.593810"><ele>287</ele><time>2020-05-21T10:51:29Z</time><name>PT3687</name></trkpt>
<trkpt lat="53.371371" lon="-1.593790"><ele>288</ele><time>2020-05-21T10:51:30Z</time><name>PT3688</name></trkpt>
<trkpt lat="53.371375" lon="-1.593766"><ele>288</ele><time>2020-05-21T10:51:32Z</time><name>PT3689</name></trkpt>
<trkpt lat="53.371379" lon="-1.593745"><ele>288</ele><time>2020-05-21T10:51:32Z</time><name>PT3690</name></trkpt>
<trkpt lat="53.371388" lon="-1.593733"><ele>289</ele><time>2020-05-21T10:51:33Z</time><name>PT3691</name></trkpt>
<trkpt lat="53.371391" lon="-1.593719"><ele>289</ele><time>2020-05-21T10:51:35Z</time><name>PT3692</name></trkpt>
<trkpt lat="53.371380" lon="-1.593718"><ele>292</ele><time>2020-05-21T10:51:35Z</time><name>PT3693</name></trkpt>
<trkpt lat="53.371378" lon="-1.593701"><ele>291</ele><time>2020-05-21T10:51:36Z</time><name>PT3694</name></trkpt>
<trkpt lat="53.371376" lon="-1.593674"><ele>289</ele><time>2020-05-21T10:51:38Z</time><name>PT3695</name></trkpt>
<trkpt lat="53.371379" lon="-1.593651"><ele>290</ele><time>2020-05-21T10:51:38Z</time><name>PT3696</name></trkpt>
<trkpt lat="53.371382" lon="-1.593620"><ele>290</ele><time>2020-05-21T10:51:39Z</time><name>PT3697</name></trkpt>
<trkpt lat="53.371391" lon="-1.593601"><ele>289</ele><time>2020-05-21T10:51:41Z</time><name>PT3698</name></trkpt>
<trkpt lat="53.371393" lon="-1.593587"><ele>287</ele><time>2020-05-21T10:51:41Z</time><name>PT3699</name></trkpt>
<trkpt lat="53.371390" lon="-1.593570"><ele>286</ele><time>2020-05-21T10:51:42Z</time><name>PT3700</name></trkpt>
<trkpt lat="53.371391" lon="-1.593549"><ele>287</ele><time>2020-05-21T10:51:44Z</time><name>PT3701</name></trkpt>
<trkpt lat="53.371403" lon="-1.593531"><ele>286</ele><time>2020-05-21T10:51:44Z</time><name>PT3702</name></trkpt>
<trkpt lat="53.371411" lon="-1.593512"><ele>286</ele><time>2020-05-21T10:51:45Z</time><name>PT3703</name></trkpt>
<trkpt lat="53.371418" lon="-1.593489"><ele>285</ele><time>2020-05-21T10:51:47Z</time><name>PT3704</name></trkpt>
<trkpt lat="53.371424" lon="-1.593470"><ele>286</ele><time>2020-05-21T10:51:47Z</time><name>PT3705</name></trkpt>
<trkpt lat="53.371423" lon="-1.593453"><ele>286</ele><time>2020-05-21T10:51:48Z</time><name>PT3706</name></trkpt>
<trkpt lat="53.371421" lon="-1.593443"><ele>284</ele><time>2020-05-21T10:51:50Z</time><name>PT3707</name></trkpt>
<trkpt lat="53.371429" lon="-1.593437"><ele>284</ele><time>2020-05-21T10:51:50Z</time><name>PT3708</name></trkpt>
<trkpt lat="53.371439" lon="-1.593419"><ele>282</ele><time>2020-05-21T10:51:51Z</time><name>PT3709</name></trkpt>
<trkpt lat="53.371448" lon="-1.593405"><ele>281</ele><time>2020-05-21T10:51:53Z</time><name>PT3710</name></trkpt>
<trkpt lat="53.371453" lon="-1.593394"><ele>281</ele><time>2020-05-21T10:51:53Z</time><name>PT3711</name></trkpt>
<trkpt lat="53.371461" lon="-1.593392"><ele>280</ele><time>2020-05-21T10:51:54Z</time><name>PT3712</name></trkpt>
<trkpt lat="53.371470" lon="-1.593379"><ele>278</ele><time>2020-05-21T10:51:56Z</time><name>PT3713</name></trkpt>
<trkpt lat="53.371472" lon="-1.593368"><ele>277</ele><time>2020-05-21T10:51:56Z</time><name>PT3714</name></trkpt>
<trkpt lat="53.371474" lon="-1.593353"><ele>278</ele><time>2020-05-21T10:51:57Z</time><name>PT3715</name></trkpt>
<trkpt lat="53.371475" lon="-1.593315"><ele>278</ele><time>2020-05-21T10:51:59Z</time><name>PT3716</name></trkpt>
<trkpt lat="53.371483" lon="-1.593308"><ele>279</ele><time>2020-05-21T10:51:59Z</time><name>PT3717</name></trkpt>
<trkpt lat="53.371485" lon="-1.593276"><ele>279</ele><time>2020-05-21T10:52:00Z</time><name>PT3718</name></trkpt>
<trkpt lat="53.371495" lon="-1.593265"><ele>278</ele><time>2020-05-21T10:52:02Z</time><name>PT3719</name></trkpt>
<trkpt lat="53.371506" lon="-1.593232"><ele>278</ele><time>2020-05-21T10:52:02Z</time><name>PT3720</name></trkpt>
<trkpt lat="53.371516" lon="-1.593209"><ele>279</ele><time>2020-05-21T10:52:03Z</time><name>PT3721</name></trkpt>
<trkpt lat="53.371521" lon="-1.593190"><ele>278</ele><time>2020-05-21T10:52:05Z</time><name>PT3722</name></trkpt>
<trkpt lat="53.371528" lon="-1.593175"><ele>279</ele><time>2020-05-21T10:52:05Z</time><name>PT3723</name></trkpt>
<trkpt lat="53.371540" lon="-1.593167"><ele>278</ele><time>2020-05-21T10:52:06Z</time><name>PT3724</name></trkpt>
<trkpt lat="53.371547" lon="-1.593138"><ele>278</ele><time>2020-05-21T10:52:08Z</time><name>PT3725</name></trkpt>
<trkpt lat="53.371559" lon="-1.593124"><ele>276</ele><time>2020-05-21T10:52:08Z</time><name>PT3726</name></trkpt>
<trkpt lat="53.371578" lon="-1.593109"><ele>277</ele><time>2020-05-21T10:52:09Z</time><name>PT3727</name></trkpt>
<trkpt lat="53.371592" lon="-1.593089"><ele>278</ele><time>2020-05-21T10:52:11Z</time><name>PT3728</name></trkpt>
<trkpt lat="53.371604" lon="-1.593081"><ele>278</ele><time>2020-05-21T10:52:11Z</time><name>PT3729</name></trkpt>
<trkpt lat="53.371609" lon="-1.593068"><ele>279</ele><time>2020-05-21T10:52:12Z</time><name>PT3730</name></trkpt>
<trkpt lat="53.371616" lon="-1.593064"><ele>279</ele><time>2020-05-21T10:52:14Z</time><name>PT3731</name></trkpt>
<trkpt lat="53.371620" lon="-1.593048"><ele>279</ele><time>2020-05-21T10:52:14Z</time><name>PT3732</name></trkpt>
<trkpt lat="53.371629" lon="-1.593044"><ele>279</ele><time>2020-05-21T10:52:15Z</time><name>PT3733</name></trkpt>
<trkpt lat="53.371644" lon="-1.593030"><ele>280</ele><time>2020-05-21T10:52:17Z</time><name>PT3734</name></trkpt>
<trkpt lat="53.371661" lon="-1.593015"><ele>281</ele><time>2020-05-21T10:52:17Z</time><name>PT3735</name></trkpt>
<trkpt lat="53.371670" lon="-1.592996"><ele>281</ele><time>2020-05-21T10:52:18Z</time><name>PT3736</name></trkpt>
<trkpt lat="53.371680" lon="-1.592988"><ele>281</ele><time>2020-05-21T10:52:20Z</time><name>PT3737</name></trkpt>
<trkpt lat="53.371691" lon="-1.592983"><ele>281</ele><time>2020-05-21T10:52:20Z</time><name>PT3738</name></trkpt>
<trkpt lat="53.371699" lon="-1.592984"><ele>280</ele><time>2020-05-21T10:52:21Z</time><name>PT3739</name></trkpt>
<trkpt lat="53.371709" lon="-1.592984"><ele>279</ele><time>2020-05-21T10:52:23Z</time><name>PT3740</name></trkpt>
<trkpt lat="53.371719" lon="-1.592965"><ele>277</ele><time>2020-05-21T10:52:23Z</time><name>PT3741</name></trkpt>
<trkpt lat="53.371739" lon="-1.592962"><ele>276</ele><time>2020-05-21T10:52:24Z</time><name>PT3742</name></trkpt>
<trkpt lat="53.371761" lon="-1.592963"><ele>274</ele><time>2020-05-21T10:52:26Z</time><name>PT3743</name></trkpt>
<trkpt lat="53.371778" lon="-1.592954"><ele>274</ele><time>2020-05-21T10:52:26Z</time><name>PT3744</name></trkpt>
<trkpt lat="53.371794" lon="-1.592950"><ele>275</ele><time>2020-05-21T10:52:27Z</time><name>PT3745</name></trkpt>
<trkpt lat="53.371808" lon="-1.592944"><ele>276</ele><time>2020-05-21T10:52:29Z</time><name>PT3746</name></trkpt>
<trkpt lat="53.371821" lon="-1.592939"><ele>276</ele><time>2020-05-21T10:52:29Z</time><name>PT3747</name></trkpt>
<trkpt lat="53.371831" lon="-1.592927"><ele>275</ele><time>2020-05-21T10:52:30Z</time><name>PT3748</name></trkpt>
<trkpt lat="53.371844" lon="-1.592927"><ele>274</ele><time>2020-05-21T10:52:32Z</time><name>PT3749</name></trkpt>
<trkpt lat="53.371857" lon="-1.592925"><ele>275</ele><time>2020-05-21T10:52:32Z</time><name>PT3750</name></trkpt>
<trkpt lat="53.371871" lon="-1.592915"><ele>277</ele><time>2020-05-21T10:52:34Z</time><name>PT3751</name></trkpt>
<trkpt lat="53.371883" lon="-1.592903"><ele>277</ele><time>2020-05-21T10:52:35Z</time><name>PT3752</name></trkpt>
<trkpt lat="53.371898" lon="-1.592886"><ele>276</ele><time>2020-05-21T10:52:35Z</time><name>PT3753</name></trkpt>
<trkpt lat="53.371910" lon="-1.592875"><ele>275</ele><time>2020-05-21T10:52:36Z</time><name>PT3754</name></trkpt>
<trkpt lat="53.371918" lon="-1.592873"><ele>275</ele><time>2020-05-21T10:52:38Z</time><name>PT3755</name></trkpt>
<trkpt lat="53.371931" lon="-1.592869"><ele>275</ele><time>2020-05-21T10:52:38Z</time><name>PT3756</name></trkpt>
<trkpt lat="53.371947" lon="-1.592865"><ele>274</ele><time>2020-05-21T10:52:39Z</time><name>PT3757</name></trkpt>
<trkpt lat="53.371955" lon="-1.592872"><ele>273</ele><time>2020-05-21T10:52:41Z</time><name>PT3758</name></trkpt>
<trkpt lat="53.371966" lon="-1.592890"><ele>274</ele><time>2020-05-21T10:52:41Z</time><name>PT3759</name></trkpt>
<trkpt lat="53.371982" lon="-1.592889"><ele>274</ele><time>2020-05-21T10:52:42Z</time><name>PT3760</name></trkpt>
<trkpt lat="53.371988" lon="-1.592888"><ele>271</ele><time>2020-05-21T10:52:44Z</time><name>PT3761</name></trkpt>
<trkpt lat="53.371997" lon="-1.592890"><ele>271</ele><time>2020-05-21T10:52:44Z</time><name>PT3762</name></trkpt>
<trkpt lat="53.372006" lon="-1.592889"><ele>271</ele><time>2020-05-21T10:52:45Z</time><name>PT3763</name></trkpt>
<trkpt lat="53.372011" lon="-1.592888"><ele>269</ele><time>2020-05-21T10:52:47Z</time><name>PT3764</name></trkpt>
<trkpt lat="53.372021" lon="-1.592889"><ele>268</ele><time>2020-05-21T10:52:47Z</time><name>PT3765</name></trkpt>
<trkpt lat="53.372036" lon="-1.592889"><ele>268</ele><time>2020-05-21T10:52:48Z</time><name>PT3766</name></trkpt>
<trkpt lat="53.372045" lon="-1.592891"><ele>267</ele><time>2020-05-21T10:52:50Z</time><name>PT3767</name></trkpt>
<trkpt lat="53.372061" lon="-1.592871"><ele>268</ele><time>2020-05-21T10:52:50Z</time><name>PT3768</name></trkpt>
<trkpt lat="53.372065" lon="-1.592866"><ele>268</ele><time>2020-05-21T10:52:51Z</time><name>PT3769</name></trkpt>
<trkpt lat="53.372083" lon="-1.592848"><ele>270</ele><time>2020-05-21T10:52:53Z</time><name>PT3770</name></trkpt>
<trkpt lat="53.372095" lon="-1.592849"><ele>272</ele><time>2020-05-21T10:52:53Z</time><name>PT3771</name></trkpt>
<trkpt lat="53.372109" lon="-1.592844"><ele>272</ele><time>2020-05-21T10:52:54Z</time><name>PT3772</name></trkpt>
<trkpt lat="53.372123" lon="-1.592845"><ele>272</ele><time>2020-05-21T10:52:56Z</time><name>PT3773</name></trkpt>
<trkpt lat="53.372139" lon="-1.592851"><ele>273</ele><time>2020-05-21T10:52:56Z</time><name>PT3774</name></trkpt>
<trkpt lat="53.372154" lon="-1.592852"><ele>273</ele><time>2020-05-21T10:52:57Z</time><name>PT3775</name></trkpt>
<trkpt lat="53.372161" lon="-1.592851"><ele>272</ele><time>2020-05-21T10:52:59Z</time><name>PT3776</name></trkpt>
<trkpt lat="53.372172" lon="-1.592854"><ele>272</ele><time>2020-05-21T10:52:59Z</time><name>PT3777</name></trkpt>
<trkpt lat="53.372186" lon="-1.592866"><ele>271</ele><time>2020-05-21T10:53:00Z</time><name>PT3778</name></trkpt>
<trkpt lat="53.372199" lon="-1.592878"><ele>270</ele><time>2020-05-21T10:53:02Z</time><name>PT3779</name></trkpt>
<trkpt lat="53.372213" lon="-1.592882"><ele>270</ele><time>2020-05-21T10:53:02Z</time><name>PT3780</name></trkpt>
<trkpt lat="53.372228" lon="-1.592876"><ele>269</ele><time>2020-05-21T10:53:03Z</time><name>PT3781</name></trkpt>
<trkpt lat="53.372246" lon="-1.592873"><ele>269</ele><time>2020-05-21T10:53:05Z</time><name>PT3782</name></trkpt>
<trkpt lat="53.372255" lon="-1.592874"><ele>269</ele><time>2020-05-21T10:53:05Z</time><name>PT3783</name></trkpt>
<trkpt lat="53.372261" lon="-1.592877"><ele>269</ele><time>2020-05-21T10:53:06Z</time><name>PT3784</name></trkpt>
<trkpt lat="53.372268" lon="-1.592879"><ele>268</ele><time>2020-05-21T10:53:08Z</time><name>PT3785</name></trkpt>
<trkpt lat="53.372277" lon="-1.592882"><ele>268</ele><time>2020-05-21T10:53:08Z</time><name>PT3786</name></trkpt>
<trkpt lat="53.372287" lon="-1.592889"><ele>268</ele><time>2020-05-21T10:53:10Z</time><name>PT3787</name></trkpt>
<trkpt lat="53.372307" lon="-1.592885"><ele>269</ele><time>2020-05-21T10:53:11Z</time><name>PT3788</name></trkpt>
<trkpt lat="53.372326" lon="-1.592889"><ele>267</ele><time>2020-05-21T10:53:11Z</time><name>PT3789</name></trkpt>
<trkpt lat="53.372343" lon="-1.592887"><ele>266</ele><time>2020-05-21T10:53:12Z</time><name>PT3790</name></trkpt>
<trkpt lat="53.372362" lon="-1.592880"><ele>267</ele><time>2020-05-21T10:53:14Z</time><name>PT3791</name></trkpt>
<trkpt lat="53.372373" lon="-1.592877"><ele>267</ele><time>2020-05-21T10:53:14Z</time><name>PT3792</name></trkpt>
<trkpt lat="53.372386" lon="-1.592880"><ele>267</ele><time>2020-05-21T10:53:15Z</time><name>PT3793</name></trkpt>
<trkpt lat="53.372396" lon="-1.592885"><ele>267</ele><time>2020-05-21T10:53:17Z</time><name>PT3794</name></trkpt>
<trkpt lat="53.372410" lon="-1.592896"><ele>267</ele><time>2020-05-21T10:53:17Z</time><name>PT3795</name></trkpt>
<trkpt lat="53.372427" lon="-1.592898"><ele>267</ele><time>2020-05-21T10:53:18Z</time><name>PT3796</name></trkpt>
<trkpt lat="53.372444" lon="-1.592889"><ele>268</ele><time>2020-05-21T10:53:20Z</time><name>PT3797</name></trkpt>
<trkpt lat="53.372453" lon="-1.592884"><ele>268</ele><time>2020-05-21T10:53:20Z</time><name>PT3798</name></trkpt>
<trkpt lat="53.372463" lon="-1.592869"><ele>268</ele><time>2020-05-21T10:53:21Z</time><name>PT3799</name></trkpt>
<trkpt lat="53.372476" lon="-1.592864"><ele>269</ele><time>2020-05-21T10:53:23Z</time><name>PT3800</name></trkpt>
<trkpt lat="53.372489" lon="-1.592868"><ele>268</ele><time>2020-05-21T10:53:23Z</time><name>PT3801</name></trkpt>
<trkpt lat="53.372498" lon="-1.592875"><ele>268</ele><time>2020-05-21T10:53:24Z</time><name>PT3802</name></trkpt>
<trkpt lat="53.372518" lon="-1.592877"><ele>269</ele><time>2020-05-21T10:53:26Z</time><name>PT3803</name></trkpt>
<trkpt lat="53.372536" lon="-1.592873"><ele>268</ele><time>2020-05-21T10:53:26Z</time><name>PT3804</name></trkpt>
<trkpt lat="53.372548" lon="-1.592861"><ele>267</ele><time>2020-05-21T10:53:27Z</time><name>PT3805</name></trkpt>
<trkpt lat="53.372557" lon="-1.592861"><ele>268</ele><time>2020-05-21T10:53:29Z</time><name>PT3806</name></trkpt>
<trkpt lat="53.372562" lon="-1.592851"><ele>266</ele><time>2020-05-21T10:53:29Z</time><name>PT3807</name></trkpt>
<trkpt lat="53.372575" lon="-1.592846"><ele>265</ele><time>2020-05-21T10:53:30Z</time><name>PT3808</name></trkpt>
<trkpt lat="53.372586" lon="-1.592853"><ele>264</ele><time>2020-05-21T10:53:32Z</time><name>PT3809</name></trkpt>
<trkpt lat="53.372603" lon="-1.592845"><ele>264</ele><time>2020-05-21T10:53:32Z</time><name>PT3810</name></trkpt>
<trkpt lat="53.372618" lon="-1.592853"><ele>263</ele><time>2020-05-21T10:53:33Z</time><name>PT3811</name></trkpt>
<trkpt lat="53.372634" lon="-1.592863"><ele>263</ele><time>2020-05-21T10:53:35Z</time><name>PT3812</name></trkpt>
<trkpt lat="53.372638" lon="-1.592877"><ele>262</ele><time>2020-05-21T10:53:35Z</time><name>PT3813</name></trkpt>
<trkpt lat="53.372649" lon="-1.592879"><ele>262</ele><time>2020-05-21T10:53:36Z</time><name>PT3814</name></trkpt>
<trkpt lat="53.372658" lon="-1.592880"><ele>262</ele><time>2020-05-21T10:53:38Z</time><name>PT3815</name></trkpt>
<trkpt lat="53.372671" lon="-1.592888"><ele>263</ele><time>2020-05-21T10:53:38Z</time><name>PT3816</name></trkpt>
<trkpt lat="53.372682" lon="-1.592894"><ele>262</ele><time>2020-05-21T10:53:39Z</time><name>PT3817</name></trkpt>
<trkpt lat="53.372691" lon="-1.592902"><ele>262</ele><time>2020-05-21T10:53:41Z</time><name>PT3818</name></trkpt>
<trkpt lat="53.372703" lon="-1.592920"><ele>261</ele><time>2020-05-21T10:53:41Z</time><name>PT3819</name></trkpt>
<trkpt lat="53.372716" lon="-1.592938"><ele>261</ele><time>2020-05-21T10:53:42Z</time><name>PT3820</name></trkpt>
<trkpt lat="53.372729" lon="-1.592948"><ele>261</ele><time>2020-05-21T10:53:44Z</time><name>PT3821</name></trkpt>
<trkpt lat="53.372740" lon="-1.592951"><ele>262</ele><time>2020-05-21T10:53:44Z</time><name>PT3822</name></trkpt>
<trkpt lat="53.372750" lon="-1.592959"><ele>262</ele><time>2020-05-21T10:53:45Z</time><name>PT3823</name></trkpt>
<trkpt lat="53.372760" lon="-1.592968"><ele>262</ele><time>2020-05-21T10:53:47Z</time><name>PT3824</name></trkpt>
<trkpt lat="53.372771" lon="-1.592977"><ele>262</ele><time>2020-05-21T10:53:47Z</time><name>PT3825</name></trkpt>
<trkpt lat="53.372783" lon="-1.592985"><ele>262</ele><time>2020-05-21T10:53:48Z</time><name>PT3826</name></trkpt>
<trkpt lat="53.372798" lon="-1.592995"><ele>262</ele><time>2020-05-21T10:53:50Z</time><name>PT3827</name></trkpt>
<trkpt lat="53.372810" lon="-1.593001"><ele>262</ele><time>2020-05-21T10:53:50Z</time><name>PT3828</name></trkpt>
<trkpt lat="53.372821" lon="-1.593005"><ele>262</ele><time>2020-05-21T10:53:51Z</time><name>PT3829</name></trkpt>
<trkpt lat="53.372831" lon="-1.593003"><ele>262</ele><time>2020-05-21T10:53:53Z</time><name>PT3830</name></trkpt>
<trkpt lat="53.372846" lon="-1.592996"><ele>262</ele><time>2020-05-21T10:53:53Z</time><name>PT3831</name></trkpt>
<trkpt lat="53.372860" lon="-1.592992"><ele>261</ele><time>2020-05-21T10:53:54Z</time><name>PT3832</name></trkpt>
<trkpt lat="53.372880" lon="-1.593003"><ele>262</ele><time>2020-05-21T10:53:56Z</time><name>PT3833</name></trkpt>
<trkpt lat="53.372899" lon="-1.592998"><ele>263</ele><time>2020-05-21T10:53:56Z</time><name>PT3834</name></trkpt>
<trkpt lat="53.372913" lon="-1.592993"><ele>265</ele><time>2020-05-21T10:53:57Z</time><name>PT3835</name></trkpt>
<trkpt lat="53.372924" lon="-1.592994"><ele>266</ele><time>2020-05-21T10:53:59Z</time><name>PT3836</name></trkpt>
<trkpt lat="53.372931" lon="-1.592994"><ele>266</ele><time>2020-05-21T10:53:59Z</time><name>PT3837</name></trkpt>
<trkpt lat="53.372946" lon="-1.592989"><ele>267</ele><time>2020-05-21T10:54:00Z</time><name>PT3838</name></trkpt>
<trkpt lat="53.372958" lon="-1.592983"><ele>266</ele><time>2020-05-21T10:54:02Z</time><name>PT3839</name></trkpt>
<trkpt lat="53.372974" lon="-1.592984"><ele>267</ele><time>2020-05-21T10:54:02Z</time><name>PT3840</name></trkpt>
<trkpt lat="53.372987" lon="-1.592984"><ele>267</ele><time>2020-05-21T10:54:03Z</time><name>PT3841</name></trkpt>
<trkpt lat="53.373001" lon="-1.592979"><ele>268</ele><time>2020-05-21T10:54:05Z</time><name>PT3842</name></trkpt>
<trkpt lat="53.373013" lon="-1.592976"><ele>268</ele><time>2020-05-21T10:54:05Z</time><name>PT3843</name></trkpt>
<trkpt lat="53.373024" lon="-1.592979"><ele>268</ele><time>2020-05-21T10:54:06Z</time><name>PT3844</name></trkpt>
<trkpt lat="53.373042" lon="-1.592996"><ele>267</ele><time>2020-05-21T10:54:08Z</time><name>PT3845</name></trkpt>
<trkpt lat="53.373065" lon="-1.592994"><ele>270</ele><time>2020-05-21T10:54:08Z</time><name>PT3846</name></trkpt>
<trkpt lat="53.373086" lon="-1.592984"><ele>270</ele><time>2020-05-21T10:54:09Z</time><name>PT3847</name></trkpt>
<trkpt lat="53.373099" lon="-1.592972"><ele>271</ele><time>2020-05-21T10:54:11Z</time><name>PT3848</name></trkpt>
<trkpt lat="53.373114" lon="-1.592973"><ele>271</ele><time>2020-05-21T10:54:11Z</time><name>PT3849</name></trkpt>
<trkpt lat="53.373128" lon="-1.592971"><ele>272</ele><time>2020-05-21T10:54:12Z</time><name>PT3850</name></trkpt>
<trkpt lat="53.373140" lon="-1.592979"><ele>273</ele><time>2020-05-21T10:54:14Z</time><name>PT3851</name></trkpt>
<trkpt lat="53.373156" lon="-1.592978"><ele>274</ele><time>2020-05-21T10:54:14Z</time><name>PT3852</name></trkpt>
<trkpt lat="53.373169" lon="-1.592981"><ele>275</ele><time>2020-05-21T10:54:15Z</time><name>PT3853</name></trkpt>
<trkpt lat="53.373182" lon="-1.592991"><ele>275</ele><time>2020-05-21T10:54:17Z</time><name>PT3854</name></trkpt>
<trkpt lat="53.373193" lon="-1.592991"><ele>275</ele><time>2020-05-21T10:54:17Z</time><name>PT3855</name></trkpt>
<trkpt lat="53.373209" lon="-1.592996"><ele>276</ele><time>2020-05-21T10:54:18Z</time><name>PT3856</name></trkpt>
<trkpt lat="53.373225" lon="-1.592989"><ele>279</ele><time>2020-05-21T10:54:20Z</time><name>PT3857</name></trkpt>
<trkpt lat="53.373236" lon="-1.592992"><ele>279</ele><time>2020-05-21T10:54:20Z</time><name>PT3858</name></trkpt>
<trkpt lat="53.373244" lon="-1.593000"><ele>278</ele><time>2020-05-21T10:54:21Z</time><name>PT3859</name></trkpt>
<trkpt lat="53.373251" lon="-1.593004"><ele>278</ele><time>2020-05-21T10:54:23Z</time><name>PT3860</name></trkpt>
<trkpt lat="53.373260" lon="-1.592992"><ele>277</ele><time>2020-05-21T10:54:23Z</time><name>PT3861</name></trkpt>
<trkpt lat="53.373266" lon="-1.592993"><ele>276</ele><time>2020-05-21T10:54:24Z</time><name>PT3862</name></trkpt>
<trkpt lat="53.373275" lon="-1.592992"><ele>276</ele><time>2020-05-21T10:54:26Z</time><name>PT3863</name></trkpt>
<trkpt lat="53.373293" lon="-1.592993"><ele>276</ele><time>2020-05-21T10:54:26Z</time><name>PT3864</name></trkpt>
<trkpt lat="53.373307" lon="-1.592985"><ele>277</ele><time>2020-05-21T10:54:27Z</time><name>PT3865</name></trkpt>
<trkpt lat="53.373317" lon="-1.592985"><ele>277</ele><time>2020-05-21T10:54:29Z</time><name>PT3866</name></trkpt>
<trkpt lat="53.373327" lon="-1.592976"><ele>277</ele><time>2020-05-21T10:54:29Z</time><name>PT3867</name></trkpt>
<trkpt lat="53.373330" lon="-1.593002"><ele>274</ele><time>2020-05-21T10:54:30Z</time><name>PT3868</name></trkpt>
<trkpt lat="53.373337" lon="-1.593008"><ele>272</ele><time>2020-05-21T10:54:32Z</time><name>PT3869</name></trkpt>
<trkpt lat="53.373353" lon="-1.593000"><ele>272</ele><time>2020-05-21T10:54:32Z</time><name>PT3870</name></trkpt>
<trkpt lat="53.373363" lon="-1.592992"><ele>272</ele><time>2020-05-21T10:54:33Z</time><name>PT3871</name></trkpt>
<trkpt lat="53.373383" lon="-1.592980"><ele>273</ele><time>2020-05-21T10:54:35Z</time><name>PT3872</name></trkpt>
<trkpt lat="53.373400" lon="-1.592974"><ele>273</ele><time>2020-05-21T10:54:35Z</time><name>PT3873</name></trkpt>
<trkpt lat="53.373413" lon="-1.592970"><ele>273</ele><time>2020-05-21T10:54:36Z</time><name>PT3874</name></trkpt>
<trkpt lat="53.373426" lon="-1.592964"><ele>274</ele><time>2020-05-21T10:54:38Z</time><name>PT3875</name></trkpt>
<trkpt lat="53.373438" lon="-1.592966"><ele>274</ele><time>2020-05-21T10:54:38Z</time><name>PT3876</name></trkpt>
<trkpt lat="53.373455" lon="-1.592970"><ele>274</ele><time>2020-05-21T10:54:39Z</time><name>PT3877</name></trkpt>
<trkpt lat="53.373470" lon="-1.592968"><ele>274</ele><time>2020-05-21T10:54:41Z</time><name>PT3878</name></trkpt>
<trkpt lat="53.373487" lon="-1.592960"><ele>274</ele><time>2020-05-21T10:54:41Z</time><name>PT3879</name></trkpt>
<trkpt lat="53.373506" lon="-1.592953"><ele>273</ele><time>2020-05-21T10:54:42Z</time><name>PT3880</name></trkpt>
<trkpt lat="53.373526" lon="-1.592942"><ele>274</ele><time>2020-05-21T10:54:44Z</time><name>PT3881</name></trkpt>
<trkpt lat="53.373537" lon="-1.592943"><ele>273</ele><time>2020-05-21T10:54:44Z</time><name>PT3882</name></trkpt>
<trkpt lat="53.373546" lon="-1.592942"><ele>273</ele><time>2020-05-21T10:54:45Z</time><name>PT3883</name></trkpt>
<trkpt lat="53.373556" lon="-1.592942"><ele>271</ele><time>2020-05-21T10:54:47Z</time><name>PT3884</name></trkpt>
<trkpt lat="53.373569" lon="-1.592941"><ele>269</ele><time>2020-05-21T10:54:47Z</time><name>PT3885</name></trkpt>
<trkpt lat="53.373581" lon="-1.592941"><ele>269</ele><time>2020-05-21T10:54:48Z</time><name>PT3886</name></trkpt>
<trkpt lat="53.373596" lon="-1.592944"><ele>267</ele><time>2020-05-21T10:54:50Z</time><name>PT3887</name></trkpt>
<trkpt lat="53.373623" lon="-1.592935"><ele>268</ele><time>2020-05-21T10:54:50Z</time><name>PT3888</name></trkpt>
<trkpt lat="53.373635" lon="-1.592933"><ele>268</ele><time>2020-05-21T10:54:51Z</time><name>PT3889</name></trkpt>
<trkpt lat="53.373644" lon="-1.592939"><ele>267</ele><time>2020-05-21T10:54:53Z</time><name>PT3890</name></trkpt>
<trkpt lat="53.373661" lon="-1.592950"><ele>265</ele><time>2020-05-21T10:54:53Z</time><name>PT3891</name></trkpt>
<trkpt lat="53.373679" lon="-1.592955"><ele>263</ele><time>2020-05-21T10:54:54Z</time><name>PT3892</name></trkpt>
<trkpt lat="53.373698" lon="-1.592960"><ele>261</ele><time>2020-05-21T10:54:56Z</time><name>PT3893</name></trkpt>
<trkpt lat="53.373709" lon="-1.592957"><ele>261</ele><time>2020-05-21T10:54:56Z</time><name>PT3894</name></trkpt>
<trkpt lat="53.373723" lon="-1.592950"><ele>261</ele><time>2020-05-21T10:54:57Z</time><name>PT3895</name></trkpt>
<trkpt lat="53.373741" lon="-1.592948"><ele>261</ele><time>2020-05-21T10:54:59Z</time><name>PT3896</name></trkpt>
<trkpt lat="53.373756" lon="-1.592945"><ele>261</ele><time>2020-05-21T10:54:59Z</time><name>PT3897</name></trkpt>
<trkpt lat="53.373765" lon="-1.592946"><ele>261</ele><time>2020-05-21T10:55:00Z</time><name>PT3898</name></trkpt>
<trkpt lat="53.373781" lon="-1.592940"><ele>261</ele><time>2020-05-21T10:55:02Z</time><name>PT3899</name></trkpt>
<trkpt lat="53.373794" lon="-1.592951"><ele>260</ele><time>2020-05-21T10:55:02Z</time><name>PT3900</name></trkpt>
<trkpt lat="53.373808" lon="-1.592957"><ele>260</ele><time>2020-05-21T10:55:03Z</time><name>PT3901</name></trkpt>
<trkpt lat="53.373824" lon="-1.592953"><ele>260</ele><time>2020-05-21T10:55:05Z</time><name>PT3902</name></trkpt>
<trkpt lat="53.373839" lon="-1.592943"><ele>260</ele><time>2020-05-21T10:55:05Z</time><name>PT3903</name></trkpt>
<trkpt lat="53.373851" lon="-1.592948"><ele>261</ele><time>2020-05-21T10:55:06Z</time><name>PT3904</name></trkpt>
<trkpt lat="53.373859" lon="-1.592955"><ele>261</ele><time>2020-05-21T10:55:08Z</time><name>PT3905</name></trkpt>
<trkpt lat="53.373865" lon="-1.592947"><ele>261</ele><time>2020-05-21T10:55:08Z</time><name>PT3906</name></trkpt>
<trkpt lat="53.373881" lon="-1.592947"><ele>262</ele><time>2020-05-21T10:55:09Z</time><name>PT3907</name></trkpt>
<trkpt lat="53.373899" lon="-1.592942"><ele>262</ele><time>2020-05-21T10:55:11Z</time><name>PT3908</name></trkpt>
<trkpt lat="53.373915" lon="-1.592942"><ele>262</ele><time>2020-05-21T10:55:11Z</time><name>PT3909</name></trkpt>
<trkpt lat="53.373934" lon="-1.592937"><ele>263</ele><time>2020-05-21T10:55:12Z</time><name>PT3910</name></trkpt>
<trkpt lat="53.373948" lon="-1.592935"><ele>263</ele><time>2020-05-21T10:55:14Z</time><name>PT3911</name></trkpt>
<trkpt lat="53.373966" lon="-1.592932"><ele>264</ele><time>2020-05-21T10:55:14Z</time><name>PT3912</name></trkpt>
<trkpt lat="53.373976" lon="-1.592932"><ele>266</ele><time>2020-05-21T10:55:15Z</time><name>PT3913</name></trkpt>
<trkpt lat="53.373994" lon="-1.592957"><ele>267</ele><time>2020-05-21T10:55:17Z</time><name>PT3914</name></trkpt>
<trkpt lat="53.374013" lon="-1.592963"><ele>270</ele><time>2020-05-21T10:55:17Z</time><name>PT3915</name></trkpt>
<trkpt lat="53.374023" lon="-1.592964"><ele>270</ele><time>2020-05-21T10:55:18Z</time><name>PT3916</name></trkpt>
<trkpt lat="53.374039" lon="-1.592957"><ele>271</ele><time>2020-05-21T10:55:20Z</time><name>PT3917</name></trkpt>
<trkpt lat="53.374051" lon="-1.592952"><ele>271</ele><time>2020-05-21T10:55:20Z</time><name>PT3918</name></trkpt>
<trkpt lat="53.374061" lon="-1.592953"><ele>271</ele><time>2020-05-21T10:55:21Z</time><name>PT3919</name></trkpt>
<trkpt lat="53.374076" lon="-1.592957"><ele>270</ele><time>2020-05-21T10:55:23Z</time><name>PT3920</name></trkpt>
<trkpt lat="53.374089" lon="-1.592959"><ele>270</ele><time>2020-05-21T10:55:23Z</time><name>PT3921</name></trkpt>
<trkpt lat="53.374104" lon="-1.592962"><ele>270</ele><time>2020-05-21T10:55:24Z</time><name>PT3922</name></trkpt>
<trkpt lat="53.374120" lon="-1.592956"><ele>270</ele><time>2020-05-21T10:55:26Z</time><name>PT3923</name></trkpt>
<trkpt lat="53.374135" lon="-1.592949"><ele>270</ele><time>2020-05-21T10:55:26Z</time><name>PT3924</name></trkpt>
<trkpt lat="53.374147" lon="-1.592944"><ele>270</ele><time>2020-05-21T10:55:27Z</time><name>PT3925</name></trkpt>
<trkpt lat="53.374158" lon="-1.592937"><ele>271</ele><time>2020-05-21T10:55:29Z</time><name>PT3926</name></trkpt>
<trkpt lat="53.374172" lon="-1.592940"><ele>270</ele><time>2020-05-21T10:55:29Z</time><name>PT3927</name></trkpt>
<trkpt lat="53.374182" lon="-1.592942"><ele>270</ele><time>2020-05-21T10:55:30Z</time><name>PT3928</name></trkpt>
<trkpt lat="53.374193" lon="-1.592948"><ele>268</ele><time>2020-05-21T10:55:32Z</time><name>PT3929</name></trkpt>
<trkpt lat="53.374203" lon="-1.592950"><ele>269</ele><time>2020-05-21T10:55:32Z</time><name>PT3930</name></trkpt>
<trkpt lat="53.374215" lon="-1.592950"><ele>268</ele><time>2020-05-21T10:55:33Z</time><name>PT3931</name></trkpt>
<trkpt lat="53.374224" lon="-1.592948"><ele>266</ele><time>2020-05-21T10:55:35Z</time><name>PT3932</name></trkpt>
<trkpt lat="53.374235" lon="-1.592949"><ele>265</ele><time>2020-05-21T10:55:35Z</time><name>PT3933</name></trkpt>
<trkpt lat="53.374247" lon="-1.592947"><ele>265</ele><time>2020-05-21T10:55:36Z</time><name>PT3934</name></trkpt>
<trkpt lat="53.374263" lon="-1.592945"><ele>265</ele><time>2020-05-21T10:55:38Z</time><name>PT3935</name></trkpt>
<trkpt lat="53.374280" lon="-1.592938"><ele>265</ele><time>2020-05-21T10:55:38Z</time><name>PT3936</name></trkpt>
<trkpt lat="53.374296" lon="-1.592937"><ele>264</ele><time>2020-05-21T10:55:39Z</time><name>PT3937</name></trkpt>
<trkpt lat="53.374312" lon="-1.592939"><ele>264</ele><time>2020-05-21T10:55:41Z</time><name>PT3938</name></trkpt>
<trkpt lat="53.374322" lon="-1.592943"><ele>263</ele><time>2020-05-21T10:55:41Z</time><name>PT3939</name></trkpt>
<trkpt lat="53.374331" lon="-1.592939"><ele>263</ele><time>2020-05-21T10:55:42Z</time><name>PT3940</name></trkpt>
<trkpt lat="53.374349" lon="-1.592938"><ele>264</ele><time>2020-05-21T10:55:44Z</time><name>PT3941</name></trkpt>
<trkpt lat="53.374367" lon="-1.592938"><ele>264</ele><time>2020-05-21T10:55:44Z</time><name>PT3942</name></trkpt>
<trkpt lat="53.374381" lon="-1.592940"><ele>264</ele><time>2020-05-21T10:55:45Z</time><name>PT3943</name></trkpt>
<trkpt lat="53.374397" lon="-1.592948"><ele>263</ele><time>2020-05-21T10:55:47Z</time><name>PT3944</name></trkpt>
<trkpt lat="53.374409" lon="-1.592957"><ele>263</ele><time>2020-05-21T10:55:47Z</time><name>PT3945</name></trkpt>
<trkpt lat="53.374425" lon="-1.592964"><ele>263</ele><time>2020-05-21T10:55:48Z</time><name>PT3946</name></trkpt>
<trkpt lat="53.374440" lon="-1.592969"><ele>262</ele><time>2020-05-21T10:55:50Z</time><name>PT3947</name></trkpt>
<trkpt lat="53.374455" lon="-1.592972"><ele>261</ele><time>2020-05-21T10:55:50Z</time><name>PT3948</name></trkpt>
<trkpt lat="53.374470" lon="-1.592972"><ele>261</ele><time>2020-05-21T10:55:51Z</time><name>PT3949</name></trkpt>
<trkpt lat="53.374482" lon="-1.592979"><ele>261</ele><time>2020-05-21T10:55:53Z</time><name>PT3950</name></trkpt>
<trkpt lat="53.374495" lon="-1.592988"><ele>260</ele><time>2020-05-21T10:55:53Z</time><name>PT3951</name></trkpt>
<trkpt lat="53.374506" lon="-1.592996"><ele>260</ele><time>2020-05-21T10:55:54Z</time><name>PT3952</name></trkpt>
<trkpt lat="53.374519" lon="-1.593003"><ele>260</ele><time>2020-05-21T10:55:56Z</time><name>PT3953</name></trkpt>
<trkpt lat="53.374531" lon="-1.593013"><ele>259</ele><time>2020-05-21T10:55:56Z</time><name>PT3954</name></trkpt>
<trkpt lat="53.374543" lon="-1.593029"><ele>259</ele><time>2020-05-21T10:55:57Z</time><name>PT3955</name></trkpt>
<trkpt lat="53.374552" lon="-1.593040"><ele>259</ele><time>2020-05-21T10:55:59Z</time><name>PT3956</name></trkpt>
<trkpt lat="53.374563" lon="-1.593046"><ele>259</ele><time>2020-05-21T10:55:59Z</time><name>PT3957</name></trkpt>
<trkpt lat="53.374575" lon="-1.593053"><ele>258</ele><time>2020-05-21T10:56:00Z</time><name>PT3958</name></trkpt>
<trkpt lat="53.374596" lon="-1.593055"><ele>259</ele><time>2020-05-21T10:56:02Z</time><name>PT3959</name></trkpt>
<trkpt lat="53.374609" lon="-1.593062"><ele>259</ele><time>2020-05-21T10:56:02Z</time><name>PT3960</name></trkpt>
<trkpt lat="53.374622" lon="-1.593062"><ele>260</ele><time>2020-05-21T10:56:03Z</time><name>PT3961</name></trkpt>
<trkpt lat="53.374633" lon="-1.593064"><ele>260</ele><time>2020-05-21T10:56:05Z</time><name>PT3962</name></trkpt>
<trkpt lat="53.374646" lon="-1.593063"><ele>260</ele><time>2020-05-21T10:56:05Z</time><name>PT3963</name></trkpt>
<trkpt lat="53.374660" lon="-1.593060"><ele>261</ele><time>2020-05-21T10:56:06Z</time><name>PT3964</name></trkpt>
<trkpt lat="53.374675" lon="-1.593062"><ele>261</ele><time>2020-05-21T10:56:08Z</time><name>PT3965</name></trkpt>
<trkpt lat="53.374688" lon="-1.593068"><ele>260</ele><time>2020-05-21T10:56:08Z</time><name>PT3966</name></trkpt>
<trkpt lat="53.374702" lon="-1.593072"><ele>260</ele><time>2020-05-21T10:56:09Z</time><name>PT3967</name></trkpt>
<trkpt lat="53.374716" lon="-1.593075"><ele>260</ele><time>2020-05-21T10:56:11Z</time><name>PT3968</name></trkpt>
<trkpt lat="53.374728" lon="-1.593080"><ele>260</ele><time>2020-05-21T10:56:11Z</time><name>PT3969</name></trkpt>
<trkpt lat="53.374740" lon="-1.593083"><ele>259</ele><time>2020-05-21T10:56:12Z</time><name>PT3970</name></trkpt>
<trkpt lat="53.374753" lon="-1.593084"><ele>258</ele><time>2020-05-21T10:56:14Z</time><name>PT3971</name></trkpt>
<trkpt lat="53.374768" lon="-1.593086"><ele>259</ele><time>2020-05-21T10:56:14Z</time><name>PT3972</name></trkpt>
<trkpt lat="53.374782" lon="-1.593090"><ele>258</ele><time>2020-05-21T10:56:15Z</time><name>PT3973</name></trkpt>
<trkpt lat="53.374794" lon="-1.593095"><ele>258</ele><time>2020-05-21T10:56:17Z</time><name>PT3974</name></trkpt>
<trkpt lat="53.374806" lon="-1.593102"><ele>258</ele><time>2020-05-21T10:56:17Z</time><name>PT3975</name></trkpt>
<trkpt lat="53.374818" lon="-1.593103"><ele>259</ele><time>2020-05-21T10:56:18Z</time><name>PT3976</name></trkpt>
<trkpt lat="53.374833" lon="-1.593100"><ele>259</ele><time>2020-05-21T10:56:20Z</time><name>PT3977</name></trkpt>
<trkpt lat="53.374841" lon="-1.593098"><ele>258</ele><time>2020-05-21T10:56:20Z</time><name>PT3978</name></trkpt>
<trkpt lat="53.374849" lon="-1.593089"><ele>258</ele><time>2020-05-21T10:56:21Z</time><name>PT3979</name></trkpt>
<trkpt lat="53.374862" lon="-1.593080"><ele>258</ele><time>2020-05-21T10:56:23Z</time><name>PT3980</name></trkpt>
<trkpt lat="53.374875" lon="-1.593087"><ele>258</ele><time>2020-05-21T10:56:23Z</time><name>PT3981</name></trkpt>
<trkpt lat="53.374885" lon="-1.593083"><ele>258</ele><time>2020-05-21T10:56:24Z</time><name>PT3982</name></trkpt>
<trkpt lat="53.374893" lon="-1.593081"><ele>257</ele><time>2020-05-21T10:56:26Z</time><name>PT3983</name></trkpt>
<trkpt lat="53.374905" lon="-1.593076"><ele>257</ele><time>2020-05-21T10:56:26Z</time><name>PT3984</name></trkpt>
<trkpt lat="53.374917" lon="-1.593065"><ele>257</ele><time>2020-05-21T10:56:27Z</time><name>PT3985</name></trkpt>
<trkpt lat="53.374930" lon="-1.593051"><ele>257</ele><time>2020-05-21T10:56:29Z</time><name>PT3986</name></trkpt>
<trkpt lat="53.374945" lon="-1.593041"><ele>257</ele><time>2020-05-21T10:56:29Z</time><name>PT3987</name></trkpt>
<trkpt lat="53.374958" lon="-1.593034"><ele>257</ele><time>2020-05-21T10:56:30Z</time><name>PT3988</name></trkpt>
<trkpt lat="53.374967" lon="-1.593031"><ele>256</ele><time>2020-05-21T10:56:32Z</time><name>PT3989</name></trkpt>
<trkpt lat="53.374975" lon="-1.593030"><ele>256</ele><time>2020-05-21T10:56:32Z</time><name>PT3990</name></trkpt>
<trkpt lat="53.374982" lon="-1.593033"><ele>255</ele><time>2020-05-21T10:56:33Z</time><name>PT3991</name></trkpt>
<trkpt lat="53.374995" lon="-1.593016"><ele>255</ele><time>2020-05-21T10:56:35Z</time><name>PT3992</name></trkpt>
<trkpt lat="53.375013" lon="-1.593002"><ele>255</ele><time>2020-05-21T10:56:35Z</time><name>PT3993</name></trkpt>
<trkpt lat="53.375026" lon="-1.592982"><ele>255</ele><time>2020-05-21T10:56:36Z</time><name>PT3994</name></trkpt>
<trkpt lat="53.375036" lon="-1.592964"><ele>255</ele><time>2020-05-21T10:56:38Z</time><name>PT3995</name></trkpt>
<trkpt lat="53.375046" lon="-1.592952"><ele>255</ele><time>2020-05-21T10:56:38Z</time><name>PT3996</name></trkpt>
<trkpt lat="53.375055" lon="-1.592943"><ele>255</ele><time>2020-05-21T10:56:40Z</time><name>PT3997</name></trkpt>
<trkpt lat="53.375059" lon="-1.592920"><ele>256</ele><time>2020-05-21T10:56:41Z</time><name>PT3998</name></trkpt>
<trkpt lat="53.375068" lon="-1.592907"><ele>255</ele><time>2020-05-21T10:56:41Z</time><name>PT3999</name></trkpt>
<trkpt lat="53.375076" lon="-1.592888"><ele>255</ele><time>2020-05-21T10:56:42Z</time><name>PT4000</name></trkpt>
<trkpt lat="53.375090" lon="-1.592887"><ele>255</ele><time>2020-05-21T10:56:44Z</time><name>PT4001</name></trkpt>
<trkpt lat="53.375108" lon="-1.592867"><ele>255</ele><time>2020-05-21T10:56:44Z</time><name>PT4002</name></trkpt>
<trkpt lat="53.375119" lon="-1.592850"><ele>255</ele><time>2020-05-21T10:56:45Z</time><name>PT4003</name></trkpt>
<trkpt lat="53.375134" lon="-1.592838"><ele>257</ele><time>2020-05-21T10:56:47Z</time><name>PT4004</name></trkpt>
<trkpt lat="53.375137" lon="-1.592816"><ele>259</ele><time>2020-05-21T10:56:47Z</time><name>PT4005</name></trkpt>
<trkpt lat="53.375138" lon="-1.592809"><ele>258</ele><time>2020-05-21T10:56:48Z</time><name>PT4006</name></trkpt>
<trkpt lat="53.375145" lon="-1.592794"><ele>258</ele><time>2020-05-21T10:56:50Z</time><name>PT4007</name></trkpt>
<trkpt lat="53.375162" lon="-1.592790"><ele>258</ele><time>2020-05-21T10:56:50Z</time><name>PT4008</name></trkpt>
<trkpt lat="53.375178" lon="-1.592783"><ele>258</ele><time>2020-05-21T10:56:51Z</time><name>PT4009</name></trkpt>
<trkpt lat="53.375191" lon="-1.592772"><ele>257</ele><time>2020-05-21T10:56:53Z</time><name>PT4010</name></trkpt>
<trkpt lat="53.375199" lon="-1.592765"><ele>257</ele><time>2020-05-21T10:56:53Z</time><name>PT4011</name></trkpt>
<trkpt lat="53.375205" lon="-1.592764"><ele>256</ele><time>2020-05-21T10:56:55Z</time><name>PT4012</name></trkpt>
<trkpt lat="53.375213" lon="-1.592755"><ele>255</ele><time>2020-05-21T10:56:56Z</time><name>PT4013</name></trkpt>
<trkpt lat="53.375219" lon="-1.592749"><ele>255</ele><time>2020-05-21T10:56:56Z</time><name>PT4014</name></trkpt>
<trkpt lat="53.375236" lon="-1.592736"><ele>255</ele><time>2020-05-21T10:56:57Z</time><name>PT4015</name></trkpt>
<trkpt lat="53.375251" lon="-1.592726"><ele>256</ele><time>2020-05-21T10:56:59Z</time><name>PT4016</name></trkpt>
<trkpt lat="53.375264" lon="-1.592714"><ele>256</ele><time>2020-05-21T10:56:59Z</time><name>PT4017</name></trkpt>
<trkpt lat="53.375274" lon="-1.592711"><ele>255</ele><time>2020-05-21T10:57:00Z</time><name>PT4018</name></trkpt>
<trkpt lat="53.375283" lon="-1.592705"><ele>255</ele><time>2020-05-21T10:57:02Z</time><name>PT4019</name></trkpt>
<trkpt lat="53.375293" lon="-1.592706"><ele>255</ele><time>2020-05-21T10:57:02Z</time><name>PT4020</name></trkpt>
<trkpt lat="53.375306" lon="-1.592706"><ele>255</ele><time>2020-05-21T10:57:03Z</time><name>PT4021</name></trkpt>
<trkpt lat="53.375325" lon="-1.592697"><ele>256</ele><time>2020-05-21T10:57:05Z</time><name>PT4022</name></trkpt>
<trkpt lat="53.375340" lon="-1.592691"><ele>257</ele><time>2020-05-21T10:57:05Z</time><name>PT4023</name></trkpt>
<trkpt lat="53.375351" lon="-1.592679"><ele>257</ele><time>2020-05-21T10:57:06Z</time><name>PT4024</name></trkpt>
<trkpt lat="53.375361" lon="-1.592668"><ele>258</ele><time>2020-05-21T10:57:08Z</time><name>PT4025</name></trkpt>
<trkpt lat="53.375372" lon="-1.592676"><ele>258</ele><time>2020-05-21T10:57:08Z</time><name>PT4026</name></trkpt>
<trkpt lat="53.375382" lon="-1.592688"><ele>258</ele><time>2020-05-21T10:57:09Z</time><name>PT4027</name></trkpt>
<trkpt lat="53.375396" lon="-1.592694"><ele>259</ele><time>2020-05-21T10:57:11Z</time><name>PT4028</name></trkpt>
<trkpt lat="53.375409" lon="-1.592691"><ele>259</ele><time>2020-05-21T10:57:11Z</time><name>PT4029</name></trkpt>
<trkpt lat="53.375419" lon="-1.592698"><ele>258</ele><time>2020-05-21T10:57:12Z</time><name>PT4030</name></trkpt>
<trkpt lat="53.375431" lon="-1.592705"><ele>258</ele><time>2020-05-21T10:57:14Z</time><name>PT4031</name></trkpt>
<trkpt lat="53.375436" lon="-1.592699"><ele>258</ele><time>2020-05-21T10:57:14Z</time><name>PT4032</name></trkpt>
<trkpt lat="53.375445" lon="-1.592700"><ele>258</ele><time>2020-05-21T10:57:15Z</time><name>PT4033</name></trkpt>
<trkpt lat="53.375458" lon="-1.592698"><ele>259</ele><time>2020-05-21T10:57:17Z</time><name>PT4034</name></trkpt>
<trkpt lat="53.375467" lon="-1.592700"><ele>258</ele><time>2020-05-21T10:57:17Z</time><name>PT4035</name></trkpt>
<trkpt lat="53.375509" lon="-1.592748"><ele>256</ele><time>2020-05-21T10:57:18Z</time><name>PT4036</name></trkpt>
<trkpt lat="53.375537" lon="-1.592773"><ele>257</ele><time>2020-05-21T10:57:20Z</time><name>PT4037</name></trkpt>
<trkpt lat="53.375550" lon="-1.592780"><ele>257</ele><time>2020-05-21T10:57:20Z</time><name>PT4038</name></trkpt>
<trkpt lat="53.375567" lon="-1.592787"><ele>256</ele><time>2020-05-21T10:57:21Z</time><name>PT4039</name></trkpt>
<trkpt lat="53.375580" lon="-1.592797"><ele>255</ele><time>2020-05-21T10:57:23Z</time><name>PT4040</name></trkpt>
<trkpt lat="53.375591" lon="-1.592810"><ele>256</ele><time>2020-05-21T10:57:23Z</time><name>PT4041</name></trkpt>
<trkpt lat="53.375605" lon="-1.592841"><ele>256</ele><time>2020-05-21T10:57:24Z</time><name>PT4042</name></trkpt>
<trkpt lat="53.375620" lon="-1.592855"><ele>258</ele><time>2020-05-21T10:57:26Z</time><name>PT4043</name></trkpt>
<trkpt lat="53.375633" lon="-1.592865"><ele>259</ele><time>2020-05-21T10:57:26Z</time><name>PT4044</name></trkpt>
<trkpt lat="53.375645" lon="-1.592868"><ele>259</ele><time>2020-05-21T10:57:27Z</time><name>PT4045</name></trkpt>
<trkpt lat="53.375658" lon="-1.592878"><ele>259</ele><time>2020-05-21T10:57:29Z</time><name>PT4046</name></trkpt>
<trkpt lat="53.375671" lon="-1.592882"><ele>259</ele><time>2020-05-21T10:57:29Z</time><name>PT4047</name></trkpt>
<trkpt lat="53.375683" lon="-1.592891"><ele>258</ele><time>2020-05-21T10:57:30Z</time><name>PT4048</name></trkpt>
<trkpt lat="53.375695" lon="-1.592900"><ele>258</ele><time>2020-05-21T10:57:32Z</time><name>PT4049</name></trkpt>
<trkpt lat="53.375708" lon="-1.592912"><ele>258</ele><time>2020-05-21T10:57:32Z</time><name>PT4050</name></trkpt>
<trkpt lat="53.375716" lon="-1.592922"><ele>258</ele><time>2020-05-21T10:57:33Z</time><name>PT4051</name></trkpt>
<trkpt lat="53.375727" lon="-1.592930"><ele>258</ele><time>2020-05-21T10:57:35Z</time><name>PT4052</name></trkpt>
<trkpt lat="53.375738" lon="-1.592938"><ele>257</ele><time>2020-05-21T10:57:35Z</time><name>PT4053</name></trkpt>
<trkpt lat="53.375746" lon="-1.592945"><ele>258</ele><time>2020-05-21T10:57:36Z</time><name>PT4054</name></trkpt>
<trkpt lat="53.375756" lon="-1.592954"><ele>258</ele><time>2020-05-21T10:57:38Z</time><name>PT4055</name></trkpt>
<trkpt lat="53.375759" lon="-1.592957"><ele>258</ele><time>2020-05-21T10:57:38Z</time><name>PT4056</name></trkpt>
<trkpt lat="53.375766" lon="-1.592955"><ele>260</ele><time>2020-05-21T10:57:39Z</time><name>PT4057</name></trkpt>
<trkpt lat="53.375767" lon="-1.592955"><ele>261</ele><time>2020-05-21T10:57:41Z</time><name>PT4058</name></trkpt>
<trkpt lat="53.375771" lon="-1.592959"><ele>261</ele><time>2020-05-21T10:57:44Z</time><name>PT4059</name></trkpt>
<trkpt lat="53.375782" lon="-1.592978"><ele>261</ele><time>2020-05-21T10:57:44Z</time><name>PT4060</name></trkpt>
<trkpt lat="53.375793" lon="-1.592994"><ele>261</ele><time>2020-05-21T10:57:45Z</time><name>PT4061</name></trkpt>
<trkpt lat="53.375802" lon="-1.593011"><ele>260</ele><time>2020-05-21T10:57:47Z</time><name>PT4062</name></trkpt>
<trkpt lat="53.375810" lon="-1.593027"><ele>260</ele><time>2020-05-21T10:57:47Z</time><name>PT4063</name></trkpt>
<trkpt lat="53.375827" lon="-1.593042"><ele>260</ele><time>2020-05-21T10:57:48Z</time><name>PT4064</name></trkpt>
<trkpt lat="53.375847" lon="-1.593059"><ele>259</ele><time>2020-05-21T10:57:50Z</time><name>PT4065</name></trkpt>
<trkpt lat="53.375856" lon="-1.593073"><ele>259</ele><time>2020-05-21T10:57:50Z</time><name>PT4066</name></trkpt>
<trkpt lat="53.375865" lon="-1.593084"><ele>258</ele><time>2020-05-21T10:57:51Z</time><name>PT4067</name></trkpt>
<trkpt lat="53.375877" lon="-1.593098"><ele>259</ele><time>2020-05-21T10:57:53Z</time><name>PT4068</name></trkpt>
<trkpt lat="53.375889" lon="-1.593112"><ele>259</ele><time>2020-05-21T10:57:53Z</time><name>PT4069</name></trkpt>
<trkpt lat="53.375901" lon="-1.593123"><ele>259</ele><time>2020-05-21T10:57:54Z</time><name>PT4070</name></trkpt>
<trkpt lat="53.375908" lon="-1.593137"><ele>258</ele><time>2020-05-21T10:57:56Z</time><name>PT4071</name></trkpt>
<trkpt lat="53.375916" lon="-1.593157"><ele>258</ele><time>2020-05-21T10:57:56Z</time><name>PT4072</name></trkpt>
<trkpt lat="53.375921" lon="-1.593175"><ele>258</ele><time>2020-05-21T10:57:57Z</time><name>PT4073</name></trkpt>
<trkpt lat="53.375929" lon="-1.593188"><ele>258</ele><time>2020-05-21T10:57:59Z</time><name>PT4074</name></trkpt>
<trkpt lat="53.375940" lon="-1.593202"><ele>258</ele><time>2020-05-21T10:57:59Z</time><name>PT4075</name></trkpt>
<trkpt lat="53.375946" lon="-1.593221"><ele>258</ele><time>2020-05-21T10:58:00Z</time><name>PT4076</name></trkpt>
<trkpt lat="53.375952" lon="-1.593237"><ele>257</ele><time>2020-05-21T10:58:02Z</time><name>PT4077</name></trkpt>
<trkpt lat="53.375958" lon="-1.593254"><ele>258</ele><time>2020-05-21T10:58:02Z</time><name>PT4078</name></trkpt>
<trkpt lat="53.375962" lon="-1.593276"><ele>257</ele><time>2020-05-21T10:58:03Z</time><name>PT4079</name></trkpt>
<trkpt lat="53.375971" lon="-1.593288"><ele>257</ele><time>2020-05-21T10:58:05Z</time><name>PT4080</name></trkpt>
<trkpt lat="53.375982" lon="-1.593305"><ele>257</ele><time>2020-05-21T10:58:05Z</time><name>PT4081</name></trkpt>
<trkpt lat="53.375987" lon="-1.593326"><ele>257</ele><time>2020-05-21T10:58:06Z</time><name>PT4082</name></trkpt>
<trkpt lat="53.375993" lon="-1.593341"><ele>257</ele><time>2020-05-21T10:58:08Z</time><name>PT4083</name></trkpt>
<trkpt lat="53.375997" lon="-1.593352"><ele>257</ele><time>2020-05-21T10:58:08Z</time><name>PT4084</name></trkpt>
<trkpt lat="53.375999" lon="-1.593358"><ele>257</ele><time>2020-05-21T10:58:09Z</time><name>PT4085</name></trkpt>
<trkpt lat="53.376000" lon="-1.593359"><ele>257</ele><time>2020-05-21T10:58:11Z</time><name>PT4086</name></trkpt>
<trkpt lat="53.376002" lon="-1.593369"><ele>257</ele><time>2020-05-21T10:58:11Z</time><name>PT4087</name></trkpt>
<trkpt lat="53.376006" lon="-1.593379"><ele>257</ele><time>2020-05-21T10:58:12Z</time><name>PT4088</name></trkpt>
<trkpt lat="53.376008" lon="-1.593384"><ele>258</ele><time>2020-05-21T10:58:14Z</time><name>PT4089</name></trkpt>
<trkpt lat="53.376009" lon="-1.593386"><ele>258</ele><time>2020-05-21T10:58:14Z</time><name>PT4090</name></trkpt>
<trkpt lat="53.376008" lon="-1.593390"><ele>258</ele><time>2020-05-21T10:58:15Z</time><name>PT4091</name></trkpt>
<trkpt lat="53.376012" lon="-1.593395"><ele>259</ele><time>2020-05-21T10:58:27Z</time><name>PT4092</name></trkpt>
<trkpt lat="53.376011" lon="-1.593395"><ele>259</ele><time>2020-05-21T10:58:29Z</time><name>PT4093</name></trkpt>
<trkpt lat="53.376010" lon="-1.593392"><ele>259</ele><time>2020-05-21T10:58:29Z</time><name>PT4094</name></trkpt>
<trkpt lat="53.376009" lon="-1.593393"><ele>259</ele><time>2020-05-21T10:58:30Z</time><name>PT4095</name></trkpt>
<trkpt lat="53.376009" lon="-1.593398"><ele>259</ele><time>2020-05-21T10:58:35Z</time><name>PT4096</name></trkpt>
<trkpt lat="53.376018" lon="-1.593418"><ele>260</ele><time>2020-05-21T10:58:35Z</time><name>PT4097</name></trkpt>
<trkpt lat="53.376020" lon="-1.593436"><ele>260</ele><time>2020-05-21T10:58:36Z</time><name>PT4098</name></trkpt>
<trkpt lat="53.376020" lon="-1.593459"><ele>260</ele><time>2020-05-21T10:58:38Z</time><name>PT4099</name></trkpt>
<trkpt lat="53.376020" lon="-1.593483"><ele>259</ele><time>2020-05-21T10:58:38Z</time><name>PT4100</name></trkpt>
<trkpt lat="53.376019" lon="-1.593494"><ele>258</ele><time>2020-05-21T10:58:39Z</time><name>PT4101</name></trkpt>
<trkpt lat="53.376023" lon="-1.593511"><ele>258</ele><time>2020-05-21T10:58:41Z</time><name>PT4102</name></trkpt>
<trkpt lat="53.376022" lon="-1.593530"><ele>258</ele><time>2020-05-21T10:58:41Z</time><name>PT4103</name></trkpt>
<trkpt lat="53.376020" lon="-1.593565"><ele>259</ele><time>2020-05-21T10:58:42Z</time><name>PT4104</name></trkpt>
<trkpt lat="53.376024" lon="-1.593584"><ele>259</ele><time>2020-05-21T10:58:44Z</time><name>PT4105</name></trkpt>
<trkpt lat="53.376024" lon="-1.593605"><ele>259</ele><time>2020-05-21T10:58:44Z</time><name>PT4106</name></trkpt>
<trkpt lat="53.376022" lon="-1.593619"><ele>259</ele><time>2020-05-21T10:58:45Z</time><name>PT4107</name></trkpt>
<trkpt lat="53.376017" lon="-1.593640"><ele>259</ele><time>2020-05-21T10:58:47Z</time><name>PT4108</name></trkpt>
<trkpt lat="53.376011" lon="-1.593665"><ele>259</ele><time>2020-05-21T10:58:47Z</time><name>PT4109</name></trkpt>
<trkpt lat="53.376007" lon="-1.593683"><ele>259</ele><time>2020-05-21T10:58:48Z</time><name>PT4110</name></trkpt>
<trkpt lat="53.376000" lon="-1.593702"><ele>259</ele><time>2020-05-21T10:58:50Z</time><name>PT4111</name></trkpt>
<trkpt lat="53.375989" lon="-1.593721"><ele>258</ele><time>2020-05-21T10:58:50Z</time><name>PT4112</name></trkpt>
<trkpt lat="53.375984" lon="-1.593736"><ele>258</ele><time>2020-05-21T10:58:51Z</time><name>PT4113</name></trkpt>
<trkpt lat="53.375979" lon="-1.593752"><ele>258</ele><time>2020-05-21T10:58:53Z</time><name>PT4114</name></trkpt>
<trkpt lat="53.375973" lon="-1.593773"><ele>257</ele><time>2020-05-21T10:58:53Z</time><name>PT4115</name></trkpt>
<trkpt lat="53.375966" lon="-1.593796"><ele>258</ele><time>2020-05-21T10:58:54Z</time><name>PT4116</name></trkpt>
<trkpt lat="53.375958" lon="-1.593816"><ele>258</ele><time>2020-05-21T10:58:56Z</time><name>PT4117</name></trkpt>
<trkpt lat="53.375955" lon="-1.593837"><ele>257</ele><time>2020-05-21T10:58:56Z</time><name>PT4118</name></trkpt>
<trkpt lat="53.375949" lon="-1.593855"><ele>257</ele><time>2020-05-21T10:58:57Z</time><name>PT4119</name></trkpt>
<trkpt lat="53.375943" lon="-1.593874"><ele>257</ele><time>2020-05-21T10:58:59Z</time><name>PT4120</name></trkpt>
<trkpt lat="53.375936" lon="-1.593888"><ele>256</ele><time>2020-05-21T10:58:59Z</time><name>PT4121</name></trkpt>
<trkpt lat="53.375928" lon="-1.593903"><ele>256</ele><time>2020-05-21T10:59:00Z</time><name>PT4122</name></trkpt>
<trkpt lat="53.375925" lon="-1.593918"><ele>256</ele><time>2020-05-21T10:59:02Z</time><name>PT4123</name></trkpt>
<trkpt lat="53.375920" lon="-1.593936"><ele>255</ele><time>2020-05-21T10:59:02Z</time><name>PT4124</name></trkpt>
<trkpt lat="53.375915" lon="-1.593952"><ele>255</ele><time>2020-05-21T10:59:03Z</time><name>PT4125</name></trkpt>
<trkpt lat="53.375909" lon="-1.593973"><ele>255</ele><time>2020-05-21T10:59:05Z</time><name>PT4126</name></trkpt>
<trkpt lat="53.375899" lon="-1.593989"><ele>255</ele><time>2020-05-21T10:59:05Z</time><name>PT4127</name></trkpt>
<trkpt lat="53.375892" lon="-1.594008"><ele>255</ele><time>2020-05-21T10:59:06Z</time><name>PT4128</name></trkpt>
<trkpt lat="53.375885" lon="-1.594028"><ele>255</ele><time>2020-05-21T10:59:08Z</time><name>PT4129</name></trkpt>
<trkpt lat="53.375879" lon="-1.594050"><ele>255</ele><time>2020-05-21T10:59:08Z</time><name>PT4130</name></trkpt>
<trkpt lat="53.375872" lon="-1.594075"><ele>255</ele><time>2020-05-21T10:59:09Z</time><name>PT4131</name></trkpt>
<trkpt lat="53.375864" lon="-1.594094"><ele>255</ele><time>2020-05-21T10:59:11Z</time><name>PT4132</name></trkpt>
<trkpt lat="53.375859" lon="-1.594121"><ele>256</ele><time>2020-05-21T10:59:11Z</time><name>PT4133</name></trkpt>
<trkpt lat="53.375853" lon="-1.594145"><ele>257</ele><time>2020-05-21T10:59:12Z</time><name>PT4134</name></trkpt>
<trkpt lat="53.375850" lon="-1.594171"><ele>257</ele><time>2020-05-21T10:59:14Z</time><name>PT4135</name></trkpt>
<trkpt lat="53.375847" lon="-1.594193"><ele>257</ele><time>2020-05-21T10:59:14Z</time><name>PT4136</name></trkpt>
<trkpt lat="53.375848" lon="-1.594216"><ele>258</ele><time>2020-05-21T10:59:15Z</time><name>PT4137</name></trkpt>
<trkpt lat="53.375846" lon="-1.594237"><ele>258</ele><time>2020-05-21T10:59:17Z</time><name>PT4138</name></trkpt>
<trkpt lat="53.375844" lon="-1.594258"><ele>258</ele><time>2020-05-21T10:59:17Z</time><name>PT4139</name></trkpt>
<trkpt lat="53.375846" lon="-1.594280"><ele>258</ele><time>2020-05-21T10:59:18Z</time><name>PT4140</name></trkpt>
<trkpt lat="53.375841" lon="-1.594300"><ele>258</ele><time>2020-05-21T10:59:20Z</time><name>PT4141</name></trkpt>
<trkpt lat="53.375839" lon="-1.594319"><ele>258</ele><time>2020-05-21T10:59:20Z</time><name>PT4142</name></trkpt>
<trkpt lat="53.375837" lon="-1.594341"><ele>259</ele><time>2020-05-21T10:59:21Z</time><name>PT4143</name></trkpt>
<trkpt lat="53.375837" lon="-1.594358"><ele>260</ele><time>2020-05-21T10:59:23Z</time><name>PT4144</name></trkpt>
<trkpt lat="53.375834" lon="-1.594359"><ele>260</ele><time>2020-05-21T10:59:23Z</time><name>PT4145</name></trkpt>
<trkpt lat="53.375833" lon="-1.594358"><ele>260</ele><time>2020-05-21T10:59:24Z</time><name>PT4146</name></trkpt>
<trkpt lat="53.375832" lon="-1.594361"><ele>261</ele><time>2020-05-21T10:59:26Z</time><name>PT4147</name></trkpt>
<trkpt lat="53.375834" lon="-1.594369"><ele>261</ele><time>2020-05-21T10:59:27Z</time><name>PT4148</name></trkpt>
<trkpt lat="53.375841" lon="-1.594390"><ele>261</ele><time>2020-05-21T10:59:29Z</time><name>PT4149</name></trkpt>
<trkpt lat="53.375849" lon="-1.594409"><ele>260</ele><time>2020-05-21T10:59:29Z</time><name>PT4150</name></trkpt>
<trkpt lat="53.375854" lon="-1.594429"><ele>261</ele><time>2020-05-21T10:59:30Z</time><name>PT4151</name></trkpt>
<trkpt lat="53.375861" lon="-1.594449"><ele>261</ele><time>2020-05-21T10:59:32Z</time><name>PT4152</name></trkpt>
<trkpt lat="53.375868" lon="-1.594467"><ele>260</ele><time>2020-05-21T10:59:32Z</time><name>PT4153</name></trkpt>
<trkpt lat="53.375878" lon="-1.594482"><ele>260</ele><time>2020-05-21T10:59:33Z</time><name>PT4154</name></trkpt>
<trkpt lat="53.375884" lon="-1.594496"><ele>261</ele><time>2020-05-21T10:59:35Z</time><name>PT4155</name></trkpt>
<trkpt lat="53.375884" lon="-1.594509"><ele>260</ele><time>2020-05-21T10:59:35Z</time><name>PT4156</name></trkpt>
<trkpt lat="53.375882" lon="-1.594523"><ele>260</ele><time>2020-05-21T10:59:36Z</time><name>PT4157</name></trkpt>
<trkpt lat="53.375893" lon="-1.594540"><ele>260</ele><time>2020-05-21T10:59:38Z</time><name>PT4158</name></trkpt>
<trkpt lat="53.375904" lon="-1.594556"><ele>260</ele><time>2020-05-21T10:59:38Z</time><name>PT4159</name></trkpt>
<trkpt lat="53.375913" lon="-1.594565"><ele>260</ele><time>2020-05-21T10:59:39Z</time><name>PT4160</name></trkpt>
<trkpt lat="53.375922" lon="-1.594579"><ele>260</ele><time>2020-05-21T10:59:41Z</time><name>PT4161</name></trkpt>
<trkpt lat="53.375933" lon="-1.594593"><ele>260</ele><time>2020-05-21T10:59:41Z</time><name>PT4162</name></trkpt>
<trkpt lat="53.375943" lon="-1.594613"><ele>261</ele><time>2020-05-21T10:59:42Z</time><name>PT4163</name></trkpt>
<trkpt lat="53.375955" lon="-1.594620"><ele>261</ele><time>2020-05-21T10:59:44Z</time><name>PT4164</name></trkpt>
<trkpt lat="53.375964" lon="-1.594632"><ele>261</ele><time>2020-05-21T10:59:44Z</time><name>PT4165</name></trkpt>
<trkpt lat="53.375974" lon="-1.594640"><ele>261</ele><time>2020-05-21T10:59:45Z</time><name>PT4166</name></trkpt>
<trkpt lat="53.375983" lon="-1.594650"><ele>261</ele><time>2020-05-21T10:59:47Z</time><name>PT4167</name></trkpt>
<trkpt lat="53.375988" lon="-1.594665"><ele>261</ele><time>2020-05-21T10:59:47Z</time><name>PT4168</name></trkpt>
<trkpt lat="53.375995" lon="-1.594680"><ele>261</ele><time>2020-05-21T10:59:48Z</time><name>PT4169</name></trkpt>
<trkpt lat="53.376002" lon="-1.594695"><ele>261</ele><time>2020-05-21T10:59:50Z</time><name>PT4170</name></trkpt>
<trkpt lat="53.376016" lon="-1.594704"><ele>261</ele><time>2020-05-21T10:59:50Z</time><name>PT4171</name></trkpt>
<trkpt lat="53.376026" lon="-1.594716"><ele>260</ele><time>2020-05-21T10:59:51Z</time><name>PT4172</name></trkpt>
<trkpt lat="53.376038" lon="-1.594725"><ele>260</ele><time>2020-05-21T10:59:53Z</time><name>PT4173</name></trkpt>
<trkpt lat="53.376050" lon="-1.594736"><ele>261</ele><time>2020-05-21T10:59:53Z</time><name>PT4174</name></trkpt>
<trkpt lat="53.376059" lon="-1.594749"><ele>261</ele><time>2020-05-21T10:59:54Z</time><name>PT4175</name></trkpt>
<trkpt lat="53.376069" lon="-1.594760"><ele>260</ele><time>2020-05-21T10:59:56Z</time><name>PT4176</name></trkpt>
<trkpt lat="53.376084" lon="-1.594769"><ele>261</ele><time>2020-05-21T10:59:56Z</time><name>PT4177</name></trkpt>
<trkpt lat="53.376098" lon="-1.594774"><ele>260</ele><time>2020-05-21T10:59:57Z</time><name>PT4178</name></trkpt>
<trkpt lat="53.376118" lon="-1.594782"><ele>260</ele><time>2020-05-21T10:59:59Z</time><name>PT4179</name></trkpt>
<trkpt lat="53.376130" lon="-1.594790"><ele>260</ele><time>2020-05-21T10:59:59Z</time><name>PT4180</name></trkpt>
<trkpt lat="53.376144" lon="-1.594796"><ele>261</ele><time>2020-05-21T11:00:00Z</time><name>PT4181</name></trkpt>
<trkpt lat="53.376155" lon="-1.594805"><ele>261</ele><time>2020-05-21T11:00:02Z</time><name>PT4182</name></trkpt>
<trkpt lat="53.376166" lon="-1.594818"><ele>261</ele><time>2020-05-21T11:00:02Z</time><name>PT4183</name></trkpt>
<trkpt lat="53.376176" lon="-1.594830"><ele>261</ele><time>2020-05-21T11:00:03Z</time><name>PT4184</name></trkpt>
<trkpt lat="53.376180" lon="-1.594836"><ele>260</ele><time>2020-05-21T11:00:05Z</time><name>PT4185</name></trkpt>
<trkpt lat="53.376185" lon="-1.594845"><ele>260</ele><time>2020-05-21T11:00:05Z</time><name>PT4186</name></trkpt>
<trkpt lat="53.376200" lon="-1.594859"><ele>260</ele><time>2020-05-21T11:00:07Z</time><name>PT4187</name></trkpt>
<trkpt lat="53.376196" lon="-1.594869"><ele>260</ele><time>2020-05-21T11:00:08Z</time><name>PT4188</name></trkpt>
<trkpt lat="53.376198" lon="-1.594882"><ele>260</ele><time>2020-05-21T11:00:10Z</time><name>PT4189</name></trkpt>
<trkpt lat="53.376201" lon="-1.594898"><ele>261</ele><time>2020-05-21T11:00:10Z</time><name>PT4190</name></trkpt>
<trkpt lat="53.376204" lon="-1.594917"><ele>261</ele><time>2020-05-21T11:00:11Z</time><name>PT4191</name></trkpt>
<trkpt lat="53.376208" lon="-1.594926"><ele>259</ele><time>2020-05-21T11:00:13Z</time><name>PT4192</name></trkpt>
<trkpt lat="53.376216" lon="-1.594932"><ele>260</ele><time>2020-05-21T11:00:13Z</time><name>PT4193</name></trkpt>
<trkpt lat="53.376220" lon="-1.594943"><ele>259</ele><time>2020-05-21T11:00:14Z</time><name>PT4194</name></trkpt>
<trkpt lat="53.376225" lon="-1.594953"><ele>257</ele><time>2020-05-21T11:00:16Z</time><name>PT4195</name></trkpt>
<trkpt lat="53.376235" lon="-1.594962"><ele>257</ele><time>2020-05-21T11:00:16Z</time><name>PT4196</name></trkpt>
<trkpt lat="53.376241" lon="-1.594976"><ele>256</ele><time>2020-05-21T11:00:17Z</time><name>PT4197</name></trkpt>
<trkpt lat="53.376248" lon="-1.594997"><ele>255</ele><time>2020-05-21T11:00:19Z</time><name>PT4198</name></trkpt>
<trkpt lat="53.376252" lon="-1.595013"><ele>255</ele><time>2020-05-21T11:00:19Z</time><name>PT4199</name></trkpt>
<trkpt lat="53.376255" lon="-1.595020"><ele>254</ele><time>2020-05-21T11:00:20Z</time><name>PT4200</name></trkpt>
<trkpt lat="53.376266" lon="-1.595026"><ele>254</ele><time>2020-05-21T11:00:22Z</time><name>PT4201</name></trkpt>
<trkpt lat="53.376268" lon="-1.595044"><ele>254</ele><time>2020-05-21T11:00:22Z</time><name>PT4202</name></trkpt>
<trkpt lat="53.376271" lon="-1.595057"><ele>254</ele><time>2020-05-21T11:00:23Z</time><name>PT4203</name></trkpt>
<trkpt lat="53.376273" lon="-1.595073"><ele>253</ele><time>2020-05-21T11:00:25Z</time><name>PT4204</name></trkpt>
<trkpt lat="53.376278" lon="-1.595093"><ele>253</ele><time>2020-05-21T11:00:25Z</time><name>PT4205</name></trkpt>
<trkpt lat="53.376278" lon="-1.595111"><ele>253</ele><time>2020-05-21T11:00:26Z</time><name>PT4206</name></trkpt>
<trkpt lat="53.376279" lon="-1.595123"><ele>253</ele><time>2020-05-21T11:00:28Z</time><name>PT4207</name></trkpt>
<trkpt lat="53.376283" lon="-1.595133"><ele>253</ele><time>2020-05-21T11:00:28Z</time><name>PT4208</name></trkpt>
<trkpt lat="53.376296" lon="-1.595143"><ele>253</ele><time>2020-05-21T11:00:29Z</time><name>PT4209</name></trkpt>
<trkpt lat="53.376303" lon="-1.595164"><ele>253</ele><time>2020-05-21T11:00:31Z</time><name>PT4210</name></trkpt>
<trkpt lat="53.376306" lon="-1.595183"><ele>252</ele><time>2020-05-21T11:00:31Z</time><name>PT4211</name></trkpt>
<trkpt lat="53.376317" lon="-1.595190"><ele>253</ele><time>2020-05-21T11:00:32Z</time><name>PT4212</name></trkpt>
<trkpt lat="53.376338" lon="-1.595199"><ele>254</ele><time>2020-05-21T11:00:34Z</time><name>PT4213</name></trkpt>
<trkpt lat="53.376342" lon="-1.595212"><ele>253</ele><time>2020-05-21T11:00:34Z</time><name>PT4214</name></trkpt>
<trkpt lat="53.376360" lon="-1.595224"><ele>254</ele><time>2020-05-21T11:00:35Z</time><name>PT4215</name></trkpt>
<trkpt lat="53.376377" lon="-1.595240"><ele>255</ele><time>2020-05-21T11:00:37Z</time><name>PT4216</name></trkpt>
<trkpt lat="53.376391" lon="-1.595260"><ele>255</ele><time>2020-05-21T11:00:37Z</time><name>PT4217</name></trkpt>
<trkpt lat="53.376410" lon="-1.595278"><ele>257</ele><time>2020-05-21T11:00:38Z</time><name>PT4218</name></trkpt>
<trkpt lat="53.376441" lon="-1.595286"><ele>260</ele><time>2020-05-21T11:00:40Z</time><name>PT4219</name></trkpt>
<trkpt lat="53.376455" lon="-1.595297"><ele>261</ele><time>2020-05-21T11:00:40Z</time><name>PT4220</name></trkpt>
<trkpt lat="53.376463" lon="-1.595312"><ele>262</ele><time>2020-05-21T11:00:41Z</time><name>PT4221</name></trkpt>
<trkpt lat="53.376483" lon="-1.595319"><ele>262</ele><time>2020-05-21T11:00:43Z</time><name>PT4222</name></trkpt>
<trkpt lat="53.376491" lon="-1.595334"><ele>263</ele><time>2020-05-21T11:00:43Z</time><name>PT4223</name></trkpt>
<trkpt lat="53.376501" lon="-1.595353"><ele>264</ele><time>2020-05-21T11:00:44Z</time><name>PT4224</name></trkpt>
<trkpt lat="53.376515" lon="-1.595373"><ele>264</ele><time>2020-05-21T11:00:46Z</time><name>PT4225</name></trkpt>
<trkpt lat="53.376524" lon="-1.595391"><ele>264</ele><time>2020-05-21T11:00:46Z</time><name>PT4226</name></trkpt>
<trkpt lat="53.376524" lon="-1.595407"><ele>263</ele><time>2020-05-21T11:00:47Z</time><name>PT4227</name></trkpt>
<trkpt lat="53.376533" lon="-1.595419"><ele>263</ele><time>2020-05-21T11:00:49Z</time><name>PT4228</name></trkpt>
<trkpt lat="53.376541" lon="-1.595430"><ele>263</ele><time>2020-05-21T11:00:49Z</time><name>PT4229</name></trkpt>
<trkpt lat="53.376554" lon="-1.595445"><ele>263</ele><time>2020-05-21T11:00:50Z</time><name>PT4230</name></trkpt>
<trkpt lat="53.376567" lon="-1.595463"><ele>264</ele><time>2020-05-21T11:00:52Z</time><name>PT4231</name></trkpt>
<trkpt lat="53.376577" lon="-1.595478"><ele>264</ele><time>2020-05-21T11:00:52Z</time><name>PT4232</name></trkpt>
<trkpt lat="53.376581" lon="-1.595536"><ele>266</ele><time>2020-05-21T11:00:53Z</time><name>PT4233</name></trkpt>
<trkpt lat="53.376594" lon="-1.595584"><ele>269</ele><time>2020-05-21T11:00:55Z</time><name>PT4234</name></trkpt>
<trkpt lat="53.376601" lon="-1.595622"><ele>268</ele><time>2020-05-21T11:00:55Z</time><name>PT4235</name></trkpt>
<trkpt lat="53.376606" lon="-1.595645"><ele>268</ele><time>2020-05-21T11:00:56Z</time><name>PT4236</name></trkpt>
<trkpt lat="53.376598" lon="-1.595676"><ele>264</ele><time>2020-05-21T11:00:58Z</time><name>PT4237</name></trkpt>
<trkpt lat="53.376604" lon="-1.595679"><ele>264</ele><time>2020-05-21T11:00:58Z</time><name>PT4238</name></trkpt>
<trkpt lat="53.376603" lon="-1.595676"><ele>263</ele><time>2020-05-21T11:00:59Z</time><name>PT4239</name></trkpt>
<trkpt lat="53.376603" lon="-1.595680"><ele>262</ele><time>2020-05-21T11:01:01Z</time><name>PT4240</name></trkpt>
<trkpt lat="53.376600" lon="-1.595690"><ele>261</ele><time>2020-05-21T11:01:01Z</time><name>PT4241</name></trkpt>
<trkpt lat="53.376604" lon="-1.595699"><ele>262</ele><time>2020-05-21T11:01:02Z</time><name>PT4242</name></trkpt>
<trkpt lat="53.376607" lon="-1.595708"><ele>263</ele><time>2020-05-21T11:01:04Z</time><name>PT4243</name></trkpt>
<trkpt lat="53.376605" lon="-1.595708"><ele>263</ele><time>2020-05-21T11:01:04Z</time><name>PT4244</name></trkpt>
<trkpt lat="53.376606" lon="-1.595713"><ele>263</ele><time>2020-05-21T11:01:05Z</time><name>PT4245</name></trkpt>
<trkpt lat="53.376608" lon="-1.595719"><ele>264</ele><time>2020-05-21T11:01:07Z</time><name>PT4246</name></trkpt>
<trkpt lat="53.376607" lon="-1.595721"><ele>264</ele><time>2020-05-21T11:01:07Z</time><name>PT4247</name></trkpt>
<trkpt lat="53.376606" lon="-1.595720"><ele>264</ele><time>2020-05-21T11:01:08Z</time><name>PT4248</name></trkpt>
<trkpt lat="53.376605" lon="-1.595725"><ele>264</ele><time>2020-05-21T11:01:19Z</time><name>PT4249</name></trkpt>
<trkpt lat="53.376611" lon="-1.595745"><ele>263</ele><time>2020-05-21T11:01:20Z</time><name>PT4250</name></trkpt>
<trkpt lat="53.376616" lon="-1.595769"><ele>263</ele><time>2020-05-21T11:01:22Z</time><name>PT4251</name></trkpt>
<trkpt lat="53.376620" lon="-1.595790"><ele>263</ele><time>2020-05-21T11:01:22Z</time><name>PT4252</name></trkpt>
<trkpt lat="53.376624" lon="-1.595809"><ele>263</ele><time>2020-05-21T11:01:23Z</time><name>PT4253</name></trkpt>
<trkpt lat="53.376626" lon="-1.595827"><ele>263</ele><time>2020-05-21T11:01:25Z</time><name>PT4254</name></trkpt>
<trkpt lat="53.376630" lon="-1.595846"><ele>263</ele><time>2020-05-21T11:01:25Z</time><name>PT4255</name></trkpt>
<trkpt lat="53.376634" lon="-1.595868"><ele>263</ele><time>2020-05-21T11:01:26Z</time><name>PT4256</name></trkpt>
<trkpt lat="53.376639" lon="-1.595888"><ele>263</ele><time>2020-05-21T11:01:28Z</time><name>PT4257</name></trkpt>
<trkpt lat="53.376640" lon="-1.595910"><ele>262</ele><time>2020-05-21T11:01:28Z</time><name>PT4258</name></trkpt>
<trkpt lat="53.376645" lon="-1.595928"><ele>262</ele><time>2020-05-21T11:01:29Z</time><name>PT4259</name></trkpt>
<trkpt lat="53.376652" lon="-1.595950"><ele>262</ele><time>2020-05-21T11:01:31Z</time><name>PT4260</name></trkpt>
<trkpt lat="53.376655" lon="-1.595968"><ele>263</ele><time>2020-05-21T11:01:31Z</time><name>PT4261</name></trkpt>
<trkpt lat="53.376660" lon="-1.595987"><ele>263</ele><time>2020-05-21T11:01:32Z</time><name>PT4262</name></trkpt>
<trkpt lat="53.376669" lon="-1.596009"><ele>263</ele><time>2020-05-21T11:01:34Z</time><name>PT4263</name></trkpt>
<trkpt lat="53.376675" lon="-1.596028"><ele>262</ele><time>2020-05-21T11:01:34Z</time><name>PT4264</name></trkpt>
<trkpt lat="53.376679" lon="-1.596047"><ele>262</ele><time>2020-05-21T11:01:35Z</time><name>PT4265</name></trkpt>
<trkpt lat="53.376683" lon="-1.596067"><ele>262</ele><time>2020-05-21T11:01:37Z</time><name>PT4266</name></trkpt>
<trkpt lat="53.376691" lon="-1.596086"><ele>262</ele><time>2020-05-21T11:01:37Z</time><name>PT4267</name></trkpt>
<trkpt lat="53.376696" lon="-1.596108"><ele>261</ele><time>2020-05-21T11:01:38Z</time><name>PT4268</name></trkpt>
<trkpt lat="53.376703" lon="-1.596127"><ele>262</ele><time>2020-05-21T11:01:40Z</time><name>PT4269</name></trkpt>
<trkpt lat="53.376709" lon="-1.596145"><ele>261</ele><time>2020-05-21T11:01:40Z</time><name>PT4270</name></trkpt>
<trkpt lat="53.376716" lon="-1.596165"><ele>261</ele><time>2020-05-21T11:01:41Z</time><name>PT4271</name></trkpt>
<trkpt lat="53.376721" lon="-1.596185"><ele>261</ele><time>2020-05-21T11:01:43Z</time><name>PT4272</name></trkpt>
<trkpt lat="53.376722" lon="-1.596203"><ele>261</ele><time>2020-05-21T11:01:43Z</time><name>PT4273</name></trkpt>
<trkpt lat="53.376727" lon="-1.596222"><ele>261</ele><time>2020-05-21T11:01:44Z</time><name>PT4274</name></trkpt>
<trkpt lat="53.376730" lon="-1.596241"><ele>261</ele><time>2020-05-21T11:01:46Z</time><name>PT4275</name></trkpt>
<trkpt lat="53.376737" lon="-1.596259"><ele>261</ele><time>2020-05-21T11:01:46Z</time><name>PT4276</name></trkpt>
<trkpt lat="53.376745" lon="-1.596278"><ele>261</ele><time>2020-05-21T11:01:47Z</time><name>PT4277</name></trkpt>
<trkpt lat="53.376750" lon="-1.596297"><ele>261</ele><time>2020-05-21T11:01:49Z</time><name>PT4278</name></trkpt>
<trkpt lat="53.376752" lon="-1.596313"><ele>260</ele><time>2020-05-21T11:01:49Z</time><name>PT4279</name></trkpt>
<trkpt lat="53.376758" lon="-1.596330"><ele>260</ele><time>2020-05-21T11:01:50Z</time><name>PT4280</name></trkpt>
<trkpt lat="53.376763" lon="-1.596349"><ele>260</ele><time>2020-05-21T11:01:52Z</time><name>PT4281</name></trkpt>
<trkpt lat="53.376775" lon="-1.596357"><ele>259</ele><time>2020-05-21T11:01:52Z</time><name>PT4282</name></trkpt>
<trkpt lat="53.376782" lon="-1.596378"><ele>259</ele><time>2020-05-21T11:01:53Z</time><name>PT4283</name></trkpt>
<trkpt lat="53.376786" lon="-1.596397"><ele>259</ele><time>2020-05-21T11:01:55Z</time><name>PT4284</name></trkpt>
<trkpt lat="53.376794" lon="-1.596416"><ele>259</ele><time>2020-05-21T11:01:55Z</time><name>PT4285</name></trkpt>
<trkpt lat="53.376802" lon="-1.596431"><ele>259</ele><time>2020-05-21T11:01:56Z</time><name>PT4286</name></trkpt>
<trkpt lat="53.376809" lon="-1.596447"><ele>259</ele><time>2020-05-21T11:01:58Z</time><name>PT4287</name></trkpt>
<trkpt lat="53.376816" lon="-1.596465"><ele>259</ele><time>2020-05-21T11:01:58Z</time><name>PT4288</name></trkpt>
<trkpt lat="53.376824" lon="-1.596478"><ele>258</ele><time>2020-05-21T11:01:59Z</time><name>PT4289</name></trkpt>
<trkpt lat="53.376832" lon="-1.596496"><ele>258</ele><time>2020-05-21T11:02:01Z</time><name>PT4290</name></trkpt>
<trkpt lat="53.376841" lon="-1.596511"><ele>258</ele><time>2020-05-21T11:02:01Z</time><name>PT4291</name></trkpt>
<trkpt lat="53.376846" lon="-1.596529"><ele>258</ele><time>2020-05-21T11:02:02Z</time><name>PT4292</name></trkpt>
<trkpt lat="53.376852" lon="-1.596541"><ele>257</ele><time>2020-05-21T11:02:04Z</time><name>PT4293</name></trkpt>
<trkpt lat="53.376860" lon="-1.596558"><ele>257</ele><time>2020-05-21T11:02:04Z</time><name>PT4294</name></trkpt>
<trkpt lat="53.376868" lon="-1.596579"><ele>257</ele><time>2020-05-21T11:02:05Z</time><name>PT4295</name></trkpt>
<trkpt lat="53.376875" lon="-1.596599"><ele>258</ele><time>2020-05-21T11:02:07Z</time><name>PT4296</name></trkpt>
<trkpt lat="53.376880" lon="-1.596617"><ele>258</ele><time>2020-05-21T11:02:07Z</time><name>PT4297</name></trkpt>
<trkpt lat="53.376884" lon="-1.596636"><ele>258</ele><time>2020-05-21T11:02:08Z</time><name>PT4298</name></trkpt>
<trkpt lat="53.376891" lon="-1.596657"><ele>258</ele><time>2020-05-21T11:02:10Z</time><name>PT4299</name></trkpt>
<trkpt lat="53.376898" lon="-1.596677"><ele>258</ele><time>2020-05-21T11:02:10Z</time><name>PT4300</name></trkpt>
<trkpt lat="53.376900" lon="-1.596697"><ele>259</ele><time>2020-05-21T11:02:11Z</time><name>PT4301</name></trkpt>
<trkpt lat="53.376907" lon="-1.596714"><ele>259</ele><time>2020-05-21T11:02:13Z</time><name>PT4302</name></trkpt>
<trkpt lat="53.376913" lon="-1.596735"><ele>260</ele><time>2020-05-21T11:02:13Z</time><name>PT4303</name></trkpt>
<trkpt lat="53.376921" lon="-1.596750"><ele>260</ele><time>2020-05-21T11:02:14Z</time><name>PT4304</name></trkpt>
<trkpt lat="53.376927" lon="-1.596767"><ele>260</ele><time>2020-05-21T11:02:16Z</time><name>PT4305</name></trkpt>
<trkpt lat="53.376934" lon="-1.596784"><ele>260</ele><time>2020-05-21T11:02:16Z</time><name>PT4306</name></trkpt>
<trkpt lat="53.376942" lon="-1.596798"><ele>260</ele><time>2020-05-21T11:02:17Z</time><name>PT4307</name></trkpt>
<trkpt lat="53.376950" lon="-1.596814"><ele>260</ele><time>2020-05-21T11:02:19Z</time><name>PT4308</name></trkpt>
<trkpt lat="53.376957" lon="-1.596833"><ele>260</ele><time>2020-05-21T11:02:19Z</time><name>PT4309</name></trkpt>
<trkpt lat="53.376961" lon="-1.596853"><ele>259</ele><time>2020-05-21T11:02:20Z</time><name>PT4310</name></trkpt>
<trkpt lat="53.376966" lon="-1.596872"><ele>259</ele><time>2020-05-21T11:02:22Z</time><name>PT4311</name></trkpt>
<trkpt lat="53.376971" lon="-1.596889"><ele>259</ele><time>2020-05-21T11:02:22Z</time><name>PT4312</name></trkpt>
<trkpt lat="53.376976" lon="-1.596910"><ele>258</ele><time>2020-05-21T11:02:23Z</time><name>PT4313</name></trkpt>
<trkpt lat="53.376980" lon="-1.596929"><ele>258</ele><time>2020-05-21T11:02:25Z</time><name>PT4314</name></trkpt>
<trkpt lat="53.376986" lon="-1.596948"><ele>257</ele><time>2020-05-21T11:02:25Z</time><name>PT4315</name></trkpt>
<trkpt lat="53.376992" lon="-1.596968"><ele>257</ele><time>2020-05-21T11:02:26Z</time><name>PT4316</name></trkpt>
<trkpt lat="53.376995" lon="-1.596985"><ele>256</ele><time>2020-05-21T11:02:28Z</time><name>PT4317</name></trkpt>
<trkpt lat="53.377000" lon="-1.597007"><ele>256</ele><time>2020-05-21T11:02:28Z</time><name>PT4318</name></trkpt>
<trkpt lat="53.377008" lon="-1.597038"><ele>255</ele><time>2020-05-21T11:02:29Z</time><name>PT4319</name></trkpt>
<trkpt lat="53.377019" lon="-1.597063"><ele>256</ele><time>2020-05-21T11:02:31Z</time><name>PT4320</name></trkpt>
<trkpt lat="53.377028" lon="-1.597079"><ele>256</ele><time>2020-05-21T11:02:31Z</time><name>PT4321</name></trkpt>
<trkpt lat="53.377035" lon="-1.597107"><ele>255</ele><time>2020-05-21T11:02:32Z</time><name>PT4322</name></trkpt>
<trkpt lat="53.377034" lon="-1.597127"><ele>254</ele><time>2020-05-21T11:02:34Z</time><name>PT4323</name></trkpt>
<trkpt lat="53.377035" lon="-1.597151"><ele>254</ele><time>2020-05-21T11:02:34Z</time><name>PT4324</name></trkpt>
<trkpt lat="53.377043" lon="-1.597164"><ele>253</ele><time>2020-05-21T11:02:35Z</time><name>PT4325</name></trkpt>
<trkpt lat="53.377055" lon="-1.597176"><ele>254</ele><time>2020-05-21T11:02:37Z</time><name>PT4326</name></trkpt>
<trkpt lat="53.377064" lon="-1.597192"><ele>254</ele><time>2020-05-21T11:02:37Z</time><name>PT4327</name></trkpt>
<trkpt lat="53.377073" lon="-1.597212"><ele>254</ele><time>2020-05-21T11:02:38Z</time><name>PT4328</name></trkpt>
<trkpt lat="53.377083" lon="-1.597230"><ele>254</ele><time>2020-05-21T11:02:40Z</time><name>PT4329</name></trkpt>
<trkpt lat="53.377092" lon="-1.597245"><ele>255</ele><time>2020-05-21T11:02:40Z</time><name>PT4330</name></trkpt>
<trkpt lat="53.377100" lon="-1.597263"><ele>255</ele><time>2020-05-21T11:02:41Z</time><name>PT4331</name></trkpt>
<trkpt lat="53.377109" lon="-1.597286"><ele>256</ele><time>2020-05-21T11:02:43Z</time><name>PT4332</name></trkpt>
<trkpt lat="53.377117" lon="-1.597304"><ele>256</ele><time>2020-05-21T11:02:43Z</time><name>PT4333</name></trkpt>
<trkpt lat="53.377128" lon="-1.597325"><ele>257</ele><time>2020-05-21T11:02:44Z</time><name>PT4334</name></trkpt>
<trkpt lat="53.377138" lon="-1.597349"><ele>257</ele><time>2020-05-21T11:02:46Z</time><name>PT4335</name></trkpt>
<trkpt lat="53.377146" lon="-1.597370"><ele>258</ele><time>2020-05-21T11:02:46Z</time><name>PT4336</name></trkpt>
<trkpt lat="53.377152" lon="-1.597385"><ele>257</ele><time>2020-05-21T11:02:47Z</time><name>PT4337</name></trkpt>
<trkpt lat="53.377161" lon="-1.597403"><ele>258</ele><time>2020-05-21T11:02:49Z</time><name>PT4338</name></trkpt>
<trkpt lat="53.377170" lon="-1.597419"><ele>258</ele><time>2020-05-21T11:02:49Z</time><name>PT4339</name></trkpt>
<trkpt lat="53.377179" lon="-1.597436"><ele>258</ele><time>2020-05-21T11:02:50Z</time><name>PT4340</name></trkpt>
<trkpt lat="53.377187" lon="-1.597459"><ele>258</ele><time>2020-05-21T11:02:52Z</time><name>PT4341</name></trkpt>
<trkpt lat="53.377196" lon="-1.597477"><ele>259</ele><time>2020-05-21T11:02:52Z</time><name>PT4342</name></trkpt>
<trkpt lat="53.377195" lon="-1.597487"><ele>259</ele><time>2020-05-21T11:02:53Z</time><name>PT4343</name></trkpt>
<trkpt lat="53.377203" lon="-1.597496"><ele>259</ele><time>2020-05-21T11:02:55Z</time><name>PT4344</name></trkpt>
<trkpt lat="53.377210" lon="-1.597519"><ele>260</ele><time>2020-05-21T11:02:55Z</time><name>PT4345</name></trkpt>
<trkpt lat="53.377226" lon="-1.597538"><ele>260</ele><time>2020-05-21T11:02:56Z</time><name>PT4346</name></trkpt>
<trkpt lat="53.377233" lon="-1.597555"><ele>261</ele><time>2020-05-21T11:02:58Z</time><name>PT4347</name></trkpt>
<trkpt lat="53.377234" lon="-1.597567"><ele>261</ele><time>2020-05-21T11:02:58Z</time><name>PT4348</name></trkpt>
<trkpt lat="53.377234" lon="-1.597577"><ele>260</ele><time>2020-05-21T11:02:59Z</time><name>PT4349</name></trkpt>
<trkpt lat="53.377235" lon="-1.597591"><ele>260</ele><time>2020-05-21T11:03:01Z</time><name>PT4350</name></trkpt>
<trkpt lat="53.377236" lon="-1.597610"><ele>261</ele><time>2020-05-21T11:03:01Z</time><name>PT4351</name></trkpt>
<trkpt lat="53.377242" lon="-1.597633"><ele>261</ele><time>2020-05-21T11:03:02Z</time><name>PT4352</name></trkpt>
<trkpt lat="53.377251" lon="-1.597649"><ele>262</ele><time>2020-05-21T11:03:04Z</time><name>PT4353</name></trkpt>
<trkpt lat="53.377264" lon="-1.597669"><ele>261</ele><time>2020-05-21T11:03:04Z</time><name>PT4354</name></trkpt>
<trkpt lat="53.377279" lon="-1.597683"><ele>262</ele><time>2020-05-21T11:03:05Z</time><name>PT4355</name></trkpt>
<trkpt lat="53.377297" lon="-1.597698"><ele>263</ele><time>2020-05-21T11:03:07Z</time><name>PT4356</name></trkpt>
<trkpt lat="53.377311" lon="-1.597704"><ele>265</ele><time>2020-05-21T11:03:07Z</time><name>PT4357</name></trkpt>
<trkpt lat="53.377322" lon="-1.597715"><ele>265</ele><time>2020-05-21T11:03:08Z</time><name>PT4358</name></trkpt>
<trkpt lat="53.377332" lon="-1.597725"><ele>266</ele><time>2020-05-21T11:03:10Z</time><name>PT4359</name></trkpt>
<trkpt lat="53.377343" lon="-1.597734"><ele>269</ele><time>2020-05-21T11:03:10Z</time><name>PT4360</name></trkpt>
<trkpt lat="53.377342" lon="-1.597750"><ele>266</ele><time>2020-05-21T11:03:11Z</time><name>PT4361</name></trkpt>
<trkpt lat="53.377351" lon="-1.597762"><ele>266</ele><time>2020-05-21T11:03:13Z</time><name>PT4362</name></trkpt>
<trkpt lat="53.377365" lon="-1.597779"><ele>266</ele><time>2020-05-21T11:03:13Z</time><name>PT4363</name></trkpt>
<trkpt lat="53.377381" lon="-1.597799"><ele>267</ele><time>2020-05-21T11:03:14Z</time><name>PT4364</name></trkpt>
<trkpt lat="53.377392" lon="-1.597810"><ele>266</ele><time>2020-05-21T11:03:16Z</time><name>PT4365</name></trkpt>
<trkpt lat="53.377397" lon="-1.597823"><ele>266</ele><time>2020-05-21T11:03:16Z</time><name>PT4366</name></trkpt>
<trkpt lat="53.377407" lon="-1.597828"><ele>264</ele><time>2020-05-21T11:03:17Z</time><name>PT4367</name></trkpt>
<trkpt lat="53.377411" lon="-1.597835"><ele>263</ele><time>2020-05-21T11:03:19Z</time><name>PT4368</name></trkpt>
<trkpt lat="53.377416" lon="-1.597855"><ele>263</ele><time>2020-05-21T11:03:19Z</time><name>PT4369</name></trkpt>
<trkpt lat="53.377427" lon="-1.597876"><ele>263</ele><time>2020-05-21T11:03:20Z</time><name>PT4370</name></trkpt>
<trkpt lat="53.377440" lon="-1.597888"><ele>264</ele><time>2020-05-21T11:03:22Z</time><name>PT4371</name></trkpt>
<trkpt lat="53.377451" lon="-1.597898"><ele>264</ele><time>2020-05-21T11:03:22Z</time><name>PT4372</name></trkpt>
<trkpt lat="53.377463" lon="-1.597905"><ele>264</ele><time>2020-05-21T11:03:23Z</time><name>PT4373</name></trkpt>
<trkpt lat="53.377472" lon="-1.597904"><ele>265</ele><time>2020-05-21T11:03:25Z</time><name>PT4374</name></trkpt>
<trkpt lat="53.377478" lon="-1.597909"><ele>266</ele><time>2020-05-21T11:03:25Z</time><name>PT4375</name></trkpt>
<trkpt lat="53.377485" lon="-1.597924"><ele>266</ele><time>2020-05-21T11:03:26Z</time><name>PT4376</name></trkpt>
<trkpt lat="53.377492" lon="-1.597938"><ele>266</ele><time>2020-05-21T11:03:28Z</time><name>PT4377</name></trkpt>
<trkpt lat="53.377503" lon="-1.597950"><ele>266</ele><time>2020-05-21T11:03:28Z</time><name>PT4378</name></trkpt>
<trkpt lat="53.377510" lon="-1.597964"><ele>265</ele><time>2020-05-21T11:03:29Z</time><name>PT4379</name></trkpt>
<trkpt lat="53.377516" lon="-1.597974"><ele>266</ele><time>2020-05-21T11:03:31Z</time><name>PT4380</name></trkpt>
<trkpt lat="53.377521" lon="-1.597983"><ele>267</ele><time>2020-05-21T11:03:31Z</time><name>PT4381</name></trkpt>
<trkpt lat="53.377530" lon="-1.597988"><ele>268</ele><time>2020-05-21T11:03:32Z</time><name>PT4382</name></trkpt>
<trkpt lat="53.377538" lon="-1.598001"><ele>267</ele><time>2020-05-21T11:03:34Z</time><name>PT4383</name></trkpt>
<trkpt lat="53.377550" lon="-1.598014"><ele>267</ele><time>2020-05-21T11:03:34Z</time><name>PT4384</name></trkpt>
<trkpt lat="53.377558" lon="-1.598035"><ele>266</ele><time>2020-05-21T11:03:35Z</time><name>PT4385</name></trkpt>
<trkpt lat="53.377571" lon="-1.598057"><ele>267</ele><time>2020-05-21T11:03:37Z</time><name>PT4386</name></trkpt>
<trkpt lat="53.377580" lon="-1.598071"><ele>267</ele><time>2020-05-21T11:03:37Z</time><name>PT4387</name></trkpt>
<trkpt lat="53.377588" lon="-1.598086"><ele>266</ele><time>2020-05-21T11:03:38Z</time><name>PT4388</name></trkpt>
<trkpt lat="53.377600" lon="-1.598109"><ele>266</ele><time>2020-05-21T11:03:40Z</time><name>PT4389</name></trkpt>
<trkpt lat="53.377603" lon="-1.598133"><ele>265</ele><time>2020-05-21T11:03:40Z</time><name>PT4390</name></trkpt>
<trkpt lat="53.377608" lon="-1.598157"><ele>266</ele><time>2020-05-21T11:03:41Z</time><name>PT4391</name></trkpt>
<trkpt lat="53.377624" lon="-1.598173"><ele>266</ele><time>2020-05-21T11:03:43Z</time><name>PT4392</name></trkpt>
<trkpt lat="53.377638" lon="-1.598194"><ele>266</ele><time>2020-05-21T11:03:43Z</time><name>PT4393</name></trkpt>
<trkpt lat="53.377654" lon="-1.598209"><ele>267</ele><time>2020-05-21T11:03:44Z</time><name>PT4394</name></trkpt>
<trkpt lat="53.377666" lon="-1.598216"><ele>267</ele><time>2020-05-21T11:03:46Z</time><name>PT4395</name></trkpt>
<trkpt lat="53.377672" lon="-1.598228"><ele>265</ele><time>2020-05-21T11:03:46Z</time><name>PT4396</name></trkpt>
<trkpt lat="53.377680" lon="-1.598237"><ele>264</ele><time>2020-05-21T11:03:47Z</time><name>PT4397</name></trkpt>
<trkpt lat="53.377693" lon="-1.598256"><ele>264</ele><time>2020-05-21T11:03:49Z</time><name>PT4398</name></trkpt>
<trkpt lat="53.377703" lon="-1.598269"><ele>264</ele><time>2020-05-21T11:03:49Z</time><name>PT4399</name></trkpt>
<trkpt lat="53.377710" lon="-1.598287"><ele>263</ele><time>2020-05-21T11:03:50Z</time><name>PT4400</name></trkpt>
<trkpt lat="53.377715" lon="-1.598303"><ele>262</ele><time>2020-05-21T11:03:52Z</time><name>PT4401</name></trkpt>
<trkpt lat="53.377718" lon="-1.598317"><ele>261</ele><time>2020-05-21T11:03:52Z</time><name>PT4402</name></trkpt>
<trkpt lat="53.377716" lon="-1.598329"><ele>259</ele><time>2020-05-21T11:03:53Z</time><name>PT4403</name></trkpt>
<trkpt lat="53.377724" lon="-1.598348"><ele>259</ele><time>2020-05-21T11:03:55Z</time><name>PT4404</name></trkpt>
<trkpt lat="53.377741" lon="-1.598365"><ele>260</ele><time>2020-05-21T11:03:55Z</time><name>PT4405</name></trkpt>
<trkpt lat="53.377750" lon="-1.598379"><ele>261</ele><time>2020-05-21T11:03:56Z</time><name>PT4406</name></trkpt>
<trkpt lat="53.377760" lon="-1.598388"><ele>262</ele><time>2020-05-21T11:03:58Z</time><name>PT4407</name></trkpt>
<trkpt lat="53.377767" lon="-1.598399"><ele>262</ele><time>2020-05-21T11:03:58Z</time><name>PT4408</name></trkpt>
<trkpt lat="53.377782" lon="-1.598409"><ele>263</ele><time>2020-05-21T11:03:59Z</time><name>PT4409</name></trkpt>
<trkpt lat="53.377789" lon="-1.598425"><ele>262</ele><time>2020-05-21T11:04:01Z</time><name>PT4410</name></trkpt>
<trkpt lat="53.377802" lon="-1.598440"><ele>263</ele><time>2020-05-21T11:04:01Z</time><name>PT4411</name></trkpt>
<trkpt lat="53.377807" lon="-1.598456"><ele>263</ele><time>2020-05-21T11:04:02Z</time><name>PT4412</name></trkpt>
<trkpt lat="53.377815" lon="-1.598473"><ele>263</ele><time>2020-05-21T11:04:04Z</time><name>PT4413</name></trkpt>
<trkpt lat="53.377819" lon="-1.598486"><ele>263</ele><time>2020-05-21T11:04:04Z</time><name>PT4414</name></trkpt>
<trkpt lat="53.377826" lon="-1.598497"><ele>263</ele><time>2020-05-21T11:04:05Z</time><name>PT4415</name></trkpt>
<trkpt lat="53.377832" lon="-1.598506"><ele>262</ele><time>2020-05-21T11:04:07Z</time><name>PT4416</name></trkpt>
<trkpt lat="53.377843" lon="-1.598520"><ele>263</ele><time>2020-05-21T11:04:07Z</time><name>PT4417</name></trkpt>
<trkpt lat="53.377851" lon="-1.598541"><ele>263</ele><time>2020-05-21T11:04:08Z</time><name>PT4418</name></trkpt>
<trkpt lat="53.377861" lon="-1.598562"><ele>263</ele><time>2020-05-21T11:04:10Z</time><name>PT4419</name></trkpt>
<trkpt lat="53.377870" lon="-1.598581"><ele>263</ele><time>2020-05-21T11:04:10Z</time><name>PT4420</name></trkpt>
<trkpt lat="53.377878" lon="-1.598594"><ele>263</ele><time>2020-05-21T11:04:11Z</time><name>PT4421</name></trkpt>
<trkpt lat="53.377887" lon="-1.598608"><ele>263</ele><time>2020-05-21T11:04:13Z</time><name>PT4422</name></trkpt>
<trkpt lat="53.377892" lon="-1.598624"><ele>263</ele><time>2020-05-21T11:04:13Z</time><name>PT4423</name></trkpt>
<trkpt lat="53.377897" lon="-1.598637"><ele>263</ele><time>2020-05-21T11:04:14Z</time><name>PT4424</name></trkpt>
<trkpt lat="53.377897" lon="-1.598648"><ele>262</ele><time>2020-05-21T11:04:16Z</time><name>PT4425</name></trkpt>
<trkpt lat="53.377909" lon="-1.598666"><ele>262</ele><time>2020-05-21T11:04:16Z</time><name>PT4426</name></trkpt>
<trkpt lat="53.377920" lon="-1.598684"><ele>262</ele><time>2020-05-21T11:04:17Z</time><name>PT4427</name></trkpt>
<trkpt lat="53.377931" lon="-1.598696"><ele>263</ele><time>2020-05-21T11:04:19Z</time><name>PT4428</name></trkpt>
<trkpt lat="53.377943" lon="-1.598709"><ele>264</ele><time>2020-05-21T11:04:19Z</time><name>PT4429</name></trkpt>
<trkpt lat="53.377952" lon="-1.598719"><ele>264</ele><time>2020-05-21T11:04:20Z</time><name>PT4430</name></trkpt>
<trkpt lat="53.377953" lon="-1.598732"><ele>264</ele><time>2020-05-21T11:04:22Z</time><name>PT4431</name></trkpt>
<trkpt lat="53.377956" lon="-1.598753"><ele>263</ele><time>2020-05-21T11:04:22Z</time><name>PT4432</name></trkpt>
<trkpt lat="53.377962" lon="-1.598780"><ele>264</ele><time>2020-05-21T11:04:23Z</time><name>PT4433</name></trkpt>
<trkpt lat="53.377972" lon="-1.598796"><ele>264</ele><time>2020-05-21T11:04:25Z</time><name>PT4434</name></trkpt>
<trkpt lat="53.377979" lon="-1.598806"><ele>263</ele><time>2020-05-21T11:04:25Z</time><name>PT4435</name></trkpt>
<trkpt lat="53.377984" lon="-1.598816"><ele>263</ele><time>2020-05-21T11:04:26Z</time><name>PT4436</name></trkpt>
<trkpt lat="53.377993" lon="-1.598831"><ele>262</ele><time>2020-05-21T11:04:28Z</time><name>PT4437</name></trkpt>
<trkpt lat="53.378007" lon="-1.598845"><ele>261</ele><time>2020-05-21T11:04:28Z</time><name>PT4438</name></trkpt>
<trkpt lat="53.378022" lon="-1.598872"><ele>260</ele><time>2020-05-21T11:04:29Z</time><name>PT4439</name></trkpt>
<trkpt lat="53.378035" lon="-1.598892"><ele>259</ele><time>2020-05-21T11:04:31Z</time><name>PT4440</name></trkpt>
<trkpt lat="53.378043" lon="-1.598906"><ele>259</ele><time>2020-05-21T11:04:31Z</time><name>PT4441</name></trkpt>
<trkpt lat="53.378048" lon="-1.598920"><ele>259</ele><time>2020-05-21T11:04:32Z</time><name>PT4442</name></trkpt>
<trkpt lat="53.378052" lon="-1.598934"><ele>258</ele><time>2020-05-21T11:04:34Z</time><name>PT4443</name></trkpt>
<trkpt lat="53.378058" lon="-1.598944"><ele>258</ele><time>2020-05-21T11:04:34Z</time><name>PT4444</name></trkpt>
<trkpt lat="53.378063" lon="-1.598961"><ele>259</ele><time>2020-05-21T11:04:36Z</time><name>PT4445</name></trkpt>
<trkpt lat="53.378070" lon="-1.598976"><ele>258</ele><time>2020-05-21T11:04:37Z</time><name>PT4446</name></trkpt>
<trkpt lat="53.378076" lon="-1.598995"><ele>258</ele><time>2020-05-21T11:04:37Z</time><name>PT4447</name></trkpt>
<trkpt lat="53.378082" lon="-1.599006"><ele>258</ele><time>2020-05-21T11:04:38Z</time><name>PT4448</name></trkpt>
<trkpt lat="53.378086" lon="-1.599016"><ele>257</ele><time>2020-05-21T11:04:40Z</time><name>PT4449</name></trkpt>
<trkpt lat="53.378095" lon="-1.599028"><ele>256</ele><time>2020-05-21T11:04:40Z</time><name>PT4450</name></trkpt>
<trkpt lat="53.378107" lon="-1.599043"><ele>256</ele><time>2020-05-21T11:04:42Z</time><name>PT4451</name></trkpt>
<trkpt lat="53.378113" lon="-1.599063"><ele>257</ele><time>2020-05-21T11:04:43Z</time><name>PT4452</name></trkpt>
<trkpt lat="53.378124" lon="-1.599080"><ele>258</ele><time>2020-05-21T11:04:43Z</time><name>PT4453</name></trkpt>
<trkpt lat="53.378136" lon="-1.599099"><ele>257</ele><time>2020-05-21T11:04:44Z</time><name>PT4454</name></trkpt>
<trkpt lat="53.378144" lon="-1.599115"><ele>258</ele><time>2020-05-21T11:04:46Z</time><name>PT4455</name></trkpt>
<trkpt lat="53.378160" lon="-1.599134"><ele>260</ele><time>2020-05-21T11:04:46Z</time><name>PT4456</name></trkpt>
<trkpt lat="53.378169" lon="-1.599166"><ele>261</ele><time>2020-05-21T11:04:47Z</time><name>PT4457</name></trkpt>
<trkpt lat="53.378173" lon="-1.599185"><ele>261</ele><time>2020-05-21T11:04:49Z</time><name>PT4458</name></trkpt>
<trkpt lat="53.378185" lon="-1.599198"><ele>262</ele><time>2020-05-21T11:04:49Z</time><name>PT4459</name></trkpt>
<trkpt lat="53.378193" lon="-1.599213"><ele>262</ele><time>2020-05-21T11:04:50Z</time><name>PT4460</name></trkpt>
<trkpt lat="53.378207" lon="-1.599226"><ele>263</ele><time>2020-05-21T11:04:52Z</time><name>PT4461</name></trkpt>
<trkpt lat="53.378218" lon="-1.599240"><ele>263</ele><time>2020-05-21T11:04:52Z</time><name>PT4462</name></trkpt>
<trkpt lat="53.378236" lon="-1.599254"><ele>265</ele><time>2020-05-21T11:04:53Z</time><name>PT4463</name></trkpt>
<trkpt lat="53.378247" lon="-1.599269"><ele>264</ele><time>2020-05-21T11:04:55Z</time><name>PT4464</name></trkpt>
<trkpt lat="53.378253" lon="-1.599284"><ele>264</ele><time>2020-05-21T11:04:55Z</time><name>PT4465</name></trkpt>
<trkpt lat="53.378259" lon="-1.599308"><ele>264</ele><time>2020-05-21T11:04:56Z</time><name>PT4466</name></trkpt>
<trkpt lat="53.378270" lon="-1.599332"><ele>264</ele><time>2020-05-21T11:04:58Z</time><name>PT4467</name></trkpt>
<trkpt lat="53.378278" lon="-1.599355"><ele>265</ele><time>2020-05-21T11:04:58Z</time><name>PT4468</name></trkpt>
<trkpt lat="53.378286" lon="-1.599374"><ele>266</ele><time>2020-05-21T11:04:59Z</time><name>PT4469</name></trkpt>
<trkpt lat="53.378302" lon="-1.599396"><ele>267</ele><time>2020-05-21T11:05:01Z</time><name>PT4470</name></trkpt>
<trkpt lat="53.378303" lon="-1.599411"><ele>268</ele><time>2020-05-21T11:05:01Z</time><name>PT4471</name></trkpt>
<trkpt lat="53.378308" lon="-1.599427"><ele>267</ele><time>2020-05-21T11:05:02Z</time><name>PT4472</name></trkpt>
<trkpt lat="53.378310" lon="-1.599457"><ele>267</ele><time>2020-05-21T11:05:04Z</time><name>PT4473</name></trkpt>
<trkpt lat="53.378308" lon="-1.599482"><ele>266</ele><time>2020-05-21T11:05:04Z</time><name>PT4474</name></trkpt>
<trkpt lat="53.378315" lon="-1.599503"><ele>267</ele><time>2020-05-21T11:05:05Z</time><name>PT4475</name></trkpt>
<trkpt lat="53.378330" lon="-1.599523"><ele>269</ele><time>2020-05-21T11:05:07Z</time><name>PT4476</name></trkpt>
<trkpt lat="53.378336" lon="-1.599538"><ele>270</ele><time>2020-05-21T11:05:07Z</time><name>PT4477</name></trkpt>
<trkpt lat="53.378340" lon="-1.599554"><ele>270</ele><time>2020-05-21T11:05:08Z</time><name>PT4478</name></trkpt>
<trkpt lat="53.378341" lon="-1.599569"><ele>269</ele><time>2020-05-21T11:05:10Z</time><name>PT4479</name></trkpt>
<trkpt lat="53.378343" lon="-1.599604"><ele>270</ele><time>2020-05-21T11:05:10Z</time><name>PT4480</name></trkpt>
<trkpt lat="53.378354" lon="-1.599629"><ele>270</ele><time>2020-05-21T11:05:11Z</time><name>PT4481</name></trkpt>
<trkpt lat="53.378360" lon="-1.599651"><ele>270</ele><time>2020-05-21T11:05:13Z</time><name>PT4482</name></trkpt>
<trkpt lat="53.378370" lon="-1.599673"><ele>271</ele><time>2020-05-21T11:05:13Z</time><name>PT4483</name></trkpt>
<trkpt lat="53.378376" lon="-1.599685"><ele>271</ele><time>2020-05-21T11:05:14Z</time><name>PT4484</name></trkpt>
<trkpt lat="53.378375" lon="-1.599698"><ele>270</ele><time>2020-05-21T11:05:16Z</time><name>PT4485</name></trkpt>
<trkpt lat="53.378374" lon="-1.599713"><ele>268</ele><time>2020-05-21T11:05:16Z</time><name>PT4486</name></trkpt>
<trkpt lat="53.378384" lon="-1.599719"><ele>268</ele><time>2020-05-21T11:05:17Z</time><name>PT4487</name></trkpt>
<trkpt lat="53.378391" lon="-1.599737"><ele>267</ele><time>2020-05-21T11:05:19Z</time><name>PT4488</name></trkpt>
<trkpt lat="53.378393" lon="-1.599762"><ele>267</ele><time>2020-05-21T11:05:19Z</time><name>PT4489</name></trkpt>
<trkpt lat="53.378403" lon="-1.599782"><ele>268</ele><time>2020-05-21T11:05:20Z</time><name>PT4490</name></trkpt>
<trkpt lat="53.378412" lon="-1.599796"><ele>268</ele><time>2020-05-21T11:05:22Z</time><name>PT4491</name></trkpt>
<trkpt lat="53.378416" lon="-1.599810"><ele>268</ele><time>2020-05-21T11:05:22Z</time><name>PT4492</name></trkpt>
<trkpt lat="53.378422" lon="-1.599824"><ele>268</ele><time>2020-05-21T11:05:23Z</time><name>PT4493</name></trkpt>
<trkpt lat="53.378423" lon="-1.599851"><ele>268</ele><time>2020-05-21T11:05:25Z</time><name>PT4494</name></trkpt>
<trkpt lat="53.378427" lon="-1.599877"><ele>268</ele><time>2020-05-21T11:05:25Z</time><name>PT4495</name></trkpt>
<trkpt lat="53.378433" lon="-1.599907"><ele>269</ele><time>2020-05-21T11:05:26Z</time><name>PT4496</name></trkpt>
<trkpt lat="53.378440" lon="-1.599931"><ele>268</ele><time>2020-05-21T11:05:28Z</time><name>PT4497</name></trkpt>
<trkpt lat="53.378441" lon="-1.599953"><ele>268</ele><time>2020-05-21T11:05:28Z</time><name>PT4498</name></trkpt>
<trkpt lat="53.378438" lon="-1.599974"><ele>266</ele><time>2020-05-21T11:05:29Z</time><name>PT4499</name></trkpt>
<trkpt lat="53.378443" lon="-1.600004"><ele>267</ele><time>2020-05-21T11:05:31Z</time><name>PT4500</name></trkpt>
<trkpt lat="53.378448" lon="-1.600028"><ele>267</ele><time>2020-05-21T11:05:31Z</time><name>PT4501</name></trkpt>
<trkpt lat="53.378451" lon="-1.600047"><ele>266</ele><time>2020-05-21T11:05:32Z</time><name>PT4502</name></trkpt>
<trkpt lat="53.378462" lon="-1.600067"><ele>266</ele><time>2020-05-21T11:05:34Z</time><name>PT4503</name></trkpt>
<trkpt lat="53.378468" lon="-1.600082"><ele>266</ele><time>2020-05-21T11:05:34Z</time><name>PT4504</name></trkpt>
<trkpt lat="53.378477" lon="-1.600099"><ele>266</ele><time>2020-05-21T11:05:35Z</time><name>PT4505</name></trkpt>
<trkpt lat="53.378475" lon="-1.600120"><ele>265</ele><time>2020-05-21T11:05:37Z</time><name>PT4506</name></trkpt>
<trkpt lat="53.378478" lon="-1.600140"><ele>266</ele><time>2020-05-21T11:05:37Z</time><name>PT4507</name></trkpt>
<trkpt lat="53.378490" lon="-1.600159"><ele>267</ele><time>2020-05-21T11:05:38Z</time><name>PT4508</name></trkpt>
<trkpt lat="53.378503" lon="-1.600181"><ele>268</ele><time>2020-05-21T11:05:40Z</time><name>PT4509</name></trkpt>
<trkpt lat="53.378510" lon="-1.600206"><ele>269</ele><time>2020-05-21T11:05:40Z</time><name>PT4510</name></trkpt>
<trkpt lat="53.378519" lon="-1.600226"><ele>269</ele><time>2020-05-21T11:05:41Z</time><name>PT4511</name></trkpt>
<trkpt lat="53.378523" lon="-1.600239"><ele>269</ele><time>2020-05-21T11:05:43Z</time><name>PT4512</name></trkpt>
<trkpt lat="53.378520" lon="-1.600268"><ele>266</ele><time>2020-05-21T11:05:43Z</time><name>PT4513</name></trkpt>
<trkpt lat="53.378520" lon="-1.600291"><ele>266</ele><time>2020-05-21T11:05:44Z</time><name>PT4514</name></trkpt>
<trkpt lat="53.378527" lon="-1.600308"><ele>266</ele><time>2020-05-21T11:05:46Z</time><name>PT4515</name></trkpt>
<trkpt lat="53.378539" lon="-1.600329"><ele>266</ele><time>2020-05-21T11:05:46Z</time><name>PT4516</name></trkpt>
<trkpt lat="53.378550" lon="-1.600347"><ele>266</ele><time>2020-05-21T11:05:47Z</time><name>PT4517</name></trkpt>
<trkpt lat="53.378562" lon="-1.600372"><ele>266</ele><time>2020-05-21T11:05:49Z</time><name>PT4518</name></trkpt>
<trkpt lat="53.378574" lon="-1.600403"><ele>267</ele><time>2020-05-21T11:05:49Z</time><name>PT4519</name></trkpt>
<trkpt lat="53.378580" lon="-1.600426"><ele>266</ele><time>2020-05-21T11:05:50Z</time><name>PT4520</name></trkpt>
<trkpt lat="53.378589" lon="-1.600451"><ele>265</ele><time>2020-05-21T11:05:52Z</time><name>PT4521</name></trkpt>
<trkpt lat="53.378597" lon="-1.600473"><ele>265</ele><time>2020-05-21T11:05:52Z</time><name>PT4522</name></trkpt>
<trkpt lat="53.378602" lon="-1.600486"><ele>265</ele><time>2020-05-21T11:05:53Z</time><name>PT4523</name></trkpt>
<trkpt lat="53.378594" lon="-1.600510"><ele>263</ele><time>2020-05-21T11:05:55Z</time><name>PT4524</name></trkpt>
<trkpt lat="53.378597" lon="-1.600523"><ele>262</ele><time>2020-05-21T11:05:55Z</time><name>PT4525</name></trkpt>
<trkpt lat="53.378601" lon="-1.600540"><ele>262</ele><time>2020-05-21T11:05:56Z</time><name>PT4526</name></trkpt>
<trkpt lat="53.378607" lon="-1.600566"><ele>262</ele><time>2020-05-21T11:05:58Z</time><name>PT4527</name></trkpt>
<trkpt lat="53.378603" lon="-1.600585"><ele>260</ele><time>2020-05-21T11:05:58Z</time><name>PT4528</name></trkpt>
<trkpt lat="53.378616" lon="-1.600600"><ele>260</ele><time>2020-05-21T11:05:59Z</time><name>PT4529</name></trkpt>
<trkpt lat="53.378630" lon="-1.600618"><ele>260</ele><time>2020-05-21T11:06:01Z</time><name>PT4530</name></trkpt>
<trkpt lat="53.378635" lon="-1.600633"><ele>260</ele><time>2020-05-21T11:06:01Z</time><name>PT4531</name></trkpt>
<trkpt lat="53.378637" lon="-1.600653"><ele>259</ele><time>2020-05-21T11:06:02Z</time><name>PT4532</name></trkpt>
<trkpt lat="53.378643" lon="-1.600666"><ele>259</ele><time>2020-05-21T11:06:04Z</time><name>PT4533</name></trkpt>
<trkpt lat="53.378650" lon="-1.600681"><ele>260</ele><time>2020-05-21T11:06:04Z</time><name>PT4534</name></trkpt>
<trkpt lat="53.378664" lon="-1.600701"><ele>261</ele><time>2020-05-21T11:06:05Z</time><name>PT4535</name></trkpt>
<trkpt lat="53.378680" lon="-1.600738"><ele>264</ele><time>2020-05-21T11:06:07Z</time><name>PT4536</name></trkpt>
<trkpt lat="53.378684" lon="-1.600759"><ele>264</ele><time>2020-05-21T11:06:07Z</time><name>PT4537</name></trkpt>
<trkpt lat="53.378691" lon="-1.600777"><ele>265</ele><time>2020-05-21T11:06:08Z</time><name>PT4538</name></trkpt>
<trkpt lat="53.378700" lon="-1.600793"><ele>265</ele><time>2020-05-21T11:06:10Z</time><name>PT4539</name></trkpt>
<trkpt lat="53.378707" lon="-1.600803"><ele>264</ele><time>2020-05-21T11:06:10Z</time><name>PT4540</name></trkpt>
<trkpt lat="53.378711" lon="-1.600819"><ele>264</ele><time>2020-05-21T11:06:11Z</time><name>PT4541</name></trkpt>
<trkpt lat="53.378712" lon="-1.600855"><ele>263</ele><time>2020-05-21T11:06:13Z</time><name>PT4542</name></trkpt>
<trkpt lat="53.378713" lon="-1.600881"><ele>263</ele><time>2020-05-21T11:06:13Z</time><name>PT4543</name></trkpt>
<trkpt lat="53.378718" lon="-1.600907"><ele>262</ele><time>2020-05-21T11:06:14Z</time><name>PT4544</name></trkpt>
<trkpt lat="53.378726" lon="-1.600931"><ele>263</ele><time>2020-05-21T11:06:16Z</time><name>PT4545</name></trkpt>
<trkpt lat="53.378729" lon="-1.600945"><ele>262</ele><time>2020-05-21T11:06:16Z</time><name>PT4546</name></trkpt>
<trkpt lat="53.378733" lon="-1.600963"><ele>262</ele><time>2020-05-21T11:06:17Z</time><name>PT4547</name></trkpt>
<trkpt lat="53.378737" lon="-1.600987"><ele>262</ele><time>2020-05-21T11:06:19Z</time><name>PT4548</name></trkpt>
<trkpt lat="53.378739" lon="-1.601015"><ele>261</ele><time>2020-05-21T11:06:19Z</time><name>PT4549</name></trkpt>
<trkpt lat="53.378749" lon="-1.601044"><ele>262</ele><time>2020-05-21T11:06:20Z</time><name>PT4550</name></trkpt>
<trkpt lat="53.378758" lon="-1.601058"><ele>263</ele><time>2020-05-21T11:06:22Z</time><name>PT4551</name></trkpt>
<trkpt lat="53.378753" lon="-1.601074"><ele>261</ele><time>2020-05-21T11:06:22Z</time><name>PT4552</name></trkpt>
<trkpt lat="53.378754" lon="-1.601088"><ele>262</ele><time>2020-05-21T11:06:23Z</time><name>PT4553</name></trkpt>
<trkpt lat="53.378760" lon="-1.601112"><ele>263</ele><time>2020-05-21T11:06:25Z</time><name>PT4554</name></trkpt>
<trkpt lat="53.378767" lon="-1.601140"><ele>263</ele><time>2020-05-21T11:06:25Z</time><name>PT4555</name></trkpt>
<trkpt lat="53.378779" lon="-1.601166"><ele>264</ele><time>2020-05-21T11:06:26Z</time><name>PT4556</name></trkpt>
<trkpt lat="53.378788" lon="-1.601189"><ele>264</ele><time>2020-05-21T11:06:28Z</time><name>PT4557</name></trkpt>
<trkpt lat="53.378792" lon="-1.601212"><ele>263</ele><time>2020-05-21T11:06:28Z</time><name>PT4558</name></trkpt>
<trkpt lat="53.378798" lon="-1.601225"><ele>263</ele><time>2020-05-21T11:06:29Z</time><name>PT4559</name></trkpt>
<trkpt lat="53.378808" lon="-1.601247"><ele>264</ele><time>2020-05-21T11:06:31Z</time><name>PT4560</name></trkpt>
<trkpt lat="53.378815" lon="-1.601270"><ele>264</ele><time>2020-05-21T11:06:31Z</time><name>PT4561</name></trkpt>
<trkpt lat="53.378824" lon="-1.601290"><ele>265</ele><time>2020-05-21T11:06:32Z</time><name>PT4562</name></trkpt>
<trkpt lat="53.378831" lon="-1.601308"><ele>266</ele><time>2020-05-21T11:06:34Z</time><name>PT4563</name></trkpt>
<trkpt lat="53.378837" lon="-1.601323"><ele>266</ele><time>2020-05-21T11:06:34Z</time><name>PT4564</name></trkpt>
<trkpt lat="53.378841" lon="-1.601337"><ele>265</ele><time>2020-05-21T11:06:35Z</time><name>PT4565</name></trkpt>
<trkpt lat="53.378850" lon="-1.601353"><ele>265</ele><time>2020-05-21T11:06:37Z</time><name>PT4566</name></trkpt>
<trkpt lat="53.378851" lon="-1.601372"><ele>265</ele><time>2020-05-21T11:06:37Z</time><name>PT4567</name></trkpt>
<trkpt lat="53.378860" lon="-1.601392"><ele>265</ele><time>2020-05-21T11:06:38Z</time><name>PT4568</name></trkpt>
<trkpt lat="53.378872" lon="-1.601410"><ele>266</ele><time>2020-05-21T11:06:40Z</time><name>PT4569</name></trkpt>
<trkpt lat="53.378882" lon="-1.601423"><ele>266</ele><time>2020-05-21T11:06:40Z</time><name>PT4570</name></trkpt>
<trkpt lat="53.378877" lon="-1.601451"><ele>263</ele><time>2020-05-21T11:06:41Z</time><name>PT4571</name></trkpt>
<trkpt lat="53.378876" lon="-1.601465"><ele>261</ele><time>2020-05-21T11:06:43Z</time><name>PT4572</name></trkpt>
<trkpt lat="53.378882" lon="-1.601483"><ele>261</ele><time>2020-05-21T11:06:43Z</time><name>PT4573</name></trkpt>
<trkpt lat="53.378891" lon="-1.601502"><ele>262</ele><time>2020-05-21T11:06:44Z</time><name>PT4574</name></trkpt>
<trkpt lat="53.378907" lon="-1.601526"><ele>263</ele><time>2020-05-21T11:06:46Z</time><name>PT4575</name></trkpt>
<trkpt lat="53.378915" lon="-1.601550"><ele>264</ele><time>2020-05-21T11:06:46Z</time><name>PT4576</name></trkpt>
<trkpt lat="53.378917" lon="-1.601570"><ele>263</ele><time>2020-05-21T11:06:47Z</time><name>PT4577</name></trkpt>
<trkpt lat="53.378924" lon="-1.601618"><ele>263</ele><time>2020-05-21T11:06:49Z</time><name>PT4578</name></trkpt>
<trkpt lat="53.378931" lon="-1.601651"><ele>262</ele><time>2020-05-21T11:06:49Z</time><name>PT4579</name></trkpt>
<trkpt lat="53.378938" lon="-1.601673"><ele>264</ele><time>2020-05-21T11:06:50Z</time><name>PT4580</name></trkpt>
<trkpt lat="53.378942" lon="-1.601695"><ele>264</ele><time>2020-05-21T11:06:52Z</time><name>PT4581</name></trkpt>
<trkpt lat="53.378944" lon="-1.601707"><ele>264</ele><time>2020-05-21T11:06:52Z</time><name>PT4582</name></trkpt>
<trkpt lat="53.378942" lon="-1.601726"><ele>264</ele><time>2020-05-21T11:06:53Z</time><name>PT4583</name></trkpt>
<trkpt lat="53.378954" lon="-1.601747"><ele>264</ele><time>2020-05-21T11:06:55Z</time><name>PT4584</name></trkpt>
<trkpt lat="53.378957" lon="-1.601768"><ele>264</ele><time>2020-05-21T11:06:55Z</time><name>PT4585</name></trkpt>
<trkpt lat="53.378963" lon="-1.601787"><ele>264</ele><time>2020-05-21T11:06:56Z</time><name>PT4586</name></trkpt>
<trkpt lat="53.378972" lon="-1.601804"><ele>264</ele><time>2020-05-21T11:06:58Z</time><name>PT4587</name></trkpt>
<trkpt lat="53.378982" lon="-1.601817"><ele>264</ele><time>2020-05-21T11:06:58Z</time><name>PT4588</name></trkpt>
<trkpt lat="53.378982" lon="-1.601829"><ele>265</ele><time>2020-05-21T11:06:59Z</time><name>PT4589</name></trkpt>
<trkpt lat="53.378976" lon="-1.601832"><ele>265</ele><time>2020-05-21T11:07:01Z</time><name>PT4590</name></trkpt>
<trkpt lat="53.378974" lon="-1.601846"><ele>265</ele><time>2020-05-21T11:07:01Z</time><name>PT4591</name></trkpt>
<trkpt lat="53.378974" lon="-1.601860"><ele>265</ele><time>2020-05-21T11:07:02Z</time><name>PT4592</name></trkpt>
<trkpt lat="53.378967" lon="-1.601876"><ele>264</ele><time>2020-05-21T11:07:04Z</time><name>PT4593</name></trkpt>
<trkpt lat="53.378966" lon="-1.601895"><ele>263</ele><time>2020-05-21T11:07:04Z</time><name>PT4594</name></trkpt>
<trkpt lat="53.378967" lon="-1.601911"><ele>264</ele><time>2020-05-21T11:07:05Z</time><name>PT4595</name></trkpt>
<trkpt lat="53.378971" lon="-1.601929"><ele>265</ele><time>2020-05-21T11:07:07Z</time><name>PT4596</name></trkpt>
<trkpt lat="53.378970" lon="-1.601949"><ele>265</ele><time>2020-05-21T11:07:07Z</time><name>PT4597</name></trkpt>
<trkpt lat="53.378967" lon="-1.601970"><ele>265</ele><time>2020-05-21T11:07:08Z</time><name>PT4598</name></trkpt>
<trkpt lat="53.378976" lon="-1.601991"><ele>266</ele><time>2020-05-21T11:07:10Z</time><name>PT4599</name></trkpt>
<trkpt lat="53.378981" lon="-1.602007"><ele>266</ele><time>2020-05-21T11:07:10Z</time><name>PT4600</name></trkpt>
<trkpt lat="53.378996" lon="-1.602027"><ele>266</ele><time>2020-05-21T11:07:11Z</time><name>PT4601</name></trkpt>
<trkpt lat="53.379012" lon="-1.602050"><ele>266</ele><time>2020-05-21T11:07:13Z</time><name>PT4602</name></trkpt>
<trkpt lat="53.379029" lon="-1.602066"><ele>268</ele><time>2020-05-21T11:07:13Z</time><name>PT4603</name></trkpt>
<trkpt lat="53.379038" lon="-1.602080"><ele>269</ele><time>2020-05-21T11:07:14Z</time><name>PT4604</name></trkpt>
<trkpt lat="53.379046" lon="-1.602097"><ele>269</ele><time>2020-05-21T11:07:16Z</time><name>PT4605</name></trkpt>
<trkpt lat="53.379051" lon="-1.602115"><ele>268</ele><time>2020-05-21T11:07:16Z</time><name>PT4606</name></trkpt>
<trkpt lat="53.379051" lon="-1.602137"><ele>268</ele><time>2020-05-21T11:07:17Z</time><name>PT4607</name></trkpt>
<trkpt lat="53.379054" lon="-1.602155"><ele>269</ele><time>2020-05-21T11:07:19Z</time><name>PT4608</name></trkpt>
<trkpt lat="53.379060" lon="-1.602173"><ele>268</ele><time>2020-05-21T11:07:19Z</time><name>PT4609</name></trkpt>
<trkpt lat="53.379064" lon="-1.602192"><ele>269</ele><time>2020-05-21T11:07:20Z</time><name>PT4610</name></trkpt>
<trkpt lat="53.379068" lon="-1.602203"><ele>268</ele><time>2020-05-21T11:07:22Z</time><name>PT4611</name></trkpt>
<trkpt lat="53.379072" lon="-1.602217"><ele>269</ele><time>2020-05-21T11:07:22Z</time><name>PT4612</name></trkpt>
<trkpt lat="53.379083" lon="-1.602235"><ele>270</ele><time>2020-05-21T11:07:23Z</time><name>PT4613</name></trkpt>
<trkpt lat="53.379089" lon="-1.602240"><ele>270</ele><time>2020-05-21T11:07:25Z</time><name>PT4614</name></trkpt>
<trkpt lat="53.379093" lon="-1.602251"><ele>270</ele><time>2020-05-21T11:07:25Z</time><name>PT4615</name></trkpt>
<trkpt lat="53.379095" lon="-1.602262"><ele>269</ele><time>2020-05-21T11:07:26Z</time><name>PT4616</name></trkpt>
<trkpt lat="53.379098" lon="-1.602283"><ele>269</ele><time>2020-05-21T11:07:28Z</time><name>PT4617</name></trkpt>
<trkpt lat="53.379108" lon="-1.602306"><ele>269</ele><time>2020-05-21T11:07:28Z</time><name>PT4618</name></trkpt>
<trkpt lat="53.379123" lon="-1.602320"><ele>268</ele><time>2020-05-21T11:07:29Z</time><name>PT4619</name></trkpt>
<trkpt lat="53.379127" lon="-1.602338"><ele>268</ele><time>2020-05-21T11:07:31Z</time><name>PT4620</name></trkpt>
<trkpt lat="53.379134" lon="-1.602355"><ele>267</ele><time>2020-05-21T11:07:31Z</time><name>PT4621</name></trkpt>
<trkpt lat="53.379139" lon="-1.602369"><ele>270</ele><time>2020-05-21T11:07:32Z</time><name>PT4622</name></trkpt>
<trkpt lat="53.379143" lon="-1.602381"><ele>270</ele><time>2020-05-21T11:07:34Z</time><name>PT4623</name></trkpt>
<trkpt lat="53.379147" lon="-1.602393"><ele>270</ele><time>2020-05-21T11:07:34Z</time><name>PT4624</name></trkpt>
<trkpt lat="53.379151" lon="-1.602414"><ele>270</ele><time>2020-05-21T11:07:35Z</time><name>PT4625</name></trkpt>
<trkpt lat="53.379159" lon="-1.602433"><ele>270</ele><time>2020-05-21T11:07:37Z</time><name>PT4626</name></trkpt>
<trkpt lat="53.379169" lon="-1.602453"><ele>270</ele><time>2020-05-21T11:07:37Z</time><name>PT4627</name></trkpt>
<trkpt lat="53.379167" lon="-1.602476"><ele>268</ele><time>2020-05-21T11:07:39Z</time><name>PT4628</name></trkpt>
<trkpt lat="53.379176" lon="-1.602497"><ele>267</ele><time>2020-05-21T11:07:40Z</time><name>PT4629</name></trkpt>
<trkpt lat="53.379181" lon="-1.602517"><ele>267</ele><time>2020-05-21T11:07:40Z</time><name>PT4630</name></trkpt>
<trkpt lat="53.379185" lon="-1.602532"><ele>267</ele><time>2020-05-21T11:07:41Z</time><name>PT4631</name></trkpt>
<trkpt lat="53.379190" lon="-1.602546"><ele>267</ele><time>2020-05-21T11:07:43Z</time><name>PT4632</name></trkpt>
<trkpt lat="53.379192" lon="-1.602568"><ele>266</ele><time>2020-05-21T11:07:43Z</time><name>PT4633</name></trkpt>
<trkpt lat="53.379183" lon="-1.602593"><ele>266</ele><time>2020-05-21T11:07:44Z</time><name>PT4634</name></trkpt>
<trkpt lat="53.379175" lon="-1.602614"><ele>263</ele><time>2020-05-21T11:07:46Z</time><name>PT4635</name></trkpt>
<trkpt lat="53.379172" lon="-1.602633"><ele>262</ele><time>2020-05-21T11:07:46Z</time><name>PT4636</name></trkpt>
<trkpt lat="53.379177" lon="-1.602657"><ele>261</ele><time>2020-05-21T11:07:47Z</time><name>PT4637</name></trkpt>
<trkpt lat="53.379185" lon="-1.602675"><ele>260</ele><time>2020-05-21T11:07:49Z</time><name>PT4638</name></trkpt>
<trkpt lat="53.379201" lon="-1.602697"><ele>260</ele><time>2020-05-21T11:07:49Z</time><name>PT4639</name></trkpt>
<trkpt lat="53.379208" lon="-1.602718"><ele>259</ele><time>2020-05-21T11:07:50Z</time><name>PT4640</name></trkpt>
<trkpt lat="53.379218" lon="-1.602733"><ele>258</ele><time>2020-05-21T11:07:52Z</time><name>PT4641</name></trkpt>
<trkpt lat="53.379217" lon="-1.602753"><ele>258</ele><time>2020-05-21T11:07:52Z</time><name>PT4642</name></trkpt>
<trkpt lat="53.379219" lon="-1.602768"><ele>257</ele><time>2020-05-21T11:07:53Z</time><name>PT4643</name></trkpt>
<trkpt lat="53.379262" lon="-1.602793"><ele>259</ele><time>2020-05-21T11:07:55Z</time><name>PT4644</name></trkpt>
<trkpt lat="53.379284" lon="-1.602830"><ele>261</ele><time>2020-05-21T11:07:55Z</time><name>PT4645</name></trkpt>
<trkpt lat="53.379306" lon="-1.602858"><ele>265</ele><time>2020-05-21T11:07:56Z</time><name>PT4646</name></trkpt>
<trkpt lat="53.379318" lon="-1.602884"><ele>267</ele><time>2020-05-21T11:07:58Z</time><name>PT4647</name></trkpt>
<trkpt lat="53.379322" lon="-1.602902"><ele>267</ele><time>2020-05-21T11:07:58Z</time><name>PT4648</name></trkpt>
<trkpt lat="53.379333" lon="-1.602912"><ele>267</ele><time>2020-05-21T11:07:59Z</time><name>PT4649</name></trkpt>
<trkpt lat="53.379338" lon="-1.602930"><ele>267</ele><time>2020-05-21T11:08:01Z</time><name>PT4650</name></trkpt>
<trkpt lat="53.379345" lon="-1.602946"><ele>266</ele><time>2020-05-21T11:08:01Z</time><name>PT4651</name></trkpt>
<trkpt lat="53.379351" lon="-1.602957"><ele>266</ele><time>2020-05-21T11:08:02Z</time><name>PT4652</name></trkpt>
<trkpt lat="53.379357" lon="-1.602970"><ele>266</ele><time>2020-05-21T11:08:04Z</time><name>PT4653</name></trkpt>
<trkpt lat="53.379367" lon="-1.602985"><ele>266</ele><time>2020-05-21T11:08:04Z</time><name>PT4654</name></trkpt>
<trkpt lat="53.379380" lon="-1.602997"><ele>266</ele><time>2020-05-21T11:08:05Z</time><name>PT4655</name></trkpt>
<trkpt lat="53.379389" lon="-1.603007"><ele>266</ele><time>2020-05-21T11:08:07Z</time><name>PT4656</name></trkpt>
<trkpt lat="53.379393" lon="-1.603010"><ele>266</ele><time>2020-05-21T11:08:07Z</time><name>PT4657</name></trkpt>
<trkpt lat="53.379401" lon="-1.603017"><ele>266</ele><time>2020-05-21T11:08:08Z</time><name>PT4658</name></trkpt>
<trkpt lat="53.379408" lon="-1.603024"><ele>265</ele><time>2020-05-21T11:08:10Z</time><name>PT4659</name></trkpt>
<trkpt lat="53.379422" lon="-1.603035"><ele>265</ele><time>2020-05-21T11:08:10Z</time><name>PT4660</name></trkpt>
<trkpt lat="53.379434" lon="-1.603053"><ele>264</ele><time>2020-05-21T11:08:11Z</time><name>PT4661</name></trkpt>
<trkpt lat="53.379448" lon="-1.603069"><ele>265</ele><time>2020-05-21T11:08:13Z</time><name>PT4662</name></trkpt>
<trkpt lat="53.379455" lon="-1.603084"><ele>264</ele><time>2020-05-21T11:08:13Z</time><name>PT4663</name></trkpt>
<trkpt lat="53.379462" lon="-1.603089"><ele>263</ele><time>2020-05-21T11:08:14Z</time><name>PT4664</name></trkpt>
<trkpt lat="53.379475" lon="-1.603095"><ele>263</ele><time>2020-05-21T11:08:16Z</time><name>PT4665</name></trkpt>
<trkpt lat="53.379480" lon="-1.603104"><ele>263</ele><time>2020-05-21T11:08:16Z</time><name>PT4666</name></trkpt>
<trkpt lat="53.379497" lon="-1.603115"><ele>263</ele><time>2020-05-21T11:08:17Z</time><name>PT4667</name></trkpt>
<trkpt lat="53.379513" lon="-1.603128"><ele>263</ele><time>2020-05-21T11:08:19Z</time><name>PT4668</name></trkpt>
<trkpt lat="53.379525" lon="-1.603138"><ele>263</ele><time>2020-05-21T11:08:19Z</time><name>PT4669</name></trkpt>
<trkpt lat="53.379532" lon="-1.603150"><ele>264</ele><time>2020-05-21T11:08:20Z</time><name>PT4670</name></trkpt>
<trkpt lat="53.379535" lon="-1.603174"><ele>263</ele><time>2020-05-21T11:08:22Z</time><name>PT4671</name></trkpt>
<trkpt lat="53.379551" lon="-1.603187"><ele>263</ele><time>2020-05-21T11:08:22Z</time><name>PT4672</name></trkpt>
<trkpt lat="53.379558" lon="-1.603203"><ele>264</ele><time>2020-05-21T11:08:23Z</time><name>PT4673</name></trkpt>
<trkpt lat="53.379572" lon="-1.603218"><ele>265</ele><time>2020-05-21T11:08:25Z</time><name>PT4674</name></trkpt>
<trkpt lat="53.379581" lon="-1.603230"><ele>265</ele><time>2020-05-21T11:08:25Z</time><name>PT4675</name></trkpt>
<trkpt lat="53.379589" lon="-1.603240"><ele>265</ele><time>2020-05-21T11:08:26Z</time><name>PT4676</name></trkpt>
<trkpt lat="53.379597" lon="-1.603263"><ele>266</ele><time>2020-05-21T11:08:28Z</time><name>PT4677</name></trkpt>
<trkpt lat="53.379603" lon="-1.603275"><ele>265</ele><time>2020-05-21T11:08:28Z</time><name>PT4678</name></trkpt>
<trkpt lat="53.379607" lon="-1.603284"><ele>266</ele><time>2020-05-21T11:08:29Z</time><name>PT4679</name></trkpt>
<trkpt lat="53.379613" lon="-1.603292"><ele>266</ele><time>2020-05-21T11:08:31Z</time><name>PT4680</name></trkpt>
<trkpt lat="53.379612" lon="-1.603303"><ele>266</ele><time>2020-05-21T11:08:31Z</time><name>PT4681</name></trkpt>
<trkpt lat="53.379621" lon="-1.603308"><ele>266</ele><time>2020-05-21T11:08:32Z</time><name>PT4682</name></trkpt>
<trkpt lat="53.379630" lon="-1.603311"><ele>266</ele><time>2020-05-21T11:08:34Z</time><name>PT4683</name></trkpt>
<trkpt lat="53.379644" lon="-1.603323"><ele>268</ele><time>2020-05-21T11:08:34Z</time><name>PT4684</name></trkpt>
<trkpt lat="53.379657" lon="-1.603338"><ele>267</ele><time>2020-05-21T11:08:35Z</time><name>PT4685</name></trkpt>
<trkpt lat="53.379667" lon="-1.603351"><ele>268</ele><time>2020-05-21T11:08:37Z</time><name>PT4686</name></trkpt>
<trkpt lat="53.379676" lon="-1.603362"><ele>268</ele><time>2020-05-21T11:08:37Z</time><name>PT4687</name></trkpt>
<trkpt lat="53.379680" lon="-1.603368"><ele>266</ele><time>2020-05-21T11:08:38Z</time><name>PT4688</name></trkpt>
<trkpt lat="53.379679" lon="-1.603373"><ele>266</ele><time>2020-05-21T11:08:40Z</time><name>PT4689</name></trkpt>
<trkpt lat="53.379679" lon="-1.603377"><ele>265</ele><time>2020-05-21T11:08:40Z</time><name>PT4690</name></trkpt>
<trkpt lat="53.379678" lon="-1.603379"><ele>265</ele><time>2020-05-21T11:08:41Z</time><name>PT4691</name></trkpt>
<trkpt lat="53.379681" lon="-1.603393"><ele>264</ele><time>2020-05-21T11:08:47Z</time><name>PT4692</name></trkpt>
<trkpt lat="53.379691" lon="-1.603397"><ele>264</ele><time>2020-05-21T11:08:49Z</time><name>PT4693</name></trkpt>
<trkpt lat="53.379698" lon="-1.603395"><ele>263</ele><time>2020-05-21T11:08:49Z</time><name>PT4694</name></trkpt>
<trkpt lat="53.379706" lon="-1.603388"><ele>263</ele><time>2020-05-21T11:08:50Z</time><name>PT4695</name></trkpt>
<trkpt lat="53.379717" lon="-1.603382"><ele>262</ele><time>2020-05-21T11:08:52Z</time><name>PT4696</name></trkpt>
<trkpt lat="53.379730" lon="-1.603377"><ele>263</ele><time>2020-05-21T11:08:52Z</time><name>PT4697</name></trkpt>
<trkpt lat="53.379746" lon="-1.603374"><ele>263</ele><time>2020-05-21T11:08:53Z</time><name>PT4698</name></trkpt>
<trkpt lat="53.379751" lon="-1.603373"><ele>263</ele><time>2020-05-21T11:08:55Z</time><name>PT4699</name></trkpt>
<trkpt lat="53.379754" lon="-1.603369"><ele>263</ele><time>2020-05-21T11:08:55Z</time><name>PT4700</name></trkpt>
<trkpt lat="53.379759" lon="-1.603362"><ele>263</ele><time>2020-05-21T11:08:56Z</time><name>PT4701</name></trkpt>
<trkpt lat="53.379763" lon="-1.603360"><ele>262</ele><time>2020-05-21T11:08:58Z</time><name>PT4702</name></trkpt>
<trkpt lat="53.379767" lon="-1.603355"><ele>262</ele><time>2020-05-21T11:09:07Z</time><name>PT4703</name></trkpt>
<trkpt lat="53.379774" lon="-1.603356"><ele>262</ele><time>2020-05-21T11:09:07Z</time><name>PT4704</name></trkpt>
<trkpt lat="53.379774" lon="-1.603358"><ele>262</ele><time>2020-05-21T11:09:08Z</time><name>PT4705</name></trkpt>
<trkpt lat="53.379784" lon="-1.603361"><ele>261</ele><time>2020-05-21T11:09:10Z</time><name>PT4706</name></trkpt>
<trkpt lat="53.379798" lon="-1.603357"><ele>261</ele><time>2020-05-21T11:09:10Z</time><name>PT4707</name></trkpt>
<trkpt lat="53.379801" lon="-1.603358"><ele>261</ele><time>2020-05-21T11:09:11Z</time><name>PT4708</name></trkpt>
<trkpt lat="53.379807" lon="-1.603361"><ele>260</ele><time>2020-05-21T11:09:13Z</time><name>PT4709</name></trkpt>
<trkpt lat="53.379822" lon="-1.603390"><ele>260</ele><time>2020-05-21T11:09:13Z</time><name>PT4710</name></trkpt>
<trkpt lat="53.379832" lon="-1.603391"><ele>260</ele><time>2020-05-21T11:09:14Z</time><name>PT4711</name></trkpt>
<trkpt lat="53.379844" lon="-1.603413"><ele>262</ele><time>2020-05-21T11:09:16Z</time><name>PT4712</name></trkpt>
<trkpt lat="53.379875" lon="-1.603440"><ele>261</ele><time>2020-05-21T11:09:16Z</time><name>PT4713</name></trkpt>
<trkpt lat="53.379893" lon="-1.603421"><ele>262</ele><time>2020-05-21T11:09:17Z</time><name>PT4714</name></trkpt>
<trkpt lat="53.379921" lon="-1.603412"><ele>263</ele><time>2020-05-21T11:09:19Z</time><name>PT4715</name></trkpt>
<trkpt lat="53.379930" lon="-1.603399"><ele>262</ele><time>2020-05-21T11:09:19Z</time><name>PT4716</name></trkpt>
<trkpt lat="53.379937" lon="-1.603390"><ele>263</ele><time>2020-05-21T11:09:20Z</time><name>PT4717</name></trkpt>
<trkpt lat="53.379947" lon="-1.603375"><ele>262</ele><time>2020-05-21T11:09:22Z</time><name>PT4718</name></trkpt>
<trkpt lat="53.379955" lon="-1.603356"><ele>262</ele><time>2020-05-21T11:09:22Z</time><name>PT4719</name></trkpt>
<trkpt lat="53.379953" lon="-1.603330"><ele>261</ele><time>2020-05-21T11:09:23Z</time><name>PT4720</name></trkpt>
<trkpt lat="53.379955" lon="-1.603312"><ele>260</ele><time>2020-05-21T11:09:25Z</time><name>PT4721</name></trkpt>
<trkpt lat="53.379953" lon="-1.603288"><ele>260</ele><time>2020-05-21T11:09:25Z</time><name>PT4722</name></trkpt>
<trkpt lat="53.379950" lon="-1.603266"><ele>260</ele><time>2020-05-21T11:09:26Z</time><name>PT4723</name></trkpt>
<trkpt lat="53.379944" lon="-1.603248"><ele>260</ele><time>2020-05-21T11:09:28Z</time><name>PT4724</name></trkpt>
<trkpt lat="53.379944" lon="-1.603234"><ele>258</ele><time>2020-05-21T11:09:28Z</time><name>PT4725</name></trkpt>
<trkpt lat="53.379944" lon="-1.603219"><ele>257</ele><time>2020-05-21T11:09:29Z</time><name>PT4726</name></trkpt>
<trkpt lat="53.379951" lon="-1.603205"><ele>256</ele><time>2020-05-21T11:09:31Z</time><name>PT4727</name></trkpt>
<trkpt lat="53.379948" lon="-1.603191"><ele>255</ele><time>2020-05-21T11:09:31Z</time><name>PT4728</name></trkpt>
<trkpt lat="53.379952" lon="-1.603168"><ele>255</ele><time>2020-05-21T11:09:32Z</time><name>PT4729</name></trkpt>
<trkpt lat="53.379949" lon="-1.603151"><ele>254</ele><time>2020-05-21T11:09:34Z</time><name>PT4730</name></trkpt>
<trkpt lat="53.379944" lon="-1.603134"><ele>253</ele><time>2020-05-21T11:09:34Z</time><name>PT4731</name></trkpt>
<trkpt lat="53.379943" lon="-1.603117"><ele>254</ele><time>2020-05-21T11:09:35Z</time><name>PT4732</name></trkpt>
<trkpt lat="53.379938" lon="-1.603099"><ele>253</ele><time>2020-05-21T11:09:37Z</time><name>PT4733</name></trkpt>
<trkpt lat="53.379933" lon="-1.603084"><ele>254</ele><time>2020-05-21T11:09:37Z</time><name>PT4734</name></trkpt>
<trkpt lat="53.379935" lon="-1.603077"><ele>254</ele><time>2020-05-21T11:09:38Z</time><name>PT4735</name></trkpt>
<trkpt lat="53.379935" lon="-1.603069"><ele>254</ele><time>2020-05-21T11:09:40Z</time><name>PT4736</name></trkpt>
<trkpt lat="53.379935" lon="-1.603054"><ele>254</ele><time>2020-05-21T11:09:40Z</time><name>PT4737</name></trkpt>
<trkpt lat="53.379925" lon="-1.603039"><ele>254</ele><time>2020-05-21T11:09:42Z</time><name>PT4738</name></trkpt>
<trkpt lat="53.379921" lon="-1.603025"><ele>254</ele><time>2020-05-21T11:09:43Z</time><name>PT4739</name></trkpt>
<trkpt lat="53.379922" lon="-1.603017"><ele>254</ele><time>2020-05-21T11:09:43Z</time><name>PT4740</name></trkpt>
<trkpt lat="53.379919" lon="-1.603002"><ele>253</ele><time>2020-05-21T11:09:44Z</time><name>PT4741</name></trkpt>
<trkpt lat="53.379905" lon="-1.602959"><ele>251</ele><time>2020-05-21T11:09:46Z</time><name>PT4742</name></trkpt>
<trkpt lat="53.379901" lon="-1.602933"><ele>250</ele><time>2020-05-21T11:09:46Z</time><name>PT4743</name></trkpt>
<trkpt lat="53.379898" lon="-1.602915"><ele>250</ele><time>2020-05-21T11:09:48Z</time><name>PT4744</name></trkpt>
<trkpt lat="53.379892" lon="-1.602900"><ele>250</ele><time>2020-05-21T11:09:49Z</time><name>PT4745</name></trkpt>
<trkpt lat="53.379888" lon="-1.602887"><ele>249</ele><time>2020-05-21T11:09:49Z</time><name>PT4746</name></trkpt>
<trkpt lat="53.379888" lon="-1.602877"><ele>249</ele><time>2020-05-21T11:09:50Z</time><name>PT4747</name></trkpt>
<trkpt lat="53.379885" lon="-1.602856"><ele>249</ele><time>2020-05-21T11:09:52Z</time><name>PT4748</name></trkpt>
<trkpt lat="53.379886" lon="-1.602843"><ele>248</ele><time>2020-05-21T11:09:52Z</time><name>PT4749</name></trkpt>
<trkpt lat="53.379876" lon="-1.602820"><ele>248</ele><time>2020-05-21T11:09:53Z</time><name>PT4750</name></trkpt>
<trkpt lat="53.379874" lon="-1.602798"><ele>248</ele><time>2020-05-21T11:09:55Z</time><name>PT4751</name></trkpt>
<trkpt lat="53.379873" lon="-1.602783"><ele>248</ele><time>2020-05-21T11:09:55Z</time><name>PT4752</name></trkpt>
<trkpt lat="53.379869" lon="-1.602772"><ele>248</ele><time>2020-05-21T11:09:56Z</time><name>PT4753</name></trkpt>
<trkpt lat="53.379870" lon="-1.602761"><ele>247</ele><time>2020-05-21T11:09:58Z</time><name>PT4754</name></trkpt>
<trkpt lat="53.379872" lon="-1.602749"><ele>247</ele><time>2020-05-21T11:09:58Z</time><name>PT4755</name></trkpt>
<trkpt lat="53.379865" lon="-1.602733"><ele>247</ele><time>2020-05-21T11:09:59Z</time><name>PT4756</name></trkpt>
<trkpt lat="53.379863" lon="-1.602721"><ele>247</ele><time>2020-05-21T11:10:01Z</time><name>PT4757</name></trkpt>
<trkpt lat="53.379879" lon="-1.602700"><ele>244</ele><time>2020-05-21T11:10:01Z</time><name>PT4758</name></trkpt>
<trkpt lat="53.379881" lon="-1.602685"><ele>244</ele><time>2020-05-21T11:10:02Z</time><name>PT4759</name></trkpt>
<trkpt lat="53.379877" lon="-1.602667"><ele>245</ele><time>2020-05-21T11:10:04Z</time><name>PT4760</name></trkpt>
<trkpt lat="53.379864" lon="-1.602655"><ele>247</ele><time>2020-05-21T11:10:04Z</time><name>PT4761</name></trkpt>
<trkpt lat="53.379862" lon="-1.602640"><ele>247</ele><time>2020-05-21T11:10:05Z</time><name>PT4762</name></trkpt>
<trkpt lat="53.379861" lon="-1.602626"><ele>247</ele><time>2020-05-21T11:10:07Z</time><name>PT4763</name></trkpt>
<trkpt lat="53.379855" lon="-1.602616"><ele>248</ele><time>2020-05-21T11:10:07Z</time><name>PT4764</name></trkpt>
<trkpt lat="53.379845" lon="-1.602598"><ele>249</ele><time>2020-05-21T11:10:08Z</time><name>PT4765</name></trkpt>
<trkpt lat="53.379836" lon="-1.602582"><ele>248</ele><time>2020-05-21T11:10:10Z</time><name>PT4766</name></trkpt>
<trkpt lat="53.379834" lon="-1.602563"><ele>248</ele><time>2020-05-21T11:10:10Z</time><name>PT4767</name></trkpt>
<trkpt lat="53.379826" lon="-1.602548"><ele>249</ele><time>2020-05-21T11:10:11Z</time><name>PT4768</name></trkpt>
<trkpt lat="53.379834" lon="-1.602528"><ele>244</ele><time>2020-05-21T11:10:13Z</time><name>PT4769</name></trkpt>
<trkpt lat="53.379838" lon="-1.602520"><ele>244</ele><time>2020-05-21T11:10:13Z</time><name>PT4770</name></trkpt>
<trkpt lat="53.379835" lon="-1.602508"><ele>244</ele><time>2020-05-21T11:10:14Z</time><name>PT4771</name></trkpt>
<trkpt lat="53.379825" lon="-1.602478"><ele>244</ele><time>2020-05-21T11:10:16Z</time><name>PT4772</name></trkpt>
<trkpt lat="53.379818" lon="-1.602457"><ele>244</ele><time>2020-05-21T11:10:16Z</time><name>PT4773</name></trkpt>
<trkpt lat="53.379811" lon="-1.602438"><ele>245</ele><time>2020-05-21T11:10:17Z</time><name>PT4774</name></trkpt>
<trkpt lat="53.379810" lon="-1.602426"><ele>244</ele><time>2020-05-21T11:10:19Z</time><name>PT4775</name></trkpt>
<trkpt lat="53.379810" lon="-1.602410"><ele>243</ele><time>2020-05-21T11:10:19Z</time><name>PT4776</name></trkpt>
<trkpt lat="53.379805" lon="-1.602389"><ele>243</ele><time>2020-05-21T11:10:20Z</time><name>PT4777</name></trkpt>
<trkpt lat="53.379801" lon="-1.602363"><ele>243</ele><time>2020-05-21T11:10:22Z</time><name>PT4778</name></trkpt>
<trkpt lat="53.379802" lon="-1.602348"><ele>243</ele><time>2020-05-21T11:10:22Z</time><name>PT4779</name></trkpt>
<trkpt lat="53.379806" lon="-1.602333"><ele>243</ele><time>2020-05-21T11:10:23Z</time><name>PT4780</name></trkpt>
<trkpt lat="53.379803" lon="-1.602316"><ele>243</ele><time>2020-05-21T11:10:25Z</time><name>PT4781</name></trkpt>
<trkpt lat="53.379802" lon="-1.602293"><ele>242</ele><time>2020-05-21T11:10:25Z</time><name>PT4782</name></trkpt>
<trkpt lat="53.379798" lon="-1.602263"><ele>243</ele><time>2020-05-21T11:10:26Z</time><name>PT4783</name></trkpt>
<trkpt lat="53.379801" lon="-1.602240"><ele>244</ele><time>2020-05-21T11:10:28Z</time><name>PT4784</name></trkpt>
<trkpt lat="53.379822" lon="-1.602207"><ele>240</ele><time>2020-05-21T11:10:28Z</time><name>PT4785</name></trkpt>
<trkpt lat="53.379819" lon="-1.602206"><ele>242</ele><time>2020-05-21T11:10:29Z</time><name>PT4786</name></trkpt>
<trkpt lat="53.379823" lon="-1.602195"><ele>243</ele><time>2020-05-21T11:10:31Z</time><name>PT4787</name></trkpt>
<trkpt lat="53.379833" lon="-1.602161"><ele>240</ele><time>2020-05-21T11:10:31Z</time><name>PT4788</name></trkpt>
<trkpt lat="53.379837" lon="-1.602146"><ele>240</ele><time>2020-05-21T11:10:32Z</time><name>PT4789</name></trkpt>
<trkpt lat="53.379835" lon="-1.602133"><ele>240</ele><time>2020-05-21T11:10:34Z</time><name>PT4790</name></trkpt>
<trkpt lat="53.379836" lon="-1.602121"><ele>239</ele><time>2020-05-21T11:10:34Z</time><name>PT4791</name></trkpt>
<trkpt lat="53.379840" lon="-1.602094"><ele>240</ele><time>2020-05-21T11:10:35Z</time><name>PT4792</name></trkpt>
<trkpt lat="53.379836" lon="-1.602076"><ele>240</ele><time>2020-05-21T11:10:37Z</time><name>PT4793</name></trkpt>
<trkpt lat="53.379835" lon="-1.602049"><ele>240</ele><time>2020-05-21T11:10:37Z</time><name>PT4794</name></trkpt>
<trkpt lat="53.379835" lon="-1.602028"><ele>237</ele><time>2020-05-21T11:10:38Z</time><name>PT4795</name></trkpt>
<trkpt lat="53.379834" lon="-1.601998"><ele>238</ele><time>2020-05-21T11:10:40Z</time><name>PT4796</name></trkpt>
<trkpt lat="53.379838" lon="-1.601982"><ele>238</ele><time>2020-05-21T11:10:40Z</time><name>PT4797</name></trkpt>
<trkpt lat="53.379831" lon="-1.601951"><ele>240</ele><time>2020-05-21T11:10:41Z</time><name>PT4798</name></trkpt>
<trkpt lat="53.379840" lon="-1.601912"><ele>239</ele><time>2020-05-21T11:10:43Z</time><name>PT4799</name></trkpt>
<trkpt lat="53.379847" lon="-1.601893"><ele>238</ele><time>2020-05-21T11:10:43Z</time><name>PT4800</name></trkpt>
<trkpt lat="53.379848" lon="-1.601868"><ele>239</ele><time>2020-05-21T11:10:44Z</time><name>PT4801</name></trkpt>
<trkpt lat="53.379847" lon="-1.601839"><ele>239</ele><time>2020-05-21T11:10:46Z</time><name>PT4802</name></trkpt>
<trkpt lat="53.379849" lon="-1.601817"><ele>239</ele><time>2020-05-21T11:10:46Z</time><name>PT4803</name></trkpt>
<trkpt lat="53.379850" lon="-1.601782"><ele>240</ele><time>2020-05-21T11:10:47Z</time><name>PT4804</name></trkpt>
<trkpt lat="53.379861" lon="-1.601721"><ele>242</ele><time>2020-05-21T11:10:49Z</time><name>PT4805</name></trkpt>
<trkpt lat="53.379880" lon="-1.601660"><ele>247</ele><time>2020-05-21T11:10:49Z</time><name>PT4806</name></trkpt>
<trkpt lat="53.379894" lon="-1.601626"><ele>246</ele><time>2020-05-21T11:10:50Z</time><name>PT4807</name></trkpt>
<trkpt lat="53.379901" lon="-1.601610"><ele>247</ele><time>2020-05-21T11:10:52Z</time><name>PT4808</name></trkpt>
<trkpt lat="53.379913" lon="-1.601587"><ele>248</ele><time>2020-05-21T11:10:52Z</time><name>PT4809</name></trkpt>
<trkpt lat="53.379921" lon="-1.601568"><ele>248</ele><time>2020-05-21T11:10:53Z</time><name>PT4810</name></trkpt>
<trkpt lat="53.379929" lon="-1.601552"><ele>248</ele><time>2020-05-21T11:10:55Z</time><name>PT4811</name></trkpt>
<trkpt lat="53.379936" lon="-1.601535"><ele>248</ele><time>2020-05-21T11:10:55Z</time><name>PT4812</name></trkpt>
<trkpt lat="53.379944" lon="-1.601523"><ele>249</ele><time>2020-05-21T11:10:56Z</time><name>PT4813</name></trkpt>
<trkpt lat="53.379953" lon="-1.601510"><ele>249</ele><time>2020-05-21T11:10:58Z</time><name>PT4814</name></trkpt>
<trkpt lat="53.379961" lon="-1.601511"><ele>249</ele><time>2020-05-21T11:10:58Z</time><name>PT4815</name></trkpt>
<trkpt lat="53.379963" lon="-1.601507"><ele>249</ele><time>2020-05-21T11:10:59Z</time><name>PT4816</name></trkpt>
<trkpt lat="53.379962" lon="-1.601502"><ele>249</ele><time>2020-05-21T11:11:01Z</time><name>PT4817</name></trkpt>
<trkpt lat="53.379965" lon="-1.601502"><ele>249</ele><time>2020-05-21T11:11:01Z</time><name>PT4818</name></trkpt>
<trkpt lat="53.379963" lon="-1.601499"><ele>249</ele><time>2020-05-21T11:11:02Z</time><name>PT4819</name></trkpt>
<trkpt lat="53.379961" lon="-1.601498"><ele>249</ele><time>2020-05-21T11:11:04Z</time><name>PT4820</name></trkpt>
<trkpt lat="53.379959" lon="-1.601501"><ele>249</ele><time>2020-05-21T11:11:04Z</time><name>PT4821</name></trkpt>
<trkpt lat="53.379957" lon="-1.601501"><ele>249</ele><time>2020-05-21T11:11:05Z</time><name>PT4822</name></trkpt>
<trkpt lat="53.379955" lon="-1.601510"><ele>248</ele><time>2020-05-21T11:11:07Z</time><name>PT4823</name></trkpt>
<trkpt lat="53.379952" lon="-1.601516"><ele>247</ele><time>2020-05-21T11:11:07Z</time><name>PT4824</name></trkpt>
<trkpt lat="53.379952" lon="-1.601514"><ele>247</ele><time>2020-05-21T11:11:08Z</time><name>PT4825</name></trkpt>
<trkpt lat="53.379951" lon="-1.601512"><ele>247</ele><time>2020-05-21T11:11:10Z</time><name>PT4826</name></trkpt>
<trkpt lat="53.379950" lon="-1.601510"><ele>247</ele><time>2020-05-21T11:11:10Z</time><name>PT4827</name></trkpt>
<trkpt lat="53.379951" lon="-1.601513"><ele>246</ele><time>2020-05-21T11:11:19Z</time><name>PT4828</name></trkpt>
<trkpt lat="53.379952" lon="-1.601514"><ele>246</ele><time>2020-05-21T11:11:19Z</time><name>PT4829</name></trkpt>
<trkpt lat="53.379953" lon="-1.601507"><ele>246</ele><time>2020-05-21T11:11:22Z</time><name>PT4830</name></trkpt>
<trkpt lat="53.379951" lon="-1.601498"><ele>246</ele><time>2020-05-21T11:11:22Z</time><name>PT4831</name></trkpt>
<trkpt lat="53.379951" lon="-1.601492"><ele>246</ele><time>2020-05-21T11:11:23Z</time><name>PT4832</name></trkpt>
<trkpt lat="53.379954" lon="-1.601490"><ele>246</ele><time>2020-05-21T11:11:25Z</time><name>PT4833</name></trkpt>
<trkpt lat="53.379958" lon="-1.601485"><ele>246</ele><time>2020-05-21T11:11:25Z</time><name>PT4834</name></trkpt>
<trkpt lat="53.379962" lon="-1.601486"><ele>246</ele><time>2020-05-21T11:11:26Z</time><name>PT4835</name></trkpt>
<trkpt lat="53.379967" lon="-1.601497"><ele>246</ele><time>2020-05-21T11:11:28Z</time><name>PT4836</name></trkpt>
<trkpt lat="53.379972" lon="-1.601503"><ele>245</ele><time>2020-05-21T11:11:28Z</time><name>PT4837</name></trkpt>
<trkpt lat="53.379976" lon="-1.601503"><ele>245</ele><time>2020-05-21T11:11:29Z</time><name>PT4838</name></trkpt>
<trkpt lat="53.379977" lon="-1.601506"><ele>245</ele><time>2020-05-21T11:11:31Z</time><name>PT4839</name></trkpt>
<trkpt lat="53.379983" lon="-1.601509"><ele>247</ele><time>2020-05-21T11:12:01Z</time><name>PT4840</name></trkpt>
<trkpt lat="53.379991" lon="-1.601515"><ele>247</ele><time>2020-05-21T11:12:01Z</time><name>PT4841</name></trkpt>
<trkpt lat="53.380007" lon="-1.601523"><ele>247</ele><time>2020-05-21T11:12:02Z</time><name>PT4842</name></trkpt>
<trkpt lat="53.380011" lon="-1.601525"><ele>247</ele><time>2020-05-21T11:12:04Z</time><name>PT4843</name></trkpt>
<trkpt lat="53.380015" lon="-1.601534"><ele>247</ele><time>2020-05-21T11:12:04Z</time><name>PT4844</name></trkpt>
<trkpt lat="53.380021" lon="-1.601537"><ele>247</ele><time>2020-05-21T11:12:05Z</time><name>PT4845</name></trkpt>
<trkpt lat="53.380026" lon="-1.601549"><ele>247</ele><time>2020-05-21T11:12:07Z</time><name>PT4846</name></trkpt>
<trkpt lat="53.380029" lon="-1.601554"><ele>247</ele><time>2020-05-21T11:12:07Z</time><name>PT4847</name></trkpt>
<trkpt lat="53.380037" lon="-1.601556"><ele>249</ele><time>2020-05-21T11:12:08Z</time><name>PT4848</name></trkpt>
<trkpt lat="53.380043" lon="-1.601568"><ele>249</ele><time>2020-05-21T11:12:10Z</time><name>PT4849</name></trkpt>
<trkpt lat="53.380045" lon="-1.601579"><ele>250</ele><time>2020-05-21T11:12:10Z</time><name>PT4850</name></trkpt>
<trkpt lat="53.380045" lon="-1.601585"><ele>250</ele><time>2020-05-21T11:12:11Z</time><name>PT4851</name></trkpt>
<trkpt lat="53.380045" lon="-1.601589"><ele>251</ele><time>2020-05-21T11:12:13Z</time><name>PT4852</name></trkpt>
<trkpt lat="53.380052" lon="-1.601592"><ele>252</ele><time>2020-05-21T11:12:13Z</time><name>PT4853</name></trkpt>
<trkpt lat="53.380052" lon="-1.601591"><ele>253</ele><time>2020-05-21T11:12:14Z</time><name>PT4854</name></trkpt>
<trkpt lat="53.380054" lon="-1.601588"><ele>253</ele><time>2020-05-21T11:12:16Z</time><name>PT4855</name></trkpt>
<trkpt lat="53.380054" lon="-1.601581"><ele>253</ele><time>2020-05-21T11:12:16Z</time><name>PT4856</name></trkpt>
<trkpt lat="53.380048" lon="-1.601574"><ele>253</ele><time>2020-05-21T11:12:17Z</time><name>PT4857</name></trkpt>
<trkpt lat="53.380054" lon="-1.601573"><ele>254</ele><time>2020-05-21T11:12:19Z</time><name>PT4858</name></trkpt>
<trkpt lat="53.380057" lon="-1.601572"><ele>254</ele><time>2020-05-21T11:12:19Z</time><name>PT4859</name></trkpt>
<trkpt lat="53.380060" lon="-1.601571"><ele>254</ele><time>2020-05-21T11:12:20Z</time><name>PT4860</name></trkpt>
<trkpt lat="53.380063" lon="-1.601572"><ele>254</ele><time>2020-05-21T11:12:22Z</time><name>PT4861</name></trkpt>
<trkpt lat="53.380062" lon="-1.601573"><ele>255</ele><time>2020-05-21T11:12:22Z</time><name>PT4862</name></trkpt>
<trkpt lat="53.380066" lon="-1.601577"><ele>255</ele><time>2020-05-21T11:12:23Z</time><name>PT4863</name></trkpt>
<trkpt lat="53.380067" lon="-1.601579"><ele>255</ele><time>2020-05-21T11:12:25Z</time><name>PT4864</name></trkpt>
<trkpt lat="53.380069" lon="-1.601583"><ele>255</ele><time>2020-05-21T11:12:25Z</time><name>PT4865</name></trkpt>
<trkpt lat="53.380073" lon="-1.601585"><ele>255</ele><time>2020-05-21T11:12:26Z</time><name>PT4866</name></trkpt>
<trkpt lat="53.380075" lon="-1.601588"><ele>255</ele><time>2020-05-21T11:12:28Z</time><name>PT4867</name></trkpt>
<trkpt lat="53.380075" lon="-1.601590"><ele>256</ele><time>2020-05-21T11:12:28Z</time><name>PT4868</name></trkpt>
<trkpt lat="53.380076" lon="-1.601595"><ele>257</ele><time>2020-05-21T11:12:29Z</time><name>PT4869</name></trkpt>
<trkpt lat="53.380083" lon="-1.601601"><ele>257</ele><time>2020-05-21T11:12:31Z</time><name>PT4870</name></trkpt>
<trkpt lat="53.380081" lon="-1.601601"><ele>257</ele><time>2020-05-21T11:12:31Z</time><name>PT4871</name></trkpt>
<trkpt lat="53.380080" lon="-1.601604"><ele>258</ele><time>2020-05-21T11:12:32Z</time><name>PT4872</name></trkpt>
<trkpt lat="53.380081" lon="-1.601609"><ele>259</ele><time>2020-05-21T11:12:34Z</time><name>PT4873</name></trkpt>
<trkpt lat="53.380084" lon="-1.601617"><ele>259</ele><time>2020-05-21T11:12:34Z</time><name>PT4874</name></trkpt>
<trkpt lat="53.380090" lon="-1.601618"><ele>259</ele><time>2020-05-21T11:12:35Z</time><name>PT4875</name></trkpt>
<trkpt lat="53.380087" lon="-1.601619"><ele>259</ele><time>2020-05-21T11:12:37Z</time><name>PT4876</name></trkpt>
<trkpt lat="53.380086" lon="-1.601619"><ele>258</ele><time>2020-05-21T11:12:37Z</time><name>PT4877</name></trkpt>
<trkpt lat="53.380085" lon="-1.601619"><ele>258</ele><time>2020-05-21T11:12:38Z</time><name>PT4878</name></trkpt>
<trkpt lat="53.380087" lon="-1.601624"><ele>258</ele><time>2020-05-21T11:12:40Z</time><name>PT4879</name></trkpt>
<trkpt lat="53.380088" lon="-1.601629"><ele>258</ele><time>2020-05-21T11:12:40Z</time><name>PT4880</name></trkpt>
<trkpt lat="53.380087" lon="-1.601629"><ele>258</ele><time>2020-05-21T11:12:41Z</time><name>PT4881</name></trkpt>
<trkpt lat="53.380082" lon="-1.601630"><ele>258</ele><time>2020-05-21T11:12:43Z</time><name>PT4882</name></trkpt>
<trkpt lat="53.380078" lon="-1.601634"><ele>258</ele><time>2020-05-21T11:12:43Z</time><name>PT4883</name></trkpt>
<trkpt lat="53.380073" lon="-1.601634"><ele>258</ele><time>2020-05-21T11:12:44Z</time><name>PT4884</name></trkpt>
<trkpt lat="53.380060" lon="-1.601635"><ele>261</ele><time>2020-05-21T11:12:46Z</time><name>PT4885</name></trkpt>
<trkpt lat="53.380053" lon="-1.601643"><ele>262</ele><time>2020-05-21T11:12:46Z</time><name>PT4886</name></trkpt>
<trkpt lat="53.380064" lon="-1.601655"><ele>263</ele><time>2020-05-21T11:12:47Z</time><name>PT4887</name></trkpt>
<trkpt lat="53.380058" lon="-1.601659"><ele>264</ele><time>2020-05-21T11:12:49Z</time><name>PT4888</name></trkpt>
<trkpt lat="53.380065" lon="-1.601666"><ele>263</ele><time>2020-05-21T11:13:31Z</time><name>PT4889</name></trkpt>
<trkpt lat="53.380070" lon="-1.601662"><ele>262</ele><time>2020-05-21T11:13:32Z</time><name>PT4890</name></trkpt>
<trkpt lat="53.380070" lon="-1.601655"><ele>262</ele><time>2020-05-21T11:13:34Z</time><name>PT4891</name></trkpt>
<trkpt lat="53.380069" lon="-1.601640"><ele>261</ele><time>2020-05-21T11:13:34Z</time><name>PT4892</name></trkpt>
<trkpt lat="53.380068" lon="-1.601626"><ele>260</ele><time>2020-05-21T11:13:35Z</time><name>PT4893</name></trkpt>
<trkpt lat="53.380067" lon="-1.601613"><ele>260</ele><time>2020-05-21T11:13:37Z</time><name>PT4894</name></trkpt>
<trkpt lat="53.380061" lon="-1.601602"><ele>260</ele><time>2020-05-21T11:13:37Z</time><name>PT4895</name></trkpt>
<trkpt lat="53.380057" lon="-1.601593"><ele>260</ele><time>2020-05-21T11:13:38Z</time><name>PT4896</name></trkpt>
<trkpt lat="53.380049" lon="-1.601579"><ele>260</ele><time>2020-05-21T11:13:40Z</time><name>PT4897</name></trkpt>
<trkpt lat="53.380045" lon="-1.601575"><ele>259</ele><time>2020-05-21T11:13:40Z</time><name>PT4898</name></trkpt>
<trkpt lat="53.380044" lon="-1.601569"><ele>259</ele><time>2020-05-21T11:13:41Z</time><name>PT4899</name></trkpt>
<trkpt lat="53.380037" lon="-1.601555"><ele>258</ele><time>2020-05-21T11:13:43Z</time><name>PT4900</name></trkpt>
<trkpt lat="53.380029" lon="-1.601539"><ele>258</ele><time>2020-05-21T11:13:43Z</time><name>PT4901</name></trkpt>
<trkpt lat="53.380020" lon="-1.601522"><ele>257</ele><time>2020-05-21T11:13:44Z</time><name>PT4902</name></trkpt>
<trkpt lat="53.380014" lon="-1.601507"><ele>256</ele><time>2020-05-21T11:13:46Z</time><name>PT4903</name></trkpt>
<trkpt lat="53.380011" lon="-1.601492"><ele>255</ele><time>2020-05-21T11:13:46Z</time><name>PT4904</name></trkpt>
<trkpt lat="53.380012" lon="-1.601479"><ele>253</ele><time>2020-05-21T11:13:47Z</time><name>PT4905</name></trkpt>
<trkpt lat="53.380003" lon="-1.601463"><ele>253</ele><time>2020-05-21T11:13:49Z</time><name>PT4906</name></trkpt>
<trkpt lat="53.379997" lon="-1.601443"><ele>252</ele><time>2020-05-21T11:13:49Z</time><name>PT4907</name></trkpt>
<trkpt lat="53.379993" lon="-1.601427"><ele>252</ele><time>2020-05-21T11:13:50Z</time><name>PT4908</name></trkpt>
<trkpt lat="53.379989" lon="-1.601410"><ele>252</ele><time>2020-05-21T11:13:52Z</time><name>PT4909</name></trkpt>
<trkpt lat="53.379987" lon="-1.601397"><ele>251</ele><time>2020-05-21T11:13:52Z</time><name>PT4910</name></trkpt>
<trkpt lat="53.379990" lon="-1.601383"><ele>251</ele><time>2020-05-21T11:13:53Z</time><name>PT4911</name></trkpt>
<trkpt lat="53.379994" lon="-1.601372"><ele>250</ele><time>2020-05-21T11:13:55Z</time><name>PT4912</name></trkpt>
<trkpt lat="53.380001" lon="-1.601362"><ele>251</ele><time>2020-05-21T11:13:55Z</time><name>PT4913</name></trkpt>
<trkpt lat="53.380000" lon="-1.601342"><ele>252</ele><time>2020-05-21T11:13:56Z</time><name>PT4914</name></trkpt>
<trkpt lat="53.380002" lon="-1.601342"><ele>251</ele><time>2020-05-21T11:13:58Z</time><name>PT4915</name></trkpt>
<trkpt lat="53.380001" lon="-1.601343"><ele>251</ele><time>2020-05-21T11:13:58Z</time><name>PT4916</name></trkpt>
<trkpt lat="53.379998" lon="-1.601339"><ele>251</ele><time>2020-05-21T11:13:59Z</time><name>PT4917</name></trkpt>
<trkpt lat="53.380001" lon="-1.601334"><ele>252</ele><time>2020-05-21T11:14:08Z</time><name>PT4918</name></trkpt>
<trkpt lat="53.380008" lon="-1.601324"><ele>251</ele><time>2020-05-21T11:14:10Z</time><name>PT4919</name></trkpt>
<trkpt lat="53.380015" lon="-1.601316"><ele>251</ele><time>2020-05-21T11:14:10Z</time><name>PT4920</name></trkpt>
<trkpt lat="53.380021" lon="-1.601298"><ele>251</ele><time>2020-05-21T11:14:11Z</time><name>PT4921</name></trkpt>
<trkpt lat="53.380029" lon="-1.601289"><ele>251</ele><time>2020-05-21T11:14:13Z</time><name>PT4922</name></trkpt>
<trkpt lat="53.380034" lon="-1.601279"><ele>251</ele><time>2020-05-21T11:14:13Z</time><name>PT4923</name></trkpt>
<trkpt lat="53.380039" lon="-1.601265"><ele>250</ele><time>2020-05-21T11:14:14Z</time><name>PT4924</name></trkpt>
<trkpt lat="53.380042" lon="-1.601250"><ele>250</ele><time>2020-05-21T11:14:16Z</time><name>PT4925</name></trkpt>
<trkpt lat="53.380044" lon="-1.601240"><ele>249</ele><time>2020-05-21T11:14:16Z</time><name>PT4926</name></trkpt>
<trkpt lat="53.380046" lon="-1.601231"><ele>249</ele><time>2020-05-21T11:14:17Z</time><name>PT4927</name></trkpt>
<trkpt lat="53.380050" lon="-1.601224"><ele>248</ele><time>2020-05-21T11:14:19Z</time><name>PT4928</name></trkpt>
<trkpt lat="53.380050" lon="-1.601223"><ele>248</ele><time>2020-05-21T11:14:19Z</time><name>PT4929</name></trkpt>
<trkpt lat="53.380050" lon="-1.601220"><ele>249</ele><time>2020-05-21T11:14:20Z</time><name>PT4930</name></trkpt>
<trkpt lat="53.380050" lon="-1.601220"><ele>249</ele><time>2020-05-21T11:14:22Z</time><name>PT4931</name></trkpt>
<trkpt lat="53.380055" lon="-1.601212"><ele>249</ele><time>2020-05-21T11:14:23Z</time><name>PT4932</name></trkpt>
<trkpt lat="53.380059" lon="-1.601198"><ele>249</ele><time>2020-05-21T11:14:25Z</time><name>PT4933</name></trkpt>
<trkpt lat="53.380063" lon="-1.601178"><ele>248</ele><time>2020-05-21T11:14:25Z</time><name>PT4934</name></trkpt>
<trkpt lat="53.380071" lon="-1.601159"><ele>248</ele><time>2020-05-21T11:14:26Z</time><name>PT4935</name></trkpt>
<trkpt lat="53.380077" lon="-1.601143"><ele>248</ele><time>2020-05-21T11:14:28Z</time><name>PT4936</name></trkpt>
<trkpt lat="53.380084" lon="-1.601128"><ele>247</ele><time>2020-05-21T11:14:28Z</time><name>PT4937</name></trkpt>
<trkpt lat="53.380090" lon="-1.601107"><ele>247</ele><time>2020-05-21T11:14:29Z</time><name>PT4938</name></trkpt>
<trkpt lat="53.380099" lon="-1.601091"><ele>247</ele><time>2020-05-21T11:14:31Z</time><name>PT4939</name></trkpt>
<trkpt lat="53.380107" lon="-1.601080"><ele>247</ele><time>2020-05-21T11:14:31Z</time><name>PT4940</name></trkpt>
<trkpt lat="53.380118" lon="-1.601067"><ele>248</ele><time>2020-05-21T11:14:32Z</time><name>PT4941</name></trkpt>
<trkpt lat="53.380126" lon="-1.601057"><ele>248</ele><time>2020-05-21T11:14:34Z</time><name>PT4942</name></trkpt>
<trkpt lat="53.380129" lon="-1.601054"><ele>248</ele><time>2020-05-21T11:14:34Z</time><name>PT4943</name></trkpt>
<trkpt lat="53.380131" lon="-1.601050"><ele>248</ele><time>2020-05-21T11:14:35Z</time><name>PT4944</name></trkpt>
<trkpt lat="53.380132" lon="-1.601046"><ele>248</ele><time>2020-05-21T11:14:37Z</time><name>PT4945</name></trkpt>
<trkpt lat="53.380133" lon="-1.601043"><ele>249</ele><time>2020-05-21T11:14:37Z</time><name>PT4946</name></trkpt>
<trkpt lat="53.380140" lon="-1.601032"><ele>249</ele><time>2020-05-21T11:14:43Z</time><name>PT4947</name></trkpt>
<trkpt lat="53.380142" lon="-1.601018"><ele>250</ele><time>2020-05-21T11:14:43Z</time><name>PT4948</name></trkpt>
<trkpt lat="53.380147" lon="-1.601001"><ele>250</ele><time>2020-05-21T11:14:44Z</time><name>PT4949</name></trkpt>
<trkpt lat="53.380152" lon="-1.601001"><ele>250</ele><time>2020-05-21T11:14:46Z</time><name>PT4950</name></trkpt>
<trkpt lat="53.380152" lon="-1.601004"><ele>250</ele><time>2020-05-21T11:14:46Z</time><name>PT4951</name></trkpt>
<trkpt lat="53.380157" lon="-1.600998"><ele>250</ele><time>2020-05-21T11:14:47Z</time><name>PT4952</name></trkpt>
<trkpt lat="53.380157" lon="-1.600997"><ele>251</ele><time>2020-05-21T11:14:49Z</time><name>PT4953</name></trkpt>
<trkpt lat="53.380161" lon="-1.600994"><ele>251</ele><time>2020-05-21T11:14:49Z</time><name>PT4954</name></trkpt>
<trkpt lat="53.380163" lon="-1.600986"><ele>251</ele><time>2020-05-21T11:14:50Z</time><name>PT4955</name></trkpt>
<trkpt lat="53.380168" lon="-1.600977"><ele>250</ele><time>2020-05-21T11:14:52Z</time><name>PT4956</name></trkpt>
<trkpt lat="53.380168" lon="-1.600961"><ele>250</ele><time>2020-05-21T11:14:52Z</time><name>PT4957</name></trkpt>
<trkpt lat="53.380169" lon="-1.600942"><ele>250</ele><time>2020-05-21T11:14:53Z</time><name>PT4958</name></trkpt>
<trkpt lat="53.380177" lon="-1.600926"><ele>249</ele><time>2020-05-21T11:14:55Z</time><name>PT4959</name></trkpt>
<trkpt lat="53.380183" lon="-1.600906"><ele>249</ele><time>2020-05-21T11:14:55Z</time><name>PT4960</name></trkpt>
<trkpt lat="53.380190" lon="-1.600887"><ele>249</ele><time>2020-05-21T11:14:56Z</time><name>PT4961</name></trkpt>
<trkpt lat="53.380198" lon="-1.600876"><ele>249</ele><time>2020-05-21T11:14:58Z</time><name>PT4962</name></trkpt>
<trkpt lat="53.380203" lon="-1.600873"><ele>249</ele><time>2020-05-21T11:14:58Z</time><name>PT4963</name></trkpt>
<trkpt lat="53.380210" lon="-1.600862"><ele>249</ele><time>2020-05-21T11:14:59Z</time><name>PT4964</name></trkpt>
<trkpt lat="53.380221" lon="-1.600847"><ele>249</ele><time>2020-05-21T11:15:01Z</time><name>PT4965</name></trkpt>
<trkpt lat="53.380226" lon="-1.600834"><ele>249</ele><time>2020-05-21T11:15:01Z</time><name>PT4966</name></trkpt>
<trkpt lat="53.380230" lon="-1.600819"><ele>249</ele><time>2020-05-21T11:15:02Z</time><name>PT4967</name></trkpt>
<trkpt lat="53.380235" lon="-1.600804"><ele>249</ele><time>2020-05-21T11:15:04Z</time><name>PT4968</name></trkpt>
<trkpt lat="53.380243" lon="-1.600788"><ele>249</ele><time>2020-05-21T11:15:04Z</time><name>PT4969</name></trkpt>
<trkpt lat="53.380252" lon="-1.600771"><ele>249</ele><time>2020-05-21T11:15:05Z</time><name>PT4970</name></trkpt>
<trkpt lat="53.380259" lon="-1.600761"><ele>249</ele><time>2020-05-21T11:15:07Z</time><name>PT4971</name></trkpt>
<trkpt lat="53.380261" lon="-1.600754"><ele>249</ele><time>2020-05-21T11:15:07Z</time><name>PT4972</name></trkpt>
<trkpt lat="53.380262" lon="-1.600754"><ele>249</ele><time>2020-05-21T11:15:08Z</time><name>PT4973</name></trkpt>
<trkpt lat="53.380266" lon="-1.600748"><ele>249</ele><time>2020-05-21T11:15:10Z</time><name>PT4974</name></trkpt>
<trkpt lat="53.380273" lon="-1.600739"><ele>249</ele><time>2020-05-21T11:15:10Z</time><name>PT4975</name></trkpt>
<trkpt lat="53.380278" lon="-1.600731"><ele>248</ele><time>2020-05-21T11:15:11Z</time><name>PT4976</name></trkpt>
<trkpt lat="53.380288" lon="-1.600715"><ele>248</ele><time>2020-05-21T11:15:13Z</time><name>PT4977</name></trkpt>
<trkpt lat="53.380296" lon="-1.600699"><ele>249</ele><time>2020-05-21T11:15:13Z</time><name>PT4978</name></trkpt>
<trkpt lat="53.380306" lon="-1.600683"><ele>249</ele><time>2020-05-21T11:15:14Z</time><name>PT4979</name></trkpt>
<trkpt lat="53.380317" lon="-1.600673"><ele>249</ele><time>2020-05-21T11:15:16Z</time><name>PT4980</name></trkpt>
<trkpt lat="53.380327" lon="-1.600662"><ele>249</ele><time>2020-05-21T11:15:16Z</time><name>PT4981</name></trkpt>
<trkpt lat="53.380336" lon="-1.600654"><ele>248</ele><time>2020-05-21T11:15:17Z</time><name>PT4982</name></trkpt>
<trkpt lat="53.380346" lon="-1.600645"><ele>248</ele><time>2020-05-21T11:15:19Z</time><name>PT4983</name></trkpt>
<trkpt lat="53.380357" lon="-1.600636"><ele>249</ele><time>2020-05-21T11:15:19Z</time><name>PT4984</name></trkpt>
<trkpt lat="53.380366" lon="-1.600625"><ele>249</ele><time>2020-05-21T11:15:20Z</time><name>PT4985</name></trkpt>
<trkpt lat="53.380377" lon="-1.600613"><ele>249</ele><time>2020-05-21T11:15:22Z</time><name>PT4986</name></trkpt>
<trkpt lat="53.380386" lon="-1.600602"><ele>249</ele><time>2020-05-21T11:15:22Z</time><name>PT4987</name></trkpt>
<trkpt lat="53.380396" lon="-1.600595"><ele>249</ele><time>2020-05-21T11:15:23Z</time><name>PT4988</name></trkpt>
<trkpt lat="53.380403" lon="-1.600592"><ele>249</ele><time>2020-05-21T11:15:25Z</time><name>PT4989</name></trkpt>
<trkpt lat="53.380410" lon="-1.600586"><ele>248</ele><time>2020-05-21T11:15:25Z</time><name>PT4990</name></trkpt>
<trkpt lat="53.380415" lon="-1.600582"><ele>249</ele><time>2020-05-21T11:15:26Z</time><name>PT4991</name></trkpt>
<trkpt lat="53.380417" lon="-1.600582"><ele>249</ele><time>2020-05-21T11:15:28Z</time><name>PT4992</name></trkpt>
<trkpt lat="53.380420" lon="-1.600571"><ele>249</ele><time>2020-05-21T11:15:28Z</time><name>PT4993</name></trkpt>
<trkpt lat="53.380421" lon="-1.600570"><ele>250</ele><time>2020-05-21T11:15:29Z</time><name>PT4994</name></trkpt>
<trkpt lat="53.380429" lon="-1.600569"><ele>249</ele><time>2020-05-21T11:15:32Z</time><name>PT4995</name></trkpt>
<trkpt lat="53.380443" lon="-1.600559"><ele>249</ele><time>2020-05-21T11:15:34Z</time><name>PT4996</name></trkpt>
<trkpt lat="53.380456" lon="-1.600555"><ele>249</ele><time>2020-05-21T11:15:34Z</time><name>PT4997</name></trkpt>
<trkpt lat="53.380471" lon="-1.600558"><ele>249</ele><time>2020-05-21T11:15:35Z</time><name>PT4998</name></trkpt>
<trkpt lat="53.380482" lon="-1.600555"><ele>249</ele><time>2020-05-21T11:15:37Z</time><name>PT4999</name></trkpt>
<trkpt lat="53.380493" lon="-1.600547"><ele>249</ele><time>2020-05-21T11:15:37Z</time><name>PT5000</name></trkpt>
<trkpt lat="53.380504" lon="-1.600545"><ele>249</ele><time>2020-05-21T11:15:38Z</time><name>PT5001</name></trkpt>
<trkpt lat="53.380506" lon="-1.600546"><ele>249</ele><time>2020-05-21T11:15:40Z</time><name>PT5002</name></trkpt>
<trkpt lat="53.380508" lon="-1.600546"><ele>249</ele><time>2020-05-21T11:15:40Z</time><name>PT5003</name></trkpt>
<trkpt lat="53.380514" lon="-1.600547"><ele>249</ele><time>2020-05-21T11:15:41Z</time><name>PT5004</name></trkpt>
<trkpt lat="53.380519" lon="-1.600547"><ele>249</ele><time>2020-05-21T11:15:43Z</time><name>PT5005</name></trkpt>
<trkpt lat="53.380523" lon="-1.600543"><ele>249</ele><time>2020-05-21T11:15:43Z</time><name>PT5006</name></trkpt>
<trkpt lat="53.380529" lon="-1.600535"><ele>249</ele><time>2020-05-21T11:15:44Z</time><name>PT5007</name></trkpt>
<trkpt lat="53.380535" lon="-1.600526"><ele>249</ele><time>2020-05-21T11:15:46Z</time><name>PT5008</name></trkpt>
<trkpt lat="53.380543" lon="-1.600522"><ele>249</ele><time>2020-05-21T11:15:46Z</time><name>PT5009</name></trkpt>
<trkpt lat="53.380550" lon="-1.600510"><ele>248</ele><time>2020-05-21T11:15:47Z</time><name>PT5010</name></trkpt>
<trkpt lat="53.380563" lon="-1.600510"><ele>248</ele><time>2020-05-21T11:15:49Z</time><name>PT5011</name></trkpt>
<trkpt lat="53.380574" lon="-1.600505"><ele>248</ele><time>2020-05-21T11:15:49Z</time><name>PT5012</name></trkpt>
<trkpt lat="53.380582" lon="-1.600502"><ele>248</ele><time>2020-05-21T11:15:50Z</time><name>PT5013</name></trkpt>
<trkpt lat="53.380593" lon="-1.600502"><ele>248</ele><time>2020-05-21T11:15:52Z</time><name>PT5014</name></trkpt>
<trkpt lat="53.380602" lon="-1.600500"><ele>247</ele><time>2020-05-21T11:15:52Z</time><name>PT5015</name></trkpt>
<trkpt lat="53.380613" lon="-1.600491"><ele>248</ele><time>2020-05-21T11:15:53Z</time><name>PT5016</name></trkpt>
<trkpt lat="53.380623" lon="-1.600488"><ele>248</ele><time>2020-05-21T11:15:55Z</time><name>PT5017</name></trkpt>
<trkpt lat="53.380635" lon="-1.600484"><ele>248</ele><time>2020-05-21T11:15:55Z</time><name>PT5018</name></trkpt>
<trkpt lat="53.380647" lon="-1.600482"><ele>248</ele><time>2020-05-21T11:15:56Z</time><name>PT5019</name></trkpt>
<trkpt lat="53.380658" lon="-1.600477"><ele>248</ele><time>2020-05-21T11:15:58Z</time><name>PT5020</name></trkpt>
<trkpt lat="53.380668" lon="-1.600475"><ele>249</ele><time>2020-05-21T11:15:58Z</time><name>PT5021</name></trkpt>
<trkpt lat="53.380677" lon="-1.600475"><ele>249</ele><time>2020-05-21T11:15:59Z</time><name>PT5022</name></trkpt>
<trkpt lat="53.380686" lon="-1.600471"><ele>249</ele><time>2020-05-21T11:16:01Z</time><name>PT5023</name></trkpt>
<trkpt lat="53.380698" lon="-1.600474"><ele>249</ele><time>2020-05-21T11:16:01Z</time><name>PT5024</name></trkpt>
<trkpt lat="53.380713" lon="-1.600469"><ele>249</ele><time>2020-05-21T11:16:02Z</time><name>PT5025</name></trkpt>
<trkpt lat="53.380727" lon="-1.600469"><ele>249</ele><time>2020-05-21T11:16:04Z</time><name>PT5026</name></trkpt>
<trkpt lat="53.380739" lon="-1.600465"><ele>249</ele><time>2020-05-21T11:16:04Z</time><name>PT5027</name></trkpt>
<trkpt lat="53.380749" lon="-1.600462"><ele>248</ele><time>2020-05-21T11:16:05Z</time><name>PT5028</name></trkpt>
<trkpt lat="53.380759" lon="-1.600458"><ele>248</ele><time>2020-05-21T11:16:07Z</time><name>PT5029</name></trkpt>
<trkpt lat="53.380771" lon="-1.600454"><ele>248</ele><time>2020-05-21T11:16:07Z</time><name>PT5030</name></trkpt>
<trkpt lat="53.380785" lon="-1.600446"><ele>248</ele><time>2020-05-21T11:16:08Z</time><name>PT5031</name></trkpt>
<trkpt lat="53.380797" lon="-1.600442"><ele>248</ele><time>2020-05-21T11:16:10Z</time><name>PT5032</name></trkpt>
<trkpt lat="53.380807" lon="-1.600437"><ele>249</ele><time>2020-05-21T11:16:10Z</time><name>PT5033</name></trkpt>
<trkpt lat="53.380817" lon="-1.600434"><ele>249</ele><time>2020-05-21T11:16:11Z</time><name>PT5034</name></trkpt>
<trkpt lat="53.380832" lon="-1.600432"><ele>249</ele><time>2020-05-21T11:16:13Z</time><name>PT5035</name></trkpt>
<trkpt lat="53.380844" lon="-1.600430"><ele>249</ele><time>2020-05-21T11:16:13Z</time><name>PT5036</name></trkpt>
<trkpt lat="53.380858" lon="-1.600431"><ele>249</ele><time>2020-05-21T11:16:14Z</time><name>PT5037</name></trkpt>
<trkpt lat="53.380871" lon="-1.600429"><ele>249</ele><time>2020-05-21T11:16:16Z</time><name>PT5038</name></trkpt>
<trkpt lat="53.380883" lon="-1.600427"><ele>249</ele><time>2020-05-21T11:16:16Z</time><name>PT5039</name></trkpt>
<trkpt lat="53.380892" lon="-1.600427"><ele>248</ele><time>2020-05-21T11:16:17Z</time><name>PT5040</name></trkpt>
<trkpt lat="53.380901" lon="-1.600422"><ele>247</ele><time>2020-05-21T11:16:19Z</time><name>PT5041</name></trkpt>
<trkpt lat="53.380913" lon="-1.600418"><ele>247</ele><time>2020-05-21T11:16:19Z</time><name>PT5042</name></trkpt>
<trkpt lat="53.380923" lon="-1.600416"><ele>247</ele><time>2020-05-21T11:16:20Z</time><name>PT5043</name></trkpt>
<trkpt lat="53.380934" lon="-1.600412"><ele>247</ele><time>2020-05-21T11:16:22Z</time><name>PT5044</name></trkpt>
<trkpt lat="53.380945" lon="-1.600398"><ele>248</ele><time>2020-05-21T11:16:22Z</time><name>PT5045</name></trkpt>
<trkpt lat="53.380959" lon="-1.600389"><ele>248</ele><time>2020-05-21T11:16:23Z</time><name>PT5046</name></trkpt>
<trkpt lat="53.380972" lon="-1.600385"><ele>248</ele><time>2020-05-21T11:16:25Z</time><name>PT5047</name></trkpt>
<trkpt lat="53.380979" lon="-1.600391"><ele>248</ele><time>2020-05-21T11:16:25Z</time><name>PT5048</name></trkpt>
<trkpt lat="53.380983" lon="-1.600395"><ele>248</ele><time>2020-05-21T11:16:26Z</time><name>PT5049</name></trkpt>
<trkpt lat="53.380993" lon="-1.600398"><ele>248</ele><time>2020-05-21T11:16:28Z</time><name>PT5050</name></trkpt>
<trkpt lat="53.381003" lon="-1.600390"><ele>248</ele><time>2020-05-21T11:16:28Z</time><name>PT5051</name></trkpt>
<trkpt lat="53.381017" lon="-1.600378"><ele>248</ele><time>2020-05-21T11:16:29Z</time><name>PT5052</name></trkpt>
<trkpt lat="53.381026" lon="-1.600378"><ele>248</ele><time>2020-05-21T11:16:31Z</time><name>PT5053</name></trkpt>
<trkpt lat="53.381034" lon="-1.600373"><ele>248</ele><time>2020-05-21T11:16:31Z</time><name>PT5054</name></trkpt>
<trkpt lat="53.381042" lon="-1.600367"><ele>249</ele><time>2020-05-21T11:16:32Z</time><name>PT5055</name></trkpt>
<trkpt lat="53.381054" lon="-1.600371"><ele>249</ele><time>2020-05-21T11:16:34Z</time><name>PT5056</name></trkpt>
<trkpt lat="53.381068" lon="-1.600372"><ele>249</ele><time>2020-05-21T11:16:34Z</time><name>PT5057</name></trkpt>
<trkpt lat="53.381079" lon="-1.600366"><ele>248</ele><time>2020-05-21T11:16:35Z</time><name>PT5058</name></trkpt>
<trkpt lat="53.381087" lon="-1.600357"><ele>248</ele><time>2020-05-21T11:16:37Z</time><name>PT5059</name></trkpt>
<trkpt lat="53.381098" lon="-1.600349"><ele>249</ele><time>2020-05-21T11:16:37Z</time><name>PT5060</name></trkpt>
<trkpt lat="53.381105" lon="-1.600338"><ele>248</ele><time>2020-05-21T11:16:38Z</time><name>PT5061</name></trkpt>
<trkpt lat="53.381117" lon="-1.600329"><ele>248</ele><time>2020-05-21T11:16:40Z</time><name>PT5062</name></trkpt>
<trkpt lat="53.381136" lon="-1.600316"><ele>249</ele><time>2020-05-21T11:16:40Z</time><name>PT5063</name></trkpt>
<trkpt lat="53.381155" lon="-1.600308"><ele>250</ele><time>2020-05-21T11:16:41Z</time><name>PT5064</name></trkpt>
<trkpt lat="53.381163" lon="-1.600313"><ele>249</ele><time>2020-05-21T11:16:43Z</time><name>PT5065</name></trkpt>
<trkpt lat="53.381169" lon="-1.600308"><ele>247</ele><time>2020-05-21T11:16:43Z</time><name>PT5066</name></trkpt>
<trkpt lat="53.381174" lon="-1.600307"><ele>248</ele><time>2020-05-21T11:16:44Z</time><name>PT5067</name></trkpt>
<trkpt lat="53.381187" lon="-1.600305"><ele>247</ele><time>2020-05-21T11:16:46Z</time><name>PT5068</name></trkpt>
<trkpt lat="53.381205" lon="-1.600310"><ele>248</ele><time>2020-05-21T11:16:46Z</time><name>PT5069</name></trkpt>
<trkpt lat="53.381217" lon="-1.600310"><ele>247</ele><time>2020-05-21T11:16:47Z</time><name>PT5070</name></trkpt>
<trkpt lat="53.381231" lon="-1.600311"><ele>247</ele><time>2020-05-21T11:16:49Z</time><name>PT5071</name></trkpt>
<trkpt lat="53.381253" lon="-1.600293"><ele>249</ele><time>2020-05-21T11:16:49Z</time><name>PT5072</name></trkpt>
<trkpt lat="53.381262" lon="-1.600284"><ele>250</ele><time>2020-05-21T11:16:50Z</time><name>PT5073</name></trkpt>
<trkpt lat="53.381278" lon="-1.600275"><ele>250</ele><time>2020-05-21T11:16:52Z</time><name>PT5074</name></trkpt>
<trkpt lat="53.381293" lon="-1.600276"><ele>250</ele><time>2020-05-21T11:16:52Z</time><name>PT5075</name></trkpt>
<trkpt lat="53.381309" lon="-1.600271"><ele>250</ele><time>2020-05-21T11:16:53Z</time><name>PT5076</name></trkpt>
<trkpt lat="53.381319" lon="-1.600267"><ele>250</ele><time>2020-05-21T11:16:55Z</time><name>PT5077</name></trkpt>
<trkpt lat="53.381328" lon="-1.600253"><ele>251</ele><time>2020-05-21T11:16:55Z</time><name>PT5078</name></trkpt>
<trkpt lat="53.381343" lon="-1.600261"><ele>251</ele><time>2020-05-21T11:16:56Z</time><name>PT5079</name></trkpt>
<trkpt lat="53.381358" lon="-1.600267"><ele>252</ele><time>2020-05-21T11:16:58Z</time><name>PT5080</name></trkpt>
<trkpt lat="53.381377" lon="-1.600268"><ele>253</ele><time>2020-05-21T11:16:58Z</time><name>PT5081</name></trkpt>
<trkpt lat="53.381392" lon="-1.600266"><ele>254</ele><time>2020-05-21T11:16:59Z</time><name>PT5082</name></trkpt>
<trkpt lat="53.381405" lon="-1.600267"><ele>254</ele><time>2020-05-21T11:17:01Z</time><name>PT5083</name></trkpt>
<trkpt lat="53.381416" lon="-1.600270"><ele>253</ele><time>2020-05-21T11:17:01Z</time><name>PT5084</name></trkpt>
<trkpt lat="53.381427" lon="-1.600265"><ele>254</ele><time>2020-05-21T11:17:02Z</time><name>PT5085</name></trkpt>
<trkpt lat="53.381444" lon="-1.600254"><ele>253</ele><time>2020-05-21T11:17:04Z</time><name>PT5086</name></trkpt>
<trkpt lat="53.381459" lon="-1.600246"><ele>253</ele><time>2020-05-21T11:17:04Z</time><name>PT5087</name></trkpt>
<trkpt lat="53.381474" lon="-1.600240"><ele>254</ele><time>2020-05-21T11:17:05Z</time><name>PT5088</name></trkpt>
<trkpt lat="53.381482" lon="-1.600240"><ele>253</ele><time>2020-05-21T11:17:07Z</time><name>PT5089</name></trkpt>
<trkpt lat="53.381489" lon="-1.600229"><ele>254</ele><time>2020-05-21T11:17:07Z</time><name>PT5090</name></trkpt>
<trkpt lat="53.381491" lon="-1.600238"><ele>252</ele><time>2020-05-21T11:17:08Z</time><name>PT5091</name></trkpt>
<trkpt lat="53.381505" lon="-1.600234"><ele>253</ele><time>2020-05-21T11:17:10Z</time><name>PT5092</name></trkpt>
<trkpt lat="53.381520" lon="-1.600241"><ele>252</ele><time>2020-05-21T11:17:10Z</time><name>PT5093</name></trkpt>
<trkpt lat="53.381540" lon="-1.600230"><ele>253</ele><time>2020-05-21T11:17:11Z</time><name>PT5094</name></trkpt>
<trkpt lat="53.381561" lon="-1.600226"><ele>253</ele><time>2020-05-21T11:17:13Z</time><name>PT5095</name></trkpt>
<trkpt lat="53.381572" lon="-1.600228"><ele>253</ele><time>2020-05-21T11:17:13Z</time><name>PT5096</name></trkpt>
<trkpt lat="53.381585" lon="-1.600234"><ele>252</ele><time>2020-05-21T11:17:14Z</time><name>PT5097</name></trkpt>
<trkpt lat="53.381600" lon="-1.600231"><ele>253</ele><time>2020-05-21T11:17:16Z</time><name>PT5098</name></trkpt>
<trkpt lat="53.381614" lon="-1.600232"><ele>252</ele><time>2020-05-21T11:17:16Z</time><name>PT5099</name></trkpt>
<trkpt lat="53.381630" lon="-1.600234"><ele>252</ele><time>2020-05-21T11:17:17Z</time><name>PT5100</name></trkpt>
<trkpt lat="53.381650" lon="-1.600231"><ele>252</ele><time>2020-05-21T11:17:19Z</time><name>PT5101</name></trkpt>
<trkpt lat="53.381666" lon="-1.600222"><ele>253</ele><time>2020-05-21T11:17:19Z</time><name>PT5102</name></trkpt>
<trkpt lat="53.381665" lon="-1.600247"><ele>249</ele><time>2020-05-21T11:17:20Z</time><name>PT5103</name></trkpt>
<trkpt lat="53.381675" lon="-1.600251"><ele>250</ele><time>2020-05-21T11:17:22Z</time><name>PT5104</name></trkpt>
<trkpt lat="53.381687" lon="-1.600256"><ele>249</ele><time>2020-05-21T11:17:22Z</time><name>PT5105</name></trkpt>
<trkpt lat="53.381702" lon="-1.600257"><ele>248</ele><time>2020-05-21T11:17:24Z</time><name>PT5106</name></trkpt>
<trkpt lat="53.381718" lon="-1.600257"><ele>247</ele><time>2020-05-21T11:17:25Z</time><name>PT5107</name></trkpt>
<trkpt lat="53.381726" lon="-1.600266"><ele>246</ele><time>2020-05-21T11:17:25Z</time><name>PT5108</name></trkpt>
<trkpt lat="53.381734" lon="-1.600272"><ele>246</ele><time>2020-05-21T11:17:26Z</time><name>PT5109</name></trkpt>
<trkpt lat="53.381740" lon="-1.600281"><ele>246</ele><time>2020-05-21T11:17:28Z</time><name>PT5110</name></trkpt>
<trkpt lat="53.381751" lon="-1.600292"><ele>246</ele><time>2020-05-21T11:17:28Z</time><name>PT5111</name></trkpt>
<trkpt lat="53.381770" lon="-1.600305"><ele>246</ele><time>2020-05-21T11:17:29Z</time><name>PT5112</name></trkpt>
<trkpt lat="53.381788" lon="-1.600317"><ele>246</ele><time>2020-05-21T11:17:31Z</time><name>PT5113</name></trkpt>
<trkpt lat="53.381801" lon="-1.600324"><ele>247</ele><time>2020-05-21T11:17:31Z</time><name>PT5114</name></trkpt>
<trkpt lat="53.381812" lon="-1.600330"><ele>247</ele><time>2020-05-21T11:17:32Z</time><name>PT5115</name></trkpt>
<trkpt lat="53.381823" lon="-1.600346"><ele>247</ele><time>2020-05-21T11:17:34Z</time><name>PT5116</name></trkpt>
<trkpt lat="53.381838" lon="-1.600370"><ele>247</ele><time>2020-05-21T11:17:34Z</time><name>PT5117</name></trkpt>
<trkpt lat="53.381850" lon="-1.600387"><ele>247</ele><time>2020-05-21T11:17:35Z</time><name>PT5118</name></trkpt>
<trkpt lat="53.381864" lon="-1.600402"><ele>248</ele><time>2020-05-21T11:17:37Z</time><name>PT5119</name></trkpt>
<trkpt lat="53.381878" lon="-1.600441"><ele>249</ele><time>2020-05-21T11:17:37Z</time><name>PT5120</name></trkpt>
<trkpt lat="53.381891" lon="-1.600458"><ele>249</ele><time>2020-05-21T11:17:38Z</time><name>PT5121</name></trkpt>
<trkpt lat="53.381912" lon="-1.600470"><ele>250</ele><time>2020-05-21T11:17:40Z</time><name>PT5122</name></trkpt>
<trkpt lat="53.381932" lon="-1.600471"><ele>253</ele><time>2020-05-21T11:17:40Z</time><name>PT5123</name></trkpt>
<trkpt lat="53.381946" lon="-1.600482"><ele>254</ele><time>2020-05-21T11:17:41Z</time><name>PT5124</name></trkpt>
<trkpt lat="53.381955" lon="-1.600503"><ele>253</ele><time>2020-05-21T11:17:43Z</time><name>PT5125</name></trkpt>
<trkpt lat="53.381960" lon="-1.600527"><ele>252</ele><time>2020-05-21T11:17:43Z</time><name>PT5126</name></trkpt>
<trkpt lat="53.381970" lon="-1.600549"><ele>252</ele><time>2020-05-21T11:17:44Z</time><name>PT5127</name></trkpt>
<trkpt lat="53.381976" lon="-1.600569"><ele>252</ele><time>2020-05-21T11:17:46Z</time><name>PT5128</name></trkpt>
<trkpt lat="53.381986" lon="-1.600584"><ele>252</ele><time>2020-05-21T11:17:46Z</time><name>PT5129</name></trkpt>
<trkpt lat="53.381991" lon="-1.600603"><ele>253</ele><time>2020-05-21T11:17:47Z</time><name>PT5130</name></trkpt>
<trkpt lat="53.381986" lon="-1.600623"><ele>252</ele><time>2020-05-21T11:17:49Z</time><name>PT5131</name></trkpt>
<trkpt lat="53.381989" lon="-1.600640"><ele>252</ele><time>2020-05-21T11:17:49Z</time><name>PT5132</name></trkpt>
<trkpt lat="53.381995" lon="-1.600657"><ele>252</ele><time>2020-05-21T11:17:50Z</time><name>PT5133</name></trkpt>
<trkpt lat="53.382004" lon="-1.600671"><ele>252</ele><time>2020-05-21T11:17:52Z</time><name>PT5134</name></trkpt>
<trkpt lat="53.382009" lon="-1.600685"><ele>252</ele><time>2020-05-21T11:17:52Z</time><name>PT5135</name></trkpt>
<trkpt lat="53.382015" lon="-1.600702"><ele>252</ele><time>2020-05-21T11:17:53Z</time><name>PT5136</name></trkpt>
<trkpt lat="53.382023" lon="-1.600722"><ele>251</ele><time>2020-05-21T11:17:55Z</time><name>PT5137</name></trkpt>
<trkpt lat="53.382027" lon="-1.600739"><ele>251</ele><time>2020-05-21T11:17:55Z</time><name>PT5138</name></trkpt>
<trkpt lat="53.382032" lon="-1.600757"><ele>251</ele><time>2020-05-21T11:17:56Z</time><name>PT5139</name></trkpt>
<trkpt lat="53.382035" lon="-1.600781"><ele>251</ele><time>2020-05-21T11:17:58Z</time><name>PT5140</name></trkpt>
<trkpt lat="53.382039" lon="-1.600803"><ele>251</ele><time>2020-05-21T11:17:58Z</time><name>PT5141</name></trkpt>
<trkpt lat="53.382043" lon="-1.600818"><ele>251</ele><time>2020-05-21T11:17:59Z</time><name>PT5142</name></trkpt>
<trkpt lat="53.382053" lon="-1.600834"><ele>251</ele><time>2020-05-21T11:18:01Z</time><name>PT5143</name></trkpt>
<trkpt lat="53.382056" lon="-1.600855"><ele>251</ele><time>2020-05-21T11:18:01Z</time><name>PT5144</name></trkpt>
<trkpt lat="53.382061" lon="-1.600877"><ele>251</ele><time>2020-05-21T11:18:02Z</time><name>PT5145</name></trkpt>
<trkpt lat="53.382067" lon="-1.600897"><ele>252</ele><time>2020-05-21T11:18:04Z</time><name>PT5146</name></trkpt>
<trkpt lat="53.382072" lon="-1.600916"><ele>251</ele><time>2020-05-21T11:18:04Z</time><name>PT5147</name></trkpt>
<trkpt lat="53.382079" lon="-1.600935"><ele>252</ele><time>2020-05-21T11:18:05Z</time><name>PT5148</name></trkpt>
<trkpt lat="53.382083" lon="-1.600948"><ele>253</ele><time>2020-05-21T11:18:07Z</time><name>PT5149</name></trkpt>
<trkpt lat="53.382088" lon="-1.600964"><ele>254</ele><time>2020-05-21T11:18:07Z</time><name>PT5150</name></trkpt>
<trkpt lat="53.382091" lon="-1.600983"><ele>254</ele><time>2020-05-21T11:18:08Z</time><name>PT5151</name></trkpt>
<trkpt lat="53.382092" lon="-1.601004"><ele>253</ele><time>2020-05-21T11:18:10Z</time><name>PT5152</name></trkpt>
<trkpt lat="53.382096" lon="-1.601030"><ele>254</ele><time>2020-05-21T11:18:10Z</time><name>PT5153</name></trkpt>
<trkpt lat="53.382098" lon="-1.601056"><ele>253</ele><time>2020-05-21T11:18:11Z</time><name>PT5154</name></trkpt>
<trkpt lat="53.382102" lon="-1.601077"><ele>253</ele><time>2020-05-21T11:18:13Z</time><name>PT5155</name></trkpt>
<trkpt lat="53.382113" lon="-1.601093"><ele>254</ele><time>2020-05-21T11:18:13Z</time><name>PT5156</name></trkpt>
<trkpt lat="53.382118" lon="-1.601105"><ele>254</ele><time>2020-05-21T11:18:14Z</time><name>PT5157</name></trkpt>
<trkpt lat="53.382121" lon="-1.601126"><ele>254</ele><time>2020-05-21T11:18:16Z</time><name>PT5158</name></trkpt>
<trkpt lat="53.382124" lon="-1.601148"><ele>255</ele><time>2020-05-21T11:18:16Z</time><name>PT5159</name></trkpt>
<trkpt lat="53.382127" lon="-1.601158"><ele>255</ele><time>2020-05-21T11:18:17Z</time><name>PT5160</name></trkpt>
<trkpt lat="53.382133" lon="-1.601168"><ele>255</ele><time>2020-05-21T11:18:19Z</time><name>PT5161</name></trkpt>
<trkpt lat="53.382137" lon="-1.601184"><ele>255</ele><time>2020-05-21T11:18:19Z</time><name>PT5162</name></trkpt>
<trkpt lat="53.382144" lon="-1.601201"><ele>255</ele><time>2020-05-21T11:18:20Z</time><name>PT5163</name></trkpt>
<trkpt lat="53.382150" lon="-1.601223"><ele>255</ele><time>2020-05-21T11:18:22Z</time><name>PT5164</name></trkpt>
<trkpt lat="53.382142" lon="-1.601242"><ele>255</ele><time>2020-05-21T11:18:22Z</time><name>PT5165</name></trkpt>
<trkpt lat="53.382138" lon="-1.601257"><ele>254</ele><time>2020-05-21T11:18:23Z</time><name>PT5166</name></trkpt>
<trkpt lat="53.382137" lon="-1.601274"><ele>254</ele><time>2020-05-21T11:18:25Z</time><name>PT5167</name></trkpt>
<trkpt lat="53.382140" lon="-1.601286"><ele>255</ele><time>2020-05-21T11:18:25Z</time><name>PT5168</name></trkpt>
<trkpt lat="53.382141" lon="-1.601300"><ele>254</ele><time>2020-05-21T11:18:26Z</time><name>PT5169</name></trkpt>
<trkpt lat="53.382147" lon="-1.601319"><ele>255</ele><time>2020-05-21T11:18:28Z</time><name>PT5170</name></trkpt>
<trkpt lat="53.382153" lon="-1.601340"><ele>256</ele><time>2020-05-21T11:18:28Z</time><name>PT5171</name></trkpt>
<trkpt lat="53.382157" lon="-1.601365"><ele>258</ele><time>2020-05-21T11:18:29Z</time><name>PT5172</name></trkpt>
<trkpt lat="53.382156" lon="-1.601381"><ele>259</ele><time>2020-05-21T11:18:31Z</time><name>PT5173</name></trkpt>
<trkpt lat="53.382161" lon="-1.601400"><ele>260</ele><time>2020-05-21T11:18:31Z</time><name>PT5174</name></trkpt>
<trkpt lat="53.382166" lon="-1.601420"><ele>261</ele><time>2020-05-21T11:18:32Z</time><name>PT5175</name></trkpt>
<trkpt lat="53.382166" lon="-1.601437"><ele>260</ele><time>2020-05-21T11:18:34Z</time><name>PT5176</name></trkpt>
<trkpt lat="53.382165" lon="-1.601453"><ele>260</ele><time>2020-05-21T11:18:34Z</time><name>PT5177</name></trkpt>
<trkpt lat="53.382166" lon="-1.601467"><ele>260</ele><time>2020-05-21T11:18:35Z</time><name>PT5178</name></trkpt>
<trkpt lat="53.382172" lon="-1.601486"><ele>260</ele><time>2020-05-21T11:18:37Z</time><name>PT5179</name></trkpt>
<trkpt lat="53.382181" lon="-1.601513"><ele>262</ele><time>2020-05-21T11:18:37Z</time><name>PT5180</name></trkpt>
<trkpt lat="53.382181" lon="-1.601536"><ele>262</ele><time>2020-05-21T11:18:38Z</time><name>PT5181</name></trkpt>
<trkpt lat="53.382186" lon="-1.601549"><ele>261</ele><time>2020-05-21T11:18:40Z</time><name>PT5182</name></trkpt>
<trkpt lat="53.382192" lon="-1.601567"><ele>262</ele><time>2020-05-21T11:18:40Z</time><name>PT5183</name></trkpt>
<trkpt lat="53.382202" lon="-1.601584"><ele>263</ele><time>2020-05-21T11:18:41Z</time><name>PT5184</name></trkpt>
<trkpt lat="53.382204" lon="-1.601600"><ele>263</ele><time>2020-05-21T11:18:43Z</time><name>PT5185</name></trkpt>
<trkpt lat="53.382206" lon="-1.601623"><ele>264</ele><time>2020-05-21T11:18:43Z</time><name>PT5186</name></trkpt>
<trkpt lat="53.382215" lon="-1.601644"><ele>265</ele><time>2020-05-21T11:18:44Z</time><name>PT5187</name></trkpt>
<trkpt lat="53.382221" lon="-1.601669"><ele>266</ele><time>2020-05-21T11:18:46Z</time><name>PT5188</name></trkpt>
<trkpt lat="53.382213" lon="-1.601686"><ele>266</ele><time>2020-05-21T11:18:46Z</time><name>PT5189</name></trkpt>
<trkpt lat="53.382197" lon="-1.601706"><ele>263</ele><time>2020-05-21T11:18:47Z</time><name>PT5190</name></trkpt>
<trkpt lat="53.382199" lon="-1.601730"><ele>263</ele><time>2020-05-21T11:18:49Z</time><name>PT5191</name></trkpt>
<trkpt lat="53.382199" lon="-1.601751"><ele>262</ele><time>2020-05-21T11:18:49Z</time><name>PT5192</name></trkpt>
<trkpt lat="53.382209" lon="-1.601778"><ele>263</ele><time>2020-05-21T11:18:50Z</time><name>PT5193</name></trkpt>
<trkpt lat="53.382210" lon="-1.601811"><ele>263</ele><time>2020-05-21T11:18:52Z</time><name>PT5194</name></trkpt>
<trkpt lat="53.382218" lon="-1.601836"><ele>265</ele><time>2020-05-21T11:18:52Z</time><name>PT5195</name></trkpt>
<trkpt lat="53.382227" lon="-1.601857"><ele>265</ele><time>2020-05-21T11:18:53Z</time><name>PT5196</name></trkpt>
<trkpt lat="53.382228" lon="-1.601879"><ele>264</ele><time>2020-05-21T11:18:55Z</time><name>PT5197</name></trkpt>
<trkpt lat="53.382237" lon="-1.601899"><ele>264</ele><time>2020-05-21T11:18:55Z</time><name>PT5198</name></trkpt>
<trkpt lat="53.382250" lon="-1.601925"><ele>265</ele><time>2020-05-21T11:18:56Z</time><name>PT5199</name></trkpt>
<trkpt lat="53.382253" lon="-1.601948"><ele>265</ele><time>2020-05-21T11:18:58Z</time><name>PT5200</name></trkpt>
<trkpt lat="53.382260" lon="-1.601970"><ele>265</ele><time>2020-05-21T11:18:58Z</time><name>PT5201</name></trkpt>
<trkpt lat="53.382265" lon="-1.601996"><ele>265</ele><time>2020-05-21T11:18:59Z</time><name>PT5202</name></trkpt>
<trkpt lat="53.382266" lon="-1.602014"><ele>265</ele><time>2020-05-21T11:19:01Z</time><name>PT5203</name></trkpt>
<trkpt lat="53.382266" lon="-1.602035"><ele>265</ele><time>2020-05-21T11:19:01Z</time><name>PT5204</name></trkpt>
<trkpt lat="53.382262" lon="-1.602061"><ele>264</ele><time>2020-05-21T11:19:02Z</time><name>PT5205</name></trkpt>
<trkpt lat="53.382261" lon="-1.602085"><ele>265</ele><time>2020-05-21T11:19:04Z</time><name>PT5206</name></trkpt>
<trkpt lat="53.382268" lon="-1.602111"><ele>265</ele><time>2020-05-21T11:19:04Z</time><name>PT5207</name></trkpt>
<trkpt lat="53.382275" lon="-1.602138"><ele>265</ele><time>2020-05-21T11:19:05Z</time><name>PT5208</name></trkpt>
<trkpt lat="53.382281" lon="-1.602159"><ele>266</ele><time>2020-05-21T11:19:07Z</time><name>PT5209</name></trkpt>
<trkpt lat="53.382285" lon="-1.602175"><ele>266</ele><time>2020-05-21T11:19:07Z</time><name>PT5210</name></trkpt>
<trkpt lat="53.382288" lon="-1.602187"><ele>266</ele><time>2020-05-21T11:19:08Z</time><name>PT5211</name></trkpt>
<trkpt lat="53.382296" lon="-1.602207"><ele>267</ele><time>2020-05-21T11:19:10Z</time><name>PT5212</name></trkpt>
<trkpt lat="53.382300" lon="-1.602231"><ele>267</ele><time>2020-05-21T11:19:10Z</time><name>PT5213</name></trkpt>
<trkpt lat="53.382308" lon="-1.602250"><ele>267</ele><time>2020-05-21T11:19:11Z</time><name>PT5214</name></trkpt>
<trkpt lat="53.382313" lon="-1.602267"><ele>267</ele><time>2020-05-21T11:19:13Z</time><name>PT5215</name></trkpt>
<trkpt lat="53.382323" lon="-1.602284"><ele>267</ele><time>2020-05-21T11:19:13Z</time><name>PT5216</name></trkpt>
<trkpt lat="53.382328" lon="-1.602297"><ele>268</ele><time>2020-05-21T11:19:14Z</time><name>PT5217</name></trkpt>
<trkpt lat="53.382335" lon="-1.602315"><ele>268</ele><time>2020-05-21T11:19:16Z</time><name>PT5218</name></trkpt>
<trkpt lat="53.382341" lon="-1.602333"><ele>268</ele><time>2020-05-21T11:19:16Z</time><name>PT5219</name></trkpt>
<trkpt lat="53.382356" lon="-1.602353"><ele>269</ele><time>2020-05-21T11:19:17Z</time><name>PT5220</name></trkpt>
<trkpt lat="53.382360" lon="-1.602367"><ele>269</ele><time>2020-05-21T11:19:19Z</time><name>PT5221</name></trkpt>
<trkpt lat="53.382363" lon="-1.602376"><ele>269</ele><time>2020-05-21T11:19:19Z</time><name>PT5222</name></trkpt>
<trkpt lat="53.382362" lon="-1.602394"><ele>269</ele><time>2020-05-21T11:19:20Z</time><name>PT5223</name></trkpt>
<trkpt lat="53.382362" lon="-1.602415"><ele>268</ele><time>2020-05-21T11:19:22Z</time><name>PT5224</name></trkpt>
<trkpt lat="53.382366" lon="-1.602435"><ele>268</ele><time>2020-05-21T11:19:22Z</time><name>PT5225</name></trkpt>
<trkpt lat="53.382368" lon="-1.602459"><ele>266</ele><time>2020-05-21T11:19:23Z</time><name>PT5226</name></trkpt>
<trkpt lat="53.382379" lon="-1.602477"><ele>267</ele><time>2020-05-21T11:19:25Z</time><name>PT5227</name></trkpt>
<trkpt lat="53.382385" lon="-1.602494"><ele>266</ele><time>2020-05-21T11:19:25Z</time><name>PT5228</name></trkpt>
<trkpt lat="53.382390" lon="-1.602512"><ele>266</ele><time>2020-05-21T11:19:26Z</time><name>PT5229</name></trkpt>
<trkpt lat="53.382397" lon="-1.602535"><ele>267</ele><time>2020-05-21T11:19:28Z</time><name>PT5230</name></trkpt>
<trkpt lat="53.382402" lon="-1.602558"><ele>267</ele><time>2020-05-21T11:19:28Z</time><name>PT5231</name></trkpt>
<trkpt lat="53.382408" lon="-1.602576"><ele>266</ele><time>2020-05-21T11:19:29Z</time><name>PT5232</name></trkpt>
<trkpt lat="53.382418" lon="-1.602588"><ele>266</ele><time>2020-05-21T11:19:31Z</time><name>PT5233</name></trkpt>
<trkpt lat="53.382419" lon="-1.602600"><ele>266</ele><time>2020-05-21T11:19:31Z</time><name>PT5234</name></trkpt>
<trkpt lat="53.382417" lon="-1.602617"><ele>264</ele><time>2020-05-21T11:19:32Z</time><name>PT5235</name></trkpt>
<trkpt lat="53.382419" lon="-1.602639"><ele>263</ele><time>2020-05-21T11:19:34Z</time><name>PT5236</name></trkpt>
<trkpt lat="53.382423" lon="-1.602663"><ele>263</ele><time>2020-05-21T11:19:34Z</time><name>PT5237</name></trkpt>
<trkpt lat="53.382429" lon="-1.602685"><ele>262</ele><time>2020-05-21T11:19:35Z</time><name>PT5238</name></trkpt>
<trkpt lat="53.382434" lon="-1.602706"><ele>262</ele><time>2020-05-21T11:19:37Z</time><name>PT5239</name></trkpt>
<trkpt lat="53.382441" lon="-1.602739"><ele>263</ele><time>2020-05-21T11:19:37Z</time><name>PT5240</name></trkpt>
<trkpt lat="53.382440" lon="-1.602762"><ele>262</ele><time>2020-05-21T11:19:38Z</time><name>PT5241</name></trkpt>
<trkpt lat="53.382442" lon="-1.602778"><ele>261</ele><time>2020-05-21T11:19:40Z</time><name>PT5242</name></trkpt>
<trkpt lat="53.382435" lon="-1.602797"><ele>259</ele><time>2020-05-21T11:19:40Z</time><name>PT5243</name></trkpt>
<trkpt lat="53.382439" lon="-1.602827"><ele>259</ele><time>2020-05-21T11:19:41Z</time><name>PT5244</name></trkpt>
<trkpt lat="53.382446" lon="-1.602851"><ele>259</ele><time>2020-05-21T11:19:43Z</time><name>PT5245</name></trkpt>
<trkpt lat="53.382456" lon="-1.602874"><ele>259</ele><time>2020-05-21T11:19:43Z</time><name>PT5246</name></trkpt>
<trkpt lat="53.382465" lon="-1.602899"><ele>259</ele><time>2020-05-21T11:19:44Z</time><name>PT5247</name></trkpt>
<trkpt lat="53.382468" lon="-1.602919"><ele>259</ele><time>2020-05-21T11:19:46Z</time><name>PT5248</name></trkpt>
<trkpt lat="53.382472" lon="-1.602934"><ele>258</ele><time>2020-05-21T11:19:46Z</time><name>PT5249</name></trkpt>
<trkpt lat="53.382472" lon="-1.602969"><ele>256</ele><time>2020-05-21T11:19:47Z</time><name>PT5250</name></trkpt>
<trkpt lat="53.382477" lon="-1.602991"><ele>256</ele><time>2020-05-21T11:19:49Z</time><name>PT5251</name></trkpt>
<trkpt lat="53.382489" lon="-1.603014"><ele>257</ele><time>2020-05-21T11:19:49Z</time><name>PT5252</name></trkpt>
<trkpt lat="53.382499" lon="-1.603041"><ele>257</ele><time>2020-05-21T11:19:50Z</time><name>PT5253</name></trkpt>
<trkpt lat="53.382506" lon="-1.603060"><ele>257</ele><time>2020-05-21T11:19:52Z</time><name>PT5254</name></trkpt>
<trkpt lat="53.382518" lon="-1.603073"><ele>256</ele><time>2020-05-21T11:19:52Z</time><name>PT5255</name></trkpt>
<trkpt lat="53.382525" lon="-1.603089"><ele>256</ele><time>2020-05-21T11:19:53Z</time><name>PT5256</name></trkpt>
<trkpt lat="53.382533" lon="-1.603107"><ele>255</ele><time>2020-05-21T11:19:55Z</time><name>PT5257</name></trkpt>
<trkpt lat="53.382540" lon="-1.603128"><ele>255</ele><time>2020-05-21T11:19:55Z</time><name>PT5258</name></trkpt>
<trkpt lat="53.382546" lon="-1.603148"><ele>256</ele><time>2020-05-21T11:19:56Z</time><name>PT5259</name></trkpt>
<trkpt lat="53.382553" lon="-1.603175"><ele>256</ele><time>2020-05-21T11:19:58Z</time><name>PT5260</name></trkpt>
<trkpt lat="53.382555" lon="-1.603194"><ele>255</ele><time>2020-05-21T11:19:58Z</time><name>PT5261</name></trkpt>
<trkpt lat="53.382552" lon="-1.603213"><ele>254</ele><time>2020-05-21T11:19:59Z</time><name>PT5262</name></trkpt>
<trkpt lat="53.382564" lon="-1.603235"><ele>257</ele><time>2020-05-21T11:20:01Z</time><name>PT5263</name></trkpt>
<trkpt lat="53.382583" lon="-1.603263"><ele>257</ele><time>2020-05-21T11:20:01Z</time><name>PT5264</name></trkpt>
<trkpt lat="53.382591" lon="-1.603302"><ele>257</ele><time>2020-05-21T11:20:02Z</time><name>PT5265</name></trkpt>
<trkpt lat="53.382601" lon="-1.603325"><ele>259</ele><time>2020-05-21T11:20:04Z</time><name>PT5266</name></trkpt>
<trkpt lat="53.382605" lon="-1.603352"><ele>258</ele><time>2020-05-21T11:20:04Z</time><name>PT5267</name></trkpt>
<trkpt lat="53.382616" lon="-1.603372"><ele>258</ele><time>2020-05-21T11:20:05Z</time><name>PT5268</name></trkpt>
<trkpt lat="53.382621" lon="-1.603392"><ele>258</ele><time>2020-05-21T11:20:07Z</time><name>PT5269</name></trkpt>
<trkpt lat="53.382630" lon="-1.603409"><ele>257</ele><time>2020-05-21T11:20:07Z</time><name>PT5270</name></trkpt>
<trkpt lat="53.382636" lon="-1.603428"><ele>256</ele><time>2020-05-21T11:20:08Z</time><name>PT5271</name></trkpt>
<trkpt lat="53.382645" lon="-1.603444"><ele>256</ele><time>2020-05-21T11:20:10Z</time><name>PT5272</name></trkpt>
<trkpt lat="53.382662" lon="-1.603463"><ele>256</ele><time>2020-05-21T11:20:10Z</time><name>PT5273</name></trkpt>
<trkpt lat="53.382670" lon="-1.603481"><ele>256</ele><time>2020-05-21T11:20:11Z</time><name>PT5274</name></trkpt>
<trkpt lat="53.382673" lon="-1.603499"><ele>256</ele><time>2020-05-21T11:20:13Z</time><name>PT5275</name></trkpt>
<trkpt lat="53.382684" lon="-1.603519"><ele>256</ele><time>2020-05-21T11:20:13Z</time><name>PT5276</name></trkpt>
<trkpt lat="53.382691" lon="-1.603541"><ele>256</ele><time>2020-05-21T11:20:14Z</time><name>PT5277</name></trkpt>
<trkpt lat="53.382697" lon="-1.603562"><ele>256</ele><time>2020-05-21T11:20:16Z</time><name>PT5278</name></trkpt>
<trkpt lat="53.382703" lon="-1.603581"><ele>256</ele><time>2020-05-21T11:20:16Z</time><name>PT5279</name></trkpt>
<trkpt lat="53.382707" lon="-1.603600"><ele>256</ele><time>2020-05-21T11:20:17Z</time><name>PT5280</name></trkpt>
<trkpt lat="53.382713" lon="-1.603620"><ele>256</ele><time>2020-05-21T11:20:19Z</time><name>PT5281</name></trkpt>
<trkpt lat="53.382721" lon="-1.603635"><ele>257</ele><time>2020-05-21T11:20:19Z</time><name>PT5282</name></trkpt>
<trkpt lat="53.382732" lon="-1.603653"><ele>257</ele><time>2020-05-21T11:20:20Z</time><name>PT5283</name></trkpt>
<trkpt lat="53.382738" lon="-1.603672"><ele>256</ele><time>2020-05-21T11:20:22Z</time><name>PT5284</name></trkpt>
<trkpt lat="53.382743" lon="-1.603688"><ele>256</ele><time>2020-05-21T11:20:22Z</time><name>PT5285</name></trkpt>
<trkpt lat="53.382750" lon="-1.603707"><ele>256</ele><time>2020-05-21T11:20:23Z</time><name>PT5286</name></trkpt>
<trkpt lat="53.382753" lon="-1.603727"><ele>255</ele><time>2020-05-21T11:20:25Z</time><name>PT5287</name></trkpt>
<trkpt lat="53.382754" lon="-1.603748"><ele>255</ele><time>2020-05-21T11:20:25Z</time><name>PT5288</name></trkpt>
<trkpt lat="53.382756" lon="-1.603767"><ele>254</ele><time>2020-05-21T11:20:26Z</time><name>PT5289</name></trkpt>
<trkpt lat="53.382759" lon="-1.603790"><ele>254</ele><time>2020-05-21T11:20:28Z</time><name>PT5290</name></trkpt>
<trkpt lat="53.382767" lon="-1.603809"><ele>254</ele><time>2020-05-21T11:20:28Z</time><name>PT5291</name></trkpt>
<trkpt lat="53.382770" lon="-1.603830"><ele>254</ele><time>2020-05-21T11:20:29Z</time><name>PT5292</name></trkpt>
<trkpt lat="53.382773" lon="-1.603848"><ele>254</ele><time>2020-05-21T11:20:31Z</time><name>PT5293</name></trkpt>
<trkpt lat="53.382780" lon="-1.603860"><ele>254</ele><time>2020-05-21T11:20:31Z</time><name>PT5294</name></trkpt>
<trkpt lat="53.382786" lon="-1.603878"><ele>253</ele><time>2020-05-21T11:20:32Z</time><name>PT5295</name></trkpt>
<trkpt lat="53.382787" lon="-1.603901"><ele>254</ele><time>2020-05-21T11:20:34Z</time><name>PT5296</name></trkpt>
<trkpt lat="53.382788" lon="-1.603922"><ele>254</ele><time>2020-05-21T11:20:34Z</time><name>PT5297</name></trkpt>
<trkpt lat="53.382789" lon="-1.603942"><ele>255</ele><time>2020-05-21T11:20:35Z</time><name>PT5298</name></trkpt>
<trkpt lat="53.382795" lon="-1.603964"><ele>255</ele><time>2020-05-21T11:20:37Z</time><name>PT5299</name></trkpt>
<trkpt lat="53.382797" lon="-1.603982"><ele>255</ele><time>2020-05-21T11:20:37Z</time><name>PT5300</name></trkpt>
<trkpt lat="53.382800" lon="-1.603999"><ele>254</ele><time>2020-05-21T11:20:38Z</time><name>PT5301</name></trkpt>
<trkpt lat="53.382803" lon="-1.604021"><ele>253</ele><time>2020-05-21T11:20:40Z</time><name>PT5302</name></trkpt>
<trkpt lat="53.382806" lon="-1.604042"><ele>253</ele><time>2020-05-21T11:20:40Z</time><name>PT5303</name></trkpt>
<trkpt lat="53.382808" lon="-1.604060"><ele>252</ele><time>2020-05-21T11:20:41Z</time><name>PT5304</name></trkpt>
<trkpt lat="53.382805" lon="-1.604083"><ele>253</ele><time>2020-05-21T11:20:43Z</time><name>PT5305</name></trkpt>
<trkpt lat="53.382805" lon="-1.604105"><ele>252</ele><time>2020-05-21T11:20:43Z</time><name>PT5306</name></trkpt>
<trkpt lat="53.382807" lon="-1.604127"><ele>252</ele><time>2020-05-21T11:20:44Z</time><name>PT5307</name></trkpt>
<trkpt lat="53.382806" lon="-1.604149"><ele>252</ele><time>2020-05-21T11:20:46Z</time><name>PT5308</name></trkpt>
<trkpt lat="53.382806" lon="-1.604169"><ele>252</ele><time>2020-05-21T11:20:46Z</time><name>PT5309</name></trkpt>
<trkpt lat="53.382811" lon="-1.604185"><ele>251</ele><time>2020-05-21T11:20:47Z</time><name>PT5310</name></trkpt>
<trkpt lat="53.382813" lon="-1.604202"><ele>251</ele><time>2020-05-21T11:20:49Z</time><name>PT5311</name></trkpt>
<trkpt lat="53.382811" lon="-1.604219"><ele>251</ele><time>2020-05-21T11:20:49Z</time><name>PT5312</name></trkpt>
<trkpt lat="53.382808" lon="-1.604242"><ele>251</ele><time>2020-05-21T11:20:50Z</time><name>PT5313</name></trkpt>
<trkpt lat="53.382802" lon="-1.604262"><ele>251</ele><time>2020-05-21T11:20:52Z</time><name>PT5314</name></trkpt>
<trkpt lat="53.382794" lon="-1.604288"><ele>250</ele><time>2020-05-21T11:20:52Z</time><name>PT5315</name></trkpt>
<trkpt lat="53.382790" lon="-1.604310"><ele>250</ele><time>2020-05-21T11:20:53Z</time><name>PT5316</name></trkpt>
<trkpt lat="53.382790" lon="-1.604325"><ele>250</ele><time>2020-05-21T11:20:55Z</time><name>PT5317</name></trkpt>
<trkpt lat="53.382783" lon="-1.604352"><ele>251</ele><time>2020-05-21T11:20:55Z</time><name>PT5318</name></trkpt>
<trkpt lat="53.382780" lon="-1.604372"><ele>250</ele><time>2020-05-21T11:20:56Z</time><name>PT5319</name></trkpt>
<trkpt lat="53.382775" lon="-1.604394"><ele>250</ele><time>2020-05-21T11:20:58Z</time><name>PT5320</name></trkpt>
<trkpt lat="53.382774" lon="-1.604419"><ele>250</ele><time>2020-05-21T11:20:58Z</time><name>PT5321</name></trkpt>
<trkpt lat="53.382775" lon="-1.604441"><ele>250</ele><time>2020-05-21T11:20:59Z</time><name>PT5322</name></trkpt>
<trkpt lat="53.382774" lon="-1.604461"><ele>250</ele><time>2020-05-21T11:21:01Z</time><name>PT5323</name></trkpt>
<trkpt lat="53.382772" lon="-1.604481"><ele>251</ele><time>2020-05-21T11:21:01Z</time><name>PT5324</name></trkpt>
<trkpt lat="53.382769" lon="-1.604501"><ele>251</ele><time>2020-05-21T11:21:02Z</time><name>PT5325</name></trkpt>
<trkpt lat="53.382765" lon="-1.604521"><ele>251</ele><time>2020-05-21T11:21:04Z</time><name>PT5326</name></trkpt>
<trkpt lat="53.382755" lon="-1.604539"><ele>251</ele><time>2020-05-21T11:21:04Z</time><name>PT5327</name></trkpt>
<trkpt lat="53.382753" lon="-1.604554"><ele>251</ele><time>2020-05-21T11:21:05Z</time><name>PT5328</name></trkpt>
<trkpt lat="53.382749" lon="-1.604573"><ele>252</ele><time>2020-05-21T11:21:07Z</time><name>PT5329</name></trkpt>
<trkpt lat="53.382745" lon="-1.604587"><ele>251</ele><time>2020-05-21T11:21:07Z</time><name>PT5330</name></trkpt>
<trkpt lat="53.382741" lon="-1.604603"><ele>251</ele><time>2020-05-21T11:21:08Z</time><name>PT5331</name></trkpt>
<trkpt lat="53.382738" lon="-1.604618"><ele>250</ele><time>2020-05-21T11:21:10Z</time><name>PT5332</name></trkpt>
<trkpt lat="53.382737" lon="-1.604635"><ele>251</ele><time>2020-05-21T11:21:10Z</time><name>PT5333</name></trkpt>
<trkpt lat="53.382738" lon="-1.604649"><ele>251</ele><time>2020-05-21T11:21:11Z</time><name>PT5334</name></trkpt>
<trkpt lat="53.382736" lon="-1.604665"><ele>251</ele><time>2020-05-21T11:21:13Z</time><name>PT5335</name></trkpt>
<trkpt lat="53.382734" lon="-1.604683"><ele>251</ele><time>2020-05-21T11:21:13Z</time><name>PT5336</name></trkpt>
<trkpt lat="53.382731" lon="-1.604706"><ele>252</ele><time>2020-05-21T11:21:14Z</time><name>PT5337</name></trkpt>
<trkpt lat="53.382737" lon="-1.604719"><ele>251</ele><time>2020-05-21T11:21:16Z</time><name>PT5338</name></trkpt>
<trkpt lat="53.382741" lon="-1.604731"><ele>252</ele><time>2020-05-21T11:21:16Z</time><name>PT5339</name></trkpt>
<trkpt lat="53.382740" lon="-1.604749"><ele>252</ele><time>2020-05-21T11:21:17Z</time><name>PT5340</name></trkpt>
<trkpt lat="53.382739" lon="-1.604773"><ele>252</ele><time>2020-05-21T11:21:19Z</time><name>PT5341</name></trkpt>
<trkpt lat="53.382736" lon="-1.604801"><ele>253</ele><time>2020-05-21T11:21:19Z</time><name>PT5342</name></trkpt>
<trkpt lat="53.382736" lon="-1.604828"><ele>253</ele><time>2020-05-21T11:21:20Z</time><name>PT5343</name></trkpt>
<trkpt lat="53.382731" lon="-1.604857"><ele>253</ele><time>2020-05-21T11:21:22Z</time><name>PT5344</name></trkpt>
<trkpt lat="53.382730" lon="-1.604880"><ele>253</ele><time>2020-05-21T11:21:22Z</time><name>PT5345</name></trkpt>
<trkpt lat="53.382734" lon="-1.604902"><ele>253</ele><time>2020-05-21T11:21:23Z</time><name>PT5346</name></trkpt>
<trkpt lat="53.382734" lon="-1.604926"><ele>253</ele><time>2020-05-21T11:21:25Z</time><name>PT5347</name></trkpt>
<trkpt lat="53.382737" lon="-1.604946"><ele>253</ele><time>2020-05-21T11:21:25Z</time><name>PT5348</name></trkpt>
<trkpt lat="53.382734" lon="-1.604971"><ele>253</ele><time>2020-05-21T11:21:26Z</time><name>PT5349</name></trkpt>
<trkpt lat="53.382725" lon="-1.604999"><ele>254</ele><time>2020-05-21T11:21:28Z</time><name>PT5350</name></trkpt>
<trkpt lat="53.382723" lon="-1.605026"><ele>254</ele><time>2020-05-21T11:21:28Z</time><name>PT5351</name></trkpt>
<trkpt lat="53.382724" lon="-1.605052"><ele>255</ele><time>2020-05-21T11:21:29Z</time><name>PT5352</name></trkpt>
<trkpt lat="53.382720" lon="-1.605082"><ele>255</ele><time>2020-05-21T11:21:31Z</time><name>PT5353</name></trkpt>
<trkpt lat="53.382712" lon="-1.605113"><ele>257</ele><time>2020-05-21T11:21:31Z</time><name>PT5354</name></trkpt>
<trkpt lat="53.382704" lon="-1.605135"><ele>257</ele><time>2020-05-21T11:21:32Z</time><name>PT5355</name></trkpt>
<trkpt lat="53.382696" lon="-1.605157"><ele>258</ele><time>2020-05-21T11:21:34Z</time><name>PT5356</name></trkpt>
<trkpt lat="53.382694" lon="-1.605186"><ele>258</ele><time>2020-05-21T11:21:34Z</time><name>PT5357</name></trkpt>
<trkpt lat="53.382696" lon="-1.605207"><ele>258</ele><time>2020-05-21T11:21:35Z</time><name>PT5358</name></trkpt>
<trkpt lat="53.382700" lon="-1.605229"><ele>258</ele><time>2020-05-21T11:21:37Z</time><name>PT5359</name></trkpt>
<trkpt lat="53.382697" lon="-1.605237"><ele>258</ele><time>2020-05-21T11:21:37Z</time><name>PT5360</name></trkpt>
<trkpt lat="53.382693" lon="-1.605258"><ele>259</ele><time>2020-05-21T11:21:38Z</time><name>PT5361</name></trkpt>
<trkpt lat="53.382689" lon="-1.605277"><ele>260</ele><time>2020-05-21T11:21:40Z</time><name>PT5362</name></trkpt>
<trkpt lat="53.382684" lon="-1.605290"><ele>260</ele><time>2020-05-21T11:21:40Z</time><name>PT5363</name></trkpt>
<trkpt lat="53.382680" lon="-1.605305"><ele>260</ele><time>2020-05-21T11:21:41Z</time><name>PT5364</name></trkpt>
<trkpt lat="53.382678" lon="-1.605328"><ele>260</ele><time>2020-05-21T11:21:43Z</time><name>PT5365</name></trkpt>
<trkpt lat="53.382682" lon="-1.605352"><ele>260</ele><time>2020-05-21T11:21:43Z</time><name>PT5366</name></trkpt>
<trkpt lat="53.382683" lon="-1.605374"><ele>260</ele><time>2020-05-21T11:21:44Z</time><name>PT5367</name></trkpt>
<trkpt lat="53.382680" lon="-1.605397"><ele>260</ele><time>2020-05-21T11:21:46Z</time><name>PT5368</name></trkpt>
<trkpt lat="53.382681" lon="-1.605418"><ele>261</ele><time>2020-05-21T11:21:46Z</time><name>PT5369</name></trkpt>
<trkpt lat="53.382681" lon="-1.605454"><ele>263</ele><time>2020-05-21T11:21:49Z</time><name>PT5370</name></trkpt>
<trkpt lat="53.382681" lon="-1.605477"><ele>265</ele><time>2020-05-21T11:21:49Z</time><name>PT5371</name></trkpt>
<trkpt lat="53.382683" lon="-1.605523"><ele>267</ele><time>2020-05-21T11:21:52Z</time><name>PT5372</name></trkpt>
<trkpt lat="53.382686" lon="-1.605546"><ele>267</ele><time>2020-05-21T11:21:52Z</time><name>PT5373</name></trkpt>
<trkpt lat="53.382681" lon="-1.605559"><ele>266</ele><time>2020-05-21T11:21:53Z</time><name>PT5374</name></trkpt>
<trkpt lat="53.382682" lon="-1.605569"><ele>267</ele><time>2020-05-21T11:21:55Z</time><name>PT5375</name></trkpt>
<trkpt lat="53.382679" lon="-1.605574"><ele>268</ele><time>2020-05-21T11:21:55Z</time><name>PT5376</name></trkpt>
<trkpt lat="53.382678" lon="-1.605589"><ele>267</ele><time>2020-05-21T11:21:56Z</time><name>PT5377</name></trkpt>
<trkpt lat="53.382683" lon="-1.605608"><ele>269</ele><time>2020-05-21T11:21:58Z</time><name>PT5378</name></trkpt>
<trkpt lat="53.382681" lon="-1.605628"><ele>269</ele><time>2020-05-21T11:21:58Z</time><name>PT5379</name></trkpt>
<trkpt lat="53.382684" lon="-1.605644"><ele>269</ele><time>2020-05-21T11:21:59Z</time><name>PT5380</name></trkpt>
<trkpt lat="53.382681" lon="-1.605656"><ele>269</ele><time>2020-05-21T11:22:01Z</time><name>PT5381</name></trkpt>
<trkpt lat="53.382676" lon="-1.605669"><ele>269</ele><time>2020-05-21T11:22:01Z</time><name>PT5382</name></trkpt>
<trkpt lat="53.382674" lon="-1.605688"><ele>269</ele><time>2020-05-21T11:22:02Z</time><name>PT5383</name></trkpt>
<trkpt lat="53.382679" lon="-1.605711"><ele>269</ele><time>2020-05-21T11:22:04Z</time><name>PT5384</name></trkpt>
<trkpt lat="53.382684" lon="-1.605739"><ele>269</ele><time>2020-05-21T11:22:04Z</time><name>PT5385</name></trkpt>
<trkpt lat="53.382685" lon="-1.605765"><ele>269</ele><time>2020-05-21T11:22:05Z</time><name>PT5386</name></trkpt>
<trkpt lat="53.382691" lon="-1.605779"><ele>270</ele><time>2020-05-21T11:22:07Z</time><name>PT5387</name></trkpt>
<trkpt lat="53.382679" lon="-1.605802"><ele>268</ele><time>2020-05-21T11:22:07Z</time><name>PT5388</name></trkpt>
<trkpt lat="53.382686" lon="-1.605820"><ele>268</ele><time>2020-05-21T11:22:08Z</time><name>PT5389</name></trkpt>
<trkpt lat="53.382691" lon="-1.605850"><ele>267</ele><time>2020-05-21T11:22:10Z</time><name>PT5390</name></trkpt>
<trkpt lat="53.382702" lon="-1.605880"><ele>267</ele><time>2020-05-21T11:22:10Z</time><name>PT5391</name></trkpt>
<trkpt lat="53.382710" lon="-1.605898"><ele>267</ele><time>2020-05-21T11:22:11Z</time><name>PT5392</name></trkpt>
<trkpt lat="53.382713" lon="-1.605921"><ele>267</ele><time>2020-05-21T11:22:13Z</time><name>PT5393</name></trkpt>
<trkpt lat="53.382712" lon="-1.605948"><ele>267</ele><time>2020-05-21T11:22:13Z</time><name>PT5394</name></trkpt>
<trkpt lat="53.382719" lon="-1.605970"><ele>267</ele><time>2020-05-21T11:22:14Z</time><name>PT5395</name></trkpt>
<trkpt lat="53.382724" lon="-1.605991"><ele>266</ele><time>2020-05-21T11:22:16Z</time><name>PT5396</name></trkpt>
<trkpt lat="53.382727" lon="-1.606004"><ele>266</ele><time>2020-05-21T11:22:16Z</time><name>PT5397</name></trkpt>
<trkpt lat="53.382729" lon="-1.606026"><ele>266</ele><time>2020-05-21T11:22:17Z</time><name>PT5398</name></trkpt>
<trkpt lat="53.382730" lon="-1.606038"><ele>266</ele><time>2020-05-21T11:22:19Z</time><name>PT5399</name></trkpt>
<trkpt lat="53.382737" lon="-1.606045"><ele>266</ele><time>2020-05-21T11:22:19Z</time><name>PT5400</name></trkpt>
<trkpt lat="53.382744" lon="-1.606064"><ele>265</ele><time>2020-05-21T11:22:20Z</time><name>PT5401</name></trkpt>
<trkpt lat="53.382744" lon="-1.606088"><ele>265</ele><time>2020-05-21T11:22:22Z</time><name>PT5402</name></trkpt>
<trkpt lat="53.382745" lon="-1.606114"><ele>265</ele><time>2020-05-21T11:22:22Z</time><name>PT5403</name></trkpt>
<trkpt lat="53.382748" lon="-1.606139"><ele>265</ele><time>2020-05-21T11:22:23Z</time><name>PT5404</name></trkpt>
<trkpt lat="53.382746" lon="-1.606154"><ele>265</ele><time>2020-05-21T11:22:25Z</time><name>PT5405</name></trkpt>
<trkpt lat="53.382730" lon="-1.606186"><ele>265</ele><time>2020-05-21T11:22:25Z</time><name>PT5406</name></trkpt>
<trkpt lat="53.382728" lon="-1.606207"><ele>265</ele><time>2020-05-21T11:22:26Z</time><name>PT5407</name></trkpt>
<trkpt lat="53.382729" lon="-1.606223"><ele>266</ele><time>2020-05-21T11:22:28Z</time><name>PT5408</name></trkpt>
<trkpt lat="53.382740" lon="-1.606239"><ele>267</ele><time>2020-05-21T11:22:28Z</time><name>PT5409</name></trkpt>
<trkpt lat="53.382750" lon="-1.606256"><ele>267</ele><time>2020-05-21T11:22:29Z</time><name>PT5410</name></trkpt>
<trkpt lat="53.382770" lon="-1.606268"><ele>266</ele><time>2020-05-21T11:22:31Z</time><name>PT5411</name></trkpt>
<trkpt lat="53.382782" lon="-1.606272"><ele>268</ele><time>2020-05-21T11:22:31Z</time><name>PT5412</name></trkpt>
<trkpt lat="53.382794" lon="-1.606287"><ele>268</ele><time>2020-05-21T11:22:32Z</time><name>PT5413</name></trkpt>
<trkpt lat="53.382809" lon="-1.606304"><ele>269</ele><time>2020-05-21T11:22:34Z</time><name>PT5414</name></trkpt>
<trkpt lat="53.382823" lon="-1.606313"><ele>269</ele><time>2020-05-21T11:22:34Z</time><name>PT5415</name></trkpt>
<trkpt lat="53.382832" lon="-1.606325"><ele>270</ele><time>2020-05-21T11:22:36Z</time><name>PT5416</name></trkpt>
<trkpt lat="53.382835" lon="-1.606339"><ele>270</ele><time>2020-05-21T11:22:37Z</time><name>PT5417</name></trkpt>
<trkpt lat="53.382842" lon="-1.606350"><ele>270</ele><time>2020-05-21T11:22:37Z</time><name>PT5418</name></trkpt>
<trkpt lat="53.382851" lon="-1.606360"><ele>272</ele><time>2020-05-21T11:22:39Z</time><name>PT5419</name></trkpt>
<trkpt lat="53.382863" lon="-1.606365"><ele>273</ele><time>2020-05-21T11:22:40Z</time><name>PT5420</name></trkpt>
<trkpt lat="53.382874" lon="-1.606375"><ele>272</ele><time>2020-05-21T11:22:40Z</time><name>PT5421</name></trkpt>
<trkpt lat="53.382879" lon="-1.606376"><ele>271</ele><time>2020-05-21T11:22:41Z</time><name>PT5422</name></trkpt>
<trkpt lat="53.382892" lon="-1.606377"><ele>267</ele><time>2020-05-21T11:22:43Z</time><name>PT5423</name></trkpt>
<trkpt lat="53.382911" lon="-1.606373"><ele>267</ele><time>2020-05-21T11:22:43Z</time><name>PT5424</name></trkpt>
<trkpt lat="53.382924" lon="-1.606376"><ele>266</ele><time>2020-05-21T11:22:44Z</time><name>PT5425</name></trkpt>
<trkpt lat="53.382934" lon="-1.606381"><ele>266</ele><time>2020-05-21T11:22:46Z</time><name>PT5426</name></trkpt>
<trkpt lat="53.382947" lon="-1.606381"><ele>265</ele><time>2020-05-21T11:22:46Z</time><name>PT5427</name></trkpt>
<trkpt lat="53.382957" lon="-1.606379"><ele>263</ele><time>2020-05-21T11:22:47Z</time><name>PT5428</name></trkpt>
<trkpt lat="53.382978" lon="-1.606394"><ele>264</ele><time>2020-05-21T11:22:49Z</time><name>PT5429</name></trkpt>
<trkpt lat="53.382987" lon="-1.606396"><ele>264</ele><time>2020-05-21T11:22:49Z</time><name>PT5430</name></trkpt>
<trkpt lat="53.382992" lon="-1.606402"><ele>264</ele><time>2020-05-21T11:22:50Z</time><name>PT5431</name></trkpt>
<trkpt lat="53.382995" lon="-1.606408"><ele>264</ele><time>2020-05-21T11:22:52Z</time><name>PT5432</name></trkpt>
<trkpt lat="53.382997" lon="-1.606420"><ele>264</ele><time>2020-05-21T11:22:52Z</time><name>PT5433</name></trkpt>
<trkpt lat="53.382993" lon="-1.606422"><ele>264</ele><time>2020-05-21T11:22:53Z</time><name>PT5434</name></trkpt>
<trkpt lat="53.383002" lon="-1.606431"><ele>264</ele><time>2020-05-21T11:22:55Z</time><name>PT5435</name></trkpt>
<trkpt lat="53.383007" lon="-1.606444"><ele>263</ele><time>2020-05-21T11:22:55Z</time><name>PT5436</name></trkpt>
<trkpt lat="53.383013" lon="-1.606459"><ele>263</ele><time>2020-05-21T11:22:56Z</time><name>PT5437</name></trkpt>
<trkpt lat="53.383014" lon="-1.606465"><ele>263</ele><time>2020-05-21T11:22:58Z</time><name>PT5438</name></trkpt>
<trkpt lat="53.383009" lon="-1.606474"><ele>264</ele><time>2020-05-21T11:22:58Z</time><name>PT5439</name></trkpt>
<trkpt lat="53.383008" lon="-1.606484"><ele>265</ele><time>2020-05-21T11:22:59Z</time><name>PT5440</name></trkpt>
<trkpt lat="53.383001" lon="-1.606499"><ele>265</ele><time>2020-05-21T11:23:01Z</time><name>PT5441</name></trkpt>
<trkpt lat="53.383003" lon="-1.606513"><ele>266</ele><time>2020-05-21T11:23:01Z</time><name>PT5442</name></trkpt>
<trkpt lat="53.383005" lon="-1.606529"><ele>266</ele><time>2020-05-21T11:23:02Z</time><name>PT5443</name></trkpt>
<trkpt lat="53.383013" lon="-1.606538"><ele>267</ele><time>2020-05-21T11:23:04Z</time><name>PT5444</name></trkpt>
<trkpt lat="53.383013" lon="-1.606554"><ele>267</ele><time>2020-05-21T11:23:04Z</time><name>PT5445</name></trkpt>
<trkpt lat="53.383014" lon="-1.606564"><ele>266</ele><time>2020-05-21T11:23:05Z</time><name>PT5446</name></trkpt>
<trkpt lat="53.383018" lon="-1.606568"><ele>265</ele><time>2020-05-21T11:23:07Z</time><name>PT5447</name></trkpt>
<trkpt lat="53.383027" lon="-1.606584"><ele>264</ele><time>2020-05-21T11:23:07Z</time><name>PT5448</name></trkpt>
<trkpt lat="53.383032" lon="-1.606597"><ele>265</ele><time>2020-05-21T11:23:08Z</time><name>PT5449</name></trkpt>
<trkpt lat="53.383034" lon="-1.606597"><ele>265</ele><time>2020-05-21T11:23:10Z</time><name>PT5450</name></trkpt>
<trkpt lat="53.383039" lon="-1.606605"><ele>264</ele><time>2020-05-21T11:23:10Z</time><name>PT5451</name></trkpt>
<trkpt lat="53.383039" lon="-1.606617"><ele>264</ele><time>2020-05-21T11:23:11Z</time><name>PT5452</name></trkpt>
<trkpt lat="53.383044" lon="-1.606626"><ele>264</ele><time>2020-05-21T11:23:13Z</time><name>PT5453</name></trkpt>
<trkpt lat="53.383055" lon="-1.606636"><ele>263</ele><time>2020-05-21T11:23:13Z</time><name>PT5454</name></trkpt>
<trkpt lat="53.383063" lon="-1.606649"><ele>262</ele><time>2020-05-21T11:23:14Z</time><name>PT5455</name></trkpt>
<trkpt lat="53.383065" lon="-1.606666"><ele>263</ele><time>2020-05-21T11:23:16Z</time><name>PT5456</name></trkpt>
<trkpt lat="53.383062" lon="-1.606678"><ele>263</ele><time>2020-05-21T11:23:16Z</time><name>PT5457</name></trkpt>
<trkpt lat="53.383062" lon="-1.606701"><ele>264</ele><time>2020-05-21T11:23:17Z</time><name>PT5458</name></trkpt>
<trkpt lat="53.383068" lon="-1.606728"><ele>265</ele><time>2020-05-21T11:23:19Z</time><name>PT5459</name></trkpt>
<trkpt lat="53.383072" lon="-1.606743"><ele>266</ele><time>2020-05-21T11:23:19Z</time><name>PT5460</name></trkpt>
<trkpt lat="53.383074" lon="-1.606756"><ele>265</ele><time>2020-05-21T11:23:20Z</time><name>PT5461</name></trkpt>
<trkpt lat="53.383075" lon="-1.606766"><ele>265</ele><time>2020-05-21T11:23:22Z</time><name>PT5462</name></trkpt>
<trkpt lat="53.383067" lon="-1.606780"><ele>267</ele><time>2020-05-21T11:23:22Z</time><name>PT5463</name></trkpt>
<trkpt lat="53.383065" lon="-1.606794"><ele>268</ele><time>2020-05-21T11:23:23Z</time><name>PT5464</name></trkpt>
<trkpt lat="53.383067" lon="-1.606810"><ele>268</ele><time>2020-05-21T11:23:25Z</time><name>PT5465</name></trkpt>
<trkpt lat="53.383062" lon="-1.606824"><ele>268</ele><time>2020-05-21T11:23:25Z</time><name>PT5466</name></trkpt>
<trkpt lat="53.383060" lon="-1.606844"><ele>267</ele><time>2020-05-21T11:23:26Z</time><name>PT5467</name></trkpt>
<trkpt lat="53.383055" lon="-1.606860"><ele>267</ele><time>2020-05-21T11:23:28Z</time><name>PT5468</name></trkpt>
<trkpt lat="53.383046" lon="-1.606877"><ele>268</ele><time>2020-05-21T11:23:28Z</time><name>PT5469</name></trkpt>
<trkpt lat="53.383039" lon="-1.606891"><ele>267</ele><time>2020-05-21T11:23:29Z</time><name>PT5470</name></trkpt>
<trkpt lat="53.383037" lon="-1.606905"><ele>267</ele><time>2020-05-21T11:23:31Z</time><name>PT5471</name></trkpt>
<trkpt lat="53.383033" lon="-1.606923"><ele>266</ele><time>2020-05-21T11:23:31Z</time><name>PT5472</name></trkpt>
<trkpt lat="53.383032" lon="-1.606945"><ele>267</ele><time>2020-05-21T11:23:32Z</time><name>PT5473</name></trkpt>
<trkpt lat="53.383024" lon="-1.606963"><ele>268</ele><time>2020-05-21T11:23:34Z</time><name>PT5474</name></trkpt>
<trkpt lat="53.383027" lon="-1.606979"><ele>267</ele><time>2020-05-21T11:23:34Z</time><name>PT5475</name></trkpt>
<trkpt lat="53.383013" lon="-1.607022"><ele>264</ele><time>2020-05-21T11:23:35Z</time><name>PT5476</name></trkpt>
<trkpt lat="53.383017" lon="-1.607044"><ele>263</ele><time>2020-05-21T11:23:37Z</time><name>PT5477</name></trkpt>
<trkpt lat="53.383018" lon="-1.607066"><ele>264</ele><time>2020-05-21T11:23:37Z</time><name>PT5478</name></trkpt>
<trkpt lat="53.383026" lon="-1.607090"><ele>264</ele><time>2020-05-21T11:23:38Z</time><name>PT5479</name></trkpt>
<trkpt lat="53.383030" lon="-1.607110"><ele>265</ele><time>2020-05-21T11:23:40Z</time><name>PT5480</name></trkpt>
<trkpt lat="53.383033" lon="-1.607135"><ele>266</ele><time>2020-05-21T11:23:40Z</time><name>PT5481</name></trkpt>
<trkpt lat="53.383035" lon="-1.607157"><ele>266</ele><time>2020-05-21T11:23:41Z</time><name>PT5482</name></trkpt>
<trkpt lat="53.383037" lon="-1.607178"><ele>266</ele><time>2020-05-21T11:23:43Z</time><name>PT5483</name></trkpt>
<trkpt lat="53.383042" lon="-1.607201"><ele>267</ele><time>2020-05-21T11:23:43Z</time><name>PT5484</name></trkpt>
<trkpt lat="53.383047" lon="-1.607223"><ele>268</ele><time>2020-05-21T11:23:44Z</time><name>PT5485</name></trkpt>
<trkpt lat="53.383049" lon="-1.607241"><ele>268</ele><time>2020-05-21T11:23:46Z</time><name>PT5486</name></trkpt>
<trkpt lat="53.383054" lon="-1.607252"><ele>269</ele><time>2020-05-21T11:23:46Z</time><name>PT5487</name></trkpt>
<trkpt lat="53.383057" lon="-1.607260"><ele>268</ele><time>2020-05-21T11:23:47Z</time><name>PT5488</name></trkpt>
<trkpt lat="53.383064" lon="-1.607277"><ele>269</ele><time>2020-05-21T11:23:49Z</time><name>PT5489</name></trkpt>
<trkpt lat="53.383076" lon="-1.607294"><ele>267</ele><time>2020-05-21T11:23:49Z</time><name>PT5490</name></trkpt>
<trkpt lat="53.383083" lon="-1.607313"><ele>267</ele><time>2020-05-21T11:23:50Z</time><name>PT5491</name></trkpt>
<trkpt lat="53.383087" lon="-1.607330"><ele>268</ele><time>2020-05-21T11:23:52Z</time><name>PT5492</name></trkpt>
<trkpt lat="53.383091" lon="-1.607337"><ele>268</ele><time>2020-05-21T11:23:52Z</time><name>PT5493</name></trkpt>
<trkpt lat="53.383101" lon="-1.607357"><ele>268</ele><time>2020-05-21T11:23:53Z</time><name>PT5494</name></trkpt>
<trkpt lat="53.383099" lon="-1.607378"><ele>267</ele><time>2020-05-21T11:23:55Z</time><name>PT5495</name></trkpt>
<trkpt lat="53.383099" lon="-1.607394"><ele>268</ele><time>2020-05-21T11:23:55Z</time><name>PT5496</name></trkpt>
<trkpt lat="53.383098" lon="-1.607412"><ele>268</ele><time>2020-05-21T11:23:56Z</time><name>PT5497</name></trkpt>
<trkpt lat="53.383097" lon="-1.607432"><ele>268</ele><time>2020-05-21T11:23:58Z</time><name>PT5498</name></trkpt>
<trkpt lat="53.383106" lon="-1.607451"><ele>267</ele><time>2020-05-21T11:23:58Z</time><name>PT5499</name></trkpt>
<trkpt lat="53.383108" lon="-1.607469"><ele>268</ele><time>2020-05-21T11:23:59Z</time><name>PT5500</name></trkpt>
<trkpt lat="53.383112" lon="-1.607482"><ele>268</ele><time>2020-05-21T11:24:01Z</time><name>PT5501</name></trkpt>
<trkpt lat="53.383107" lon="-1.607492"><ele>266</ele><time>2020-05-21T11:24:01Z</time><name>PT5502</name></trkpt>
<trkpt lat="53.383112" lon="-1.607509"><ele>267</ele><time>2020-05-21T11:24:02Z</time><name>PT5503</name></trkpt>
<trkpt lat="53.383114" lon="-1.607542"><ele>266</ele><time>2020-05-21T11:24:04Z</time><name>PT5504</name></trkpt>
<trkpt lat="53.383112" lon="-1.607563"><ele>266</ele><time>2020-05-21T11:24:04Z</time><name>PT5505</name></trkpt>
<trkpt lat="53.383110" lon="-1.607576"><ele>266</ele><time>2020-05-21T11:24:05Z</time><name>PT5506</name></trkpt>
<trkpt lat="53.383104" lon="-1.607596"><ele>266</ele><time>2020-05-21T11:24:07Z</time><name>PT5507</name></trkpt>
<trkpt lat="53.383099" lon="-1.607615"><ele>265</ele><time>2020-05-21T11:24:07Z</time><name>PT5508</name></trkpt>
<trkpt lat="53.383101" lon="-1.607636"><ele>264</ele><time>2020-05-21T11:24:08Z</time><name>PT5509</name></trkpt>
<trkpt lat="53.383105" lon="-1.607653"><ele>265</ele><time>2020-05-21T11:24:10Z</time><name>PT5510</name></trkpt>
<trkpt lat="53.383109" lon="-1.607665"><ele>265</ele><time>2020-05-21T11:24:10Z</time><name>PT5511</name></trkpt>
<trkpt lat="53.383106" lon="-1.607680"><ele>264</ele><time>2020-05-21T11:24:11Z</time><name>PT5512</name></trkpt>
<trkpt lat="53.383103" lon="-1.607698"><ele>264</ele><time>2020-05-21T11:24:13Z</time><name>PT5513</name></trkpt>
<trkpt lat="53.383107" lon="-1.607711"><ele>264</ele><time>2020-05-21T11:24:13Z</time><name>PT5514</name></trkpt>
<trkpt lat="53.383114" lon="-1.607722"><ele>264</ele><time>2020-05-21T11:24:14Z</time><name>PT5515</name></trkpt>
<trkpt lat="53.383115" lon="-1.607737"><ele>264</ele><time>2020-05-21T11:24:16Z</time><name>PT5516</name></trkpt>
<trkpt lat="53.383117" lon="-1.607751"><ele>263</ele><time>2020-05-21T11:24:16Z</time><name>PT5517</name></trkpt>
<trkpt lat="53.383119" lon="-1.607765"><ele>262</ele><time>2020-05-21T11:24:17Z</time><name>PT5518</name></trkpt>
<trkpt lat="53.383124" lon="-1.607774"><ele>261</ele><time>2020-05-21T11:24:19Z</time><name>PT5519</name></trkpt>
<trkpt lat="53.383127" lon="-1.607784"><ele>261</ele><time>2020-05-21T11:24:19Z</time><name>PT5520</name></trkpt>
<trkpt lat="53.383130" lon="-1.607794"><ele>260</ele><time>2020-05-21T11:24:20Z</time><name>PT5521</name></trkpt>
<trkpt lat="53.383134" lon="-1.607804"><ele>261</ele><time>2020-05-21T11:24:22Z</time><name>PT5522</name></trkpt>
<trkpt lat="53.383132" lon="-1.607819"><ele>260</ele><time>2020-05-21T11:24:22Z</time><name>PT5523</name></trkpt>
<trkpt lat="53.383131" lon="-1.607830"><ele>260</ele><time>2020-05-21T11:24:23Z</time><name>PT5524</name></trkpt>
<trkpt lat="53.383130" lon="-1.607841"><ele>260</ele><time>2020-05-21T11:24:25Z</time><name>PT5525</name></trkpt>
<trkpt lat="53.383128" lon="-1.607856"><ele>261</ele><time>2020-05-21T11:24:25Z</time><name>PT5526</name></trkpt>
<trkpt lat="53.383137" lon="-1.607883"><ele>262</ele><time>2020-05-21T11:24:26Z</time><name>PT5527</name></trkpt>
<trkpt lat="53.383142" lon="-1.607902"><ele>262</ele><time>2020-05-21T11:24:28Z</time><name>PT5528</name></trkpt>
<trkpt lat="53.383141" lon="-1.607913"><ele>262</ele><time>2020-05-21T11:24:28Z</time><name>PT5529</name></trkpt>
<trkpt lat="53.383144" lon="-1.607922"><ele>262</ele><time>2020-05-21T11:24:29Z</time><name>PT5530</name></trkpt>
<trkpt lat="53.383152" lon="-1.607937"><ele>263</ele><time>2020-05-21T11:24:31Z</time><name>PT5531</name></trkpt>
<trkpt lat="53.383160" lon="-1.607952"><ele>264</ele><time>2020-05-21T11:24:31Z</time><name>PT5532</name></trkpt>
<trkpt lat="53.383164" lon="-1.607963"><ele>263</ele><time>2020-05-21T11:24:32Z</time><name>PT5533</name></trkpt>
<trkpt lat="53.383166" lon="-1.607979"><ele>264</ele><time>2020-05-21T11:24:34Z</time><name>PT5534</name></trkpt>
<trkpt lat="53.383166" lon="-1.607996"><ele>264</ele><time>2020-05-21T11:24:34Z</time><name>PT5535</name></trkpt>
<trkpt lat="53.383168" lon="-1.608011"><ele>266</ele><time>2020-05-21T11:24:35Z</time><name>PT5536</name></trkpt>
<trkpt lat="53.383175" lon="-1.608029"><ele>267</ele><time>2020-05-21T11:24:37Z</time><name>PT5537</name></trkpt>
<trkpt lat="53.383180" lon="-1.608046"><ele>267</ele><time>2020-05-21T11:24:37Z</time><name>PT5538</name></trkpt>
<trkpt lat="53.383185" lon="-1.608067"><ele>268</ele><time>2020-05-21T11:24:38Z</time><name>PT5539</name></trkpt>
<trkpt lat="53.383195" lon="-1.608080"><ele>269</ele><time>2020-05-21T11:24:40Z</time><name>PT5540</name></trkpt>
<trkpt lat="53.383195" lon="-1.608096"><ele>270</ele><time>2020-05-21T11:24:40Z</time><name>PT5541</name></trkpt>
<trkpt lat="53.383201" lon="-1.608107"><ele>271</ele><time>2020-05-21T11:24:41Z</time><name>PT5542</name></trkpt>
<trkpt lat="53.383206" lon="-1.608113"><ele>271</ele><time>2020-05-21T11:24:43Z</time><name>PT5543</name></trkpt>
<trkpt lat="53.383209" lon="-1.608120"><ele>271</ele><time>2020-05-21T11:24:43Z</time><name>PT5544</name></trkpt>
<trkpt lat="53.383211" lon="-1.608131"><ele>272</ele><time>2020-05-21T11:24:44Z</time><name>PT5545</name></trkpt>
<trkpt lat="53.383223" lon="-1.608138"><ele>272</ele><time>2020-05-21T11:24:46Z</time><name>PT5546</name></trkpt>
<trkpt lat="53.383228" lon="-1.608144"><ele>271</ele><time>2020-05-21T11:24:46Z</time><name>PT5547</name></trkpt>
<trkpt lat="53.383231" lon="-1.608148"><ele>272</ele><time>2020-05-21T11:24:47Z</time><name>PT5548</name></trkpt>
<trkpt lat="53.383238" lon="-1.608154"><ele>272</ele><time>2020-05-21T11:24:49Z</time><name>PT5549</name></trkpt>
<trkpt lat="53.383248" lon="-1.608152"><ele>273</ele><time>2020-05-21T11:24:49Z</time><name>PT5550</name></trkpt>
<trkpt lat="53.383258" lon="-1.608156"><ele>274</ele><time>2020-05-21T11:24:50Z</time><name>PT5551</name></trkpt>
<trkpt lat="53.383267" lon="-1.608157"><ele>274</ele><time>2020-05-21T11:24:52Z</time><name>PT5552</name></trkpt>
<trkpt lat="53.383278" lon="-1.608161"><ele>274</ele><time>2020-05-21T11:24:52Z</time><name>PT5553</name></trkpt>
<trkpt lat="53.383290" lon="-1.608170"><ele>273</ele><time>2020-05-21T11:24:53Z</time><name>PT5554</name></trkpt>
<trkpt lat="53.383298" lon="-1.608181"><ele>274</ele><time>2020-05-21T11:24:55Z</time><name>PT5555</name></trkpt>
<trkpt lat="53.383305" lon="-1.608192"><ele>275</ele><time>2020-05-21T11:24:55Z</time><name>PT5556</name></trkpt>
<trkpt lat="53.383306" lon="-1.608202"><ele>273</ele><time>2020-05-21T11:24:56Z</time><name>PT5557</name></trkpt>
<trkpt lat="53.383311" lon="-1.608207"><ele>273</ele><time>2020-05-21T11:24:58Z</time><name>PT5558</name></trkpt>
<trkpt lat="53.383322" lon="-1.608212"><ele>274</ele><time>2020-05-21T11:24:58Z</time><name>PT5559</name></trkpt>
<trkpt lat="53.383329" lon="-1.608213"><ele>273</ele><time>2020-05-21T11:24:59Z</time><name>PT5560</name></trkpt>
<trkpt lat="53.383337" lon="-1.608216"><ele>273</ele><time>2020-05-21T11:25:01Z</time><name>PT5561</name></trkpt>
<trkpt lat="53.383344" lon="-1.608221"><ele>273</ele><time>2020-05-21T11:25:01Z</time><name>PT5562</name></trkpt>
<trkpt lat="53.383348" lon="-1.608222"><ele>273</ele><time>2020-05-21T11:25:02Z</time><name>PT5563</name></trkpt>
<trkpt lat="53.383353" lon="-1.608224"><ele>273</ele><time>2020-05-21T11:25:04Z</time><name>PT5564</name></trkpt>
<trkpt lat="53.383360" lon="-1.608234"><ele>272</ele><time>2020-05-21T11:25:04Z</time><name>PT5565</name></trkpt>
<trkpt lat="53.383367" lon="-1.608250"><ele>272</ele><time>2020-05-21T11:25:05Z</time><name>PT5566</name></trkpt>
<trkpt lat="53.383378" lon="-1.608270"><ele>272</ele><time>2020-05-21T11:25:07Z</time><name>PT5567</name></trkpt>
<trkpt lat="53.383381" lon="-1.608289"><ele>272</ele><time>2020-05-21T11:25:07Z</time><name>PT5568</name></trkpt>
<trkpt lat="53.383387" lon="-1.608305"><ele>272</ele><time>2020-05-21T11:25:08Z</time><name>PT5569</name></trkpt>
<trkpt lat="53.383397" lon="-1.608325"><ele>273</ele><time>2020-05-21T11:25:10Z</time><name>PT5570</name></trkpt>
<trkpt lat="53.383402" lon="-1.608336"><ele>273</ele><time>2020-05-21T11:25:10Z</time><name>PT5571</name></trkpt>
<trkpt lat="53.383409" lon="-1.608346"><ele>273</ele><time>2020-05-21T11:25:11Z</time><name>PT5572</name></trkpt>
<trkpt lat="53.383426" lon="-1.608354"><ele>274</ele><time>2020-05-21T11:25:13Z</time><name>PT5573</name></trkpt>
<trkpt lat="53.383437" lon="-1.608364"><ele>275</ele><time>2020-05-21T11:25:13Z</time><name>PT5574</name></trkpt>
<trkpt lat="53.383444" lon="-1.608374"><ele>275</ele><time>2020-05-21T11:25:14Z</time><name>PT5575</name></trkpt>
<trkpt lat="53.383451" lon="-1.608385"><ele>274</ele><time>2020-05-21T11:25:16Z</time><name>PT5576</name></trkpt>
<trkpt lat="53.383458" lon="-1.608395"><ele>274</ele><time>2020-05-21T11:25:16Z</time><name>PT5577</name></trkpt>
<trkpt lat="53.383464" lon="-1.608408"><ele>275</ele><time>2020-05-21T11:25:17Z</time><name>PT5578</name></trkpt>
<trkpt lat="53.383469" lon="-1.608416"><ele>276</ele><time>2020-05-21T11:25:19Z</time><name>PT5579</name></trkpt>
<trkpt lat="53.383474" lon="-1.608429"><ele>276</ele><time>2020-05-21T11:25:19Z</time><name>PT5580</name></trkpt>
<trkpt lat="53.383477" lon="-1.608447"><ele>276</ele><time>2020-05-21T11:25:20Z</time><name>PT5581</name></trkpt>
<trkpt lat="53.383481" lon="-1.608463"><ele>275</ele><time>2020-05-21T11:25:22Z</time><name>PT5582</name></trkpt>
<trkpt lat="53.383488" lon="-1.608474"><ele>275</ele><time>2020-05-21T11:25:22Z</time><name>PT5583</name></trkpt>
<trkpt lat="53.383493" lon="-1.608487"><ele>276</ele><time>2020-05-21T11:25:23Z</time><name>PT5584</name></trkpt>
<trkpt lat="53.383502" lon="-1.608501"><ele>276</ele><time>2020-05-21T11:25:25Z</time><name>PT5585</name></trkpt>
<trkpt lat="53.383512" lon="-1.608525"><ele>277</ele><time>2020-05-21T11:25:25Z</time><name>PT5586</name></trkpt>
<trkpt lat="53.383518" lon="-1.608537"><ele>277</ele><time>2020-05-21T11:25:26Z</time><name>PT5587</name></trkpt>
<trkpt lat="53.383528" lon="-1.608554"><ele>278</ele><time>2020-05-21T11:25:28Z</time><name>PT5588</name></trkpt>
<trkpt lat="53.383533" lon="-1.608577"><ele>278</ele><time>2020-05-21T11:25:28Z</time><name>PT5589</name></trkpt>
<trkpt lat="53.383532" lon="-1.608601"><ele>277</ele><time>2020-05-21T11:25:29Z</time><name>PT5590</name></trkpt>
<trkpt lat="53.383530" lon="-1.608616"><ele>276</ele><time>2020-05-21T11:25:31Z</time><name>PT5591</name></trkpt>
<trkpt lat="53.383535" lon="-1.608637"><ele>276</ele><time>2020-05-21T11:25:31Z</time><name>PT5592</name></trkpt>
<trkpt lat="53.383549" lon="-1.608657"><ele>276</ele><time>2020-05-21T11:25:32Z</time><name>PT5593</name></trkpt>
<trkpt lat="53.383554" lon="-1.608663"><ele>276</ele><time>2020-05-21T11:25:34Z</time><name>PT5594</name></trkpt>
<trkpt lat="53.383551" lon="-1.608673"><ele>275</ele><time>2020-05-21T11:25:34Z</time><name>PT5595</name></trkpt>
<trkpt lat="53.383554" lon="-1.608681"><ele>275</ele><time>2020-05-21T11:25:35Z</time><name>PT5596</name></trkpt>
<trkpt lat="53.383559" lon="-1.608691"><ele>275</ele><time>2020-05-21T11:25:37Z</time><name>PT5597</name></trkpt>
<trkpt lat="53.383563" lon="-1.608696"><ele>276</ele><time>2020-05-21T11:25:37Z</time><name>PT5598</name></trkpt>
<trkpt lat="53.383561" lon="-1.608705"><ele>275</ele><time>2020-05-21T11:25:38Z</time><name>PT5599</name></trkpt>
<trkpt lat="53.383560" lon="-1.608714"><ele>275</ele><time>2020-05-21T11:25:40Z</time><name>PT5600</name></trkpt>
<trkpt lat="53.383557" lon="-1.608724"><ele>276</ele><time>2020-05-21T11:25:40Z</time><name>PT5601</name></trkpt>
<trkpt lat="53.383564" lon="-1.608735"><ele>277</ele><time>2020-05-21T11:25:41Z</time><name>PT5602</name></trkpt>
<trkpt lat="53.383571" lon="-1.608741"><ele>277</ele><time>2020-05-21T11:25:43Z</time><name>PT5603</name></trkpt>
<trkpt lat="53.383570" lon="-1.608752"><ele>276</ele><time>2020-05-21T11:25:43Z</time><name>PT5604</name></trkpt>
<trkpt lat="53.383577" lon="-1.608762"><ele>275</ele><time>2020-05-21T11:25:44Z</time><name>PT5605</name></trkpt>
<trkpt lat="53.383584" lon="-1.608777"><ele>276</ele><time>2020-05-21T11:25:46Z</time><name>PT5606</name></trkpt>
<trkpt lat="53.383590" lon="-1.608786"><ele>275</ele><time>2020-05-21T11:25:46Z</time><name>PT5607</name></trkpt>
<trkpt lat="53.383591" lon="-1.608798"><ele>275</ele><time>2020-05-21T11:25:47Z</time><name>PT5608</name></trkpt>
<trkpt lat="53.383592" lon="-1.608813"><ele>275</ele><time>2020-05-21T11:25:49Z</time><name>PT5609</name></trkpt>
<trkpt lat="53.383595" lon="-1.608824"><ele>274</ele><time>2020-05-21T11:25:49Z</time><name>PT5610</name></trkpt>
<trkpt lat="53.383604" lon="-1.608840"><ele>274</ele><time>2020-05-21T11:25:50Z</time><name>PT5611</name></trkpt>
<trkpt lat="53.383608" lon="-1.608849"><ele>274</ele><time>2020-05-21T11:25:52Z</time><name>PT5612</name></trkpt>
<trkpt lat="53.383615" lon="-1.608864"><ele>274</ele><time>2020-05-21T11:25:52Z</time><name>PT5613</name></trkpt>
<trkpt lat="53.383615" lon="-1.608880"><ele>274</ele><time>2020-05-21T11:25:53Z</time><name>PT5614</name></trkpt>
<trkpt lat="53.383621" lon="-1.608900"><ele>274</ele><time>2020-05-21T11:25:55Z</time><name>PT5615</name></trkpt>
<trkpt lat="53.383622" lon="-1.608920"><ele>274</ele><time>2020-05-21T11:25:55Z</time><name>PT5616</name></trkpt>
<trkpt lat="53.383628" lon="-1.608937"><ele>274</ele><time>2020-05-21T11:25:57Z</time><name>PT5617</name></trkpt>
<trkpt lat="53.383627" lon="-1.608953"><ele>274</ele><time>2020-05-21T11:25:58Z</time><name>PT5618</name></trkpt>
<trkpt lat="53.383628" lon="-1.608966"><ele>275</ele><time>2020-05-21T11:25:58Z</time><name>PT5619</name></trkpt>
<trkpt lat="53.383633" lon="-1.608975"><ele>274</ele><time>2020-05-21T11:25:59Z</time><name>PT5620</name></trkpt>
<trkpt lat="53.383638" lon="-1.608987"><ele>274</ele><time>2020-05-21T11:26:01Z</time><name>PT5621</name></trkpt>
<trkpt lat="53.383650" lon="-1.609009"><ele>273</ele><time>2020-05-21T11:26:01Z</time><name>PT5622</name></trkpt>
<trkpt lat="53.383658" lon="-1.609023"><ele>274</ele><time>2020-05-21T11:26:02Z</time><name>PT5623</name></trkpt>
<trkpt lat="53.383668" lon="-1.609039"><ele>275</ele><time>2020-05-21T11:26:04Z</time><name>PT5624</name></trkpt>
<trkpt lat="53.383678" lon="-1.609054"><ele>275</ele><time>2020-05-21T11:26:04Z</time><name>PT5625</name></trkpt>
<trkpt lat="53.383686" lon="-1.609068"><ele>275</ele><time>2020-05-21T11:26:05Z</time><name>PT5626</name></trkpt>
<trkpt lat="53.383693" lon="-1.609079"><ele>275</ele><time>2020-05-21T11:26:07Z</time><name>PT5627</name></trkpt>
<trkpt lat="53.383702" lon="-1.609087"><ele>274</ele><time>2020-05-21T11:26:07Z</time><name>PT5628</name></trkpt>
<trkpt lat="53.383714" lon="-1.609126"><ele>276</ele><time>2020-05-21T11:26:08Z</time><name>PT5629</name></trkpt>
<trkpt lat="53.383722" lon="-1.609132"><ele>277</ele><time>2020-05-21T11:26:10Z</time><name>PT5630</name></trkpt>
<trkpt lat="53.383732" lon="-1.609141"><ele>276</ele><time>2020-05-21T11:26:10Z</time><name>PT5631</name></trkpt>
<trkpt lat="53.383736" lon="-1.609155"><ele>276</ele><time>2020-05-21T11:26:11Z</time><name>PT5632</name></trkpt>
<trkpt lat="53.383744" lon="-1.609177"><ele>277</ele><time>2020-05-21T11:26:13Z</time><name>PT5633</name></trkpt>
<trkpt lat="53.383748" lon="-1.609191"><ele>278</ele><time>2020-05-21T11:26:13Z</time><name>PT5634</name></trkpt>
<trkpt lat="53.383746" lon="-1.609206"><ele>279</ele><time>2020-05-21T11:26:14Z</time><name>PT5635</name></trkpt>
<trkpt lat="53.383744" lon="-1.609217"><ele>279</ele><time>2020-05-21T11:26:16Z</time><name>PT5636</name></trkpt>
<trkpt lat="53.383745" lon="-1.609225"><ele>279</ele><time>2020-05-21T11:26:16Z</time><name>PT5637</name></trkpt>
<trkpt lat="53.383756" lon="-1.609235"><ele>280</ele><time>2020-05-21T11:26:17Z</time><name>PT5638</name></trkpt>
<trkpt lat="53.383759" lon="-1.609241"><ele>279</ele><time>2020-05-21T11:26:19Z</time><name>PT5639</name></trkpt>
<trkpt lat="53.383765" lon="-1.609252"><ele>279</ele><time>2020-05-21T11:26:19Z</time><name>PT5640</name></trkpt>
<trkpt lat="53.383770" lon="-1.609270"><ele>278</ele><time>2020-05-21T11:26:20Z</time><name>PT5641</name></trkpt>
<trkpt lat="53.383776" lon="-1.609284"><ele>276</ele><time>2020-05-21T11:26:22Z</time><name>PT5642</name></trkpt>
<trkpt lat="53.383776" lon="-1.609299"><ele>275</ele><time>2020-05-21T11:26:22Z</time><name>PT5643</name></trkpt>
<trkpt lat="53.383782" lon="-1.609312"><ele>274</ele><time>2020-05-21T11:26:23Z</time><name>PT5644</name></trkpt>
<trkpt lat="53.383784" lon="-1.609322"><ele>273</ele><time>2020-05-21T11:26:25Z</time><name>PT5645</name></trkpt>
<trkpt lat="53.383785" lon="-1.609338"><ele>273</ele><time>2020-05-21T11:26:25Z</time><name>PT5646</name></trkpt>
<trkpt lat="53.383790" lon="-1.609355"><ele>274</ele><time>2020-05-21T11:26:26Z</time><name>PT5647</name></trkpt>
<trkpt lat="53.383793" lon="-1.609366"><ele>274</ele><time>2020-05-21T11:26:28Z</time><name>PT5648</name></trkpt>
<trkpt lat="53.383797" lon="-1.609379"><ele>273</ele><time>2020-05-21T11:26:28Z</time><name>PT5649</name></trkpt>
<trkpt lat="53.383801" lon="-1.609395"><ele>273</ele><time>2020-05-21T11:26:29Z</time><name>PT5650</name></trkpt>
<trkpt lat="53.383808" lon="-1.609411"><ele>272</ele><time>2020-05-21T11:26:31Z</time><name>PT5651</name></trkpt>
<trkpt lat="53.383815" lon="-1.609422"><ele>271</ele><time>2020-05-21T11:26:31Z</time><name>PT5652</name></trkpt>
<trkpt lat="53.383823" lon="-1.609435"><ele>270</ele><time>2020-05-21T11:26:32Z</time><name>PT5653</name></trkpt>
<trkpt lat="53.383826" lon="-1.609453"><ele>270</ele><time>2020-05-21T11:26:34Z</time><name>PT5654</name></trkpt>
<trkpt lat="53.383838" lon="-1.609468"><ele>270</ele><time>2020-05-21T11:26:34Z</time><name>PT5655</name></trkpt>
<trkpt lat="53.383853" lon="-1.609479"><ele>269</ele><time>2020-05-21T11:26:35Z</time><name>PT5656</name></trkpt>
<trkpt lat="53.383863" lon="-1.609491"><ele>269</ele><time>2020-05-21T11:26:37Z</time><name>PT5657</name></trkpt>
<trkpt lat="53.383865" lon="-1.609500"><ele>270</ele><time>2020-05-21T11:26:37Z</time><name>PT5658</name></trkpt>
<trkpt lat="53.383867" lon="-1.609515"><ele>269</ele><time>2020-05-21T11:26:38Z</time><name>PT5659</name></trkpt>
<trkpt lat="53.383876" lon="-1.609534"><ele>268</ele><time>2020-05-21T11:26:40Z</time><name>PT5660</name></trkpt>
<trkpt lat="53.383886" lon="-1.609548"><ele>267</ele><time>2020-05-21T11:26:40Z</time><name>PT5661</name></trkpt>
<trkpt lat="53.383893" lon="-1.609561"><ele>267</ele><time>2020-05-21T11:26:41Z</time><name>PT5662</name></trkpt>
<trkpt lat="53.383895" lon="-1.609580"><ele>268</ele><time>2020-05-21T11:26:43Z</time><name>PT5663</name></trkpt>
<trkpt lat="53.383903" lon="-1.609603"><ele>267</ele><time>2020-05-21T11:26:43Z</time><name>PT5664</name></trkpt>
<trkpt lat="53.383911" lon="-1.609616"><ele>267</ele><time>2020-05-21T11:26:44Z</time><name>PT5665</name></trkpt>
<trkpt lat="53.383917" lon="-1.609630"><ele>268</ele><time>2020-05-21T11:26:46Z</time><name>PT5666</name></trkpt>
<trkpt lat="53.383925" lon="-1.609645"><ele>268</ele><time>2020-05-21T11:26:46Z</time><name>PT5667</name></trkpt>
<trkpt lat="53.383926" lon="-1.609665"><ele>267</ele><time>2020-05-21T11:26:47Z</time><name>PT5668</name></trkpt>
<trkpt lat="53.383934" lon="-1.609686"><ele>268</ele><time>2020-05-21T11:26:49Z</time><name>PT5669</name></trkpt>
<trkpt lat="53.383942" lon="-1.609704"><ele>268</ele><time>2020-05-21T11:26:49Z</time><name>PT5670</name></trkpt>
<trkpt lat="53.383948" lon="-1.609720"><ele>268</ele><time>2020-05-21T11:26:50Z</time><name>PT5671</name></trkpt>
<trkpt lat="53.383957" lon="-1.609732"><ele>267</ele><time>2020-05-21T11:26:52Z</time><name>PT5672</name></trkpt>
<trkpt lat="53.383967" lon="-1.609754"><ele>268</ele><time>2020-05-21T11:26:52Z</time><name>PT5673</name></trkpt>
<trkpt lat="53.383972" lon="-1.609772"><ele>267</ele><time>2020-05-21T11:26:53Z</time><name>PT5674</name></trkpt>
<trkpt lat="53.383978" lon="-1.609787"><ele>267</ele><time>2020-05-21T11:26:55Z</time><name>PT5675</name></trkpt>
<trkpt lat="53.383982" lon="-1.609804"><ele>267</ele><time>2020-05-21T11:26:55Z</time><name>PT5676</name></trkpt>
<trkpt lat="53.383983" lon="-1.609815"><ele>267</ele><time>2020-05-21T11:26:56Z</time><name>PT5677</name></trkpt>
<trkpt lat="53.383991" lon="-1.609829"><ele>267</ele><time>2020-05-21T11:26:58Z</time><name>PT5678</name></trkpt>
<trkpt lat="53.384000" lon="-1.609844"><ele>266</ele><time>2020-05-21T11:26:58Z</time><name>PT5679</name></trkpt>
<trkpt lat="53.384008" lon="-1.609853"><ele>267</ele><time>2020-05-21T11:26:59Z</time><name>PT5680</name></trkpt>
<trkpt lat="53.384008" lon="-1.609870"><ele>267</ele><time>2020-05-21T11:27:01Z</time><name>PT5681</name></trkpt>
<trkpt lat="53.384009" lon="-1.609879"><ele>267</ele><time>2020-05-21T11:27:01Z</time><name>PT5682</name></trkpt>
<trkpt lat="53.384016" lon="-1.609891"><ele>267</ele><time>2020-05-21T11:27:02Z</time><name>PT5683</name></trkpt>
<trkpt lat="53.384022" lon="-1.609902"><ele>267</ele><time>2020-05-21T11:27:04Z</time><name>PT5684</name></trkpt>
<trkpt lat="53.384029" lon="-1.609917"><ele>267</ele><time>2020-05-21T11:27:04Z</time><name>PT5685</name></trkpt>
<trkpt lat="53.384034" lon="-1.609936"><ele>267</ele><time>2020-05-21T11:27:06Z</time><name>PT5686</name></trkpt>
<trkpt lat="53.384045" lon="-1.609962"><ele>268</ele><time>2020-05-21T11:27:07Z</time><name>PT5687</name></trkpt>
<trkpt lat="53.384052" lon="-1.609981"><ele>269</ele><time>2020-05-21T11:27:07Z</time><name>PT5688</name></trkpt>
<trkpt lat="53.384054" lon="-1.609998"><ele>270</ele><time>2020-05-21T11:27:08Z</time><name>PT5689</name></trkpt>
<trkpt lat="53.384059" lon="-1.610009"><ele>270</ele><time>2020-05-21T11:27:10Z</time><name>PT5690</name></trkpt>
<trkpt lat="53.384066" lon="-1.610014"><ele>270</ele><time>2020-05-21T11:27:10Z</time><name>PT5691</name></trkpt>
<trkpt lat="53.384077" lon="-1.610025"><ele>270</ele><time>2020-05-21T11:27:12Z</time><name>PT5692</name></trkpt>
<trkpt lat="53.384079" lon="-1.610037"><ele>270</ele><time>2020-05-21T11:27:13Z</time><name>PT5693</name></trkpt>
<trkpt lat="53.384081" lon="-1.610053"><ele>270</ele><time>2020-05-21T11:27:13Z</time><name>PT5694</name></trkpt>
<trkpt lat="53.384083" lon="-1.610060"><ele>270</ele><time>2020-05-21T11:27:14Z</time><name>PT5695</name></trkpt>
<trkpt lat="53.384088" lon="-1.610069"><ele>270</ele><time>2020-05-21T11:27:16Z</time><name>PT5696</name></trkpt>
<trkpt lat="53.384103" lon="-1.610087"><ele>273</ele><time>2020-05-21T11:27:16Z</time><name>PT5697</name></trkpt>
<trkpt lat="53.384112" lon="-1.610106"><ele>274</ele><time>2020-05-21T11:27:17Z</time><name>PT5698</name></trkpt>
<trkpt lat="53.384120" lon="-1.610116"><ele>276</ele><time>2020-05-21T11:27:19Z</time><name>PT5699</name></trkpt>
<trkpt lat="53.384134" lon="-1.610132"><ele>276</ele><time>2020-05-21T11:27:19Z</time><name>PT5700</name></trkpt>
<trkpt lat="53.384143" lon="-1.610148"><ele>275</ele><time>2020-05-21T11:27:21Z</time><name>PT5701</name></trkpt>
<trkpt lat="53.384153" lon="-1.610161"><ele>276</ele><time>2020-05-21T11:27:22Z</time><name>PT5702</name></trkpt>
<trkpt lat="53.384153" lon="-1.610177"><ele>277</ele><time>2020-05-21T11:27:22Z</time><name>PT5703</name></trkpt>
<trkpt lat="53.384154" lon="-1.610190"><ele>278</ele><time>2020-05-21T11:27:23Z</time><name>PT5704</name></trkpt>
<trkpt lat="53.384161" lon="-1.610210"><ele>278</ele><time>2020-05-21T11:27:25Z</time><name>PT5705</name></trkpt>
<trkpt lat="53.384167" lon="-1.610224"><ele>278</ele><time>2020-05-21T11:27:25Z</time><name>PT5706</name></trkpt>
<trkpt lat="53.384169" lon="-1.610237"><ele>278</ele><time>2020-05-21T11:27:26Z</time><name>PT5707</name></trkpt>
<trkpt lat="53.384182" lon="-1.610256"><ele>278</ele><time>2020-05-21T11:27:28Z</time><name>PT5708</name></trkpt>
<trkpt lat="53.384188" lon="-1.610266"><ele>278</ele><time>2020-05-21T11:27:28Z</time><name>PT5709</name></trkpt>
<trkpt lat="53.384196" lon="-1.610285"><ele>279</ele><time>2020-05-21T11:27:29Z</time><name>PT5710</name></trkpt>
<trkpt lat="53.384203" lon="-1.610302"><ele>279</ele><time>2020-05-21T11:27:31Z</time><name>PT5711</name></trkpt>
<trkpt lat="53.384213" lon="-1.610309"><ele>280</ele><time>2020-05-21T11:27:31Z</time><name>PT5712</name></trkpt>
<trkpt lat="53.384216" lon="-1.610325"><ele>281</ele><time>2020-05-21T11:27:32Z</time><name>PT5713</name></trkpt>
<trkpt lat="53.384224" lon="-1.610341"><ele>282</ele><time>2020-05-21T11:27:34Z</time><name>PT5714</name></trkpt>
<trkpt lat="53.384237" lon="-1.610358"><ele>282</ele><time>2020-05-21T11:27:34Z</time><name>PT5715</name></trkpt>
<trkpt lat="53.384240" lon="-1.610377"><ele>281</ele><time>2020-05-21T11:27:36Z</time><name>PT5716</name></trkpt>
<trkpt lat="53.384253" lon="-1.610389"><ele>281</ele><time>2020-05-21T11:27:37Z</time><name>PT5717</name></trkpt>
<trkpt lat="53.384262" lon="-1.610409"><ele>281</ele><time>2020-05-21T11:27:37Z</time><name>PT5718</name></trkpt>
<trkpt lat="53.384269" lon="-1.610427"><ele>280</ele><time>2020-05-21T11:27:38Z</time><name>PT5719</name></trkpt>
<trkpt lat="53.384275" lon="-1.610445"><ele>280</ele><time>2020-05-21T11:27:40Z</time><name>PT5720</name></trkpt>
<trkpt lat="53.384280" lon="-1.610465"><ele>280</ele><time>2020-05-21T11:27:40Z</time><name>PT5721</name></trkpt>
<trkpt lat="53.384288" lon="-1.610477"><ele>280</ele><time>2020-05-21T11:27:41Z</time><name>PT5722</name></trkpt>
<trkpt lat="53.384292" lon="-1.610493"><ele>280</ele><time>2020-05-21T11:27:43Z</time><name>PT5723</name></trkpt>
<trkpt lat="53.384295" lon="-1.610517"><ele>279</ele><time>2020-05-21T11:27:43Z</time><name>PT5724</name></trkpt>
<trkpt lat="53.384299" lon="-1.610539"><ele>279</ele><time>2020-05-21T11:27:44Z</time><name>PT5725</name></trkpt>
<trkpt lat="53.384302" lon="-1.610558"><ele>279</ele><time>2020-05-21T11:27:46Z</time><name>PT5726</name></trkpt>
<trkpt lat="53.384306" lon="-1.610575"><ele>279</ele><time>2020-05-21T11:27:46Z</time><name>PT5727</name></trkpt>
<trkpt lat="53.384312" lon="-1.610591"><ele>279</ele><time>2020-05-21T11:27:47Z</time><name>PT5728</name></trkpt>
<trkpt lat="53.384304" lon="-1.610581"><ele>278</ele><time>2020-05-21T11:27:49Z</time><name>PT5729</name></trkpt>
<trkpt lat="53.384310" lon="-1.610583"><ele>278</ele><time>2020-05-21T11:27:49Z</time><name>PT5730</name></trkpt>
<trkpt lat="53.384310" lon="-1.610599"><ele>279</ele><time>2020-05-21T11:27:51Z</time><name>PT5731</name></trkpt>
<trkpt lat="53.384315" lon="-1.610610"><ele>279</ele><time>2020-05-21T11:27:52Z</time><name>PT5732</name></trkpt>
<trkpt lat="53.384321" lon="-1.610620"><ele>280</ele><time>2020-05-21T11:27:52Z</time><name>PT5733</name></trkpt>
<trkpt lat="53.384330" lon="-1.610637"><ele>280</ele><time>2020-05-21T11:27:53Z</time><name>PT5734</name></trkpt>
<trkpt lat="53.384338" lon="-1.610662"><ele>280</ele><time>2020-05-21T11:27:56Z</time><name>PT5735</name></trkpt>
<trkpt lat="53.384352" lon="-1.610755"><ele>279</ele><time>2020-05-21T11:27:58Z</time><name>PT5736</name></trkpt>
<trkpt lat="53.384359" lon="-1.610813"><ele>280</ele><time>2020-05-21T11:27:58Z</time><name>PT5737</name></trkpt>
<trkpt lat="53.384371" lon="-1.610848"><ele>280</ele><time>2020-05-21T11:27:59Z</time><name>PT5738</name></trkpt>
<trkpt lat="53.384383" lon="-1.610885"><ele>280</ele><time>2020-05-21T11:28:01Z</time><name>PT5739</name></trkpt>
<trkpt lat="53.384388" lon="-1.610912"><ele>280</ele><time>2020-05-21T11:28:01Z</time><name>PT5740</name></trkpt>
<trkpt lat="53.384393" lon="-1.610932"><ele>280</ele><time>2020-05-21T11:28:02Z</time><name>PT5741</name></trkpt>
<trkpt lat="53.384400" lon="-1.610948"><ele>280</ele><time>2020-05-21T11:28:04Z</time><name>PT5742</name></trkpt>
<trkpt lat="53.384413" lon="-1.610975"><ele>280</ele><time>2020-05-21T11:28:04Z</time><name>PT5743</name></trkpt>
<trkpt lat="53.384417" lon="-1.611008"><ele>280</ele><time>2020-05-21T11:28:05Z</time><name>PT5744</name></trkpt>
<trkpt lat="53.384423" lon="-1.611037"><ele>280</ele><time>2020-05-21T11:28:07Z</time><name>PT5745</name></trkpt>
<trkpt lat="53.384431" lon="-1.611058"><ele>280</ele><time>2020-05-21T11:28:07Z</time><name>PT5746</name></trkpt>
<trkpt lat="53.384436" lon="-1.611080"><ele>280</ele><time>2020-05-21T11:28:08Z</time><name>PT5747</name></trkpt>
<trkpt lat="53.384441" lon="-1.611102"><ele>281</ele><time>2020-05-21T11:28:10Z</time><name>PT5748</name></trkpt>
<trkpt lat="53.384447" lon="-1.611123"><ele>281</ele><time>2020-05-21T11:28:10Z</time><name>PT5749</name></trkpt>
<trkpt lat="53.384452" lon="-1.611142"><ele>281</ele><time>2020-05-21T11:28:11Z</time><name>PT5750</name></trkpt>
<trkpt lat="53.384457" lon="-1.611163"><ele>281</ele><time>2020-05-21T11:28:13Z</time><name>PT5751</name></trkpt>
<trkpt lat="53.384460" lon="-1.611183"><ele>281</ele><time>2020-05-21T11:28:13Z</time><name>PT5752</name></trkpt>
<trkpt lat="53.384463" lon="-1.611205"><ele>280</ele><time>2020-05-21T11:28:14Z</time><name>PT5753</name></trkpt>
<trkpt lat="53.384467" lon="-1.611228"><ele>280</ele><time>2020-05-21T11:28:16Z</time><name>PT5754</name></trkpt>
<trkpt lat="53.384468" lon="-1.611250"><ele>280</ele><time>2020-05-21T11:28:16Z</time><name>PT5755</name></trkpt>
<trkpt lat="53.384472" lon="-1.611273"><ele>280</ele><time>2020-05-21T11:28:17Z</time><name>PT5756</name></trkpt>
<trkpt lat="53.384471" lon="-1.611293"><ele>280</ele><time>2020-05-21T11:28:19Z</time><name>PT5757</name></trkpt>
<trkpt lat="53.384473" lon="-1.611307"><ele>280</ele><time>2020-05-21T11:28:19Z</time><name>PT5758</name></trkpt>
<trkpt lat="53.384477" lon="-1.611321"><ele>280</ele><time>2020-05-21T11:28:20Z</time><name>PT5759</name></trkpt>
<trkpt lat="53.384485" lon="-1.611333"><ele>280</ele><time>2020-05-21T11:28:22Z</time><name>PT5760</name></trkpt>
<trkpt lat="53.384486" lon="-1.611352"><ele>280</ele><time>2020-05-21T11:28:22Z</time><name>PT5761</name></trkpt>
<trkpt lat="53.384488" lon="-1.611372"><ele>280</ele><time>2020-05-21T11:28:23Z</time><name>PT5762</name></trkpt>
<trkpt lat="53.384495" lon="-1.611387"><ele>280</ele><time>2020-05-21T11:28:25Z</time><name>PT5763</name></trkpt>
<trkpt lat="53.384501" lon="-1.611404"><ele>280</ele><time>2020-05-21T11:28:25Z</time><name>PT5764</name></trkpt>
<trkpt lat="53.384510" lon="-1.611421"><ele>280</ele><time>2020-05-21T11:28:26Z</time><name>PT5765</name></trkpt>
<trkpt lat="53.384514" lon="-1.611449"><ele>280</ele><time>2020-05-21T11:28:28Z</time><name>PT5766</name></trkpt>
<trkpt lat="53.384522" lon="-1.611468"><ele>280</ele><time>2020-05-21T11:28:28Z</time><name>PT5767</name></trkpt>
<trkpt lat="53.384525" lon="-1.611500"><ele>279</ele><time>2020-05-21T11:28:31Z</time><name>PT5768</name></trkpt>
<trkpt lat="53.384529" lon="-1.611513"><ele>279</ele><time>2020-05-21T11:28:31Z</time><name>PT5769</name></trkpt>
<trkpt lat="53.384534" lon="-1.611529"><ele>279</ele><time>2020-05-21T11:28:32Z</time><name>PT5770</name></trkpt>
<trkpt lat="53.384545" lon="-1.611536"><ele>279</ele><time>2020-05-21T11:28:34Z</time><name>PT5771</name></trkpt>
<trkpt lat="53.384553" lon="-1.611545"><ele>279</ele><time>2020-05-21T11:28:34Z</time><name>PT5772</name></trkpt>
<trkpt lat="53.384558" lon="-1.611555"><ele>279</ele><time>2020-05-21T11:28:35Z</time><name>PT5773</name></trkpt>
<trkpt lat="53.384561" lon="-1.611552"><ele>279</ele><time>2020-05-21T11:28:37Z</time><name>PT5774</name></trkpt>
<trkpt lat="53.384563" lon="-1.611558"><ele>278</ele><time>2020-05-21T11:28:37Z</time><name>PT5775</name></trkpt>
<trkpt lat="53.384574" lon="-1.611569"><ele>278</ele><time>2020-05-21T11:28:38Z</time><name>PT5776</name></trkpt>
<trkpt lat="53.384582" lon="-1.611584"><ele>278</ele><time>2020-05-21T11:28:40Z</time><name>PT5777</name></trkpt>
<trkpt lat="53.384588" lon="-1.611594"><ele>278</ele><time>2020-05-21T11:28:40Z</time><name>PT5778</name></trkpt>
<trkpt lat="53.384591" lon="-1.611599"><ele>278</ele><time>2020-05-21T11:28:41Z</time><name>PT5779</name></trkpt>
<trkpt lat="53.384593" lon="-1.611599"><ele>278</ele><time>2020-05-21T11:28:43Z</time><name>PT5780</name></trkpt>
<trkpt lat="53.384596" lon="-1.611604"><ele>278</ele><time>2020-05-21T11:28:43Z</time><name>PT5781</name></trkpt>
<trkpt lat="53.384594" lon="-1.611609"><ele>278</ele><time>2020-05-21T11:28:44Z</time><name>PT5782</name></trkpt>
<trkpt lat="53.384601" lon="-1.611611"><ele>278</ele><time>2020-05-21T11:28:46Z</time><name>PT5783</name></trkpt>
<trkpt lat="53.384605" lon="-1.611616"><ele>278</ele><time>2020-05-21T11:28:46Z</time><name>PT5784</name></trkpt>
<trkpt lat="53.384608" lon="-1.611611"><ele>278</ele><time>2020-05-21T11:28:47Z</time><name>PT5785</name></trkpt>
<trkpt lat="53.384613" lon="-1.611610"><ele>278</ele><time>2020-05-21T11:28:49Z</time><name>PT5786</name></trkpt>
<trkpt lat="53.384619" lon="-1.611614"><ele>278</ele><time>2020-05-21T11:28:49Z</time><name>PT5787</name></trkpt>
<trkpt lat="53.384626" lon="-1.611616"><ele>277</ele><time>2020-05-21T11:28:50Z</time><name>PT5788</name></trkpt>
<trkpt lat="53.384635" lon="-1.611614"><ele>278</ele><time>2020-05-21T11:28:52Z</time><name>PT5789</name></trkpt>
<trkpt lat="53.384641" lon="-1.611617"><ele>277</ele><time>2020-05-21T11:28:52Z</time><name>PT5790</name></trkpt>
<trkpt lat="53.384654" lon="-1.611627"><ele>277</ele><time>2020-05-21T11:28:53Z</time><name>PT5791</name></trkpt>
<trkpt lat="53.384659" lon="-1.611633"><ele>278</ele><time>2020-05-21T11:28:55Z</time><name>PT5792</name></trkpt>
<trkpt lat="53.384662" lon="-1.611650"><ele>278</ele><time>2020-05-21T11:28:55Z</time><name>PT5793</name></trkpt>
<trkpt lat="53.384668" lon="-1.611662"><ele>278</ele><time>2020-05-21T11:28:56Z</time><name>PT5794</name></trkpt>
<trkpt lat="53.384674" lon="-1.611671"><ele>278</ele><time>2020-05-21T11:28:58Z</time><name>PT5795</name></trkpt>
<trkpt lat="53.384681" lon="-1.611679"><ele>278</ele><time>2020-05-21T11:28:58Z</time><name>PT5796</name></trkpt>
<trkpt lat="53.384687" lon="-1.611693"><ele>278</ele><time>2020-05-21T11:28:59Z</time><name>PT5797</name></trkpt>
<trkpt lat="53.384693" lon="-1.611704"><ele>277</ele><time>2020-05-21T11:29:01Z</time><name>PT5798</name></trkpt>
<trkpt lat="53.384704" lon="-1.611743"><ele>278</ele><time>2020-05-21T11:29:01Z</time><name>PT5799</name></trkpt>
<trkpt lat="53.384719" lon="-1.611757"><ele>277</ele><time>2020-05-21T11:29:02Z</time><name>PT5800</name></trkpt>
<trkpt lat="53.384733" lon="-1.611767"><ele>278</ele><time>2020-05-21T11:29:04Z</time><name>PT5801</name></trkpt>
<trkpt lat="53.384739" lon="-1.611774"><ele>278</ele><time>2020-05-21T11:29:04Z</time><name>PT5802</name></trkpt>
<trkpt lat="53.384743" lon="-1.611783"><ele>278</ele><time>2020-05-21T11:29:05Z</time><name>PT5803</name></trkpt>
<trkpt lat="53.384753" lon="-1.611798"><ele>280</ele><time>2020-05-21T11:29:07Z</time><name>PT5804</name></trkpt>
<trkpt lat="53.384768" lon="-1.611812"><ele>281</ele><time>2020-05-21T11:29:07Z</time><name>PT5805</name></trkpt>
<trkpt lat="53.384771" lon="-1.611830"><ele>281</ele><time>2020-05-21T11:29:08Z</time><name>PT5806</name></trkpt>
<trkpt lat="53.384770" lon="-1.611843"><ele>280</ele><time>2020-05-21T11:29:10Z</time><name>PT5807</name></trkpt>
<trkpt lat="53.384780" lon="-1.611859"><ele>281</ele><time>2020-05-21T11:29:10Z</time><name>PT5808</name></trkpt>
<trkpt lat="53.384782" lon="-1.611870"><ele>281</ele><time>2020-05-21T11:29:11Z</time><name>PT5809</name></trkpt>
<trkpt lat="53.384780" lon="-1.611871"><ele>281</ele><time>2020-05-21T11:29:13Z</time><name>PT5810</name></trkpt>
<trkpt lat="53.384781" lon="-1.611883"><ele>280</ele><time>2020-05-21T11:29:13Z</time><name>PT5811</name></trkpt>
<trkpt lat="53.384789" lon="-1.611900"><ele>279</ele><time>2020-05-21T11:29:15Z</time><name>PT5812</name></trkpt>
<trkpt lat="53.384799" lon="-1.611918"><ele>279</ele><time>2020-05-21T11:29:16Z</time><name>PT5813</name></trkpt>
<trkpt lat="53.384803" lon="-1.611930"><ele>279</ele><time>2020-05-21T11:29:16Z</time><name>PT5814</name></trkpt>
<trkpt lat="53.384814" lon="-1.611943"><ele>279</ele><time>2020-05-21T11:29:17Z</time><name>PT5815</name></trkpt>
<trkpt lat="53.384819" lon="-1.611953"><ele>280</ele><time>2020-05-21T11:29:19Z</time><name>PT5816</name></trkpt>
<trkpt lat="53.384818" lon="-1.611969"><ele>279</ele><time>2020-05-21T11:29:19Z</time><name>PT5817</name></trkpt>
<trkpt lat="53.384822" lon="-1.611979"><ele>278</ele><time>2020-05-21T11:29:20Z</time><name>PT5818</name></trkpt>
<trkpt lat="53.384827" lon="-1.611995"><ele>279</ele><time>2020-05-21T11:29:22Z</time><name>PT5819</name></trkpt>
<trkpt lat="53.384823" lon="-1.612011"><ele>279</ele><time>2020-05-21T11:29:22Z</time><name>PT5820</name></trkpt>
<trkpt lat="53.384820" lon="-1.612026"><ele>279</ele><time>2020-05-21T11:29:23Z</time><name>PT5821</name></trkpt>
<trkpt lat="53.384821" lon="-1.612042"><ele>279</ele><time>2020-05-21T11:29:25Z</time><name>PT5822</name></trkpt>
<trkpt lat="53.384821" lon="-1.612074"><ele>278</ele><time>2020-05-21T11:29:25Z</time><name>PT5823</name></trkpt>
<trkpt lat="53.384826" lon="-1.612102"><ele>279</ele><time>2020-05-21T11:29:26Z</time><name>PT5824</name></trkpt>
<trkpt lat="53.384829" lon="-1.612117"><ele>278</ele><time>2020-05-21T11:29:28Z</time><name>PT5825</name></trkpt>
<trkpt lat="53.384836" lon="-1.612128"><ele>278</ele><time>2020-05-21T11:29:28Z</time><name>PT5826</name></trkpt>
<trkpt lat="53.384847" lon="-1.612151"><ele>277</ele><time>2020-05-21T11:29:29Z</time><name>PT5827</name></trkpt>
<trkpt lat="53.384855" lon="-1.612164"><ele>277</ele><time>2020-05-21T11:29:31Z</time><name>PT5828</name></trkpt>
<trkpt lat="53.384865" lon="-1.612180"><ele>277</ele><time>2020-05-21T11:29:31Z</time><name>PT5829</name></trkpt>
<trkpt lat="53.384871" lon="-1.612193"><ele>276</ele><time>2020-05-21T11:29:32Z</time><name>PT5830</name></trkpt>
<trkpt lat="53.384872" lon="-1.612208"><ele>277</ele><time>2020-05-21T11:29:34Z</time><name>PT5831</name></trkpt>
<trkpt lat="53.384871" lon="-1.612226"><ele>276</ele><time>2020-05-21T11:29:34Z</time><name>PT5832</name></trkpt>
<trkpt lat="53.384867" lon="-1.612245"><ele>276</ele><time>2020-05-21T11:29:35Z</time><name>PT5833</name></trkpt>
<trkpt lat="53.384870" lon="-1.612260"><ele>276</ele><time>2020-05-21T11:29:37Z</time><name>PT5834</name></trkpt>
<trkpt lat="53.384875" lon="-1.612272"><ele>276</ele><time>2020-05-21T11:29:37Z</time><name>PT5835</name></trkpt>
<trkpt lat="53.384884" lon="-1.612286"><ele>275</ele><time>2020-05-21T11:29:38Z</time><name>PT5836</name></trkpt>
<trkpt lat="53.384890" lon="-1.612307"><ele>275</ele><time>2020-05-21T11:29:40Z</time><name>PT5837</name></trkpt>
<trkpt lat="53.384895" lon="-1.612321"><ele>275</ele><time>2020-05-21T11:29:40Z</time><name>PT5838</name></trkpt>
<trkpt lat="53.384900" lon="-1.612332"><ele>274</ele><time>2020-05-21T11:29:41Z</time><name>PT5839</name></trkpt>
<trkpt lat="53.384902" lon="-1.612341"><ele>274</ele><time>2020-05-21T11:29:43Z</time><name>PT5840</name></trkpt>
<trkpt lat="53.384897" lon="-1.612356"><ele>274</ele><time>2020-05-21T11:29:43Z</time><name>PT5841</name></trkpt>
<trkpt lat="53.384900" lon="-1.612375"><ele>275</ele><time>2020-05-21T11:29:44Z</time><name>PT5842</name></trkpt>
<trkpt lat="53.384906" lon="-1.612393"><ele>275</ele><time>2020-05-21T11:29:46Z</time><name>PT5843</name></trkpt>
<trkpt lat="53.384917" lon="-1.612415"><ele>275</ele><time>2020-05-21T11:29:46Z</time><name>PT5844</name></trkpt>
<trkpt lat="53.384925" lon="-1.612434"><ele>276</ele><time>2020-05-21T11:29:47Z</time><name>PT5845</name></trkpt>
<trkpt lat="53.384929" lon="-1.612444"><ele>277</ele><time>2020-05-21T11:29:49Z</time><name>PT5846</name></trkpt>
<trkpt lat="53.384927" lon="-1.612461"><ele>276</ele><time>2020-05-21T11:29:49Z</time><name>PT5847</name></trkpt>
<trkpt lat="53.384930" lon="-1.612482"><ele>277</ele><time>2020-05-21T11:29:50Z</time><name>PT5848</name></trkpt>
<trkpt lat="53.384929" lon="-1.612501"><ele>276</ele><time>2020-05-21T11:29:52Z</time><name>PT5849</name></trkpt>
<trkpt lat="53.384932" lon="-1.612520"><ele>276</ele><time>2020-05-21T11:29:52Z</time><name>PT5850</name></trkpt>
<trkpt lat="53.384934" lon="-1.612540"><ele>276</ele><time>2020-05-21T11:29:53Z</time><name>PT5851</name></trkpt>
<trkpt lat="53.384937" lon="-1.612559"><ele>277</ele><time>2020-05-21T11:29:55Z</time><name>PT5852</name></trkpt>
<trkpt lat="53.384940" lon="-1.612568"><ele>277</ele><time>2020-05-21T11:29:55Z</time><name>PT5853</name></trkpt>
<trkpt lat="53.384938" lon="-1.612578"><ele>277</ele><time>2020-05-21T11:29:56Z</time><name>PT5854</name></trkpt>
<trkpt lat="53.384939" lon="-1.612590"><ele>277</ele><time>2020-05-21T11:29:58Z</time><name>PT5855</name></trkpt>
<trkpt lat="53.384939" lon="-1.612609"><ele>277</ele><time>2020-05-21T11:29:58Z</time><name>PT5856</name></trkpt>
<trkpt lat="53.384938" lon="-1.612627"><ele>277</ele><time>2020-05-21T11:29:59Z</time><name>PT5857</name></trkpt>
<trkpt lat="53.384933" lon="-1.612642"><ele>277</ele><time>2020-05-21T11:30:01Z</time><name>PT5858</name></trkpt>
<trkpt lat="53.384934" lon="-1.612658"><ele>277</ele><time>2020-05-21T11:30:01Z</time><name>PT5859</name></trkpt>
<trkpt lat="53.384933" lon="-1.612673"><ele>276</ele><time>2020-05-21T11:30:02Z</time><name>PT5860</name></trkpt>
<trkpt lat="53.384939" lon="-1.612688"><ele>277</ele><time>2020-05-21T11:30:04Z</time><name>PT5861</name></trkpt>
<trkpt lat="53.384945" lon="-1.612716"><ele>277</ele><time>2020-05-21T11:30:04Z</time><name>PT5862</name></trkpt>
<trkpt lat="53.384944" lon="-1.612738"><ele>278</ele><time>2020-05-21T11:30:05Z</time><name>PT5863</name></trkpt>
<trkpt lat="53.384943" lon="-1.612753"><ele>277</ele><time>2020-05-21T11:30:07Z</time><name>PT5864</name></trkpt>
<trkpt lat="53.384948" lon="-1.612773"><ele>277</ele><time>2020-05-21T11:30:07Z</time><name>PT5865</name></trkpt>
<trkpt lat="53.384950" lon="-1.612790"><ele>277</ele><time>2020-05-21T11:30:08Z</time><name>PT5866</name></trkpt>
<trkpt lat="53.384949" lon="-1.612808"><ele>277</ele><time>2020-05-21T11:30:10Z</time><name>PT5867</name></trkpt>
<trkpt lat="53.384951" lon="-1.612819"><ele>278</ele><time>2020-05-21T11:30:10Z</time><name>PT5868</name></trkpt>
<trkpt lat="53.384953" lon="-1.612831"><ele>278</ele><time>2020-05-21T11:30:11Z</time><name>PT5869</name></trkpt>
<trkpt lat="53.384958" lon="-1.612849"><ele>278</ele><time>2020-05-21T11:30:13Z</time><name>PT5870</name></trkpt>
<trkpt lat="53.384963" lon="-1.612867"><ele>277</ele><time>2020-05-21T11:30:13Z</time><name>PT5871</name></trkpt>
<trkpt lat="53.384968" lon="-1.612881"><ele>276</ele><time>2020-05-21T11:30:14Z</time><name>PT5872</name></trkpt>
<trkpt lat="53.384974" lon="-1.612897"><ele>276</ele><time>2020-05-21T11:30:16Z</time><name>PT5873</name></trkpt>
<trkpt lat="53.384977" lon="-1.612909"><ele>277</ele><time>2020-05-21T11:30:16Z</time><name>PT5874</name></trkpt>
<trkpt lat="53.384982" lon="-1.612926"><ele>277</ele><time>2020-05-21T11:30:18Z</time><name>PT5875</name></trkpt>
<trkpt lat="53.384987" lon="-1.612943"><ele>277</ele><time>2020-05-21T11:30:19Z</time><name>PT5876</name></trkpt>
<trkpt lat="53.384989" lon="-1.612960"><ele>277</ele><time>2020-05-21T11:30:19Z</time><name>PT5877</name></trkpt>
<trkpt lat="53.384994" lon="-1.612985"><ele>279</ele><time>2020-05-21T11:30:20Z</time><name>PT5878</name></trkpt>
<trkpt lat="53.384994" lon="-1.613002"><ele>280</ele><time>2020-05-21T11:30:22Z</time><name>PT5879</name></trkpt>
<trkpt lat="53.385000" lon="-1.613024"><ele>280</ele><time>2020-05-21T11:30:22Z</time><name>PT5880</name></trkpt>
<trkpt lat="53.385002" lon="-1.613037"><ele>278</ele><time>2020-05-21T11:30:23Z</time><name>PT5881</name></trkpt>
<trkpt lat="53.385009" lon="-1.613054"><ele>279</ele><time>2020-05-21T11:30:25Z</time><name>PT5882</name></trkpt>
<trkpt lat="53.385014" lon="-1.613071"><ele>278</ele><time>2020-05-21T11:30:25Z</time><name>PT5883</name></trkpt>
<trkpt lat="53.385018" lon="-1.613088"><ele>278</ele><time>2020-05-21T11:30:26Z</time><name>PT5884</name></trkpt>
<trkpt lat="53.385025" lon="-1.613102"><ele>276</ele><time>2020-05-21T11:30:28Z</time><name>PT5885</name></trkpt>
<trkpt lat="53.385036" lon="-1.613117"><ele>275</ele><time>2020-05-21T11:30:28Z</time><name>PT5886</name></trkpt>
<trkpt lat="53.385038" lon="-1.613132"><ele>275</ele><time>2020-05-21T11:30:29Z</time><name>PT5887</name></trkpt>
<trkpt lat="53.385040" lon="-1.613152"><ele>274</ele><time>2020-05-21T11:30:31Z</time><name>PT5888</name></trkpt>
<trkpt lat="53.385038" lon="-1.613169"><ele>274</ele><time>2020-05-21T11:30:31Z</time><name>PT5889</name></trkpt>
<trkpt lat="53.385036" lon="-1.613178"><ele>274</ele><time>2020-05-21T11:30:33Z</time><name>PT5890</name></trkpt>
<trkpt lat="53.385032" lon="-1.613189"><ele>276</ele><time>2020-05-21T11:30:34Z</time><name>PT5891</name></trkpt>
<trkpt lat="53.385038" lon="-1.613208"><ele>275</ele><time>2020-05-21T11:30:34Z</time><name>PT5892</name></trkpt>
<trkpt lat="53.385045" lon="-1.613228"><ele>276</ele><time>2020-05-21T11:30:35Z</time><name>PT5893</name></trkpt>
<trkpt lat="53.385051" lon="-1.613235"><ele>276</ele><time>2020-05-21T11:30:37Z</time><name>PT5894</name></trkpt>
<trkpt lat="53.385053" lon="-1.613251"><ele>277</ele><time>2020-05-21T11:30:38Z</time><name>PT5895</name></trkpt>
<trkpt lat="53.385058" lon="-1.613264"><ele>277</ele><time>2020-05-21T11:30:38Z</time><name>PT5896</name></trkpt>
<trkpt lat="53.385068" lon="-1.613288"><ele>278</ele><time>2020-05-21T11:30:40Z</time><name>PT5897</name></trkpt>
<trkpt lat="53.385077" lon="-1.613313"><ele>279</ele><time>2020-05-21T11:30:41Z</time><name>PT5898</name></trkpt>
<trkpt lat="53.385083" lon="-1.613329"><ele>278</ele><time>2020-05-21T11:30:42Z</time><name>PT5899</name></trkpt>
<trkpt lat="53.385082" lon="-1.613342"><ele>278</ele><time>2020-05-21T11:30:43Z</time><name>PT5900</name></trkpt>
<trkpt lat="53.385081" lon="-1.613355"><ele>278</ele><time>2020-05-21T11:30:43Z</time><name>PT5901</name></trkpt>
<trkpt lat="53.385078" lon="-1.613366"><ele>278</ele><time>2020-05-21T11:30:45Z</time><name>PT5902</name></trkpt>
<trkpt lat="53.385078" lon="-1.613380"><ele>278</ele><time>2020-05-21T11:30:46Z</time><name>PT5903</name></trkpt>
<trkpt lat="53.385080" lon="-1.613384"><ele>277</ele><time>2020-05-21T11:30:46Z</time><name>PT5904</name></trkpt>
<trkpt lat="53.385082" lon="-1.613393"><ele>278</ele><time>2020-05-21T11:30:48Z</time><name>PT5905</name></trkpt>
<trkpt lat="53.385093" lon="-1.613413"><ele>279</ele><time>2020-05-21T11:30:49Z</time><name>PT5906</name></trkpt>
<trkpt lat="53.385098" lon="-1.613427"><ele>278</ele><time>2020-05-21T11:30:49Z</time><name>PT5907</name></trkpt>
<trkpt lat="53.385103" lon="-1.613443"><ele>278</ele><time>2020-05-21T11:30:50Z</time><name>PT5908</name></trkpt>
<trkpt lat="53.385110" lon="-1.613455"><ele>279</ele><time>2020-05-21T11:30:52Z</time><name>PT5909</name></trkpt>
<trkpt lat="53.385121" lon="-1.613465"><ele>279</ele><time>2020-05-21T11:30:52Z</time><name>PT5910</name></trkpt>
<trkpt lat="53.385121" lon="-1.613471"><ele>278</ele><time>2020-05-21T11:30:53Z</time><name>PT5911</name></trkpt>
<trkpt lat="53.385124" lon="-1.613463"><ele>279</ele><time>2020-05-21T11:30:55Z</time><name>PT5912</name></trkpt>
<trkpt lat="53.385135" lon="-1.613464"><ele>278</ele><time>2020-05-21T11:30:55Z</time><name>PT5913</name></trkpt>
<trkpt lat="53.385139" lon="-1.613474"><ele>278</ele><time>2020-05-21T11:30:57Z</time><name>PT5914</name></trkpt>
<trkpt lat="53.385143" lon="-1.613482"><ele>279</ele><time>2020-05-21T11:30:58Z</time><name>PT5915</name></trkpt>
<trkpt lat="53.385148" lon="-1.613487"><ele>279</ele><time>2020-05-21T11:30:58Z</time><name>PT5916</name></trkpt>
<trkpt lat="53.385154" lon="-1.613487"><ele>279</ele><time>2020-05-21T11:30:59Z</time><name>PT5917</name></trkpt>
<trkpt lat="53.385159" lon="-1.613488"><ele>278</ele><time>2020-05-21T11:31:01Z</time><name>PT5918</name></trkpt>
<trkpt lat="53.385161" lon="-1.613489"><ele>277</ele><time>2020-05-21T11:31:01Z</time><name>PT5919</name></trkpt>
<trkpt lat="53.385167" lon="-1.613488"><ele>277</ele><time>2020-05-21T11:31:03Z</time><name>PT5920</name></trkpt>
<trkpt lat="53.385175" lon="-1.613484"><ele>278</ele><time>2020-05-21T11:31:04Z</time><name>PT5921</name></trkpt>
<trkpt lat="53.385184" lon="-1.613484"><ele>280</ele><time>2020-05-21T11:31:04Z</time><name>PT5922</name></trkpt>
<trkpt lat="53.385195" lon="-1.613483"><ele>279</ele><time>2020-05-21T11:31:05Z</time><name>PT5923</name></trkpt>
<trkpt lat="53.385204" lon="-1.613480"><ele>279</ele><time>2020-05-21T11:31:07Z</time><name>PT5924</name></trkpt>
<trkpt lat="53.385213" lon="-1.613476"><ele>279</ele><time>2020-05-21T11:31:07Z</time><name>PT5925</name></trkpt>
<trkpt lat="53.385222" lon="-1.613478"><ele>280</ele><time>2020-05-21T11:31:08Z</time><name>PT5926</name></trkpt>
<trkpt lat="53.385231" lon="-1.613474"><ele>281</ele><time>2020-05-21T11:31:10Z</time><name>PT5927</name></trkpt>
<trkpt lat="53.385237" lon="-1.613473"><ele>281</ele><time>2020-05-21T11:31:10Z</time><name>PT5928</name></trkpt>
<trkpt lat="53.385238" lon="-1.613476"><ele>281</ele><time>2020-05-21T11:31:12Z</time><name>PT5929</name></trkpt>
<trkpt lat="53.385239" lon="-1.613482"><ele>281</ele><time>2020-05-21T11:31:13Z</time><name>PT5930</name></trkpt>
<trkpt lat="53.385244" lon="-1.613495"><ele>282</ele><time>2020-05-21T11:31:16Z</time><name>PT5931</name></trkpt>
<trkpt lat="53.385248" lon="-1.613492"><ele>283</ele><time>2020-05-21T11:31:17Z</time><name>PT5932</name></trkpt>
<trkpt lat="53.385250" lon="-1.613486"><ele>282</ele><time>2020-05-21T11:31:18Z</time><name>PT5933</name></trkpt>
<trkpt lat="53.385254" lon="-1.613480"><ele>281</ele><time>2020-05-21T11:31:18Z</time><name>PT5934</name></trkpt>
<trkpt lat="53.385255" lon="-1.613472"><ele>281</ele><time>2020-05-21T11:31:20Z</time><name>PT5935</name></trkpt>
<trkpt lat="53.385259" lon="-1.613471"><ele>281</ele><time>2020-05-21T11:31:21Z</time><name>PT5936</name></trkpt>
<trkpt lat="53.385260" lon="-1.613471"><ele>281</ele><time>2020-05-21T11:31:22Z</time><name>PT5937</name></trkpt>
<trkpt lat="53.385263" lon="-1.613474"><ele>281</ele><time>2020-05-21T11:31:23Z</time><name>PT5938</name></trkpt>
<trkpt lat="53.385275" lon="-1.613444"><ele>280</ele><time>2020-05-21T11:31:29Z</time><name>PT5939</name></trkpt>
<trkpt lat="53.385285" lon="-1.613433"><ele>279</ele><time>2020-05-21T11:31:30Z</time><name>PT5940</name></trkpt>
<trkpt lat="53.385299" lon="-1.613428"><ele>278</ele><time>2020-05-21T11:31:31Z</time><name>PT5941</name></trkpt>
<trkpt lat="53.385312" lon="-1.613422"><ele>278</ele><time>2020-05-21T11:31:31Z</time><name>PT5942</name></trkpt>
<trkpt lat="53.385324" lon="-1.613416"><ele>278</ele><time>2020-05-21T11:31:33Z</time><name>PT5943</name></trkpt>
<trkpt lat="53.385337" lon="-1.613404"><ele>278</ele><time>2020-05-21T11:31:33Z</time><name>PT5944</name></trkpt>
<trkpt lat="53.385351" lon="-1.613396"><ele>278</ele><time>2020-05-21T11:31:35Z</time><name>PT5945</name></trkpt>
<trkpt lat="53.385358" lon="-1.613387"><ele>278</ele><time>2020-05-21T11:31:36Z</time><name>PT5946</name></trkpt>
<trkpt lat="53.385363" lon="-1.613384"><ele>278</ele><time>2020-05-21T11:31:36Z</time><name>PT5947</name></trkpt>
<trkpt lat="53.385375" lon="-1.613380"><ele>278</ele><time>2020-05-21T11:31:37Z</time><name>PT5948</name></trkpt>
<trkpt lat="53.385385" lon="-1.613369"><ele>278</ele><time>2020-05-21T11:31:39Z</time><name>PT5949</name></trkpt>
<trkpt lat="53.385396" lon="-1.613359"><ele>278</ele><time>2020-05-21T11:31:39Z</time><name>PT5950</name></trkpt>
<trkpt lat="53.385401" lon="-1.613353"><ele>277</ele><time>2020-05-21T11:31:41Z</time><name>PT5951</name></trkpt>
<trkpt lat="53.385407" lon="-1.613349"><ele>276</ele><time>2020-05-21T11:31:42Z</time><name>PT5952</name></trkpt>
<trkpt lat="53.385413" lon="-1.613342"><ele>276</ele><time>2020-05-21T11:31:42Z</time><name>PT5953</name></trkpt>
<trkpt lat="53.385423" lon="-1.613336"><ele>276</ele><time>2020-05-21T11:31:43Z</time><name>PT5954</name></trkpt>
<trkpt lat="53.385429" lon="-1.613334"><ele>276</ele><time>2020-05-21T11:31:45Z</time><name>PT5955</name></trkpt>
<trkpt lat="53.385436" lon="-1.613330"><ele>276</ele><time>2020-05-21T11:31:45Z</time><name>PT5956</name></trkpt>
<trkpt lat="53.385443" lon="-1.613320"><ele>277</ele><time>2020-05-21T11:31:46Z</time><name>PT5957</name></trkpt>
<trkpt lat="53.385449" lon="-1.613312"><ele>277</ele><time>2020-05-21T11:31:48Z</time><name>PT5958</name></trkpt>
<trkpt lat="53.385457" lon="-1.613306"><ele>277</ele><time>2020-05-21T11:31:48Z</time><name>PT5959</name></trkpt>
<trkpt lat="53.385466" lon="-1.613298"><ele>277</ele><time>2020-05-21T11:31:50Z</time><name>PT5960</name></trkpt>
<trkpt lat="53.385476" lon="-1.613292"><ele>278</ele><time>2020-05-21T11:31:51Z</time><name>PT5961</name></trkpt>
<trkpt lat="53.385485" lon="-1.613286"><ele>278</ele><time>2020-05-21T11:31:52Z</time><name>PT5962</name></trkpt>
<trkpt lat="53.385491" lon="-1.613281"><ele>278</ele><time>2020-05-21T11:31:52Z</time><name>PT5963</name></trkpt>
<trkpt lat="53.385499" lon="-1.613277"><ele>279</ele><time>2020-05-21T11:31:54Z</time><name>PT5964</name></trkpt>
<trkpt lat="53.385504" lon="-1.613270"><ele>279</ele><time>2020-05-21T11:31:55Z</time><name>PT5965</name></trkpt>
<trkpt lat="53.385509" lon="-1.613263"><ele>279</ele><time>2020-05-21T11:31:56Z</time><name>PT5966</name></trkpt>
<trkpt lat="53.385514" lon="-1.613254"><ele>279</ele><time>2020-05-21T11:31:57Z</time><name>PT5967</name></trkpt>
<trkpt lat="53.385520" lon="-1.613243"><ele>279</ele><time>2020-05-21T11:31:57Z</time><name>PT5968</name></trkpt>
<trkpt lat="53.385530" lon="-1.613224"><ele>281</ele><time>2020-05-21T11:31:58Z</time><name>PT5969</name></trkpt>
<trkpt lat="53.385533" lon="-1.613205"><ele>281</ele><time>2020-05-21T11:32:00Z</time><name>PT5970</name></trkpt>
<trkpt lat="53.385533" lon="-1.613192"><ele>280</ele><time>2020-05-21T11:32:01Z</time><name>PT5971</name></trkpt>
<trkpt lat="53.385537" lon="-1.613177"><ele>279</ele><time>2020-05-21T11:32:02Z</time><name>PT5972</name></trkpt>
<trkpt lat="53.385546" lon="-1.613161"><ele>280</ele><time>2020-05-21T11:32:03Z</time><name>PT5973</name></trkpt>
<trkpt lat="53.385553" lon="-1.613144"><ele>280</ele><time>2020-05-21T11:32:03Z</time><name>PT5974</name></trkpt>
<trkpt lat="53.385559" lon="-1.613131"><ele>280</ele><time>2020-05-21T11:32:05Z</time><name>PT5975</name></trkpt>
<trkpt lat="53.385563" lon="-1.613118"><ele>279</ele><time>2020-05-21T11:32:06Z</time><name>PT5976</name></trkpt>
<trkpt lat="53.385570" lon="-1.613108"><ele>279</ele><time>2020-05-21T11:32:07Z</time><name>PT5977</name></trkpt>
<trkpt lat="53.385577" lon="-1.613093"><ele>278</ele><time>2020-05-21T11:32:07Z</time><name>PT5978</name></trkpt>
<trkpt lat="53.385584" lon="-1.613077"><ele>279</ele><time>2020-05-21T11:32:09Z</time><name>PT5979</name></trkpt>
<trkpt lat="53.385592" lon="-1.613058"><ele>279</ele><time>2020-05-21T11:32:09Z</time><name>PT5980</name></trkpt>
<trkpt lat="53.385597" lon="-1.613040"><ele>279</ele><time>2020-05-21T11:32:10Z</time><name>PT5981</name></trkpt>
<trkpt lat="53.385604" lon="-1.613021"><ele>279</ele><time>2020-05-21T11:32:11Z</time><name>PT5982</name></trkpt>
<trkpt lat="53.385612" lon="-1.613009"><ele>279</ele><time>2020-05-21T11:32:12Z</time><name>PT5983</name></trkpt>
<trkpt lat="53.385621" lon="-1.612992"><ele>278</ele><time>2020-05-21T11:32:14Z</time><name>PT5984</name></trkpt>
<trkpt lat="53.385633" lon="-1.612974"><ele>279</ele><time>2020-05-21T11:32:14Z</time><name>PT5985</name></trkpt>
<trkpt lat="53.385641" lon="-1.612961"><ele>279</ele><time>2020-05-21T11:32:15Z</time><name>PT5986</name></trkpt>
<trkpt lat="53.385649" lon="-1.612948"><ele>280</ele><time>2020-05-21T11:32:17Z</time><name>PT5987</name></trkpt>
<trkpt lat="53.385659" lon="-1.612933"><ele>280</ele><time>2020-05-21T11:32:17Z</time><name>PT5988</name></trkpt>
<trkpt lat="53.385666" lon="-1.612909"><ele>280</ele><time>2020-05-21T11:32:18Z</time><name>PT5989</name></trkpt>
<trkpt lat="53.385673" lon="-1.612886"><ele>280</ele><time>2020-05-21T11:32:20Z</time><name>PT5990</name></trkpt>
<trkpt lat="53.385678" lon="-1.612872"><ele>280</ele><time>2020-05-21T11:32:20Z</time><name>PT5991</name></trkpt>
<trkpt lat="53.385682" lon="-1.612861"><ele>280</ele><time>2020-05-21T11:32:21Z</time><name>PT5992</name></trkpt>
<trkpt lat="53.385689" lon="-1.612848"><ele>279</ele><time>2020-05-21T11:32:23Z</time><name>PT5993</name></trkpt>
<trkpt lat="53.385698" lon="-1.612836"><ele>281</ele><time>2020-05-21T11:32:23Z</time><name>PT5994</name></trkpt>
<trkpt lat="53.385704" lon="-1.612817"><ele>281</ele><time>2020-05-21T11:32:24Z</time><name>PT5995</name></trkpt>
<trkpt lat="53.385711" lon="-1.612805"><ele>281</ele><time>2020-05-21T11:32:26Z</time><name>PT5996</name></trkpt>
<trkpt lat="53.385716" lon="-1.612786"><ele>281</ele><time>2020-05-21T11:32:26Z</time><name>PT5997</name></trkpt>
<trkpt lat="53.385718" lon="-1.612763"><ele>280</ele><time>2020-05-21T11:32:27Z</time><name>PT5998</name></trkpt>
<trkpt lat="53.385720" lon="-1.612742"><ele>280</ele><time>2020-05-21T11:32:29Z</time><name>PT5999</name></trkpt>
<trkpt lat="53.385724" lon="-1.612721"><ele>280</ele><time>2020-05-21T11:32:29Z</time><name>PT6000</name></trkpt>
<trkpt lat="53.385727" lon="-1.612703"><ele>280</ele><time>2020-05-21T11:32:30Z</time><name>PT6001</name></trkpt>
<trkpt lat="53.385731" lon="-1.612697"><ele>280</ele><time>2020-05-21T11:32:32Z</time><name>PT6002</name></trkpt>
<trkpt lat="53.385736" lon="-1.612689"><ele>281</ele><time>2020-05-21T11:32:32Z</time><name>PT6003</name></trkpt>
<trkpt lat="53.385739" lon="-1.612672"><ele>280</ele><time>2020-05-21T11:32:33Z</time><name>PT6004</name></trkpt>
<trkpt lat="53.385749" lon="-1.612656"><ele>282</ele><time>2020-05-21T11:32:35Z</time><name>PT6005</name></trkpt>
<trkpt lat="53.385756" lon="-1.612639"><ele>282</ele><time>2020-05-21T11:32:35Z</time><name>PT6006</name></trkpt>
<trkpt lat="53.385765" lon="-1.612631"><ele>283</ele><time>2020-05-21T11:32:36Z</time><name>PT6007</name></trkpt>
<trkpt lat="53.385777" lon="-1.612618"><ele>284</ele><time>2020-05-21T11:32:38Z</time><name>PT6008</name></trkpt>
<trkpt lat="53.385785" lon="-1.612602"><ele>284</ele><time>2020-05-21T11:32:38Z</time><name>PT6009</name></trkpt>
<trkpt lat="53.385794" lon="-1.612590"><ele>285</ele><time>2020-05-21T11:32:39Z</time><name>PT6010</name></trkpt>
<trkpt lat="53.385801" lon="-1.612581"><ele>285</ele><time>2020-05-21T11:32:41Z</time><name>PT6011</name></trkpt>
<trkpt lat="53.385809" lon="-1.612565"><ele>286</ele><time>2020-05-21T11:32:41Z</time><name>PT6012</name></trkpt>
<trkpt lat="53.385818" lon="-1.612555"><ele>286</ele><time>2020-05-21T11:32:42Z</time><name>PT6013</name></trkpt>
<trkpt lat="53.385827" lon="-1.612543"><ele>286</ele><time>2020-05-21T11:32:44Z</time><name>PT6014</name></trkpt>
<trkpt lat="53.385835" lon="-1.612527"><ele>286</ele><time>2020-05-21T11:32:44Z</time><name>PT6015</name></trkpt>
<trkpt lat="53.385843" lon="-1.612513"><ele>286</ele><time>2020-05-21T11:32:45Z</time><name>PT6016</name></trkpt>
<trkpt lat="53.385850" lon="-1.612498"><ele>286</ele><time>2020-05-21T11:32:47Z</time><name>PT6017</name></trkpt>
<trkpt lat="53.385857" lon="-1.612483"><ele>286</ele><time>2020-05-21T11:32:47Z</time><name>PT6018</name></trkpt>
<trkpt lat="53.385855" lon="-1.612463"><ele>285</ele><time>2020-05-21T11:32:48Z</time><name>PT6019</name></trkpt>
<trkpt lat="53.385860" lon="-1.612445"><ele>285</ele><time>2020-05-21T11:32:50Z</time><name>PT6020</name></trkpt>
<trkpt lat="53.385864" lon="-1.612429"><ele>285</ele><time>2020-05-21T11:32:50Z</time><name>PT6021</name></trkpt>
<trkpt lat="53.385868" lon="-1.612414"><ele>285</ele><time>2020-05-21T11:32:51Z</time><name>PT6022</name></trkpt>
<trkpt lat="53.385872" lon="-1.612399"><ele>285</ele><time>2020-05-21T11:32:53Z</time><name>PT6023</name></trkpt>
<trkpt lat="53.385879" lon="-1.612382"><ele>286</ele><time>2020-05-21T11:32:53Z</time><name>PT6024</name></trkpt>
<trkpt lat="53.385889" lon="-1.612362"><ele>286</ele><time>2020-05-21T11:32:54Z</time><name>PT6025</name></trkpt>
<trkpt lat="53.385897" lon="-1.612343"><ele>286</ele><time>2020-05-21T11:32:56Z</time><name>PT6026</name></trkpt>
<trkpt lat="53.385904" lon="-1.612336"><ele>286</ele><time>2020-05-21T11:32:56Z</time><name>PT6027</name></trkpt>
<trkpt lat="53.385909" lon="-1.612324"><ele>286</ele><time>2020-05-21T11:32:57Z</time><name>PT6028</name></trkpt>
<trkpt lat="53.385914" lon="-1.612311"><ele>286</ele><time>2020-05-21T11:32:59Z</time><name>PT6029</name></trkpt>
<trkpt lat="53.385924" lon="-1.612301"><ele>286</ele><time>2020-05-21T11:32:59Z</time><name>PT6030</name></trkpt>
<trkpt lat="53.385928" lon="-1.612291"><ele>286</ele><time>2020-05-21T11:33:00Z</time><name>PT6031</name></trkpt>
<trkpt lat="53.385930" lon="-1.612285"><ele>286</ele><time>2020-05-21T11:33:01Z</time><name>PT6032</name></trkpt>
<trkpt lat="53.385932" lon="-1.612282"><ele>286</ele><time>2020-05-21T11:33:02Z</time><name>PT6033</name></trkpt>
<trkpt lat="53.385935" lon="-1.612279"><ele>286</ele><time>2020-05-21T11:33:03Z</time><name>PT6034</name></trkpt>
<trkpt lat="53.385937" lon="-1.612279"><ele>286</ele><time>2020-05-21T11:33:15Z</time><name>PT6035</name></trkpt>
<trkpt lat="53.385935" lon="-1.612264"><ele>286</ele><time>2020-05-21T11:33:16Z</time><name>PT6036</name></trkpt>
<trkpt lat="53.385930" lon="-1.612244"><ele>286</ele><time>2020-05-21T11:33:18Z</time><name>PT6037</name></trkpt>
<trkpt lat="53.385929" lon="-1.612229"><ele>286</ele><time>2020-05-21T11:33:18Z</time><name>PT6038</name></trkpt>
<trkpt lat="53.385933" lon="-1.612214"><ele>285</ele><time>2020-05-21T11:33:19Z</time><name>PT6039</name></trkpt>
<trkpt lat="53.385940" lon="-1.612196"><ele>285</ele><time>2020-05-21T11:33:21Z</time><name>PT6040</name></trkpt>
<trkpt lat="53.385946" lon="-1.612170"><ele>286</ele><time>2020-05-21T11:33:21Z</time><name>PT6041</name></trkpt>
<trkpt lat="53.385949" lon="-1.612151"><ele>286</ele><time>2020-05-21T11:33:23Z</time><name>PT6042</name></trkpt>
<trkpt lat="53.385952" lon="-1.612134"><ele>286</ele><time>2020-05-21T11:33:24Z</time><name>PT6043</name></trkpt>
<trkpt lat="53.385959" lon="-1.612126"><ele>285</ele><time>2020-05-21T11:33:24Z</time><name>PT6044</name></trkpt>
<trkpt lat="53.385956" lon="-1.612108"><ele>285</ele><time>2020-05-21T11:33:25Z</time><name>PT6045</name></trkpt>
<trkpt lat="53.385950" lon="-1.612087"><ele>285</ele><time>2020-05-21T11:33:27Z</time><name>PT6046</name></trkpt>
<trkpt lat="53.385940" lon="-1.612064"><ele>285</ele><time>2020-05-21T11:33:27Z</time><name>PT6047</name></trkpt>
<trkpt lat="53.385934" lon="-1.612053"><ele>285</ele><time>2020-05-21T11:33:29Z</time><name>PT6048</name></trkpt>
<trkpt lat="53.385927" lon="-1.612041"><ele>285</ele><time>2020-05-21T11:33:30Z</time><name>PT6049</name></trkpt>
<trkpt lat="53.385917" lon="-1.612024"><ele>285</ele><time>2020-05-21T11:33:30Z</time><name>PT6050</name></trkpt>
<trkpt lat="53.385910" lon="-1.612010"><ele>285</ele><time>2020-05-21T11:33:31Z</time><name>PT6051</name></trkpt>
<trkpt lat="53.385900" lon="-1.611992"><ele>285</ele><time>2020-05-21T11:33:33Z</time><name>PT6052</name></trkpt>
<trkpt lat="53.385890" lon="-1.611971"><ele>284</ele><time>2020-05-21T11:33:33Z</time><name>PT6053</name></trkpt>
<trkpt lat="53.385883" lon="-1.611958"><ele>285</ele><time>2020-05-21T11:33:34Z</time><name>PT6054</name></trkpt>
<trkpt lat="53.385878" lon="-1.611947"><ele>285</ele><time>2020-05-21T11:33:36Z</time><name>PT6055</name></trkpt>
<trkpt lat="53.385872" lon="-1.611933"><ele>285</ele><time>2020-05-21T11:33:36Z</time><name>PT6056</name></trkpt>
<trkpt lat="53.385864" lon="-1.611918"><ele>285</ele><time>2020-05-21T11:33:37Z</time><name>PT6057</name></trkpt>
<trkpt lat="53.385854" lon="-1.611903"><ele>285</ele><time>2020-05-21T11:33:39Z</time><name>PT6058</name></trkpt>
<trkpt lat="53.385847" lon="-1.611892"><ele>285</ele><time>2020-05-21T11:33:39Z</time><name>PT6059</name></trkpt>
<trkpt lat="53.385846" lon="-1.611882"><ele>285</ele><time>2020-05-21T11:33:40Z</time><name>PT6060</name></trkpt>
<trkpt lat="53.385845" lon="-1.611880"><ele>285</ele><time>2020-05-21T11:33:42Z</time><name>PT6061</name></trkpt>
<trkpt lat="53.385846" lon="-1.611879"><ele>285</ele><time>2020-05-21T11:33:42Z</time><name>PT6062</name></trkpt>
<trkpt lat="53.385846" lon="-1.611878"><ele>285</ele><time>2020-05-21T11:33:43Z</time><name>PT6063</name></trkpt>
<trkpt lat="53.385847" lon="-1.611878"><ele>285</ele><time>2020-05-21T11:34:10Z</time><name>PT6064</name></trkpt>
<trkpt lat="53.385848" lon="-1.611875"><ele>285</ele><time>2020-05-21T11:34:12Z</time><name>PT6065</name></trkpt>
<trkpt lat="53.385848" lon="-1.611874"><ele>285</ele><time>2020-05-21T11:34:12Z</time><name>PT6066</name></trkpt>
<trkpt lat="53.385846" lon="-1.611861"><ele>285</ele><time>2020-05-21T11:34:13Z</time><name>PT6067</name></trkpt>
<trkpt lat="53.385859" lon="-1.611850"><ele>285</ele><time>2020-05-21T11:34:15Z</time><name>PT6068</name></trkpt>
<trkpt lat="53.385873" lon="-1.611837"><ele>285</ele><time>2020-05-21T11:34:15Z</time><name>PT6069</name></trkpt>
<trkpt lat="53.385880" lon="-1.611820"><ele>284</ele><time>2020-05-21T11:34:16Z</time><name>PT6070</name></trkpt>
<trkpt lat="53.385885" lon="-1.611803"><ele>284</ele><time>2020-05-21T11:34:18Z</time><name>PT6071</name></trkpt>
<trkpt lat="53.385895" lon="-1.611784"><ele>283</ele><time>2020-05-21T11:34:18Z</time><name>PT6072</name></trkpt>
<trkpt lat="53.385908" lon="-1.611770"><ele>283</ele><time>2020-05-21T11:34:19Z</time><name>PT6073</name></trkpt>
<trkpt lat="53.385922" lon="-1.611756"><ele>283</ele><time>2020-05-21T11:34:21Z</time><name>PT6074</name></trkpt>
<trkpt lat="53.385937" lon="-1.611746"><ele>283</ele><time>2020-05-21T11:34:21Z</time><name>PT6075</name></trkpt>
<trkpt lat="53.385945" lon="-1.611740"><ele>283</ele><time>2020-05-21T11:34:22Z</time><name>PT6076</name></trkpt>
<trkpt lat="53.385953" lon="-1.611737"><ele>283</ele><time>2020-05-21T11:34:24Z</time><name>PT6077</name></trkpt>
<trkpt lat="53.385967" lon="-1.611729"><ele>283</ele><time>2020-05-21T11:34:24Z</time><name>PT6078</name></trkpt>
<trkpt lat="53.385980" lon="-1.611720"><ele>283</ele><time>2020-05-21T11:34:25Z</time><name>PT6079</name></trkpt>
<trkpt lat="53.385994" lon="-1.611709"><ele>283</ele><time>2020-05-21T11:34:27Z</time><name>PT6080</name></trkpt>
<trkpt lat="53.386003" lon="-1.611703"><ele>283</ele><time>2020-05-21T11:34:27Z</time><name>PT6081</name></trkpt>
<trkpt lat="53.386010" lon="-1.611694"><ele>284</ele><time>2020-05-21T11:34:28Z</time><name>PT6082</name></trkpt>
<trkpt lat="53.386021" lon="-1.611689"><ele>284</ele><time>2020-05-21T11:34:30Z</time><name>PT6083</name></trkpt>
<trkpt lat="53.386036" lon="-1.611686"><ele>283</ele><time>2020-05-21T11:34:30Z</time><name>PT6084</name></trkpt>
<trkpt lat="53.386049" lon="-1.611675"><ele>283</ele><time>2020-05-21T11:34:31Z</time><name>PT6085</name></trkpt>
<trkpt lat="53.386059" lon="-1.611668"><ele>283</ele><time>2020-05-21T11:34:33Z</time><name>PT6086</name></trkpt>
<trkpt lat="53.386064" lon="-1.611665"><ele>283</ele><time>2020-05-21T11:34:33Z</time><name>PT6087</name></trkpt>
<trkpt lat="53.386072" lon="-1.611656"><ele>283</ele><time>2020-05-21T11:34:34Z</time><name>PT6088</name></trkpt>
<trkpt lat="53.386082" lon="-1.611646"><ele>283</ele><time>2020-05-21T11:34:36Z</time><name>PT6089</name></trkpt>
<trkpt lat="53.386094" lon="-1.611633"><ele>284</ele><time>2020-05-21T11:34:36Z</time><name>PT6090</name></trkpt>
<trkpt lat="53.386101" lon="-1.611619"><ele>284</ele><time>2020-05-21T11:34:37Z</time><name>PT6091</name></trkpt>
<trkpt lat="53.386109" lon="-1.611609"><ele>283</ele><time>2020-05-21T11:34:39Z</time><name>PT6092</name></trkpt>
<trkpt lat="53.386117" lon="-1.611603"><ele>283</ele><time>2020-05-21T11:34:39Z</time><name>PT6093</name></trkpt>
<trkpt lat="53.386128" lon="-1.611597"><ele>284</ele><time>2020-05-21T11:34:40Z</time><name>PT6094</name></trkpt>
<trkpt lat="53.386138" lon="-1.611582"><ele>285</ele><time>2020-05-21T11:34:42Z</time><name>PT6095</name></trkpt>
<trkpt lat="53.386152" lon="-1.611566"><ele>286</ele><time>2020-05-21T11:34:42Z</time><name>PT6096</name></trkpt>
<trkpt lat="53.386163" lon="-1.611553"><ele>286</ele><time>2020-05-21T11:34:43Z</time><name>PT6097</name></trkpt>
<trkpt lat="53.386172" lon="-1.611545"><ele>285</ele><time>2020-05-21T11:34:45Z</time><name>PT6098</name></trkpt>
<trkpt lat="53.386178" lon="-1.611538"><ele>285</ele><time>2020-05-21T11:34:45Z</time><name>PT6099</name></trkpt>
<trkpt lat="53.386188" lon="-1.611527"><ele>285</ele><time>2020-05-21T11:34:46Z</time><name>PT6100</name></trkpt>
<trkpt lat="53.386201" lon="-1.611511"><ele>285</ele><time>2020-05-21T11:34:48Z</time><name>PT6101</name></trkpt>
<trkpt lat="53.386212" lon="-1.611494"><ele>285</ele><time>2020-05-21T11:34:48Z</time><name>PT6102</name></trkpt>
<trkpt lat="53.386218" lon="-1.611486"><ele>286</ele><time>2020-05-21T11:34:49Z</time><name>PT6103</name></trkpt>
<trkpt lat="53.386226" lon="-1.611483"><ele>286</ele><time>2020-05-21T11:34:51Z</time><name>PT6104</name></trkpt>
<trkpt lat="53.386237" lon="-1.611477"><ele>286</ele><time>2020-05-21T11:34:51Z</time><name>PT6105</name></trkpt>
<trkpt lat="53.386247" lon="-1.611465"><ele>287</ele><time>2020-05-21T11:34:52Z</time><name>PT6106</name></trkpt>
<trkpt lat="53.386259" lon="-1.611450"><ele>287</ele><time>2020-05-21T11:34:54Z</time><name>PT6107</name></trkpt>
<trkpt lat="53.386269" lon="-1.611440"><ele>287</ele><time>2020-05-21T11:34:54Z</time><name>PT6108</name></trkpt>
<trkpt lat="53.386276" lon="-1.611431"><ele>287</ele><time>2020-05-21T11:34:55Z</time><name>PT6109</name></trkpt>
<trkpt lat="53.386286" lon="-1.611425"><ele>286</ele><time>2020-05-21T11:34:57Z</time><name>PT6110</name></trkpt>
<trkpt lat="53.386295" lon="-1.611413"><ele>286</ele><time>2020-05-21T11:34:57Z</time><name>PT6111</name></trkpt>
<trkpt lat="53.386305" lon="-1.611397"><ele>287</ele><time>2020-05-21T11:34:58Z</time><name>PT6112</name></trkpt>
<trkpt lat="53.386312" lon="-1.611387"><ele>287</ele><time>2020-05-21T11:35:00Z</time><name>PT6113</name></trkpt>
<trkpt lat="53.386319" lon="-1.611382"><ele>287</ele><time>2020-05-21T11:35:00Z</time><name>PT6114</name></trkpt>
<trkpt lat="53.386325" lon="-1.611370"><ele>287</ele><time>2020-05-21T11:35:01Z</time><name>PT6115</name></trkpt>
<trkpt lat="53.386335" lon="-1.611355"><ele>287</ele><time>2020-05-21T11:35:03Z</time><name>PT6116</name></trkpt>
<trkpt lat="53.386345" lon="-1.611340"><ele>287</ele><time>2020-05-21T11:35:03Z</time><name>PT6117</name></trkpt>
<trkpt lat="53.386352" lon="-1.611332"><ele>287</ele><time>2020-05-21T11:35:04Z</time><name>PT6118</name></trkpt>
<trkpt lat="53.386357" lon="-1.611321"><ele>287</ele><time>2020-05-21T11:35:06Z</time><name>PT6119</name></trkpt>
<trkpt lat="53.386367" lon="-1.611311"><ele>287</ele><time>2020-05-21T11:35:06Z</time><name>PT6120</name></trkpt>
<trkpt lat="53.386378" lon="-1.611294"><ele>288</ele><time>2020-05-21T11:35:07Z</time><name>PT6121</name></trkpt>
<trkpt lat="53.386389" lon="-1.611279"><ele>288</ele><time>2020-05-21T11:35:09Z</time><name>PT6122</name></trkpt>
<trkpt lat="53.386397" lon="-1.611273"><ele>288</ele><time>2020-05-21T11:35:09Z</time><name>PT6123</name></trkpt>
<trkpt lat="53.386403" lon="-1.611264"><ele>288</ele><time>2020-05-21T11:35:10Z</time><name>PT6124</name></trkpt>
<trkpt lat="53.386411" lon="-1.611251"><ele>288</ele><time>2020-05-21T11:35:12Z</time><name>PT6125</name></trkpt>
<trkpt lat="53.386419" lon="-1.611234"><ele>288</ele><time>2020-05-21T11:35:12Z</time><name>PT6126</name></trkpt>
<trkpt lat="53.386429" lon="-1.611219"><ele>289</ele><time>2020-05-21T11:35:13Z</time><name>PT6127</name></trkpt>
<trkpt lat="53.386435" lon="-1.611209"><ele>289</ele><time>2020-05-21T11:35:15Z</time><name>PT6128</name></trkpt>
<trkpt lat="53.386442" lon="-1.611198"><ele>288</ele><time>2020-05-21T11:35:15Z</time><name>PT6129</name></trkpt>
<trkpt lat="53.386449" lon="-1.611186"><ele>288</ele><time>2020-05-21T11:35:16Z</time><name>PT6130</name></trkpt>
<trkpt lat="53.386460" lon="-1.611172"><ele>289</ele><time>2020-05-21T11:35:18Z</time><name>PT6131</name></trkpt>
<trkpt lat="53.386467" lon="-1.611163"><ele>289</ele><time>2020-05-21T11:35:18Z</time><name>PT6132</name></trkpt>
<trkpt lat="53.386472" lon="-1.611155"><ele>289</ele><time>2020-05-21T11:35:19Z</time><name>PT6133</name></trkpt>
<trkpt lat="53.386479" lon="-1.611145"><ele>289</ele><time>2020-05-21T11:35:21Z</time><name>PT6134</name></trkpt>
<trkpt lat="53.386490" lon="-1.611129"><ele>290</ele><time>2020-05-21T11:35:21Z</time><name>PT6135</name></trkpt>
<trkpt lat="53.386497" lon="-1.611117"><ele>290</ele><time>2020-05-21T11:35:22Z</time><name>PT6136</name></trkpt>
<trkpt lat="53.386504" lon="-1.611110"><ele>290</ele><time>2020-05-21T11:35:24Z</time><name>PT6137</name></trkpt>
<trkpt lat="53.386512" lon="-1.611099"><ele>289</ele><time>2020-05-21T11:35:24Z</time><name>PT6138</name></trkpt>
<trkpt lat="53.386523" lon="-1.611088"><ele>290</ele><time>2020-05-21T11:35:25Z</time><name>PT6139</name></trkpt>
<trkpt lat="53.386536" lon="-1.611076"><ele>290</ele><time>2020-05-21T11:35:27Z</time><name>PT6140</name></trkpt>
<trkpt lat="53.386543" lon="-1.611073"><ele>290</ele><time>2020-05-21T11:35:27Z</time><name>PT6141</name></trkpt>
<trkpt lat="53.386550" lon="-1.611064"><ele>290</ele><time>2020-05-21T11:35:28Z</time><name>PT6142</name></trkpt>
<trkpt lat="53.386560" lon="-1.611054"><ele>290</ele><time>2020-05-21T11:35:30Z</time><name>PT6143</name></trkpt>
<trkpt lat="53.386569" lon="-1.611039"><ele>290</ele><time>2020-05-21T11:35:30Z</time><name>PT6144</name></trkpt>
<trkpt lat="53.386581" lon="-1.611024"><ele>290</ele><time>2020-05-21T11:35:31Z</time><name>PT6145</name></trkpt>
<trkpt lat="53.386586" lon="-1.611005"><ele>290</ele><time>2020-05-21T11:35:33Z</time><name>PT6146</name></trkpt>
<trkpt lat="53.386593" lon="-1.611001"><ele>290</ele><time>2020-05-21T11:35:33Z</time><name>PT6147</name></trkpt>
<trkpt lat="53.386603" lon="-1.610994"><ele>290</ele><time>2020-05-21T11:35:34Z</time><name>PT6148</name></trkpt>
<trkpt lat="53.386615" lon="-1.610979"><ele>290</ele><time>2020-05-21T11:35:36Z</time><name>PT6149</name></trkpt>
<trkpt lat="53.386624" lon="-1.610962"><ele>290</ele><time>2020-05-21T11:35:36Z</time><name>PT6150</name></trkpt>
<trkpt lat="53.386630" lon="-1.610954"><ele>290</ele><time>2020-05-21T11:35:37Z</time><name>PT6151</name></trkpt>
<trkpt lat="53.386636" lon="-1.610942"><ele>289</ele><time>2020-05-21T11:35:39Z</time><name>PT6152</name></trkpt>
<trkpt lat="53.386642" lon="-1.610927"><ele>289</ele><time>2020-05-21T11:35:39Z</time><name>PT6153</name></trkpt>
<trkpt lat="53.386650" lon="-1.610912"><ele>290</ele><time>2020-05-21T11:35:40Z</time><name>PT6154</name></trkpt>
<trkpt lat="53.386657" lon="-1.610898"><ele>290</ele><time>2020-05-21T11:35:42Z</time><name>PT6155</name></trkpt>
<trkpt lat="53.386661" lon="-1.610889"><ele>290</ele><time>2020-05-21T11:35:42Z</time><name>PT6156</name></trkpt>
<trkpt lat="53.386662" lon="-1.610882"><ele>291</ele><time>2020-05-21T11:35:43Z</time><name>PT6157</name></trkpt>
<trkpt lat="53.386665" lon="-1.610879"><ele>291</ele><time>2020-05-21T11:35:45Z</time><name>PT6158</name></trkpt>
<trkpt lat="53.386666" lon="-1.610880"><ele>291</ele><time>2020-05-21T11:35:45Z</time><name>PT6159</name></trkpt>
<trkpt lat="53.386669" lon="-1.610879"><ele>290</ele><time>2020-05-21T11:35:46Z</time><name>PT6160</name></trkpt>
<trkpt lat="53.386670" lon="-1.610881"><ele>290</ele><time>2020-05-21T11:35:48Z</time><name>PT6161</name></trkpt>
<trkpt lat="53.386672" lon="-1.610881"><ele>290</ele><time>2020-05-21T11:35:48Z</time><name>PT6162</name></trkpt>
<trkpt lat="53.386674" lon="-1.610880"><ele>290</ele><time>2020-05-21T11:35:49Z</time><name>PT6163</name></trkpt>
<trkpt lat="53.386672" lon="-1.610871"><ele>290</ele><time>2020-05-21T11:35:51Z</time><name>PT6164</name></trkpt>
<trkpt lat="53.386672" lon="-1.610866"><ele>291</ele><time>2020-05-21T11:35:51Z</time><name>PT6165</name></trkpt>
<trkpt lat="53.386676" lon="-1.610864"><ele>291</ele><time>2020-05-21T11:35:52Z</time><name>PT6166</name></trkpt>
<trkpt lat="53.386678" lon="-1.610864"><ele>291</ele><time>2020-05-21T11:35:54Z</time><name>PT6167</name></trkpt>
<trkpt lat="53.386685" lon="-1.610862"><ele>291</ele><time>2020-05-21T11:35:54Z</time><name>PT6168</name></trkpt>
<trkpt lat="53.386698" lon="-1.610859"><ele>292</ele><time>2020-05-21T11:35:55Z</time><name>PT6169</name></trkpt>
<trkpt lat="53.386713" lon="-1.610850"><ele>292</ele><time>2020-05-21T11:35:57Z</time><name>PT6170</name></trkpt>
<trkpt lat="53.386727" lon="-1.610834"><ele>292</ele><time>2020-05-21T11:35:57Z</time><name>PT6171</name></trkpt>
<trkpt lat="53.386740" lon="-1.610825"><ele>292</ele><time>2020-05-21T11:35:58Z</time><name>PT6172</name></trkpt>
<trkpt lat="53.386748" lon="-1.610822"><ele>292</ele><time>2020-05-21T11:36:00Z</time><name>PT6173</name></trkpt>
<trkpt lat="53.386755" lon="-1.610815"><ele>292</ele><time>2020-05-21T11:36:00Z</time><name>PT6174</name></trkpt>
<trkpt lat="53.386764" lon="-1.610805"><ele>293</ele><time>2020-05-21T11:36:01Z</time><name>PT6175</name></trkpt>
<trkpt lat="53.386777" lon="-1.610794"><ele>293</ele><time>2020-05-21T11:36:03Z</time><name>PT6176</name></trkpt>
<trkpt lat="53.386794" lon="-1.610786"><ele>294</ele><time>2020-05-21T11:36:03Z</time><name>PT6177</name></trkpt>
<trkpt lat="53.386805" lon="-1.610783"><ele>294</ele><time>2020-05-21T11:36:04Z</time><name>PT6178</name></trkpt>
<trkpt lat="53.386813" lon="-1.610777"><ele>294</ele><time>2020-05-21T11:36:06Z</time><name>PT6179</name></trkpt>
<trkpt lat="53.386823" lon="-1.610768"><ele>294</ele><time>2020-05-21T11:36:06Z</time><name>PT6180</name></trkpt>
<trkpt lat="53.386837" lon="-1.610755"><ele>294</ele><time>2020-05-21T11:36:07Z</time><name>PT6181</name></trkpt>
<trkpt lat="53.386851" lon="-1.610748"><ele>294</ele><time>2020-05-21T11:36:09Z</time><name>PT6182</name></trkpt>
<trkpt lat="53.386862" lon="-1.610745"><ele>293</ele><time>2020-05-21T11:36:09Z</time><name>PT6183</name></trkpt>
<trkpt lat="53.386868" lon="-1.610744"><ele>294</ele><time>2020-05-21T11:36:10Z</time><name>PT6184</name></trkpt>
<trkpt lat="53.386879" lon="-1.610739"><ele>294</ele><time>2020-05-21T11:36:12Z</time><name>PT6185</name></trkpt>
<trkpt lat="53.386890" lon="-1.610730"><ele>294</ele><time>2020-05-21T11:36:12Z</time><name>PT6186</name></trkpt>
<trkpt lat="53.386902" lon="-1.610722"><ele>295</ele><time>2020-05-21T11:36:13Z</time><name>PT6187</name></trkpt>
<trkpt lat="53.386916" lon="-1.610713"><ele>295</ele><time>2020-05-21T11:36:15Z</time><name>PT6188</name></trkpt>
<trkpt lat="53.386923" lon="-1.610709"><ele>295</ele><time>2020-05-21T11:36:15Z</time><name>PT6189</name></trkpt>
<trkpt lat="53.386934" lon="-1.610712"><ele>296</ele><time>2020-05-21T11:36:16Z</time><name>PT6190</name></trkpt>
<trkpt lat="53.386947" lon="-1.610718"><ele>297</ele><time>2020-05-21T11:36:18Z</time><name>PT6191</name></trkpt>
<trkpt lat="53.386961" lon="-1.610715"><ele>297</ele><time>2020-05-21T11:36:18Z</time><name>PT6192</name></trkpt>
<trkpt lat="53.386974" lon="-1.610717"><ele>297</ele><time>2020-05-21T11:36:19Z</time><name>PT6193</name></trkpt>
<trkpt lat="53.386983" lon="-1.610714"><ele>297</ele><time>2020-05-21T11:36:21Z</time><name>PT6194</name></trkpt>
<trkpt lat="53.386993" lon="-1.610706"><ele>298</ele><time>2020-05-21T11:36:21Z</time><name>PT6195</name></trkpt>
<trkpt lat="53.387003" lon="-1.610699"><ele>298</ele><time>2020-05-21T11:36:22Z</time><name>PT6196</name></trkpt>
<trkpt lat="53.387014" lon="-1.610692"><ele>298</ele><time>2020-05-21T11:36:24Z</time><name>PT6197</name></trkpt>
<trkpt lat="53.387024" lon="-1.610686"><ele>298</ele><time>2020-05-21T11:36:24Z</time><name>PT6198</name></trkpt>
<trkpt lat="53.387035" lon="-1.610683"><ele>298</ele><time>2020-05-21T11:36:25Z</time><name>PT6199</name></trkpt>
<trkpt lat="53.387045" lon="-1.610678"><ele>299</ele><time>2020-05-21T11:36:27Z</time><name>PT6200</name></trkpt>
<trkpt lat="53.387056" lon="-1.610670"><ele>298</ele><time>2020-05-21T11:36:27Z</time><name>PT6201</name></trkpt>
<trkpt lat="53.387064" lon="-1.610660"><ele>298</ele><time>2020-05-21T11:36:28Z</time><name>PT6202</name></trkpt>
<trkpt lat="53.387073" lon="-1.610650"><ele>298</ele><time>2020-05-21T11:36:30Z</time><name>PT6203</name></trkpt>
<trkpt lat="53.387082" lon="-1.610640"><ele>298</ele><time>2020-05-21T11:36:30Z</time><name>PT6204</name></trkpt>
<trkpt lat="53.387091" lon="-1.610631"><ele>298</ele><time>2020-05-21T11:36:31Z</time><name>PT6205</name></trkpt>
<trkpt lat="53.387101" lon="-1.610617"><ele>298</ele><time>2020-05-21T11:36:33Z</time><name>PT6206</name></trkpt>
<trkpt lat="53.387109" lon="-1.610607"><ele>299</ele><time>2020-05-21T11:36:33Z</time><name>PT6207</name></trkpt>
<trkpt lat="53.387120" lon="-1.610600"><ele>300</ele><time>2020-05-21T11:36:34Z</time><name>PT6208</name></trkpt>
<trkpt lat="53.387131" lon="-1.610595"><ele>299</ele><time>2020-05-21T11:36:36Z</time><name>PT6209</name></trkpt>
<trkpt lat="53.387138" lon="-1.610591"><ele>299</ele><time>2020-05-21T11:36:36Z</time><name>PT6210</name></trkpt>
<trkpt lat="53.387146" lon="-1.610584"><ele>299</ele><time>2020-05-21T11:36:37Z</time><name>PT6211</name></trkpt>
<trkpt lat="53.387154" lon="-1.610580"><ele>299</ele><time>2020-05-21T11:36:39Z</time><name>PT6212</name></trkpt>
<trkpt lat="53.387165" lon="-1.610569"><ele>300</ele><time>2020-05-21T11:36:39Z</time><name>PT6213</name></trkpt>
<trkpt lat="53.387178" lon="-1.610560"><ele>299</ele><time>2020-05-21T11:36:40Z</time><name>PT6214</name></trkpt>
<trkpt lat="53.387185" lon="-1.610554"><ele>299</ele><time>2020-05-21T11:36:42Z</time><name>PT6215</name></trkpt>
<trkpt lat="53.387194" lon="-1.610548"><ele>299</ele><time>2020-05-21T11:36:42Z</time><name>PT6216</name></trkpt>
<trkpt lat="53.387204" lon="-1.610539"><ele>299</ele><time>2020-05-21T11:36:43Z</time><name>PT6217</name></trkpt>
<trkpt lat="53.387214" lon="-1.610531"><ele>299</ele><time>2020-05-21T11:36:45Z</time><name>PT6218</name></trkpt>
<trkpt lat="53.387228" lon="-1.610527"><ele>299</ele><time>2020-05-21T11:36:45Z</time><name>PT6219</name></trkpt>
<trkpt lat="53.387238" lon="-1.610525"><ele>299</ele><time>2020-05-21T11:36:46Z</time><name>PT6220</name></trkpt>
<trkpt lat="53.387246" lon="-1.610521"><ele>299</ele><time>2020-05-21T11:36:48Z</time><name>PT6221</name></trkpt>
<trkpt lat="53.387253" lon="-1.610509"><ele>299</ele><time>2020-05-21T11:36:48Z</time><name>PT6222</name></trkpt>
<trkpt lat="53.387264" lon="-1.610504"><ele>300</ele><time>2020-05-21T11:36:50Z</time><name>PT6223</name></trkpt>
<trkpt lat="53.387277" lon="-1.610494"><ele>300</ele><time>2020-05-21T11:36:51Z</time><name>PT6224</name></trkpt>
<trkpt lat="53.387287" lon="-1.610485"><ele>300</ele><time>2020-05-21T11:36:51Z</time><name>PT6225</name></trkpt>
<trkpt lat="53.387295" lon="-1.610475"><ele>300</ele><time>2020-05-21T11:36:52Z</time><name>PT6226</name></trkpt>
<trkpt lat="53.387304" lon="-1.610462"><ele>300</ele><time>2020-05-21T11:36:54Z</time><name>PT6227</name></trkpt>
<trkpt lat="53.387314" lon="-1.610456"><ele>301</ele><time>2020-05-21T11:36:54Z</time><name>PT6228</name></trkpt>
<trkpt lat="53.387326" lon="-1.610452"><ele>301</ele><time>2020-05-21T11:36:55Z</time><name>PT6229</name></trkpt>
<trkpt lat="53.387340" lon="-1.610446"><ele>300</ele><time>2020-05-21T11:36:57Z</time><name>PT6230</name></trkpt>
<trkpt lat="53.387348" lon="-1.610441"><ele>300</ele><time>2020-05-21T11:36:57Z</time><name>PT6231</name></trkpt>
<trkpt lat="53.387354" lon="-1.610436"><ele>300</ele><time>2020-05-21T11:36:58Z</time><name>PT6232</name></trkpt>
<trkpt lat="53.387365" lon="-1.610427"><ele>300</ele><time>2020-05-21T11:37:00Z</time><name>PT6233</name></trkpt>
<trkpt lat="53.387377" lon="-1.610425"><ele>300</ele><time>2020-05-21T11:37:00Z</time><name>PT6234</name></trkpt>
<trkpt lat="53.387388" lon="-1.610420"><ele>300</ele><time>2020-05-21T11:37:01Z</time><name>PT6235</name></trkpt>
<trkpt lat="53.387401" lon="-1.610416"><ele>301</ele><time>2020-05-21T11:37:03Z</time><name>PT6236</name></trkpt>
<trkpt lat="53.387410" lon="-1.610403"><ele>300</ele><time>2020-05-21T11:37:03Z</time><name>PT6237</name></trkpt>
<trkpt lat="53.387418" lon="-1.610397"><ele>300</ele><time>2020-05-21T11:37:04Z</time><name>PT6238</name></trkpt>
<trkpt lat="53.387428" lon="-1.610393"><ele>300</ele><time>2020-05-21T11:37:06Z</time><name>PT6239</name></trkpt>
<trkpt lat="53.387438" lon="-1.610389"><ele>301</ele><time>2020-05-21T11:37:06Z</time><name>PT6240</name></trkpt>
<trkpt lat="53.387450" lon="-1.610382"><ele>301</ele><time>2020-05-21T11:37:07Z</time><name>PT6241</name></trkpt>
<trkpt lat="53.387458" lon="-1.610376"><ele>301</ele><time>2020-05-21T11:37:09Z</time><name>PT6242</name></trkpt>
<trkpt lat="53.387468" lon="-1.610384"><ele>301</ele><time>2020-05-21T11:37:09Z</time><name>PT6243</name></trkpt>
<trkpt lat="53.387478" lon="-1.610375"><ele>301</ele><time>2020-05-21T11:37:10Z</time><name>PT6244</name></trkpt>
<trkpt lat="53.387490" lon="-1.610361"><ele>301</ele><time>2020-05-21T11:37:12Z</time><name>PT6245</name></trkpt>
<trkpt lat="53.387501" lon="-1.610347"><ele>302</ele><time>2020-05-21T11:37:12Z</time><name>PT6246</name></trkpt>
<trkpt lat="53.387508" lon="-1.610336"><ele>302</ele><time>2020-05-21T11:37:13Z</time><name>PT6247</name></trkpt>
<trkpt lat="53.387513" lon="-1.610317"><ele>302</ele><time>2020-05-21T11:37:15Z</time><name>PT6248</name></trkpt>
<trkpt lat="53.387523" lon="-1.610310"><ele>302</ele><time>2020-05-21T11:37:15Z</time><name>PT6249</name></trkpt>
<trkpt lat="53.387535" lon="-1.610304"><ele>303</ele><time>2020-05-21T11:37:16Z</time><name>PT6250</name></trkpt>
<trkpt lat="53.387547" lon="-1.610296"><ele>303</ele><time>2020-05-21T11:37:18Z</time><name>PT6251</name></trkpt>
<trkpt lat="53.387555" lon="-1.610290"><ele>302</ele><time>2020-05-21T11:37:18Z</time><name>PT6252</name></trkpt>
<trkpt lat="53.387563" lon="-1.610284"><ele>303</ele><time>2020-05-21T11:37:19Z</time><name>PT6253</name></trkpt>
<trkpt lat="53.387571" lon="-1.610276"><ele>303</ele><time>2020-05-21T11:37:21Z</time><name>PT6254</name></trkpt>
<trkpt lat="53.387578" lon="-1.610266"><ele>303</ele><time>2020-05-21T11:37:21Z</time><name>PT6255</name></trkpt>
<trkpt lat="53.387589" lon="-1.610253"><ele>304</ele><time>2020-05-21T11:37:22Z</time><name>PT6256</name></trkpt>
<trkpt lat="53.387598" lon="-1.610242"><ele>304</ele><time>2020-05-21T11:37:24Z</time><name>PT6257</name></trkpt>
<trkpt lat="53.387604" lon="-1.610238"><ele>304</ele><time>2020-05-21T11:37:24Z</time><name>PT6258</name></trkpt>
<trkpt lat="53.387611" lon="-1.610232"><ele>304</ele><time>2020-05-21T11:37:25Z</time><name>PT6259</name></trkpt>
<trkpt lat="53.387622" lon="-1.610226"><ele>305</ele><time>2020-05-21T11:37:27Z</time><name>PT6260</name></trkpt>
<trkpt lat="53.387633" lon="-1.610218"><ele>305</ele><time>2020-05-21T11:37:27Z</time><name>PT6261</name></trkpt>
<trkpt lat="53.387644" lon="-1.610211"><ele>306</ele><time>2020-05-21T11:37:28Z</time><name>PT6262</name></trkpt>
<trkpt lat="53.387655" lon="-1.610206"><ele>306</ele><time>2020-05-21T11:37:30Z</time><name>PT6263</name></trkpt>
<trkpt lat="53.387662" lon="-1.610197"><ele>306</ele><time>2020-05-21T11:37:30Z</time><name>PT6264</name></trkpt>
<trkpt lat="53.387670" lon="-1.610185"><ele>306</ele><time>2020-05-21T11:37:31Z</time><name>PT6265</name></trkpt>
<trkpt lat="53.387678" lon="-1.610179"><ele>306</ele><time>2020-05-21T11:37:33Z</time><name>PT6266</name></trkpt>
<trkpt lat="53.387693" lon="-1.610173"><ele>307</ele><time>2020-05-21T11:37:33Z</time><name>PT6267</name></trkpt>
<trkpt lat="53.387705" lon="-1.610164"><ele>307</ele><time>2020-05-21T11:37:34Z</time><name>PT6268</name></trkpt>
<trkpt lat="53.387715" lon="-1.610158"><ele>307</ele><time>2020-05-21T11:37:36Z</time><name>PT6269</name></trkpt>
<trkpt lat="53.387721" lon="-1.610153"><ele>307</ele><time>2020-05-21T11:37:36Z</time><name>PT6270</name></trkpt>
<trkpt lat="53.387729" lon="-1.610145"><ele>307</ele><time>2020-05-21T11:37:37Z</time><name>PT6271</name></trkpt>
<trkpt lat="53.387736" lon="-1.610135"><ele>307</ele><time>2020-05-21T11:37:39Z</time><name>PT6272</name></trkpt>
<trkpt lat="53.387746" lon="-1.610125"><ele>307</ele><time>2020-05-21T11:37:39Z</time><name>PT6273</name></trkpt>
<trkpt lat="53.387754" lon="-1.610117"><ele>307</ele><time>2020-05-21T11:37:40Z</time><name>PT6274</name></trkpt>
<trkpt lat="53.387760" lon="-1.610108"><ele>306</ele><time>2020-05-21T11:37:42Z</time><name>PT6275</name></trkpt>
<trkpt lat="53.387770" lon="-1.610099"><ele>306</ele><time>2020-05-21T11:37:42Z</time><name>PT6276</name></trkpt>
<trkpt lat="53.387782" lon="-1.610092"><ele>307</ele><time>2020-05-21T11:37:43Z</time><name>PT6277</name></trkpt>
<trkpt lat="53.387793" lon="-1.610087"><ele>307</ele><time>2020-05-21T11:37:45Z</time><name>PT6278</name></trkpt>
<trkpt lat="53.387802" lon="-1.610080"><ele>307</ele><time>2020-05-21T11:37:45Z</time><name>PT6279</name></trkpt>
<trkpt lat="53.387810" lon="-1.610072"><ele>307</ele><time>2020-05-21T11:37:46Z</time><name>PT6280</name></trkpt>
<trkpt lat="53.387817" lon="-1.610061"><ele>307</ele><time>2020-05-21T11:37:48Z</time><name>PT6281</name></trkpt>
<trkpt lat="53.387826" lon="-1.610056"><ele>307</ele><time>2020-05-21T11:37:48Z</time><name>PT6282</name></trkpt>
<trkpt lat="53.387836" lon="-1.610048"><ele>308</ele><time>2020-05-21T11:37:49Z</time><name>PT6283</name></trkpt>
<trkpt lat="53.387846" lon="-1.610042"><ele>308</ele><time>2020-05-21T11:37:51Z</time><name>PT6284</name></trkpt>
<trkpt lat="53.387850" lon="-1.610039"><ele>308</ele><time>2020-05-21T11:37:51Z</time><name>PT6285</name></trkpt>
<trkpt lat="53.387851" lon="-1.610035"><ele>308</ele><time>2020-05-21T11:37:52Z</time><name>PT6286</name></trkpt>
<trkpt lat="53.387855" lon="-1.610033"><ele>308</ele><time>2020-05-21T11:37:54Z</time><name>PT6287</name></trkpt>
<trkpt lat="53.387856" lon="-1.610034"><ele>307</ele><time>2020-05-21T11:37:54Z</time><name>PT6288</name></trkpt>
<trkpt lat="53.387856" lon="-1.610031"><ele>308</ele><time>2020-05-21T11:37:55Z</time><name>PT6289</name></trkpt>
<trkpt lat="53.387857" lon="-1.610029"><ele>308</ele><time>2020-05-21T11:37:57Z</time><name>PT6290</name></trkpt>
<trkpt lat="53.387858" lon="-1.610027"><ele>308</ele><time>2020-05-21T11:37:57Z</time><name>PT6291</name></trkpt>
<trkpt lat="53.387858" lon="-1.610022"><ele>309</ele><time>2020-05-21T11:37:58Z</time><name>PT6292</name></trkpt>
<trkpt lat="53.387858" lon="-1.610017"><ele>309</ele><time>2020-05-21T11:38:00Z</time><name>PT6293</name></trkpt>
<trkpt lat="53.387858" lon="-1.610010"><ele>309</ele><time>2020-05-21T11:38:00Z</time><name>PT6294</name></trkpt>
<trkpt lat="53.387860" lon="-1.610012"><ele>309</ele><time>2020-05-21T11:38:01Z</time><name>PT6295</name></trkpt>
<trkpt lat="53.387862" lon="-1.610016"><ele>309</ele><time>2020-05-21T11:38:06Z</time><name>PT6296</name></trkpt>
<trkpt lat="53.387868" lon="-1.610011"><ele>309</ele><time>2020-05-21T11:38:07Z</time><name>PT6297</name></trkpt>
<trkpt lat="53.387876" lon="-1.610004"><ele>310</ele><time>2020-05-21T11:38:09Z</time><name>PT6298</name></trkpt>
<trkpt lat="53.387876" lon="-1.610002"><ele>310</ele><time>2020-05-21T11:38:09Z</time><name>PT6299</name></trkpt>
<trkpt lat="53.387877" lon="-1.610000"><ele>310</ele><time>2020-05-21T11:38:10Z</time><name>PT6300</name></trkpt>
<trkpt lat="53.387889" lon="-1.609997"><ele>310</ele><time>2020-05-21T11:38:12Z</time><name>PT6301</name></trkpt>
<trkpt lat="53.387901" lon="-1.609998"><ele>310</ele><time>2020-05-21T11:38:12Z</time><name>PT6302</name></trkpt>
<trkpt lat="53.387908" lon="-1.609998"><ele>310</ele><time>2020-05-21T11:38:13Z</time><name>PT6303</name></trkpt>
<trkpt lat="53.387911" lon="-1.609991"><ele>310</ele><time>2020-05-21T11:38:15Z</time><name>PT6304</name></trkpt>
<trkpt lat="53.387920" lon="-1.609995"><ele>311</ele><time>2020-05-21T11:38:15Z</time><name>PT6305</name></trkpt>
<trkpt lat="53.387929" lon="-1.609996"><ele>311</ele><time>2020-05-21T11:38:16Z</time><name>PT6306</name></trkpt>
<trkpt lat="53.387942" lon="-1.609994"><ele>311</ele><time>2020-05-21T11:38:18Z</time><name>PT6307</name></trkpt>
<trkpt lat="53.387951" lon="-1.609996"><ele>311</ele><time>2020-05-21T11:38:18Z</time><name>PT6308</name></trkpt>
<trkpt lat="53.387957" lon="-1.609999"><ele>312</ele><time>2020-05-21T11:38:19Z</time><name>PT6309</name></trkpt>
<trkpt lat="53.387965" lon="-1.609998"><ele>312</ele><time>2020-05-21T11:38:21Z</time><name>PT6310</name></trkpt>
<trkpt lat="53.387976" lon="-1.609999"><ele>313</ele><time>2020-05-21T11:38:21Z</time><name>PT6311</name></trkpt>
<trkpt lat="53.387987" lon="-1.609998"><ele>313</ele><time>2020-05-21T11:38:22Z</time><name>PT6312</name></trkpt>
<trkpt lat="53.387996" lon="-1.609994"><ele>313</ele><time>2020-05-21T11:38:24Z</time><name>PT6313</name></trkpt>
<trkpt lat="53.388002" lon="-1.609999"><ele>314</ele><time>2020-05-21T11:38:24Z</time><name>PT6314</name></trkpt>
<trkpt lat="53.388011" lon="-1.609997"><ele>313</ele><time>2020-05-21T11:38:25Z</time><name>PT6315</name></trkpt>
<trkpt lat="53.388021" lon="-1.609989"><ele>314</ele><time>2020-05-21T11:38:27Z</time><name>PT6316</name></trkpt>
<trkpt lat="53.388029" lon="-1.609984"><ele>314</ele><time>2020-05-21T11:38:27Z</time><name>PT6317</name></trkpt>
<trkpt lat="53.388037" lon="-1.609978"><ele>314</ele><time>2020-05-21T11:38:28Z</time><name>PT6318</name></trkpt>
<trkpt lat="53.388049" lon="-1.609978"><ele>314</ele><time>2020-05-21T11:38:30Z</time><name>PT6319</name></trkpt>
<trkpt lat="53.388062" lon="-1.609974"><ele>314</ele><time>2020-05-21T11:38:30Z</time><name>PT6320</name></trkpt>
<trkpt lat="53.388072" lon="-1.609971"><ele>314</ele><time>2020-05-21T11:38:31Z</time><name>PT6321</name></trkpt>
<trkpt lat="53.388082" lon="-1.609964"><ele>314</ele><time>2020-05-21T11:38:33Z</time><name>PT6322</name></trkpt>
<trkpt lat="53.388092" lon="-1.609961"><ele>314</ele><time>2020-05-21T11:38:33Z</time><name>PT6323</name></trkpt>
<trkpt lat="53.388105" lon="-1.609954"><ele>315</ele><time>2020-05-21T11:38:34Z</time><name>PT6324</name></trkpt>
<trkpt lat="53.388118" lon="-1.609946"><ele>315</ele><time>2020-05-21T11:38:36Z</time><name>PT6325</name></trkpt>
<trkpt lat="53.388126" lon="-1.609942"><ele>315</ele><time>2020-05-21T11:38:36Z</time><name>PT6326</name></trkpt>
<trkpt lat="53.388132" lon="-1.609935"><ele>314</ele><time>2020-05-21T11:38:37Z</time><name>PT6327</name></trkpt>
<trkpt lat="53.388140" lon="-1.609927"><ele>314</ele><time>2020-05-21T11:38:39Z</time><name>PT6328</name></trkpt>
<trkpt lat="53.388152" lon="-1.609918"><ele>314</ele><time>2020-05-21T11:38:39Z</time><name>PT6329</name></trkpt>
<trkpt lat="53.388163" lon="-1.609916"><ele>314</ele><time>2020-05-21T11:38:40Z</time><name>PT6330</name></trkpt>
<trkpt lat="53.388168" lon="-1.609921"><ele>315</ele><time>2020-05-21T11:38:42Z</time><name>PT6331</name></trkpt>
<trkpt lat="53.388175" lon="-1.609927"><ele>315</ele><time>2020-05-21T11:38:42Z</time><name>PT6332</name></trkpt>
<trkpt lat="53.388183" lon="-1.609929"><ele>315</ele><time>2020-05-21T11:38:43Z</time><name>PT6333</name></trkpt>
<trkpt lat="53.388196" lon="-1.609926"><ele>316</ele><time>2020-05-21T11:38:45Z</time><name>PT6334</name></trkpt>
<trkpt lat="53.388207" lon="-1.609923"><ele>316</ele><time>2020-05-21T11:38:45Z</time><name>PT6335</name></trkpt>
<trkpt lat="53.388214" lon="-1.609921"><ele>316</ele><time>2020-05-21T11:38:46Z</time><name>PT6336</name></trkpt>
<trkpt lat="53.388223" lon="-1.609922"><ele>316</ele><time>2020-05-21T11:38:48Z</time><name>PT6337</name></trkpt>
<trkpt lat="53.388232" lon="-1.609925"><ele>317</ele><time>2020-05-21T11:38:48Z</time><name>PT6338</name></trkpt>
<trkpt lat="53.388244" lon="-1.609924"><ele>316</ele><time>2020-05-21T11:38:49Z</time><name>PT6339</name></trkpt>
<trkpt lat="53.388253" lon="-1.609921"><ele>316</ele><time>2020-05-21T11:38:51Z</time><name>PT6340</name></trkpt>
<trkpt lat="53.388263" lon="-1.609919"><ele>316</ele><time>2020-05-21T11:38:51Z</time><name>PT6341</name></trkpt>
<trkpt lat="53.388272" lon="-1.609919"><ele>317</ele><time>2020-05-21T11:38:52Z</time><name>PT6342</name></trkpt>
<trkpt lat="53.388281" lon="-1.609917"><ele>316</ele><time>2020-05-21T11:38:54Z</time><name>PT6343</name></trkpt>
<trkpt lat="53.388291" lon="-1.609910"><ele>316</ele><time>2020-05-21T11:38:54Z</time><name>PT6344</name></trkpt>
<trkpt lat="53.388301" lon="-1.609908"><ele>316</ele><time>2020-05-21T11:38:55Z</time><name>PT6345</name></trkpt>
<trkpt lat="53.388310" lon="-1.609913"><ele>316</ele><time>2020-05-21T11:38:57Z</time><name>PT6346</name></trkpt>
<trkpt lat="53.388319" lon="-1.609911"><ele>316</ele><time>2020-05-21T11:38:57Z</time><name>PT6347</name></trkpt>
<trkpt lat="53.388330" lon="-1.609908"><ele>317</ele><time>2020-05-21T11:38:58Z</time><name>PT6348</name></trkpt>
<trkpt lat="53.388338" lon="-1.609904"><ele>317</ele><time>2020-05-21T11:39:00Z</time><name>PT6349</name></trkpt>
<trkpt lat="53.388344" lon="-1.609897"><ele>316</ele><time>2020-05-21T11:39:00Z</time><name>PT6350</name></trkpt>
<trkpt lat="53.388355" lon="-1.609898"><ele>316</ele><time>2020-05-21T11:39:01Z</time><name>PT6351</name></trkpt>
<trkpt lat="53.388368" lon="-1.609895"><ele>316</ele><time>2020-05-21T11:39:03Z</time><name>PT6352</name></trkpt>
<trkpt lat="53.388381" lon="-1.609892"><ele>316</ele><time>2020-05-21T11:39:03Z</time><name>PT6353</name></trkpt>
<trkpt lat="53.388388" lon="-1.609890"><ele>316</ele><time>2020-05-21T11:39:04Z</time><name>PT6354</name></trkpt>
<trkpt lat="53.388396" lon="-1.609890"><ele>316</ele><time>2020-05-21T11:39:06Z</time><name>PT6355</name></trkpt>
<trkpt lat="53.388408" lon="-1.609888"><ele>316</ele><time>2020-05-21T11:39:06Z</time><name>PT6356</name></trkpt>
<trkpt lat="53.388420" lon="-1.609886"><ele>317</ele><time>2020-05-21T11:39:07Z</time><name>PT6357</name></trkpt>
<trkpt lat="53.388432" lon="-1.609888"><ele>317</ele><time>2020-05-21T11:39:09Z</time><name>PT6358</name></trkpt>
<trkpt lat="53.388439" lon="-1.609888"><ele>317</ele><time>2020-05-21T11:39:09Z</time><name>PT6359</name></trkpt>
<trkpt lat="53.388447" lon="-1.609890"><ele>317</ele><time>2020-05-21T11:39:10Z</time><name>PT6360</name></trkpt>
<trkpt lat="53.388459" lon="-1.609896"><ele>318</ele><time>2020-05-21T11:39:12Z</time><name>PT6361</name></trkpt>
<trkpt lat="53.388472" lon="-1.609896"><ele>319</ele><time>2020-05-21T11:39:12Z</time><name>PT6362</name></trkpt>
<trkpt lat="53.388483" lon="-1.609891"><ele>319</ele><time>2020-05-21T11:39:13Z</time><name>PT6363</name></trkpt>
<trkpt lat="53.388492" lon="-1.609893"><ele>320</ele><time>2020-05-21T11:39:15Z</time><name>PT6364</name></trkpt>
<trkpt lat="53.388502" lon="-1.609891"><ele>319</ele><time>2020-05-21T11:39:15Z</time><name>PT6365</name></trkpt>
<trkpt lat="53.388514" lon="-1.609892"><ele>319</ele><time>2020-05-21T11:39:16Z</time><name>PT6366</name></trkpt>
<trkpt lat="53.388529" lon="-1.609891"><ele>320</ele><time>2020-05-21T11:39:18Z</time><name>PT6367</name></trkpt>
<trkpt lat="53.388541" lon="-1.609892"><ele>320</ele><time>2020-05-21T11:39:18Z</time><name>PT6368</name></trkpt>
<trkpt lat="53.388550" lon="-1.609891"><ele>321</ele><time>2020-05-21T11:39:19Z</time><name>PT6369</name></trkpt>
<trkpt lat="53.388558" lon="-1.609893"><ele>321</ele><time>2020-05-21T11:39:20Z</time><name>PT6370</name></trkpt>
<trkpt lat="53.388570" lon="-1.609896"><ele>322</ele><time>2020-05-21T11:39:21Z</time><name>PT6371</name></trkpt>
<trkpt lat="53.388584" lon="-1.609894"><ele>322</ele><time>2020-05-21T11:39:23Z</time><name>PT6372</name></trkpt>
<trkpt lat="53.388597" lon="-1.609893"><ele>322</ele><time>2020-05-21T11:39:23Z</time><name>PT6373</name></trkpt>
<trkpt lat="53.388605" lon="-1.609892"><ele>322</ele><time>2020-05-21T11:39:24Z</time><name>PT6374</name></trkpt>
<trkpt lat="53.388613" lon="-1.609890"><ele>321</ele><time>2020-05-21T11:39:26Z</time><name>PT6375</name></trkpt>
<trkpt lat="53.388623" lon="-1.609890"><ele>321</ele><time>2020-05-21T11:39:26Z</time><name>PT6376</name></trkpt>
<trkpt lat="53.388633" lon="-1.609890"><ele>322</ele><time>2020-05-21T11:39:27Z</time><name>PT6377</name></trkpt>
<trkpt lat="53.388647" lon="-1.609888"><ele>322</ele><time>2020-05-21T11:39:29Z</time><name>PT6378</name></trkpt>
<trkpt lat="53.388657" lon="-1.609886"><ele>322</ele><time>2020-05-21T11:39:29Z</time><name>PT6379</name></trkpt>
<trkpt lat="53.388666" lon="-1.609878"><ele>321</ele><time>2020-05-21T11:39:30Z</time><name>PT6380</name></trkpt>
<trkpt lat="53.388674" lon="-1.609869"><ele>320</ele><time>2020-05-21T11:39:32Z</time><name>PT6381</name></trkpt>
<trkpt lat="53.388685" lon="-1.609870"><ele>321</ele><time>2020-05-21T11:39:32Z</time><name>PT6382</name></trkpt>
<trkpt lat="53.388698" lon="-1.609868"><ele>321</ele><time>2020-05-21T11:39:33Z</time><name>PT6383</name></trkpt>
<trkpt lat="53.388710" lon="-1.609868"><ele>321</ele><time>2020-05-21T11:39:35Z</time><name>PT6384</name></trkpt>
<trkpt lat="53.388719" lon="-1.609870"><ele>321</ele><time>2020-05-21T11:39:35Z</time><name>PT6385</name></trkpt>
<trkpt lat="53.388728" lon="-1.609873"><ele>321</ele><time>2020-05-21T11:39:36Z</time><name>PT6386</name></trkpt>
<trkpt lat="53.388740" lon="-1.609874"><ele>321</ele><time>2020-05-21T11:39:38Z</time><name>PT6387</name></trkpt>
<trkpt lat="53.388754" lon="-1.609875"><ele>322</ele><time>2020-05-21T11:39:38Z</time><name>PT6388</name></trkpt>
<trkpt lat="53.388766" lon="-1.609867"><ele>321</ele><time>2020-05-21T11:39:39Z</time><name>PT6389</name></trkpt>
<trkpt lat="53.388776" lon="-1.609864"><ele>321</ele><time>2020-05-21T11:39:41Z</time><name>PT6390</name></trkpt>
<trkpt lat="53.388783" lon="-1.609859"><ele>320</ele><time>2020-05-21T11:39:41Z</time><name>PT6391</name></trkpt>
<trkpt lat="53.388792" lon="-1.609852"><ele>320</ele><time>2020-05-21T11:39:42Z</time><name>PT6392</name></trkpt>
<trkpt lat="53.388799" lon="-1.609844"><ele>321</ele><time>2020-05-21T11:39:44Z</time><name>PT6393</name></trkpt>
<trkpt lat="53.388811" lon="-1.609833"><ele>321</ele><time>2020-05-21T11:39:44Z</time><name>PT6394</name></trkpt>
<trkpt lat="53.388820" lon="-1.609827"><ele>321</ele><time>2020-05-21T11:39:46Z</time><name>PT6395</name></trkpt>
<trkpt lat="53.388829" lon="-1.609822"><ele>321</ele><time>2020-05-21T11:39:47Z</time><name>PT6396</name></trkpt>
<trkpt lat="53.388840" lon="-1.609818"><ele>322</ele><time>2020-05-21T11:39:47Z</time><name>PT6397</name></trkpt>
<trkpt lat="53.388849" lon="-1.609817"><ele>322</ele><time>2020-05-21T11:39:48Z</time><name>PT6398</name></trkpt>
<trkpt lat="53.388862" lon="-1.609811"><ele>323</ele><time>2020-05-21T11:39:50Z</time><name>PT6399</name></trkpt>
<trkpt lat="53.388871" lon="-1.609807"><ele>323</ele><time>2020-05-21T11:39:50Z</time><name>PT6400</name></trkpt>
<trkpt lat="53.388877" lon="-1.609805"><ele>323</ele><time>2020-05-21T11:39:51Z</time><name>PT6401</name></trkpt>
<trkpt lat="53.388883" lon="-1.609800"><ele>323</ele><time>2020-05-21T11:39:53Z</time><name>PT6402</name></trkpt>
<trkpt lat="53.388893" lon="-1.609795"><ele>323</ele><time>2020-05-21T11:39:53Z</time><name>PT6403</name></trkpt>
<trkpt lat="53.388900" lon="-1.609788"><ele>324</ele><time>2020-05-21T11:39:54Z</time><name>PT6404</name></trkpt>
<trkpt lat="53.388905" lon="-1.609790"><ele>324</ele><time>2020-05-21T11:39:56Z</time><name>PT6405</name></trkpt>
<trkpt lat="53.388911" lon="-1.609791"><ele>324</ele><time>2020-05-21T11:39:56Z</time><name>PT6406</name></trkpt>
<trkpt lat="53.388920" lon="-1.609788"><ele>324</ele><time>2020-05-21T11:39:57Z</time><name>PT6407</name></trkpt>
<trkpt lat="53.388929" lon="-1.609784"><ele>324</ele><time>2020-05-21T11:39:59Z</time><name>PT6408</name></trkpt>
<trkpt lat="53.388934" lon="-1.609783"><ele>324</ele><time>2020-05-21T11:39:59Z</time><name>PT6409</name></trkpt>
<trkpt lat="53.388940" lon="-1.609784"><ele>324</ele><time>2020-05-21T11:40:00Z</time><name>PT6410</name></trkpt>
<trkpt lat="53.388951" lon="-1.609782"><ele>325</ele><time>2020-05-21T11:40:02Z</time><name>PT6411</name></trkpt>
<trkpt lat="53.388960" lon="-1.609781"><ele>324</ele><time>2020-05-21T11:40:02Z</time><name>PT6412</name></trkpt>
<trkpt lat="53.388964" lon="-1.609780"><ele>324</ele><time>2020-05-21T11:40:04Z</time><name>PT6413</name></trkpt>
<trkpt lat="53.388965" lon="-1.609779"><ele>324</ele><time>2020-05-21T11:40:05Z</time><name>PT6414</name></trkpt>
<trkpt lat="53.388965" lon="-1.609779"><ele>324</ele><time>2020-05-21T11:40:05Z</time><name>PT6415</name></trkpt>
<trkpt lat="53.388973" lon="-1.609780"><ele>324</ele><time>2020-05-21T11:40:12Z</time><name>PT6416</name></trkpt>
<trkpt lat="53.388989" lon="-1.609777"><ele>323</ele><time>2020-05-21T11:40:14Z</time><name>PT6417</name></trkpt>
<trkpt lat="53.389001" lon="-1.609777"><ele>323</ele><time>2020-05-21T11:40:14Z</time><name>PT6418</name></trkpt>
<trkpt lat="53.389011" lon="-1.609776"><ele>323</ele><time>2020-05-21T11:40:15Z</time><name>PT6419</name></trkpt>
<trkpt lat="53.389021" lon="-1.609775"><ele>323</ele><time>2020-05-21T11:40:17Z</time><name>PT6420</name></trkpt>
<trkpt lat="53.389032" lon="-1.609775"><ele>323</ele><time>2020-05-21T11:40:17Z</time><name>PT6421</name></trkpt>
<trkpt lat="53.389041" lon="-1.609778"><ele>323</ele><time>2020-05-21T11:40:18Z</time><name>PT6422</name></trkpt>
<trkpt lat="53.389051" lon="-1.609779"><ele>324</ele><time>2020-05-21T11:40:20Z</time><name>PT6423</name></trkpt>
<trkpt lat="53.389061" lon="-1.609781"><ele>324</ele><time>2020-05-21T11:40:20Z</time><name>PT6424</name></trkpt>
<trkpt lat="53.389070" lon="-1.609785"><ele>324</ele><time>2020-05-21T11:40:21Z</time><name>PT6425</name></trkpt>
<trkpt lat="53.389077" lon="-1.609785"><ele>324</ele><time>2020-05-21T11:40:23Z</time><name>PT6426</name></trkpt>
<trkpt lat="53.389088" lon="-1.609783"><ele>325</ele><time>2020-05-21T11:40:23Z</time><name>PT6427</name></trkpt>
<trkpt lat="53.389098" lon="-1.609788"><ele>326</ele><time>2020-05-21T11:40:24Z</time><name>PT6428</name></trkpt>
<trkpt lat="53.389105" lon="-1.609786"><ele>326</ele><time>2020-05-21T11:40:26Z</time><name>PT6429</name></trkpt>
<trkpt lat="53.389113" lon="-1.609779"><ele>326</ele><time>2020-05-21T11:40:26Z</time><name>PT6430</name></trkpt>
<trkpt lat="53.389122" lon="-1.609778"><ele>326</ele><time>2020-05-21T11:40:27Z</time><name>PT6431</name></trkpt>
<trkpt lat="53.389129" lon="-1.609781"><ele>326</ele><time>2020-05-21T11:40:29Z</time><name>PT6432</name></trkpt>
<trkpt lat="53.389137" lon="-1.609789"><ele>326</ele><time>2020-05-21T11:40:29Z</time><name>PT6433</name></trkpt>
<trkpt lat="53.389145" lon="-1.609790"><ele>326</ele><time>2020-05-21T11:40:30Z</time><name>PT6434</name></trkpt>
<trkpt lat="53.389157" lon="-1.609788"><ele>326</ele><time>2020-05-21T11:40:32Z</time><name>PT6435</name></trkpt>
<trkpt lat="53.389166" lon="-1.609792"><ele>327</ele><time>2020-05-21T11:40:32Z</time><name>PT6436</name></trkpt>
<trkpt lat="53.389172" lon="-1.609795"><ele>327</ele><time>2020-05-21T11:40:33Z</time><name>PT6437</name></trkpt>
<trkpt lat="53.389181" lon="-1.609794"><ele>327</ele><time>2020-05-21T11:40:35Z</time><name>PT6438</name></trkpt>
<trkpt lat="53.389193" lon="-1.609791"><ele>327</ele><time>2020-05-21T11:40:35Z</time><name>PT6439</name></trkpt>
<trkpt lat="53.389203" lon="-1.609793"><ele>327</ele><time>2020-05-21T11:40:36Z</time><name>PT6440</name></trkpt>
<trkpt lat="53.389208" lon="-1.609798"><ele>327</ele><time>2020-05-21T11:40:38Z</time><name>PT6441</name></trkpt>
<trkpt lat="53.389212" lon="-1.609803"><ele>327</ele><time>2020-05-21T11:40:38Z</time><name>PT6442</name></trkpt>
<trkpt lat="53.389224" lon="-1.609807"><ele>328</ele><time>2020-05-21T11:40:39Z</time><name>PT6443</name></trkpt>
<trkpt lat="53.389235" lon="-1.609808"><ele>328</ele><time>2020-05-21T11:40:41Z</time><name>PT6444</name></trkpt>
<trkpt lat="53.389243" lon="-1.609812"><ele>328</ele><time>2020-05-21T11:40:41Z</time><name>PT6445</name></trkpt>
<trkpt lat="53.389251" lon="-1.609813"><ele>328</ele><time>2020-05-21T11:40:42Z</time><name>PT6446</name></trkpt>
<trkpt lat="53.389262" lon="-1.609821"><ele>329</ele><time>2020-05-21T11:40:44Z</time><name>PT6447</name></trkpt>
<trkpt lat="53.389274" lon="-1.609819"><ele>329</ele><time>2020-05-21T11:40:44Z</time><name>PT6448</name></trkpt>
<trkpt lat="53.389286" lon="-1.609814"><ele>330</ele><time>2020-05-21T11:40:45Z</time><name>PT6449</name></trkpt>
<trkpt lat="53.389297" lon="-1.609814"><ele>330</ele><time>2020-05-21T11:40:47Z</time><name>PT6450</name></trkpt>
<trkpt lat="53.389306" lon="-1.609815"><ele>330</ele><time>2020-05-21T11:40:47Z</time><name>PT6451</name></trkpt>
<trkpt lat="53.389313" lon="-1.609819"><ele>330</ele><time>2020-05-21T11:40:48Z</time><name>PT6452</name></trkpt>
<trkpt lat="53.389323" lon="-1.609827"><ele>331</ele><time>2020-05-21T11:40:50Z</time><name>PT6453</name></trkpt>
<trkpt lat="53.389338" lon="-1.609830"><ele>332</ele><time>2020-05-21T11:40:50Z</time><name>PT6454</name></trkpt>
<trkpt lat="53.389349" lon="-1.609834"><ele>332</ele><time>2020-05-21T11:40:51Z</time><name>PT6455</name></trkpt>
<trkpt lat="53.389358" lon="-1.609838"><ele>332</ele><time>2020-05-21T11:40:53Z</time><name>PT6456</name></trkpt>
<trkpt lat="53.389363" lon="-1.609840"><ele>332</ele><time>2020-05-21T11:40:53Z</time><name>PT6457</name></trkpt>
<trkpt lat="53.389375" lon="-1.609841"><ele>333</ele><time>2020-05-21T11:40:54Z</time><name>PT6458</name></trkpt>
<trkpt lat="53.389385" lon="-1.609840"><ele>334</ele><time>2020-05-21T11:40:56Z</time><name>PT6459</name></trkpt>
<trkpt lat="53.389392" lon="-1.609840"><ele>334</ele><time>2020-05-21T11:40:56Z</time><name>PT6460</name></trkpt>
<trkpt lat="53.389399" lon="-1.609842"><ele>334</ele><time>2020-05-21T11:40:57Z</time><name>PT6461</name></trkpt>
<trkpt lat="53.389410" lon="-1.609846"><ele>334</ele><time>2020-05-21T11:40:59Z</time><name>PT6462</name></trkpt>
<trkpt lat="53.389421" lon="-1.609848"><ele>334</ele><time>2020-05-21T11:40:59Z</time><name>PT6463</name></trkpt>
<trkpt lat="53.389427" lon="-1.609847"><ele>335</ele><time>2020-05-21T11:41:00Z</time><name>PT6464</name></trkpt>
<trkpt lat="53.389432" lon="-1.609845"><ele>334</ele><time>2020-05-21T11:41:02Z</time><name>PT6465</name></trkpt>
<trkpt lat="53.389439" lon="-1.609849"><ele>334</ele><time>2020-05-21T11:41:02Z</time><name>PT6466</name></trkpt>
<trkpt lat="53.389450" lon="-1.609852"><ele>334</ele><time>2020-05-21T11:41:03Z</time><name>PT6467</name></trkpt>
<trkpt lat="53.389461" lon="-1.609851"><ele>334</ele><time>2020-05-21T11:41:05Z</time><name>PT6468</name></trkpt>
<trkpt lat="53.389468" lon="-1.609851"><ele>334</ele><time>2020-05-21T11:41:05Z</time><name>PT6469</name></trkpt>
<trkpt lat="53.389476" lon="-1.609854"><ele>333</ele><time>2020-05-21T11:41:06Z</time><name>PT6470</name></trkpt>
<trkpt lat="53.389483" lon="-1.609856"><ele>333</ele><time>2020-05-21T11:41:08Z</time><name>PT6471</name></trkpt>
<trkpt lat="53.389493" lon="-1.609855"><ele>334</ele><time>2020-05-21T11:41:08Z</time><name>PT6472</name></trkpt>
<trkpt lat="53.389504" lon="-1.609854"><ele>333</ele><time>2020-05-21T11:41:09Z</time><name>PT6473</name></trkpt>
<trkpt lat="53.389515" lon="-1.609848"><ele>332</ele><time>2020-05-21T11:41:11Z</time><name>PT6474</name></trkpt>
<trkpt lat="53.389524" lon="-1.609848"><ele>333</ele><time>2020-05-21T11:41:11Z</time><name>PT6475</name></trkpt>
<trkpt lat="53.389533" lon="-1.609853"><ele>334</ele><time>2020-05-21T11:41:12Z</time><name>PT6476</name></trkpt>
<trkpt lat="53.389542" lon="-1.609853"><ele>335</ele><time>2020-05-21T11:41:14Z</time><name>PT6477</name></trkpt>
<trkpt lat="53.389556" lon="-1.609849"><ele>336</ele><time>2020-05-21T11:41:14Z</time><name>PT6478</name></trkpt>
<trkpt lat="53.389568" lon="-1.609848"><ele>336</ele><time>2020-05-21T11:41:15Z</time><name>PT6479</name></trkpt>
<trkpt lat="53.389576" lon="-1.609846"><ele>336</ele><time>2020-05-21T11:41:17Z</time><name>PT6480</name></trkpt>
<trkpt lat="53.389586" lon="-1.609848"><ele>336</ele><time>2020-05-21T11:41:17Z</time><name>PT6481</name></trkpt>
<trkpt lat="53.389596" lon="-1.609846"><ele>337</ele><time>2020-05-21T11:41:18Z</time><name>PT6482</name></trkpt>
<trkpt lat="53.389605" lon="-1.609844"><ele>337</ele><time>2020-05-21T11:41:20Z</time><name>PT6483</name></trkpt>
<trkpt lat="53.389616" lon="-1.609840"><ele>338</ele><time>2020-05-21T11:41:20Z</time><name>PT6484</name></trkpt>
<trkpt lat="53.389623" lon="-1.609846"><ele>339</ele><time>2020-05-21T11:41:21Z</time><name>PT6485</name></trkpt>
<trkpt lat="53.389630" lon="-1.609844"><ele>339</ele><time>2020-05-21T11:41:23Z</time><name>PT6486</name></trkpt>
<trkpt lat="53.389636" lon="-1.609847"><ele>340</ele><time>2020-05-21T11:41:23Z</time><name>PT6487</name></trkpt>
<trkpt lat="53.389645" lon="-1.609850"><ele>341</ele><time>2020-05-21T11:41:24Z</time><name>PT6488</name></trkpt>
<trkpt lat="53.389656" lon="-1.609850"><ele>341</ele><time>2020-05-21T11:41:26Z</time><name>PT6489</name></trkpt>
<trkpt lat="53.389665" lon="-1.609855"><ele>341</ele><time>2020-05-21T11:41:26Z</time><name>PT6490</name></trkpt>
<trkpt lat="53.389673" lon="-1.609857"><ele>342</ele><time>2020-05-21T11:41:27Z</time><name>PT6491</name></trkpt>
<trkpt lat="53.389682" lon="-1.609858"><ele>342</ele><time>2020-05-21T11:41:29Z</time><name>PT6492</name></trkpt>
<trkpt lat="53.389690" lon="-1.609859"><ele>343</ele><time>2020-05-21T11:41:29Z</time><name>PT6493</name></trkpt>
<trkpt lat="53.389696" lon="-1.609859"><ele>343</ele><time>2020-05-21T11:41:30Z</time><name>PT6494</name></trkpt>
<trkpt lat="53.389702" lon="-1.609855"><ele>343</ele><time>2020-05-21T11:41:32Z</time><name>PT6495</name></trkpt>
<trkpt lat="53.389707" lon="-1.609850"><ele>342</ele><time>2020-05-21T11:41:32Z</time><name>PT6496</name></trkpt>
<trkpt lat="53.389715" lon="-1.609849"><ele>343</ele><time>2020-05-21T11:41:33Z</time><name>PT6497</name></trkpt>
<trkpt lat="53.389722" lon="-1.609839"><ele>343</ele><time>2020-05-21T11:41:35Z</time><name>PT6498</name></trkpt>
<trkpt lat="53.389731" lon="-1.609835"><ele>343</ele><time>2020-05-21T11:41:35Z</time><name>PT6499</name></trkpt>
<trkpt lat="53.389738" lon="-1.609838"><ele>343</ele><time>2020-05-21T11:41:36Z</time><name>PT6500</name></trkpt>
<trkpt lat="53.389743" lon="-1.609843"><ele>343</ele><time>2020-05-21T11:41:38Z</time><name>PT6501</name></trkpt>
<trkpt lat="53.389750" lon="-1.609847"><ele>344</ele><time>2020-05-21T11:41:38Z</time><name>PT6502</name></trkpt>
<trkpt lat="53.389757" lon="-1.609848"><ele>343</ele><time>2020-05-21T11:41:39Z</time><name>PT6503</name></trkpt>
<trkpt lat="53.389761" lon="-1.609852"><ele>344</ele><time>2020-05-21T11:41:41Z</time><name>PT6504</name></trkpt>
<trkpt lat="53.389767" lon="-1.609857"><ele>345</ele><time>2020-05-21T11:41:41Z</time><name>PT6505</name></trkpt>
<trkpt lat="53.389775" lon="-1.609859"><ele>345</ele><time>2020-05-21T11:41:42Z</time><name>PT6506</name></trkpt>
<trkpt lat="53.389783" lon="-1.609855"><ele>346</ele><time>2020-05-21T11:41:44Z</time><name>PT6507</name></trkpt>
<trkpt lat="53.389790" lon="-1.609851"><ele>345</ele><time>2020-05-21T11:41:44Z</time><name>PT6508</name></trkpt>
<trkpt lat="53.389797" lon="-1.609856"><ele>346</ele><time>2020-05-21T11:41:45Z</time><name>PT6509</name></trkpt>
<trkpt lat="53.389804" lon="-1.609863"><ele>346</ele><time>2020-05-21T11:41:47Z</time><name>PT6510</name></trkpt>
<trkpt lat="53.389810" lon="-1.609866"><ele>346</ele><time>2020-05-21T11:41:47Z</time><name>PT6511</name></trkpt>
<trkpt lat="53.389812" lon="-1.609868"><ele>346</ele><time>2020-05-21T11:41:48Z</time><name>PT6512</name></trkpt>
<trkpt lat="53.389819" lon="-1.609870"><ele>347</ele><time>2020-05-21T11:41:50Z</time><name>PT6513</name></trkpt>
<trkpt lat="53.389824" lon="-1.609869"><ele>347</ele><time>2020-05-21T11:41:50Z</time><name>PT6514</name></trkpt>
<trkpt lat="53.389836" lon="-1.609870"><ele>347</ele><time>2020-05-21T11:41:51Z</time><name>PT6515</name></trkpt>
<trkpt lat="53.389841" lon="-1.609875"><ele>348</ele><time>2020-05-21T11:41:53Z</time><name>PT6516</name></trkpt>
<trkpt lat="53.389848" lon="-1.609867"><ele>348</ele><time>2020-05-21T11:41:53Z</time><name>PT6517</name></trkpt>
<trkpt lat="53.389855" lon="-1.609864"><ele>348</ele><time>2020-05-21T11:41:54Z</time><name>PT6518</name></trkpt>
<trkpt lat="53.389863" lon="-1.609863"><ele>348</ele><time>2020-05-21T11:41:56Z</time><name>PT6519</name></trkpt>
<trkpt lat="53.389867" lon="-1.609859"><ele>348</ele><time>2020-05-21T11:41:56Z</time><name>PT6520</name></trkpt>
<trkpt lat="53.389872" lon="-1.609856"><ele>349</ele><time>2020-05-21T11:41:57Z</time><name>PT6521</name></trkpt>
<trkpt lat="53.389874" lon="-1.609856"><ele>348</ele><time>2020-05-21T11:41:59Z</time><name>PT6522</name></trkpt>
<trkpt lat="53.389880" lon="-1.609857"><ele>348</ele><time>2020-05-21T11:41:59Z</time><name>PT6523</name></trkpt>
<trkpt lat="53.389884" lon="-1.609856"><ele>348</ele><time>2020-05-21T11:42:00Z</time><name>PT6524</name></trkpt>
<trkpt lat="53.389891" lon="-1.609858"><ele>348</ele><time>2020-05-21T11:42:02Z</time><name>PT6525</name></trkpt>
<trkpt lat="53.389898" lon="-1.609862"><ele>348</ele><time>2020-05-21T11:42:02Z</time><name>PT6526</name></trkpt>
<trkpt lat="53.389901" lon="-1.609857"><ele>347</ele><time>2020-05-21T11:42:03Z</time><name>PT6527</name></trkpt>
<trkpt lat="53.389905" lon="-1.609855"><ele>347</ele><time>2020-05-21T11:42:05Z</time><name>PT6528</name></trkpt>
<trkpt lat="53.389915" lon="-1.609852"><ele>347</ele><time>2020-05-21T11:42:05Z</time><name>PT6529</name></trkpt>
<trkpt lat="53.389922" lon="-1.609850"><ele>347</ele><time>2020-05-21T11:42:06Z</time><name>PT6530</name></trkpt>
<trkpt lat="53.389924" lon="-1.609851"><ele>347</ele><time>2020-05-21T11:42:08Z</time><name>PT6531</name></trkpt>
<trkpt lat="53.389926" lon="-1.609853"><ele>347</ele><time>2020-05-21T11:42:08Z</time><name>PT6532</name></trkpt>
<trkpt lat="53.389931" lon="-1.609858"><ele>347</ele><time>2020-05-21T11:42:09Z</time><name>PT6533</name></trkpt>
<trkpt lat="53.389934" lon="-1.609858"><ele>347</ele><time>2020-05-21T11:42:11Z</time><name>PT6534</name></trkpt>
<trkpt lat="53.389937" lon="-1.609862"><ele>347</ele><time>2020-05-21T11:42:11Z</time><name>PT6535</name></trkpt>
<trkpt lat="53.389939" lon="-1.609864"><ele>347</ele><time>2020-05-21T11:42:12Z</time><name>PT6536</name></trkpt>
<trkpt lat="53.389940" lon="-1.609860"><ele>348</ele><time>2020-05-21T11:42:14Z</time><name>PT6537</name></trkpt>
<trkpt lat="53.389942" lon="-1.609857"><ele>347</ele><time>2020-05-21T11:42:14Z</time><name>PT6538</name></trkpt>
<trkpt lat="53.389946" lon="-1.609854"><ele>347</ele><time>2020-05-21T11:42:15Z</time><name>PT6539</name></trkpt>
<trkpt lat="53.389954" lon="-1.609848"><ele>348</ele><time>2020-05-21T11:42:17Z</time><name>PT6540</name></trkpt>
<trkpt lat="53.389956" lon="-1.609845"><ele>348</ele><time>2020-05-21T11:42:17Z</time><name>PT6541</name></trkpt>
<trkpt lat="53.389962" lon="-1.609842"><ele>349</ele><time>2020-05-21T11:42:18Z</time><name>PT6542</name></trkpt>
<trkpt lat="53.389972" lon="-1.609840"><ele>348</ele><time>2020-05-21T11:42:20Z</time><name>PT6543</name></trkpt>
<trkpt lat="53.389978" lon="-1.609841"><ele>348</ele><time>2020-05-21T11:42:20Z</time><name>PT6544</name></trkpt>
<trkpt lat="53.389985" lon="-1.609841"><ele>348</ele><time>2020-05-21T11:42:21Z</time><name>PT6545</name></trkpt>
<trkpt lat="53.389990" lon="-1.609844"><ele>349</ele><time>2020-05-21T11:42:23Z</time><name>PT6546</name></trkpt>
<trkpt lat="53.389996" lon="-1.609839"><ele>349</ele><time>2020-05-21T11:42:23Z</time><name>PT6547</name></trkpt>
<trkpt lat="53.390001" lon="-1.609841"><ele>349</ele><time>2020-05-21T11:42:24Z</time><name>PT6548</name></trkpt>
<trkpt lat="53.390005" lon="-1.609844"><ele>350</ele><time>2020-05-21T11:42:26Z</time><name>PT6549</name></trkpt>
<trkpt lat="53.390010" lon="-1.609849"><ele>350</ele><time>2020-05-21T11:42:26Z</time><name>PT6550</name></trkpt>
<trkpt lat="53.390017" lon="-1.609850"><ele>350</ele><time>2020-05-21T11:42:27Z</time><name>PT6551</name></trkpt>
<trkpt lat="53.390025" lon="-1.609849"><ele>350</ele><time>2020-05-21T11:42:29Z</time><name>PT6552</name></trkpt>
<trkpt lat="53.390026" lon="-1.609839"><ele>350</ele><time>2020-05-21T11:42:29Z</time><name>PT6553</name></trkpt>
<trkpt lat="53.390033" lon="-1.609845"><ele>351</ele><time>2020-05-21T11:42:30Z</time><name>PT6554</name></trkpt>
<trkpt lat="53.390042" lon="-1.609852"><ele>351</ele><time>2020-05-21T11:42:32Z</time><name>PT6555</name></trkpt>
<trkpt lat="53.390047" lon="-1.609855"><ele>351</ele><time>2020-05-21T11:42:32Z</time><name>PT6556</name></trkpt>
<trkpt lat="53.390051" lon="-1.609856"><ele>351</ele><time>2020-05-21T11:42:33Z</time><name>PT6557</name></trkpt>
<trkpt lat="53.390055" lon="-1.609855"><ele>351</ele><time>2020-05-21T11:42:35Z</time><name>PT6558</name></trkpt>
<trkpt lat="53.390058" lon="-1.609854"><ele>350</ele><time>2020-05-21T11:42:35Z</time><name>PT6559</name></trkpt>
<trkpt lat="53.390064" lon="-1.609856"><ele>350</ele><time>2020-05-21T11:42:36Z</time><name>PT6560</name></trkpt>
<trkpt lat="53.390068" lon="-1.609858"><ele>350</ele><time>2020-05-21T11:42:38Z</time><name>PT6561</name></trkpt>
<trkpt lat="53.390069" lon="-1.609853"><ele>351</ele><time>2020-05-21T11:42:38Z</time><name>PT6562</name></trkpt>
<trkpt lat="53.390074" lon="-1.609851"><ele>351</ele><time>2020-05-21T11:42:39Z</time><name>PT6563</name></trkpt>
<trkpt lat="53.390082" lon="-1.609849"><ele>351</ele><time>2020-05-21T11:42:41Z</time><name>PT6564</name></trkpt>
<trkpt lat="53.390088" lon="-1.609844"><ele>351</ele><time>2020-05-21T11:42:41Z</time><name>PT6565</name></trkpt>
<trkpt lat="53.390094" lon="-1.609837"><ele>351</ele><time>2020-05-21T11:42:42Z</time><name>PT6566</name></trkpt>
<trkpt lat="53.390103" lon="-1.609833"><ele>351</ele><time>2020-05-21T11:42:44Z</time><name>PT6567</name></trkpt>
<trkpt lat="53.390114" lon="-1.609823"><ele>352</ele><time>2020-05-21T11:42:44Z</time><name>PT6568</name></trkpt>
<trkpt lat="53.390122" lon="-1.609812"><ele>352</ele><time>2020-05-21T11:42:45Z</time><name>PT6569</name></trkpt>
<trkpt lat="53.390125" lon="-1.609801"><ele>353</ele><time>2020-05-21T11:42:47Z</time><name>PT6570</name></trkpt>
<trkpt lat="53.390129" lon="-1.609791"><ele>353</ele><time>2020-05-21T11:42:47Z</time><name>PT6571</name></trkpt>
<trkpt lat="53.390133" lon="-1.609789"><ele>355</ele><time>2020-05-21T11:42:48Z</time><name>PT6572</name></trkpt>
<trkpt lat="53.390141" lon="-1.609784"><ele>355</ele><time>2020-05-21T11:42:50Z</time><name>PT6573</name></trkpt>
<trkpt lat="53.390149" lon="-1.609781"><ele>355</ele><time>2020-05-21T11:42:50Z</time><name>PT6574</name></trkpt>
<trkpt lat="53.390154" lon="-1.609776"><ele>355</ele><time>2020-05-21T11:42:51Z</time><name>PT6575</name></trkpt>
<trkpt lat="53.390162" lon="-1.609772"><ele>355</ele><time>2020-05-21T11:42:53Z</time><name>PT6576</name></trkpt>
<trkpt lat="53.390170" lon="-1.609768"><ele>355</ele><time>2020-05-21T11:42:53Z</time><name>PT6577</name></trkpt>
<trkpt lat="53.390174" lon="-1.609763"><ele>356</ele><time>2020-05-21T11:42:54Z</time><name>PT6578</name></trkpt>
<trkpt lat="53.390179" lon="-1.609763"><ele>356</ele><time>2020-05-21T11:42:56Z</time><name>PT6579</name></trkpt>
<trkpt lat="53.390189" lon="-1.609758"><ele>357</ele><time>2020-05-21T11:42:56Z</time><name>PT6580</name></trkpt>
<trkpt lat="53.390199" lon="-1.609754"><ele>357</ele><time>2020-05-21T11:42:57Z</time><name>PT6581</name></trkpt>
<trkpt lat="53.390207" lon="-1.609750"><ele>356</ele><time>2020-05-21T11:42:59Z</time><name>PT6582</name></trkpt>
<trkpt lat="53.390213" lon="-1.609744"><ele>356</ele><time>2020-05-21T11:42:59Z</time><name>PT6583</name></trkpt>
<trkpt lat="53.390214" lon="-1.609732"><ele>356</ele><time>2020-05-21T11:43:00Z</time><name>PT6584</name></trkpt>
<trkpt lat="53.390216" lon="-1.609734"><ele>356</ele><time>2020-05-21T11:43:02Z</time><name>PT6585</name></trkpt>
<trkpt lat="53.390216" lon="-1.609723"><ele>355</ele><time>2020-05-21T11:43:02Z</time><name>PT6586</name></trkpt>
<trkpt lat="53.390217" lon="-1.609721"><ele>355</ele><time>2020-05-21T11:43:03Z</time><name>PT6587</name></trkpt>
<trkpt lat="53.390236" lon="-1.609716"><ele>355</ele><time>2020-05-21T11:43:07Z</time><name>PT6588</name></trkpt>
<trkpt lat="53.390248" lon="-1.609718"><ele>356</ele><time>2020-05-21T11:43:09Z</time><name>PT6589</name></trkpt>
<trkpt lat="53.390254" lon="-1.609707"><ele>356</ele><time>2020-05-21T11:43:10Z</time><name>PT6590</name></trkpt>
<trkpt lat="53.390263" lon="-1.609699"><ele>356</ele><time>2020-05-21T11:43:12Z</time><name>PT6591</name></trkpt>
<trkpt lat="53.390274" lon="-1.609695"><ele>358</ele><time>2020-05-21T11:43:12Z</time><name>PT6592</name></trkpt>
<trkpt lat="53.390286" lon="-1.609694"><ele>357</ele><time>2020-05-21T11:43:13Z</time><name>PT6593</name></trkpt>
<trkpt lat="53.390293" lon="-1.609695"><ele>357</ele><time>2020-05-21T11:43:15Z</time><name>PT6594</name></trkpt>
<trkpt lat="53.390299" lon="-1.609697"><ele>358</ele><time>2020-05-21T11:43:15Z</time><name>PT6595</name></trkpt>
<trkpt lat="53.390307" lon="-1.609698"><ele>358</ele><time>2020-05-21T11:43:16Z</time><name>PT6596</name></trkpt>
<trkpt lat="53.390318" lon="-1.609692"><ele>358</ele><time>2020-05-21T11:43:18Z</time><name>PT6597</name></trkpt>
<trkpt lat="53.390329" lon="-1.609688"><ele>359</ele><time>2020-05-21T11:43:18Z</time><name>PT6598</name></trkpt>
<trkpt lat="53.390337" lon="-1.609684"><ele>360</ele><time>2020-05-21T11:43:19Z</time><name>PT6599</name></trkpt>
<trkpt lat="53.390341" lon="-1.609676"><ele>360</ele><time>2020-05-21T11:43:21Z</time><name>PT6600</name></trkpt>
<trkpt lat="53.390360" lon="-1.609663"><ele>361</ele><time>2020-05-21T11:43:22Z</time><name>PT6601</name></trkpt>
<trkpt lat="53.390368" lon="-1.609659"><ele>362</ele><time>2020-05-21T11:43:24Z</time><name>PT6602</name></trkpt>
<trkpt lat="53.390374" lon="-1.609659"><ele>362</ele><time>2020-05-21T11:43:24Z</time><name>PT6603</name></trkpt>
<trkpt lat="53.390381" lon="-1.609661"><ele>362</ele><time>2020-05-21T11:43:25Z</time><name>PT6604</name></trkpt>
<trkpt lat="53.390391" lon="-1.609659"><ele>362</ele><time>2020-05-21T11:43:27Z</time><name>PT6605</name></trkpt>
<trkpt lat="53.390400" lon="-1.609653"><ele>362</ele><time>2020-05-21T11:43:27Z</time><name>PT6606</name></trkpt>
<trkpt lat="53.390408" lon="-1.609651"><ele>361</ele><time>2020-05-21T11:43:28Z</time><name>PT6607</name></trkpt>
<trkpt lat="53.390416" lon="-1.609653"><ele>361</ele><time>2020-05-21T11:43:30Z</time><name>PT6608</name></trkpt>
<trkpt lat="53.390423" lon="-1.609657"><ele>361</ele><time>2020-05-21T11:43:30Z</time><name>PT6609</name></trkpt>
<trkpt lat="53.390427" lon="-1.609657"><ele>361</ele><time>2020-05-21T11:43:31Z</time><name>PT6610</name></trkpt>
<trkpt lat="53.390434" lon="-1.609657"><ele>361</ele><time>2020-05-21T11:43:33Z</time><name>PT6611</name></trkpt>
<trkpt lat="53.390443" lon="-1.609655"><ele>361</ele><time>2020-05-21T11:43:33Z</time><name>PT6612</name></trkpt>
<trkpt lat="53.390451" lon="-1.609652"><ele>362</ele><time>2020-05-21T11:43:34Z</time><name>PT6613</name></trkpt>
<trkpt lat="53.390455" lon="-1.609648"><ele>362</ele><time>2020-05-21T11:43:36Z</time><name>PT6614</name></trkpt>
<trkpt lat="53.390461" lon="-1.609645"><ele>362</ele><time>2020-05-21T11:43:36Z</time><name>PT6615</name></trkpt>
<trkpt lat="53.390469" lon="-1.609640"><ele>362</ele><time>2020-05-21T11:43:37Z</time><name>PT6616</name></trkpt>
<trkpt lat="53.390477" lon="-1.609629"><ele>362</ele><time>2020-05-21T11:43:39Z</time><name>PT6617</name></trkpt>
<trkpt lat="53.390483" lon="-1.609618"><ele>361</ele><time>2020-05-21T11:43:39Z</time><name>PT6618</name></trkpt>
<trkpt lat="53.390492" lon="-1.609608"><ele>361</ele><time>2020-05-21T11:43:40Z</time><name>PT6619</name></trkpt>
<trkpt lat="53.390502" lon="-1.609606"><ele>362</ele><time>2020-05-21T11:43:42Z</time><name>PT6620</name></trkpt>
<trkpt lat="53.390512" lon="-1.609601"><ele>362</ele><time>2020-05-21T11:43:42Z</time><name>PT6621</name></trkpt>
<trkpt lat="53.390518" lon="-1.609599"><ele>361</ele><time>2020-05-21T11:43:43Z</time><name>PT6622</name></trkpt>
<trkpt lat="53.390525" lon="-1.609601"><ele>361</ele><time>2020-05-21T11:43:45Z</time><name>PT6623</name></trkpt>
<trkpt lat="53.390534" lon="-1.609599"><ele>361</ele><time>2020-05-21T11:43:45Z</time><name>PT6624</name></trkpt>
<trkpt lat="53.390543" lon="-1.609601"><ele>362</ele><time>2020-05-21T11:43:46Z</time><name>PT6625</name></trkpt>
<trkpt lat="53.390551" lon="-1.609601"><ele>362</ele><time>2020-05-21T11:43:48Z</time><name>PT6626</name></trkpt>
<trkpt lat="53.390557" lon="-1.609604"><ele>362</ele><time>2020-05-21T11:43:48Z</time><name>PT6627</name></trkpt>
<trkpt lat="53.390562" lon="-1.609602"><ele>362</ele><time>2020-05-21T11:43:49Z</time><name>PT6628</name></trkpt>
<trkpt lat="53.390569" lon="-1.609596"><ele>362</ele><time>2020-05-21T11:43:51Z</time><name>PT6629</name></trkpt>
<trkpt lat="53.390575" lon="-1.609593"><ele>362</ele><time>2020-05-21T11:43:51Z</time><name>PT6630</name></trkpt>
<trkpt lat="53.390579" lon="-1.609589"><ele>362</ele><time>2020-05-21T11:43:52Z</time><name>PT6631</name></trkpt>
<trkpt lat="53.390587" lon="-1.609594"><ele>361</ele><time>2020-05-21T11:43:54Z</time><name>PT6632</name></trkpt>
<trkpt lat="53.390589" lon="-1.609593"><ele>361</ele><time>2020-05-21T11:43:54Z</time><name>PT6633</name></trkpt>
<trkpt lat="53.390592" lon="-1.609591"><ele>361</ele><time>2020-05-21T11:43:55Z</time><name>PT6634</name></trkpt>
<trkpt lat="53.390597" lon="-1.609586"><ele>362</ele><time>2020-05-21T11:43:57Z</time><name>PT6635</name></trkpt>
<trkpt lat="53.390602" lon="-1.609579"><ele>362</ele><time>2020-05-21T11:43:57Z</time><name>PT6636</name></trkpt>
<trkpt lat="53.390604" lon="-1.609577"><ele>362</ele><time>2020-05-21T11:43:58Z</time><name>PT6637</name></trkpt>
<trkpt lat="53.390603" lon="-1.609571"><ele>361</ele><time>2020-05-21T11:44:00Z</time><name>PT6638</name></trkpt>
<trkpt lat="53.390604" lon="-1.609566"><ele>362</ele><time>2020-05-21T11:44:00Z</time><name>PT6639</name></trkpt>
<trkpt lat="53.390603" lon="-1.609561"><ele>362</ele><time>2020-05-21T11:44:01Z</time><name>PT6640</name></trkpt>
<trkpt lat="53.390605" lon="-1.609556"><ele>362</ele><time>2020-05-21T11:44:03Z</time><name>PT6641</name></trkpt>
<trkpt lat="53.390610" lon="-1.609548"><ele>362</ele><time>2020-05-21T11:44:03Z</time><name>PT6642</name></trkpt>
<trkpt lat="53.390621" lon="-1.609540"><ele>362</ele><time>2020-05-21T11:44:06Z</time><name>PT6643</name></trkpt>
<trkpt lat="53.390634" lon="-1.609526"><ele>361</ele><time>2020-05-21T11:44:07Z</time><name>PT6644</name></trkpt>
<trkpt lat="53.390647" lon="-1.609520"><ele>360</ele><time>2020-05-21T11:44:09Z</time><name>PT6645</name></trkpt>
<trkpt lat="53.390653" lon="-1.609516"><ele>360</ele><time>2020-05-21T11:44:09Z</time><name>PT6646</name></trkpt>
<trkpt lat="53.390659" lon="-1.609515"><ele>360</ele><time>2020-05-21T11:44:10Z</time><name>PT6647</name></trkpt>
<trkpt lat="53.390658" lon="-1.609513"><ele>361</ele><time>2020-05-21T11:44:12Z</time><name>PT6648</name></trkpt>
<trkpt lat="53.390661" lon="-1.609516"><ele>360</ele><time>2020-05-21T11:44:13Z</time><name>PT6649</name></trkpt>
<trkpt lat="53.390660" lon="-1.609517"><ele>360</ele><time>2020-05-21T11:44:18Z</time><name>PT6650</name></trkpt>
<trkpt lat="53.390674" lon="-1.609533"><ele>360</ele><time>2020-05-21T11:44:18Z</time><name>PT6651</name></trkpt>
<trkpt lat="53.390685" lon="-1.609544"><ele>361</ele><time>2020-05-21T11:44:19Z</time><name>PT6652</name></trkpt>
<trkpt lat="53.390694" lon="-1.609548"><ele>361</ele><time>2020-05-21T11:44:21Z</time><name>PT6653</name></trkpt>
<trkpt lat="53.390702" lon="-1.609554"><ele>361</ele><time>2020-05-21T11:44:21Z</time><name>PT6654</name></trkpt>
<trkpt lat="53.390710" lon="-1.609558"><ele>361</ele><time>2020-05-21T11:44:22Z</time><name>PT6655</name></trkpt>
<trkpt lat="53.390719" lon="-1.609562"><ele>361</ele><time>2020-05-21T11:44:24Z</time><name>PT6656</name></trkpt>
<trkpt lat="53.390731" lon="-1.609564"><ele>362</ele><time>2020-05-21T11:44:24Z</time><name>PT6657</name></trkpt>
<trkpt lat="53.390740" lon="-1.609570"><ele>362</ele><time>2020-05-21T11:44:25Z</time><name>PT6658</name></trkpt>
<trkpt lat="53.390746" lon="-1.609578"><ele>361</ele><time>2020-05-21T11:44:27Z</time><name>PT6659</name></trkpt>
<trkpt lat="53.390753" lon="-1.609581"><ele>362</ele><time>2020-05-21T11:44:27Z</time><name>PT6660</name></trkpt>
<trkpt lat="53.390760" lon="-1.609580"><ele>361</ele><time>2020-05-21T11:44:28Z</time><name>PT6661</name></trkpt>
<trkpt lat="53.390762" lon="-1.609582"><ele>362</ele><time>2020-05-21T11:44:30Z</time><name>PT6662</name></trkpt>
<trkpt lat="53.390767" lon="-1.609587"><ele>361</ele><time>2020-05-21T11:44:30Z</time><name>PT6663</name></trkpt>
<trkpt lat="53.390771" lon="-1.609602"><ele>361</ele><time>2020-05-21T11:44:32Z</time><name>PT6664</name></trkpt>
<trkpt lat="53.390774" lon="-1.609615"><ele>362</ele><time>2020-05-21T11:44:33Z</time><name>PT6665</name></trkpt>
<trkpt lat="53.390780" lon="-1.609626"><ele>362</ele><time>2020-05-21T11:44:33Z</time><name>PT6666</name></trkpt>
<trkpt lat="53.390781" lon="-1.609641"><ele>362</ele><time>2020-05-21T11:44:35Z</time><name>PT6667</name></trkpt>
<trkpt lat="53.390781" lon="-1.609660"><ele>364</ele><time>2020-05-21T11:44:35Z</time><name>PT6668</name></trkpt>
<trkpt lat="53.390785" lon="-1.609686"><ele>363</ele><time>2020-05-21T11:44:37Z</time><name>PT6669</name></trkpt>
<trkpt lat="53.390788" lon="-1.609700"><ele>364</ele><time>2020-05-21T11:44:38Z</time><name>PT6670</name></trkpt>
<trkpt lat="53.390792" lon="-1.609715"><ele>364</ele><time>2020-05-21T11:44:38Z</time><name>PT6671</name></trkpt>
<trkpt lat="53.390795" lon="-1.609727"><ele>364</ele><time>2020-05-21T11:44:39Z</time><name>PT6672</name></trkpt>
<trkpt lat="53.390797" lon="-1.609735"><ele>364</ele><time>2020-05-21T11:44:41Z</time><name>PT6673</name></trkpt>
<trkpt lat="53.390800" lon="-1.609743"><ele>364</ele><time>2020-05-21T11:44:41Z</time><name>PT6674</name></trkpt>
<trkpt lat="53.390802" lon="-1.609750"><ele>364</ele><time>2020-05-21T11:44:43Z</time><name>PT6675</name></trkpt>
<trkpt lat="53.390804" lon="-1.609766"><ele>363</ele><time>2020-05-21T11:44:44Z</time><name>PT6676</name></trkpt>
<trkpt lat="53.390806" lon="-1.609782"><ele>363</ele><time>2020-05-21T11:44:44Z</time><name>PT6677</name></trkpt>
<trkpt lat="53.390809" lon="-1.609800"><ele>363</ele><time>2020-05-21T11:44:45Z</time><name>PT6678</name></trkpt>
<trkpt lat="53.390811" lon="-1.609815"><ele>363</ele><time>2020-05-21T11:44:47Z</time><name>PT6679</name></trkpt>
<trkpt lat="53.390812" lon="-1.609828"><ele>363</ele><time>2020-05-21T11:44:47Z</time><name>PT6680</name></trkpt>
<trkpt lat="53.390814" lon="-1.609844"><ele>363</ele><time>2020-05-21T11:44:48Z</time><name>PT6681</name></trkpt>
<trkpt lat="53.390819" lon="-1.609867"><ele>363</ele><time>2020-05-21T11:44:50Z</time><name>PT6682</name></trkpt>
<trkpt lat="53.390822" lon="-1.609889"><ele>364</ele><time>2020-05-21T11:44:50Z</time><name>PT6683</name></trkpt>
<trkpt lat="53.390821" lon="-1.609906"><ele>364</ele><time>2020-05-21T11:44:51Z</time><name>PT6684</name></trkpt>
<trkpt lat="53.390821" lon="-1.609928"><ele>364</ele><time>2020-05-21T11:44:53Z</time><name>PT6685</name></trkpt>
<trkpt lat="53.390824" lon="-1.609948"><ele>365</ele><time>2020-05-21T11:44:53Z</time><name>PT6686</name></trkpt>
<trkpt lat="53.390827" lon="-1.609975"><ele>365</ele><time>2020-05-21T11:44:54Z</time><name>PT6687</name></trkpt>
<trkpt lat="53.390826" lon="-1.610002"><ele>366</ele><time>2020-05-21T11:44:56Z</time><name>PT6688</name></trkpt>
<trkpt lat="53.390828" lon="-1.610021"><ele>366</ele><time>2020-05-21T11:44:56Z</time><name>PT6689</name></trkpt>
<trkpt lat="53.390832" lon="-1.610036"><ele>366</ele><time>2020-05-21T11:44:57Z</time><name>PT6690</name></trkpt>
<trkpt lat="53.390836" lon="-1.610054"><ele>366</ele><time>2020-05-21T11:44:59Z</time><name>PT6691</name></trkpt>
<trkpt lat="53.390837" lon="-1.610075"><ele>366</ele><time>2020-05-21T11:44:59Z</time><name>PT6692</name></trkpt>
<trkpt lat="53.390839" lon="-1.610099"><ele>367</ele><time>2020-05-21T11:45:00Z</time><name>PT6693</name></trkpt>
<trkpt lat="53.390844" lon="-1.610127"><ele>368</ele><time>2020-05-21T11:45:02Z</time><name>PT6694</name></trkpt>
<trkpt lat="53.390846" lon="-1.610142"><ele>368</ele><time>2020-05-21T11:45:02Z</time><name>PT6695</name></trkpt>
<trkpt lat="53.390846" lon="-1.610150"><ele>367</ele><time>2020-05-21T11:45:03Z</time><name>PT6696</name></trkpt>
<trkpt lat="53.390847" lon="-1.610148"><ele>366</ele><time>2020-05-21T11:45:05Z</time><name>PT6697</name></trkpt>
<trkpt lat="53.390848" lon="-1.610150"><ele>366</ele><time>2020-05-21T11:45:05Z</time><name>PT6698</name></trkpt>
<trkpt lat="53.390847" lon="-1.610150"><ele>366</ele><time>2020-05-21T11:45:06Z</time><name>PT6699</name></trkpt>
<trkpt lat="53.390847" lon="-1.610152"><ele>366</ele><time>2020-05-21T11:45:08Z</time><name>PT6700</name></trkpt>
<trkpt lat="53.390843" lon="-1.610147"><ele>366</ele><time>2020-05-21T11:45:08Z</time><name>PT6701</name></trkpt>
<trkpt lat="53.390842" lon="-1.610146"><ele>365</ele><time>2020-05-21T11:45:09Z</time><name>PT6702</name></trkpt>
<trkpt lat="53.390847" lon="-1.610152"><ele>364</ele><time>2020-05-21T11:45:11Z</time><name>PT6703</name></trkpt>
<trkpt lat="53.390847" lon="-1.610157"><ele>364</ele><time>2020-05-21T11:45:11Z</time><name>PT6704</name></trkpt>
<trkpt lat="53.390847" lon="-1.610160"><ele>364</ele><time>2020-05-21T11:45:12Z</time><name>PT6705</name></trkpt>
<trkpt lat="53.390845" lon="-1.610160"><ele>364</ele><time>2020-05-21T11:45:14Z</time><name>PT6706</name></trkpt>
<trkpt lat="53.390844" lon="-1.610159"><ele>365</ele><time>2020-05-21T11:45:14Z</time><name>PT6707</name></trkpt>
<trkpt lat="53.390844" lon="-1.610158"><ele>365</ele><time>2020-05-21T11:45:15Z</time><name>PT6708</name></trkpt>
<trkpt lat="53.390841" lon="-1.610158"><ele>365</ele><time>2020-05-21T11:45:26Z</time><name>PT6709</name></trkpt>
<trkpt lat="53.390842" lon="-1.610157"><ele>365</ele><time>2020-05-21T11:45:27Z</time><name>PT6710</name></trkpt>
<trkpt lat="53.390841" lon="-1.610158"><ele>365</ele><time>2020-05-21T11:45:29Z</time><name>PT6711</name></trkpt>
<trkpt lat="53.390844" lon="-1.610161"><ele>365</ele><time>2020-05-21T11:45:54Z</time><name>PT6712</name></trkpt>
<trkpt lat="53.390843" lon="-1.610160"><ele>365</ele><time>2020-05-21T11:45:55Z</time><name>PT6713</name></trkpt>
<trkpt lat="53.390843" lon="-1.610159"><ele>364</ele><time>2020-05-21T11:45:57Z</time><name>PT6714</name></trkpt>
<trkpt lat="53.390842" lon="-1.610160"><ele>365</ele><time>2020-05-21T11:45:57Z</time><name>PT6715</name></trkpt>
<trkpt lat="53.390841" lon="-1.610163"><ele>364</ele><time>2020-05-21T11:46:57Z</time><name>PT6716</name></trkpt>
<trkpt lat="53.390844" lon="-1.610181"><ele>364</ele><time>2020-05-21T11:46:58Z</time><name>PT6717</name></trkpt>
<trkpt lat="53.390850" lon="-1.610201"><ele>365</ele><time>2020-05-21T11:47:00Z</time><name>PT6718</name></trkpt>
<trkpt lat="53.390853" lon="-1.610221"><ele>366</ele><time>2020-05-21T11:47:00Z</time><name>PT6719</name></trkpt>
<trkpt lat="53.390858" lon="-1.610263"><ele>366</ele><time>2020-05-21T11:47:03Z</time><name>PT6720</name></trkpt>
<trkpt lat="53.390861" lon="-1.610271"><ele>365</ele><time>2020-05-21T11:47:03Z</time><name>PT6721</name></trkpt>
<trkpt lat="53.390863" lon="-1.610291"><ele>366</ele><time>2020-05-21T11:47:04Z</time><name>PT6722</name></trkpt>
<trkpt lat="53.390867" lon="-1.610312"><ele>366</ele><time>2020-05-21T11:47:06Z</time><name>PT6723</name></trkpt>
<trkpt lat="53.390870" lon="-1.610335"><ele>366</ele><time>2020-05-21T11:47:06Z</time><name>PT6724</name></trkpt>
<trkpt lat="53.390874" lon="-1.610361"><ele>366</ele><time>2020-05-21T11:47:07Z</time><name>PT6725</name></trkpt>
<trkpt lat="53.390880" lon="-1.610388"><ele>366</ele><time>2020-05-21T11:47:09Z</time><name>PT6726</name></trkpt>
<trkpt lat="53.390882" lon="-1.610408"><ele>366</ele><time>2020-05-21T11:47:09Z</time><name>PT6727</name></trkpt>
<trkpt lat="53.390881" lon="-1.610431"><ele>366</ele><time>2020-05-21T11:47:10Z</time><name>PT6728</name></trkpt>
<trkpt lat="53.390883" lon="-1.610454"><ele>367</ele><time>2020-05-21T11:47:12Z</time><name>PT6729</name></trkpt>
<trkpt lat="53.390888" lon="-1.610477"><ele>367</ele><time>2020-05-21T11:47:12Z</time><name>PT6730</name></trkpt>
<trkpt lat="53.390892" lon="-1.610503"><ele>367</ele><time>2020-05-21T11:47:13Z</time><name>PT6731</name></trkpt>
<trkpt lat="53.390897" lon="-1.610529"><ele>367</ele><time>2020-05-21T11:47:15Z</time><name>PT6732</name></trkpt>
<trkpt lat="53.390902" lon="-1.610555"><ele>367</ele><time>2020-05-21T11:47:15Z</time><name>PT6733</name></trkpt>
<trkpt lat="53.390901" lon="-1.610577"><ele>368</ele><time>2020-05-21T11:47:16Z</time><name>PT6734</name></trkpt>
<trkpt lat="53.390901" lon="-1.610592"><ele>367</ele><time>2020-05-21T11:47:18Z</time><name>PT6735</name></trkpt>
<trkpt lat="53.390907" lon="-1.610619"><ele>368</ele><time>2020-05-21T11:47:19Z</time><name>PT6736</name></trkpt>
<trkpt lat="53.390909" lon="-1.610641"><ele>369</ele><time>2020-05-21T11:47:19Z</time><name>PT6737</name></trkpt>
<trkpt lat="53.390912" lon="-1.610664"><ele>369</ele><time>2020-05-21T11:47:20Z</time><name>PT6738</name></trkpt>
<trkpt lat="53.390912" lon="-1.610689"><ele>370</ele><time>2020-05-21T11:47:21Z</time><name>PT6739</name></trkpt>
<trkpt lat="53.390913" lon="-1.610714"><ele>370</ele><time>2020-05-21T11:47:23Z</time><name>PT6740</name></trkpt>
<trkpt lat="53.390914" lon="-1.610736"><ele>371</ele><time>2020-05-21T11:47:23Z</time><name>PT6741</name></trkpt>
<trkpt lat="53.390914" lon="-1.610752"><ele>371</ele><time>2020-05-21T11:47:24Z</time><name>PT6742</name></trkpt>
<trkpt lat="53.390916" lon="-1.610772"><ele>371</ele><time>2020-05-21T11:47:26Z</time><name>PT6743</name></trkpt>
<trkpt lat="53.390916" lon="-1.610793"><ele>371</ele><time>2020-05-21T11:47:26Z</time><name>PT6744</name></trkpt>
<trkpt lat="53.390917" lon="-1.610818"><ele>371</ele><time>2020-05-21T11:47:27Z</time><name>PT6745</name></trkpt>
<trkpt lat="53.390919" lon="-1.610844"><ele>372</ele><time>2020-05-21T11:47:29Z</time><name>PT6746</name></trkpt>
<trkpt lat="53.390919" lon="-1.610873"><ele>372</ele><time>2020-05-21T11:47:29Z</time><name>PT6747</name></trkpt>
<trkpt lat="53.390924" lon="-1.610919"><ele>374</ele><time>2020-05-21T11:47:32Z</time><name>PT6748</name></trkpt>
<trkpt lat="53.390924" lon="-1.610935"><ele>373</ele><time>2020-05-21T11:47:32Z</time><name>PT6749</name></trkpt>
<trkpt lat="53.390925" lon="-1.610951"><ele>372</ele><time>2020-05-21T11:47:33Z</time><name>PT6750</name></trkpt>
<trkpt lat="53.390924" lon="-1.610972"><ele>372</ele><time>2020-05-21T11:47:35Z</time><name>PT6751</name></trkpt>
<trkpt lat="53.390926" lon="-1.610994"><ele>373</ele><time>2020-05-21T11:47:35Z</time><name>PT6752</name></trkpt>
<trkpt lat="53.390925" lon="-1.611025"><ele>373</ele><time>2020-05-21T11:47:36Z</time><name>PT6753</name></trkpt>
<trkpt lat="53.390927" lon="-1.611055"><ele>373</ele><time>2020-05-21T11:47:38Z</time><name>PT6754</name></trkpt>
<trkpt lat="53.390926" lon="-1.611077"><ele>373</ele><time>2020-05-21T11:47:38Z</time><name>PT6755</name></trkpt>
<trkpt lat="53.390924" lon="-1.611095"><ele>373</ele><time>2020-05-21T11:47:39Z</time><name>PT6756</name></trkpt>
<trkpt lat="53.390926" lon="-1.611113"><ele>373</ele><time>2020-05-21T11:47:41Z</time><name>PT6757</name></trkpt>
<trkpt lat="53.390929" lon="-1.611136"><ele>372</ele><time>2020-05-21T11:47:41Z</time><name>PT6758</name></trkpt>
<trkpt lat="53.390932" lon="-1.611161"><ele>372</ele><time>2020-05-21T11:47:42Z</time><name>PT6759</name></trkpt>
<trkpt lat="53.390935" lon="-1.611183"><ele>372</ele><time>2020-05-21T11:47:44Z</time><name>PT6760</name></trkpt>
<trkpt lat="53.390938" lon="-1.611208"><ele>372</ele><time>2020-05-21T11:47:44Z</time><name>PT6761</name></trkpt>
<trkpt lat="53.390939" lon="-1.611236"><ele>372</ele><time>2020-05-21T11:47:45Z</time><name>PT6762</name></trkpt>
<trkpt lat="53.390938" lon="-1.611250"><ele>373</ele><time>2020-05-21T11:47:47Z</time><name>PT6763</name></trkpt>
<trkpt lat="53.390939" lon="-1.611261"><ele>372</ele><time>2020-05-21T11:47:47Z</time><name>PT6764</name></trkpt>
<trkpt lat="53.390942" lon="-1.611278"><ele>372</ele><time>2020-05-21T11:47:48Z</time><name>PT6765</name></trkpt>
<trkpt lat="53.390942" lon="-1.611301"><ele>372</ele><time>2020-05-21T11:47:50Z</time><name>PT6766</name></trkpt>
<trkpt lat="53.390941" lon="-1.611328"><ele>372</ele><time>2020-05-21T11:47:50Z</time><name>PT6767</name></trkpt>
<trkpt lat="53.390942" lon="-1.611355"><ele>373</ele><time>2020-05-21T11:47:51Z</time><name>PT6768</name></trkpt>
<trkpt lat="53.390942" lon="-1.611373"><ele>373</ele><time>2020-05-21T11:47:53Z</time><name>PT6769</name></trkpt>
<trkpt lat="53.390941" lon="-1.611389"><ele>373</ele><time>2020-05-21T11:47:53Z</time><name>PT6770</name></trkpt>
<trkpt lat="53.390939" lon="-1.611411"><ele>373</ele><time>2020-05-21T11:47:54Z</time><name>PT6771</name></trkpt>
<trkpt lat="53.390939" lon="-1.611436"><ele>373</ele><time>2020-05-21T11:47:56Z</time><name>PT6772</name></trkpt>
<trkpt lat="53.390942" lon="-1.611462"><ele>373</ele><time>2020-05-21T11:47:56Z</time><name>PT6773</name></trkpt>
<trkpt lat="53.390946" lon="-1.611489"><ele>374</ele><time>2020-05-21T11:47:57Z</time><name>PT6774</name></trkpt>
<trkpt lat="53.390948" lon="-1.611511"><ele>373</ele><time>2020-05-21T11:47:59Z</time><name>PT6775</name></trkpt>
<trkpt lat="53.390948" lon="-1.611521"><ele>373</ele><time>2020-05-21T11:47:59Z</time><name>PT6776</name></trkpt>
<trkpt lat="53.390948" lon="-1.611529"><ele>372</ele><time>2020-05-21T11:48:00Z</time><name>PT6777</name></trkpt>
<trkpt lat="53.390947" lon="-1.611547"><ele>372</ele><time>2020-05-21T11:48:02Z</time><name>PT6778</name></trkpt>
<trkpt lat="53.390947" lon="-1.611568"><ele>373</ele><time>2020-05-21T11:48:02Z</time><name>PT6779</name></trkpt>
<trkpt lat="53.390947" lon="-1.611583"><ele>373</ele><time>2020-05-21T11:48:03Z</time><name>PT6780</name></trkpt>
<trkpt lat="53.390944" lon="-1.611605"><ele>373</ele><time>2020-05-21T11:48:05Z</time><name>PT6781</name></trkpt>
<trkpt lat="53.390945" lon="-1.611626"><ele>374</ele><time>2020-05-21T11:48:05Z</time><name>PT6782</name></trkpt>
<trkpt lat="53.390946" lon="-1.611648"><ele>374</ele><time>2020-05-21T11:48:06Z</time><name>PT6783</name></trkpt>
<trkpt lat="53.390947" lon="-1.611676"><ele>374</ele><time>2020-05-21T11:48:08Z</time><name>PT6784</name></trkpt>
<trkpt lat="53.390946" lon="-1.611699"><ele>375</ele><time>2020-05-21T11:48:08Z</time><name>PT6785</name></trkpt>
<trkpt lat="53.390946" lon="-1.611711"><ele>373</ele><time>2020-05-21T11:48:09Z</time><name>PT6786</name></trkpt>
<trkpt lat="53.390946" lon="-1.611727"><ele>372</ele><time>2020-05-21T11:48:11Z</time><name>PT6787</name></trkpt>
<trkpt lat="53.390945" lon="-1.611749"><ele>371</ele><time>2020-05-21T11:48:11Z</time><name>PT6788</name></trkpt>
<trkpt lat="53.390945" lon="-1.611774"><ele>372</ele><time>2020-05-21T11:48:12Z</time><name>PT6789</name></trkpt>
<trkpt lat="53.390945" lon="-1.611797"><ele>372</ele><time>2020-05-21T11:48:14Z</time><name>PT6790</name></trkpt>
<trkpt lat="53.390945" lon="-1.611818"><ele>372</ele><time>2020-05-21T11:48:14Z</time><name>PT6791</name></trkpt>
<trkpt lat="53.390945" lon="-1.611834"><ele>372</ele><time>2020-05-21T11:48:15Z</time><name>PT6792</name></trkpt>
<trkpt lat="53.390944" lon="-1.611851"><ele>371</ele><time>2020-05-21T11:48:17Z</time><name>PT6793</name></trkpt>
<trkpt lat="53.390944" lon="-1.611873"><ele>371</ele><time>2020-05-21T11:48:17Z</time><name>PT6794</name></trkpt>
<trkpt lat="53.390945" lon="-1.611899"><ele>371</ele><time>2020-05-21T11:48:18Z</time><name>PT6795</name></trkpt>
<trkpt lat="53.390947" lon="-1.611924"><ele>371</ele><time>2020-05-21T11:48:20Z</time><name>PT6796</name></trkpt>
<trkpt lat="53.390949" lon="-1.611942"><ele>372</ele><time>2020-05-21T11:48:20Z</time><name>PT6797</name></trkpt>
<trkpt lat="53.390949" lon="-1.611957"><ele>371</ele><time>2020-05-21T11:48:21Z</time><name>PT6798</name></trkpt>
<trkpt lat="53.390948" lon="-1.611977"><ele>370</ele><time>2020-05-21T11:48:23Z</time><name>PT6799</name></trkpt>
<trkpt lat="53.390949" lon="-1.612002"><ele>370</ele><time>2020-05-21T11:48:23Z</time><name>PT6800</name></trkpt>
<trkpt lat="53.390952" lon="-1.612026"><ele>370</ele><time>2020-05-21T11:48:24Z</time><name>PT6801</name></trkpt>
<trkpt lat="53.390954" lon="-1.612052"><ele>370</ele><time>2020-05-21T11:48:26Z</time><name>PT6802</name></trkpt>
<trkpt lat="53.390955" lon="-1.612074"><ele>371</ele><time>2020-05-21T11:48:26Z</time><name>PT6803</name></trkpt>
<trkpt lat="53.390956" lon="-1.612092"><ele>371</ele><time>2020-05-21T11:48:27Z</time><name>PT6804</name></trkpt>
<trkpt lat="53.390955" lon="-1.612111"><ele>371</ele><time>2020-05-21T11:48:29Z</time><name>PT6805</name></trkpt>
<trkpt lat="53.390956" lon="-1.612132"><ele>371</ele><time>2020-05-21T11:48:29Z</time><name>PT6806</name></trkpt>
<trkpt lat="53.390955" lon="-1.612152"><ele>371</ele><time>2020-05-21T11:48:30Z</time><name>PT6807</name></trkpt>
<trkpt lat="53.390954" lon="-1.612178"><ele>371</ele><time>2020-05-21T11:48:32Z</time><name>PT6808</name></trkpt>
<trkpt lat="53.390952" lon="-1.612206"><ele>371</ele><time>2020-05-21T11:48:32Z</time><name>PT6809</name></trkpt>
<trkpt lat="53.390952" lon="-1.612230"><ele>371</ele><time>2020-05-21T11:48:33Z</time><name>PT6810</name></trkpt>
<trkpt lat="53.390950" lon="-1.612247"><ele>371</ele><time>2020-05-21T11:48:35Z</time><name>PT6811</name></trkpt>
<trkpt lat="53.390948" lon="-1.612265"><ele>371</ele><time>2020-05-21T11:48:35Z</time><name>PT6812</name></trkpt>
<trkpt lat="53.390947" lon="-1.612288"><ele>371</ele><time>2020-05-21T11:48:36Z</time><name>PT6813</name></trkpt>
<trkpt lat="53.390947" lon="-1.612312"><ele>371</ele><time>2020-05-21T11:48:38Z</time><name>PT6814</name></trkpt>
<trkpt lat="53.390945" lon="-1.612339"><ele>370</ele><time>2020-05-21T11:48:38Z</time><name>PT6815</name></trkpt>
<trkpt lat="53.390945" lon="-1.612366"><ele>370</ele><time>2020-05-21T11:48:39Z</time><name>PT6816</name></trkpt>
<trkpt lat="53.390944" lon="-1.612385"><ele>371</ele><time>2020-05-21T11:48:41Z</time><name>PT6817</name></trkpt>
<trkpt lat="53.390942" lon="-1.612401"><ele>371</ele><time>2020-05-21T11:48:41Z</time><name>PT6818</name></trkpt>
<trkpt lat="53.390943" lon="-1.612414"><ele>370</ele><time>2020-05-21T11:48:42Z</time><name>PT6819</name></trkpt>
<trkpt lat="53.390944" lon="-1.612434"><ele>370</ele><time>2020-05-21T11:48:44Z</time><name>PT6820</name></trkpt>
<trkpt lat="53.390945" lon="-1.612455"><ele>370</ele><time>2020-05-21T11:48:44Z</time><name>PT6821</name></trkpt>
<trkpt lat="53.390945" lon="-1.612481"><ele>370</ele><time>2020-05-21T11:48:45Z</time><name>PT6822</name></trkpt>
<trkpt lat="53.390943" lon="-1.612504"><ele>370</ele><time>2020-05-21T11:48:47Z</time><name>PT6823</name></trkpt>
<trkpt lat="53.390944" lon="-1.612521"><ele>370</ele><time>2020-05-21T11:48:47Z</time><name>PT6824</name></trkpt>
<trkpt lat="53.390945" lon="-1.612540"><ele>370</ele><time>2020-05-21T11:48:48Z</time><name>PT6825</name></trkpt>
<trkpt lat="53.390946" lon="-1.612563"><ele>370</ele><time>2020-05-21T11:48:50Z</time><name>PT6826</name></trkpt>
<trkpt lat="53.390949" lon="-1.612582"><ele>370</ele><time>2020-05-21T11:48:50Z</time><name>PT6827</name></trkpt>
<trkpt lat="53.390951" lon="-1.612606"><ele>371</ele><time>2020-05-21T11:48:51Z</time><name>PT6828</name></trkpt>
<trkpt lat="53.390952" lon="-1.612632"><ele>371</ele><time>2020-05-21T11:48:53Z</time><name>PT6829</name></trkpt>
<trkpt lat="53.390952" lon="-1.612647"><ele>372</ele><time>2020-05-21T11:48:53Z</time><name>PT6830</name></trkpt>
<trkpt lat="53.390951" lon="-1.612663"><ele>371</ele><time>2020-05-21T11:48:54Z</time><name>PT6831</name></trkpt>
<trkpt lat="53.390951" lon="-1.612685"><ele>371</ele><time>2020-05-21T11:48:56Z</time><name>PT6832</name></trkpt>
<trkpt lat="53.390951" lon="-1.612708"><ele>371</ele><time>2020-05-21T11:48:56Z</time><name>PT6833</name></trkpt>
<trkpt lat="53.390953" lon="-1.612736"><ele>372</ele><time>2020-05-21T11:48:57Z</time><name>PT6834</name></trkpt>
<trkpt lat="53.390953" lon="-1.612761"><ele>372</ele><time>2020-05-21T11:48:59Z</time><name>PT6835</name></trkpt>
<trkpt lat="53.390953" lon="-1.612781"><ele>372</ele><time>2020-05-21T11:48:59Z</time><name>PT6836</name></trkpt>
<trkpt lat="53.390956" lon="-1.612794"><ele>371</ele><time>2020-05-21T11:49:00Z</time><name>PT6837</name></trkpt>
<trkpt lat="53.390958" lon="-1.612808"><ele>369</ele><time>2020-05-21T11:49:02Z</time><name>PT6838</name></trkpt>
<trkpt lat="53.390959" lon="-1.612829"><ele>369</ele><time>2020-05-21T11:49:02Z</time><name>PT6839</name></trkpt>
<trkpt lat="53.390960" lon="-1.612855"><ele>368</ele><time>2020-05-21T11:49:03Z</time><name>PT6840</name></trkpt>
<trkpt lat="53.390959" lon="-1.612884"><ele>369</ele><time>2020-05-21T11:49:05Z</time><name>PT6841</name></trkpt>
<trkpt lat="53.390957" lon="-1.612909"><ele>369</ele><time>2020-05-21T11:49:05Z</time><name>PT6842</name></trkpt>
<trkpt lat="53.390955" lon="-1.612927"><ele>369</ele><time>2020-05-21T11:49:07Z</time><name>PT6843</name></trkpt>
<trkpt lat="53.390954" lon="-1.612945"><ele>368</ele><time>2020-05-21T11:49:08Z</time><name>PT6844</name></trkpt>
<trkpt lat="53.390954" lon="-1.612969"><ele>369</ele><time>2020-05-21T11:49:09Z</time><name>PT6845</name></trkpt>
<trkpt lat="53.390953" lon="-1.612993"><ele>368</ele><time>2020-05-21T11:49:10Z</time><name>PT6846</name></trkpt>
<trkpt lat="53.390953" lon="-1.613017"><ele>368</ele><time>2020-05-21T11:49:11Z</time><name>PT6847</name></trkpt>
<trkpt lat="53.390957" lon="-1.613041"><ele>368</ele><time>2020-05-21T11:49:11Z</time><name>PT6848</name></trkpt>
<trkpt lat="53.390959" lon="-1.613061"><ele>368</ele><time>2020-05-21T11:49:13Z</time><name>PT6849</name></trkpt>
<trkpt lat="53.390960" lon="-1.613081"><ele>367</ele><time>2020-05-21T11:49:14Z</time><name>PT6850</name></trkpt>
<trkpt lat="53.390962" lon="-1.613097"><ele>367</ele><time>2020-05-21T11:49:15Z</time><name>PT6851</name></trkpt>
<trkpt lat="53.390966" lon="-1.613114"><ele>367</ele><time>2020-05-21T11:49:16Z</time><name>PT6852</name></trkpt>
<trkpt lat="53.390968" lon="-1.613134"><ele>367</ele><time>2020-05-21T11:49:17Z</time><name>PT6853</name></trkpt>
<trkpt lat="53.390967" lon="-1.613160"><ele>367</ele><time>2020-05-21T11:49:18Z</time><name>PT6854</name></trkpt>
<trkpt lat="53.390966" lon="-1.613189"><ele>367</ele><time>2020-05-21T11:49:19Z</time><name>PT6855</name></trkpt>
<trkpt lat="53.390962" lon="-1.613213"><ele>367</ele><time>2020-05-21T11:49:20Z</time><name>PT6856</name></trkpt>
<trkpt lat="53.390961" lon="-1.613231"><ele>367</ele><time>2020-05-21T11:49:20Z</time><name>PT6857</name></trkpt>
<trkpt lat="53.390963" lon="-1.613249"><ele>368</ele><time>2020-05-21T11:49:21Z</time><name>PT6858</name></trkpt>
<trkpt lat="53.390962" lon="-1.613271"><ele>367</ele><time>2020-05-21T11:49:23Z</time><name>PT6859</name></trkpt>
<trkpt lat="53.390963" lon="-1.613299"><ele>367</ele><time>2020-05-21T11:49:23Z</time><name>PT6860</name></trkpt>
<trkpt lat="53.390965" lon="-1.613323"><ele>366</ele><time>2020-05-21T11:49:25Z</time><name>PT6861</name></trkpt>
<trkpt lat="53.390964" lon="-1.613354"><ele>366</ele><time>2020-05-21T11:49:26Z</time><name>PT6862</name></trkpt>
<trkpt lat="53.390963" lon="-1.613381"><ele>367</ele><time>2020-05-21T11:49:27Z</time><name>PT6863</name></trkpt>
<trkpt lat="53.390964" lon="-1.613398"><ele>367</ele><time>2020-05-21T11:49:27Z</time><name>PT6864</name></trkpt>
<trkpt lat="53.390965" lon="-1.613418"><ele>367</ele><time>2020-05-21T11:49:29Z</time><name>PT6865</name></trkpt>
<trkpt lat="53.390966" lon="-1.613443"><ele>367</ele><time>2020-05-21T11:49:29Z</time><name>PT6866</name></trkpt>
<trkpt lat="53.390966" lon="-1.613468"><ele>367</ele><time>2020-05-21T11:49:30Z</time><name>PT6867</name></trkpt>
<trkpt lat="53.390964" lon="-1.613496"><ele>368</ele><time>2020-05-21T11:49:32Z</time><name>PT6868</name></trkpt>
<trkpt lat="53.390962" lon="-1.613526"><ele>368</ele><time>2020-05-21T11:49:32Z</time><name>PT6869</name></trkpt>
<trkpt lat="53.390962" lon="-1.613547"><ele>368</ele><time>2020-05-21T11:49:33Z</time><name>PT6870</name></trkpt>
<trkpt lat="53.390963" lon="-1.613564"><ele>368</ele><time>2020-05-21T11:49:35Z</time><name>PT6871</name></trkpt>
<trkpt lat="53.390964" lon="-1.613581"><ele>368</ele><time>2020-05-21T11:49:35Z</time><name>PT6872</name></trkpt>
<trkpt lat="53.390967" lon="-1.613605"><ele>368</ele><time>2020-05-21T11:49:36Z</time><name>PT6873</name></trkpt>
<trkpt lat="53.390970" lon="-1.613629"><ele>368</ele><time>2020-05-21T11:49:38Z</time><name>PT6874</name></trkpt>
<trkpt lat="53.390974" lon="-1.613660"><ele>369</ele><time>2020-05-21T11:49:38Z</time><name>PT6875</name></trkpt>
<trkpt lat="53.390976" lon="-1.613687"><ele>369</ele><time>2020-05-21T11:49:40Z</time><name>PT6876</name></trkpt>
<trkpt lat="53.390975" lon="-1.613707"><ele>369</ele><time>2020-05-21T11:49:41Z</time><name>PT6877</name></trkpt>
<trkpt lat="53.390977" lon="-1.613725"><ele>369</ele><time>2020-05-21T11:49:41Z</time><name>PT6878</name></trkpt>
<trkpt lat="53.390977" lon="-1.613746"><ele>369</ele><time>2020-05-21T11:49:42Z</time><name>PT6879</name></trkpt>
<trkpt lat="53.390979" lon="-1.613771"><ele>369</ele><time>2020-05-21T11:49:44Z</time><name>PT6880</name></trkpt>
<trkpt lat="53.390980" lon="-1.613797"><ele>369</ele><time>2020-05-21T11:49:44Z</time><name>PT6881</name></trkpt>
<trkpt lat="53.390981" lon="-1.613826"><ele>369</ele><time>2020-05-21T11:49:45Z</time><name>PT6882</name></trkpt>
<trkpt lat="53.390983" lon="-1.613853"><ele>370</ele><time>2020-05-21T11:49:47Z</time><name>PT6883</name></trkpt>
<trkpt lat="53.390983" lon="-1.613879"><ele>370</ele><time>2020-05-21T11:49:47Z</time><name>PT6884</name></trkpt>
<trkpt lat="53.390983" lon="-1.613900"><ele>370</ele><time>2020-05-21T11:49:48Z</time><name>PT6885</name></trkpt>
<trkpt lat="53.390985" lon="-1.613919"><ele>370</ele><time>2020-05-21T11:49:50Z</time><name>PT6886</name></trkpt>
<trkpt lat="53.390984" lon="-1.613941"><ele>370</ele><time>2020-05-21T11:49:50Z</time><name>PT6887</name></trkpt>
<trkpt lat="53.390986" lon="-1.613968"><ele>371</ele><time>2020-05-21T11:49:51Z</time><name>PT6888</name></trkpt>
<trkpt lat="53.390988" lon="-1.613998"><ele>371</ele><time>2020-05-21T11:49:53Z</time><name>PT6889</name></trkpt>
<trkpt lat="53.390990" lon="-1.614028"><ele>371</ele><time>2020-05-21T11:49:53Z</time><name>PT6890</name></trkpt>
<trkpt lat="53.390992" lon="-1.614048"><ele>371</ele><time>2020-05-21T11:49:55Z</time><name>PT6891</name></trkpt>
<trkpt lat="53.390993" lon="-1.614064"><ele>371</ele><time>2020-05-21T11:49:56Z</time><name>PT6892</name></trkpt>
<trkpt lat="53.390994" lon="-1.614078"><ele>370</ele><time>2020-05-21T11:49:57Z</time><name>PT6893</name></trkpt>
<trkpt lat="53.390992" lon="-1.614100"><ele>370</ele><time>2020-05-21T11:49:58Z</time><name>PT6894</name></trkpt>
<trkpt lat="53.390991" lon="-1.614122"><ele>370</ele><time>2020-05-21T11:49:59Z</time><name>PT6895</name></trkpt>
<trkpt lat="53.390995" lon="-1.614148"><ele>370</ele><time>2020-05-21T11:50:00Z</time><name>PT6896</name></trkpt>
<trkpt lat="53.390998" lon="-1.614174"><ele>371</ele><time>2020-05-21T11:50:01Z</time><name>PT6897</name></trkpt>
<trkpt lat="53.390997" lon="-1.614194"><ele>371</ele><time>2020-05-21T11:50:02Z</time><name>PT6898</name></trkpt>
<trkpt lat="53.390995" lon="-1.614214"><ele>372</ele><time>2020-05-21T11:50:03Z</time><name>PT6899</name></trkpt>
<trkpt lat="53.390996" lon="-1.614228"><ele>371</ele><time>2020-05-21T11:50:03Z</time><name>PT6900</name></trkpt>
<trkpt lat="53.390998" lon="-1.614244"><ele>369</ele><time>2020-05-21T11:50:05Z</time><name>PT6901</name></trkpt>
<trkpt lat="53.390998" lon="-1.614264"><ele>369</ele><time>2020-05-21T11:50:05Z</time><name>PT6902</name></trkpt>
<trkpt lat="53.391001" lon="-1.614284"><ele>369</ele><time>2020-05-21T11:50:06Z</time><name>PT6903</name></trkpt>
<trkpt lat="53.391001" lon="-1.614311"><ele>369</ele><time>2020-05-21T11:50:08Z</time><name>PT6904</name></trkpt>
<trkpt lat="53.391000" lon="-1.614330"><ele>369</ele><time>2020-05-21T11:50:08Z</time><name>PT6905</name></trkpt>
<trkpt lat="53.391001" lon="-1.614341"><ele>369</ele><time>2020-05-21T11:50:10Z</time><name>PT6906</name></trkpt>
<trkpt lat="53.391000" lon="-1.614362"><ele>368</ele><time>2020-05-21T11:50:11Z</time><name>PT6907</name></trkpt>
<trkpt lat="53.391001" lon="-1.614388"><ele>368</ele><time>2020-05-21T11:50:11Z</time><name>PT6908</name></trkpt>
<trkpt lat="53.391000" lon="-1.614413"><ele>368</ele><time>2020-05-21T11:50:13Z</time><name>PT6909</name></trkpt>
<trkpt lat="53.391002" lon="-1.614433"><ele>368</ele><time>2020-05-21T11:50:14Z</time><name>PT6910</name></trkpt>
<trkpt lat="53.391002" lon="-1.614457"><ele>368</ele><time>2020-05-21T11:50:14Z</time><name>PT6911</name></trkpt>
<trkpt lat="53.391003" lon="-1.614476"><ele>368</ele><time>2020-05-21T11:50:16Z</time><name>PT6912</name></trkpt>
<trkpt lat="53.391002" lon="-1.614494"><ele>368</ele><time>2020-05-21T11:50:17Z</time><name>PT6913</name></trkpt>
<trkpt lat="53.391001" lon="-1.614520"><ele>368</ele><time>2020-05-21T11:50:17Z</time><name>PT6914</name></trkpt>
<trkpt lat="53.391001" lon="-1.614540"><ele>368</ele><time>2020-05-21T11:50:18Z</time><name>PT6915</name></trkpt>
<trkpt lat="53.391003" lon="-1.614566"><ele>369</ele><time>2020-05-21T11:50:20Z</time><name>PT6916</name></trkpt>
<trkpt lat="53.391004" lon="-1.614593"><ele>369</ele><time>2020-05-21T11:50:20Z</time><name>PT6917</name></trkpt>
<trkpt lat="53.391004" lon="-1.614617"><ele>369</ele><time>2020-05-21T11:50:21Z</time><name>PT6918</name></trkpt>
<trkpt lat="53.391005" lon="-1.614636"><ele>369</ele><time>2020-05-21T11:50:23Z</time><name>PT6919</name></trkpt>
<trkpt lat="53.391005" lon="-1.614662"><ele>369</ele><time>2020-05-21T11:50:23Z</time><name>PT6920</name></trkpt>
<trkpt lat="53.391005" lon="-1.614687"><ele>368</ele><time>2020-05-21T11:50:24Z</time><name>PT6921</name></trkpt>
<trkpt lat="53.391004" lon="-1.614711"><ele>368</ele><time>2020-05-21T11:50:26Z</time><name>PT6922</name></trkpt>
<trkpt lat="53.391002" lon="-1.614738"><ele>368</ele><time>2020-05-21T11:50:26Z</time><name>PT6923</name></trkpt>
<trkpt lat="53.391001" lon="-1.614762"><ele>368</ele><time>2020-05-21T11:50:27Z</time><name>PT6924</name></trkpt>
<trkpt lat="53.391001" lon="-1.614779"><ele>369</ele><time>2020-05-21T11:50:29Z</time><name>PT6925</name></trkpt>
<trkpt lat="53.391003" lon="-1.614796"><ele>369</ele><time>2020-05-21T11:50:29Z</time><name>PT6926</name></trkpt>
<trkpt lat="53.391003" lon="-1.614819"><ele>369</ele><time>2020-05-21T11:50:30Z</time><name>PT6927</name></trkpt>
<trkpt lat="53.391003" lon="-1.614844"><ele>369</ele><time>2020-05-21T11:50:32Z</time><name>PT6928</name></trkpt>
<trkpt lat="53.391005" lon="-1.614869"><ele>370</ele><time>2020-05-21T11:50:33Z</time><name>PT6929</name></trkpt>
<trkpt lat="53.391005" lon="-1.614892"><ele>370</ele><time>2020-05-21T11:50:33Z</time><name>PT6930</name></trkpt>
<trkpt lat="53.391003" lon="-1.614913"><ele>370</ele><time>2020-05-21T11:50:35Z</time><name>PT6931</name></trkpt>
<trkpt lat="53.391004" lon="-1.614927"><ele>369</ele><time>2020-05-21T11:50:35Z</time><name>PT6932</name></trkpt>
<trkpt lat="53.391006" lon="-1.614944"><ele>369</ele><time>2020-05-21T11:50:36Z</time><name>PT6933</name></trkpt>
<trkpt lat="53.391007" lon="-1.614968"><ele>369</ele><time>2020-05-21T11:50:38Z</time><name>PT6934</name></trkpt>
<trkpt lat="53.391007" lon="-1.614995"><ele>369</ele><time>2020-05-21T11:50:38Z</time><name>PT6935</name></trkpt>
<trkpt lat="53.391007" lon="-1.615023"><ele>370</ele><time>2020-05-21T11:50:40Z</time><name>PT6936</name></trkpt>
<trkpt lat="53.391008" lon="-1.615046"><ele>370</ele><time>2020-05-21T11:50:41Z</time><name>PT6937</name></trkpt>
<trkpt lat="53.391007" lon="-1.615064"><ele>370</ele><time>2020-05-21T11:50:41Z</time><name>PT6938</name></trkpt>
<trkpt lat="53.391007" lon="-1.615083"><ele>370</ele><time>2020-05-21T11:50:43Z</time><name>PT6939</name></trkpt>
<trkpt lat="53.391009" lon="-1.615103"><ele>370</ele><time>2020-05-21T11:50:44Z</time><name>PT6940</name></trkpt>
<trkpt lat="53.391010" lon="-1.615125"><ele>370</ele><time>2020-05-21T11:50:45Z</time><name>PT6941</name></trkpt>
<trkpt lat="53.391010" lon="-1.615152"><ele>370</ele><time>2020-05-21T11:50:46Z</time><name>PT6942</name></trkpt>
<trkpt lat="53.391012" lon="-1.615181"><ele>371</ele><time>2020-05-21T11:50:47Z</time><name>PT6943</name></trkpt>
<trkpt lat="53.391013" lon="-1.615202"><ele>371</ele><time>2020-05-21T11:50:47Z</time><name>PT6944</name></trkpt>
<trkpt lat="53.391016" lon="-1.615219"><ele>371</ele><time>2020-05-21T11:50:48Z</time><name>PT6945</name></trkpt>
<trkpt lat="53.391016" lon="-1.615238"><ele>371</ele><time>2020-05-21T11:50:50Z</time><name>PT6946</name></trkpt>
<trkpt lat="53.391015" lon="-1.615259"><ele>371</ele><time>2020-05-21T11:50:50Z</time><name>PT6947</name></trkpt>
<trkpt lat="53.391017" lon="-1.615284"><ele>371</ele><time>2020-05-21T11:50:51Z</time><name>PT6948</name></trkpt>
<trkpt lat="53.391018" lon="-1.615310"><ele>371</ele><time>2020-05-21T11:50:53Z</time><name>PT6949</name></trkpt>
<trkpt lat="53.391017" lon="-1.615336"><ele>370</ele><time>2020-05-21T11:50:53Z</time><name>PT6950</name></trkpt>
<trkpt lat="53.391014" lon="-1.615354"><ele>371</ele><time>2020-05-21T11:50:55Z</time><name>PT6951</name></trkpt>
<trkpt lat="53.391014" lon="-1.615368"><ele>371</ele><time>2020-05-21T11:50:56Z</time><name>PT6952</name></trkpt>
<trkpt lat="53.391012" lon="-1.615382"><ele>370</ele><time>2020-05-21T11:50:56Z</time><name>PT6953</name></trkpt>
<trkpt lat="53.391009" lon="-1.615394"><ele>370</ele><time>2020-05-21T11:50:57Z</time><name>PT6954</name></trkpt>
<trkpt lat="53.391004" lon="-1.615408"><ele>370</ele><time>2020-05-21T11:50:59Z</time><name>PT6955</name></trkpt>
<trkpt lat="53.391002" lon="-1.615435"><ele>371</ele><time>2020-05-21T11:50:59Z</time><name>PT6956</name></trkpt>
<trkpt lat="53.391002" lon="-1.615461"><ele>371</ele><time>2020-05-21T11:51:00Z</time><name>PT6957</name></trkpt>
<trkpt lat="53.391003" lon="-1.615481"><ele>372</ele><time>2020-05-21T11:51:02Z</time><name>PT6958</name></trkpt>
<trkpt lat="53.391007" lon="-1.615501"><ele>372</ele><time>2020-05-21T11:51:02Z</time><name>PT6959</name></trkpt>
<trkpt lat="53.391011" lon="-1.615520"><ele>372</ele><time>2020-05-21T11:51:03Z</time><name>PT6960</name></trkpt>
<trkpt lat="53.391017" lon="-1.615548"><ele>371</ele><time>2020-05-21T11:51:05Z</time><name>PT6961</name></trkpt>
<trkpt lat="53.391020" lon="-1.615575"><ele>371</ele><time>2020-05-21T11:51:05Z</time><name>PT6962</name></trkpt>
<trkpt lat="53.391023" lon="-1.615605"><ele>372</ele><time>2020-05-21T11:51:07Z</time><name>PT6963</name></trkpt>
<trkpt lat="53.391023" lon="-1.615632"><ele>372</ele><time>2020-05-21T11:51:07Z</time><name>PT6964</name></trkpt>
<trkpt lat="53.391024" lon="-1.615663"><ele>372</ele><time>2020-05-21T11:51:08Z</time><name>PT6965</name></trkpt>
<trkpt lat="53.391025" lon="-1.615683"><ele>373</ele><time>2020-05-21T11:51:10Z</time><name>PT6966</name></trkpt>
<trkpt lat="53.391026" lon="-1.615696"><ele>372</ele><time>2020-05-21T11:51:10Z</time><name>PT6967</name></trkpt>
<trkpt lat="53.391024" lon="-1.615715"><ele>372</ele><time>2020-05-21T11:51:11Z</time><name>PT6968</name></trkpt>
<trkpt lat="53.391023" lon="-1.615736"><ele>371</ele><time>2020-05-21T11:51:13Z</time><name>PT6969</name></trkpt>
<trkpt lat="53.391021" lon="-1.615764"><ele>371</ele><time>2020-05-21T11:51:13Z</time><name>PT6970</name></trkpt>
<trkpt lat="53.391023" lon="-1.615794"><ele>372</ele><time>2020-05-21T11:51:14Z</time><name>PT6971</name></trkpt>
<trkpt lat="53.391025" lon="-1.615821"><ele>373</ele><time>2020-05-21T11:51:16Z</time><name>PT6972</name></trkpt>
<trkpt lat="53.391027" lon="-1.615838"><ele>372</ele><time>2020-05-21T11:51:16Z</time><name>PT6973</name></trkpt>
<trkpt lat="53.391030" lon="-1.615852"><ele>372</ele><time>2020-05-21T11:51:17Z</time><name>PT6974</name></trkpt>
<trkpt lat="53.391029" lon="-1.615875"><ele>372</ele><time>2020-05-21T11:51:19Z</time><name>PT6975</name></trkpt>
<trkpt lat="53.391029" lon="-1.615902"><ele>372</ele><time>2020-05-21T11:51:19Z</time><name>PT6976</name></trkpt>
<trkpt lat="53.391026" lon="-1.615925"><ele>372</ele><time>2020-05-21T11:51:20Z</time><name>PT6977</name></trkpt>
<trkpt lat="53.391028" lon="-1.615948"><ele>372</ele><time>2020-05-21T11:51:22Z</time><name>PT6978</name></trkpt>
<trkpt lat="53.391031" lon="-1.615973"><ele>373</ele><time>2020-05-21T11:51:22Z</time><name>PT6979</name></trkpt>
<trkpt lat="53.391034" lon="-1.615993"><ele>373</ele><time>2020-05-21T11:51:24Z</time><name>PT6980</name></trkpt>
<trkpt lat="53.391036" lon="-1.616009"><ele>373</ele><time>2020-05-21T11:51:25Z</time><name>PT6981</name></trkpt>
<trkpt lat="53.391039" lon="-1.616033"><ele>372</ele><time>2020-05-21T11:51:25Z</time><name>PT6982</name></trkpt>
<trkpt lat="53.391040" lon="-1.616056"><ele>373</ele><time>2020-05-21T11:51:26Z</time><name>PT6983</name></trkpt>
<trkpt lat="53.391041" lon="-1.616080"><ele>373</ele><time>2020-05-21T11:51:28Z</time><name>PT6984</name></trkpt>
<trkpt lat="53.391041" lon="-1.616103"><ele>373</ele><time>2020-05-21T11:51:28Z</time><name>PT6985</name></trkpt>
<trkpt lat="53.391042" lon="-1.616131"><ele>374</ele><time>2020-05-21T11:51:29Z</time><name>PT6986</name></trkpt>
<trkpt lat="53.391044" lon="-1.616153"><ele>374</ele><time>2020-05-21T11:51:31Z</time><name>PT6987</name></trkpt>
<trkpt lat="53.391047" lon="-1.616169"><ele>374</ele><time>2020-05-21T11:51:31Z</time><name>PT6988</name></trkpt>
<trkpt lat="53.391048" lon="-1.616187"><ele>375</ele><time>2020-05-21T11:51:33Z</time><name>PT6989</name></trkpt>
<trkpt lat="53.391050" lon="-1.616209"><ele>375</ele><time>2020-05-21T11:51:34Z</time><name>PT6990</name></trkpt>
<trkpt lat="53.391052" lon="-1.616234"><ele>375</ele><time>2020-05-21T11:51:34Z</time><name>PT6991</name></trkpt>
<trkpt lat="53.391057" lon="-1.616262"><ele>375</ele><time>2020-05-21T11:51:35Z</time><name>PT6992</name></trkpt>
<trkpt lat="53.391058" lon="-1.616288"><ele>375</ele><time>2020-05-21T11:51:37Z</time><name>PT6993</name></trkpt>
<trkpt lat="53.391059" lon="-1.616308"><ele>376</ele><time>2020-05-21T11:51:37Z</time><name>PT6994</name></trkpt>
<trkpt lat="53.391059" lon="-1.616322"><ele>374</ele><time>2020-05-21T11:51:39Z</time><name>PT6995</name></trkpt>
<trkpt lat="53.391059" lon="-1.616337"><ele>374</ele><time>2020-05-21T11:51:40Z</time><name>PT6996</name></trkpt>
<trkpt lat="53.391059" lon="-1.616359"><ele>373</ele><time>2020-05-21T11:51:40Z</time><name>PT6997</name></trkpt>
<trkpt lat="53.391055" lon="-1.616375"><ele>373</ele><time>2020-05-21T11:51:42Z</time><name>PT6998</name></trkpt>
<trkpt lat="53.391051" lon="-1.616401"><ele>373</ele><time>2020-05-21T11:51:43Z</time><name>PT6999</name></trkpt>
<trkpt lat="53.391050" lon="-1.616429"><ele>373</ele><time>2020-05-21T11:51:44Z</time><name>PT7000</name></trkpt>
<trkpt lat="53.391049" lon="-1.616448"><ele>372</ele><time>2020-05-21T11:51:44Z</time><name>PT7001</name></trkpt>
<trkpt lat="53.391047" lon="-1.616469"><ele>373</ele><time>2020-05-21T11:51:46Z</time><name>PT7002</name></trkpt>
<trkpt lat="53.391043" lon="-1.616488"><ele>372</ele><time>2020-05-21T11:51:47Z</time><name>PT7003</name></trkpt>
<trkpt lat="53.391042" lon="-1.616508"><ele>372</ele><time>2020-05-21T11:51:47Z</time><name>PT7004</name></trkpt>
<trkpt lat="53.391042" lon="-1.616532"><ele>372</ele><time>2020-05-21T11:51:49Z</time><name>PT7005</name></trkpt>
<trkpt lat="53.391042" lon="-1.616555"><ele>372</ele><time>2020-05-21T11:51:50Z</time><name>PT7006</name></trkpt>
<trkpt lat="53.391045" lon="-1.616574"><ele>372</ele><time>2020-05-21T11:51:51Z</time><name>PT7007</name></trkpt>
<trkpt lat="53.391047" lon="-1.616590"><ele>372</ele><time>2020-05-21T11:51:52Z</time><name>PT7008</name></trkpt>
<trkpt lat="53.391053" lon="-1.616614"><ele>372</ele><time>2020-05-21T11:51:53Z</time><name>PT7009</name></trkpt>
<trkpt lat="53.391056" lon="-1.616639"><ele>372</ele><time>2020-05-21T11:51:54Z</time><name>PT7010</name></trkpt>
<trkpt lat="53.391054" lon="-1.616659"><ele>372</ele><time>2020-05-21T11:51:55Z</time><name>PT7011</name></trkpt>
<trkpt lat="53.391056" lon="-1.616685"><ele>373</ele><time>2020-05-21T11:51:56Z</time><name>PT7012</name></trkpt>
<trkpt lat="53.391055" lon="-1.616709"><ele>373</ele><time>2020-05-21T11:51:57Z</time><name>PT7013</name></trkpt>
<trkpt lat="53.391055" lon="-1.616722"><ele>373</ele><time>2020-05-21T11:51:57Z</time><name>PT7014</name></trkpt>
<trkpt lat="53.391055" lon="-1.616736"><ele>373</ele><time>2020-05-21T11:51:58Z</time><name>PT7015</name></trkpt>
<trkpt lat="53.391056" lon="-1.616757"><ele>372</ele><time>2020-05-21T11:52:00Z</time><name>PT7016</name></trkpt>
<trkpt lat="53.391057" lon="-1.616779"><ele>372</ele><time>2020-05-21T11:52:00Z</time><name>PT7017</name></trkpt>
<trkpt lat="53.391056" lon="-1.616805"><ele>372</ele><time>2020-05-21T11:52:01Z</time><name>PT7018</name></trkpt>
<trkpt lat="53.391053" lon="-1.616826"><ele>372</ele><time>2020-05-21T11:52:03Z</time><name>PT7019</name></trkpt>
<trkpt lat="53.391055" lon="-1.616847"><ele>372</ele><time>2020-05-21T11:52:03Z</time><name>PT7020</name></trkpt>
<trkpt lat="53.391054" lon="-1.616868"><ele>373</ele><time>2020-05-21T11:52:04Z</time><name>PT7021</name></trkpt>
<trkpt lat="53.391055" lon="-1.616890"><ele>373</ele><time>2020-05-21T11:52:06Z</time><name>PT7022</name></trkpt>
<trkpt lat="53.391058" lon="-1.616912"><ele>372</ele><time>2020-05-21T11:52:06Z</time><name>PT7023</name></trkpt>
<trkpt lat="53.391059" lon="-1.616937"><ele>373</ele><time>2020-05-21T11:52:07Z</time><name>PT7024</name></trkpt>
<trkpt lat="53.391065" lon="-1.616964"><ele>373</ele><time>2020-05-21T11:52:09Z</time><name>PT7025</name></trkpt>
<trkpt lat="53.391073" lon="-1.616991"><ele>373</ele><time>2020-05-21T11:52:09Z</time><name>PT7026</name></trkpt>
<trkpt lat="53.391071" lon="-1.617014"><ele>373</ele><time>2020-05-21T11:52:10Z</time><name>PT7027</name></trkpt>
<trkpt lat="53.391069" lon="-1.617030"><ele>373</ele><time>2020-05-21T11:52:12Z</time><name>PT7028</name></trkpt>
<trkpt lat="53.391069" lon="-1.617041"><ele>373</ele><time>2020-05-21T11:52:12Z</time><name>PT7029</name></trkpt>
<trkpt lat="53.391072" lon="-1.617060"><ele>373</ele><time>2020-05-21T11:52:13Z</time><name>PT7030</name></trkpt>
<trkpt lat="53.391075" lon="-1.617079"><ele>373</ele><time>2020-05-21T11:52:15Z</time><name>PT7031</name></trkpt>
<trkpt lat="53.391073" lon="-1.617103"><ele>373</ele><time>2020-05-21T11:52:15Z</time><name>PT7032</name></trkpt>
<trkpt lat="53.391072" lon="-1.617122"><ele>373</ele><time>2020-05-21T11:52:16Z</time><name>PT7033</name></trkpt>
<trkpt lat="53.391073" lon="-1.617147"><ele>372</ele><time>2020-05-21T11:52:18Z</time><name>PT7034</name></trkpt>
<trkpt lat="53.391070" lon="-1.617174"><ele>372</ele><time>2020-05-21T11:52:18Z</time><name>PT7035</name></trkpt>
<trkpt lat="53.391069" lon="-1.617198"><ele>372</ele><time>2020-05-21T11:52:19Z</time><name>PT7036</name></trkpt>
<trkpt lat="53.391070" lon="-1.617217"><ele>372</ele><time>2020-05-21T11:52:21Z</time><name>PT7037</name></trkpt>
<trkpt lat="53.391070" lon="-1.617238"><ele>372</ele><time>2020-05-21T11:52:21Z</time><name>PT7038</name></trkpt>
<trkpt lat="53.391072" lon="-1.617259"><ele>372</ele><time>2020-05-21T11:52:23Z</time><name>PT7039</name></trkpt>
<trkpt lat="53.391073" lon="-1.617278"><ele>371</ele><time>2020-05-21T11:52:24Z</time><name>PT7040</name></trkpt>
<trkpt lat="53.391072" lon="-1.617302"><ele>371</ele><time>2020-05-21T11:52:24Z</time><name>PT7041</name></trkpt>
<trkpt lat="53.391071" lon="-1.617331"><ele>372</ele><time>2020-05-21T11:52:25Z</time><name>PT7042</name></trkpt>
<trkpt lat="53.391072" lon="-1.617356"><ele>372</ele><time>2020-05-21T11:52:27Z</time><name>PT7043</name></trkpt>
<trkpt lat="53.391072" lon="-1.617374"><ele>371</ele><time>2020-05-21T11:52:27Z</time><name>PT7044</name></trkpt>
<trkpt lat="53.391075" lon="-1.617389"><ele>371</ele><time>2020-05-21T11:52:29Z</time><name>PT7045</name></trkpt>
<trkpt lat="53.391080" lon="-1.617405"><ele>370</ele><time>2020-05-21T11:52:30Z</time><name>PT7046</name></trkpt>
<trkpt lat="53.391080" lon="-1.617429"><ele>371</ele><time>2020-05-21T11:52:31Z</time><name>PT7047</name></trkpt>
<trkpt lat="53.391079" lon="-1.617456"><ele>371</ele><time>2020-05-21T11:52:32Z</time><name>PT7048</name></trkpt>
<trkpt lat="53.391081" lon="-1.617488"><ele>372</ele><time>2020-05-21T11:52:33Z</time><name>PT7049</name></trkpt>
<trkpt lat="53.391081" lon="-1.617518"><ele>372</ele><time>2020-05-21T11:52:34Z</time><name>PT7050</name></trkpt>
<trkpt lat="53.391081" lon="-1.617541"><ele>371</ele><time>2020-05-21T11:52:35Z</time><name>PT7051</name></trkpt>
<trkpt lat="53.391080" lon="-1.617558"><ele>372</ele><time>2020-05-21T11:52:36Z</time><name>PT7052</name></trkpt>
<trkpt lat="53.391082" lon="-1.617573"><ele>371</ele><time>2020-05-21T11:52:37Z</time><name>PT7053</name></trkpt>
<trkpt lat="53.391083" lon="-1.617595"><ele>371</ele><time>2020-05-21T11:52:38Z</time><name>PT7054</name></trkpt>
<trkpt lat="53.391085" lon="-1.617620"><ele>371</ele><time>2020-05-21T11:52:39Z</time><name>PT7055</name></trkpt>
<trkpt lat="53.391088" lon="-1.617645"><ele>371</ele><time>2020-05-21T11:52:39Z</time><name>PT7056</name></trkpt>
<trkpt lat="53.391089" lon="-1.617676"><ele>372</ele><time>2020-05-21T11:52:41Z</time><name>PT7057</name></trkpt>
<trkpt lat="53.391089" lon="-1.617706"><ele>372</ele><time>2020-05-21T11:52:41Z</time><name>PT7058</name></trkpt>
<trkpt lat="53.391089" lon="-1.617726"><ele>373</ele><time>2020-05-21T11:52:42Z</time><name>PT7059</name></trkpt>
<trkpt lat="53.391088" lon="-1.617745"><ele>373</ele><time>2020-05-21T11:52:44Z</time><name>PT7060</name></trkpt>
<trkpt lat="53.391089" lon="-1.617761"><ele>372</ele><time>2020-05-21T11:52:44Z</time><name>PT7061</name></trkpt>
<trkpt lat="53.391090" lon="-1.617783"><ele>372</ele><time>2020-05-21T11:52:45Z</time><name>PT7062</name></trkpt>
<trkpt lat="53.391090" lon="-1.617808"><ele>372</ele><time>2020-05-21T11:52:47Z</time><name>PT7063</name></trkpt>
<trkpt lat="53.391091" lon="-1.617834"><ele>372</ele><time>2020-05-21T11:52:47Z</time><name>PT7064</name></trkpt>
<trkpt lat="53.391090" lon="-1.617858"><ele>372</ele><time>2020-05-21T11:52:49Z</time><name>PT7065</name></trkpt>
<trkpt lat="53.391093" lon="-1.617880"><ele>372</ele><time>2020-05-21T11:52:50Z</time><name>PT7066</name></trkpt>
<trkpt lat="53.391095" lon="-1.617900"><ele>371</ele><time>2020-05-21T11:52:50Z</time><name>PT7067</name></trkpt>
<trkpt lat="53.391098" lon="-1.617914"><ele>371</ele><time>2020-05-21T11:52:52Z</time><name>PT7068</name></trkpt>
<trkpt lat="53.391100" lon="-1.617932"><ele>371</ele><time>2020-05-21T11:52:53Z</time><name>PT7069</name></trkpt>
<trkpt lat="53.391098" lon="-1.617954"><ele>371</ele><time>2020-05-21T11:52:53Z</time><name>PT7070</name></trkpt>
<trkpt lat="53.391096" lon="-1.617977"><ele>372</ele><time>2020-05-21T11:52:54Z</time><name>PT7071</name></trkpt>
<trkpt lat="53.391096" lon="-1.618006"><ele>372</ele><time>2020-05-21T11:52:56Z</time><name>PT7072</name></trkpt>
<trkpt lat="53.391096" lon="-1.618035"><ele>372</ele><time>2020-05-21T11:52:56Z</time><name>PT7073</name></trkpt>
<trkpt lat="53.391094" lon="-1.618058"><ele>372</ele><time>2020-05-21T11:52:57Z</time><name>PT7074</name></trkpt>
<trkpt lat="53.391094" lon="-1.618076"><ele>372</ele><time>2020-05-21T11:52:59Z</time><name>PT7075</name></trkpt>
<trkpt lat="53.391095" lon="-1.618094"><ele>372</ele><time>2020-05-21T11:52:59Z</time><name>PT7076</name></trkpt>
<trkpt lat="53.391094" lon="-1.618116"><ele>372</ele><time>2020-05-21T11:53:01Z</time><name>PT7077</name></trkpt>
<trkpt lat="53.391092" lon="-1.618136"><ele>372</ele><time>2020-05-21T11:53:02Z</time><name>PT7078</name></trkpt>
<trkpt lat="53.391091" lon="-1.618165"><ele>372</ele><time>2020-05-21T11:53:03Z</time><name>PT7079</name></trkpt>
<trkpt lat="53.391090" lon="-1.618193"><ele>372</ele><time>2020-05-21T11:53:04Z</time><name>PT7080</name></trkpt>
<trkpt lat="53.391089" lon="-1.618216"><ele>373</ele><time>2020-05-21T11:53:04Z</time><name>PT7081</name></trkpt>
<trkpt lat="53.391087" lon="-1.618234"><ele>373</ele><time>2020-05-21T11:53:05Z</time><name>PT7082</name></trkpt>
<trkpt lat="53.391086" lon="-1.618252"><ele>373</ele><time>2020-05-21T11:53:07Z</time><name>PT7083</name></trkpt>
<trkpt lat="53.391090" lon="-1.618269"><ele>371</ele><time>2020-05-21T11:53:07Z</time><name>PT7084</name></trkpt>
<trkpt lat="53.391089" lon="-1.618290"><ele>371</ele><time>2020-05-21T11:53:08Z</time><name>PT7085</name></trkpt>
<trkpt lat="53.391089" lon="-1.618319"><ele>372</ele><time>2020-05-21T11:53:10Z</time><name>PT7086</name></trkpt>
<trkpt lat="53.391087" lon="-1.618351"><ele>372</ele><time>2020-05-21T11:53:10Z</time><name>PT7087</name></trkpt>
<trkpt lat="53.391087" lon="-1.618374"><ele>372</ele><time>2020-05-21T11:53:11Z</time><name>PT7088</name></trkpt>
<trkpt lat="53.391086" lon="-1.618391"><ele>372</ele><time>2020-05-21T11:53:13Z</time><name>PT7089</name></trkpt>
<trkpt lat="53.391089" lon="-1.618410"><ele>371</ele><time>2020-05-21T11:53:13Z</time><name>PT7090</name></trkpt>
<trkpt lat="53.391091" lon="-1.618436"><ele>372</ele><time>2020-05-21T11:53:14Z</time><name>PT7091</name></trkpt>
<trkpt lat="53.391093" lon="-1.618460"><ele>372</ele><time>2020-05-21T11:53:16Z</time><name>PT7092</name></trkpt>
<trkpt lat="53.391095" lon="-1.618489"><ele>373</ele><time>2020-05-21T11:53:16Z</time><name>PT7093</name></trkpt>
<trkpt lat="53.391097" lon="-1.618514"><ele>373</ele><time>2020-05-21T11:53:17Z</time><name>PT7094</name></trkpt>
<trkpt lat="53.391095" lon="-1.618532"><ele>373</ele><time>2020-05-21T11:53:19Z</time><name>PT7095</name></trkpt>
<trkpt lat="53.391097" lon="-1.618547"><ele>373</ele><time>2020-05-21T11:53:19Z</time><name>PT7096</name></trkpt>
<trkpt lat="53.391097" lon="-1.618568"><ele>373</ele><time>2020-05-21T11:53:20Z</time><name>PT7097</name></trkpt>
<trkpt lat="53.391098" lon="-1.618591"><ele>373</ele><time>2020-05-21T11:53:22Z</time><name>PT7098</name></trkpt>
<trkpt lat="53.391098" lon="-1.618614"><ele>372</ele><time>2020-05-21T11:53:22Z</time><name>PT7099</name></trkpt>
<trkpt lat="53.391100" lon="-1.618643"><ele>372</ele><time>2020-05-21T11:53:23Z</time><name>PT7100</name></trkpt>
<trkpt lat="53.391101" lon="-1.618667"><ele>373</ele><time>2020-05-21T11:53:25Z</time><name>PT7101</name></trkpt>
<trkpt lat="53.391099" lon="-1.618688"><ele>373</ele><time>2020-05-21T11:53:25Z</time><name>PT7102</name></trkpt>
<trkpt lat="53.391102" lon="-1.618706"><ele>373</ele><time>2020-05-21T11:53:26Z</time><name>PT7103</name></trkpt>
<trkpt lat="53.391103" lon="-1.618722"><ele>372</ele><time>2020-05-21T11:53:28Z</time><name>PT7104</name></trkpt>
<trkpt lat="53.391103" lon="-1.618743"><ele>372</ele><time>2020-05-21T11:53:28Z</time><name>PT7105</name></trkpt>
<trkpt lat="53.391105" lon="-1.618768"><ele>372</ele><time>2020-05-21T11:53:29Z</time><name>PT7106</name></trkpt>
<trkpt lat="53.391103" lon="-1.618798"><ele>372</ele><time>2020-05-21T11:53:31Z</time><name>PT7107</name></trkpt>
<trkpt lat="53.391105" lon="-1.618826"><ele>373</ele><time>2020-05-21T11:53:31Z</time><name>PT7108</name></trkpt>
<trkpt lat="53.391105" lon="-1.618845"><ele>373</ele><time>2020-05-21T11:53:33Z</time><name>PT7109</name></trkpt>
<trkpt lat="53.391105" lon="-1.618861"><ele>373</ele><time>2020-05-21T11:53:34Z</time><name>PT7110</name></trkpt>
<trkpt lat="53.391107" lon="-1.618885"><ele>373</ele><time>2020-05-21T11:53:34Z</time><name>PT7111</name></trkpt>
<trkpt lat="53.391107" lon="-1.618911"><ele>373</ele><time>2020-05-21T11:53:35Z</time><name>PT7112</name></trkpt>
<trkpt lat="53.391106" lon="-1.618936"><ele>374</ele><time>2020-05-21T11:53:37Z</time><name>PT7113</name></trkpt>
<trkpt lat="53.391106" lon="-1.618958"><ele>374</ele><time>2020-05-21T11:53:38Z</time><name>PT7114</name></trkpt>
<trkpt lat="53.391107" lon="-1.618982"><ele>374</ele><time>2020-05-21T11:53:38Z</time><name>PT7115</name></trkpt>
<trkpt lat="53.391105" lon="-1.619002"><ele>375</ele><time>2020-05-21T11:53:39Z</time><name>PT7116</name></trkpt>
<trkpt lat="53.391101" lon="-1.619023"><ele>375</ele><time>2020-05-21T11:53:40Z</time><name>PT7117</name></trkpt>
<trkpt lat="53.391100" lon="-1.619045"><ele>374</ele><time>2020-05-21T11:53:42Z</time><name>PT7118</name></trkpt>
<trkpt lat="53.391095" lon="-1.619064"><ele>375</ele><time>2020-05-21T11:53:43Z</time><name>PT7119</name></trkpt>
<trkpt lat="53.391092" lon="-1.619087"><ele>375</ele><time>2020-05-21T11:53:43Z</time><name>PT7120</name></trkpt>
<trkpt lat="53.391090" lon="-1.619116"><ele>376</ele><time>2020-05-21T11:53:45Z</time><name>PT7121</name></trkpt>
<trkpt lat="53.391091" lon="-1.619139"><ele>376</ele><time>2020-05-21T11:53:45Z</time><name>PT7122</name></trkpt>
<trkpt lat="53.391091" lon="-1.619154"><ele>376</ele><time>2020-05-21T11:53:47Z</time><name>PT7123</name></trkpt>
<trkpt lat="53.391089" lon="-1.619170"><ele>375</ele><time>2020-05-21T11:53:48Z</time><name>PT7124</name></trkpt>
<trkpt lat="53.391093" lon="-1.619186"><ele>375</ele><time>2020-05-21T11:53:49Z</time><name>PT7125</name></trkpt>
<trkpt lat="53.391094" lon="-1.619205"><ele>375</ele><time>2020-05-21T11:53:50Z</time><name>PT7126</name></trkpt>
<trkpt lat="53.391090" lon="-1.619239"><ele>375</ele><time>2020-05-21T11:53:51Z</time><name>PT7127</name></trkpt>
<trkpt lat="53.391088" lon="-1.619270"><ele>374</ele><time>2020-05-21T11:53:52Z</time><name>PT7128</name></trkpt>
<trkpt lat="53.391089" lon="-1.619300"><ele>372</ele><time>2020-05-21T11:53:52Z</time><name>PT7129</name></trkpt>
<trkpt lat="53.391085" lon="-1.619328"><ele>369</ele><time>2020-05-21T11:53:54Z</time><name>PT7130</name></trkpt>
<trkpt lat="53.391083" lon="-1.619347"><ele>369</ele><time>2020-05-21T11:53:55Z</time><name>PT7131</name></trkpt>
<trkpt lat="53.391080" lon="-1.619368"><ele>369</ele><time>2020-05-21T11:53:55Z</time><name>PT7132</name></trkpt>
<trkpt lat="53.391076" lon="-1.619393"><ele>369</ele><time>2020-05-21T11:53:57Z</time><name>PT7133</name></trkpt>
<trkpt lat="53.391072" lon="-1.619415"><ele>369</ele><time>2020-05-21T11:53:58Z</time><name>PT7134</name></trkpt>
<trkpt lat="53.391074" lon="-1.619440"><ele>369</ele><time>2020-05-21T11:53:58Z</time><name>PT7135</name></trkpt>
<trkpt lat="53.391076" lon="-1.619465"><ele>369</ele><time>2020-05-21T11:54:00Z</time><name>PT7136</name></trkpt>
<trkpt lat="53.391077" lon="-1.619481"><ele>369</ele><time>2020-05-21T11:54:00Z</time><name>PT7137</name></trkpt>
<trkpt lat="53.391078" lon="-1.619491"><ele>369</ele><time>2020-05-21T11:54:02Z</time><name>PT7138</name></trkpt>
<trkpt lat="53.391077" lon="-1.619505"><ele>369</ele><time>2020-05-21T11:54:03Z</time><name>PT7139</name></trkpt>
<trkpt lat="53.391078" lon="-1.619529"><ele>368</ele><time>2020-05-21T11:54:03Z</time><name>PT7140</name></trkpt>
<trkpt lat="53.391080" lon="-1.619550"><ele>368</ele><time>2020-05-21T11:54:05Z</time><name>PT7141</name></trkpt>
<trkpt lat="53.391080" lon="-1.619574"><ele>368</ele><time>2020-05-21T11:54:06Z</time><name>PT7142</name></trkpt>
<trkpt lat="53.391082" lon="-1.619600"><ele>368</ele><time>2020-05-21T11:54:06Z</time><name>PT7143</name></trkpt>
<trkpt lat="53.391081" lon="-1.619625"><ele>369</ele><time>2020-05-21T11:54:08Z</time><name>PT7144</name></trkpt>
<trkpt lat="53.391081" lon="-1.619642"><ele>369</ele><time>2020-05-21T11:54:09Z</time><name>PT7145</name></trkpt>
<trkpt lat="53.391080" lon="-1.619657"><ele>370</ele><time>2020-05-21T11:54:09Z</time><name>PT7146</name></trkpt>
<trkpt lat="53.391079" lon="-1.619679"><ele>370</ele><time>2020-05-21T11:54:11Z</time><name>PT7147</name></trkpt>
<trkpt lat="53.391077" lon="-1.619701"><ele>370</ele><time>2020-05-21T11:54:12Z</time><name>PT7148</name></trkpt>
<trkpt lat="53.391078" lon="-1.619727"><ele>370</ele><time>2020-05-21T11:54:12Z</time><name>PT7149</name></trkpt>
<trkpt lat="53.391083" lon="-1.619754"><ele>371</ele><time>2020-05-21T11:54:13Z</time><name>PT7150</name></trkpt>
<trkpt lat="53.391087" lon="-1.619783"><ele>372</ele><time>2020-05-21T11:54:15Z</time><name>PT7151</name></trkpt>
<trkpt lat="53.391091" lon="-1.619801"><ele>371</ele><time>2020-05-21T11:54:15Z</time><name>PT7152</name></trkpt>
<trkpt lat="53.391096" lon="-1.619817"><ele>371</ele><time>2020-05-21T11:54:16Z</time><name>PT7153</name></trkpt>
<trkpt lat="53.391095" lon="-1.619825"><ele>370</ele><time>2020-05-21T11:54:17Z</time><name>PT7154</name></trkpt>
<trkpt lat="53.391096" lon="-1.619836"><ele>370</ele><time>2020-05-21T11:54:19Z</time><name>PT7155</name></trkpt>
<trkpt lat="53.391099" lon="-1.619851"><ele>370</ele><time>2020-05-21T11:54:20Z</time><name>PT7156</name></trkpt>
<trkpt lat="53.391099" lon="-1.619867"><ele>369</ele><time>2020-05-21T11:54:21Z</time><name>PT7157</name></trkpt>
<trkpt lat="53.391100" lon="-1.619889"><ele>369</ele><time>2020-05-21T11:54:22Z</time><name>PT7158</name></trkpt>
<trkpt lat="53.391100" lon="-1.619916"><ele>369</ele><time>2020-05-21T11:54:23Z</time><name>PT7159</name></trkpt>
<trkpt lat="53.391102" lon="-1.619945"><ele>370</ele><time>2020-05-21T11:54:24Z</time><name>PT7160</name></trkpt>
<trkpt lat="53.391102" lon="-1.619971"><ele>370</ele><time>2020-05-21T11:54:25Z</time><name>PT7161</name></trkpt>
<trkpt lat="53.391102" lon="-1.619990"><ele>370</ele><time>2020-05-21T11:54:26Z</time><name>PT7162</name></trkpt>
<trkpt lat="53.391106" lon="-1.620005"><ele>370</ele><time>2020-05-21T11:54:27Z</time><name>PT7163</name></trkpt>
<trkpt lat="53.391106" lon="-1.620026"><ele>369</ele><time>2020-05-21T11:54:27Z</time><name>PT7164</name></trkpt>
<trkpt lat="53.391105" lon="-1.620050"><ele>369</ele><time>2020-05-21T11:54:29Z</time><name>PT7165</name></trkpt>
<trkpt lat="53.391105" lon="-1.620076"><ele>369</ele><time>2020-05-21T11:54:29Z</time><name>PT7166</name></trkpt>
<trkpt lat="53.391103" lon="-1.620100"><ele>369</ele><time>2020-05-21T11:54:30Z</time><name>PT7167</name></trkpt>
<trkpt lat="53.391103" lon="-1.620122"><ele>369</ele><time>2020-05-21T11:54:32Z</time><name>PT7168</name></trkpt>
<trkpt lat="53.391103" lon="-1.620147"><ele>369</ele><time>2020-05-21T11:54:32Z</time><name>PT7169</name></trkpt>
<trkpt lat="53.391107" lon="-1.620161"><ele>369</ele><time>2020-05-21T11:54:33Z</time><name>PT7170</name></trkpt>
<trkpt lat="53.391109" lon="-1.620174"><ele>369</ele><time>2020-05-21T11:54:35Z</time><name>PT7171</name></trkpt>
<trkpt lat="53.391111" lon="-1.620190"><ele>369</ele><time>2020-05-21T11:54:35Z</time><name>PT7172</name></trkpt>
<trkpt lat="53.391111" lon="-1.620209"><ele>369</ele><time>2020-05-21T11:54:36Z</time><name>PT7173</name></trkpt>
<trkpt lat="53.391110" lon="-1.620232"><ele>369</ele><time>2020-05-21T11:54:38Z</time><name>PT7174</name></trkpt>
<trkpt lat="53.391110" lon="-1.620245"><ele>369</ele><time>2020-05-21T11:54:38Z</time><name>PT7175</name></trkpt>
<trkpt lat="53.391109" lon="-1.620262"><ele>369</ele><time>2020-05-21T11:54:39Z</time><name>PT7176</name></trkpt>
<trkpt lat="53.391112" lon="-1.620279"><ele>369</ele><time>2020-05-21T11:54:41Z</time><name>PT7177</name></trkpt>
<trkpt lat="53.391114" lon="-1.620308"><ele>369</ele><time>2020-05-21T11:54:41Z</time><name>PT7178</name></trkpt>
<trkpt lat="53.391112" lon="-1.620334"><ele>369</ele><time>2020-05-21T11:54:42Z</time><name>PT7179</name></trkpt>
<trkpt lat="53.391112" lon="-1.620358"><ele>369</ele><time>2020-05-21T11:54:44Z</time><name>PT7180</name></trkpt>
<trkpt lat="53.391112" lon="-1.620372"><ele>370</ele><time>2020-05-21T11:54:44Z</time><name>PT7181</name></trkpt>
<trkpt lat="53.391112" lon="-1.620391"><ele>370</ele><time>2020-05-21T11:54:45Z</time><name>PT7182</name></trkpt>
<trkpt lat="53.391114" lon="-1.620414"><ele>370</ele><time>2020-05-21T11:54:47Z</time><name>PT7183</name></trkpt>
<trkpt lat="53.391114" lon="-1.620434"><ele>370</ele><time>2020-05-21T11:54:47Z</time><name>PT7184</name></trkpt>
<trkpt lat="53.391114" lon="-1.620461"><ele>370</ele><time>2020-05-21T11:54:48Z</time><name>PT7185</name></trkpt>
<trkpt lat="53.391117" lon="-1.620483"><ele>370</ele><time>2020-05-21T11:54:50Z</time><name>PT7186</name></trkpt>
<trkpt lat="53.391121" lon="-1.620497"><ele>371</ele><time>2020-05-21T11:54:50Z</time><name>PT7187</name></trkpt>
<trkpt lat="53.391122" lon="-1.620511"><ele>370</ele><time>2020-05-21T11:54:51Z</time><name>PT7188</name></trkpt>
<trkpt lat="53.391124" lon="-1.620533"><ele>370</ele><time>2020-05-21T11:54:53Z</time><name>PT7189</name></trkpt>
<trkpt lat="53.391126" lon="-1.620558"><ele>370</ele><time>2020-05-21T11:54:53Z</time><name>PT7190</name></trkpt>
<trkpt lat="53.391123" lon="-1.620579"><ele>370</ele><time>2020-05-21T11:54:55Z</time><name>PT7191</name></trkpt>
<trkpt lat="53.391120" lon="-1.620598"><ele>370</ele><time>2020-05-21T11:54:56Z</time><name>PT7192</name></trkpt>
<trkpt lat="53.391118" lon="-1.620609"><ele>371</ele><time>2020-05-21T11:54:56Z</time><name>PT7193</name></trkpt>
<trkpt lat="53.391119" lon="-1.620625"><ele>370</ele><time>2020-05-21T11:54:57Z</time><name>PT7194</name></trkpt>
<trkpt lat="53.391121" lon="-1.620646"><ele>369</ele><time>2020-05-21T11:54:59Z</time><name>PT7195</name></trkpt>
<trkpt lat="53.391122" lon="-1.620670"><ele>369</ele><time>2020-05-21T11:54:59Z</time><name>PT7196</name></trkpt>
<trkpt lat="53.391122" lon="-1.620696"><ele>369</ele><time>2020-05-21T11:55:00Z</time><name>PT7197</name></trkpt>
<trkpt lat="53.391122" lon="-1.620719"><ele>370</ele><time>2020-05-21T11:55:02Z</time><name>PT7198</name></trkpt>
<trkpt lat="53.391122" lon="-1.620733"><ele>370</ele><time>2020-05-21T11:55:02Z</time><name>PT7199</name></trkpt>
<trkpt lat="53.391122" lon="-1.620751"><ele>370</ele><time>2020-05-21T11:55:03Z</time><name>PT7200</name></trkpt>
<trkpt lat="53.391118" lon="-1.620772"><ele>370</ele><time>2020-05-21T11:55:05Z</time><name>PT7201</name></trkpt>
<trkpt lat="53.391116" lon="-1.620796"><ele>370</ele><time>2020-05-21T11:55:05Z</time><name>PT7202</name></trkpt>
<trkpt lat="53.391115" lon="-1.620825"><ele>370</ele><time>2020-05-21T11:55:06Z</time><name>PT7203</name></trkpt>
<trkpt lat="53.391115" lon="-1.620847"><ele>370</ele><time>2020-05-21T11:55:08Z</time><name>PT7204</name></trkpt>
<trkpt lat="53.391116" lon="-1.620865"><ele>370</ele><time>2020-05-21T11:55:08Z</time><name>PT7205</name></trkpt>
<trkpt lat="53.391115" lon="-1.620885"><ele>369</ele><time>2020-05-21T11:55:10Z</time><name>PT7206</name></trkpt>
<trkpt lat="53.391118" lon="-1.620910"><ele>369</ele><time>2020-05-21T11:55:11Z</time><name>PT7207</name></trkpt>
<trkpt lat="53.391116" lon="-1.620939"><ele>368</ele><time>2020-05-21T11:55:11Z</time><name>PT7208</name></trkpt>
<trkpt lat="53.391116" lon="-1.620966"><ele>368</ele><time>2020-05-21T11:55:13Z</time><name>PT7209</name></trkpt>
<trkpt lat="53.391116" lon="-1.620989"><ele>369</ele><time>2020-05-21T11:55:14Z</time><name>PT7210</name></trkpt>
<trkpt lat="53.391115" lon="-1.621004"><ele>369</ele><time>2020-05-21T11:55:15Z</time><name>PT7211</name></trkpt>
<trkpt lat="53.391114" lon="-1.621021"><ele>368</ele><time>2020-05-21T11:55:15Z</time><name>PT7212</name></trkpt>
<trkpt lat="53.391115" lon="-1.621044"><ele>368</ele><time>2020-05-21T11:55:17Z</time><name>PT7213</name></trkpt>
<trkpt lat="53.391118" lon="-1.621065"><ele>368</ele><time>2020-05-21T11:55:18Z</time><name>PT7214</name></trkpt>
<trkpt lat="53.391119" lon="-1.621089"><ele>368</ele><time>2020-05-21T11:55:19Z</time><name>PT7215</name></trkpt>
<trkpt lat="53.391117" lon="-1.621109"><ele>368</ele><time>2020-05-21T11:55:20Z</time><name>PT7216</name></trkpt>
<trkpt lat="53.391116" lon="-1.621123"><ele>368</ele><time>2020-05-21T11:55:21Z</time><name>PT7217</name></trkpt>
<trkpt lat="53.391114" lon="-1.621138"><ele>368</ele><time>2020-05-21T11:55:22Z</time><name>PT7218</name></trkpt>
<trkpt lat="53.391115" lon="-1.621159"><ele>369</ele><time>2020-05-21T11:55:23Z</time><name>PT7219</name></trkpt>
<trkpt lat="53.391116" lon="-1.621184"><ele>369</ele><time>2020-05-21T11:55:23Z</time><name>PT7220</name></trkpt>
<trkpt lat="53.391114" lon="-1.621208"><ele>369</ele><time>2020-05-21T11:55:24Z</time><name>PT7221</name></trkpt>
<trkpt lat="53.391115" lon="-1.621234"><ele>369</ele><time>2020-05-21T11:55:26Z</time><name>PT7222</name></trkpt>
<trkpt lat="53.391117" lon="-1.621259"><ele>370</ele><time>2020-05-21T11:55:26Z</time><name>PT7223</name></trkpt>
<trkpt lat="53.391119" lon="-1.621278"><ele>370</ele><time>2020-05-21T11:55:27Z</time><name>PT7224</name></trkpt>
<trkpt lat="53.391119" lon="-1.621291"><ele>370</ele><time>2020-05-21T11:55:29Z</time><name>PT7225</name></trkpt>
<trkpt lat="53.391118" lon="-1.621306"><ele>370</ele><time>2020-05-21T11:55:29Z</time><name>PT7226</name></trkpt>
<trkpt lat="53.391116" lon="-1.621329"><ele>369</ele><time>2020-05-21T11:55:30Z</time><name>PT7227</name></trkpt>
<trkpt lat="53.391118" lon="-1.621354"><ele>370</ele><time>2020-05-21T11:55:32Z</time><name>PT7228</name></trkpt>
<trkpt lat="53.391119" lon="-1.621379"><ele>370</ele><time>2020-05-21T11:55:33Z</time><name>PT7229</name></trkpt>
<trkpt lat="53.391120" lon="-1.621401"><ele>370</ele><time>2020-05-21T11:55:34Z</time><name>PT7230</name></trkpt>
<trkpt lat="53.391119" lon="-1.621417"><ele>370</ele><time>2020-05-21T11:55:35Z</time><name>PT7231</name></trkpt>
<trkpt lat="53.391120" lon="-1.621436"><ele>369</ele><time>2020-05-21T11:55:36Z</time><name>PT7232</name></trkpt>
<trkpt lat="53.391120" lon="-1.621458"><ele>369</ele><time>2020-05-21T11:55:37Z</time><name>PT7233</name></trkpt>
<trkpt lat="53.391120" lon="-1.621484"><ele>368</ele><time>2020-05-21T11:55:38Z</time><name>PT7234</name></trkpt>
<trkpt lat="53.391123" lon="-1.621509"><ele>368</ele><time>2020-05-21T11:55:38Z</time><name>PT7235</name></trkpt>
<trkpt lat="53.391124" lon="-1.621527"><ele>368</ele><time>2020-05-21T11:55:39Z</time><name>PT7236</name></trkpt>
<trkpt lat="53.391122" lon="-1.621542"><ele>368</ele><time>2020-05-21T11:55:41Z</time><name>PT7237</name></trkpt>
<trkpt lat="53.391120" lon="-1.621564"><ele>368</ele><time>2020-05-21T11:55:41Z</time><name>PT7238</name></trkpt>
<trkpt lat="53.391121" lon="-1.621587"><ele>368</ele><time>2020-05-21T11:55:42Z</time><name>PT7239</name></trkpt>
<trkpt lat="53.391122" lon="-1.621613"><ele>368</ele><time>2020-05-21T11:55:44Z</time><name>PT7240</name></trkpt>
<trkpt lat="53.391122" lon="-1.621638"><ele>368</ele><time>2020-05-21T11:55:44Z</time><name>PT7241</name></trkpt>
<trkpt lat="53.391122" lon="-1.621655"><ele>368</ele><time>2020-05-21T11:55:45Z</time><name>PT7242</name></trkpt>
<trkpt lat="53.391124" lon="-1.621668"><ele>368</ele><time>2020-05-21T11:55:47Z</time><name>PT7243</name></trkpt>
<trkpt lat="53.391127" lon="-1.621688"><ele>368</ele><time>2020-05-21T11:55:47Z</time><name>PT7244</name></trkpt>
<trkpt lat="53.391127" lon="-1.621711"><ele>368</ele><time>2020-05-21T11:55:48Z</time><name>PT7245</name></trkpt>
<trkpt lat="53.391132" lon="-1.621734"><ele>369</ele><time>2020-05-21T11:55:50Z</time><name>PT7246</name></trkpt>
<trkpt lat="53.391135" lon="-1.621752"><ele>369</ele><time>2020-05-21T11:55:50Z</time><name>PT7247</name></trkpt>
<trkpt lat="53.391135" lon="-1.621766"><ele>369</ele><time>2020-05-21T11:55:51Z</time><name>PT7248</name></trkpt>
<trkpt lat="53.391142" lon="-1.621790"><ele>370</ele><time>2020-05-21T11:55:53Z</time><name>PT7249</name></trkpt>
<trkpt lat="53.391148" lon="-1.621815"><ele>370</ele><time>2020-05-21T11:55:53Z</time><name>PT7250</name></trkpt>
<trkpt lat="53.391150" lon="-1.621842"><ele>371</ele><time>2020-05-21T11:55:54Z</time><name>PT7251</name></trkpt>
<trkpt lat="53.391154" lon="-1.621869"><ele>370</ele><time>2020-05-21T11:55:56Z</time><name>PT7252</name></trkpt>
<trkpt lat="53.391157" lon="-1.621890"><ele>371</ele><time>2020-05-21T11:55:56Z</time><name>PT7253</name></trkpt>
<trkpt lat="53.391161" lon="-1.621905"><ele>371</ele><time>2020-05-21T11:55:57Z</time><name>PT7254</name></trkpt>
<trkpt lat="53.391160" lon="-1.621924"><ele>370</ele><time>2020-05-21T11:55:59Z</time><name>PT7255</name></trkpt>
<trkpt lat="53.391163" lon="-1.621941"><ele>370</ele><time>2020-05-21T11:56:00Z</time><name>PT7256</name></trkpt>
<trkpt lat="53.391164" lon="-1.621963"><ele>370</ele><time>2020-05-21T11:56:01Z</time><name>PT7257</name></trkpt>
<trkpt lat="53.391170" lon="-1.621989"><ele>370</ele><time>2020-05-21T11:56:02Z</time><name>PT7258</name></trkpt>
<trkpt lat="53.391176" lon="-1.622016"><ele>371</ele><time>2020-05-21T11:56:02Z</time><name>PT7259</name></trkpt>
<trkpt lat="53.391181" lon="-1.622038"><ele>371</ele><time>2020-05-21T11:56:04Z</time><name>PT7260</name></trkpt>
<trkpt lat="53.391187" lon="-1.622053"><ele>372</ele><time>2020-05-21T11:56:05Z</time><name>PT7261</name></trkpt>
<trkpt lat="53.391187" lon="-1.622072"><ele>372</ele><time>2020-05-21T11:56:06Z</time><name>PT7262</name></trkpt>
<trkpt lat="53.391185" lon="-1.622093"><ele>372</ele><time>2020-05-21T11:56:06Z</time><name>PT7263</name></trkpt>
<trkpt lat="53.391186" lon="-1.622120"><ele>371</ele><time>2020-05-21T11:56:08Z</time><name>PT7264</name></trkpt>
<trkpt lat="53.391186" lon="-1.622147"><ele>372</ele><time>2020-05-21T11:56:08Z</time><name>PT7265</name></trkpt>
<trkpt lat="53.391186" lon="-1.622170"><ele>372</ele><time>2020-05-21T11:56:09Z</time><name>PT7266</name></trkpt>
<trkpt lat="53.391186" lon="-1.622183"><ele>372</ele><time>2020-05-21T11:56:10Z</time><name>PT7267</name></trkpt>
<trkpt lat="53.391190" lon="-1.622202"><ele>371</ele><time>2020-05-21T11:56:11Z</time><name>PT7268</name></trkpt>
<trkpt lat="53.391193" lon="-1.622223"><ele>371</ele><time>2020-05-21T11:56:13Z</time><name>PT7269</name></trkpt>
<trkpt lat="53.391195" lon="-1.622246"><ele>371</ele><time>2020-05-21T11:56:13Z</time><name>PT7270</name></trkpt>
<trkpt lat="53.391198" lon="-1.622270"><ele>371</ele><time>2020-05-21T11:56:14Z</time><name>PT7271</name></trkpt>
<trkpt lat="53.391201" lon="-1.622297"><ele>372</ele><time>2020-05-21T11:56:16Z</time><name>PT7272</name></trkpt>
<trkpt lat="53.391202" lon="-1.622319"><ele>372</ele><time>2020-05-21T11:56:16Z</time><name>PT7273</name></trkpt>
<trkpt lat="53.391202" lon="-1.622336"><ele>372</ele><time>2020-05-21T11:56:18Z</time><name>PT7274</name></trkpt>
<trkpt lat="53.391200" lon="-1.622355"><ele>372</ele><time>2020-05-21T11:56:19Z</time><name>PT7275</name></trkpt>
<trkpt lat="53.391197" lon="-1.622374"><ele>371</ele><time>2020-05-21T11:56:19Z</time><name>PT7276</name></trkpt>
<trkpt lat="53.391195" lon="-1.622394"><ele>371</ele><time>2020-05-21T11:56:21Z</time><name>PT7277</name></trkpt>
<trkpt lat="53.391196" lon="-1.622420"><ele>371</ele><time>2020-05-21T11:56:22Z</time><name>PT7278</name></trkpt>
<trkpt lat="53.391197" lon="-1.622440"><ele>372</ele><time>2020-05-21T11:56:22Z</time><name>PT7279</name></trkpt>
<trkpt lat="53.391196" lon="-1.622458"><ele>372</ele><time>2020-05-21T11:56:23Z</time><name>PT7280</name></trkpt>
<trkpt lat="53.391196" lon="-1.622472"><ele>372</ele><time>2020-05-21T11:56:25Z</time><name>PT7281</name></trkpt>
<trkpt lat="53.391196" lon="-1.622482"><ele>372</ele><time>2020-05-21T11:56:25Z</time><name>PT7282</name></trkpt>
<trkpt lat="53.391194" lon="-1.622495"><ele>372</ele><time>2020-05-21T11:56:26Z</time><name>PT7283</name></trkpt>
<trkpt lat="53.391195" lon="-1.622519"><ele>373</ele><time>2020-05-21T11:56:28Z</time><name>PT7284</name></trkpt>
<trkpt lat="53.391198" lon="-1.622534"><ele>373</ele><time>2020-05-21T11:56:28Z</time><name>PT7285</name></trkpt>
<trkpt lat="53.391199" lon="-1.622554"><ele>374</ele><time>2020-05-21T11:56:29Z</time><name>PT7286</name></trkpt>
<trkpt lat="53.391202" lon="-1.622571"><ele>373</ele><time>2020-05-21T11:56:31Z</time><name>PT7287</name></trkpt>
<trkpt lat="53.391205" lon="-1.622594"><ele>374</ele><time>2020-05-21T11:56:31Z</time><name>PT7288</name></trkpt>
<trkpt lat="53.391206" lon="-1.622614"><ele>374</ele><time>2020-05-21T11:56:32Z</time><name>PT7289</name></trkpt>
<trkpt lat="53.391208" lon="-1.622635"><ele>374</ele><time>2020-05-21T11:56:34Z</time><name>PT7290</name></trkpt>
<trkpt lat="53.391205" lon="-1.622649"><ele>375</ele><time>2020-05-21T11:56:34Z</time><name>PT7291</name></trkpt>
<trkpt lat="53.391203" lon="-1.622659"><ele>375</ele><time>2020-05-21T11:56:35Z</time><name>PT7292</name></trkpt>
<trkpt lat="53.391205" lon="-1.622673"><ele>376</ele><time>2020-05-21T11:56:37Z</time><name>PT7293</name></trkpt>
<trkpt lat="53.391209" lon="-1.622690"><ele>377</ele><time>2020-05-21T11:56:37Z</time><name>PT7294</name></trkpt>
<trkpt lat="53.391212" lon="-1.622710"><ele>376</ele><time>2020-05-21T11:56:38Z</time><name>PT7295</name></trkpt>
<trkpt lat="53.391215" lon="-1.622726"><ele>376</ele><time>2020-05-21T11:56:40Z</time><name>PT7296</name></trkpt>
<trkpt lat="53.391214" lon="-1.622751"><ele>377</ele><time>2020-05-21T11:56:40Z</time><name>PT7297</name></trkpt>
<trkpt lat="53.391214" lon="-1.622774"><ele>377</ele><time>2020-05-21T11:56:41Z</time><name>PT7298</name></trkpt>
<trkpt lat="53.391222" lon="-1.622787"><ele>377</ele><time>2020-05-21T11:56:43Z</time><name>PT7299</name></trkpt>
<trkpt lat="53.391225" lon="-1.622799"><ele>377</ele><time>2020-05-21T11:56:43Z</time><name>PT7300</name></trkpt>
<trkpt lat="53.391231" lon="-1.622814"><ele>377</ele><time>2020-05-21T11:56:44Z</time><name>PT7301</name></trkpt>
<trkpt lat="53.391233" lon="-1.622830"><ele>377</ele><time>2020-05-21T11:56:46Z</time><name>PT7302</name></trkpt>
<trkpt lat="53.391233" lon="-1.622852"><ele>378</ele><time>2020-05-21T11:56:47Z</time><name>PT7303</name></trkpt>
<trkpt lat="53.391235" lon="-1.622874"><ele>378</ele><time>2020-05-21T11:56:47Z</time><name>PT7304</name></trkpt>
<trkpt lat="53.391239" lon="-1.622891"><ele>378</ele><time>2020-05-21T11:56:49Z</time><name>PT7305</name></trkpt>
<trkpt lat="53.391243" lon="-1.622906"><ele>378</ele><time>2020-05-21T11:56:50Z</time><name>PT7306</name></trkpt>
<trkpt lat="53.391246" lon="-1.622917"><ele>378</ele><time>2020-05-21T11:56:50Z</time><name>PT7307</name></trkpt>
<trkpt lat="53.391246" lon="-1.622930"><ele>379</ele><time>2020-05-21T11:56:52Z</time><name>PT7308</name></trkpt>
<trkpt lat="53.391243" lon="-1.622950"><ele>379</ele><time>2020-05-21T11:56:52Z</time><name>PT7309</name></trkpt>
<trkpt lat="53.391246" lon="-1.622968"><ele>379</ele><time>2020-05-21T11:56:53Z</time><name>PT7310</name></trkpt>
<trkpt lat="53.391247" lon="-1.622985"><ele>379</ele><time>2020-05-21T11:56:55Z</time><name>PT7311</name></trkpt>
<trkpt lat="53.391247" lon="-1.623000"><ele>379</ele><time>2020-05-21T11:56:55Z</time><name>PT7312</name></trkpt>
<trkpt lat="53.391251" lon="-1.623014"><ele>379</ele><time>2020-05-21T11:56:57Z</time><name>PT7313</name></trkpt>
<trkpt lat="53.391255" lon="-1.623033"><ele>379</ele><time>2020-05-21T11:56:58Z</time><name>PT7314</name></trkpt>
<trkpt lat="53.391259" lon="-1.623049"><ele>379</ele><time>2020-05-21T11:56:58Z</time><name>PT7315</name></trkpt>
<trkpt lat="53.391259" lon="-1.623069"><ele>380</ele><time>2020-05-21T11:56:59Z</time><name>PT7316</name></trkpt>
<trkpt lat="53.391258" lon="-1.623086"><ele>380</ele><time>2020-05-21T11:57:01Z</time><name>PT7317</name></trkpt>
<trkpt lat="53.391254" lon="-1.623106"><ele>381</ele><time>2020-05-21T11:57:02Z</time><name>PT7318</name></trkpt>
<trkpt lat="53.391254" lon="-1.623122"><ele>380</ele><time>2020-05-21T11:57:03Z</time><name>PT7319</name></trkpt>
<trkpt lat="53.391255" lon="-1.623149"><ele>379</ele><time>2020-05-21T11:57:04Z</time><name>PT7320</name></trkpt>
<trkpt lat="53.391255" lon="-1.623177"><ele>379</ele><time>2020-05-21T11:57:04Z</time><name>PT7321</name></trkpt>
<trkpt lat="53.391256" lon="-1.623205"><ele>381</ele><time>2020-05-21T11:57:05Z</time><name>PT7322</name></trkpt>
<trkpt lat="53.391258" lon="-1.623232"><ele>381</ele><time>2020-05-21T11:57:07Z</time><name>PT7323</name></trkpt>
<trkpt lat="53.391259" lon="-1.623254"><ele>381</ele><time>2020-05-21T11:57:07Z</time><name>PT7324</name></trkpt>
<trkpt lat="53.391258" lon="-1.623272"><ele>381</ele><time>2020-05-21T11:57:08Z</time><name>PT7325</name></trkpt>
<trkpt lat="53.391256" lon="-1.623288"><ele>382</ele><time>2020-05-21T11:57:10Z</time><name>PT7326</name></trkpt>
<trkpt lat="53.391254" lon="-1.623308"><ele>382</ele><time>2020-05-21T11:57:11Z</time><name>PT7327</name></trkpt>
<trkpt lat="53.391254" lon="-1.623333"><ele>381</ele><time>2020-05-21T11:57:11Z</time><name>PT7328</name></trkpt>
<trkpt lat="53.391258" lon="-1.623358"><ele>382</ele><time>2020-05-21T11:57:13Z</time><name>PT7329</name></trkpt>
<trkpt lat="53.391264" lon="-1.623376"><ele>382</ele><time>2020-05-21T11:57:13Z</time><name>PT7330</name></trkpt>
<trkpt lat="53.391265" lon="-1.623393"><ele>382</ele><time>2020-05-21T11:57:15Z</time><name>PT7331</name></trkpt>
<trkpt lat="53.391266" lon="-1.623416"><ele>382</ele><time>2020-05-21T11:57:16Z</time><name>PT7332</name></trkpt>
<trkpt lat="53.391265" lon="-1.623441"><ele>382</ele><time>2020-05-21T11:57:17Z</time><name>PT7333</name></trkpt>
<trkpt lat="53.391258" lon="-1.623487"><ele>381</ele><time>2020-05-21T11:57:19Z</time><name>PT7334</name></trkpt>
<trkpt lat="53.391256" lon="-1.623513"><ele>382</ele><time>2020-05-21T11:57:19Z</time><name>PT7335</name></trkpt>
<trkpt lat="53.391255" lon="-1.623538"><ele>382</ele><time>2020-05-21T11:57:20Z</time><name>PT7336</name></trkpt>
<trkpt lat="53.391254" lon="-1.623558"><ele>383</ele><time>2020-05-21T11:57:22Z</time><name>PT7337</name></trkpt>
<trkpt lat="53.391252" lon="-1.623574"><ele>383</ele><time>2020-05-21T11:57:22Z</time><name>PT7338</name></trkpt>
<trkpt lat="53.391252" lon="-1.623601"><ele>383</ele><time>2020-05-21T11:57:23Z</time><name>PT7339</name></trkpt>
<trkpt lat="53.391255" lon="-1.623623"><ele>383</ele><time>2020-05-21T11:57:25Z</time><name>PT7340</name></trkpt>
<trkpt lat="53.391257" lon="-1.623654"><ele>384</ele><time>2020-05-21T11:57:25Z</time><name>PT7341</name></trkpt>
<trkpt lat="53.391262" lon="-1.623684"><ele>384</ele><time>2020-05-21T11:57:26Z</time><name>PT7342</name></trkpt>
<trkpt lat="53.391262" lon="-1.623708"><ele>385</ele><time>2020-05-21T11:57:28Z</time><name>PT7343</name></trkpt>
<trkpt lat="53.391263" lon="-1.623726"><ele>384</ele><time>2020-05-21T11:57:28Z</time><name>PT7344</name></trkpt>
<trkpt lat="53.391266" lon="-1.623748"><ele>384</ele><time>2020-05-21T11:57:29Z</time><name>PT7345</name></trkpt>
<trkpt lat="53.391269" lon="-1.623773"><ele>383</ele><time>2020-05-21T11:57:31Z</time><name>PT7346</name></trkpt>
<trkpt lat="53.391271" lon="-1.623801"><ele>383</ele><time>2020-05-21T11:57:31Z</time><name>PT7347</name></trkpt>
<trkpt lat="53.391270" lon="-1.623830"><ele>383</ele><time>2020-05-21T11:57:32Z</time><name>PT7348</name></trkpt>
<trkpt lat="53.391271" lon="-1.623851"><ele>383</ele><time>2020-05-21T11:57:34Z</time><name>PT7349</name></trkpt>
<trkpt lat="53.391270" lon="-1.623871"><ele>383</ele><time>2020-05-21T11:57:34Z</time><name>PT7350</name></trkpt>
<trkpt lat="53.391270" lon="-1.623895"><ele>382</ele><time>2020-05-21T11:57:35Z</time><name>PT7351</name></trkpt>
<trkpt lat="53.391269" lon="-1.623920"><ele>382</ele><time>2020-05-21T11:57:37Z</time><name>PT7352</name></trkpt>
<trkpt lat="53.391267" lon="-1.623948"><ele>382</ele><time>2020-05-21T11:57:37Z</time><name>PT7353</name></trkpt>
<trkpt lat="53.391268" lon="-1.623973"><ele>382</ele><time>2020-05-21T11:57:38Z</time><name>PT7354</name></trkpt>
<trkpt lat="53.391267" lon="-1.623993"><ele>382</ele><time>2020-05-21T11:57:40Z</time><name>PT7355</name></trkpt>
<trkpt lat="53.391265" lon="-1.624013"><ele>381</ele><time>2020-05-21T11:57:40Z</time><name>PT7356</name></trkpt>
<trkpt lat="53.391264" lon="-1.624037"><ele>381</ele><time>2020-05-21T11:57:41Z</time><name>PT7357</name></trkpt>
<trkpt lat="53.391264" lon="-1.624062"><ele>381</ele><time>2020-05-21T11:57:43Z</time><name>PT7358</name></trkpt>
<trkpt lat="53.391262" lon="-1.624089"><ele>381</ele><time>2020-05-21T11:57:43Z</time><name>PT7359</name></trkpt>
<trkpt lat="53.391264" lon="-1.624109"><ele>381</ele><time>2020-05-21T11:57:44Z</time><name>PT7360</name></trkpt>
<trkpt lat="53.391264" lon="-1.624130"><ele>380</ele><time>2020-05-21T11:57:46Z</time><name>PT7361</name></trkpt>
<trkpt lat="53.391259" lon="-1.624154"><ele>381</ele><time>2020-05-21T11:57:46Z</time><name>PT7362</name></trkpt>
<trkpt lat="53.391255" lon="-1.624176"><ele>381</ele><time>2020-05-21T11:57:47Z</time><name>PT7363</name></trkpt>
<trkpt lat="53.391258" lon="-1.624203"><ele>381</ele><time>2020-05-21T11:57:49Z</time><name>PT7364</name></trkpt>
<trkpt lat="53.391258" lon="-1.624230"><ele>381</ele><time>2020-05-21T11:57:49Z</time><name>PT7365</name></trkpt>
<trkpt lat="53.391256" lon="-1.624249"><ele>381</ele><time>2020-05-21T11:57:50Z</time><name>PT7366</name></trkpt>
<trkpt lat="53.391256" lon="-1.624266"><ele>381</ele><time>2020-05-21T11:57:52Z</time><name>PT7367</name></trkpt>
<trkpt lat="53.391255" lon="-1.624286"><ele>380</ele><time>2020-05-21T11:57:52Z</time><name>PT7368</name></trkpt>
<trkpt lat="53.391262" lon="-1.624309"><ele>379</ele><time>2020-05-21T11:57:53Z</time><name>PT7369</name></trkpt>
<trkpt lat="53.391266" lon="-1.624328"><ele>380</ele><time>2020-05-21T11:57:55Z</time><name>PT7370</name></trkpt>
<trkpt lat="53.391267" lon="-1.624346"><ele>381</ele><time>2020-05-21T11:57:55Z</time><name>PT7371</name></trkpt>
<trkpt lat="53.391267" lon="-1.624366"><ele>381</ele><time>2020-05-21T11:57:56Z</time><name>PT7372</name></trkpt>
<trkpt lat="53.391265" lon="-1.624387"><ele>380</ele><time>2020-05-21T11:57:58Z</time><name>PT7373</name></trkpt>
<trkpt lat="53.391264" lon="-1.624407"><ele>380</ele><time>2020-05-21T11:57:58Z</time><name>PT7374</name></trkpt>
<trkpt lat="53.391263" lon="-1.624427"><ele>380</ele><time>2020-05-21T11:57:59Z</time><name>PT7375</name></trkpt>
<trkpt lat="53.391265" lon="-1.624453"><ele>380</ele><time>2020-05-21T11:58:01Z</time><name>PT7376</name></trkpt>
<trkpt lat="53.391271" lon="-1.624480"><ele>381</ele><time>2020-05-21T11:58:01Z</time><name>PT7377</name></trkpt>
<trkpt lat="53.391271" lon="-1.624500"><ele>382</ele><time>2020-05-21T11:58:02Z</time><name>PT7378</name></trkpt>
<trkpt lat="53.391276" lon="-1.624521"><ele>382</ele><time>2020-05-21T11:58:04Z</time><name>PT7379</name></trkpt>
<trkpt lat="53.391280" lon="-1.624546"><ele>382</ele><time>2020-05-21T11:58:04Z</time><name>PT7380</name></trkpt>
<trkpt lat="53.391281" lon="-1.624574"><ele>382</ele><time>2020-05-21T11:58:05Z</time><name>PT7381</name></trkpt>
<trkpt lat="53.391281" lon="-1.624599"><ele>382</ele><time>2020-05-21T11:58:07Z</time><name>PT7382</name></trkpt>
<trkpt lat="53.391282" lon="-1.624624"><ele>383</ele><time>2020-05-21T11:58:07Z</time><name>PT7383</name></trkpt>
<trkpt lat="53.391285" lon="-1.624640"><ele>383</ele><time>2020-05-21T11:58:08Z</time><name>PT7384</name></trkpt>
<trkpt lat="53.391294" lon="-1.624659"><ele>382</ele><time>2020-05-21T11:58:10Z</time><name>PT7385</name></trkpt>
<trkpt lat="53.391298" lon="-1.624679"><ele>382</ele><time>2020-05-21T11:58:10Z</time><name>PT7386</name></trkpt>
<trkpt lat="53.391299" lon="-1.624704"><ele>382</ele><time>2020-05-21T11:58:11Z</time><name>PT7387</name></trkpt>
<trkpt lat="53.391297" lon="-1.624732"><ele>382</ele><time>2020-05-21T11:58:13Z</time><name>PT7388</name></trkpt>
<trkpt lat="53.391296" lon="-1.624758"><ele>383</ele><time>2020-05-21T11:58:13Z</time><name>PT7389</name></trkpt>
<trkpt lat="53.391299" lon="-1.624772"><ele>383</ele><time>2020-05-21T11:58:14Z</time><name>PT7390</name></trkpt>
<trkpt lat="53.391302" lon="-1.624790"><ele>383</ele><time>2020-05-21T11:58:16Z</time><name>PT7391</name></trkpt>
<trkpt lat="53.391302" lon="-1.624808"><ele>382</ele><time>2020-05-21T11:58:16Z</time><name>PT7392</name></trkpt>
<trkpt lat="53.391305" lon="-1.624827"><ele>382</ele><time>2020-05-21T11:58:17Z</time><name>PT7393</name></trkpt>
<trkpt lat="53.391309" lon="-1.624846"><ele>382</ele><time>2020-05-21T11:58:19Z</time><name>PT7394</name></trkpt>
<trkpt lat="53.391310" lon="-1.624866"><ele>382</ele><time>2020-05-21T11:58:19Z</time><name>PT7395</name></trkpt>
<trkpt lat="53.391310" lon="-1.624880"><ele>381</ele><time>2020-05-21T11:58:20Z</time><name>PT7396</name></trkpt>
<trkpt lat="53.391304" lon="-1.624895"><ele>381</ele><time>2020-05-21T11:58:22Z</time><name>PT7397</name></trkpt>
<trkpt lat="53.391301" lon="-1.624915"><ele>381</ele><time>2020-05-21T11:58:22Z</time><name>PT7398</name></trkpt>
<trkpt lat="53.391299" lon="-1.624939"><ele>381</ele><time>2020-05-21T11:58:23Z</time><name>PT7399</name></trkpt>
<trkpt lat="53.391299" lon="-1.624968"><ele>381</ele><time>2020-05-21T11:58:25Z</time><name>PT7400</name></trkpt>
<trkpt lat="53.391298" lon="-1.624994"><ele>381</ele><time>2020-05-21T11:58:25Z</time><name>PT7401</name></trkpt>
<trkpt lat="53.391294" lon="-1.625006"><ele>381</ele><time>2020-05-21T11:58:26Z</time><name>PT7402</name></trkpt>
<trkpt lat="53.391292" lon="-1.625018"><ele>382</ele><time>2020-05-21T11:58:28Z</time><name>PT7403</name></trkpt>
<trkpt lat="53.391290" lon="-1.625037"><ele>382</ele><time>2020-05-21T11:58:28Z</time><name>PT7404</name></trkpt>
<trkpt lat="53.391287" lon="-1.625059"><ele>381</ele><time>2020-05-21T11:58:29Z</time><name>PT7405</name></trkpt>
<trkpt lat="53.391285" lon="-1.625085"><ele>381</ele><time>2020-05-21T11:58:31Z</time><name>PT7406</name></trkpt>
<trkpt lat="53.391283" lon="-1.625107"><ele>381</ele><time>2020-05-21T11:58:31Z</time><name>PT7407</name></trkpt>
<trkpt lat="53.391280" lon="-1.625122"><ele>382</ele><time>2020-05-21T11:58:32Z</time><name>PT7408</name></trkpt>
<trkpt lat="53.391279" lon="-1.625134"><ele>381</ele><time>2020-05-21T11:58:34Z</time><name>PT7409</name></trkpt>
<trkpt lat="53.391279" lon="-1.625151"><ele>380</ele><time>2020-05-21T11:58:34Z</time><name>PT7410</name></trkpt>
<trkpt lat="53.391279" lon="-1.625178"><ele>380</ele><time>2020-05-21T11:58:35Z</time><name>PT7411</name></trkpt>
<trkpt lat="53.391277" lon="-1.625199"><ele>381</ele><time>2020-05-21T11:58:37Z</time><name>PT7412</name></trkpt>
<trkpt lat="53.391279" lon="-1.625218"><ele>381</ele><time>2020-05-21T11:58:37Z</time><name>PT7413</name></trkpt>
<trkpt lat="53.391280" lon="-1.625232"><ele>381</ele><time>2020-05-21T11:58:38Z</time><name>PT7414</name></trkpt>
<trkpt lat="53.391280" lon="-1.625248"><ele>382</ele><time>2020-05-21T11:58:40Z</time><name>PT7415</name></trkpt>
<trkpt lat="53.391282" lon="-1.625272"><ele>382</ele><time>2020-05-21T11:58:40Z</time><name>PT7416</name></trkpt>
<trkpt lat="53.391283" lon="-1.625298"><ele>382</ele><time>2020-05-21T11:58:41Z</time><name>PT7417</name></trkpt>
<trkpt lat="53.391284" lon="-1.625320"><ele>382</ele><time>2020-05-21T11:58:43Z</time><name>PT7418</name></trkpt>
<trkpt lat="53.391285" lon="-1.625342"><ele>382</ele><time>2020-05-21T11:58:43Z</time><name>PT7419</name></trkpt>
<trkpt lat="53.391286" lon="-1.625361"><ele>383</ele><time>2020-05-21T11:58:44Z</time><name>PT7420</name></trkpt>
<trkpt lat="53.391286" lon="-1.625377"><ele>383</ele><time>2020-05-21T11:58:46Z</time><name>PT7421</name></trkpt>
<trkpt lat="53.391285" lon="-1.625398"><ele>384</ele><time>2020-05-21T11:58:46Z</time><name>PT7422</name></trkpt>
<trkpt lat="53.391291" lon="-1.625416"><ele>383</ele><time>2020-05-21T11:58:47Z</time><name>PT7423</name></trkpt>
<trkpt lat="53.391292" lon="-1.625440"><ele>382</ele><time>2020-05-21T11:58:49Z</time><name>PT7424</name></trkpt>
<trkpt lat="53.391293" lon="-1.625460"><ele>382</ele><time>2020-05-21T11:58:49Z</time><name>PT7425</name></trkpt>
<trkpt lat="53.391291" lon="-1.625477"><ele>381</ele><time>2020-05-21T11:58:50Z</time><name>PT7426</name></trkpt>
<trkpt lat="53.391292" lon="-1.625498"><ele>381</ele><time>2020-05-21T11:58:52Z</time><name>PT7427</name></trkpt>
<trkpt lat="53.391299" lon="-1.625516"><ele>380</ele><time>2020-05-21T11:58:52Z</time><name>PT7428</name></trkpt>
<trkpt lat="53.391299" lon="-1.625541"><ele>381</ele><time>2020-05-21T11:58:53Z</time><name>PT7429</name></trkpt>
<trkpt lat="53.391295" lon="-1.625569"><ele>381</ele><time>2020-05-21T11:58:54Z</time><name>PT7430</name></trkpt>
<trkpt lat="53.391295" lon="-1.625590"><ele>382</ele><time>2020-05-21T11:58:55Z</time><name>PT7431</name></trkpt>
<trkpt lat="53.391290" lon="-1.625608"><ele>382</ele><time>2020-05-21T11:58:57Z</time><name>PT7432</name></trkpt>
<trkpt lat="53.391288" lon="-1.625629"><ele>382</ele><time>2020-05-21T11:58:57Z</time><name>PT7433</name></trkpt>
<trkpt lat="53.391289" lon="-1.625654"><ele>382</ele><time>2020-05-21T11:58:59Z</time><name>PT7434</name></trkpt>
<trkpt lat="53.391293" lon="-1.625684"><ele>382</ele><time>2020-05-21T11:59:00Z</time><name>PT7435</name></trkpt>
<trkpt lat="53.391295" lon="-1.625705"><ele>381</ele><time>2020-05-21T11:59:00Z</time><name>PT7436</name></trkpt>
<trkpt lat="53.391296" lon="-1.625722"><ele>381</ele><time>2020-05-21T11:59:01Z</time><name>PT7437</name></trkpt>
<trkpt lat="53.391292" lon="-1.625741"><ele>382</ele><time>2020-05-21T11:59:03Z</time><name>PT7438</name></trkpt>
<trkpt lat="53.391294" lon="-1.625758"><ele>381</ele><time>2020-05-21T11:59:03Z</time><name>PT7439</name></trkpt>
<trkpt lat="53.391296" lon="-1.625784"><ele>382</ele><time>2020-05-21T11:59:04Z</time><name>PT7440</name></trkpt>
<trkpt lat="53.391298" lon="-1.625815"><ele>382</ele><time>2020-05-21T11:59:06Z</time><name>PT7441</name></trkpt>
<trkpt lat="53.391298" lon="-1.625843"><ele>382</ele><time>2020-05-21T11:59:06Z</time><name>PT7442</name></trkpt>
<trkpt lat="53.391299" lon="-1.625862"><ele>383</ele><time>2020-05-21T11:59:07Z</time><name>PT7443</name></trkpt>
<trkpt lat="53.391296" lon="-1.625879"><ele>383</ele><time>2020-05-21T11:59:09Z</time><name>PT7444</name></trkpt>
<trkpt lat="53.391295" lon="-1.625902"><ele>383</ele><time>2020-05-21T11:59:09Z</time><name>PT7445</name></trkpt>
<trkpt lat="53.391295" lon="-1.625926"><ele>383</ele><time>2020-05-21T11:59:10Z</time><name>PT7446</name></trkpt>
<trkpt lat="53.391294" lon="-1.625953"><ele>383</ele><time>2020-05-21T11:59:12Z</time><name>PT7447</name></trkpt>
<trkpt lat="53.391290" lon="-1.625976"><ele>383</ele><time>2020-05-21T11:59:12Z</time><name>PT7448</name></trkpt>
<trkpt lat="53.391288" lon="-1.625994"><ele>384</ele><time>2020-05-21T11:59:13Z</time><name>PT7449</name></trkpt>
<trkpt lat="53.391288" lon="-1.626012"><ele>384</ele><time>2020-05-21T11:59:15Z</time><name>PT7450</name></trkpt>
<trkpt lat="53.391287" lon="-1.626035"><ele>385</ele><time>2020-05-21T11:59:15Z</time><name>PT7451</name></trkpt>
<trkpt lat="53.391287" lon="-1.626058"><ele>385</ele><time>2020-05-21T11:59:16Z</time><name>PT7452</name></trkpt>
<trkpt lat="53.391289" lon="-1.626084"><ele>385</ele><time>2020-05-21T11:59:18Z</time><name>PT7453</name></trkpt>
<trkpt lat="53.391288" lon="-1.626101"><ele>385</ele><time>2020-05-21T11:59:18Z</time><name>PT7454</name></trkpt>
<trkpt lat="53.391288" lon="-1.626116"><ele>385</ele><time>2020-05-21T11:59:19Z</time><name>PT7455</name></trkpt>
<trkpt lat="53.391289" lon="-1.626137"><ele>384</ele><time>2020-05-21T11:59:21Z</time><name>PT7456</name></trkpt>
<trkpt lat="53.391291" lon="-1.626158"><ele>384</ele><time>2020-05-21T11:59:21Z</time><name>PT7457</name></trkpt>
<trkpt lat="53.391291" lon="-1.626183"><ele>385</ele><time>2020-05-21T11:59:22Z</time><name>PT7458</name></trkpt>
<trkpt lat="53.391288" lon="-1.626207"><ele>385</ele><time>2020-05-21T11:59:24Z</time><name>PT7459</name></trkpt>
<trkpt lat="53.391286" lon="-1.626223"><ele>386</ele><time>2020-05-21T11:59:24Z</time><name>PT7460</name></trkpt>
<trkpt lat="53.391286" lon="-1.626241"><ele>386</ele><time>2020-05-21T11:59:26Z</time><name>PT7461</name></trkpt>
<trkpt lat="53.391285" lon="-1.626267"><ele>385</ele><time>2020-05-21T11:59:27Z</time><name>PT7462</name></trkpt>
<trkpt lat="53.391286" lon="-1.626291"><ele>385</ele><time>2020-05-21T11:59:27Z</time><name>PT7463</name></trkpt>
<trkpt lat="53.391286" lon="-1.626317"><ele>385</ele><time>2020-05-21T11:59:28Z</time><name>PT7464</name></trkpt>
<trkpt lat="53.391285" lon="-1.626348"><ele>386</ele><time>2020-05-21T11:59:30Z</time><name>PT7465</name></trkpt>
<trkpt lat="53.391283" lon="-1.626367"><ele>386</ele><time>2020-05-21T11:59:30Z</time><name>PT7466</name></trkpt>
<trkpt lat="53.391281" lon="-1.626380"><ele>385</ele><time>2020-05-21T11:59:31Z</time><name>PT7467</name></trkpt>
<trkpt lat="53.391275" lon="-1.626398"><ele>385</ele><time>2020-05-21T11:59:33Z</time><name>PT7468</name></trkpt>
<trkpt lat="53.391273" lon="-1.626419"><ele>385</ele><time>2020-05-21T11:59:33Z</time><name>PT7469</name></trkpt>
<trkpt lat="53.391272" lon="-1.626445"><ele>385</ele><time>2020-05-21T11:59:34Z</time><name>PT7470</name></trkpt>
<trkpt lat="53.391272" lon="-1.626463"><ele>386</ele><time>2020-05-21T11:59:36Z</time><name>PT7471</name></trkpt>
<trkpt lat="53.391271" lon="-1.626475"><ele>386</ele><time>2020-05-21T11:59:36Z</time><name>PT7472</name></trkpt>
<trkpt lat="53.391274" lon="-1.626493"><ele>386</ele><time>2020-05-21T11:59:37Z</time><name>PT7473</name></trkpt>
<trkpt lat="53.391276" lon="-1.626515"><ele>386</ele><time>2020-05-21T11:59:39Z</time><name>PT7474</name></trkpt>
<trkpt lat="53.391277" lon="-1.626539"><ele>386</ele><time>2020-05-21T11:59:39Z</time><name>PT7475</name></trkpt>
<trkpt lat="53.391276" lon="-1.626564"><ele>386</ele><time>2020-05-21T11:59:40Z</time><name>PT7476</name></trkpt>
<trkpt lat="53.391275" lon="-1.626585"><ele>386</ele><time>2020-05-21T11:59:42Z</time><name>PT7477</name></trkpt>
<trkpt lat="53.391275" lon="-1.626602"><ele>387</ele><time>2020-05-21T11:59:42Z</time><name>PT7478</name></trkpt>
<trkpt lat="53.391275" lon="-1.626619"><ele>387</ele><time>2020-05-21T11:59:43Z</time><name>PT7479</name></trkpt>
<trkpt lat="53.391273" lon="-1.626638"><ele>387</ele><time>2020-05-21T11:59:45Z</time><name>PT7480</name></trkpt>
<trkpt lat="53.391273" lon="-1.626664"><ele>387</ele><time>2020-05-21T11:59:45Z</time><name>PT7481</name></trkpt>
<trkpt lat="53.391281" lon="-1.626684"><ele>387</ele><time>2020-05-21T11:59:46Z</time><name>PT7482</name></trkpt>
<trkpt lat="53.391284" lon="-1.626699"><ele>387</ele><time>2020-05-21T11:59:48Z</time><name>PT7483</name></trkpt>
<trkpt lat="53.391285" lon="-1.626711"><ele>387</ele><time>2020-05-21T11:59:48Z</time><name>PT7484</name></trkpt>
<trkpt lat="53.391285" lon="-1.626730"><ele>387</ele><time>2020-05-21T11:59:49Z</time><name>PT7485</name></trkpt>
<trkpt lat="53.391285" lon="-1.626749"><ele>387</ele><time>2020-05-21T11:59:51Z</time><name>PT7486</name></trkpt>
<trkpt lat="53.391287" lon="-1.626771"><ele>386</ele><time>2020-05-21T11:59:51Z</time><name>PT7487</name></trkpt>
<trkpt lat="53.391290" lon="-1.626797"><ele>386</ele><time>2020-05-21T11:59:52Z</time><name>PT7488</name></trkpt>
<trkpt lat="53.391291" lon="-1.626815"><ele>387</ele><time>2020-05-21T11:59:54Z</time><name>PT7489</name></trkpt>
<trkpt lat="53.391293" lon="-1.626828"><ele>386</ele><time>2020-05-21T11:59:55Z</time><name>PT7490</name></trkpt>
<trkpt lat="53.391293" lon="-1.626844"><ele>386</ele><time>2020-05-21T11:59:56Z</time><name>PT7491</name></trkpt>
<trkpt lat="53.391296" lon="-1.626867"><ele>386</ele><time>2020-05-21T11:59:57Z</time><name>PT7492</name></trkpt>
<trkpt lat="53.391296" lon="-1.626897"><ele>386</ele><time>2020-05-21T11:59:57Z</time><name>PT7493</name></trkpt>
<trkpt lat="53.391292" lon="-1.626917"><ele>387</ele><time>2020-05-21T11:59:58Z</time><name>PT7494</name></trkpt>
<trkpt lat="53.391293" lon="-1.626933"><ele>387</ele><time>2020-05-21T12:00:00Z</time><name>PT7495</name></trkpt>
<trkpt lat="53.391293" lon="-1.626949"><ele>387</ele><time>2020-05-21T12:00:00Z</time><name>PT7496</name></trkpt>
<trkpt lat="53.391294" lon="-1.626973"><ele>387</ele><time>2020-05-21T12:00:01Z</time><name>PT7497</name></trkpt>
<trkpt lat="53.391293" lon="-1.626997"><ele>386</ele><time>2020-05-21T12:00:03Z</time><name>PT7498</name></trkpt>
<trkpt lat="53.391294" lon="-1.627019"><ele>387</ele><time>2020-05-21T12:00:03Z</time><name>PT7499</name></trkpt>
<trkpt lat="53.391294" lon="-1.627038"><ele>387</ele><time>2020-05-21T12:00:04Z</time><name>PT7500</name></trkpt>
<trkpt lat="53.391295" lon="-1.627059"><ele>387</ele><time>2020-05-21T12:00:06Z</time><name>PT7501</name></trkpt>
<trkpt lat="53.391296" lon="-1.627077"><ele>388</ele><time>2020-05-21T12:00:06Z</time><name>PT7502</name></trkpt>
<trkpt lat="53.391297" lon="-1.627096"><ele>387</ele><time>2020-05-21T12:00:07Z</time><name>PT7503</name></trkpt>
<trkpt lat="53.391298" lon="-1.627120"><ele>388</ele><time>2020-05-21T12:00:09Z</time><name>PT7504</name></trkpt>
<trkpt lat="53.391300" lon="-1.627145"><ele>388</ele><time>2020-05-21T12:00:09Z</time><name>PT7505</name></trkpt>
<trkpt lat="53.391301" lon="-1.627168"><ele>388</ele><time>2020-05-21T12:00:10Z</time><name>PT7506</name></trkpt>
<trkpt lat="53.391302" lon="-1.627183"><ele>388</ele><time>2020-05-21T12:00:12Z</time><name>PT7507</name></trkpt>
<trkpt lat="53.391306" lon="-1.627193"><ele>388</ele><time>2020-05-21T12:00:12Z</time><name>PT7508</name></trkpt>
<trkpt lat="53.391308" lon="-1.627212"><ele>388</ele><time>2020-05-21T12:00:14Z</time><name>PT7509</name></trkpt>
<trkpt lat="53.391311" lon="-1.627234"><ele>388</ele><time>2020-05-21T12:00:15Z</time><name>PT7510</name></trkpt>
<trkpt lat="53.391315" lon="-1.627259"><ele>387</ele><time>2020-05-21T12:00:15Z</time><name>PT7511</name></trkpt>
<trkpt lat="53.391317" lon="-1.627280"><ele>387</ele><time>2020-05-21T12:00:16Z</time><name>PT7512</name></trkpt>
<trkpt lat="53.391319" lon="-1.627296"><ele>388</ele><time>2020-05-21T12:00:18Z</time><name>PT7513</name></trkpt>
<trkpt lat="53.391316" lon="-1.627319"><ele>387</ele><time>2020-05-21T12:00:18Z</time><name>PT7514</name></trkpt>
<trkpt lat="53.391315" lon="-1.627340"><ele>388</ele><time>2020-05-21T12:00:19Z</time><name>PT7515</name></trkpt>
<trkpt lat="53.391315" lon="-1.627366"><ele>388</ele><time>2020-05-21T12:00:21Z</time><name>PT7516</name></trkpt>
<trkpt lat="53.391317" lon="-1.627393"><ele>387</ele><time>2020-05-21T12:00:21Z</time><name>PT7517</name></trkpt>
<trkpt lat="53.391317" lon="-1.627413"><ele>387</ele><time>2020-05-21T12:00:22Z</time><name>PT7518</name></trkpt>
<trkpt lat="53.391314" lon="-1.627431"><ele>388</ele><time>2020-05-21T12:00:24Z</time><name>PT7519</name></trkpt>
<trkpt lat="53.391310" lon="-1.627452"><ele>388</ele><time>2020-05-21T12:00:24Z</time><name>PT7520</name></trkpt>
<trkpt lat="53.391308" lon="-1.627474"><ele>388</ele><time>2020-05-21T12:00:25Z</time><name>PT7521</name></trkpt>
<trkpt lat="53.391308" lon="-1.627499"><ele>388</ele><time>2020-05-21T12:00:27Z</time><name>PT7522</name></trkpt>
<trkpt lat="53.391309" lon="-1.627526"><ele>388</ele><time>2020-05-21T12:00:27Z</time><name>PT7523</name></trkpt>
<trkpt lat="53.391311" lon="-1.627548"><ele>388</ele><time>2020-05-21T12:00:28Z</time><name>PT7524</name></trkpt>
<trkpt lat="53.391309" lon="-1.627565"><ele>388</ele><time>2020-05-21T12:00:30Z</time><name>PT7525</name></trkpt>
<trkpt lat="53.391310" lon="-1.627585"><ele>389</ele><time>2020-05-21T12:00:30Z</time><name>PT7526</name></trkpt>
<trkpt lat="53.391307" lon="-1.627606"><ele>389</ele><time>2020-05-21T12:00:31Z</time><name>PT7527</name></trkpt>
<trkpt lat="53.391305" lon="-1.627633"><ele>389</ele><time>2020-05-21T12:00:33Z</time><name>PT7528</name></trkpt>
<trkpt lat="53.391307" lon="-1.627658"><ele>389</ele><time>2020-05-21T12:00:33Z</time><name>PT7529</name></trkpt>
<trkpt lat="53.391307" lon="-1.627681"><ele>389</ele><time>2020-05-21T12:00:34Z</time><name>PT7530</name></trkpt>
<trkpt lat="53.391306" lon="-1.627698"><ele>389</ele><time>2020-05-21T12:00:36Z</time><name>PT7531</name></trkpt>
<trkpt lat="53.391305" lon="-1.627719"><ele>388</ele><time>2020-05-21T12:00:36Z</time><name>PT7532</name></trkpt>
<trkpt lat="53.391306" lon="-1.627746"><ele>388</ele><time>2020-05-21T12:00:37Z</time><name>PT7533</name></trkpt>
<trkpt lat="53.391306" lon="-1.627775"><ele>388</ele><time>2020-05-21T12:00:39Z</time><name>PT7534</name></trkpt>
<trkpt lat="53.391307" lon="-1.627798"><ele>388</ele><time>2020-05-21T12:00:39Z</time><name>PT7535</name></trkpt>
<trkpt lat="53.391307" lon="-1.627813"><ele>389</ele><time>2020-05-21T12:00:40Z</time><name>PT7536</name></trkpt>
<trkpt lat="53.391304" lon="-1.627829"><ele>389</ele><time>2020-05-21T12:00:42Z</time><name>PT7537</name></trkpt>
<trkpt lat="53.391304" lon="-1.627851"><ele>389</ele><time>2020-05-21T12:00:42Z</time><name>PT7538</name></trkpt>
<trkpt lat="53.391300" lon="-1.627873"><ele>388</ele><time>2020-05-21T12:00:43Z</time><name>PT7539</name></trkpt>
<trkpt lat="53.391295" lon="-1.627894"><ele>388</ele><time>2020-05-21T12:00:45Z</time><name>PT7540</name></trkpt>
<trkpt lat="53.391294" lon="-1.627914"><ele>389</ele><time>2020-05-21T12:00:45Z</time><name>PT7541</name></trkpt>
<trkpt lat="53.391295" lon="-1.627936"><ele>389</ele><time>2020-05-21T12:00:46Z</time><name>PT7542</name></trkpt>
<trkpt lat="53.391297" lon="-1.627950"><ele>389</ele><time>2020-05-21T12:00:48Z</time><name>PT7543</name></trkpt>
<trkpt lat="53.391296" lon="-1.627969"><ele>388</ele><time>2020-05-21T12:00:48Z</time><name>PT7544</name></trkpt>
<trkpt lat="53.391298" lon="-1.627991"><ele>389</ele><time>2020-05-21T12:00:49Z</time><name>PT7545</name></trkpt>
<trkpt lat="53.391300" lon="-1.628015"><ele>389</ele><time>2020-05-21T12:00:51Z</time><name>PT7546</name></trkpt>
<trkpt lat="53.391299" lon="-1.628043"><ele>389</ele><time>2020-05-21T12:00:51Z</time><name>PT7547</name></trkpt>
<trkpt lat="53.391301" lon="-1.628071"><ele>390</ele><time>2020-05-21T12:00:52Z</time><name>PT7548</name></trkpt>
<trkpt lat="53.391302" lon="-1.628092"><ele>390</ele><time>2020-05-21T12:00:54Z</time><name>PT7549</name></trkpt>
<trkpt lat="53.391305" lon="-1.628109"><ele>390</ele><time>2020-05-21T12:00:54Z</time><name>PT7550</name></trkpt>
<trkpt lat="53.391305" lon="-1.628130"><ele>390</ele><time>2020-05-21T12:00:55Z</time><name>PT7551</name></trkpt>
<trkpt lat="53.391304" lon="-1.628157"><ele>390</ele><time>2020-05-21T12:00:57Z</time><name>PT7552</name></trkpt>
<trkpt lat="53.391305" lon="-1.628182"><ele>391</ele><time>2020-05-21T12:00:57Z</time><name>PT7553</name></trkpt>
<trkpt lat="53.391305" lon="-1.628207"><ele>390</ele><time>2020-05-21T12:00:58Z</time><name>PT7554</name></trkpt>
<trkpt lat="53.391307" lon="-1.628223"><ele>391</ele><time>2020-05-21T12:01:00Z</time><name>PT7555</name></trkpt>
<trkpt lat="53.391308" lon="-1.628237"><ele>391</ele><time>2020-05-21T12:01:00Z</time><name>PT7556</name></trkpt>
<trkpt lat="53.391308" lon="-1.628258"><ele>390</ele><time>2020-05-21T12:01:01Z</time><name>PT7557</name></trkpt>
<trkpt lat="53.391310" lon="-1.628279"><ele>391</ele><time>2020-05-21T12:01:03Z</time><name>PT7558</name></trkpt>
<trkpt lat="53.391311" lon="-1.628304"><ele>390</ele><time>2020-05-21T12:01:03Z</time><name>PT7559</name></trkpt>
<trkpt lat="53.391312" lon="-1.628324"><ele>391</ele><time>2020-05-21T12:01:04Z</time><name>PT7560</name></trkpt>
<trkpt lat="53.391312" lon="-1.628340"><ele>391</ele><time>2020-05-21T12:01:06Z</time><name>PT7561</name></trkpt>
<trkpt lat="53.391312" lon="-1.628358"><ele>391</ele><time>2020-05-21T12:01:06Z</time><name>PT7562</name></trkpt>
<trkpt lat="53.391311" lon="-1.628384"><ele>391</ele><time>2020-05-21T12:01:07Z</time><name>PT7563</name></trkpt>
<trkpt lat="53.391316" lon="-1.628408"><ele>392</ele><time>2020-05-21T12:01:09Z</time><name>PT7564</name></trkpt>
<trkpt lat="53.391318" lon="-1.628434"><ele>392</ele><time>2020-05-21T12:01:09Z</time><name>PT7565</name></trkpt>
<trkpt lat="53.391319" lon="-1.628452"><ele>392</ele><time>2020-05-21T12:01:10Z</time><name>PT7566</name></trkpt>
<trkpt lat="53.391315" lon="-1.628464"><ele>391</ele><time>2020-05-21T12:01:12Z</time><name>PT7567</name></trkpt>
<trkpt lat="53.391317" lon="-1.628486"><ele>391</ele><time>2020-05-21T12:01:12Z</time><name>PT7568</name></trkpt>
<trkpt lat="53.391317" lon="-1.628511"><ele>391</ele><time>2020-05-21T12:01:13Z</time><name>PT7569</name></trkpt>
<trkpt lat="53.391321" lon="-1.628543"><ele>391</ele><time>2020-05-21T12:01:15Z</time><name>PT7570</name></trkpt>
<trkpt lat="53.391321" lon="-1.628570"><ele>391</ele><time>2020-05-21T12:01:15Z</time><name>PT7571</name></trkpt>
<trkpt lat="53.391321" lon="-1.628584"><ele>391</ele><time>2020-05-21T12:01:16Z</time><name>PT7572</name></trkpt>
<trkpt lat="53.391321" lon="-1.628601"><ele>391</ele><time>2020-05-21T12:01:18Z</time><name>PT7573</name></trkpt>
<trkpt lat="53.391320" lon="-1.628622"><ele>391</ele><time>2020-05-21T12:01:18Z</time><name>PT7574</name></trkpt>
<trkpt lat="53.391321" lon="-1.628646"><ele>391</ele><time>2020-05-21T12:01:20Z</time><name>PT7575</name></trkpt>
<trkpt lat="53.391322" lon="-1.628672"><ele>391</ele><time>2020-05-21T12:01:21Z</time><name>PT7576</name></trkpt>
<trkpt lat="53.391324" lon="-1.628689"><ele>391</ele><time>2020-05-21T12:01:21Z</time><name>PT7577</name></trkpt>
<trkpt lat="53.391323" lon="-1.628704"><ele>391</ele><time>2020-05-21T12:01:22Z</time><name>PT7578</name></trkpt>
<trkpt lat="53.391320" lon="-1.628725"><ele>391</ele><time>2020-05-21T12:01:24Z</time><name>PT7579</name></trkpt>
<trkpt lat="53.391316" lon="-1.628749"><ele>390</ele><time>2020-05-21T12:01:24Z</time><name>PT7580</name></trkpt>
<trkpt lat="53.391313" lon="-1.628776"><ele>390</ele><time>2020-05-21T12:01:25Z</time><name>PT7581</name></trkpt>
<trkpt lat="53.391312" lon="-1.628799"><ele>390</ele><time>2020-05-21T12:01:27Z</time><name>PT7582</name></trkpt>
<trkpt lat="53.391309" lon="-1.628817"><ele>390</ele><time>2020-05-21T12:01:27Z</time><name>PT7583</name></trkpt>
<trkpt lat="53.391308" lon="-1.628833"><ele>389</ele><time>2020-05-21T12:01:28Z</time><name>PT7584</name></trkpt>
<trkpt lat="53.391310" lon="-1.628856"><ele>389</ele><time>2020-05-21T12:01:30Z</time><name>PT7585</name></trkpt>
<trkpt lat="53.391308" lon="-1.628877"><ele>389</ele><time>2020-05-21T12:01:30Z</time><name>PT7586</name></trkpt>
<trkpt lat="53.391308" lon="-1.628903"><ele>389</ele><time>2020-05-21T12:01:31Z</time><name>PT7587</name></trkpt>
<trkpt lat="53.391310" lon="-1.628922"><ele>389</ele><time>2020-05-21T12:01:33Z</time><name>PT7588</name></trkpt>
<trkpt lat="53.391310" lon="-1.628936"><ele>389</ele><time>2020-05-21T12:01:33Z</time><name>PT7589</name></trkpt>
<trkpt lat="53.391311" lon="-1.628954"><ele>389</ele><time>2020-05-21T12:01:34Z</time><name>PT7590</name></trkpt>
<trkpt lat="53.391310" lon="-1.628976"><ele>389</ele><time>2020-05-21T12:01:36Z</time><name>PT7591</name></trkpt>
<trkpt lat="53.391309" lon="-1.629002"><ele>389</ele><time>2020-05-21T12:01:36Z</time><name>PT7592</name></trkpt>
<trkpt lat="53.391311" lon="-1.629026"><ele>390</ele><time>2020-05-21T12:01:37Z</time><name>PT7593</name></trkpt>
<trkpt lat="53.391313" lon="-1.629043"><ele>391</ele><time>2020-05-21T12:01:39Z</time><name>PT7594</name></trkpt>
<trkpt lat="53.391317" lon="-1.629053"><ele>391</ele><time>2020-05-21T12:01:39Z</time><name>PT7595</name></trkpt>
<trkpt lat="53.391318" lon="-1.629072"><ele>391</ele><time>2020-05-21T12:01:40Z</time><name>PT7596</name></trkpt>
<trkpt lat="53.391320" lon="-1.629096"><ele>391</ele><time>2020-05-21T12:01:42Z</time><name>PT7597</name></trkpt>
<trkpt lat="53.391323" lon="-1.629122"><ele>391</ele><time>2020-05-21T12:01:42Z</time><name>PT7598</name></trkpt>
<trkpt lat="53.391326" lon="-1.629138"><ele>391</ele><time>2020-05-21T12:01:43Z</time><name>PT7599</name></trkpt>
<trkpt lat="53.391327" lon="-1.629154"><ele>391</ele><time>2020-05-21T12:01:45Z</time><name>PT7600</name></trkpt>
<trkpt lat="53.391328" lon="-1.629175"><ele>391</ele><time>2020-05-21T12:01:45Z</time><name>PT7601</name></trkpt>
<trkpt lat="53.391328" lon="-1.629198"><ele>391</ele><time>2020-05-21T12:01:46Z</time><name>PT7602</name></trkpt>
<trkpt lat="53.391329" lon="-1.629224"><ele>391</ele><time>2020-05-21T12:01:48Z</time><name>PT7603</name></trkpt>
<trkpt lat="53.391329" lon="-1.629242"><ele>391</ele><time>2020-05-21T12:01:48Z</time><name>PT7604</name></trkpt>
<trkpt lat="53.391329" lon="-1.629260"><ele>391</ele><time>2020-05-21T12:01:49Z</time><name>PT7605</name></trkpt>
<trkpt lat="53.391327" lon="-1.629282"><ele>391</ele><time>2020-05-21T12:01:51Z</time><name>PT7606</name></trkpt>
<trkpt lat="53.391327" lon="-1.629308"><ele>391</ele><time>2020-05-21T12:01:51Z</time><name>PT7607</name></trkpt>
<trkpt lat="53.391326" lon="-1.629335"><ele>391</ele><time>2020-05-21T12:01:52Z</time><name>PT7608</name></trkpt>
<trkpt lat="53.391326" lon="-1.629353"><ele>391</ele><time>2020-05-21T12:01:54Z</time><name>PT7609</name></trkpt>
<trkpt lat="53.391327" lon="-1.629367"><ele>391</ele><time>2020-05-21T12:01:54Z</time><name>PT7610</name></trkpt>
<trkpt lat="53.391327" lon="-1.629387"><ele>391</ele><time>2020-05-21T12:01:55Z</time><name>PT7611</name></trkpt>
<trkpt lat="53.391325" lon="-1.629411"><ele>391</ele><time>2020-05-21T12:01:57Z</time><name>PT7612</name></trkpt>
<trkpt lat="53.391324" lon="-1.629439"><ele>391</ele><time>2020-05-21T12:01:57Z</time><name>PT7613</name></trkpt>
<trkpt lat="53.391323" lon="-1.629464"><ele>390</ele><time>2020-05-21T12:01:58Z</time><name>PT7614</name></trkpt>
<trkpt lat="53.391325" lon="-1.629479"><ele>390</ele><time>2020-05-21T12:02:00Z</time><name>PT7615</name></trkpt>
<trkpt lat="53.391327" lon="-1.629494"><ele>390</ele><time>2020-05-21T12:02:00Z</time><name>PT7616</name></trkpt>
<trkpt lat="53.391328" lon="-1.629516"><ele>390</ele><time>2020-05-21T12:02:01Z</time><name>PT7617</name></trkpt>
<trkpt lat="53.391327" lon="-1.629542"><ele>390</ele><time>2020-05-21T12:02:03Z</time><name>PT7618</name></trkpt>
<trkpt lat="53.391328" lon="-1.629570"><ele>391</ele><time>2020-05-21T12:02:03Z</time><name>PT7619</name></trkpt>
<trkpt lat="53.391328" lon="-1.629589"><ele>390</ele><time>2020-05-21T12:02:04Z</time><name>PT7620</name></trkpt>
<trkpt lat="53.391329" lon="-1.629599"><ele>390</ele><time>2020-05-21T12:02:06Z</time><name>PT7621</name></trkpt>
<trkpt lat="53.391330" lon="-1.629617"><ele>391</ele><time>2020-05-21T12:02:06Z</time><name>PT7622</name></trkpt>
<trkpt lat="53.391331" lon="-1.629641"><ele>392</ele><time>2020-05-21T12:02:07Z</time><name>PT7623</name></trkpt>
<trkpt lat="53.391336" lon="-1.629666"><ele>392</ele><time>2020-05-21T12:02:09Z</time><name>PT7624</name></trkpt>
<trkpt lat="53.391337" lon="-1.629688"><ele>392</ele><time>2020-05-21T12:02:09Z</time><name>PT7625</name></trkpt>
<trkpt lat="53.391338" lon="-1.629705"><ele>392</ele><time>2020-05-21T12:02:10Z</time><name>PT7626</name></trkpt>
<trkpt lat="53.391336" lon="-1.629724"><ele>392</ele><time>2020-05-21T12:02:12Z</time><name>PT7627</name></trkpt>
<trkpt lat="53.391335" lon="-1.629749"><ele>392</ele><time>2020-05-21T12:02:12Z</time><name>PT7628</name></trkpt>
<trkpt lat="53.391333" lon="-1.629777"><ele>392</ele><time>2020-05-21T12:02:13Z</time><name>PT7629</name></trkpt>
<trkpt lat="53.391331" lon="-1.629805"><ele>392</ele><time>2020-05-21T12:02:15Z</time><name>PT7630</name></trkpt>
<trkpt lat="53.391330" lon="-1.629822"><ele>392</ele><time>2020-05-21T12:02:15Z</time><name>PT7631</name></trkpt>
<trkpt lat="53.391327" lon="-1.629836"><ele>392</ele><time>2020-05-21T12:02:16Z</time><name>PT7632</name></trkpt>
<trkpt lat="53.391324" lon="-1.629854"><ele>392</ele><time>2020-05-21T12:02:18Z</time><name>PT7633</name></trkpt>
<trkpt lat="53.391323" lon="-1.629877"><ele>392</ele><time>2020-05-21T12:02:18Z</time><name>PT7634</name></trkpt>
<trkpt lat="53.391323" lon="-1.629904"><ele>392</ele><time>2020-05-21T12:02:19Z</time><name>PT7635</name></trkpt>
<trkpt lat="53.391323" lon="-1.629925"><ele>392</ele><time>2020-05-21T12:02:21Z</time><name>PT7636</name></trkpt>
<trkpt lat="53.391324" lon="-1.629939"><ele>391</ele><time>2020-05-21T12:02:21Z</time><name>PT7637</name></trkpt>
<trkpt lat="53.391324" lon="-1.629958"><ele>392</ele><time>2020-05-21T12:02:22Z</time><name>PT7638</name></trkpt>
<trkpt lat="53.391326" lon="-1.629981"><ele>391</ele><time>2020-05-21T12:02:24Z</time><name>PT7639</name></trkpt>
<trkpt lat="53.391328" lon="-1.630008"><ele>392</ele><time>2020-05-21T12:02:24Z</time><name>PT7640</name></trkpt>
<trkpt lat="53.391327" lon="-1.630038"><ele>392</ele><time>2020-05-21T12:02:25Z</time><name>PT7641</name></trkpt>
<trkpt lat="53.391329" lon="-1.630060"><ele>393</ele><time>2020-05-21T12:02:27Z</time><name>PT7642</name></trkpt>
<trkpt lat="53.391331" lon="-1.630073"><ele>392</ele><time>2020-05-21T12:02:27Z</time><name>PT7643</name></trkpt>
<trkpt lat="53.391333" lon="-1.630092"><ele>392</ele><time>2020-05-21T12:02:28Z</time><name>PT7644</name></trkpt>
<trkpt lat="53.391336" lon="-1.630119"><ele>392</ele><time>2020-05-21T12:02:30Z</time><name>PT7645</name></trkpt>
<trkpt lat="53.391339" lon="-1.630142"><ele>393</ele><time>2020-05-21T12:02:30Z</time><name>PT7646</name></trkpt>
<trkpt lat="53.391342" lon="-1.630167"><ele>394</ele><time>2020-05-21T12:02:31Z</time><name>PT7647</name></trkpt>
<trkpt lat="53.391345" lon="-1.630182"><ele>395</ele><time>2020-05-21T12:02:33Z</time><name>PT7648</name></trkpt>
<trkpt lat="53.391343" lon="-1.630200"><ele>394</ele><time>2020-05-21T12:02:33Z</time><name>PT7649</name></trkpt>
<trkpt lat="53.391343" lon="-1.630221"><ele>394</ele><time>2020-05-21T12:02:34Z</time><name>PT7650</name></trkpt>
<trkpt lat="53.391342" lon="-1.630242"><ele>395</ele><time>2020-05-21T12:02:36Z</time><name>PT7651</name></trkpt>
<trkpt lat="53.391342" lon="-1.630267"><ele>395</ele><time>2020-05-21T12:02:36Z</time><name>PT7652</name></trkpt>
<trkpt lat="53.391342" lon="-1.630287"><ele>395</ele><time>2020-05-21T12:02:37Z</time><name>PT7653</name></trkpt>
<trkpt lat="53.391342" lon="-1.630302"><ele>395</ele><time>2020-05-21T12:02:39Z</time><name>PT7654</name></trkpt>
<trkpt lat="53.391343" lon="-1.630322"><ele>395</ele><time>2020-05-21T12:02:39Z</time><name>PT7655</name></trkpt>
<trkpt lat="53.391342" lon="-1.630343"><ele>395</ele><time>2020-05-21T12:02:40Z</time><name>PT7656</name></trkpt>
<trkpt lat="53.391342" lon="-1.630371"><ele>396</ele><time>2020-05-21T12:02:41Z</time><name>PT7657</name></trkpt>
<trkpt lat="53.391342" lon="-1.630393"><ele>396</ele><time>2020-05-21T12:02:42Z</time><name>PT7658</name></trkpt>
<trkpt lat="53.391344" lon="-1.630405"><ele>396</ele><time>2020-05-21T12:02:44Z</time><name>PT7659</name></trkpt>
<trkpt lat="53.391344" lon="-1.630420"><ele>397</ele><time>2020-05-21T12:02:44Z</time><name>PT7660</name></trkpt>
<trkpt lat="53.391345" lon="-1.630443"><ele>397</ele><time>2020-05-21T12:02:45Z</time><name>PT7661</name></trkpt>
<trkpt lat="53.391347" lon="-1.630470"><ele>397</ele><time>2020-05-21T12:02:47Z</time><name>PT7662</name></trkpt>
<trkpt lat="53.391350" lon="-1.630495"><ele>398</ele><time>2020-05-21T12:02:47Z</time><name>PT7663</name></trkpt>
<trkpt lat="53.391352" lon="-1.630511"><ele>398</ele><time>2020-05-21T12:02:48Z</time><name>PT7664</name></trkpt>
<trkpt lat="53.391353" lon="-1.630528"><ele>398</ele><time>2020-05-21T12:02:50Z</time><name>PT7665</name></trkpt>
<trkpt lat="53.391355" lon="-1.630552"><ele>399</ele><time>2020-05-21T12:02:50Z</time><name>PT7666</name></trkpt>
<trkpt lat="53.391357" lon="-1.630580"><ele>399</ele><time>2020-05-21T12:02:51Z</time><name>PT7667</name></trkpt>
<trkpt lat="53.391357" lon="-1.630606"><ele>398</ele><time>2020-05-21T12:02:53Z</time><name>PT7668</name></trkpt>
<trkpt lat="53.391358" lon="-1.630622"><ele>398</ele><time>2020-05-21T12:02:53Z</time><name>PT7669</name></trkpt>
<trkpt lat="53.391360" lon="-1.630637"><ele>398</ele><time>2020-05-21T12:02:54Z</time><name>PT7670</name></trkpt>
<trkpt lat="53.391359" lon="-1.630658"><ele>398</ele><time>2020-05-21T12:02:56Z</time><name>PT7671</name></trkpt>
<trkpt lat="53.391359" lon="-1.630683"><ele>398</ele><time>2020-05-21T12:02:56Z</time><name>PT7672</name></trkpt>
<trkpt lat="53.391361" lon="-1.630711"><ele>398</ele><time>2020-05-21T12:02:57Z</time><name>PT7673</name></trkpt>
<trkpt lat="53.391364" lon="-1.630730"><ele>398</ele><time>2020-05-21T12:02:59Z</time><name>PT7674</name></trkpt>
<trkpt lat="53.391365" lon="-1.630746"><ele>397</ele><time>2020-05-21T12:02:59Z</time><name>PT7675</name></trkpt>
<trkpt lat="53.391365" lon="-1.630763"><ele>397</ele><time>2020-05-21T12:03:00Z</time><name>PT7676</name></trkpt>
<trkpt lat="53.391360" lon="-1.630788"><ele>396</ele><time>2020-05-21T12:03:02Z</time><name>PT7677</name></trkpt>
<trkpt lat="53.391358" lon="-1.630817"><ele>396</ele><time>2020-05-21T12:03:02Z</time><name>PT7678</name></trkpt>
<trkpt lat="53.391358" lon="-1.630841"><ele>396</ele><time>2020-05-21T12:03:03Z</time><name>PT7679</name></trkpt>
<trkpt lat="53.391359" lon="-1.630857"><ele>396</ele><time>2020-05-21T12:03:05Z</time><name>PT7680</name></trkpt>
<trkpt lat="53.391360" lon="-1.630871"><ele>396</ele><time>2020-05-21T12:03:05Z</time><name>PT7681</name></trkpt>
<trkpt lat="53.391361" lon="-1.630894"><ele>396</ele><time>2020-05-21T12:03:06Z</time><name>PT7682</name></trkpt>
<trkpt lat="53.391363" lon="-1.630922"><ele>396</ele><time>2020-05-21T12:03:08Z</time><name>PT7683</name></trkpt>
<trkpt lat="53.391362" lon="-1.630952"><ele>396</ele><time>2020-05-21T12:03:08Z</time><name>PT7684</name></trkpt>
<trkpt lat="53.391362" lon="-1.630974"><ele>396</ele><time>2020-05-21T12:03:09Z</time><name>PT7685</name></trkpt>
<trkpt lat="53.391362" lon="-1.630988"><ele>396</ele><time>2020-05-21T12:03:11Z</time><name>PT7686</name></trkpt>
<trkpt lat="53.391361" lon="-1.631004"><ele>396</ele><time>2020-05-21T12:03:11Z</time><name>PT7687</name></trkpt>
<trkpt lat="53.391362" lon="-1.631023"><ele>396</ele><time>2020-05-21T12:03:12Z</time><name>PT7688</name></trkpt>
<trkpt lat="53.391360" lon="-1.631049"><ele>396</ele><time>2020-05-21T12:03:14Z</time><name>PT7689</name></trkpt>
<trkpt lat="53.391361" lon="-1.631074"><ele>397</ele><time>2020-05-21T12:03:14Z</time><name>PT7690</name></trkpt>
<trkpt lat="53.391363" lon="-1.631090"><ele>397</ele><time>2020-05-21T12:03:15Z</time><name>PT7691</name></trkpt>
<trkpt lat="53.391364" lon="-1.631108"><ele>397</ele><time>2020-05-21T12:03:17Z</time><name>PT7692</name></trkpt>
<trkpt lat="53.391366" lon="-1.631130"><ele>397</ele><time>2020-05-21T12:03:17Z</time><name>PT7693</name></trkpt>
<trkpt lat="53.391369" lon="-1.631159"><ele>398</ele><time>2020-05-21T12:03:18Z</time><name>PT7694</name></trkpt>
<trkpt lat="53.391371" lon="-1.631185"><ele>398</ele><time>2020-05-21T12:03:20Z</time><name>PT7695</name></trkpt>
<trkpt lat="53.391373" lon="-1.631209"><ele>397</ele><time>2020-05-21T12:03:20Z</time><name>PT7696</name></trkpt>
<trkpt lat="53.391372" lon="-1.631229"><ele>398</ele><time>2020-05-21T12:03:21Z</time><name>PT7697</name></trkpt>
<trkpt lat="53.391371" lon="-1.631247"><ele>398</ele><time>2020-05-21T12:03:23Z</time><name>PT7698</name></trkpt>
<trkpt lat="53.391371" lon="-1.631269"><ele>398</ele><time>2020-05-21T12:03:23Z</time><name>PT7699</name></trkpt>
<trkpt lat="53.391372" lon="-1.631295"><ele>397</ele><time>2020-05-21T12:03:24Z</time><name>PT7700</name></trkpt>
<trkpt lat="53.391374" lon="-1.631325"><ele>398</ele><time>2020-05-21T12:03:26Z</time><name>PT7701</name></trkpt>
<trkpt lat="53.391378" lon="-1.631346"><ele>398</ele><time>2020-05-21T12:03:26Z</time><name>PT7702</name></trkpt>
<trkpt lat="53.391380" lon="-1.631359"><ele>399</ele><time>2020-05-21T12:03:27Z</time><name>PT7703</name></trkpt>
<trkpt lat="53.391380" lon="-1.631377"><ele>398</ele><time>2020-05-21T12:03:29Z</time><name>PT7704</name></trkpt>
<trkpt lat="53.391381" lon="-1.631398"><ele>399</ele><time>2020-05-21T12:03:29Z</time><name>PT7705</name></trkpt>
<trkpt lat="53.391385" lon="-1.631425"><ele>399</ele><time>2020-05-21T12:03:30Z</time><name>PT7706</name></trkpt>
<trkpt lat="53.391386" lon="-1.631453"><ele>399</ele><time>2020-05-21T12:03:32Z</time><name>PT7707</name></trkpt>
<trkpt lat="53.391384" lon="-1.631473"><ele>399</ele><time>2020-05-21T12:03:32Z</time><name>PT7708</name></trkpt>
<trkpt lat="53.391383" lon="-1.631487"><ele>398</ele><time>2020-05-21T12:03:33Z</time><name>PT7709</name></trkpt>
<trkpt lat="53.391382" lon="-1.631507"><ele>398</ele><time>2020-05-21T12:03:35Z</time><name>PT7710</name></trkpt>
<trkpt lat="53.391382" lon="-1.631530"><ele>398</ele><time>2020-05-21T12:03:35Z</time><name>PT7711</name></trkpt>
<trkpt lat="53.391383" lon="-1.631556"><ele>398</ele><time>2020-05-21T12:03:36Z</time><name>PT7712</name></trkpt>
<trkpt lat="53.391387" lon="-1.631583"><ele>398</ele><time>2020-05-21T12:03:38Z</time><name>PT7713</name></trkpt>
<trkpt lat="53.391387" lon="-1.631597"><ele>398</ele><time>2020-05-21T12:03:38Z</time><name>PT7714</name></trkpt>
<trkpt lat="53.391386" lon="-1.631614"><ele>398</ele><time>2020-05-21T12:03:39Z</time><name>PT7715</name></trkpt>
<trkpt lat="53.391385" lon="-1.631633"><ele>398</ele><time>2020-05-21T12:03:41Z</time><name>PT7716</name></trkpt>
<trkpt lat="53.391386" lon="-1.631656"><ele>398</ele><time>2020-05-21T12:03:41Z</time><name>PT7717</name></trkpt>
<trkpt lat="53.391386" lon="-1.631681"><ele>398</ele><time>2020-05-21T12:03:42Z</time><name>PT7718</name></trkpt>
<trkpt lat="53.391388" lon="-1.631702"><ele>398</ele><time>2020-05-21T12:03:44Z</time><name>PT7719</name></trkpt>
<trkpt lat="53.391389" lon="-1.631717"><ele>397</ele><time>2020-05-21T12:03:44Z</time><name>PT7720</name></trkpt>
<trkpt lat="53.391388" lon="-1.631736"><ele>398</ele><time>2020-05-21T12:03:45Z</time><name>PT7721</name></trkpt>
<trkpt lat="53.391386" lon="-1.631760"><ele>397</ele><time>2020-05-21T12:03:47Z</time><name>PT7722</name></trkpt>
<trkpt lat="53.391386" lon="-1.631781"><ele>397</ele><time>2020-05-21T12:03:47Z</time><name>PT7723</name></trkpt>
<trkpt lat="53.391386" lon="-1.631808"><ele>397</ele><time>2020-05-21T12:03:48Z</time><name>PT7724</name></trkpt>
<trkpt lat="53.391386" lon="-1.631827"><ele>397</ele><time>2020-05-21T12:03:50Z</time><name>PT7725</name></trkpt>
<trkpt lat="53.391390" lon="-1.631842"><ele>398</ele><time>2020-05-21T12:03:50Z</time><name>PT7726</name></trkpt>
<trkpt lat="53.391398" lon="-1.631852"><ele>398</ele><time>2020-05-21T12:03:51Z</time><name>PT7727</name></trkpt>
<trkpt lat="53.391398" lon="-1.631871"><ele>398</ele><time>2020-05-21T12:03:53Z</time><name>PT7728</name></trkpt>
<trkpt lat="53.391401" lon="-1.631896"><ele>399</ele><time>2020-05-21T12:03:53Z</time><name>PT7729</name></trkpt>
<trkpt lat="53.391404" lon="-1.631924"><ele>399</ele><time>2020-05-21T12:03:54Z</time><name>PT7730</name></trkpt>
<trkpt lat="53.391406" lon="-1.631944"><ele>399</ele><time>2020-05-21T12:03:56Z</time><name>PT7731</name></trkpt>
<trkpt lat="53.391406" lon="-1.631961"><ele>399</ele><time>2020-05-21T12:03:56Z</time><name>PT7732</name></trkpt>
<trkpt lat="53.391406" lon="-1.631984"><ele>399</ele><time>2020-05-21T12:03:57Z</time><name>PT7733</name></trkpt>
<trkpt lat="53.391405" lon="-1.632003"><ele>399</ele><time>2020-05-21T12:03:59Z</time><name>PT7734</name></trkpt>
<trkpt lat="53.391408" lon="-1.632026"><ele>399</ele><time>2020-05-21T12:03:59Z</time><name>PT7735</name></trkpt>
<trkpt lat="53.391410" lon="-1.632053"><ele>400</ele><time>2020-05-21T12:04:00Z</time><name>PT7736</name></trkpt>
<trkpt lat="53.391412" lon="-1.632071"><ele>400</ele><time>2020-05-21T12:04:02Z</time><name>PT7737</name></trkpt>
<trkpt lat="53.391414" lon="-1.632088"><ele>400</ele><time>2020-05-21T12:04:02Z</time><name>PT7738</name></trkpt>
<trkpt lat="53.391420" lon="-1.632111"><ele>400</ele><time>2020-05-21T12:04:03Z</time><name>PT7739</name></trkpt>
<trkpt lat="53.391422" lon="-1.632132"><ele>400</ele><time>2020-05-21T12:04:05Z</time><name>PT7740</name></trkpt>
<trkpt lat="53.391416" lon="-1.632156"><ele>399</ele><time>2020-05-21T12:04:05Z</time><name>PT7741</name></trkpt>
<trkpt lat="53.391417" lon="-1.632183"><ele>400</ele><time>2020-05-21T12:04:06Z</time><name>PT7742</name></trkpt>
<trkpt lat="53.391417" lon="-1.632204"><ele>399</ele><time>2020-05-21T12:04:08Z</time><name>PT7743</name></trkpt>
<trkpt lat="53.391414" lon="-1.632219"><ele>398</ele><time>2020-05-21T12:04:08Z</time><name>PT7744</name></trkpt>
<trkpt lat="53.391415" lon="-1.632241"><ele>398</ele><time>2020-05-21T12:04:09Z</time><name>PT7745</name></trkpt>
<trkpt lat="53.391416" lon="-1.632262"><ele>397</ele><time>2020-05-21T12:04:11Z</time><name>PT7746</name></trkpt>
<trkpt lat="53.391412" lon="-1.632284"><ele>397</ele><time>2020-05-21T12:04:11Z</time><name>PT7747</name></trkpt>
<trkpt lat="53.391412" lon="-1.632311"><ele>397</ele><time>2020-05-21T12:04:12Z</time><name>PT7748</name></trkpt>
<trkpt lat="53.391410" lon="-1.632329"><ele>397</ele><time>2020-05-21T12:04:14Z</time><name>PT7749</name></trkpt>
<trkpt lat="53.391410" lon="-1.632346"><ele>397</ele><time>2020-05-21T12:04:14Z</time><name>PT7750</name></trkpt>
<trkpt lat="53.391414" lon="-1.632370"><ele>397</ele><time>2020-05-21T12:04:15Z</time><name>PT7751</name></trkpt>
<trkpt lat="53.391415" lon="-1.632394"><ele>397</ele><time>2020-05-21T12:04:17Z</time><name>PT7752</name></trkpt>
<trkpt lat="53.391420" lon="-1.632422"><ele>398</ele><time>2020-05-21T12:04:17Z</time><name>PT7753</name></trkpt>
<trkpt lat="53.391426" lon="-1.632450"><ele>398</ele><time>2020-05-21T12:04:18Z</time><name>PT7754</name></trkpt>
<trkpt lat="53.391429" lon="-1.632467"><ele>398</ele><time>2020-05-21T12:04:20Z</time><name>PT7755</name></trkpt>
<trkpt lat="53.391433" lon="-1.632487"><ele>399</ele><time>2020-05-21T12:04:20Z</time><name>PT7756</name></trkpt>
<trkpt lat="53.391437" lon="-1.632510"><ele>399</ele><time>2020-05-21T12:04:21Z</time><name>PT7757</name></trkpt>
<trkpt lat="53.391440" lon="-1.632536"><ele>399</ele><time>2020-05-21T12:04:22Z</time><name>PT7758</name></trkpt>
<trkpt lat="53.391443" lon="-1.632560"><ele>399</ele><time>2020-05-21T12:04:23Z</time><name>PT7759</name></trkpt>
<trkpt lat="53.391442" lon="-1.632565"><ele>398</ele><time>2020-05-21T12:04:25Z</time><name>PT7760</name></trkpt>
<trkpt lat="53.391445" lon="-1.632576"><ele>399</ele><time>2020-05-21T12:04:25Z</time><name>PT7761</name></trkpt>
<trkpt lat="53.391447" lon="-1.632598"><ele>398</ele><time>2020-05-21T12:04:26Z</time><name>PT7762</name></trkpt>
<trkpt lat="53.391451" lon="-1.632621"><ele>399</ele><time>2020-05-21T12:04:28Z</time><name>PT7763</name></trkpt>
<trkpt lat="53.391453" lon="-1.632648"><ele>399</ele><time>2020-05-21T12:04:28Z</time><name>PT7764</name></trkpt>
<trkpt lat="53.391453" lon="-1.632673"><ele>399</ele><time>2020-05-21T12:04:29Z</time><name>PT7765</name></trkpt>
<trkpt lat="53.391454" lon="-1.632688"><ele>399</ele><time>2020-05-21T12:04:31Z</time><name>PT7766</name></trkpt>
<trkpt lat="53.391454" lon="-1.632708"><ele>398</ele><time>2020-05-21T12:04:31Z</time><name>PT7767</name></trkpt>
<trkpt lat="53.391456" lon="-1.632727"><ele>398</ele><time>2020-05-21T12:04:32Z</time><name>PT7768</name></trkpt>
<trkpt lat="53.391458" lon="-1.632754"><ele>398</ele><time>2020-05-21T12:04:34Z</time><name>PT7769</name></trkpt>
<trkpt lat="53.391460" lon="-1.632786"><ele>398</ele><time>2020-05-21T12:04:34Z</time><name>PT7770</name></trkpt>
<trkpt lat="53.391461" lon="-1.632811"><ele>398</ele><time>2020-05-21T12:04:35Z</time><name>PT7771</name></trkpt>
<trkpt lat="53.391466" lon="-1.632832"><ele>398</ele><time>2020-05-21T12:04:37Z</time><name>PT7772</name></trkpt>
<trkpt lat="53.391467" lon="-1.632851"><ele>398</ele><time>2020-05-21T12:04:37Z</time><name>PT7773</name></trkpt>
<trkpt lat="53.391467" lon="-1.632875"><ele>397</ele><time>2020-05-21T12:04:38Z</time><name>PT7774</name></trkpt>
<trkpt lat="53.391472" lon="-1.632903"><ele>397</ele><time>2020-05-21T12:04:40Z</time><name>PT7775</name></trkpt>
<trkpt lat="53.391477" lon="-1.632930"><ele>397</ele><time>2020-05-21T12:04:40Z</time><name>PT7776</name></trkpt>
<trkpt lat="53.391482" lon="-1.632946"><ele>398</ele><time>2020-05-21T12:04:41Z</time><name>PT7777</name></trkpt>
<trkpt lat="53.391484" lon="-1.632959"><ele>398</ele><time>2020-05-21T12:04:43Z</time><name>PT7778</name></trkpt>
<trkpt lat="53.391484" lon="-1.632974"><ele>398</ele><time>2020-05-21T12:04:43Z</time><name>PT7779</name></trkpt>
<trkpt lat="53.391486" lon="-1.632989"><ele>398</ele><time>2020-05-21T12:04:44Z</time><name>PT7780</name></trkpt>
<trkpt lat="53.391487" lon="-1.633011"><ele>398</ele><time>2020-05-21T12:04:46Z</time><name>PT7781</name></trkpt>
<trkpt lat="53.391488" lon="-1.633035"><ele>398</ele><time>2020-05-21T12:04:46Z</time><name>PT7782</name></trkpt>
<trkpt lat="53.391489" lon="-1.633052"><ele>399</ele><time>2020-05-21T12:04:47Z</time><name>PT7783</name></trkpt>
<trkpt lat="53.391493" lon="-1.633066"><ele>398</ele><time>2020-05-21T12:04:48Z</time><name>PT7784</name></trkpt>
<trkpt lat="53.391494" lon="-1.633088"><ele>398</ele><time>2020-05-21T12:04:49Z</time><name>PT7785</name></trkpt>
<trkpt lat="53.391496" lon="-1.633113"><ele>398</ele><time>2020-05-21T12:04:50Z</time><name>PT7786</name></trkpt>
<trkpt lat="53.391502" lon="-1.633140"><ele>399</ele><time>2020-05-21T12:04:51Z</time><name>PT7787</name></trkpt>
<trkpt lat="53.391504" lon="-1.633167"><ele>399</ele><time>2020-05-21T12:04:53Z</time><name>PT7788</name></trkpt>
<trkpt lat="53.391503" lon="-1.633189"><ele>399</ele><time>2020-05-21T12:04:53Z</time><name>PT7789</name></trkpt>
<trkpt lat="53.391506" lon="-1.633208"><ele>398</ele><time>2020-05-21T12:04:54Z</time><name>PT7790</name></trkpt>
<trkpt lat="53.391509" lon="-1.633225"><ele>398</ele><time>2020-05-21T12:04:56Z</time><name>PT7791</name></trkpt>
<trkpt lat="53.391510" lon="-1.633250"><ele>398</ele><time>2020-05-21T12:04:56Z</time><name>PT7792</name></trkpt>
<trkpt lat="53.391513" lon="-1.633277"><ele>398</ele><time>2020-05-21T12:04:57Z</time><name>PT7793</name></trkpt>
<trkpt lat="53.391517" lon="-1.633305"><ele>399</ele><time>2020-05-21T12:04:59Z</time><name>PT7794</name></trkpt>
<trkpt lat="53.391521" lon="-1.633327"><ele>399</ele><time>2020-05-21T12:04:59Z</time><name>PT7795</name></trkpt>
<trkpt lat="53.391522" lon="-1.633342"><ele>400</ele><time>2020-05-21T12:05:00Z</time><name>PT7796</name></trkpt>
<trkpt lat="53.391523" lon="-1.633356"><ele>401</ele><time>2020-05-21T12:05:02Z</time><name>PT7797</name></trkpt>
<trkpt lat="53.391519" lon="-1.633382"><ele>400</ele><time>2020-05-21T12:05:02Z</time><name>PT7798</name></trkpt>
<trkpt lat="53.391518" lon="-1.633407"><ele>401</ele><time>2020-05-21T12:05:03Z</time><name>PT7799</name></trkpt>
<trkpt lat="53.391523" lon="-1.633432"><ele>402</ele><time>2020-05-21T12:05:05Z</time><name>PT7800</name></trkpt>
<trkpt lat="53.391525" lon="-1.633453"><ele>402</ele><time>2020-05-21T12:05:05Z</time><name>PT7801</name></trkpt>
<trkpt lat="53.391524" lon="-1.633471"><ele>402</ele><time>2020-05-21T12:05:06Z</time><name>PT7802</name></trkpt>
<trkpt lat="53.391526" lon="-1.633490"><ele>401</ele><time>2020-05-21T12:05:08Z</time><name>PT7803</name></trkpt>
<trkpt lat="53.391527" lon="-1.633512"><ele>401</ele><time>2020-05-21T12:05:08Z</time><name>PT7804</name></trkpt>
<trkpt lat="53.391528" lon="-1.633538"><ele>401</ele><time>2020-05-21T12:05:09Z</time><name>PT7805</name></trkpt>
<trkpt lat="53.391529" lon="-1.633568"><ele>401</ele><time>2020-05-21T12:05:11Z</time><name>PT7806</name></trkpt>
<trkpt lat="53.391532" lon="-1.633592"><ele>401</ele><time>2020-05-21T12:05:11Z</time><name>PT7807</name></trkpt>
<trkpt lat="53.391535" lon="-1.633609"><ele>401</ele><time>2020-05-21T12:05:12Z</time><name>PT7808</name></trkpt>
<trkpt lat="53.391535" lon="-1.633625"><ele>400</ele><time>2020-05-21T12:05:14Z</time><name>PT7809</name></trkpt>
<trkpt lat="53.391538" lon="-1.633650"><ele>400</ele><time>2020-05-21T12:05:14Z</time><name>PT7810</name></trkpt>
<trkpt lat="53.391541" lon="-1.633678"><ele>399</ele><time>2020-05-21T12:05:15Z</time><name>PT7811</name></trkpt>
<trkpt lat="53.391542" lon="-1.633706"><ele>399</ele><time>2020-05-21T12:05:17Z</time><name>PT7812</name></trkpt>
<trkpt lat="53.391543" lon="-1.633731"><ele>400</ele><time>2020-05-21T12:05:17Z</time><name>PT7813</name></trkpt>
<trkpt lat="53.391543" lon="-1.633752"><ele>400</ele><time>2020-05-21T12:05:18Z</time><name>PT7814</name></trkpt>
<trkpt lat="53.391544" lon="-1.633770"><ele>401</ele><time>2020-05-21T12:05:20Z</time><name>PT7815</name></trkpt>
<trkpt lat="53.391546" lon="-1.633787"><ele>401</ele><time>2020-05-21T12:05:20Z</time><name>PT7816</name></trkpt>
<trkpt lat="53.391546" lon="-1.633810"><ele>401</ele><time>2020-05-21T12:05:21Z</time><name>PT7817</name></trkpt>
<trkpt lat="53.391547" lon="-1.633833"><ele>401</ele><time>2020-05-21T12:05:23Z</time><name>PT7818</name></trkpt>
<trkpt lat="53.391550" lon="-1.633856"><ele>402</ele><time>2020-05-21T12:05:23Z</time><name>PT7819</name></trkpt>
<trkpt lat="53.391552" lon="-1.633875"><ele>402</ele><time>2020-05-21T12:05:24Z</time><name>PT7820</name></trkpt>
<trkpt lat="53.391552" lon="-1.633890"><ele>402</ele><time>2020-05-21T12:05:26Z</time><name>PT7821</name></trkpt>
<trkpt lat="53.391552" lon="-1.633912"><ele>401</ele><time>2020-05-21T12:05:26Z</time><name>PT7822</name></trkpt>
<trkpt lat="53.391553" lon="-1.633935"><ele>401</ele><time>2020-05-21T12:05:27Z</time><name>PT7823</name></trkpt>
<trkpt lat="53.391555" lon="-1.633958"><ele>401</ele><time>2020-05-21T12:05:29Z</time><name>PT7824</name></trkpt>
<trkpt lat="53.391558" lon="-1.633985"><ele>400</ele><time>2020-05-21T12:05:29Z</time><name>PT7825</name></trkpt>
<trkpt lat="53.391559" lon="-1.634004"><ele>401</ele><time>2020-05-21T12:05:30Z</time><name>PT7826</name></trkpt>
<trkpt lat="53.391561" lon="-1.634020"><ele>400</ele><time>2020-05-21T12:05:32Z</time><name>PT7827</name></trkpt>
<trkpt lat="53.391565" lon="-1.634039"><ele>400</ele><time>2020-05-21T12:05:32Z</time><name>PT7828</name></trkpt>
<trkpt lat="53.391568" lon="-1.634065"><ele>400</ele><time>2020-05-21T12:05:33Z</time><name>PT7829</name></trkpt>
<trkpt lat="53.391571" lon="-1.634094"><ele>400</ele><time>2020-05-21T12:05:35Z</time><name>PT7830</name></trkpt>
<trkpt lat="53.391573" lon="-1.634122"><ele>400</ele><time>2020-05-21T12:05:35Z</time><name>PT7831</name></trkpt>
<trkpt lat="53.391573" lon="-1.634141"><ele>400</ele><time>2020-05-21T12:05:36Z</time><name>PT7832</name></trkpt>
<trkpt lat="53.391576" lon="-1.634157"><ele>400</ele><time>2020-05-21T12:05:38Z</time><name>PT7833</name></trkpt>
<trkpt lat="53.391578" lon="-1.634176"><ele>400</ele><time>2020-05-21T12:05:38Z</time><name>PT7834</name></trkpt>
<trkpt lat="53.391578" lon="-1.634197"><ele>400</ele><time>2020-05-21T12:05:39Z</time><name>PT7835</name></trkpt>
<trkpt lat="53.391580" lon="-1.634224"><ele>401</ele><time>2020-05-21T12:05:41Z</time><name>PT7836</name></trkpt>
<trkpt lat="53.391585" lon="-1.634251"><ele>401</ele><time>2020-05-21T12:05:41Z</time><name>PT7837</name></trkpt>
<trkpt lat="53.391587" lon="-1.634269"><ele>401</ele><time>2020-05-21T12:05:42Z</time><name>PT7838</name></trkpt>
<trkpt lat="53.391587" lon="-1.634283"><ele>400</ele><time>2020-05-21T12:05:44Z</time><name>PT7839</name></trkpt>
<trkpt lat="53.391588" lon="-1.634303"><ele>400</ele><time>2020-05-21T12:05:44Z</time><name>PT7840</name></trkpt>
<trkpt lat="53.391589" lon="-1.634326"><ele>400</ele><time>2020-05-21T12:05:45Z</time><name>PT7841</name></trkpt>
<trkpt lat="53.391594" lon="-1.634353"><ele>400</ele><time>2020-05-21T12:05:47Z</time><name>PT7842</name></trkpt>
<trkpt lat="53.391597" lon="-1.634382"><ele>400</ele><time>2020-05-21T12:05:47Z</time><name>PT7843</name></trkpt>
<trkpt lat="53.391601" lon="-1.634401"><ele>401</ele><time>2020-05-21T12:05:48Z</time><name>PT7844</name></trkpt>
<trkpt lat="53.391603" lon="-1.634416"><ele>400</ele><time>2020-05-21T12:05:50Z</time><name>PT7845</name></trkpt>
<trkpt lat="53.391604" lon="-1.634434"><ele>400</ele><time>2020-05-21T12:05:50Z</time><name>PT7846</name></trkpt>
<trkpt lat="53.391606" lon="-1.634457"><ele>400</ele><time>2020-05-21T12:05:51Z</time><name>PT7847</name></trkpt>
<trkpt lat="53.391609" lon="-1.634481"><ele>400</ele><time>2020-05-21T12:05:53Z</time><name>PT7848</name></trkpt>
<trkpt lat="53.391612" lon="-1.634501"><ele>401</ele><time>2020-05-21T12:05:53Z</time><name>PT7849</name></trkpt>
<trkpt lat="53.391612" lon="-1.634519"><ele>400</ele><time>2020-05-21T12:05:54Z</time><name>PT7850</name></trkpt>
<trkpt lat="53.391612" lon="-1.634532"><ele>400</ele><time>2020-05-21T12:05:56Z</time><name>PT7851</name></trkpt>
<trkpt lat="53.391614" lon="-1.634555"><ele>400</ele><time>2020-05-21T12:05:56Z</time><name>PT7852</name></trkpt>
<trkpt lat="53.391616" lon="-1.634579"><ele>400</ele><time>2020-05-21T12:05:57Z</time><name>PT7853</name></trkpt>
<trkpt lat="53.391618" lon="-1.634608"><ele>400</ele><time>2020-05-21T12:05:59Z</time><name>PT7854</name></trkpt>
<trkpt lat="53.391621" lon="-1.634628"><ele>401</ele><time>2020-05-21T12:05:59Z</time><name>PT7855</name></trkpt>
<trkpt lat="53.391624" lon="-1.634642"><ele>401</ele><time>2020-05-21T12:06:01Z</time><name>PT7856</name></trkpt>
<trkpt lat="53.391627" lon="-1.634661"><ele>401</ele><time>2020-05-21T12:06:02Z</time><name>PT7857</name></trkpt>
<trkpt lat="53.391632" lon="-1.634685"><ele>401</ele><time>2020-05-21T12:06:02Z</time><name>PT7858</name></trkpt>
<trkpt lat="53.391633" lon="-1.634710"><ele>401</ele><time>2020-05-21T12:06:03Z</time><name>PT7859</name></trkpt>
<trkpt lat="53.391633" lon="-1.634734"><ele>401</ele><time>2020-05-21T12:06:05Z</time><name>PT7860</name></trkpt>
<trkpt lat="53.391635" lon="-1.634751"><ele>401</ele><time>2020-05-21T12:06:05Z</time><name>PT7861</name></trkpt>
<trkpt lat="53.391635" lon="-1.634770"><ele>401</ele><time>2020-05-21T12:06:06Z</time><name>PT7862</name></trkpt>
<trkpt lat="53.391638" lon="-1.634792"><ele>401</ele><time>2020-05-21T12:06:08Z</time><name>PT7863</name></trkpt>
<trkpt lat="53.391644" lon="-1.634817"><ele>401</ele><time>2020-05-21T12:06:08Z</time><name>PT7864</name></trkpt>
<trkpt lat="53.391647" lon="-1.634842"><ele>402</ele><time>2020-05-21T12:06:09Z</time><name>PT7865</name></trkpt>
<trkpt lat="53.391649" lon="-1.634862"><ele>402</ele><time>2020-05-21T12:06:11Z</time><name>PT7866</name></trkpt>
<trkpt lat="53.391649" lon="-1.634879"><ele>401</ele><time>2020-05-21T12:06:11Z</time><name>PT7867</name></trkpt>
<trkpt lat="53.391649" lon="-1.634901"><ele>401</ele><time>2020-05-21T12:06:12Z</time><name>PT7868</name></trkpt>
<trkpt lat="53.391650" lon="-1.634925"><ele>401</ele><time>2020-05-21T12:06:14Z</time><name>PT7869</name></trkpt>
<trkpt lat="53.391652" lon="-1.634951"><ele>401</ele><time>2020-05-21T12:06:14Z</time><name>PT7870</name></trkpt>
<trkpt lat="53.391651" lon="-1.634979"><ele>401</ele><time>2020-05-21T12:06:16Z</time><name>PT7871</name></trkpt>
<trkpt lat="53.391653" lon="-1.634999"><ele>402</ele><time>2020-05-21T12:06:17Z</time><name>PT7872</name></trkpt>
<trkpt lat="53.391655" lon="-1.635013"><ele>402</ele><time>2020-05-21T12:06:17Z</time><name>PT7873</name></trkpt>
<trkpt lat="53.391655" lon="-1.635031"><ele>402</ele><time>2020-05-21T12:06:18Z</time><name>PT7874</name></trkpt>
<trkpt lat="53.391657" lon="-1.635056"><ele>402</ele><time>2020-05-21T12:06:20Z</time><name>PT7875</name></trkpt>
<trkpt lat="53.391660" lon="-1.635082"><ele>402</ele><time>2020-05-21T12:06:20Z</time><name>PT7876</name></trkpt>
<trkpt lat="53.391665" lon="-1.635111"><ele>402</ele><time>2020-05-21T12:06:21Z</time><name>PT7877</name></trkpt>
<trkpt lat="53.391666" lon="-1.635131"><ele>401</ele><time>2020-05-21T12:06:23Z</time><name>PT7878</name></trkpt>
<trkpt lat="53.391669" lon="-1.635146"><ele>402</ele><time>2020-05-21T12:06:23Z</time><name>PT7879</name></trkpt>
<trkpt lat="53.391668" lon="-1.635165"><ele>401</ele><time>2020-05-21T12:06:24Z</time><name>PT7880</name></trkpt>
<trkpt lat="53.391669" lon="-1.635186"><ele>401</ele><time>2020-05-21T12:06:26Z</time><name>PT7881</name></trkpt>
<trkpt lat="53.391674" lon="-1.635208"><ele>401</ele><time>2020-05-21T12:06:26Z</time><name>PT7882</name></trkpt>
<trkpt lat="53.391680" lon="-1.635236"><ele>403</ele><time>2020-05-21T12:06:27Z</time><name>PT7883</name></trkpt>
<trkpt lat="53.391681" lon="-1.635260"><ele>403</ele><time>2020-05-21T12:06:29Z</time><name>PT7884</name></trkpt>
<trkpt lat="53.391680" lon="-1.635281"><ele>402</ele><time>2020-05-21T12:06:29Z</time><name>PT7885</name></trkpt>
<trkpt lat="53.391681" lon="-1.635296"><ele>402</ele><time>2020-05-21T12:06:30Z</time><name>PT7886</name></trkpt>
<trkpt lat="53.391686" lon="-1.635316"><ele>402</ele><time>2020-05-21T12:06:32Z</time><name>PT7887</name></trkpt>
<trkpt lat="53.391689" lon="-1.635344"><ele>402</ele><time>2020-05-21T12:06:32Z</time><name>PT7888</name></trkpt>
<trkpt lat="53.391693" lon="-1.635374"><ele>402</ele><time>2020-05-21T12:06:33Z</time><name>PT7889</name></trkpt>
<trkpt lat="53.391698" lon="-1.635398"><ele>402</ele><time>2020-05-21T12:06:35Z</time><name>PT7890</name></trkpt>
<trkpt lat="53.391700" lon="-1.635410"><ele>403</ele><time>2020-05-21T12:06:35Z</time><name>PT7891</name></trkpt>
<trkpt lat="53.391699" lon="-1.635425"><ele>402</ele><time>2020-05-21T12:06:36Z</time><name>PT7892</name></trkpt>
<trkpt lat="53.391698" lon="-1.635446"><ele>402</ele><time>2020-05-21T12:06:38Z</time><name>PT7893</name></trkpt>
<trkpt lat="53.391699" lon="-1.635471"><ele>402</ele><time>2020-05-21T12:06:38Z</time><name>PT7894</name></trkpt>
<trkpt lat="53.391704" lon="-1.635499"><ele>402</ele><time>2020-05-21T12:06:39Z</time><name>PT7895</name></trkpt>
<trkpt lat="53.391709" lon="-1.635526"><ele>403</ele><time>2020-05-21T12:06:41Z</time><name>PT7896</name></trkpt>
<trkpt lat="53.391711" lon="-1.635543"><ele>403</ele><time>2020-05-21T12:06:41Z</time><name>PT7897</name></trkpt>
<trkpt lat="53.391714" lon="-1.635557"><ele>403</ele><time>2020-05-21T12:06:42Z</time><name>PT7898</name></trkpt>
<trkpt lat="53.391716" lon="-1.635577"><ele>403</ele><time>2020-05-21T12:06:44Z</time><name>PT7899</name></trkpt>
<trkpt lat="53.391719" lon="-1.635596"><ele>404</ele><time>2020-05-21T12:06:44Z</time><name>PT7900</name></trkpt>
<trkpt lat="53.391721" lon="-1.635612"><ele>403</ele><time>2020-05-21T12:06:45Z</time><name>PT7901</name></trkpt>
<trkpt lat="53.391722" lon="-1.635630"><ele>404</ele><time>2020-05-21T12:06:47Z</time><name>PT7902</name></trkpt>
<trkpt lat="53.391720" lon="-1.635643"><ele>404</ele><time>2020-05-21T12:06:47Z</time><name>PT7903</name></trkpt>
<trkpt lat="53.391720" lon="-1.635663"><ele>402</ele><time>2020-05-21T12:06:48Z</time><name>PT7904</name></trkpt>
<trkpt lat="53.391717" lon="-1.635688"><ele>401</ele><time>2020-05-21T12:06:50Z</time><name>PT7905</name></trkpt>
<trkpt lat="53.391716" lon="-1.635711"><ele>401</ele><time>2020-05-21T12:06:50Z</time><name>PT7906</name></trkpt>
<trkpt lat="53.391718" lon="-1.635739"><ele>401</ele><time>2020-05-21T12:06:51Z</time><name>PT7907</name></trkpt>
<trkpt lat="53.391718" lon="-1.635762"><ele>401</ele><time>2020-05-21T12:06:53Z</time><name>PT7908</name></trkpt>
<trkpt lat="53.391719" lon="-1.635778"><ele>401</ele><time>2020-05-21T12:06:53Z</time><name>PT7909</name></trkpt>
<trkpt lat="53.391722" lon="-1.635793"><ele>401</ele><time>2020-05-21T12:06:54Z</time><name>PT7910</name></trkpt>
<trkpt lat="53.391727" lon="-1.635818"><ele>402</ele><time>2020-05-21T12:06:56Z</time><name>PT7911</name></trkpt>
<trkpt lat="53.391730" lon="-1.635841"><ele>402</ele><time>2020-05-21T12:06:56Z</time><name>PT7912</name></trkpt>
<trkpt lat="53.391731" lon="-1.635867"><ele>403</ele><time>2020-05-21T12:06:57Z</time><name>PT7913</name></trkpt>
<trkpt lat="53.391732" lon="-1.635893"><ele>404</ele><time>2020-05-21T12:06:59Z</time><name>PT7914</name></trkpt>
<trkpt lat="53.391737" lon="-1.635913"><ele>403</ele><time>2020-05-21T12:06:59Z</time><name>PT7915</name></trkpt>
<trkpt lat="53.391740" lon="-1.635940"><ele>403</ele><time>2020-05-21T12:07:00Z</time><name>PT7916</name></trkpt>
<trkpt lat="53.391745" lon="-1.635969"><ele>402</ele><time>2020-05-21T12:07:02Z</time><name>PT7917</name></trkpt>
<trkpt lat="53.391751" lon="-1.635996"><ele>401</ele><time>2020-05-21T12:07:02Z</time><name>PT7918</name></trkpt>
<trkpt lat="53.391754" lon="-1.636020"><ele>401</ele><time>2020-05-21T12:07:03Z</time><name>PT7919</name></trkpt>
<trkpt lat="53.391756" lon="-1.636044"><ele>400</ele><time>2020-05-21T12:07:05Z</time><name>PT7920</name></trkpt>
<trkpt lat="53.391757" lon="-1.636070"><ele>399</ele><time>2020-05-21T12:07:05Z</time><name>PT7921</name></trkpt>
<trkpt lat="53.391757" lon="-1.636091"><ele>399</ele><time>2020-05-21T12:07:06Z</time><name>PT7922</name></trkpt>
<trkpt lat="53.391760" lon="-1.636112"><ele>399</ele><time>2020-05-21T12:07:08Z</time><name>PT7923</name></trkpt>
<trkpt lat="53.391762" lon="-1.636133"><ele>399</ele><time>2020-05-21T12:07:08Z</time><name>PT7924</name></trkpt>
<trkpt lat="53.391766" lon="-1.636156"><ele>399</ele><time>2020-05-21T12:07:09Z</time><name>PT7925</name></trkpt>
<trkpt lat="53.391769" lon="-1.636178"><ele>399</ele><time>2020-05-21T12:07:11Z</time><name>PT7926</name></trkpt>
<trkpt lat="53.391770" lon="-1.636201"><ele>399</ele><time>2020-05-21T12:07:11Z</time><name>PT7927</name></trkpt>
<trkpt lat="53.391772" lon="-1.636224"><ele>399</ele><time>2020-05-21T12:07:12Z</time><name>PT7928</name></trkpt>
<trkpt lat="53.391772" lon="-1.636246"><ele>399</ele><time>2020-05-21T12:07:14Z</time><name>PT7929</name></trkpt>
<trkpt lat="53.391774" lon="-1.636267"><ele>399</ele><time>2020-05-21T12:07:14Z</time><name>PT7930</name></trkpt>
<trkpt lat="53.391778" lon="-1.636287"><ele>399</ele><time>2020-05-21T12:07:15Z</time><name>PT7931</name></trkpt>
<trkpt lat="53.391782" lon="-1.636307"><ele>399</ele><time>2020-05-21T12:07:17Z</time><name>PT7932</name></trkpt>
<trkpt lat="53.391782" lon="-1.636324"><ele>399</ele><time>2020-05-21T12:07:17Z</time><name>PT7933</name></trkpt>
<trkpt lat="53.391784" lon="-1.636344"><ele>399</ele><time>2020-05-21T12:07:18Z</time><name>PT7934</name></trkpt>
<trkpt lat="53.391786" lon="-1.636360"><ele>399</ele><time>2020-05-21T12:07:19Z</time><name>PT7935</name></trkpt>
<trkpt lat="53.391788" lon="-1.636378"><ele>399</ele><time>2020-05-21T12:07:20Z</time><name>PT7936</name></trkpt>
<trkpt lat="53.391789" lon="-1.636390"><ele>401</ele><time>2020-05-21T12:07:22Z</time><name>PT7937</name></trkpt>
<trkpt lat="53.391791" lon="-1.636408"><ele>401</ele><time>2020-05-21T12:07:22Z</time><name>PT7938</name></trkpt>
<trkpt lat="53.391791" lon="-1.636431"><ele>402</ele><time>2020-05-21T12:07:23Z</time><name>PT7939</name></trkpt>
<trkpt lat="53.391790" lon="-1.636456"><ele>402</ele><time>2020-05-21T12:07:25Z</time><name>PT7940</name></trkpt>
<trkpt lat="53.391790" lon="-1.636474"><ele>403</ele><time>2020-05-21T12:07:25Z</time><name>PT7941</name></trkpt>
<trkpt lat="53.391791" lon="-1.636488"><ele>403</ele><time>2020-05-21T12:07:26Z</time><name>PT7942</name></trkpt>
<trkpt lat="53.391795" lon="-1.636502"><ele>402</ele><time>2020-05-21T12:07:28Z</time><name>PT7943</name></trkpt>
<trkpt lat="53.391801" lon="-1.636524"><ele>402</ele><time>2020-05-21T12:07:28Z</time><name>PT7944</name></trkpt>
<trkpt lat="53.391805" lon="-1.636549"><ele>402</ele><time>2020-05-21T12:07:29Z</time><name>PT7945</name></trkpt>
<trkpt lat="53.391810" lon="-1.636574"><ele>403</ele><time>2020-05-21T12:07:31Z</time><name>PT7946</name></trkpt>
<trkpt lat="53.391813" lon="-1.636599"><ele>403</ele><time>2020-05-21T12:07:31Z</time><name>PT7947</name></trkpt>
<trkpt lat="53.391813" lon="-1.636619"><ele>403</ele><time>2020-05-21T12:07:32Z</time><name>PT7948</name></trkpt>
<trkpt lat="53.391813" lon="-1.636635"><ele>403</ele><time>2020-05-21T12:07:34Z</time><name>PT7949</name></trkpt>
<trkpt lat="53.391815" lon="-1.636652"><ele>403</ele><time>2020-05-21T12:07:34Z</time><name>PT7950</name></trkpt>
<trkpt lat="53.391817" lon="-1.636675"><ele>403</ele><time>2020-05-21T12:07:35Z</time><name>PT7951</name></trkpt>
<trkpt lat="53.391819" lon="-1.636700"><ele>403</ele><time>2020-05-21T12:07:37Z</time><name>PT7952</name></trkpt>
<trkpt lat="53.391823" lon="-1.636729"><ele>403</ele><time>2020-05-21T12:07:37Z</time><name>PT7953</name></trkpt>
<trkpt lat="53.391828" lon="-1.636753"><ele>403</ele><time>2020-05-21T12:07:38Z</time><name>PT7954</name></trkpt>
<trkpt lat="53.391830" lon="-1.636768"><ele>403</ele><time>2020-05-21T12:07:40Z</time><name>PT7955</name></trkpt>
<trkpt lat="53.391831" lon="-1.636784"><ele>403</ele><time>2020-05-21T12:07:40Z</time><name>PT7956</name></trkpt>
<trkpt lat="53.391830" lon="-1.636802"><ele>403</ele><time>2020-05-21T12:07:41Z</time><name>PT7957</name></trkpt>
<trkpt lat="53.391831" lon="-1.636825"><ele>403</ele><time>2020-05-21T12:07:43Z</time><name>PT7958</name></trkpt>
<trkpt lat="53.391834" lon="-1.636853"><ele>403</ele><time>2020-05-21T12:07:43Z</time><name>PT7959</name></trkpt>
<trkpt lat="53.391838" lon="-1.636882"><ele>403</ele><time>2020-05-21T12:07:44Z</time><name>PT7960</name></trkpt>
<trkpt lat="53.391839" lon="-1.636903"><ele>403</ele><time>2020-05-21T12:07:45Z</time><name>PT7961</name></trkpt>
<trkpt lat="53.391840" lon="-1.636914"><ele>403</ele><time>2020-05-21T12:07:46Z</time><name>PT7962</name></trkpt>
<trkpt lat="53.391840" lon="-1.636929"><ele>402</ele><time>2020-05-21T12:07:48Z</time><name>PT7963</name></trkpt>
<trkpt lat="53.391844" lon="-1.636950"><ele>402</ele><time>2020-05-21T12:07:48Z</time><name>PT7964</name></trkpt>
<trkpt lat="53.391846" lon="-1.636974"><ele>402</ele><time>2020-05-21T12:07:49Z</time><name>PT7965</name></trkpt>
<trkpt lat="53.391847" lon="-1.636999"><ele>402</ele><time>2020-05-21T12:07:51Z</time><name>PT7966</name></trkpt>
<trkpt lat="53.391848" lon="-1.637026"><ele>402</ele><time>2020-05-21T12:07:51Z</time><name>PT7967</name></trkpt>
<trkpt lat="53.391848" lon="-1.637045"><ele>402</ele><time>2020-05-21T12:07:52Z</time><name>PT7968</name></trkpt>
<trkpt lat="53.391849" lon="-1.637059"><ele>402</ele><time>2020-05-21T12:07:54Z</time><name>PT7969</name></trkpt>
<trkpt lat="53.391851" lon="-1.637076"><ele>402</ele><time>2020-05-21T12:07:54Z</time><name>PT7970</name></trkpt>
<trkpt lat="53.391854" lon="-1.637098"><ele>402</ele><time>2020-05-21T12:07:55Z</time><name>PT7971</name></trkpt>
<trkpt lat="53.391859" lon="-1.637125"><ele>403</ele><time>2020-05-21T12:07:57Z</time><name>PT7972</name></trkpt>
<trkpt lat="53.391861" lon="-1.637154"><ele>403</ele><time>2020-05-21T12:07:57Z</time><name>PT7973</name></trkpt>
<trkpt lat="53.391864" lon="-1.637183"><ele>403</ele><time>2020-05-21T12:07:58Z</time><name>PT7974</name></trkpt>
<trkpt lat="53.391864" lon="-1.637202"><ele>403</ele><time>2020-05-21T12:08:00Z</time><name>PT7975</name></trkpt>
<trkpt lat="53.391865" lon="-1.637215"><ele>403</ele><time>2020-05-21T12:08:00Z</time><name>PT7976</name></trkpt>
<trkpt lat="53.391862" lon="-1.637235"><ele>401</ele><time>2020-05-21T12:08:01Z</time><name>PT7977</name></trkpt>
<trkpt lat="53.391863" lon="-1.637261"><ele>400</ele><time>2020-05-21T12:08:03Z</time><name>PT7978</name></trkpt>
<trkpt lat="53.391865" lon="-1.637284"><ele>400</ele><time>2020-05-21T12:08:03Z</time><name>PT7979</name></trkpt>
<trkpt lat="53.391871" lon="-1.637310"><ele>400</ele><time>2020-05-21T12:08:04Z</time><name>PT7980</name></trkpt>
<trkpt lat="53.391875" lon="-1.637335"><ele>399</ele><time>2020-05-21T12:08:06Z</time><name>PT7981</name></trkpt>
<trkpt lat="53.391875" lon="-1.637354"><ele>399</ele><time>2020-05-21T12:08:06Z</time><name>PT7982</name></trkpt>
<trkpt lat="53.391878" lon="-1.637368"><ele>399</ele><time>2020-05-21T12:08:07Z</time><name>PT7983</name></trkpt>
<trkpt lat="53.391879" lon="-1.637386"><ele>399</ele><time>2020-05-21T12:08:09Z</time><name>PT7984</name></trkpt>
<trkpt lat="53.391881" lon="-1.637407"><ele>399</ele><time>2020-05-21T12:08:09Z</time><name>PT7985</name></trkpt>
<trkpt lat="53.391883" lon="-1.637430"><ele>399</ele><time>2020-05-21T12:08:10Z</time><name>PT7986</name></trkpt>
<trkpt lat="53.391883" lon="-1.637456"><ele>398</ele><time>2020-05-21T12:08:12Z</time><name>PT7987</name></trkpt>
<trkpt lat="53.391888" lon="-1.637481"><ele>399</ele><time>2020-05-21T12:08:12Z</time><name>PT7988</name></trkpt>
<trkpt lat="53.391890" lon="-1.637502"><ele>399</ele><time>2020-05-21T12:08:13Z</time><name>PT7989</name></trkpt>
<trkpt lat="53.391891" lon="-1.637517"><ele>399</ele><time>2020-05-21T12:08:15Z</time><name>PT7990</name></trkpt>
<trkpt lat="53.391890" lon="-1.637533"><ele>399</ele><time>2020-05-21T12:08:15Z</time><name>PT7991</name></trkpt>
<trkpt lat="53.391892" lon="-1.637555"><ele>399</ele><time>2020-05-21T12:08:16Z</time><name>PT7992</name></trkpt>
<trkpt lat="53.391894" lon="-1.637580"><ele>398</ele><time>2020-05-21T12:08:18Z</time><name>PT7993</name></trkpt>
<trkpt lat="53.391895" lon="-1.637606"><ele>398</ele><time>2020-05-21T12:08:18Z</time><name>PT7994</name></trkpt>
<trkpt lat="53.391898" lon="-1.637632"><ele>399</ele><time>2020-05-21T12:08:19Z</time><name>PT7995</name></trkpt>
<trkpt lat="53.391899" lon="-1.637650"><ele>398</ele><time>2020-05-21T12:08:21Z</time><name>PT7996</name></trkpt>
<trkpt lat="53.391902" lon="-1.637663"><ele>399</ele><time>2020-05-21T12:08:21Z</time><name>PT7997</name></trkpt>
<trkpt lat="53.391905" lon="-1.637682"><ele>399</ele><time>2020-05-21T12:08:22Z</time><name>PT7998</name></trkpt>
<trkpt lat="53.391907" lon="-1.637702"><ele>399</ele><time>2020-05-21T12:08:24Z</time><name>PT7999</name></trkpt>
<trkpt lat="53.391909" lon="-1.637725"><ele>399</ele><time>2020-05-21T12:08:24Z</time><name>PT8000</name></trkpt>
<trkpt lat="53.391911" lon="-1.637751"><ele>399</ele><time>2020-05-21T12:08:25Z</time><name>PT8001</name></trkpt>
<trkpt lat="53.391915" lon="-1.637768"><ele>399</ele><time>2020-05-21T12:08:27Z</time><name>PT8002</name></trkpt>
<trkpt lat="53.391918" lon="-1.637783"><ele>399</ele><time>2020-05-21T12:08:27Z</time><name>PT8003</name></trkpt>
<trkpt lat="53.391920" lon="-1.637806"><ele>399</ele><time>2020-05-21T12:08:28Z</time><name>PT8004</name></trkpt>
<trkpt lat="53.391921" lon="-1.637829"><ele>399</ele><time>2020-05-21T12:08:30Z</time><name>PT8005</name></trkpt>
<trkpt lat="53.391924" lon="-1.637855"><ele>399</ele><time>2020-05-21T12:08:30Z</time><name>PT8006</name></trkpt>
<trkpt lat="53.391925" lon="-1.637878"><ele>399</ele><time>2020-05-21T12:08:31Z</time><name>PT8007</name></trkpt>
<trkpt lat="53.391925" lon="-1.637894"><ele>399</ele><time>2020-05-21T12:08:33Z</time><name>PT8008</name></trkpt>
<trkpt lat="53.391926" lon="-1.637915"><ele>398</ele><time>2020-05-21T12:08:33Z</time><name>PT8009</name></trkpt>
<trkpt lat="53.391926" lon="-1.637938"><ele>398</ele><time>2020-05-21T12:08:34Z</time><name>PT8010</name></trkpt>
<trkpt lat="53.391930" lon="-1.637962"><ele>398</ele><time>2020-05-21T12:08:35Z</time><name>PT8011</name></trkpt>
<trkpt lat="53.391932" lon="-1.637984"><ele>397</ele><time>2020-05-21T12:08:36Z</time><name>PT8012</name></trkpt>
<trkpt lat="53.391934" lon="-1.637999"><ele>397</ele><time>2020-05-21T12:08:38Z</time><name>PT8013</name></trkpt>
<trkpt lat="53.391935" lon="-1.638010"><ele>397</ele><time>2020-05-21T12:08:38Z</time><name>PT8014</name></trkpt>
<trkpt lat="53.391939" lon="-1.638052"><ele>397</ele><time>2020-05-21T12:08:41Z</time><name>PT8015</name></trkpt>
<trkpt lat="53.391943" lon="-1.638076"><ele>397</ele><time>2020-05-21T12:08:41Z</time><name>PT8016</name></trkpt>
<trkpt lat="53.391943" lon="-1.638094"><ele>397</ele><time>2020-05-21T12:08:42Z</time><name>PT8017</name></trkpt>
<trkpt lat="53.391942" lon="-1.638106"><ele>397</ele><time>2020-05-21T12:08:44Z</time><name>PT8018</name></trkpt>
<trkpt lat="53.391938" lon="-1.638122"><ele>397</ele><time>2020-05-21T12:08:44Z</time><name>PT8019</name></trkpt>
<trkpt lat="53.391936" lon="-1.638142"><ele>397</ele><time>2020-05-21T12:08:45Z</time><name>PT8020</name></trkpt>
<trkpt lat="53.391935" lon="-1.638167"><ele>398</ele><time>2020-05-21T12:08:47Z</time><name>PT8021</name></trkpt>
<trkpt lat="53.391934" lon="-1.638189"><ele>398</ele><time>2020-05-21T12:08:47Z</time><name>PT8022</name></trkpt>
<trkpt lat="53.391934" lon="-1.638207"><ele>398</ele><time>2020-05-21T12:08:48Z</time><name>PT8023</name></trkpt>
<trkpt lat="53.391934" lon="-1.638218"><ele>398</ele><time>2020-05-21T12:08:50Z</time><name>PT8024</name></trkpt>
<trkpt lat="53.391935" lon="-1.638230"><ele>399</ele><time>2020-05-21T12:08:50Z</time><name>PT8025</name></trkpt>
<trkpt lat="53.391935" lon="-1.638249"><ele>398</ele><time>2020-05-21T12:08:51Z</time><name>PT8026</name></trkpt>
<trkpt lat="53.391936" lon="-1.638273"><ele>399</ele><time>2020-05-21T12:08:53Z</time><name>PT8027</name></trkpt>
<trkpt lat="53.391937" lon="-1.638302"><ele>399</ele><time>2020-05-21T12:08:53Z</time><name>PT8028</name></trkpt>
<trkpt lat="53.391938" lon="-1.638320"><ele>399</ele><time>2020-05-21T12:08:54Z</time><name>PT8029</name></trkpt>
<trkpt lat="53.391941" lon="-1.638331"><ele>399</ele><time>2020-05-21T12:08:56Z</time><name>PT8030</name></trkpt>
<trkpt lat="53.391942" lon="-1.638347"><ele>398</ele><time>2020-05-21T12:08:56Z</time><name>PT8031</name></trkpt>
<trkpt lat="53.391945" lon="-1.638370"><ele>397</ele><time>2020-05-21T12:08:57Z</time><name>PT8032</name></trkpt>
<trkpt lat="53.391950" lon="-1.638395"><ele>397</ele><time>2020-05-21T12:08:59Z</time><name>PT8033</name></trkpt>
<trkpt lat="53.391957" lon="-1.638417"><ele>398</ele><time>2020-05-21T12:08:59Z</time><name>PT8034</name></trkpt>
<trkpt lat="53.391963" lon="-1.638434"><ele>398</ele><time>2020-05-21T12:09:00Z</time><name>PT8035</name></trkpt>
<trkpt lat="53.391966" lon="-1.638445"><ele>398</ele><time>2020-05-21T12:09:02Z</time><name>PT8036</name></trkpt>
<trkpt lat="53.391969" lon="-1.638458"><ele>397</ele><time>2020-05-21T12:09:02Z</time><name>PT8037</name></trkpt>
<trkpt lat="53.391973" lon="-1.638477"><ele>397</ele><time>2020-05-21T12:09:03Z</time><name>PT8038</name></trkpt>
<trkpt lat="53.391978" lon="-1.638499"><ele>397</ele><time>2020-05-21T12:09:05Z</time><name>PT8039</name></trkpt>
<trkpt lat="53.391983" lon="-1.638523"><ele>397</ele><time>2020-05-21T12:09:05Z</time><name>PT8040</name></trkpt>
<trkpt lat="53.391986" lon="-1.638539"><ele>397</ele><time>2020-05-21T12:09:06Z</time><name>PT8041</name></trkpt>
<trkpt lat="53.391989" lon="-1.638550"><ele>398</ele><time>2020-05-21T12:09:08Z</time><name>PT8042</name></trkpt>
<trkpt lat="53.391990" lon="-1.638569"><ele>398</ele><time>2020-05-21T12:09:08Z</time><name>PT8043</name></trkpt>
<trkpt lat="53.391993" lon="-1.638593"><ele>398</ele><time>2020-05-21T12:09:09Z</time><name>PT8044</name></trkpt>
<trkpt lat="53.391997" lon="-1.638619"><ele>398</ele><time>2020-05-21T12:09:11Z</time><name>PT8045</name></trkpt>
<trkpt lat="53.392001" lon="-1.638645"><ele>398</ele><time>2020-05-21T12:09:11Z</time><name>PT8046</name></trkpt>
<trkpt lat="53.392005" lon="-1.638670"><ele>398</ele><time>2020-05-21T12:09:12Z</time><name>PT8047</name></trkpt>
<trkpt lat="53.392007" lon="-1.638689"><ele>399</ele><time>2020-05-21T12:09:14Z</time><name>PT8048</name></trkpt>
<trkpt lat="53.392008" lon="-1.638701"><ele>399</ele><time>2020-05-21T12:09:14Z</time><name>PT8049</name></trkpt>
<trkpt lat="53.392010" lon="-1.638715"><ele>399</ele><time>2020-05-21T12:09:15Z</time><name>PT8050</name></trkpt>
<trkpt lat="53.392011" lon="-1.638738"><ele>398</ele><time>2020-05-21T12:09:17Z</time><name>PT8051</name></trkpt>
<trkpt lat="53.392012" lon="-1.638761"><ele>398</ele><time>2020-05-21T12:09:17Z</time><name>PT8052</name></trkpt>
<trkpt lat="53.392015" lon="-1.638783"><ele>399</ele><time>2020-05-21T12:09:18Z</time><name>PT8053</name></trkpt>
<trkpt lat="53.392021" lon="-1.638808"><ele>399</ele><time>2020-05-21T12:09:20Z</time><name>PT8054</name></trkpt>
<trkpt lat="53.392025" lon="-1.638826"><ele>399</ele><time>2020-05-21T12:09:20Z</time><name>PT8055</name></trkpt>
<trkpt lat="53.392025" lon="-1.638839"><ele>399</ele><time>2020-05-21T12:09:21Z</time><name>PT8056</name></trkpt>
<trkpt lat="53.392026" lon="-1.638858"><ele>398</ele><time>2020-05-21T12:09:23Z</time><name>PT8057</name></trkpt>
<trkpt lat="53.392029" lon="-1.638880"><ele>398</ele><time>2020-05-21T12:09:23Z</time><name>PT8058</name></trkpt>
<trkpt lat="53.392032" lon="-1.638907"><ele>399</ele><time>2020-05-21T12:09:24Z</time><name>PT8059</name></trkpt>
<trkpt lat="53.392035" lon="-1.638931"><ele>399</ele><time>2020-05-21T12:09:26Z</time><name>PT8060</name></trkpt>
<trkpt lat="53.392038" lon="-1.638946"><ele>399</ele><time>2020-05-21T12:09:26Z</time><name>PT8061</name></trkpt>
<trkpt lat="53.392040" lon="-1.638957"><ele>399</ele><time>2020-05-21T12:09:27Z</time><name>PT8062</name></trkpt>
<trkpt lat="53.392042" lon="-1.638976"><ele>399</ele><time>2020-05-21T12:09:29Z</time><name>PT8063</name></trkpt>
<trkpt lat="53.392045" lon="-1.638998"><ele>399</ele><time>2020-05-21T12:09:29Z</time><name>PT8064</name></trkpt>
<trkpt lat="53.392049" lon="-1.639023"><ele>400</ele><time>2020-05-21T12:09:30Z</time><name>PT8065</name></trkpt>
<trkpt lat="53.392052" lon="-1.639046"><ele>400</ele><time>2020-05-21T12:09:32Z</time><name>PT8066</name></trkpt>
<trkpt lat="53.392053" lon="-1.639060"><ele>400</ele><time>2020-05-21T12:09:32Z</time><name>PT8067</name></trkpt>
<trkpt lat="53.392053" lon="-1.639073"><ele>400</ele><time>2020-05-21T12:09:33Z</time><name>PT8068</name></trkpt>
<trkpt lat="53.392053" lon="-1.639091"><ele>400</ele><time>2020-05-21T12:09:35Z</time><name>PT8069</name></trkpt>
<trkpt lat="53.392055" lon="-1.639114"><ele>400</ele><time>2020-05-21T12:09:35Z</time><name>PT8070</name></trkpt>
<trkpt lat="53.392059" lon="-1.639139"><ele>400</ele><time>2020-05-21T12:09:36Z</time><name>PT8071</name></trkpt>
<trkpt lat="53.392062" lon="-1.639164"><ele>400</ele><time>2020-05-21T12:09:38Z</time><name>PT8072</name></trkpt>
<trkpt lat="53.392063" lon="-1.639182"><ele>400</ele><time>2020-05-21T12:09:38Z</time><name>PT8073</name></trkpt>
<trkpt lat="53.392065" lon="-1.639198"><ele>400</ele><time>2020-05-21T12:09:39Z</time><name>PT8074</name></trkpt>
<trkpt lat="53.392070" lon="-1.639210"><ele>400</ele><time>2020-05-21T12:09:41Z</time><name>PT8075</name></trkpt>
<trkpt lat="53.392072" lon="-1.639231"><ele>399</ele><time>2020-05-21T12:09:41Z</time><name>PT8076</name></trkpt>
<trkpt lat="53.392074" lon="-1.639257"><ele>400</ele><time>2020-05-21T12:09:42Z</time><name>PT8077</name></trkpt>
<trkpt lat="53.392070" lon="-1.639287"><ele>399</ele><time>2020-05-21T12:09:44Z</time><name>PT8078</name></trkpt>
<trkpt lat="53.392069" lon="-1.639312"><ele>399</ele><time>2020-05-21T12:09:44Z</time><name>PT8079</name></trkpt>
<trkpt lat="53.392069" lon="-1.639334"><ele>399</ele><time>2020-05-21T12:09:45Z</time><name>PT8080</name></trkpt>
<trkpt lat="53.392070" lon="-1.639349"><ele>399</ele><time>2020-05-21T12:09:47Z</time><name>PT8081</name></trkpt>
<trkpt lat="53.392069" lon="-1.639368"><ele>398</ele><time>2020-05-21T12:09:47Z</time><name>PT8082</name></trkpt>
<trkpt lat="53.392069" lon="-1.639391"><ele>397</ele><time>2020-05-21T12:09:48Z</time><name>PT8083</name></trkpt>
<trkpt lat="53.392070" lon="-1.639417"><ele>397</ele><time>2020-05-21T12:09:50Z</time><name>PT8084</name></trkpt>
<trkpt lat="53.392074" lon="-1.639443"><ele>397</ele><time>2020-05-21T12:09:50Z</time><name>PT8085</name></trkpt>
<trkpt lat="53.392077" lon="-1.639472"><ele>397</ele><time>2020-05-21T12:09:51Z</time><name>PT8086</name></trkpt>
<trkpt lat="53.392080" lon="-1.639496"><ele>397</ele><time>2020-05-21T12:09:53Z</time><name>PT8087</name></trkpt>
<trkpt lat="53.392081" lon="-1.639515"><ele>397</ele><time>2020-05-21T12:09:53Z</time><name>PT8088</name></trkpt>
<trkpt lat="53.392079" lon="-1.639533"><ele>396</ele><time>2020-05-21T12:09:54Z</time><name>PT8089</name></trkpt>
<trkpt lat="53.392079" lon="-1.639556"><ele>395</ele><time>2020-05-21T12:09:56Z</time><name>PT8090</name></trkpt>
<trkpt lat="53.392082" lon="-1.639580"><ele>395</ele><time>2020-05-21T12:09:56Z</time><name>PT8091</name></trkpt>
<trkpt lat="53.392085" lon="-1.639604"><ele>395</ele><time>2020-05-21T12:09:57Z</time><name>PT8092</name></trkpt>
<trkpt lat="53.392091" lon="-1.639630"><ele>395</ele><time>2020-05-21T12:09:59Z</time><name>PT8093</name></trkpt>
<trkpt lat="53.392094" lon="-1.639659"><ele>395</ele><time>2020-05-21T12:09:59Z</time><name>PT8094</name></trkpt>
<trkpt lat="53.392096" lon="-1.639685"><ele>395</ele><time>2020-05-21T12:10:00Z</time><name>PT8095</name></trkpt>
<trkpt lat="53.392101" lon="-1.639698"><ele>396</ele><time>2020-05-21T12:10:02Z</time><name>PT8096</name></trkpt>
<trkpt lat="53.392105" lon="-1.639709"><ele>396</ele><time>2020-05-21T12:10:02Z</time><name>PT8097</name></trkpt>
<trkpt lat="53.392105" lon="-1.639724"><ele>396</ele><time>2020-05-21T12:10:03Z</time><name>PT8098</name></trkpt>
<trkpt lat="53.392107" lon="-1.639746"><ele>395</ele><time>2020-05-21T12:10:05Z</time><name>PT8099</name></trkpt>
<trkpt lat="53.392108" lon="-1.639772"><ele>395</ele><time>2020-05-21T12:10:05Z</time><name>PT8100</name></trkpt>
<trkpt lat="53.392109" lon="-1.639802"><ele>395</ele><time>2020-05-21T12:10:06Z</time><name>PT8101</name></trkpt>
<trkpt lat="53.392111" lon="-1.639831"><ele>396</ele><time>2020-05-21T12:10:08Z</time><name>PT8102</name></trkpt>
<trkpt lat="53.392114" lon="-1.639848"><ele>396</ele><time>2020-05-21T12:10:08Z</time><name>PT8103</name></trkpt>
<trkpt lat="53.392114" lon="-1.639862"><ele>395</ele><time>2020-05-21T12:10:09Z</time><name>PT8104</name></trkpt>
<trkpt lat="53.392109" lon="-1.639884"><ele>394</ele><time>2020-05-21T12:10:11Z</time><name>PT8105</name></trkpt>
<trkpt lat="53.392107" lon="-1.639907"><ele>394</ele><time>2020-05-21T12:10:11Z</time><name>PT8106</name></trkpt>
<trkpt lat="53.392106" lon="-1.639935"><ele>393</ele><time>2020-05-21T12:10:12Z</time><name>PT8107</name></trkpt>
<trkpt lat="53.392107" lon="-1.639965"><ele>393</ele><time>2020-05-21T12:10:14Z</time><name>PT8108</name></trkpt>
<trkpt lat="53.392110" lon="-1.639991"><ele>393</ele><time>2020-05-21T12:10:14Z</time><name>PT8109</name></trkpt>
<trkpt lat="53.392112" lon="-1.640008"><ele>393</ele><time>2020-05-21T12:10:15Z</time><name>PT8110</name></trkpt>
<trkpt lat="53.392115" lon="-1.640026"><ele>392</ele><time>2020-05-21T12:10:17Z</time><name>PT8111</name></trkpt>
<trkpt lat="53.392116" lon="-1.640049"><ele>392</ele><time>2020-05-21T12:10:17Z</time><name>PT8112</name></trkpt>
<trkpt lat="53.392117" lon="-1.640075"><ele>392</ele><time>2020-05-21T12:10:18Z</time><name>PT8113</name></trkpt>
<trkpt lat="53.392119" lon="-1.640104"><ele>392</ele><time>2020-05-21T12:10:20Z</time><name>PT8114</name></trkpt>
<trkpt lat="53.392120" lon="-1.640132"><ele>392</ele><time>2020-05-21T12:10:20Z</time><name>PT8115</name></trkpt>
<trkpt lat="53.392120" lon="-1.640149"><ele>392</ele><time>2020-05-21T12:10:21Z</time><name>PT8116</name></trkpt>
<trkpt lat="53.392121" lon="-1.640165"><ele>392</ele><time>2020-05-21T12:10:23Z</time><name>PT8117</name></trkpt>
<trkpt lat="53.392121" lon="-1.640186"><ele>392</ele><time>2020-05-21T12:10:23Z</time><name>PT8118</name></trkpt>
<trkpt lat="53.392123" lon="-1.640207"><ele>392</ele><time>2020-05-21T12:10:24Z</time><name>PT8119</name></trkpt>
<trkpt lat="53.392126" lon="-1.640233"><ele>392</ele><time>2020-05-21T12:10:26Z</time><name>PT8120</name></trkpt>
<trkpt lat="53.392128" lon="-1.640259"><ele>392</ele><time>2020-05-21T12:10:26Z</time><name>PT8121</name></trkpt>
<trkpt lat="53.392130" lon="-1.640276"><ele>392</ele><time>2020-05-21T12:10:27Z</time><name>PT8122</name></trkpt>
<trkpt lat="53.392134" lon="-1.640289"><ele>392</ele><time>2020-05-21T12:10:29Z</time><name>PT8123</name></trkpt>
<trkpt lat="53.392137" lon="-1.640311"><ele>392</ele><time>2020-05-21T12:10:29Z</time><name>PT8124</name></trkpt>
<trkpt lat="53.392140" lon="-1.640338"><ele>392</ele><time>2020-05-21T12:10:30Z</time><name>PT8125</name></trkpt>
<trkpt lat="53.392143" lon="-1.640366"><ele>393</ele><time>2020-05-21T12:10:32Z</time><name>PT8126</name></trkpt>
<trkpt lat="53.392146" lon="-1.640384"><ele>393</ele><time>2020-05-21T12:10:32Z</time><name>PT8127</name></trkpt>
<trkpt lat="53.392149" lon="-1.640398"><ele>392</ele><time>2020-05-21T12:10:33Z</time><name>PT8128</name></trkpt>
<trkpt lat="53.392151" lon="-1.640420"><ele>392</ele><time>2020-05-21T12:10:35Z</time><name>PT8129</name></trkpt>
<trkpt lat="53.392151" lon="-1.640445"><ele>392</ele><time>2020-05-21T12:10:35Z</time><name>PT8130</name></trkpt>
<trkpt lat="53.392155" lon="-1.640475"><ele>392</ele><time>2020-05-21T12:10:36Z</time><name>PT8131</name></trkpt>
<trkpt lat="53.392158" lon="-1.640499"><ele>393</ele><time>2020-05-21T12:10:38Z</time><name>PT8132</name></trkpt>
<trkpt lat="53.392161" lon="-1.640513"><ele>393</ele><time>2020-05-21T12:10:38Z</time><name>PT8133</name></trkpt>
<trkpt lat="53.392165" lon="-1.640527"><ele>393</ele><time>2020-05-21T12:10:39Z</time><name>PT8134</name></trkpt>
<trkpt lat="53.392166" lon="-1.640549"><ele>393</ele><time>2020-05-21T12:10:41Z</time><name>PT8135</name></trkpt>
<trkpt lat="53.392171" lon="-1.640575"><ele>394</ele><time>2020-05-21T12:10:41Z</time><name>PT8136</name></trkpt>
<trkpt lat="53.392175" lon="-1.640605"><ele>394</ele><time>2020-05-21T12:10:42Z</time><name>PT8137</name></trkpt>
<trkpt lat="53.392177" lon="-1.640631"><ele>394</ele><time>2020-05-21T12:10:44Z</time><name>PT8138</name></trkpt>
<trkpt lat="53.392178" lon="-1.640646"><ele>394</ele><time>2020-05-21T12:10:44Z</time><name>PT8139</name></trkpt>
<trkpt lat="53.392178" lon="-1.640662"><ele>394</ele><time>2020-05-21T12:10:45Z</time><name>PT8140</name></trkpt>
<trkpt lat="53.392180" lon="-1.640684"><ele>394</ele><time>2020-05-21T12:10:47Z</time><name>PT8141</name></trkpt>
<trkpt lat="53.392182" lon="-1.640709"><ele>394</ele><time>2020-05-21T12:10:47Z</time><name>PT8142</name></trkpt>
<trkpt lat="53.392184" lon="-1.640737"><ele>395</ele><time>2020-05-21T12:10:48Z</time><name>PT8143</name></trkpt>
<trkpt lat="53.392187" lon="-1.640761"><ele>395</ele><time>2020-05-21T12:10:50Z</time><name>PT8144</name></trkpt>
<trkpt lat="53.392188" lon="-1.640774"><ele>395</ele><time>2020-05-21T12:10:50Z</time><name>PT8145</name></trkpt>
<trkpt lat="53.392188" lon="-1.640790"><ele>396</ele><time>2020-05-21T12:10:51Z</time><name>PT8146</name></trkpt>
<trkpt lat="53.392188" lon="-1.640813"><ele>396</ele><time>2020-05-21T12:10:53Z</time><name>PT8147</name></trkpt>
<trkpt lat="53.392193" lon="-1.640840"><ele>397</ele><time>2020-05-21T12:10:53Z</time><name>PT8148</name></trkpt>
<trkpt lat="53.392194" lon="-1.640871"><ele>397</ele><time>2020-05-21T12:10:54Z</time><name>PT8149</name></trkpt>
<trkpt lat="53.392193" lon="-1.640898"><ele>397</ele><time>2020-05-21T12:10:56Z</time><name>PT8150</name></trkpt>
<trkpt lat="53.392195" lon="-1.640914"><ele>397</ele><time>2020-05-21T12:10:56Z</time><name>PT8151</name></trkpt>
<trkpt lat="53.392195" lon="-1.640928"><ele>397</ele><time>2020-05-21T12:10:57Z</time><name>PT8152</name></trkpt>
<trkpt lat="53.392196" lon="-1.640947"><ele>396</ele><time>2020-05-21T12:10:59Z</time><name>PT8153</name></trkpt>
<trkpt lat="53.392203" lon="-1.640967"><ele>397</ele><time>2020-05-21T12:10:59Z</time><name>PT8154</name></trkpt>
<trkpt lat="53.392206" lon="-1.640994"><ele>397</ele><time>2020-05-21T12:11:00Z</time><name>PT8155</name></trkpt>
<trkpt lat="53.392208" lon="-1.641014"><ele>397</ele><time>2020-05-21T12:11:02Z</time><name>PT8156</name></trkpt>
<trkpt lat="53.392207" lon="-1.641028"><ele>397</ele><time>2020-05-21T12:11:02Z</time><name>PT8157</name></trkpt>
<trkpt lat="53.392206" lon="-1.641044"><ele>397</ele><time>2020-05-21T12:11:03Z</time><name>PT8158</name></trkpt>
<trkpt lat="53.392207" lon="-1.641067"><ele>397</ele><time>2020-05-21T12:11:05Z</time><name>PT8159</name></trkpt>
<trkpt lat="53.392209" lon="-1.641093"><ele>397</ele><time>2020-05-21T12:11:05Z</time><name>PT8160</name></trkpt>
<trkpt lat="53.392212" lon="-1.641121"><ele>397</ele><time>2020-05-21T12:11:06Z</time><name>PT8161</name></trkpt>
<trkpt lat="53.392214" lon="-1.641141"><ele>398</ele><time>2020-05-21T12:11:08Z</time><name>PT8162</name></trkpt>
<trkpt lat="53.392220" lon="-1.641155"><ele>398</ele><time>2020-05-21T12:11:08Z</time><name>PT8163</name></trkpt>
<trkpt lat="53.392223" lon="-1.641174"><ele>398</ele><time>2020-05-21T12:11:09Z</time><name>PT8164</name></trkpt>
<trkpt lat="53.392226" lon="-1.641195"><ele>398</ele><time>2020-05-21T12:11:11Z</time><name>PT8165</name></trkpt>
<trkpt lat="53.392229" lon="-1.641223"><ele>398</ele><time>2020-05-21T12:11:11Z</time><name>PT8166</name></trkpt>
<trkpt lat="53.392234" lon="-1.641249"><ele>398</ele><time>2020-05-21T12:11:12Z</time><name>PT8167</name></trkpt>
<trkpt lat="53.392239" lon="-1.641272"><ele>399</ele><time>2020-05-21T12:11:14Z</time><name>PT8168</name></trkpt>
<trkpt lat="53.392243" lon="-1.641294"><ele>399</ele><time>2020-05-21T12:11:14Z</time><name>PT8169</name></trkpt>
<trkpt lat="53.392243" lon="-1.641308"><ele>399</ele><time>2020-05-21T12:11:15Z</time><name>PT8170</name></trkpt>
<trkpt lat="53.392245" lon="-1.641324"><ele>399</ele><time>2020-05-21T12:11:17Z</time><name>PT8171</name></trkpt>
<trkpt lat="53.392244" lon="-1.641347"><ele>399</ele><time>2020-05-21T12:11:17Z</time><name>PT8172</name></trkpt>
<trkpt lat="53.392244" lon="-1.641372"><ele>399</ele><time>2020-05-21T12:11:18Z</time><name>PT8173</name></trkpt>
<trkpt lat="53.392245" lon="-1.641397"><ele>399</ele><time>2020-05-21T12:11:19Z</time><name>PT8174</name></trkpt>
<trkpt lat="53.392247" lon="-1.641414"><ele>399</ele><time>2020-05-21T12:11:20Z</time><name>PT8175</name></trkpt>
<trkpt lat="53.392248" lon="-1.641426"><ele>399</ele><time>2020-05-21T12:11:22Z</time><name>PT8176</name></trkpt>
<trkpt lat="53.392248" lon="-1.641443"><ele>399</ele><time>2020-05-21T12:11:22Z</time><name>PT8177</name></trkpt>
<trkpt lat="53.392248" lon="-1.641460"><ele>399</ele><time>2020-05-21T12:11:23Z</time><name>PT8178</name></trkpt>
<trkpt lat="53.392242" lon="-1.641474"><ele>398</ele><time>2020-05-21T12:11:25Z</time><name>PT8179</name></trkpt>
<trkpt lat="53.392240" lon="-1.641483"><ele>398</ele><time>2020-05-21T12:11:25Z</time><name>PT8180</name></trkpt>
<trkpt lat="53.392240" lon="-1.641494"><ele>398</ele><time>2020-05-21T12:11:26Z</time><name>PT8181</name></trkpt>
<trkpt lat="53.392241" lon="-1.641506"><ele>398</ele><time>2020-05-21T12:11:28Z</time><name>PT8182</name></trkpt>
<trkpt lat="53.392237" lon="-1.641515"><ele>398</ele><time>2020-05-21T12:11:28Z</time><name>PT8183</name></trkpt>
<trkpt lat="53.392236" lon="-1.641520"><ele>398</ele><time>2020-05-21T12:11:30Z</time><name>PT8184</name></trkpt>
<trkpt lat="53.392236" lon="-1.641523"><ele>398</ele><time>2020-05-21T12:11:31Z</time><name>PT8185</name></trkpt>
<trkpt lat="53.392236" lon="-1.641533"><ele>397</ele><time>2020-05-21T12:11:31Z</time><name>PT8186</name></trkpt>
<trkpt lat="53.392236" lon="-1.641543"><ele>398</ele><time>2020-05-21T12:11:33Z</time><name>PT8187</name></trkpt>
<trkpt lat="53.392234" lon="-1.641549"><ele>398</ele><time>2020-05-21T12:11:34Z</time><name>PT8188</name></trkpt>
<trkpt lat="53.392234" lon="-1.641551"><ele>397</ele><time>2020-05-21T12:11:34Z</time><name>PT8189</name></trkpt>
<trkpt lat="53.392234" lon="-1.641546"><ele>397</ele><time>2020-05-21T12:11:35Z</time><name>PT8190</name></trkpt>
<trkpt lat="53.392231" lon="-1.641543"><ele>397</ele><time>2020-05-21T12:11:37Z</time><name>PT8191</name></trkpt>
<trkpt lat="53.392231" lon="-1.641541"><ele>397</ele><time>2020-05-21T12:11:37Z</time><name>PT8192</name></trkpt>
<trkpt lat="53.392235" lon="-1.641546"><ele>397</ele><time>2020-05-21T12:11:38Z</time><name>PT8193</name></trkpt>
<trkpt lat="53.392243" lon="-1.641565"><ele>396</ele><time>2020-05-21T12:11:40Z</time><name>PT8194</name></trkpt>
<trkpt lat="53.392245" lon="-1.641585"><ele>396</ele><time>2020-05-21T12:11:40Z</time><name>PT8195</name></trkpt>
<trkpt lat="53.392253" lon="-1.641599"><ele>397</ele><time>2020-05-21T12:11:41Z</time><name>PT8196</name></trkpt>
<trkpt lat="53.392258" lon="-1.641616"><ele>396</ele><time>2020-05-21T12:11:43Z</time><name>PT8197</name></trkpt>
<trkpt lat="53.392265" lon="-1.641637"><ele>396</ele><time>2020-05-21T12:11:43Z</time><name>PT8198</name></trkpt>
<trkpt lat="53.392268" lon="-1.641667"><ele>396</ele><time>2020-05-21T12:11:44Z</time><name>PT8199</name></trkpt>
<trkpt lat="53.392271" lon="-1.641697"><ele>396</ele><time>2020-05-21T12:11:46Z</time><name>PT8200</name></trkpt>
<trkpt lat="53.392275" lon="-1.641727"><ele>397</ele><time>2020-05-21T12:11:46Z</time><name>PT8201</name></trkpt>
<trkpt lat="53.392285" lon="-1.641759"><ele>397</ele><time>2020-05-21T12:11:47Z</time><name>PT8202</name></trkpt>
<trkpt lat="53.392293" lon="-1.641787"><ele>397</ele><time>2020-05-21T12:11:49Z</time><name>PT8203</name></trkpt>
<trkpt lat="53.392297" lon="-1.641809"><ele>398</ele><time>2020-05-21T12:11:49Z</time><name>PT8204</name></trkpt>
<trkpt lat="53.392297" lon="-1.641825"><ele>397</ele><time>2020-05-21T12:11:50Z</time><name>PT8205</name></trkpt>
<trkpt lat="53.392300" lon="-1.641843"><ele>397</ele><time>2020-05-21T12:11:52Z</time><name>PT8206</name></trkpt>
<trkpt lat="53.392303" lon="-1.641867"><ele>397</ele><time>2020-05-21T12:11:52Z</time><name>PT8207</name></trkpt>
<trkpt lat="53.392305" lon="-1.641893"><ele>397</ele><time>2020-05-21T12:11:53Z</time><name>PT8208</name></trkpt>
<trkpt lat="53.392307" lon="-1.641930"><ele>396</ele><time>2020-05-21T12:11:55Z</time><name>PT8209</name></trkpt>
<trkpt lat="53.392312" lon="-1.641962"><ele>396</ele><time>2020-05-21T12:11:55Z</time><name>PT8210</name></trkpt>
<trkpt lat="53.392316" lon="-1.641994"><ele>396</ele><time>2020-05-21T12:11:56Z</time><name>PT8211</name></trkpt>
<trkpt lat="53.392319" lon="-1.642014"><ele>396</ele><time>2020-05-21T12:11:58Z</time><name>PT8212</name></trkpt>
<trkpt lat="53.392319" lon="-1.642027"><ele>396</ele><time>2020-05-21T12:11:58Z</time><name>PT8213</name></trkpt>
<trkpt lat="53.392320" lon="-1.642043"><ele>396</ele><time>2020-05-21T12:11:59Z</time><name>PT8214</name></trkpt>
<trkpt lat="53.392322" lon="-1.642066"><ele>395</ele><time>2020-05-21T12:12:01Z</time><name>PT8215</name></trkpt>
<trkpt lat="53.392323" lon="-1.642094"><ele>395</ele><time>2020-05-21T12:12:01Z</time><name>PT8216</name></trkpt>
<trkpt lat="53.392324" lon="-1.642122"><ele>396</ele><time>2020-05-21T12:12:02Z</time><name>PT8217</name></trkpt>
<trkpt lat="53.392325" lon="-1.642153"><ele>396</ele><time>2020-05-21T12:12:04Z</time><name>PT8218</name></trkpt>
<trkpt lat="53.392325" lon="-1.642179"><ele>395</ele><time>2020-05-21T12:12:04Z</time><name>PT8219</name></trkpt>
<trkpt lat="53.392326" lon="-1.642195"><ele>395</ele><time>2020-05-21T12:12:05Z</time><name>PT8220</name></trkpt>
<trkpt lat="53.392327" lon="-1.642212"><ele>396</ele><time>2020-05-21T12:12:07Z</time><name>PT8221</name></trkpt>
<trkpt lat="53.392332" lon="-1.642228"><ele>396</ele><time>2020-05-21T12:12:07Z</time><name>PT8222</name></trkpt>
<trkpt lat="53.392334" lon="-1.642251"><ele>397</ele><time>2020-05-21T12:12:08Z</time><name>PT8223</name></trkpt>
<trkpt lat="53.392337" lon="-1.642280"><ele>397</ele><time>2020-05-21T12:12:10Z</time><name>PT8224</name></trkpt>
<trkpt lat="53.392338" lon="-1.642308"><ele>397</ele><time>2020-05-21T12:12:10Z</time><name>PT8225</name></trkpt>
<trkpt lat="53.392337" lon="-1.642330"><ele>396</ele><time>2020-05-21T12:12:11Z</time><name>PT8226</name></trkpt>
<trkpt lat="53.392337" lon="-1.642343"><ele>396</ele><time>2020-05-21T12:12:13Z</time><name>PT8227</name></trkpt>
<trkpt lat="53.392337" lon="-1.642363"><ele>395</ele><time>2020-05-21T12:12:13Z</time><name>PT8228</name></trkpt>
<trkpt lat="53.392339" lon="-1.642388"><ele>396</ele><time>2020-05-21T12:12:14Z</time><name>PT8229</name></trkpt>
<trkpt lat="53.392341" lon="-1.642412"><ele>396</ele><time>2020-05-21T12:12:16Z</time><name>PT8230</name></trkpt>
<trkpt lat="53.392345" lon="-1.642438"><ele>397</ele><time>2020-05-21T12:12:16Z</time><name>PT8231</name></trkpt>
<trkpt lat="53.392348" lon="-1.642467"><ele>396</ele><time>2020-05-21T12:12:17Z</time><name>PT8232</name></trkpt>
<trkpt lat="53.392348" lon="-1.642486"><ele>396</ele><time>2020-05-21T12:12:19Z</time><name>PT8233</name></trkpt>
<trkpt lat="53.392351" lon="-1.642500"><ele>396</ele><time>2020-05-21T12:12:19Z</time><name>PT8234</name></trkpt>
<trkpt lat="53.392353" lon="-1.642516"><ele>395</ele><time>2020-05-21T12:12:20Z</time><name>PT8235</name></trkpt>
<trkpt lat="53.392354" lon="-1.642537"><ele>395</ele><time>2020-05-21T12:12:22Z</time><name>PT8236</name></trkpt>
<trkpt lat="53.392357" lon="-1.642556"><ele>395</ele><time>2020-05-21T12:12:22Z</time><name>PT8237</name></trkpt>
<trkpt lat="53.392360" lon="-1.642581"><ele>395</ele><time>2020-05-21T12:12:23Z</time><name>PT8238</name></trkpt>
<trkpt lat="53.392365" lon="-1.642609"><ele>395</ele><time>2020-05-21T12:12:25Z</time><name>PT8239</name></trkpt>
<trkpt lat="53.392367" lon="-1.642631"><ele>395</ele><time>2020-05-21T12:12:25Z</time><name>PT8240</name></trkpt>
<trkpt lat="53.392368" lon="-1.642646"><ele>394</ele><time>2020-05-21T12:12:26Z</time><name>PT8241</name></trkpt>
<trkpt lat="53.392370" lon="-1.642659"><ele>394</ele><time>2020-05-21T12:12:28Z</time><name>PT8242</name></trkpt>
<trkpt lat="53.392370" lon="-1.642678"><ele>394</ele><time>2020-05-21T12:12:28Z</time><name>PT8243</name></trkpt>
<trkpt lat="53.392370" lon="-1.642700"><ele>394</ele><time>2020-05-21T12:12:29Z</time><name>PT8244</name></trkpt>
<trkpt lat="53.392370" lon="-1.642724"><ele>394</ele><time>2020-05-21T12:12:31Z</time><name>PT8245</name></trkpt>
<trkpt lat="53.392371" lon="-1.642752"><ele>394</ele><time>2020-05-21T12:12:31Z</time><name>PT8246</name></trkpt>
<trkpt lat="53.392375" lon="-1.642780"><ele>394</ele><time>2020-05-21T12:12:32Z</time><name>PT8247</name></trkpt>
<trkpt lat="53.392379" lon="-1.642807"><ele>394</ele><time>2020-05-21T12:12:34Z</time><name>PT8248</name></trkpt>
<trkpt lat="53.392383" lon="-1.642827"><ele>394</ele><time>2020-05-21T12:12:34Z</time><name>PT8249</name></trkpt>
<trkpt lat="53.392385" lon="-1.642842"><ele>394</ele><time>2020-05-21T12:12:35Z</time><name>PT8250</name></trkpt>
<trkpt lat="53.392388" lon="-1.642855"><ele>394</ele><time>2020-05-21T12:12:37Z</time><name>PT8251</name></trkpt>
<trkpt lat="53.392390" lon="-1.642878"><ele>393</ele><time>2020-05-21T12:12:37Z</time><name>PT8252</name></trkpt>
<trkpt lat="53.392396" lon="-1.642897"><ele>393</ele><time>2020-05-21T12:12:38Z</time><name>PT8253</name></trkpt>
<trkpt lat="53.392399" lon="-1.642915"><ele>393</ele><time>2020-05-21T12:12:40Z</time><name>PT8254</name></trkpt>
<trkpt lat="53.392401" lon="-1.642935"><ele>394</ele><time>2020-05-21T12:12:40Z</time><name>PT8255</name></trkpt>
<trkpt lat="53.392404" lon="-1.642955"><ele>394</ele><time>2020-05-21T12:12:41Z</time><name>PT8256</name></trkpt>
<trkpt lat="53.392407" lon="-1.642981"><ele>394</ele><time>2020-05-21T12:12:43Z</time><name>PT8257</name></trkpt>
<trkpt lat="53.392410" lon="-1.643004"><ele>394</ele><time>2020-05-21T12:12:43Z</time><name>PT8258</name></trkpt>
<trkpt lat="53.392410" lon="-1.643018"><ele>394</ele><time>2020-05-21T12:12:44Z</time><name>PT8259</name></trkpt>
<trkpt lat="53.392412" lon="-1.643037"><ele>393</ele><time>2020-05-21T12:12:46Z</time><name>PT8260</name></trkpt>
<trkpt lat="53.392413" lon="-1.643059"><ele>392</ele><time>2020-05-21T12:12:46Z</time><name>PT8261</name></trkpt>
<trkpt lat="53.392416" lon="-1.643076"><ele>391</ele><time>2020-05-21T12:12:47Z</time><name>PT8262</name></trkpt>
<trkpt lat="53.392413" lon="-1.643102"><ele>392</ele><time>2020-05-21T12:12:49Z</time><name>PT8263</name></trkpt>
<trkpt lat="53.392413" lon="-1.643134"><ele>392</ele><time>2020-05-21T12:12:49Z</time><name>PT8264</name></trkpt>
<trkpt lat="53.392410" lon="-1.643164"><ele>392</ele><time>2020-05-21T12:12:50Z</time><name>PT8265</name></trkpt>
<trkpt lat="53.392410" lon="-1.643192"><ele>392</ele><time>2020-05-21T12:12:52Z</time><name>PT8266</name></trkpt>
<trkpt lat="53.392413" lon="-1.643212"><ele>392</ele><time>2020-05-21T12:12:52Z</time><name>PT8267</name></trkpt>
<trkpt lat="53.392416" lon="-1.643228"><ele>392</ele><time>2020-05-21T12:12:53Z</time><name>PT8268</name></trkpt>
<trkpt lat="53.392417" lon="-1.643250"><ele>392</ele><time>2020-05-21T12:12:55Z</time><name>PT8269</name></trkpt>
<trkpt lat="53.392415" lon="-1.643276"><ele>391</ele><time>2020-05-21T12:12:55Z</time><name>PT8270</name></trkpt>
<trkpt lat="53.392415" lon="-1.643302"><ele>392</ele><time>2020-05-21T12:12:56Z</time><name>PT8271</name></trkpt>
<trkpt lat="53.392414" lon="-1.643331"><ele>392</ele><time>2020-05-21T12:12:58Z</time><name>PT8272</name></trkpt>
<trkpt lat="53.392415" lon="-1.643358"><ele>392</ele><time>2020-05-21T12:12:58Z</time><name>PT8273</name></trkpt>
<trkpt lat="53.392414" lon="-1.643375"><ele>392</ele><time>2020-05-21T12:12:59Z</time><name>PT8274</name></trkpt>
<trkpt lat="53.392416" lon="-1.643389"><ele>392</ele><time>2020-05-21T12:13:01Z</time><name>PT8275</name></trkpt>
<trkpt lat="53.392417" lon="-1.643407"><ele>392</ele><time>2020-05-21T12:13:01Z</time><name>PT8276</name></trkpt>
<trkpt lat="53.392418" lon="-1.643432"><ele>392</ele><time>2020-05-21T12:13:02Z</time><name>PT8277</name></trkpt>
<trkpt lat="53.392420" lon="-1.643458"><ele>392</ele><time>2020-05-21T12:13:04Z</time><name>PT8278</name></trkpt>
<trkpt lat="53.392419" lon="-1.643488"><ele>393</ele><time>2020-05-21T12:13:04Z</time><name>PT8279</name></trkpt>
<trkpt lat="53.392419" lon="-1.643517"><ele>392</ele><time>2020-05-21T12:13:05Z</time><name>PT8280</name></trkpt>
<trkpt lat="53.392422" lon="-1.643538"><ele>393</ele><time>2020-05-21T12:13:07Z</time><name>PT8281</name></trkpt>
<trkpt lat="53.392424" lon="-1.643552"><ele>393</ele><time>2020-05-21T12:13:07Z</time><name>PT8282</name></trkpt>
<trkpt lat="53.392423" lon="-1.643573"><ele>393</ele><time>2020-05-21T12:13:08Z</time><name>PT8283</name></trkpt>
<trkpt lat="53.392426" lon="-1.643596"><ele>393</ele><time>2020-05-21T12:13:10Z</time><name>PT8284</name></trkpt>
<trkpt lat="53.392429" lon="-1.643620"><ele>393</ele><time>2020-05-21T12:13:10Z</time><name>PT8285</name></trkpt>
<trkpt lat="53.392432" lon="-1.643648"><ele>393</ele><time>2020-05-21T12:13:11Z</time><name>PT8286</name></trkpt>
<trkpt lat="53.392434" lon="-1.643673"><ele>393</ele><time>2020-05-21T12:13:13Z</time><name>PT8287</name></trkpt>
<trkpt lat="53.392435" lon="-1.643688"><ele>393</ele><time>2020-05-21T12:13:13Z</time><name>PT8288</name></trkpt>
<trkpt lat="53.392435" lon="-1.643703"><ele>392</ele><time>2020-05-21T12:13:14Z</time><name>PT8289</name></trkpt>
<trkpt lat="53.392438" lon="-1.643720"><ele>392</ele><time>2020-05-21T12:13:16Z</time><name>PT8290</name></trkpt>
<trkpt lat="53.392441" lon="-1.643745"><ele>392</ele><time>2020-05-21T12:13:16Z</time><name>PT8291</name></trkpt>
<trkpt lat="53.392442" lon="-1.643770"><ele>392</ele><time>2020-05-21T12:13:17Z</time><name>PT8292</name></trkpt>
<trkpt lat="53.392447" lon="-1.643797"><ele>392</ele><time>2020-05-21T12:13:19Z</time><name>PT8293</name></trkpt>
<trkpt lat="53.392451" lon="-1.643824"><ele>392</ele><time>2020-05-21T12:13:19Z</time><name>PT8294</name></trkpt>
<trkpt lat="53.392453" lon="-1.643846"><ele>392</ele><time>2020-05-21T12:13:21Z</time><name>PT8295</name></trkpt>
<trkpt lat="53.392454" lon="-1.643858"><ele>392</ele><time>2020-05-21T12:13:22Z</time><name>PT8296</name></trkpt>
<trkpt lat="53.392454" lon="-1.643875"><ele>392</ele><time>2020-05-21T12:13:22Z</time><name>PT8297</name></trkpt>
<trkpt lat="53.392455" lon="-1.643905"><ele>393</ele><time>2020-05-21T12:13:23Z</time><name>PT8298</name></trkpt>
<trkpt lat="53.392459" lon="-1.643934"><ele>393</ele><time>2020-05-21T12:13:25Z</time><name>PT8299</name></trkpt>
<trkpt lat="53.392461" lon="-1.643966"><ele>393</ele><time>2020-05-21T12:13:25Z</time><name>PT8300</name></trkpt>
<trkpt lat="53.392465" lon="-1.643996"><ele>393</ele><time>2020-05-21T12:13:26Z</time><name>PT8301</name></trkpt>
<trkpt lat="53.392465" lon="-1.644017"><ele>392</ele><time>2020-05-21T12:13:28Z</time><name>PT8302</name></trkpt>
<trkpt lat="53.392464" lon="-1.644031"><ele>392</ele><time>2020-05-21T12:13:28Z</time><name>PT8303</name></trkpt>
<trkpt lat="53.392464" lon="-1.644052"><ele>392</ele><time>2020-05-21T12:13:29Z</time><name>PT8304</name></trkpt>
<trkpt lat="53.392468" lon="-1.644076"><ele>392</ele><time>2020-05-21T12:13:31Z</time><name>PT8305</name></trkpt>
<trkpt lat="53.392472" lon="-1.644099"><ele>392</ele><time>2020-05-21T12:13:31Z</time><name>PT8306</name></trkpt>
<trkpt lat="53.392478" lon="-1.644124"><ele>392</ele><time>2020-05-21T12:13:32Z</time><name>PT8307</name></trkpt>
<trkpt lat="53.392482" lon="-1.644149"><ele>391</ele><time>2020-05-21T12:13:34Z</time><name>PT8308</name></trkpt>
<trkpt lat="53.392483" lon="-1.644169"><ele>391</ele><time>2020-05-21T12:13:34Z</time><name>PT8309</name></trkpt>
<trkpt lat="53.392481" lon="-1.644183"><ele>390</ele><time>2020-05-21T12:13:35Z</time><name>PT8310</name></trkpt>
<trkpt lat="53.392482" lon="-1.644196"><ele>390</ele><time>2020-05-21T12:13:37Z</time><name>PT8311</name></trkpt>
<trkpt lat="53.392482" lon="-1.644218"><ele>390</ele><time>2020-05-21T12:13:37Z</time><name>PT8312</name></trkpt>
<trkpt lat="53.392483" lon="-1.644245"><ele>390</ele><time>2020-05-21T12:13:38Z</time><name>PT8313</name></trkpt>
<trkpt lat="53.392487" lon="-1.644276"><ele>390</ele><time>2020-05-21T12:13:40Z</time><name>PT8314</name></trkpt>
<trkpt lat="53.392489" lon="-1.644296"><ele>390</ele><time>2020-05-21T12:13:40Z</time><name>PT8315</name></trkpt>
<trkpt lat="53.392494" lon="-1.644306"><ele>391</ele><time>2020-05-21T12:13:41Z</time><name>PT8316</name></trkpt>
<trkpt lat="53.392496" lon="-1.644324"><ele>391</ele><time>2020-05-21T12:13:43Z</time><name>PT8317</name></trkpt>
<trkpt lat="53.392494" lon="-1.644351"><ele>392</ele><time>2020-05-21T12:13:43Z</time><name>PT8318</name></trkpt>
<trkpt lat="53.392495" lon="-1.644379"><ele>392</ele><time>2020-05-21T12:13:44Z</time><name>PT8319</name></trkpt>
<trkpt lat="53.392499" lon="-1.644407"><ele>392</ele><time>2020-05-21T12:13:46Z</time><name>PT8320</name></trkpt>
<trkpt lat="53.392500" lon="-1.644427"><ele>392</ele><time>2020-05-21T12:13:46Z</time><name>PT8321</name></trkpt>
<trkpt lat="53.392503" lon="-1.644440"><ele>392</ele><time>2020-05-21T12:13:48Z</time><name>PT8322</name></trkpt>
<trkpt lat="53.392506" lon="-1.644454"><ele>392</ele><time>2020-05-21T12:13:49Z</time><name>PT8323</name></trkpt>
<trkpt lat="53.392507" lon="-1.644472"><ele>392</ele><time>2020-05-21T12:13:49Z</time><name>PT8324</name></trkpt>
<trkpt lat="53.392509" lon="-1.644498"><ele>393</ele><time>2020-05-21T12:13:50Z</time><name>PT8325</name></trkpt>
<trkpt lat="53.392510" lon="-1.644523"><ele>392</ele><time>2020-05-21T12:13:51Z</time><name>PT8326</name></trkpt>
<trkpt lat="53.392514" lon="-1.644546"><ele>392</ele><time>2020-05-21T12:13:53Z</time><name>PT8327</name></trkpt>
<trkpt lat="53.392515" lon="-1.644560"><ele>392</ele><time>2020-05-21T12:13:54Z</time><name>PT8328</name></trkpt>
<trkpt lat="53.392517" lon="-1.644576"><ele>392</ele><time>2020-05-21T12:13:54Z</time><name>PT8329</name></trkpt>
<trkpt lat="53.392519" lon="-1.644598"><ele>392</ele><time>2020-05-21T12:13:55Z</time><name>PT8330</name></trkpt>
<trkpt lat="53.392522" lon="-1.644623"><ele>392</ele><time>2020-05-21T12:13:57Z</time><name>PT8331</name></trkpt>
<trkpt lat="53.392527" lon="-1.644654"><ele>392</ele><time>2020-05-21T12:13:57Z</time><name>PT8332</name></trkpt>
<trkpt lat="53.392526" lon="-1.644679"><ele>392</ele><time>2020-05-21T12:13:58Z</time><name>PT8333</name></trkpt>
<trkpt lat="53.392525" lon="-1.644694"><ele>392</ele><time>2020-05-21T12:14:00Z</time><name>PT8334</name></trkpt>
<trkpt lat="53.392524" lon="-1.644714"><ele>391</ele><time>2020-05-21T12:14:00Z</time><name>PT8335</name></trkpt>
<trkpt lat="53.392525" lon="-1.644735"><ele>390</ele><time>2020-05-21T12:14:01Z</time><name>PT8336</name></trkpt>
<trkpt lat="53.392526" lon="-1.644762"><ele>390</ele><time>2020-05-21T12:14:03Z</time><name>PT8337</name></trkpt>
<trkpt lat="53.392528" lon="-1.644791"><ele>390</ele><time>2020-05-21T12:14:03Z</time><name>PT8338</name></trkpt>
<trkpt lat="53.392530" lon="-1.644814"><ele>389</ele><time>2020-05-21T12:14:04Z</time><name>PT8339</name></trkpt>
<trkpt lat="53.392531" lon="-1.644829"><ele>389</ele><time>2020-05-21T12:14:06Z</time><name>PT8340</name></trkpt>
<trkpt lat="53.392535" lon="-1.644843"><ele>389</ele><time>2020-05-21T12:14:06Z</time><name>PT8341</name></trkpt>
<trkpt lat="53.392534" lon="-1.644865"><ele>388</ele><time>2020-05-21T12:14:07Z</time><name>PT8342</name></trkpt>
<trkpt lat="53.392535" lon="-1.644892"><ele>388</ele><time>2020-05-21T12:14:09Z</time><name>PT8343</name></trkpt>
<trkpt lat="53.392537" lon="-1.644919"><ele>388</ele><time>2020-05-21T12:14:09Z</time><name>PT8344</name></trkpt>
<trkpt lat="53.392542" lon="-1.644946"><ele>387</ele><time>2020-05-21T12:14:10Z</time><name>PT8345</name></trkpt>
<trkpt lat="53.392544" lon="-1.644971"><ele>388</ele><time>2020-05-21T12:14:12Z</time><name>PT8346</name></trkpt>
<trkpt lat="53.392545" lon="-1.644984"><ele>387</ele><time>2020-05-21T12:14:12Z</time><name>PT8347</name></trkpt>
<trkpt lat="53.392543" lon="-1.644999"><ele>387</ele><time>2020-05-21T12:14:13Z</time><name>PT8348</name></trkpt>
<trkpt lat="53.392543" lon="-1.645021"><ele>387</ele><time>2020-05-21T12:14:15Z</time><name>PT8349</name></trkpt>
<trkpt lat="53.392542" lon="-1.645045"><ele>386</ele><time>2020-05-21T12:14:15Z</time><name>PT8350</name></trkpt>
<trkpt lat="53.392544" lon="-1.645071"><ele>386</ele><time>2020-05-21T12:14:16Z</time><name>PT8351</name></trkpt>
<trkpt lat="53.392544" lon="-1.645095"><ele>386</ele><time>2020-05-21T12:14:18Z</time><name>PT8352</name></trkpt>
<trkpt lat="53.392545" lon="-1.645111"><ele>386</ele><time>2020-05-21T12:14:18Z</time><name>PT8353</name></trkpt>
<trkpt lat="53.392543" lon="-1.645126"><ele>385</ele><time>2020-05-21T12:14:19Z</time><name>PT8354</name></trkpt>
<trkpt lat="53.392540" lon="-1.645146"><ele>386</ele><time>2020-05-21T12:14:21Z</time><name>PT8355</name></trkpt>
<trkpt lat="53.392540" lon="-1.645168"><ele>386</ele><time>2020-05-21T12:14:21Z</time><name>PT8356</name></trkpt>
<trkpt lat="53.392544" lon="-1.645194"><ele>386</ele><time>2020-05-21T12:14:22Z</time><name>PT8357</name></trkpt>
<trkpt lat="53.392545" lon="-1.645218"><ele>385</ele><time>2020-05-21T12:14:24Z</time><name>PT8358</name></trkpt>
<trkpt lat="53.392544" lon="-1.645236"><ele>385</ele><time>2020-05-21T12:14:24Z</time><name>PT8359</name></trkpt>
<trkpt lat="53.392544" lon="-1.645249"><ele>385</ele><time>2020-05-21T12:14:25Z</time><name>PT8360</name></trkpt>
<trkpt lat="53.392544" lon="-1.645268"><ele>385</ele><time>2020-05-21T12:14:27Z</time><name>PT8361</name></trkpt>
<trkpt lat="53.392545" lon="-1.645289"><ele>385</ele><time>2020-05-21T12:14:27Z</time><name>PT8362</name></trkpt>
<trkpt lat="53.392547" lon="-1.645319"><ele>385</ele><time>2020-05-21T12:14:28Z</time><name>PT8363</name></trkpt>
<trkpt lat="53.392550" lon="-1.645346"><ele>385</ele><time>2020-05-21T12:14:30Z</time><name>PT8364</name></trkpt>
<trkpt lat="53.392551" lon="-1.645363"><ele>385</ele><time>2020-05-21T12:14:30Z</time><name>PT8365</name></trkpt>
<trkpt lat="53.392552" lon="-1.645379"><ele>385</ele><time>2020-05-21T12:14:31Z</time><name>PT8366</name></trkpt>
<trkpt lat="53.392555" lon="-1.645397"><ele>385</ele><time>2020-05-21T12:14:33Z</time><name>PT8367</name></trkpt>
<trkpt lat="53.392558" lon="-1.645420"><ele>385</ele><time>2020-05-21T12:14:33Z</time><name>PT8368</name></trkpt>
<trkpt lat="53.392561" lon="-1.645443"><ele>385</ele><time>2020-05-21T12:14:34Z</time><name>PT8369</name></trkpt>
<trkpt lat="53.392565" lon="-1.645470"><ele>385</ele><time>2020-05-21T12:14:35Z</time><name>PT8370</name></trkpt>
<trkpt lat="53.392566" lon="-1.645488"><ele>386</ele><time>2020-05-21T12:14:36Z</time><name>PT8371</name></trkpt>
<trkpt lat="53.392565" lon="-1.645503"><ele>385</ele><time>2020-05-21T12:14:37Z</time><name>PT8372</name></trkpt>
<trkpt lat="53.392566" lon="-1.645519"><ele>384</ele><time>2020-05-21T12:14:39Z</time><name>PT8373</name></trkpt>
<trkpt lat="53.392566" lon="-1.645545"><ele>384</ele><time>2020-05-21T12:14:39Z</time><name>PT8374</name></trkpt>
<trkpt lat="53.392568" lon="-1.645572"><ele>384</ele><time>2020-05-21T12:14:40Z</time><name>PT8375</name></trkpt>
<trkpt lat="53.392570" lon="-1.645598"><ele>384</ele><time>2020-05-21T12:14:42Z</time><name>PT8376</name></trkpt>
<trkpt lat="53.392574" lon="-1.645615"><ele>384</ele><time>2020-05-21T12:14:42Z</time><name>PT8377</name></trkpt>
<trkpt lat="53.392574" lon="-1.645632"><ele>385</ele><time>2020-05-21T12:14:43Z</time><name>PT8378</name></trkpt>
<trkpt lat="53.392576" lon="-1.645658"><ele>386</ele><time>2020-05-21T12:14:45Z</time><name>PT8379</name></trkpt>
<trkpt lat="53.392578" lon="-1.645684"><ele>386</ele><time>2020-05-21T12:14:45Z</time><name>PT8380</name></trkpt>
<trkpt lat="53.392581" lon="-1.645713"><ele>386</ele><time>2020-05-21T12:14:46Z</time><name>PT8381</name></trkpt>
<trkpt lat="53.392585" lon="-1.645740"><ele>386</ele><time>2020-05-21T12:14:48Z</time><name>PT8382</name></trkpt>
<trkpt lat="53.392586" lon="-1.645755"><ele>386</ele><time>2020-05-21T12:14:48Z</time><name>PT8383</name></trkpt>
<trkpt lat="53.392584" lon="-1.645772"><ele>386</ele><time>2020-05-21T12:14:49Z</time><name>PT8384</name></trkpt>
<trkpt lat="53.392587" lon="-1.645791"><ele>386</ele><time>2020-05-21T12:14:51Z</time><name>PT8385</name></trkpt>
<trkpt lat="53.392587" lon="-1.645815"><ele>386</ele><time>2020-05-21T12:14:51Z</time><name>PT8386</name></trkpt>
<trkpt lat="53.392591" lon="-1.645840"><ele>386</ele><time>2020-05-21T12:14:52Z</time><name>PT8387</name></trkpt>
<trkpt lat="53.392594" lon="-1.645866"><ele>386</ele><time>2020-05-21T12:14:54Z</time><name>PT8388</name></trkpt>
<trkpt lat="53.392594" lon="-1.645883"><ele>387</ele><time>2020-05-21T12:14:54Z</time><name>PT8389</name></trkpt>
<trkpt lat="53.392596" lon="-1.645897"><ele>387</ele><time>2020-05-21T12:14:55Z</time><name>PT8390</name></trkpt>
<trkpt lat="53.392596" lon="-1.645917"><ele>387</ele><time>2020-05-21T12:14:57Z</time><name>PT8391</name></trkpt>
<trkpt lat="53.392599" lon="-1.645939"><ele>387</ele><time>2020-05-21T12:14:57Z</time><name>PT8392</name></trkpt>
<trkpt lat="53.392604" lon="-1.645964"><ele>387</ele><time>2020-05-21T12:14:58Z</time><name>PT8393</name></trkpt>
<trkpt lat="53.392606" lon="-1.645987"><ele>387</ele><time>2020-05-21T12:15:00Z</time><name>PT8394</name></trkpt>
<trkpt lat="53.392608" lon="-1.646002"><ele>387</ele><time>2020-05-21T12:15:00Z</time><name>PT8395</name></trkpt>
<trkpt lat="53.392609" lon="-1.646017"><ele>387</ele><time>2020-05-21T12:15:01Z</time><name>PT8396</name></trkpt>
<trkpt lat="53.392612" lon="-1.646037"><ele>387</ele><time>2020-05-21T12:15:03Z</time><name>PT8397</name></trkpt>
<trkpt lat="53.392614" lon="-1.646067"><ele>387</ele><time>2020-05-21T12:15:03Z</time><name>PT8398</name></trkpt>
<trkpt lat="53.392617" lon="-1.646094"><ele>387</ele><time>2020-05-21T12:15:04Z</time><name>PT8399</name></trkpt>
<trkpt lat="53.392620" lon="-1.646112"><ele>387</ele><time>2020-05-21T12:15:06Z</time><name>PT8400</name></trkpt>
<trkpt lat="53.392621" lon="-1.646129"><ele>387</ele><time>2020-05-21T12:15:06Z</time><name>PT8401</name></trkpt>
<trkpt lat="53.392620" lon="-1.646153"><ele>387</ele><time>2020-05-21T12:15:07Z</time><name>PT8402</name></trkpt>
<trkpt lat="53.392619" lon="-1.646181"><ele>387</ele><time>2020-05-21T12:15:09Z</time><name>PT8403</name></trkpt>
<trkpt lat="53.392618" lon="-1.646209"><ele>388</ele><time>2020-05-21T12:15:09Z</time><name>PT8404</name></trkpt>
<trkpt lat="53.392619" lon="-1.646235"><ele>388</ele><time>2020-05-21T12:15:10Z</time><name>PT8405</name></trkpt>
<trkpt lat="53.392620" lon="-1.646253"><ele>388</ele><time>2020-05-21T12:15:12Z</time><name>PT8406</name></trkpt>
<trkpt lat="53.392619" lon="-1.646268"><ele>387</ele><time>2020-05-21T12:15:12Z</time><name>PT8407</name></trkpt>
<trkpt lat="53.392620" lon="-1.646284"><ele>387</ele><time>2020-05-21T12:15:13Z</time><name>PT8408</name></trkpt>
<trkpt lat="53.392621" lon="-1.646307"><ele>387</ele><time>2020-05-21T12:15:15Z</time><name>PT8409</name></trkpt>
<trkpt lat="53.392622" lon="-1.646332"><ele>387</ele><time>2020-05-21T12:15:15Z</time><name>PT8410</name></trkpt>
<trkpt lat="53.392624" lon="-1.646355"><ele>387</ele><time>2020-05-21T12:15:16Z</time><name>PT8411</name></trkpt>
<trkpt lat="53.392626" lon="-1.646379"><ele>386</ele><time>2020-05-21T12:15:18Z</time><name>PT8412</name></trkpt>
<trkpt lat="53.392628" lon="-1.646403"><ele>386</ele><time>2020-05-21T12:15:18Z</time><name>PT8413</name></trkpt>
<trkpt lat="53.392629" lon="-1.646418"><ele>386</ele><time>2020-05-21T12:15:19Z</time><name>PT8414</name></trkpt>
<trkpt lat="53.392636" lon="-1.646429"><ele>387</ele><time>2020-05-21T12:15:21Z</time><name>PT8415</name></trkpt>
<trkpt lat="53.392638" lon="-1.646449"><ele>386</ele><time>2020-05-21T12:15:21Z</time><name>PT8416</name></trkpt>
<trkpt lat="53.392640" lon="-1.646472"><ele>386</ele><time>2020-05-21T12:15:22Z</time><name>PT8417</name></trkpt>
<trkpt lat="53.392643" lon="-1.646498"><ele>386</ele><time>2020-05-21T12:15:24Z</time><name>PT8418</name></trkpt>
<trkpt lat="53.392644" lon="-1.646527"><ele>386</ele><time>2020-05-21T12:15:24Z</time><name>PT8419</name></trkpt>
<trkpt lat="53.392646" lon="-1.646544"><ele>385</ele><time>2020-05-21T12:15:25Z</time><name>PT8420</name></trkpt>
<trkpt lat="53.392648" lon="-1.646557"><ele>385</ele><time>2020-05-21T12:15:27Z</time><name>PT8421</name></trkpt>
<trkpt lat="53.392651" lon="-1.646572"><ele>385</ele><time>2020-05-21T12:15:27Z</time><name>PT8422</name></trkpt>
<trkpt lat="53.392652" lon="-1.646592"><ele>385</ele><time>2020-05-21T12:15:28Z</time><name>PT8423</name></trkpt>
<trkpt lat="53.392654" lon="-1.646619"><ele>385</ele><time>2020-05-21T12:15:30Z</time><name>PT8424</name></trkpt>
<trkpt lat="53.392657" lon="-1.646648"><ele>385</ele><time>2020-05-21T12:15:30Z</time><name>PT8425</name></trkpt>
<trkpt lat="53.392659" lon="-1.646665"><ele>385</ele><time>2020-05-21T12:15:31Z</time><name>PT8426</name></trkpt>
<trkpt lat="53.392658" lon="-1.646680"><ele>385</ele><time>2020-05-21T12:15:33Z</time><name>PT8427</name></trkpt>
<trkpt lat="53.392657" lon="-1.646704"><ele>385</ele><time>2020-05-21T12:15:33Z</time><name>PT8428</name></trkpt>
<trkpt lat="53.392658" lon="-1.646730"><ele>385</ele><time>2020-05-21T12:15:34Z</time><name>PT8429</name></trkpt>
<trkpt lat="53.392662" lon="-1.646757"><ele>385</ele><time>2020-05-21T12:15:36Z</time><name>PT8430</name></trkpt>
<trkpt lat="53.392664" lon="-1.646783"><ele>385</ele><time>2020-05-21T12:15:36Z</time><name>PT8431</name></trkpt>
<trkpt lat="53.392666" lon="-1.646802"><ele>386</ele><time>2020-05-21T12:15:37Z</time><name>PT8432</name></trkpt>
<trkpt lat="53.392666" lon="-1.646822"><ele>386</ele><time>2020-05-21T12:15:39Z</time><name>PT8433</name></trkpt>
<trkpt lat="53.392667" lon="-1.646846"><ele>386</ele><time>2020-05-21T12:15:39Z</time><name>PT8434</name></trkpt>
<trkpt lat="53.392667" lon="-1.646872"><ele>386</ele><time>2020-05-21T12:15:40Z</time><name>PT8435</name></trkpt>
<trkpt lat="53.392670" lon="-1.646899"><ele>386</ele><time>2020-05-21T12:15:42Z</time><name>PT8436</name></trkpt>
<trkpt lat="53.392672" lon="-1.646925"><ele>387</ele><time>2020-05-21T12:15:42Z</time><name>PT8437</name></trkpt>
<trkpt lat="53.392674" lon="-1.646940"><ele>387</ele><time>2020-05-21T12:15:43Z</time><name>PT8438</name></trkpt>
<trkpt lat="53.392677" lon="-1.646956"><ele>387</ele><time>2020-05-21T12:15:45Z</time><name>PT8439</name></trkpt>
<trkpt lat="53.392680" lon="-1.646976"><ele>387</ele><time>2020-05-21T12:15:45Z</time><name>PT8440</name></trkpt>
<trkpt lat="53.392683" lon="-1.646999"><ele>387</ele><time>2020-05-21T12:15:46Z</time><name>PT8441</name></trkpt>
<trkpt lat="53.392685" lon="-1.647026"><ele>386</ele><time>2020-05-21T12:15:48Z</time><name>PT8442</name></trkpt>
<trkpt lat="53.392684" lon="-1.647049"><ele>386</ele><time>2020-05-21T12:15:48Z</time><name>PT8443</name></trkpt>
<trkpt lat="53.392686" lon="-1.647063"><ele>386</ele><time>2020-05-21T12:15:49Z</time><name>PT8444</name></trkpt>
<trkpt lat="53.392683" lon="-1.647078"><ele>385</ele><time>2020-05-21T12:15:51Z</time><name>PT8445</name></trkpt>
<trkpt lat="53.392683" lon="-1.647102"><ele>385</ele><time>2020-05-21T12:15:51Z</time><name>PT8446</name></trkpt>
<trkpt lat="53.392685" lon="-1.647129"><ele>385</ele><time>2020-05-21T12:15:52Z</time><name>PT8447</name></trkpt>
<trkpt lat="53.392687" lon="-1.647155"><ele>386</ele><time>2020-05-21T12:15:54Z</time><name>PT8448</name></trkpt>
<trkpt lat="53.392687" lon="-1.647175"><ele>386</ele><time>2020-05-21T12:15:54Z</time><name>PT8449</name></trkpt>
<trkpt lat="53.392688" lon="-1.647186"><ele>386</ele><time>2020-05-21T12:15:55Z</time><name>PT8450</name></trkpt>
<trkpt lat="53.392691" lon="-1.647204"><ele>386</ele><time>2020-05-21T12:15:57Z</time><name>PT8451</name></trkpt>
<trkpt lat="53.392691" lon="-1.647227"><ele>385</ele><time>2020-05-21T12:15:57Z</time><name>PT8452</name></trkpt>
<trkpt lat="53.392688" lon="-1.647254"><ele>385</ele><time>2020-05-21T12:15:58Z</time><name>PT8453</name></trkpt>
<trkpt lat="53.392690" lon="-1.647281"><ele>385</ele><time>2020-05-21T12:16:00Z</time><name>PT8454</name></trkpt>
<trkpt lat="53.392689" lon="-1.647296"><ele>384</ele><time>2020-05-21T12:16:00Z</time><name>PT8455</name></trkpt>
<trkpt lat="53.392688" lon="-1.647307"><ele>384</ele><time>2020-05-21T12:16:01Z</time><name>PT8456</name></trkpt>
<trkpt lat="53.392685" lon="-1.647324"><ele>384</ele><time>2020-05-21T12:16:03Z</time><name>PT8457</name></trkpt>
<trkpt lat="53.392687" lon="-1.647345"><ele>384</ele><time>2020-05-21T12:16:03Z</time><name>PT8458</name></trkpt>
<trkpt lat="53.392689" lon="-1.647357"><ele>384</ele><time>2020-05-21T12:16:04Z</time><name>PT8459</name></trkpt>
<trkpt lat="53.392693" lon="-1.647367"><ele>384</ele><time>2020-05-21T12:16:06Z</time><name>PT8460</name></trkpt>
<trkpt lat="53.392695" lon="-1.647372"><ele>384</ele><time>2020-05-21T12:16:06Z</time><name>PT8461</name></trkpt>
<trkpt lat="53.392694" lon="-1.647373"><ele>384</ele><time>2020-05-21T12:16:07Z</time><name>PT8462</name></trkpt>
<trkpt lat="53.392693" lon="-1.647376"><ele>383</ele><time>2020-05-21T12:16:09Z</time><name>PT8463</name></trkpt>
<trkpt lat="53.392698" lon="-1.647374"><ele>383</ele><time>2020-05-21T12:16:09Z</time><name>PT8464</name></trkpt>
<trkpt lat="53.392699" lon="-1.647374"><ele>383</ele><time>2020-05-21T12:16:10Z</time><name>PT8465</name></trkpt>
<trkpt lat="53.392699" lon="-1.647376"><ele>383</ele><time>2020-05-21T12:16:12Z</time><name>PT8466</name></trkpt>
<trkpt lat="53.392696" lon="-1.647383"><ele>383</ele><time>2020-05-21T12:16:12Z</time><name>PT8467</name></trkpt>
<trkpt lat="53.392694" lon="-1.647388"><ele>383</ele><time>2020-05-21T12:16:13Z</time><name>PT8468</name></trkpt>
<trkpt lat="53.392695" lon="-1.647392"><ele>383</ele><time>2020-05-21T12:16:15Z</time><name>PT8469</name></trkpt>
<trkpt lat="53.392694" lon="-1.647395"><ele>382</ele><time>2020-05-21T12:16:15Z</time><name>PT8470</name></trkpt>
<trkpt lat="53.392694" lon="-1.647398"><ele>382</ele><time>2020-05-21T12:16:16Z</time><name>PT8471</name></trkpt>
<trkpt lat="53.392698" lon="-1.647405"><ele>382</ele><time>2020-05-21T12:16:18Z</time><name>PT8472</name></trkpt>
<trkpt lat="53.392699" lon="-1.647419"><ele>382</ele><time>2020-05-21T12:16:18Z</time><name>PT8473</name></trkpt>
<trkpt lat="53.392696" lon="-1.647434"><ele>383</ele><time>2020-05-21T12:16:19Z</time><name>PT8474</name></trkpt>
<trkpt lat="53.392690" lon="-1.647450"><ele>383</ele><time>2020-05-21T12:16:21Z</time><name>PT8475</name></trkpt>
<trkpt lat="53.392691" lon="-1.647476"><ele>383</ele><time>2020-05-21T12:16:21Z</time><name>PT8476</name></trkpt>
<trkpt lat="53.392690" lon="-1.647504"><ele>383</ele><time>2020-05-21T12:16:22Z</time><name>PT8477</name></trkpt>
<trkpt lat="53.392689" lon="-1.647532"><ele>382</ele><time>2020-05-21T12:16:24Z</time><name>PT8478</name></trkpt>
<trkpt lat="53.392687" lon="-1.647553"><ele>383</ele><time>2020-05-21T12:16:24Z</time><name>PT8479</name></trkpt>
<trkpt lat="53.392685" lon="-1.647569"><ele>383</ele><time>2020-05-21T12:16:25Z</time><name>PT8480</name></trkpt>
<trkpt lat="53.392683" lon="-1.647591"><ele>382</ele><time>2020-05-21T12:16:27Z</time><name>PT8481</name></trkpt>
<trkpt lat="53.392682" lon="-1.647618"><ele>382</ele><time>2020-05-21T12:16:27Z</time><name>PT8482</name></trkpt>
<trkpt lat="53.392680" lon="-1.647642"><ele>382</ele><time>2020-05-21T12:16:28Z</time><name>PT8483</name></trkpt>
<trkpt lat="53.392677" lon="-1.647671"><ele>382</ele><time>2020-05-21T12:16:30Z</time><name>PT8484</name></trkpt>
<trkpt lat="53.392677" lon="-1.647699"><ele>382</ele><time>2020-05-21T12:16:30Z</time><name>PT8485</name></trkpt>
<trkpt lat="53.392675" lon="-1.647715"><ele>382</ele><time>2020-05-21T12:16:31Z</time><name>PT8486</name></trkpt>
<trkpt lat="53.392676" lon="-1.647730"><ele>382</ele><time>2020-05-21T12:16:33Z</time><name>PT8487</name></trkpt>
<trkpt lat="53.392675" lon="-1.647752"><ele>382</ele><time>2020-05-21T12:16:33Z</time><name>PT8488</name></trkpt>
<trkpt lat="53.392674" lon="-1.647777"><ele>383</ele><time>2020-05-21T12:16:34Z</time><name>PT8489</name></trkpt>
<trkpt lat="53.392672" lon="-1.647802"><ele>383</ele><time>2020-05-21T12:16:36Z</time><name>PT8490</name></trkpt>
<trkpt lat="53.392667" lon="-1.647827"><ele>382</ele><time>2020-05-21T12:16:36Z</time><name>PT8491</name></trkpt>
<trkpt lat="53.392665" lon="-1.647842"><ele>382</ele><time>2020-05-21T12:16:37Z</time><name>PT8492</name></trkpt>
<trkpt lat="53.392663" lon="-1.647859"><ele>381</ele><time>2020-05-21T12:16:39Z</time><name>PT8493</name></trkpt>
<trkpt lat="53.392659" lon="-1.647880"><ele>381</ele><time>2020-05-21T12:16:39Z</time><name>PT8494</name></trkpt>
<trkpt lat="53.392653" lon="-1.647904"><ele>381</ele><time>2020-05-21T12:16:40Z</time><name>PT8495</name></trkpt>
<trkpt lat="53.392650" lon="-1.647931"><ele>382</ele><time>2020-05-21T12:16:42Z</time><name>PT8496</name></trkpt>
<trkpt lat="53.392649" lon="-1.647951"><ele>382</ele><time>2020-05-21T12:16:42Z</time><name>PT8497</name></trkpt>
<trkpt lat="53.392647" lon="-1.647964"><ele>382</ele><time>2020-05-21T12:16:43Z</time><name>PT8498</name></trkpt>
<trkpt lat="53.392643" lon="-1.647984"><ele>382</ele><time>2020-05-21T12:16:45Z</time><name>PT8499</name></trkpt>
<trkpt lat="53.392639" lon="-1.648006"><ele>382</ele><time>2020-05-21T12:16:45Z</time><name>PT8500</name></trkpt>
<trkpt lat="53.392636" lon="-1.648032"><ele>382</ele><time>2020-05-21T12:16:46Z</time><name>PT8501</name></trkpt>
<trkpt lat="53.392636" lon="-1.648057"><ele>382</ele><time>2020-05-21T12:16:48Z</time><name>PT8502</name></trkpt>
<trkpt lat="53.392634" lon="-1.648071"><ele>383</ele><time>2020-05-21T12:16:48Z</time><name>PT8503</name></trkpt>
<trkpt lat="53.392635" lon="-1.648085"><ele>383</ele><time>2020-05-21T12:16:49Z</time><name>PT8504</name></trkpt>
<trkpt lat="53.392634" lon="-1.648106"><ele>383</ele><time>2020-05-21T12:16:51Z</time><name>PT8505</name></trkpt>
<trkpt lat="53.392631" lon="-1.648132"><ele>384</ele><time>2020-05-21T12:16:51Z</time><name>PT8506</name></trkpt>
<trkpt lat="53.392629" lon="-1.648159"><ele>384</ele><time>2020-05-21T12:16:52Z</time><name>PT8507</name></trkpt>
<trkpt lat="53.392626" lon="-1.648180"><ele>384</ele><time>2020-05-21T12:16:54Z</time><name>PT8508</name></trkpt>
<trkpt lat="53.392624" lon="-1.648193"><ele>384</ele><time>2020-05-21T12:16:54Z</time><name>PT8509</name></trkpt>
<trkpt lat="53.392619" lon="-1.648212"><ele>384</ele><time>2020-05-21T12:16:55Z</time><name>PT8510</name></trkpt>
<trkpt lat="53.392611" lon="-1.648228"><ele>383</ele><time>2020-05-21T12:16:57Z</time><name>PT8511</name></trkpt>
<trkpt lat="53.392604" lon="-1.648246"><ele>383</ele><time>2020-05-21T12:16:57Z</time><name>PT8512</name></trkpt>
<trkpt lat="53.392599" lon="-1.648269"><ele>383</ele><time>2020-05-21T12:16:58Z</time><name>PT8513</name></trkpt>
<trkpt lat="53.392595" lon="-1.648286"><ele>383</ele><time>2020-05-21T12:17:00Z</time><name>PT8514</name></trkpt>
<trkpt lat="53.392594" lon="-1.648303"><ele>384</ele><time>2020-05-21T12:17:00Z</time><name>PT8515</name></trkpt>
<trkpt lat="53.392593" lon="-1.648323"><ele>384</ele><time>2020-05-21T12:17:01Z</time><name>PT8516</name></trkpt>
<trkpt lat="53.392589" lon="-1.648348"><ele>383</ele><time>2020-05-21T12:17:03Z</time><name>PT8517</name></trkpt>
<trkpt lat="53.392586" lon="-1.648374"><ele>384</ele><time>2020-05-21T12:17:03Z</time><name>PT8518</name></trkpt>
<trkpt lat="53.392581" lon="-1.648397"><ele>384</ele><time>2020-05-21T12:17:04Z</time><name>PT8519</name></trkpt>
<trkpt lat="53.392579" lon="-1.648413"><ele>384</ele><time>2020-05-21T12:17:06Z</time><name>PT8520</name></trkpt>
<trkpt lat="53.392578" lon="-1.648430"><ele>384</ele><time>2020-05-21T12:17:06Z</time><name>PT8521</name></trkpt>
<trkpt lat="53.392577" lon="-1.648449"><ele>384</ele><time>2020-05-21T12:17:07Z</time><name>PT8522</name></trkpt>
<trkpt lat="53.392576" lon="-1.648471"><ele>384</ele><time>2020-05-21T12:17:09Z</time><name>PT8523</name></trkpt>
<trkpt lat="53.392575" lon="-1.648497"><ele>385</ele><time>2020-05-21T12:17:09Z</time><name>PT8524</name></trkpt>
<trkpt lat="53.392572" lon="-1.648521"><ele>385</ele><time>2020-05-21T12:17:10Z</time><name>PT8525</name></trkpt>
<trkpt lat="53.392570" lon="-1.648536"><ele>385</ele><time>2020-05-21T12:17:12Z</time><name>PT8526</name></trkpt>
<trkpt lat="53.392570" lon="-1.648552"><ele>384</ele><time>2020-05-21T12:17:12Z</time><name>PT8527</name></trkpt>
<trkpt lat="53.392569" lon="-1.648574"><ele>385</ele><time>2020-05-21T12:17:13Z</time><name>PT8528</name></trkpt>
<trkpt lat="53.392567" lon="-1.648598"><ele>385</ele><time>2020-05-21T12:17:15Z</time><name>PT8529</name></trkpt>
<trkpt lat="53.392566" lon="-1.648625"><ele>385</ele><time>2020-05-21T12:17:15Z</time><name>PT8530</name></trkpt>
<trkpt lat="53.392564" lon="-1.648648"><ele>386</ele><time>2020-05-21T12:17:16Z</time><name>PT8531</name></trkpt>
<trkpt lat="53.392561" lon="-1.648662"><ele>385</ele><time>2020-05-21T12:17:18Z</time><name>PT8532</name></trkpt>
<trkpt lat="53.392558" lon="-1.648678"><ele>385</ele><time>2020-05-21T12:17:18Z</time><name>PT8533</name></trkpt>
<trkpt lat="53.392554" lon="-1.648699"><ele>385</ele><time>2020-05-21T12:17:19Z</time><name>PT8534</name></trkpt>
<trkpt lat="53.392549" lon="-1.648727"><ele>385</ele><time>2020-05-21T12:17:21Z</time><name>PT8535</name></trkpt>
<trkpt lat="53.392546" lon="-1.648754"><ele>385</ele><time>2020-05-21T12:17:21Z</time><name>PT8536</name></trkpt>
<trkpt lat="53.392544" lon="-1.648772"><ele>385</ele><time>2020-05-21T12:17:22Z</time><name>PT8537</name></trkpt>
<trkpt lat="53.392542" lon="-1.648782"><ele>385</ele><time>2020-05-21T12:17:24Z</time><name>PT8538</name></trkpt>
<trkpt lat="53.392541" lon="-1.648800"><ele>385</ele><time>2020-05-21T12:17:24Z</time><name>PT8539</name></trkpt>
<trkpt lat="53.392538" lon="-1.648817"><ele>385</ele><time>2020-05-21T12:17:25Z</time><name>PT8540</name></trkpt>
<trkpt lat="53.392538" lon="-1.648825"><ele>385</ele><time>2020-05-21T12:17:27Z</time><name>PT8541</name></trkpt>
<trkpt lat="53.392543" lon="-1.648834"><ele>385</ele><time>2020-05-21T12:17:27Z</time><name>PT8542</name></trkpt>
<trkpt lat="53.392548" lon="-1.648844"><ele>384</ele><time>2020-05-21T12:17:28Z</time><name>PT8543</name></trkpt>
<trkpt lat="53.392556" lon="-1.648852"><ele>384</ele><time>2020-05-21T12:17:30Z</time><name>PT8544</name></trkpt>
<trkpt lat="53.392563" lon="-1.648857"><ele>384</ele><time>2020-05-21T12:17:30Z</time><name>PT8545</name></trkpt>
<trkpt lat="53.392565" lon="-1.648859"><ele>384</ele><time>2020-05-21T12:17:31Z</time><name>PT8546</name></trkpt>
<trkpt lat="53.392566" lon="-1.648860"><ele>384</ele><time>2020-05-21T12:17:33Z</time><name>PT8547</name></trkpt>
<trkpt lat="53.392566" lon="-1.648861"><ele>384</ele><time>2020-05-21T12:17:33Z</time><name>PT8548</name></trkpt>
<trkpt lat="53.392564" lon="-1.648865"><ele>384</ele><time>2020-05-21T12:18:15Z</time><name>PT8549</name></trkpt>
<trkpt lat="53.392558" lon="-1.648861"><ele>384</ele><time>2020-05-21T12:18:16Z</time><name>PT8550</name></trkpt>
<trkpt lat="53.392547" lon="-1.648859"><ele>384</ele><time>2020-05-21T12:18:17Z</time><name>PT8551</name></trkpt>
<trkpt lat="53.392539" lon="-1.648860"><ele>383</ele><time>2020-05-21T12:18:19Z</time><name>PT8552</name></trkpt>
<trkpt lat="53.392537" lon="-1.648864"><ele>384</ele><time>2020-05-21T12:18:19Z</time><name>PT8553</name></trkpt>
<trkpt lat="53.392532" lon="-1.648874"><ele>384</ele><time>2020-05-21T12:18:20Z</time><name>PT8554</name></trkpt>
<trkpt lat="53.392527" lon="-1.648890"><ele>384</ele><time>2020-05-21T12:18:22Z</time><name>PT8555</name></trkpt>
<trkpt lat="53.392524" lon="-1.648908"><ele>384</ele><time>2020-05-21T12:18:22Z</time><name>PT8556</name></trkpt>
<trkpt lat="53.392521" lon="-1.648920"><ele>384</ele><time>2020-05-21T12:18:23Z</time><name>PT8557</name></trkpt>
<trkpt lat="53.392522" lon="-1.648933"><ele>384</ele><time>2020-05-21T12:18:25Z</time><name>PT8558</name></trkpt>
<trkpt lat="53.392522" lon="-1.648954"><ele>384</ele><time>2020-05-21T12:18:25Z</time><name>PT8559</name></trkpt>
<trkpt lat="53.392518" lon="-1.648976"><ele>384</ele><time>2020-05-21T12:18:26Z</time><name>PT8560</name></trkpt>
<trkpt lat="53.392511" lon="-1.649003"><ele>383</ele><time>2020-05-21T12:18:28Z</time><name>PT8561</name></trkpt>
<trkpt lat="53.392503" lon="-1.649025"><ele>384</ele><time>2020-05-21T12:18:28Z</time><name>PT8562</name></trkpt>
<trkpt lat="53.392501" lon="-1.649043"><ele>384</ele><time>2020-05-21T12:18:29Z</time><name>PT8563</name></trkpt>
<trkpt lat="53.392498" lon="-1.649057"><ele>383</ele><time>2020-05-21T12:18:31Z</time><name>PT8564</name></trkpt>
<trkpt lat="53.392494" lon="-1.649078"><ele>383</ele><time>2020-05-21T12:18:31Z</time><name>PT8565</name></trkpt>
<trkpt lat="53.392489" lon="-1.649102"><ele>383</ele><time>2020-05-21T12:18:32Z</time><name>PT8566</name></trkpt>
<trkpt lat="53.392484" lon="-1.649126"><ele>383</ele><time>2020-05-21T12:18:34Z</time><name>PT8567</name></trkpt>
<trkpt lat="53.392479" lon="-1.649154"><ele>383</ele><time>2020-05-21T12:18:34Z</time><name>PT8568</name></trkpt>
<trkpt lat="53.392473" lon="-1.649178"><ele>383</ele><time>2020-05-21T12:18:35Z</time><name>PT8569</name></trkpt>
<trkpt lat="53.392469" lon="-1.649192"><ele>383</ele><time>2020-05-21T12:18:37Z</time><name>PT8570</name></trkpt>
<trkpt lat="53.392466" lon="-1.649208"><ele>383</ele><time>2020-05-21T12:18:37Z</time><name>PT8571</name></trkpt>
<trkpt lat="53.392462" lon="-1.649226"><ele>383</ele><time>2020-05-21T12:18:38Z</time><name>PT8572</name></trkpt>
<trkpt lat="53.392458" lon="-1.649247"><ele>383</ele><time>2020-05-21T12:18:40Z</time><name>PT8573</name></trkpt>
<trkpt lat="53.392449" lon="-1.649269"><ele>383</ele><time>2020-05-21T12:18:40Z</time><name>PT8574</name></trkpt>
<trkpt lat="53.392442" lon="-1.649291"><ele>383</ele><time>2020-05-21T12:18:41Z</time><name>PT8575</name></trkpt>
<trkpt lat="53.392437" lon="-1.649309"><ele>383</ele><time>2020-05-21T12:18:43Z</time><name>PT8576</name></trkpt>
<trkpt lat="53.392432" lon="-1.649324"><ele>383</ele><time>2020-05-21T12:18:43Z</time><name>PT8577</name></trkpt>
<trkpt lat="53.392429" lon="-1.649340"><ele>384</ele><time>2020-05-21T12:18:44Z</time><name>PT8578</name></trkpt>
<trkpt lat="53.392425" lon="-1.649363"><ele>384</ele><time>2020-05-21T12:18:46Z</time><name>PT8579</name></trkpt>
<trkpt lat="53.392420" lon="-1.649382"><ele>383</ele><time>2020-05-21T12:18:46Z</time><name>PT8580</name></trkpt>
<trkpt lat="53.392414" lon="-1.649408"><ele>383</ele><time>2020-05-21T12:18:47Z</time><name>PT8581</name></trkpt>
<trkpt lat="53.392406" lon="-1.649432"><ele>383</ele><time>2020-05-21T12:18:49Z</time><name>PT8582</name></trkpt>
<trkpt lat="53.392399" lon="-1.649455"><ele>383</ele><time>2020-05-21T12:18:49Z</time><name>PT8583</name></trkpt>
<trkpt lat="53.392395" lon="-1.649470"><ele>383</ele><time>2020-05-21T12:18:50Z</time><name>PT8584</name></trkpt>
<trkpt lat="53.392392" lon="-1.649483"><ele>383</ele><time>2020-05-21T12:18:52Z</time><name>PT8585</name></trkpt>
<trkpt lat="53.392385" lon="-1.649499"><ele>383</ele><time>2020-05-21T12:18:52Z</time><name>PT8586</name></trkpt>
<trkpt lat="53.392379" lon="-1.649520"><ele>383</ele><time>2020-05-21T12:18:53Z</time><name>PT8587</name></trkpt>
<trkpt lat="53.392371" lon="-1.649541"><ele>383</ele><time>2020-05-21T12:18:55Z</time><name>PT8588</name></trkpt>
<trkpt lat="53.392366" lon="-1.649566"><ele>384</ele><time>2020-05-21T12:18:55Z</time><name>PT8589</name></trkpt>
<trkpt lat="53.392360" lon="-1.649591"><ele>384</ele><time>2020-05-21T12:18:56Z</time><name>PT8590</name></trkpt>
<trkpt lat="53.392353" lon="-1.649612"><ele>384</ele><time>2020-05-21T12:18:58Z</time><name>PT8591</name></trkpt>
<trkpt lat="53.392347" lon="-1.649635"><ele>384</ele><time>2020-05-21T12:18:58Z</time><name>PT8592</name></trkpt>
<trkpt lat="53.392341" lon="-1.649658"><ele>383</ele><time>2020-05-21T12:18:59Z</time><name>PT8593</name></trkpt>
<trkpt lat="53.392333" lon="-1.649683"><ele>383</ele><time>2020-05-21T12:19:01Z</time><name>PT8594</name></trkpt>
<trkpt lat="53.392327" lon="-1.649706"><ele>383</ele><time>2020-05-21T12:19:01Z</time><name>PT8595</name></trkpt>
<trkpt lat="53.392326" lon="-1.649724"><ele>383</ele><time>2020-05-21T12:19:02Z</time><name>PT8596</name></trkpt>
<trkpt lat="53.392321" lon="-1.649741"><ele>383</ele><time>2020-05-21T12:19:04Z</time><name>PT8597</name></trkpt>
<trkpt lat="53.392315" lon="-1.649761"><ele>382</ele><time>2020-05-21T12:19:04Z</time><name>PT8598</name></trkpt>
<trkpt lat="53.392311" lon="-1.649774"><ele>383</ele><time>2020-05-21T12:19:05Z</time><name>PT8599</name></trkpt>
<trkpt lat="53.392305" lon="-1.649786"><ele>383</ele><time>2020-05-21T12:19:06Z</time><name>PT8600</name></trkpt>
<trkpt lat="53.392299" lon="-1.649800"><ele>383</ele><time>2020-05-21T12:19:07Z</time><name>PT8601</name></trkpt>
<trkpt lat="53.392288" lon="-1.649818"><ele>383</ele><time>2020-05-21T12:19:09Z</time><name>PT8602</name></trkpt>
<trkpt lat="53.392281" lon="-1.649842"><ele>383</ele><time>2020-05-21T12:19:09Z</time><name>PT8603</name></trkpt>
<trkpt lat="53.392274" lon="-1.649864"><ele>383</ele><time>2020-05-21T12:19:10Z</time><name>PT8604</name></trkpt>
<trkpt lat="53.392266" lon="-1.649882"><ele>383</ele><time>2020-05-21T12:19:12Z</time><name>PT8605</name></trkpt>
<trkpt lat="53.392263" lon="-1.649898"><ele>383</ele><time>2020-05-21T12:19:12Z</time><name>PT8606</name></trkpt>
<trkpt lat="53.392256" lon="-1.649911"><ele>383</ele><time>2020-05-21T12:19:13Z</time><name>PT8607</name></trkpt>
<trkpt lat="53.392248" lon="-1.649923"><ele>383</ele><time>2020-05-21T12:19:15Z</time><name>PT8608</name></trkpt>
<trkpt lat="53.392243" lon="-1.649942"><ele>383</ele><time>2020-05-21T12:19:15Z</time><name>PT8609</name></trkpt>
<trkpt lat="53.392236" lon="-1.649957"><ele>383</ele><time>2020-05-21T12:19:16Z</time><name>PT8610</name></trkpt>
<trkpt lat="53.392233" lon="-1.649962"><ele>384</ele><time>2020-05-21T12:19:18Z</time><name>PT8611</name></trkpt>
<trkpt lat="53.392231" lon="-1.649971"><ele>386</ele><time>2020-05-21T12:19:18Z</time><name>PT8612</name></trkpt>
<trkpt lat="53.392227" lon="-1.649988"><ele>385</ele><time>2020-05-21T12:19:19Z</time><name>PT8613</name></trkpt>
<trkpt lat="53.392223" lon="-1.650005"><ele>385</ele><time>2020-05-21T12:19:21Z</time><name>PT8614</name></trkpt>
<trkpt lat="53.392218" lon="-1.650020"><ele>385</ele><time>2020-05-21T12:19:21Z</time><name>PT8615</name></trkpt>
<trkpt lat="53.392213" lon="-1.650039"><ele>385</ele><time>2020-05-21T12:19:22Z</time><name>PT8616</name></trkpt>
<trkpt lat="53.392205" lon="-1.650059"><ele>386</ele><time>2020-05-21T12:19:24Z</time><name>PT8617</name></trkpt>
<trkpt lat="53.392192" lon="-1.650102"><ele>386</ele><time>2020-05-21T12:19:25Z</time><name>PT8618</name></trkpt>
<trkpt lat="53.392186" lon="-1.650124"><ele>385</ele><time>2020-05-21T12:19:27Z</time><name>PT8619</name></trkpt>
<trkpt lat="53.392178" lon="-1.650144"><ele>385</ele><time>2020-05-21T12:19:27Z</time><name>PT8620</name></trkpt>
<trkpt lat="53.392174" lon="-1.650160"><ele>385</ele><time>2020-05-21T12:19:28Z</time><name>PT8621</name></trkpt>
<trkpt lat="53.392170" lon="-1.650177"><ele>386</ele><time>2020-05-21T12:19:30Z</time><name>PT8622</name></trkpt>
<trkpt lat="53.392164" lon="-1.650200"><ele>386</ele><time>2020-05-21T12:19:30Z</time><name>PT8623</name></trkpt>
<trkpt lat="53.392156" lon="-1.650218"><ele>386</ele><time>2020-05-21T12:19:31Z</time><name>PT8624</name></trkpt>
<trkpt lat="53.392151" lon="-1.650235"><ele>386</ele><time>2020-05-21T12:19:32Z</time><name>PT8625</name></trkpt>
<trkpt lat="53.392148" lon="-1.650251"><ele>386</ele><time>2020-05-21T12:19:34Z</time><name>PT8626</name></trkpt>
<trkpt lat="53.392143" lon="-1.650271"><ele>385</ele><time>2020-05-21T12:19:34Z</time><name>PT8627</name></trkpt>
<trkpt lat="53.392139" lon="-1.650289"><ele>385</ele><time>2020-05-21T12:19:35Z</time><name>PT8628</name></trkpt>
<trkpt lat="53.392132" lon="-1.650312"><ele>384</ele><time>2020-05-21T12:19:37Z</time><name>PT8629</name></trkpt>
<trkpt lat="53.392125" lon="-1.650340"><ele>384</ele><time>2020-05-21T12:19:37Z</time><name>PT8630</name></trkpt>
<trkpt lat="53.392117" lon="-1.650364"><ele>384</ele><time>2020-05-21T12:19:39Z</time><name>PT8631</name></trkpt>
<trkpt lat="53.392111" lon="-1.650380"><ele>384</ele><time>2020-05-21T12:19:40Z</time><name>PT8632</name></trkpt>
<trkpt lat="53.392105" lon="-1.650395"><ele>384</ele><time>2020-05-21T12:19:40Z</time><name>PT8633</name></trkpt>
<trkpt lat="53.392098" lon="-1.650412"><ele>383</ele><time>2020-05-21T12:19:41Z</time><name>PT8634</name></trkpt>
<trkpt lat="53.392092" lon="-1.650429"><ele>383</ele><time>2020-05-21T12:19:43Z</time><name>PT8635</name></trkpt>
<trkpt lat="53.392088" lon="-1.650452"><ele>383</ele><time>2020-05-21T12:19:43Z</time><name>PT8636</name></trkpt>
<trkpt lat="53.392079" lon="-1.650476"><ele>383</ele><time>2020-05-21T12:19:44Z</time><name>PT8637</name></trkpt>
<trkpt lat="53.392070" lon="-1.650493"><ele>383</ele><time>2020-05-21T12:19:46Z</time><name>PT8638</name></trkpt>
<trkpt lat="53.392063" lon="-1.650508"><ele>383</ele><time>2020-05-21T12:19:46Z</time><name>PT8639</name></trkpt>
<trkpt lat="53.392057" lon="-1.650524"><ele>384</ele><time>2020-05-21T12:19:47Z</time><name>PT8640</name></trkpt>
<trkpt lat="53.392053" lon="-1.650545"><ele>384</ele><time>2020-05-21T12:19:49Z</time><name>PT8641</name></trkpt>
<trkpt lat="53.392049" lon="-1.650568"><ele>384</ele><time>2020-05-21T12:19:49Z</time><name>PT8642</name></trkpt>
<trkpt lat="53.392034" lon="-1.650616"><ele>384</ele><time>2020-05-21T12:19:52Z</time><name>PT8643</name></trkpt>
<trkpt lat="53.392024" lon="-1.650634"><ele>383</ele><time>2020-05-21T12:19:52Z</time><name>PT8644</name></trkpt>
<trkpt lat="53.392019" lon="-1.650650"><ele>384</ele><time>2020-05-21T12:19:54Z</time><name>PT8645</name></trkpt>
<trkpt lat="53.392015" lon="-1.650667"><ele>384</ele><time>2020-05-21T12:19:55Z</time><name>PT8646</name></trkpt>
<trkpt lat="53.392011" lon="-1.650683"><ele>384</ele><time>2020-05-21T12:19:55Z</time><name>PT8647</name></trkpt>
<trkpt lat="53.392007" lon="-1.650700"><ele>385</ele><time>2020-05-21T12:19:56Z</time><name>PT8648</name></trkpt>
<trkpt lat="53.392002" lon="-1.650720"><ele>385</ele><time>2020-05-21T12:19:58Z</time><name>PT8649</name></trkpt>
<trkpt lat="53.391996" lon="-1.650747"><ele>385</ele><time>2020-05-21T12:19:58Z</time><name>PT8650</name></trkpt>
<trkpt lat="53.391987" lon="-1.650769"><ele>386</ele><time>2020-05-21T12:19:59Z</time><name>PT8651</name></trkpt>
<trkpt lat="53.391981" lon="-1.650786"><ele>386</ele><time>2020-05-21T12:20:01Z</time><name>PT8652</name></trkpt>
<trkpt lat="53.391973" lon="-1.650804"><ele>385</ele><time>2020-05-21T12:20:01Z</time><name>PT8653</name></trkpt>
<trkpt lat="53.391967" lon="-1.650819"><ele>385</ele><time>2020-05-21T12:20:02Z</time><name>PT8654</name></trkpt>
<trkpt lat="53.391961" lon="-1.650834"><ele>385</ele><time>2020-05-21T12:20:04Z</time><name>PT8655</name></trkpt>
<trkpt lat="53.391954" lon="-1.650854"><ele>386</ele><time>2020-05-21T12:20:04Z</time><name>PT8656</name></trkpt>
<trkpt lat="53.391953" lon="-1.650870"><ele>387</ele><time>2020-05-21T12:20:05Z</time><name>PT8657</name></trkpt>
<trkpt lat="53.391943" lon="-1.650889"><ele>387</ele><time>2020-05-21T12:20:07Z</time><name>PT8658</name></trkpt>
<trkpt lat="53.391934" lon="-1.650906"><ele>387</ele><time>2020-05-21T12:20:07Z</time><name>PT8659</name></trkpt>
<trkpt lat="53.391928" lon="-1.650920"><ele>386</ele><time>2020-05-21T12:20:08Z</time><name>PT8660</name></trkpt>
<trkpt lat="53.391916" lon="-1.650938"><ele>385</ele><time>2020-05-21T12:20:10Z</time><name>PT8661</name></trkpt>
<trkpt lat="53.391908" lon="-1.650955"><ele>385</ele><time>2020-05-21T12:20:10Z</time><name>PT8662</name></trkpt>
<trkpt lat="53.391902" lon="-1.650974"><ele>385</ele><time>2020-05-21T12:20:11Z</time><name>PT8663</name></trkpt>
<trkpt lat="53.391893" lon="-1.650993"><ele>385</ele><time>2020-05-21T12:20:13Z</time><name>PT8664</name></trkpt>
<trkpt lat="53.391887" lon="-1.651011"><ele>385</ele><time>2020-05-21T12:20:13Z</time><name>PT8665</name></trkpt>
<trkpt lat="53.391880" lon="-1.651021"><ele>384</ele><time>2020-05-21T12:20:14Z</time><name>PT8666</name></trkpt>
<trkpt lat="53.391875" lon="-1.651031"><ele>384</ele><time>2020-05-21T12:20:16Z</time><name>PT8667</name></trkpt>
<trkpt lat="53.391869" lon="-1.651039"><ele>384</ele><time>2020-05-21T12:20:16Z</time><name>PT8668</name></trkpt>
<trkpt lat="53.391863" lon="-1.651055"><ele>384</ele><time>2020-05-21T12:20:17Z</time><name>PT8669</name></trkpt>
<trkpt lat="53.391856" lon="-1.651071"><ele>385</ele><time>2020-05-21T12:20:18Z</time><name>PT8670</name></trkpt>
<trkpt lat="53.391847" lon="-1.651092"><ele>385</ele><time>2020-05-21T12:20:19Z</time><name>PT8671</name></trkpt>
<trkpt lat="53.391845" lon="-1.651112"><ele>386</ele><time>2020-05-21T12:20:20Z</time><name>PT8672</name></trkpt>
<trkpt lat="53.391835" lon="-1.651126"><ele>386</ele><time>2020-05-21T12:20:22Z</time><name>PT8673</name></trkpt>
<trkpt lat="53.391827" lon="-1.651139"><ele>386</ele><time>2020-05-21T12:20:22Z</time><name>PT8674</name></trkpt>
<trkpt lat="53.391820" lon="-1.651153"><ele>386</ele><time>2020-05-21T12:20:23Z</time><name>PT8675</name></trkpt>
<trkpt lat="53.391812" lon="-1.651177"><ele>386</ele><time>2020-05-21T12:20:25Z</time><name>PT8676</name></trkpt>
<trkpt lat="53.391808" lon="-1.651207"><ele>386</ele><time>2020-05-21T12:20:25Z</time><name>PT8677</name></trkpt>
<trkpt lat="53.391800" lon="-1.651230"><ele>385</ele><time>2020-05-21T12:20:26Z</time><name>PT8678</name></trkpt>
<trkpt lat="53.391800" lon="-1.651249"><ele>385</ele><time>2020-05-21T12:20:28Z</time><name>PT8679</name></trkpt>
<trkpt lat="53.391800" lon="-1.651264"><ele>385</ele><time>2020-05-21T12:20:28Z</time><name>PT8680</name></trkpt>
<trkpt lat="53.391801" lon="-1.651275"><ele>386</ele><time>2020-05-21T12:20:29Z</time><name>PT8681</name></trkpt>
<trkpt lat="53.391795" lon="-1.651293"><ele>386</ele><time>2020-05-21T12:20:31Z</time><name>PT8682</name></trkpt>
<trkpt lat="53.391786" lon="-1.651314"><ele>387</ele><time>2020-05-21T12:20:31Z</time><name>PT8683</name></trkpt>
<trkpt lat="53.391776" lon="-1.651341"><ele>387</ele><time>2020-05-21T12:20:32Z</time><name>PT8684</name></trkpt>
<trkpt lat="53.391769" lon="-1.651359"><ele>386</ele><time>2020-05-21T12:20:34Z</time><name>PT8685</name></trkpt>
<trkpt lat="53.391765" lon="-1.651371"><ele>385</ele><time>2020-05-21T12:20:34Z</time><name>PT8686</name></trkpt>
<trkpt lat="53.391765" lon="-1.651382"><ele>385</ele><time>2020-05-21T12:20:35Z</time><name>PT8687</name></trkpt>
<trkpt lat="53.391756" lon="-1.651390"><ele>384</ele><time>2020-05-21T12:20:36Z</time><name>PT8688</name></trkpt>
<trkpt lat="53.391749" lon="-1.651399"><ele>384</ele><time>2020-05-21T12:20:37Z</time><name>PT8689</name></trkpt>
<trkpt lat="53.391741" lon="-1.651424"><ele>384</ele><time>2020-05-21T12:20:38Z</time><name>PT8690</name></trkpt>
<trkpt lat="53.391733" lon="-1.651446"><ele>385</ele><time>2020-05-21T12:20:40Z</time><name>PT8691</name></trkpt>
<trkpt lat="53.391726" lon="-1.651462"><ele>385</ele><time>2020-05-21T12:20:40Z</time><name>PT8692</name></trkpt>
<trkpt lat="53.391720" lon="-1.651476"><ele>385</ele><time>2020-05-21T12:20:41Z</time><name>PT8693</name></trkpt>
<trkpt lat="53.391713" lon="-1.651491"><ele>386</ele><time>2020-05-21T12:20:43Z</time><name>PT8694</name></trkpt>
<trkpt lat="53.391708" lon="-1.651504"><ele>386</ele><time>2020-05-21T12:20:43Z</time><name>PT8695</name></trkpt>
<trkpt lat="53.391705" lon="-1.651513"><ele>386</ele><time>2020-05-21T12:20:44Z</time><name>PT8696</name></trkpt>
<trkpt lat="53.391701" lon="-1.651531"><ele>388</ele><time>2020-05-21T12:20:46Z</time><name>PT8697</name></trkpt>
<trkpt lat="53.391691" lon="-1.651552"><ele>388</ele><time>2020-05-21T12:20:46Z</time><name>PT8698</name></trkpt>
<trkpt lat="53.391686" lon="-1.651568"><ele>388</ele><time>2020-05-21T12:20:47Z</time><name>PT8699</name></trkpt>
<trkpt lat="53.391677" lon="-1.651585"><ele>387</ele><time>2020-05-21T12:20:49Z</time><name>PT8700</name></trkpt>
<trkpt lat="53.391673" lon="-1.651598"><ele>388</ele><time>2020-05-21T12:20:49Z</time><name>PT8701</name></trkpt>
<trkpt lat="53.391667" lon="-1.651612"><ele>388</ele><time>2020-05-21T12:20:50Z</time><name>PT8702</name></trkpt>
<trkpt lat="53.391662" lon="-1.651632"><ele>389</ele><time>2020-05-21T12:20:52Z</time><name>PT8703</name></trkpt>
<trkpt lat="53.391656" lon="-1.651657"><ele>390</ele><time>2020-05-21T12:20:52Z</time><name>PT8704</name></trkpt>
<trkpt lat="53.391650" lon="-1.651677"><ele>390</ele><time>2020-05-21T12:20:53Z</time><name>PT8705</name></trkpt>
<trkpt lat="53.391638" lon="-1.651705"><ele>390</ele><time>2020-05-21T12:20:55Z</time><name>PT8706</name></trkpt>
<trkpt lat="53.391631" lon="-1.651718"><ele>391</ele><time>2020-05-21T12:20:55Z</time><name>PT8707</name></trkpt>
<trkpt lat="53.391628" lon="-1.651731"><ele>391</ele><time>2020-05-21T12:20:56Z</time><name>PT8708</name></trkpt>
<trkpt lat="53.391624" lon="-1.651752"><ele>392</ele><time>2020-05-21T12:20:58Z</time><name>PT8709</name></trkpt>
<trkpt lat="53.391618" lon="-1.651773"><ele>392</ele><time>2020-05-21T12:20:58Z</time><name>PT8710</name></trkpt>
<trkpt lat="53.391612" lon="-1.651794"><ele>393</ele><time>2020-05-21T12:20:59Z</time><name>PT8711</name></trkpt>
<trkpt lat="53.391605" lon="-1.651817"><ele>393</ele><time>2020-05-21T12:21:01Z</time><name>PT8712</name></trkpt>
<trkpt lat="53.391596" lon="-1.651835"><ele>393</ele><time>2020-05-21T12:21:01Z</time><name>PT8713</name></trkpt>
<trkpt lat="53.391590" lon="-1.651849"><ele>393</ele><time>2020-05-21T12:21:02Z</time><name>PT8714</name></trkpt>
<trkpt lat="53.391583" lon="-1.651862"><ele>393</ele><time>2020-05-21T12:21:04Z</time><name>PT8715</name></trkpt>
<trkpt lat="53.391581" lon="-1.651880"><ele>393</ele><time>2020-05-21T12:21:04Z</time><name>PT8716</name></trkpt>
<trkpt lat="53.391578" lon="-1.651892"><ele>393</ele><time>2020-05-21T12:21:05Z</time><name>PT8717</name></trkpt>
<trkpt lat="53.391573" lon="-1.651910"><ele>394</ele><time>2020-05-21T12:21:07Z</time><name>PT8718</name></trkpt>
<trkpt lat="53.391567" lon="-1.651925"><ele>394</ele><time>2020-05-21T12:21:07Z</time><name>PT8719</name></trkpt>
<trkpt lat="53.391561" lon="-1.651943"><ele>394</ele><time>2020-05-21T12:21:08Z</time><name>PT8720</name></trkpt>
<trkpt lat="53.391560" lon="-1.651949"><ele>394</ele><time>2020-05-21T12:21:10Z</time><name>PT8721</name></trkpt>
<trkpt lat="53.391559" lon="-1.651948"><ele>393</ele><time>2020-05-21T12:21:10Z</time><name>PT8722</name></trkpt>
<trkpt lat="53.391556" lon="-1.651950"><ele>393</ele><time>2020-05-21T12:21:11Z</time><name>PT8723</name></trkpt>
<trkpt lat="53.391552" lon="-1.651953"><ele>394</ele><time>2020-05-21T12:21:13Z</time><name>PT8724</name></trkpt>
<trkpt lat="53.391550" lon="-1.651958"><ele>394</ele><time>2020-05-21T12:21:13Z</time><name>PT8725</name></trkpt>
<trkpt lat="53.391551" lon="-1.651959"><ele>394</ele><time>2020-05-21T12:21:14Z</time><name>PT8726</name></trkpt>
<trkpt lat="53.391548" lon="-1.651964"><ele>394</ele><time>2020-05-21T12:21:15Z</time><name>PT8727</name></trkpt>
<trkpt lat="53.391538" lon="-1.651982"><ele>395</ele><time>2020-05-21T12:21:16Z</time><name>PT8728</name></trkpt>
<trkpt lat="53.391529" lon="-1.651996"><ele>396</ele><time>2020-05-21T12:21:17Z</time><name>PT8729</name></trkpt>
<trkpt lat="53.391520" lon="-1.652013"><ele>395</ele><time>2020-05-21T12:21:19Z</time><name>PT8730</name></trkpt>
<trkpt lat="53.391511" lon="-1.652025"><ele>395</ele><time>2020-05-21T12:21:19Z</time><name>PT8731</name></trkpt>
<trkpt lat="53.391497" lon="-1.652041"><ele>395</ele><time>2020-05-21T12:21:20Z</time><name>PT8732</name></trkpt>
<trkpt lat="53.391484" lon="-1.652058"><ele>396</ele><time>2020-05-21T12:21:22Z</time><name>PT8733</name></trkpt>
<trkpt lat="53.391474" lon="-1.652082"><ele>395</ele><time>2020-05-21T12:21:22Z</time><name>PT8734</name></trkpt>
<trkpt lat="53.391466" lon="-1.652102"><ele>394</ele><time>2020-05-21T12:21:23Z</time><name>PT8735</name></trkpt>
<trkpt lat="53.391462" lon="-1.652120"><ele>394</ele><time>2020-05-21T12:21:25Z</time><name>PT8736</name></trkpt>
<trkpt lat="53.391456" lon="-1.652136"><ele>393</ele><time>2020-05-21T12:21:25Z</time><name>PT8737</name></trkpt>
<trkpt lat="53.391450" lon="-1.652148"><ele>393</ele><time>2020-05-21T12:21:26Z</time><name>PT8738</name></trkpt>
<trkpt lat="53.391444" lon="-1.652164"><ele>394</ele><time>2020-05-21T12:21:28Z</time><name>PT8739</name></trkpt>
<trkpt lat="53.391438" lon="-1.652184"><ele>394</ele><time>2020-05-21T12:21:28Z</time><name>PT8740</name></trkpt>
<trkpt lat="53.391431" lon="-1.652199"><ele>394</ele><time>2020-05-21T12:21:29Z</time><name>PT8741</name></trkpt>
<trkpt lat="53.391428" lon="-1.652217"><ele>394</ele><time>2020-05-21T12:21:31Z</time><name>PT8742</name></trkpt>
<trkpt lat="53.391426" lon="-1.652244"><ele>395</ele><time>2020-05-21T12:21:31Z</time><name>PT8743</name></trkpt>
<trkpt lat="53.391422" lon="-1.652264"><ele>395</ele><time>2020-05-21T12:21:32Z</time><name>PT8744</name></trkpt>
<trkpt lat="53.391417" lon="-1.652278"><ele>396</ele><time>2020-05-21T12:21:34Z</time><name>PT8745</name></trkpt>
<trkpt lat="53.391416" lon="-1.652299"><ele>396</ele><time>2020-05-21T12:21:34Z</time><name>PT8746</name></trkpt>
<trkpt lat="53.391411" lon="-1.652323"><ele>396</ele><time>2020-05-21T12:21:35Z</time><name>PT8747</name></trkpt>
<trkpt lat="53.391407" lon="-1.652345"><ele>397</ele><time>2020-05-21T12:21:37Z</time><name>PT8748</name></trkpt>
<trkpt lat="53.391400" lon="-1.652360"><ele>397</ele><time>2020-05-21T12:21:37Z</time><name>PT8749</name></trkpt>
<trkpt lat="53.391389" lon="-1.652380"><ele>395</ele><time>2020-05-21T12:21:38Z</time><name>PT8750</name></trkpt>
<trkpt lat="53.391382" lon="-1.652398"><ele>395</ele><time>2020-05-21T12:21:40Z</time><name>PT8751</name></trkpt>
<trkpt lat="53.391373" lon="-1.652417"><ele>395</ele><time>2020-05-21T12:21:40Z</time><name>PT8752</name></trkpt>
<trkpt lat="53.391363" lon="-1.652436"><ele>395</ele><time>2020-05-21T12:21:41Z</time><name>PT8753</name></trkpt>
<trkpt lat="53.391356" lon="-1.652450"><ele>395</ele><time>2020-05-21T12:21:43Z</time><name>PT8754</name></trkpt>
<trkpt lat="53.391349" lon="-1.652475"><ele>396</ele><time>2020-05-21T12:21:43Z</time><name>PT8755</name></trkpt>
<trkpt lat="53.391341" lon="-1.652482"><ele>395</ele><time>2020-05-21T12:21:44Z</time><name>PT8756</name></trkpt>
<trkpt lat="53.391332" lon="-1.652492"><ele>396</ele><time>2020-05-21T12:21:46Z</time><name>PT8757</name></trkpt>
<trkpt lat="53.391322" lon="-1.652515"><ele>394</ele><time>2020-05-21T12:21:46Z</time><name>PT8758</name></trkpt>
<trkpt lat="53.391312" lon="-1.652540"><ele>393</ele><time>2020-05-21T12:21:47Z</time><name>PT8759</name></trkpt>
<trkpt lat="53.391303" lon="-1.652551"><ele>393</ele><time>2020-05-21T12:21:49Z</time><name>PT8760</name></trkpt>
<trkpt lat="53.391293" lon="-1.652563"><ele>393</ele><time>2020-05-21T12:21:49Z</time><name>PT8761</name></trkpt>
<trkpt lat="53.391286" lon="-1.652581"><ele>392</ele><time>2020-05-21T12:21:50Z</time><name>PT8762</name></trkpt>
<trkpt lat="53.391275" lon="-1.652596"><ele>392</ele><time>2020-05-21T12:21:52Z</time><name>PT8763</name></trkpt>
<trkpt lat="53.391264" lon="-1.652615"><ele>392</ele><time>2020-05-21T12:21:52Z</time><name>PT8764</name></trkpt>
<trkpt lat="53.391256" lon="-1.652628"><ele>393</ele><time>2020-05-21T12:21:53Z</time><name>PT8765</name></trkpt>
<trkpt lat="53.391249" lon="-1.652644"><ele>393</ele><time>2020-05-21T12:21:55Z</time><name>PT8766</name></trkpt>
<trkpt lat="53.391243" lon="-1.652657"><ele>393</ele><time>2020-05-21T12:21:55Z</time><name>PT8767</name></trkpt>
<trkpt lat="53.391236" lon="-1.652671"><ele>393</ele><time>2020-05-21T12:21:56Z</time><name>PT8768</name></trkpt>
<trkpt lat="53.391229" lon="-1.652694"><ele>393</ele><time>2020-05-21T12:21:58Z</time><name>PT8769</name></trkpt>
<trkpt lat="53.391225" lon="-1.652718"><ele>394</ele><time>2020-05-21T12:21:58Z</time><name>PT8770</name></trkpt>
<trkpt lat="53.391223" lon="-1.652736"><ele>394</ele><time>2020-05-21T12:21:59Z</time><name>PT8771</name></trkpt>
<trkpt lat="53.391214" lon="-1.652753"><ele>393</ele><time>2020-05-21T12:22:01Z</time><name>PT8772</name></trkpt>
<trkpt lat="53.391207" lon="-1.652772"><ele>393</ele><time>2020-05-21T12:22:01Z</time><name>PT8773</name></trkpt>
<trkpt lat="53.391203" lon="-1.652790"><ele>392</ele><time>2020-05-21T12:22:02Z</time><name>PT8774</name></trkpt>
<trkpt lat="53.391197" lon="-1.652808"><ele>391</ele><time>2020-05-21T12:22:04Z</time><name>PT8775</name></trkpt>
<trkpt lat="53.391189" lon="-1.652830"><ele>391</ele><time>2020-05-21T12:22:04Z</time><name>PT8776</name></trkpt>
<trkpt lat="53.391180" lon="-1.652853"><ele>390</ele><time>2020-05-21T12:22:05Z</time><name>PT8777</name></trkpt>
<trkpt lat="53.391175" lon="-1.652872"><ele>390</ele><time>2020-05-21T12:22:07Z</time><name>PT8778</name></trkpt>
<trkpt lat="53.391168" lon="-1.652884"><ele>390</ele><time>2020-05-21T12:22:07Z</time><name>PT8779</name></trkpt>
<trkpt lat="53.391165" lon="-1.652905"><ele>389</ele><time>2020-05-21T12:22:08Z</time><name>PT8780</name></trkpt>
<trkpt lat="53.391162" lon="-1.652925"><ele>389</ele><time>2020-05-21T12:22:10Z</time><name>PT8781</name></trkpt>
<trkpt lat="53.391152" lon="-1.652944"><ele>390</ele><time>2020-05-21T12:22:10Z</time><name>PT8782</name></trkpt>
<trkpt lat="53.391143" lon="-1.652966"><ele>390</ele><time>2020-05-21T12:22:11Z</time><name>PT8783</name></trkpt>
<trkpt lat="53.391138" lon="-1.652984"><ele>390</ele><time>2020-05-21T12:22:13Z</time><name>PT8784</name></trkpt>
<trkpt lat="53.391133" lon="-1.652996"><ele>390</ele><time>2020-05-21T12:22:13Z</time><name>PT8785</name></trkpt>
<trkpt lat="53.391128" lon="-1.653013"><ele>391</ele><time>2020-05-21T12:22:14Z</time><name>PT8786</name></trkpt>
<trkpt lat="53.391120" lon="-1.653033"><ele>391</ele><time>2020-05-21T12:22:16Z</time><name>PT8787</name></trkpt>
<trkpt lat="53.391110" lon="-1.653053"><ele>391</ele><time>2020-05-21T12:22:16Z</time><name>PT8788</name></trkpt>
<trkpt lat="53.391102" lon="-1.653073"><ele>391</ele><time>2020-05-21T12:22:17Z</time><name>PT8789</name></trkpt>
<trkpt lat="53.391095" lon="-1.653095"><ele>391</ele><time>2020-05-21T12:22:19Z</time><name>PT8790</name></trkpt>
<trkpt lat="53.391093" lon="-1.653110"><ele>391</ele><time>2020-05-21T12:22:19Z</time><name>PT8791</name></trkpt>
<trkpt lat="53.391089" lon="-1.653113"><ele>390</ele><time>2020-05-21T12:22:20Z</time><name>PT8792</name></trkpt>
<trkpt lat="53.391085" lon="-1.653128"><ele>390</ele><time>2020-05-21T12:22:22Z</time><name>PT8793</name></trkpt>
<trkpt lat="53.391080" lon="-1.653147"><ele>390</ele><time>2020-05-21T12:22:22Z</time><name>PT8794</name></trkpt>
<trkpt lat="53.391074" lon="-1.653165"><ele>389</ele><time>2020-05-21T12:22:23Z</time><name>PT8795</name></trkpt>
<trkpt lat="53.391068" lon="-1.653184"><ele>389</ele><time>2020-05-21T12:22:25Z</time><name>PT8796</name></trkpt>
<trkpt lat="53.391063" lon="-1.653196"><ele>388</ele><time>2020-05-21T12:22:25Z</time><name>PT8797</name></trkpt>
<trkpt lat="53.391055" lon="-1.653211"><ele>388</ele><time>2020-05-21T12:22:26Z</time><name>PT8798</name></trkpt>
<trkpt lat="53.391047" lon="-1.653226"><ele>388</ele><time>2020-05-21T12:22:28Z</time><name>PT8799</name></trkpt>
<trkpt lat="53.391041" lon="-1.653247"><ele>389</ele><time>2020-05-21T12:22:28Z</time><name>PT8800</name></trkpt>
<trkpt lat="53.391042" lon="-1.653268"><ele>388</ele><time>2020-05-21T12:22:29Z</time><name>PT8801</name></trkpt>
<trkpt lat="53.391041" lon="-1.653283"><ele>388</ele><time>2020-05-21T12:22:31Z</time><name>PT8802</name></trkpt>
<trkpt lat="53.391038" lon="-1.653298"><ele>388</ele><time>2020-05-21T12:22:31Z</time><name>PT8803</name></trkpt>
<trkpt lat="53.391034" lon="-1.653319"><ele>388</ele><time>2020-05-21T12:22:32Z</time><name>PT8804</name></trkpt>
<trkpt lat="53.391028" lon="-1.653336"><ele>387</ele><time>2020-05-21T12:22:34Z</time><name>PT8805</name></trkpt>
<trkpt lat="53.391023" lon="-1.653357"><ele>387</ele><time>2020-05-21T12:22:34Z</time><name>PT8806</name></trkpt>
<trkpt lat="53.391018" lon="-1.653381"><ele>387</ele><time>2020-05-21T12:22:35Z</time><name>PT8807</name></trkpt>
<trkpt lat="53.391011" lon="-1.653400"><ele>387</ele><time>2020-05-21T12:22:37Z</time><name>PT8808</name></trkpt>
<trkpt lat="53.391003" lon="-1.653415"><ele>387</ele><time>2020-05-21T12:22:37Z</time><name>PT8809</name></trkpt>
<trkpt lat="53.390995" lon="-1.653428"><ele>386</ele><time>2020-05-21T12:22:38Z</time><name>PT8810</name></trkpt>
<trkpt lat="53.390987" lon="-1.653435"><ele>386</ele><time>2020-05-21T12:22:39Z</time><name>PT8811</name></trkpt>
<trkpt lat="53.390980" lon="-1.653451"><ele>386</ele><time>2020-05-21T12:22:40Z</time><name>PT8812</name></trkpt>
<trkpt lat="53.390974" lon="-1.653463"><ele>386</ele><time>2020-05-21T12:22:41Z</time><name>PT8813</name></trkpt>
<trkpt lat="53.390973" lon="-1.653472"><ele>386</ele><time>2020-05-21T12:22:43Z</time><name>PT8814</name></trkpt>
<trkpt lat="53.390971" lon="-1.653475"><ele>387</ele><time>2020-05-21T12:22:43Z</time><name>PT8815</name></trkpt>
<trkpt lat="53.390969" lon="-1.653476"><ele>386</ele><time>2020-05-21T12:22:44Z</time><name>PT8816</name></trkpt>
<trkpt lat="53.390968" lon="-1.653473"><ele>386</ele><time>2020-05-21T12:22:45Z</time><name>PT8817</name></trkpt>
<trkpt lat="53.390968" lon="-1.653475"><ele>386</ele><time>2020-05-21T12:22:53Z</time><name>PT8818</name></trkpt>
<trkpt lat="53.390966" lon="-1.653473"><ele>386</ele><time>2020-05-21T12:22:55Z</time><name>PT8819</name></trkpt>
<trkpt lat="53.390963" lon="-1.653475"><ele>386</ele><time>2020-05-21T12:23:04Z</time><name>PT8820</name></trkpt>
<trkpt lat="53.390957" lon="-1.653469"><ele>386</ele><time>2020-05-21T12:23:04Z</time><name>PT8821</name></trkpt>
<trkpt lat="53.390952" lon="-1.653474"><ele>386</ele><time>2020-05-21T12:23:10Z</time><name>PT8822</name></trkpt>
<trkpt lat="53.390945" lon="-1.653496"><ele>386</ele><time>2020-05-21T12:23:12Z</time><name>PT8823</name></trkpt>
<trkpt lat="53.390943" lon="-1.653513"><ele>386</ele><time>2020-05-21T12:23:12Z</time><name>PT8824</name></trkpt>
<trkpt lat="53.390939" lon="-1.653522"><ele>386</ele><time>2020-05-21T12:23:13Z</time><name>PT8825</name></trkpt>
<trkpt lat="53.390933" lon="-1.653528"><ele>386</ele><time>2020-05-21T12:23:14Z</time><name>PT8826</name></trkpt>
<trkpt lat="53.390930" lon="-1.653534"><ele>386</ele><time>2020-05-21T12:23:15Z</time><name>PT8827</name></trkpt>
<trkpt lat="53.390927" lon="-1.653536"><ele>386</ele><time>2020-05-21T12:23:16Z</time><name>PT8828</name></trkpt>
<trkpt lat="53.390922" lon="-1.653541"><ele>386</ele><time>2020-05-21T12:23:30Z</time><name>PT8829</name></trkpt>
<trkpt lat="53.390917" lon="-1.653547"><ele>386</ele><time>2020-05-21T12:23:31Z</time><name>PT8830</name></trkpt>
<trkpt lat="53.390911" lon="-1.653546"><ele>386</ele><time>2020-05-21T12:23:32Z</time><name>PT8831</name></trkpt>
<trkpt lat="53.390909" lon="-1.653543"><ele>386</ele><time>2020-05-21T12:23:33Z</time><name>PT8832</name></trkpt>
<trkpt lat="53.390899" lon="-1.653551"><ele>387</ele><time>2020-05-21T12:23:50Z</time><name>PT8833</name></trkpt>
<trkpt lat="53.390887" lon="-1.653562"><ele>387</ele><time>2020-05-21T12:23:51Z</time><name>PT8834</name></trkpt>
<trkpt lat="53.390879" lon="-1.653564"><ele>387</ele><time>2020-05-21T12:23:52Z</time><name>PT8835</name></trkpt>
<trkpt lat="53.390877" lon="-1.653569"><ele>387</ele><time>2020-05-21T12:23:53Z</time><name>PT8836</name></trkpt>
<trkpt lat="53.390875" lon="-1.653577"><ele>387</ele><time>2020-05-21T12:23:54Z</time><name>PT8837</name></trkpt>
<trkpt lat="53.390874" lon="-1.653582"><ele>387</ele><time>2020-05-21T12:23:56Z</time><name>PT8838</name></trkpt>
<trkpt lat="53.390872" lon="-1.653587"><ele>387</ele><time>2020-05-21T12:23:56Z</time><name>PT8839</name></trkpt>
<trkpt lat="53.390871" lon="-1.653593"><ele>388</ele><time>2020-05-21T12:24:03Z</time><name>PT8840</name></trkpt>
<trkpt lat="53.390861" lon="-1.653599"><ele>388</ele><time>2020-05-21T12:24:04Z</time><name>PT8841</name></trkpt>
<trkpt lat="53.390858" lon="-1.653606"><ele>388</ele><time>2020-05-21T12:24:05Z</time><name>PT8842</name></trkpt>
<trkpt lat="53.390844" lon="-1.653617"><ele>388</ele><time>2020-05-21T12:24:06Z</time><name>PT8843</name></trkpt>
<trkpt lat="53.390835" lon="-1.653623"><ele>388</ele><time>2020-05-21T12:24:08Z</time><name>PT8844</name></trkpt>
<trkpt lat="53.390832" lon="-1.653627"><ele>388</ele><time>2020-05-21T12:24:08Z</time><name>PT8845</name></trkpt>
<trkpt lat="53.390832" lon="-1.653631"><ele>388</ele><time>2020-05-21T12:24:09Z</time><name>PT8846</name></trkpt>
<trkpt lat="53.390831" lon="-1.653635"><ele>388</ele><time>2020-05-21T12:24:10Z</time><name>PT8847</name></trkpt>
<trkpt lat="53.390830" lon="-1.653638"><ele>389</ele><time>2020-05-21T12:24:11Z</time><name>PT8848</name></trkpt>
<trkpt lat="53.390826" lon="-1.653644"><ele>389</ele><time>2020-05-21T12:24:31Z</time><name>PT8849</name></trkpt>
<trkpt lat="53.390811" lon="-1.653654"><ele>389</ele><time>2020-05-21T12:24:32Z</time><name>PT8850</name></trkpt>
<trkpt lat="53.390794" lon="-1.653661"><ele>389</ele><time>2020-05-21T12:24:34Z</time><name>PT8851</name></trkpt>
<trkpt lat="53.390778" lon="-1.653668"><ele>389</ele><time>2020-05-21T12:24:34Z</time><name>PT8852</name></trkpt>
<trkpt lat="53.390766" lon="-1.653675"><ele>389</ele><time>2020-05-21T12:24:35Z</time><name>PT8853</name></trkpt>
<trkpt lat="53.390760" lon="-1.653678"><ele>389</ele><time>2020-05-21T12:24:37Z</time><name>PT8854</name></trkpt>
<trkpt lat="53.390748" lon="-1.653677"><ele>389</ele><time>2020-05-21T12:24:37Z</time><name>PT8855</name></trkpt>
<trkpt lat="53.390736" lon="-1.653676"><ele>389</ele><time>2020-05-21T12:24:38Z</time><name>PT8856</name></trkpt>
<trkpt lat="53.390729" lon="-1.653677"><ele>389</ele><time>2020-05-21T12:24:40Z</time><name>PT8857</name></trkpt>
<trkpt lat="53.390720" lon="-1.653682"><ele>389</ele><time>2020-05-21T12:24:40Z</time><name>PT8858</name></trkpt>
<trkpt lat="53.390703" lon="-1.653692"><ele>389</ele><time>2020-05-21T12:24:41Z</time><name>PT8859</name></trkpt>
<trkpt lat="53.390688" lon="-1.653697"><ele>389</ele><time>2020-05-21T12:24:43Z</time><name>PT8860</name></trkpt>
<trkpt lat="53.390678" lon="-1.653700"><ele>389</ele><time>2020-05-21T12:24:43Z</time><name>PT8861</name></trkpt>
<trkpt lat="53.390674" lon="-1.653701"><ele>389</ele><time>2020-05-21T12:24:44Z</time><name>PT8862</name></trkpt>
<trkpt lat="53.390672" lon="-1.653696"><ele>389</ele><time>2020-05-21T12:24:46Z</time><name>PT8863</name></trkpt>
<trkpt lat="53.390672" lon="-1.653692"><ele>389</ele><time>2020-05-21T12:24:46Z</time><name>PT8864</name></trkpt>
<trkpt lat="53.390674" lon="-1.653688"><ele>388</ele><time>2020-05-21T12:24:47Z</time><name>PT8865</name></trkpt>
<trkpt lat="53.390675" lon="-1.653686"><ele>388</ele><time>2020-05-21T12:24:49Z</time><name>PT8866</name></trkpt>
<trkpt lat="53.390670" lon="-1.653690"><ele>388</ele><time>2020-05-21T12:24:52Z</time><name>PT8867</name></trkpt>
<trkpt lat="53.390667" lon="-1.653701"><ele>386</ele><time>2020-05-21T12:24:52Z</time><name>PT8868</name></trkpt>
<trkpt lat="53.390655" lon="-1.653704"><ele>386</ele><time>2020-05-21T12:24:53Z</time><name>PT8869</name></trkpt>
<trkpt lat="53.390641" lon="-1.653702"><ele>386</ele><time>2020-05-21T12:24:55Z</time><name>PT8870</name></trkpt>
<trkpt lat="53.390631" lon="-1.653697"><ele>385</ele><time>2020-05-21T12:24:55Z</time><name>PT8871</name></trkpt>
<trkpt lat="53.390621" lon="-1.653697"><ele>385</ele><time>2020-05-21T12:24:56Z</time><name>PT8872</name></trkpt>
<trkpt lat="53.390610" lon="-1.653697"><ele>384</ele><time>2020-05-21T12:24:58Z</time><name>PT8873</name></trkpt>
<trkpt lat="53.390597" lon="-1.653701"><ele>384</ele><time>2020-05-21T12:24:58Z</time><name>PT8874</name></trkpt>
<trkpt lat="53.390583" lon="-1.653703"><ele>384</ele><time>2020-05-21T12:24:59Z</time><name>PT8875</name></trkpt>
<trkpt lat="53.390571" lon="-1.653706"><ele>385</ele><time>2020-05-21T12:25:01Z</time><name>PT8876</name></trkpt>
<trkpt lat="53.390557" lon="-1.653706"><ele>385</ele><time>2020-05-21T12:25:01Z</time><name>PT8877</name></trkpt>
<trkpt lat="53.390543" lon="-1.653703"><ele>385</ele><time>2020-05-21T12:25:02Z</time><name>PT8878</name></trkpt>
<trkpt lat="53.390528" lon="-1.653702"><ele>385</ele><time>2020-05-21T12:25:03Z</time><name>PT8879</name></trkpt>
<trkpt lat="53.390519" lon="-1.653702"><ele>384</ele><time>2020-05-21T12:25:04Z</time><name>PT8880</name></trkpt>
<trkpt lat="53.390510" lon="-1.653699"><ele>384</ele><time>2020-05-21T12:25:05Z</time><name>PT8881</name></trkpt>
<trkpt lat="53.390498" lon="-1.653695"><ele>384</ele><time>2020-05-21T12:25:07Z</time><name>PT8882</name></trkpt>
<trkpt lat="53.390486" lon="-1.653696"><ele>384</ele><time>2020-05-21T12:25:07Z</time><name>PT8883</name></trkpt>
<trkpt lat="53.390472" lon="-1.653694"><ele>384</ele><time>2020-05-21T12:25:08Z</time><name>PT8884</name></trkpt>
<trkpt lat="53.390457" lon="-1.653696"><ele>384</ele><time>2020-05-21T12:25:10Z</time><name>PT8885</name></trkpt>
<trkpt lat="53.390447" lon="-1.653690"><ele>384</ele><time>2020-05-21T12:25:10Z</time><name>PT8886</name></trkpt>
<trkpt lat="53.390439" lon="-1.653690"><ele>384</ele><time>2020-05-21T12:25:11Z</time><name>PT8887</name></trkpt>
<trkpt lat="53.390428" lon="-1.653691"><ele>384</ele><time>2020-05-21T12:25:13Z</time><name>PT8888</name></trkpt>
<trkpt lat="53.390417" lon="-1.653692"><ele>383</ele><time>2020-05-21T12:25:13Z</time><name>PT8889</name></trkpt>
<trkpt lat="53.390405" lon="-1.653696"><ele>383</ele><time>2020-05-21T12:25:14Z</time><name>PT8890</name></trkpt>
<trkpt lat="53.390394" lon="-1.653695"><ele>383</ele><time>2020-05-21T12:25:16Z</time><name>PT8891</name></trkpt>
<trkpt lat="53.390378" lon="-1.653698"><ele>384</ele><time>2020-05-21T12:25:16Z</time><name>PT8892</name></trkpt>
<trkpt lat="53.390364" lon="-1.653697"><ele>384</ele><time>2020-05-21T12:25:17Z</time><name>PT8893</name></trkpt>
<trkpt lat="53.390355" lon="-1.653696"><ele>383</ele><time>2020-05-21T12:25:19Z</time><name>PT8894</name></trkpt>
<trkpt lat="53.390349" lon="-1.653692"><ele>382</ele><time>2020-05-21T12:25:19Z</time><name>PT8895</name></trkpt>
<trkpt lat="53.390339" lon="-1.653693"><ele>382</ele><time>2020-05-21T12:25:20Z</time><name>PT8896</name></trkpt>
<trkpt lat="53.390327" lon="-1.653687"><ele>381</ele><time>2020-05-21T12:25:22Z</time><name>PT8897</name></trkpt>
<trkpt lat="53.390313" lon="-1.653689"><ele>382</ele><time>2020-05-21T12:25:22Z</time><name>PT8898</name></trkpt>
<trkpt lat="53.390299" lon="-1.653687"><ele>382</ele><time>2020-05-21T12:25:23Z</time><name>PT8899</name></trkpt>
<trkpt lat="53.390291" lon="-1.653684"><ele>381</ele><time>2020-05-21T12:25:24Z</time><name>PT8900</name></trkpt>
<trkpt lat="53.390282" lon="-1.653683"><ele>381</ele><time>2020-05-21T12:25:25Z</time><name>PT8901</name></trkpt>
<trkpt lat="53.390271" lon="-1.653684"><ele>381</ele><time>2020-05-21T12:25:27Z</time><name>PT8902</name></trkpt>
<trkpt lat="53.390261" lon="-1.653683"><ele>381</ele><time>2020-05-21T12:25:27Z</time><name>PT8903</name></trkpt>
<trkpt lat="53.390248" lon="-1.653684"><ele>381</ele><time>2020-05-21T12:25:28Z</time><name>PT8904</name></trkpt>
<trkpt lat="53.390233" lon="-1.653683"><ele>381</ele><time>2020-05-21T12:25:29Z</time><name>PT8905</name></trkpt>
<trkpt lat="53.390221" lon="-1.653680"><ele>381</ele><time>2020-05-21T12:25:30Z</time><name>PT8906</name></trkpt>
<trkpt lat="53.390212" lon="-1.653680"><ele>380</ele><time>2020-05-21T12:25:31Z</time><name>PT8907</name></trkpt>
<trkpt lat="53.390198" lon="-1.653682"><ele>381</ele><time>2020-05-21T12:25:33Z</time><name>PT8908</name></trkpt>
<trkpt lat="53.390187" lon="-1.653682"><ele>381</ele><time>2020-05-21T12:25:33Z</time><name>PT8909</name></trkpt>
<trkpt lat="53.390159" lon="-1.653683"><ele>381</ele><time>2020-05-21T12:25:36Z</time><name>PT8910</name></trkpt>
<trkpt lat="53.390147" lon="-1.653679"><ele>381</ele><time>2020-05-21T12:25:36Z</time><name>PT8911</name></trkpt>
<trkpt lat="53.390139" lon="-1.653680"><ele>380</ele><time>2020-05-21T12:25:37Z</time><name>PT8912</name></trkpt>
<trkpt lat="53.390126" lon="-1.653686"><ele>380</ele><time>2020-05-21T12:25:39Z</time><name>PT8913</name></trkpt>
<trkpt lat="53.390113" lon="-1.653687"><ele>379</ele><time>2020-05-21T12:25:39Z</time><name>PT8914</name></trkpt>
<trkpt lat="53.390099" lon="-1.653686"><ele>379</ele><time>2020-05-21T12:25:40Z</time><name>PT8915</name></trkpt>
<trkpt lat="53.390085" lon="-1.653686"><ele>379</ele><time>2020-05-21T12:25:42Z</time><name>PT8916</name></trkpt>
<trkpt lat="53.390067" lon="-1.653688"><ele>379</ele><time>2020-05-21T12:25:42Z</time><name>PT8917</name></trkpt>
<trkpt lat="53.390054" lon="-1.653688"><ele>379</ele><time>2020-05-21T12:25:43Z</time><name>PT8918</name></trkpt>
<trkpt lat="53.390044" lon="-1.653687"><ele>379</ele><time>2020-05-21T12:25:45Z</time><name>PT8919</name></trkpt>
<trkpt lat="53.390033" lon="-1.653686"><ele>379</ele><time>2020-05-21T12:25:45Z</time><name>PT8920</name></trkpt>
<trkpt lat="53.390020" lon="-1.653683"><ele>379</ele><time>2020-05-21T12:25:46Z</time><name>PT8921</name></trkpt>
<trkpt lat="53.390008" lon="-1.653681"><ele>379</ele><time>2020-05-21T12:25:48Z</time><name>PT8922</name></trkpt>
<trkpt lat="53.389991" lon="-1.653678"><ele>380</ele><time>2020-05-21T12:25:48Z</time><name>PT8923</name></trkpt>
<trkpt lat="53.389977" lon="-1.653677"><ele>380</ele><time>2020-05-21T12:25:49Z</time><name>PT8924</name></trkpt>
<trkpt lat="53.389968" lon="-1.653679"><ele>379</ele><time>2020-05-21T12:25:51Z</time><name>PT8925</name></trkpt>
<trkpt lat="53.389956" lon="-1.653689"><ele>378</ele><time>2020-05-21T12:25:51Z</time><name>PT8926</name></trkpt>
<trkpt lat="53.389946" lon="-1.653695"><ele>378</ele><time>2020-05-21T12:25:52Z</time><name>PT8927</name></trkpt>
<trkpt lat="53.389933" lon="-1.653695"><ele>378</ele><time>2020-05-21T12:25:54Z</time><name>PT8928</name></trkpt>
<trkpt lat="53.389919" lon="-1.653693"><ele>378</ele><time>2020-05-21T12:25:54Z</time><name>PT8929</name></trkpt>
<trkpt lat="53.389906" lon="-1.653694"><ele>378</ele><time>2020-05-21T12:25:55Z</time><name>PT8930</name></trkpt>
<trkpt lat="53.389896" lon="-1.653702"><ele>378</ele><time>2020-05-21T12:25:57Z</time><name>PT8931</name></trkpt>
<trkpt lat="53.389888" lon="-1.653702"><ele>377</ele><time>2020-05-21T12:25:57Z</time><name>PT8932</name></trkpt>
<trkpt lat="53.389877" lon="-1.653697"><ele>377</ele><time>2020-05-21T12:25:58Z</time><name>PT8933</name></trkpt>
<trkpt lat="53.389865" lon="-1.653693"><ele>377</ele><time>2020-05-21T12:26:00Z</time><name>PT8934</name></trkpt>
<trkpt lat="53.389849" lon="-1.653697"><ele>378</ele><time>2020-05-21T12:26:00Z</time><name>PT8935</name></trkpt>
<trkpt lat="53.389838" lon="-1.653698"><ele>377</ele><time>2020-05-21T12:26:01Z</time><name>PT8936</name></trkpt>
<trkpt lat="53.389827" lon="-1.653697"><ele>377</ele><time>2020-05-21T12:26:03Z</time><name>PT8937</name></trkpt>
<trkpt lat="53.389816" lon="-1.653694"><ele>377</ele><time>2020-05-21T12:26:03Z</time><name>PT8938</name></trkpt>
<trkpt lat="53.389806" lon="-1.653692"><ele>376</ele><time>2020-05-21T12:26:04Z</time><name>PT8939</name></trkpt>
<trkpt lat="53.389774" lon="-1.653692"><ele>377</ele><time>2020-05-21T12:26:06Z</time><name>PT8940</name></trkpt>
<trkpt lat="53.389761" lon="-1.653691"><ele>377</ele><time>2020-05-21T12:26:07Z</time><name>PT8941</name></trkpt>
<trkpt lat="53.389750" lon="-1.653693"><ele>377</ele><time>2020-05-21T12:26:09Z</time><name>PT8942</name></trkpt>
<trkpt lat="53.389733" lon="-1.653706"><ele>375</ele><time>2020-05-21T12:26:09Z</time><name>PT8943</name></trkpt>
<trkpt lat="53.389719" lon="-1.653712"><ele>375</ele><time>2020-05-21T12:26:10Z</time><name>PT8944</name></trkpt>
<trkpt lat="53.389708" lon="-1.653712"><ele>375</ele><time>2020-05-21T12:26:12Z</time><name>PT8945</name></trkpt>
<trkpt lat="53.389691" lon="-1.653717"><ele>375</ele><time>2020-05-21T12:26:12Z</time><name>PT8946</name></trkpt>
<trkpt lat="53.389675" lon="-1.653722"><ele>375</ele><time>2020-05-21T12:26:13Z</time><name>PT8947</name></trkpt>
<trkpt lat="53.389665" lon="-1.653723"><ele>375</ele><time>2020-05-21T12:26:15Z</time><name>PT8948</name></trkpt>
<trkpt lat="53.389657" lon="-1.653715"><ele>373</ele><time>2020-05-21T12:26:15Z</time><name>PT8949</name></trkpt>
<trkpt lat="53.389646" lon="-1.653710"><ele>373</ele><time>2020-05-21T12:26:16Z</time><name>PT8950</name></trkpt>
<trkpt lat="53.389635" lon="-1.653710"><ele>373</ele><time>2020-05-21T12:26:18Z</time><name>PT8951</name></trkpt>
<trkpt lat="53.389619" lon="-1.653710"><ele>373</ele><time>2020-05-21T12:26:18Z</time><name>PT8952</name></trkpt>
<trkpt lat="53.389597" lon="-1.653726"><ele>372</ele><time>2020-05-21T12:26:19Z</time><name>PT8953</name></trkpt>
<trkpt lat="53.389581" lon="-1.653727"><ele>371</ele><time>2020-05-21T12:26:21Z</time><name>PT8954</name></trkpt>
<trkpt lat="53.389567" lon="-1.653734"><ele>372</ele><time>2020-05-21T12:26:21Z</time><name>PT8955</name></trkpt>
<trkpt lat="53.389555" lon="-1.653736"><ele>372</ele><time>2020-05-21T12:26:22Z</time><name>PT8956</name></trkpt>
<trkpt lat="53.389542" lon="-1.653733"><ele>372</ele><time>2020-05-21T12:26:24Z</time><name>PT8957</name></trkpt>
<trkpt lat="53.389527" lon="-1.653734"><ele>372</ele><time>2020-05-21T12:26:24Z</time><name>PT8958</name></trkpt>
<trkpt lat="53.389512" lon="-1.653738"><ele>372</ele><time>2020-05-21T12:26:25Z</time><name>PT8959</name></trkpt>
<trkpt lat="53.389495" lon="-1.653748"><ele>372</ele><time>2020-05-21T12:26:27Z</time><name>PT8960</name></trkpt>
<trkpt lat="53.389480" lon="-1.653749"><ele>372</ele><time>2020-05-21T12:26:27Z</time><name>PT8961</name></trkpt>
<trkpt lat="53.389469" lon="-1.653751"><ele>371</ele><time>2020-05-21T12:26:28Z</time><name>PT8962</name></trkpt>
<trkpt lat="53.389461" lon="-1.653753"><ele>371</ele><time>2020-05-21T12:26:30Z</time><name>PT8963</name></trkpt>
<trkpt lat="53.389452" lon="-1.653753"><ele>371</ele><time>2020-05-21T12:26:30Z</time><name>PT8964</name></trkpt>
<trkpt lat="53.389444" lon="-1.653754"><ele>371</ele><time>2020-05-21T12:26:31Z</time><name>PT8965</name></trkpt>
<trkpt lat="53.389431" lon="-1.653755"><ele>372</ele><time>2020-05-21T12:26:33Z</time><name>PT8966</name></trkpt>
<trkpt lat="53.389416" lon="-1.653754"><ele>372</ele><time>2020-05-21T12:26:33Z</time><name>PT8967</name></trkpt>
<trkpt lat="53.389398" lon="-1.653753"><ele>372</ele><time>2020-05-21T12:26:34Z</time><name>PT8968</name></trkpt>
<trkpt lat="53.389386" lon="-1.653752"><ele>372</ele><time>2020-05-21T12:26:36Z</time><name>PT8969</name></trkpt>
<trkpt lat="53.389377" lon="-1.653753"><ele>372</ele><time>2020-05-21T12:26:36Z</time><name>PT8970</name></trkpt>
<trkpt lat="53.389368" lon="-1.653748"><ele>372</ele><time>2020-05-21T12:26:37Z</time><name>PT8971</name></trkpt>
<trkpt lat="53.389357" lon="-1.653745"><ele>371</ele><time>2020-05-21T12:26:38Z</time><name>PT8972</name></trkpt>
<trkpt lat="53.389344" lon="-1.653744"><ele>370</ele><time>2020-05-21T12:26:39Z</time><name>PT8973</name></trkpt>
<trkpt lat="53.389329" lon="-1.653745"><ele>371</ele><time>2020-05-21T12:26:40Z</time><name>PT8974</name></trkpt>
<trkpt lat="53.389317" lon="-1.653744"><ele>371</ele><time>2020-05-21T12:26:42Z</time><name>PT8975</name></trkpt>
<trkpt lat="53.389302" lon="-1.653742"><ele>371</ele><time>2020-05-21T12:26:42Z</time><name>PT8976</name></trkpt>
<trkpt lat="53.389294" lon="-1.653740"><ele>371</ele><time>2020-05-21T12:26:43Z</time><name>PT8977</name></trkpt>
<trkpt lat="53.389285" lon="-1.653741"><ele>371</ele><time>2020-05-21T12:26:45Z</time><name>PT8978</name></trkpt>
<trkpt lat="53.389272" lon="-1.653743"><ele>370</ele><time>2020-05-21T12:26:45Z</time><name>PT8979</name></trkpt>
<trkpt lat="53.389259" lon="-1.653743"><ele>370</ele><time>2020-05-21T12:26:46Z</time><name>PT8980</name></trkpt>
<trkpt lat="53.389245" lon="-1.653743"><ele>371</ele><time>2020-05-21T12:26:48Z</time><name>PT8981</name></trkpt>
<trkpt lat="53.389230" lon="-1.653743"><ele>372</ele><time>2020-05-21T12:26:48Z</time><name>PT8982</name></trkpt>
<trkpt lat="53.389218" lon="-1.653741"><ele>371</ele><time>2020-05-21T12:26:49Z</time><name>PT8983</name></trkpt>
<trkpt lat="53.389210" lon="-1.653738"><ele>371</ele><time>2020-05-21T12:26:51Z</time><name>PT8984</name></trkpt>
<trkpt lat="53.389197" lon="-1.653735"><ele>371</ele><time>2020-05-21T12:26:51Z</time><name>PT8985</name></trkpt>
<trkpt lat="53.389184" lon="-1.653734"><ele>370</ele><time>2020-05-21T12:26:52Z</time><name>PT8986</name></trkpt>
<trkpt lat="53.389171" lon="-1.653735"><ele>370</ele><time>2020-05-21T12:26:54Z</time><name>PT8987</name></trkpt>
<trkpt lat="53.389156" lon="-1.653736"><ele>372</ele><time>2020-05-21T12:26:54Z</time><name>PT8988</name></trkpt>
<trkpt lat="53.389143" lon="-1.653724"><ele>371</ele><time>2020-05-21T12:26:55Z</time><name>PT8989</name></trkpt>
<trkpt lat="53.389132" lon="-1.653719"><ele>371</ele><time>2020-05-21T12:26:57Z</time><name>PT8990</name></trkpt>
<trkpt lat="53.389121" lon="-1.653722"><ele>371</ele><time>2020-05-21T12:26:57Z</time><name>PT8991</name></trkpt>
<trkpt lat="53.389108" lon="-1.653726"><ele>371</ele><time>2020-05-21T12:26:58Z</time><name>PT8992</name></trkpt>
<trkpt lat="53.389094" lon="-1.653730"><ele>371</ele><time>2020-05-21T12:27:00Z</time><name>PT8993</name></trkpt>
<trkpt lat="53.389080" lon="-1.653727"><ele>372</ele><time>2020-05-21T12:27:00Z</time><name>PT8994</name></trkpt>
<trkpt lat="53.389063" lon="-1.653728"><ele>373</ele><time>2020-05-21T12:27:01Z</time><name>PT8995</name></trkpt>
<trkpt lat="53.389046" lon="-1.653730"><ele>373</ele><time>2020-05-21T12:27:03Z</time><name>PT8996</name></trkpt>
<trkpt lat="53.389022" lon="-1.653735"><ele>373</ele><time>2020-05-21T12:27:04Z</time><name>PT8997</name></trkpt>
<trkpt lat="53.389009" lon="-1.653736"><ele>372</ele><time>2020-05-21T12:27:06Z</time><name>PT8998</name></trkpt>
<trkpt lat="53.388994" lon="-1.653738"><ele>372</ele><time>2020-05-21T12:27:06Z</time><name>PT8999</name></trkpt>
<trkpt lat="53.388978" lon="-1.653742"><ele>372</ele><time>2020-05-21T12:27:07Z</time><name>PT9000</name></trkpt>
<trkpt lat="53.388959" lon="-1.653748"><ele>372</ele><time>2020-05-21T12:27:08Z</time><name>PT9001</name></trkpt>
<trkpt lat="53.388936" lon="-1.653747"><ele>371</ele><time>2020-05-21T12:27:10Z</time><name>PT9002</name></trkpt>
<trkpt lat="53.388925" lon="-1.653752"><ele>371</ele><time>2020-05-21T12:27:12Z</time><name>PT9003</name></trkpt>
<trkpt lat="53.388913" lon="-1.653747"><ele>371</ele><time>2020-05-21T12:27:12Z</time><name>PT9004</name></trkpt>
<trkpt lat="53.388904" lon="-1.653750"><ele>373</ele><time>2020-05-21T12:27:13Z</time><name>PT9005</name></trkpt>
<trkpt lat="53.388891" lon="-1.653749"><ele>373</ele><time>2020-05-21T12:27:15Z</time><name>PT9006</name></trkpt>
<trkpt lat="53.388874" lon="-1.653745"><ele>373</ele><time>2020-05-21T12:27:15Z</time><name>PT9007</name></trkpt>
<trkpt lat="53.388863" lon="-1.653742"><ele>372</ele><time>2020-05-21T12:27:16Z</time><name>PT9008</name></trkpt>
<trkpt lat="53.388852" lon="-1.653737"><ele>371</ele><time>2020-05-21T12:27:18Z</time><name>PT9009</name></trkpt>
<trkpt lat="53.388841" lon="-1.653738"><ele>371</ele><time>2020-05-21T12:27:18Z</time><name>PT9010</name></trkpt>
<trkpt lat="53.388828" lon="-1.653740"><ele>370</ele><time>2020-05-21T12:27:19Z</time><name>PT9011</name></trkpt>
<trkpt lat="53.388816" lon="-1.653740"><ele>370</ele><time>2020-05-21T12:27:21Z</time><name>PT9012</name></trkpt>
<trkpt lat="53.388803" lon="-1.653734"><ele>370</ele><time>2020-05-21T12:27:21Z</time><name>PT9013</name></trkpt>
<trkpt lat="53.388788" lon="-1.653727"><ele>370</ele><time>2020-05-21T12:27:22Z</time><name>PT9014</name></trkpt>
<trkpt lat="53.388772" lon="-1.653725"><ele>370</ele><time>2020-05-21T12:27:23Z</time><name>PT9015</name></trkpt>
<trkpt lat="53.388760" lon="-1.653721"><ele>369</ele><time>2020-05-21T12:27:24Z</time><name>PT9016</name></trkpt>
<trkpt lat="53.388752" lon="-1.653717"><ele>368</ele><time>2020-05-21T12:27:25Z</time><name>PT9017</name></trkpt>
<trkpt lat="53.388741" lon="-1.653717"><ele>368</ele><time>2020-05-21T12:27:27Z</time><name>PT9018</name></trkpt>
<trkpt lat="53.388730" lon="-1.653718"><ele>368</ele><time>2020-05-21T12:27:27Z</time><name>PT9019</name></trkpt>
<trkpt lat="53.388719" lon="-1.653716"><ele>368</ele><time>2020-05-21T12:27:28Z</time><name>PT9020</name></trkpt>
<trkpt lat="53.388707" lon="-1.653715"><ele>368</ele><time>2020-05-21T12:27:30Z</time><name>PT9021</name></trkpt>
<trkpt lat="53.388691" lon="-1.653723"><ele>368</ele><time>2020-05-21T12:27:30Z</time><name>PT9022</name></trkpt>
<trkpt lat="53.388675" lon="-1.653724"><ele>369</ele><time>2020-05-21T12:27:31Z</time><name>PT9023</name></trkpt>
<trkpt lat="53.388657" lon="-1.653725"><ele>369</ele><time>2020-05-21T12:27:33Z</time><name>PT9024</name></trkpt>
<trkpt lat="53.388645" lon="-1.653727"><ele>368</ele><time>2020-05-21T12:27:33Z</time><name>PT9025</name></trkpt>
<trkpt lat="53.388635" lon="-1.653731"><ele>368</ele><time>2020-05-21T12:27:34Z</time><name>PT9026</name></trkpt>
<trkpt lat="53.388621" lon="-1.653734"><ele>368</ele><time>2020-05-21T12:27:36Z</time><name>PT9027</name></trkpt>
<trkpt lat="53.388607" lon="-1.653738"><ele>368</ele><time>2020-05-21T12:27:36Z</time><name>PT9028</name></trkpt>
<trkpt lat="53.388595" lon="-1.653739"><ele>368</ele><time>2020-05-21T12:27:37Z</time><name>PT9029</name></trkpt>
<trkpt lat="53.388584" lon="-1.653741"><ele>368</ele><time>2020-05-21T12:27:39Z</time><name>PT9030</name></trkpt>
<trkpt lat="53.388571" lon="-1.653734"><ele>368</ele><time>2020-05-21T12:27:39Z</time><name>PT9031</name></trkpt>
<trkpt lat="53.388555" lon="-1.653726"><ele>366</ele><time>2020-05-21T12:27:40Z</time><name>PT9032</name></trkpt>
<trkpt lat="53.388541" lon="-1.653726"><ele>366</ele><time>2020-05-21T12:27:41Z</time><name>PT9033</name></trkpt>
<trkpt lat="53.388534" lon="-1.653718"><ele>365</ele><time>2020-05-21T12:27:42Z</time><name>PT9034</name></trkpt>
<trkpt lat="53.388523" lon="-1.653716"><ele>364</ele><time>2020-05-21T12:27:43Z</time><name>PT9035</name></trkpt>
<trkpt lat="53.388512" lon="-1.653716"><ele>363</ele><time>2020-05-21T12:27:45Z</time><name>PT9036</name></trkpt>
<trkpt lat="53.388499" lon="-1.653716"><ele>362</ele><time>2020-05-21T12:27:45Z</time><name>PT9037</name></trkpt>
<trkpt lat="53.388482" lon="-1.653705"><ele>361</ele><time>2020-05-21T12:27:46Z</time><name>PT9038</name></trkpt>
<trkpt lat="53.388472" lon="-1.653697"><ele>360</ele><time>2020-05-21T12:27:48Z</time><name>PT9039</name></trkpt>
<trkpt lat="53.388459" lon="-1.653699"><ele>359</ele><time>2020-05-21T12:27:48Z</time><name>PT9040</name></trkpt>
<trkpt lat="53.388446" lon="-1.653700"><ele>360</ele><time>2020-05-21T12:27:49Z</time><name>PT9041</name></trkpt>
<trkpt lat="53.388429" lon="-1.653704"><ele>361</ele><time>2020-05-21T12:27:51Z</time><name>PT9042</name></trkpt>
<trkpt lat="53.388419" lon="-1.653702"><ele>361</ele><time>2020-05-21T12:27:51Z</time><name>PT9043</name></trkpt>
<trkpt lat="53.388410" lon="-1.653695"><ele>360</ele><time>2020-05-21T12:27:52Z</time><name>PT9044</name></trkpt>
<trkpt lat="53.388397" lon="-1.653690"><ele>360</ele><time>2020-05-21T12:27:54Z</time><name>PT9045</name></trkpt>
<trkpt lat="53.388381" lon="-1.653699"><ele>360</ele><time>2020-05-21T12:27:54Z</time><name>PT9046</name></trkpt>
<trkpt lat="53.388368" lon="-1.653704"><ele>360</ele><time>2020-05-21T12:27:56Z</time><name>PT9047</name></trkpt>
<trkpt lat="53.388356" lon="-1.653709"><ele>360</ele><time>2020-05-21T12:27:57Z</time><name>PT9048</name></trkpt>
<trkpt lat="53.388342" lon="-1.653714"><ele>360</ele><time>2020-05-21T12:27:57Z</time><name>PT9049</name></trkpt>
<trkpt lat="53.388323" lon="-1.653718"><ele>360</ele><time>2020-05-21T12:27:58Z</time><name>PT9050</name></trkpt>
<trkpt lat="53.388302" lon="-1.653724"><ele>362</ele><time>2020-05-21T12:28:00Z</time><name>PT9051</name></trkpt>
<trkpt lat="53.388289" lon="-1.653724"><ele>362</ele><time>2020-05-21T12:28:00Z</time><name>PT9052</name></trkpt>
<trkpt lat="53.388279" lon="-1.653723"><ele>362</ele><time>2020-05-21T12:28:01Z</time><name>PT9053</name></trkpt>
<trkpt lat="53.388268" lon="-1.653726"><ele>362</ele><time>2020-05-21T12:28:03Z</time><name>PT9054</name></trkpt>
<trkpt lat="53.388254" lon="-1.653728"><ele>362</ele><time>2020-05-21T12:28:03Z</time><name>PT9055</name></trkpt>
<trkpt lat="53.388243" lon="-1.653727"><ele>362</ele><time>2020-05-21T12:28:04Z</time><name>PT9056</name></trkpt>
<trkpt lat="53.388228" lon="-1.653736"><ele>363</ele><time>2020-05-21T12:28:06Z</time><name>PT9057</name></trkpt>
<trkpt lat="53.388208" lon="-1.653735"><ele>363</ele><time>2020-05-21T12:28:06Z</time><name>PT9058</name></trkpt>
<trkpt lat="53.388194" lon="-1.653738"><ele>362</ele><time>2020-05-21T12:28:07Z</time><name>PT9059</name></trkpt>
<trkpt lat="53.388183" lon="-1.653737"><ele>362</ele><time>2020-05-21T12:28:09Z</time><name>PT9060</name></trkpt>
<trkpt lat="53.388173" lon="-1.653736"><ele>362</ele><time>2020-05-21T12:28:09Z</time><name>PT9061</name></trkpt>
<trkpt lat="53.388164" lon="-1.653729"><ele>360</ele><time>2020-05-21T12:28:11Z</time><name>PT9062</name></trkpt>
<trkpt lat="53.388155" lon="-1.653730"><ele>360</ele><time>2020-05-21T12:28:12Z</time><name>PT9063</name></trkpt>
<trkpt lat="53.388142" lon="-1.653736"><ele>361</ele><time>2020-05-21T12:28:12Z</time><name>PT9064</name></trkpt>
<trkpt lat="53.388126" lon="-1.653737"><ele>361</ele><time>2020-05-21T12:28:13Z</time><name>PT9065</name></trkpt>
<trkpt lat="53.388108" lon="-1.653745"><ele>363</ele><time>2020-05-21T12:28:15Z</time><name>PT9066</name></trkpt>
<trkpt lat="53.388093" lon="-1.653755"><ele>364</ele><time>2020-05-21T12:28:15Z</time><name>PT9067</name></trkpt>
<trkpt lat="53.388080" lon="-1.653760"><ele>364</ele><time>2020-05-21T12:28:16Z</time><name>PT9068</name></trkpt>
<trkpt lat="53.388072" lon="-1.653758"><ele>363</ele><time>2020-05-21T12:28:18Z</time><name>PT9069</name></trkpt>
<trkpt lat="53.388064" lon="-1.653747"><ele>362</ele><time>2020-05-21T12:28:18Z</time><name>PT9070</name></trkpt>
<trkpt lat="53.388051" lon="-1.653745"><ele>363</ele><time>2020-05-21T12:28:19Z</time><name>PT9071</name></trkpt>
<trkpt lat="53.388038" lon="-1.653742"><ele>363</ele><time>2020-05-21T12:28:21Z</time><name>PT9072</name></trkpt>
<trkpt lat="53.388026" lon="-1.653739"><ele>363</ele><time>2020-05-21T12:28:21Z</time><name>PT9073</name></trkpt>
<trkpt lat="53.388010" lon="-1.653742"><ele>364</ele><time>2020-05-21T12:28:22Z</time><name>PT9074</name></trkpt>
<trkpt lat="53.387998" lon="-1.653747"><ele>363</ele><time>2020-05-21T12:28:24Z</time><name>PT9075</name></trkpt>
<trkpt lat="53.387983" lon="-1.653748"><ele>363</ele><time>2020-05-21T12:28:24Z</time><name>PT9076</name></trkpt>
<trkpt lat="53.387971" lon="-1.653748"><ele>363</ele><time>2020-05-21T12:28:25Z</time><name>PT9077</name></trkpt>
<trkpt lat="53.387961" lon="-1.653750"><ele>363</ele><time>2020-05-21T12:28:27Z</time><name>PT9078</name></trkpt>
<trkpt lat="53.387951" lon="-1.653746"><ele>362</ele><time>2020-05-21T12:28:27Z</time><name>PT9079</name></trkpt>
<trkpt lat="53.387940" lon="-1.653744"><ele>361</ele><time>2020-05-21T12:28:28Z</time><name>PT9080</name></trkpt>
<trkpt lat="53.387930" lon="-1.653736"><ele>361</ele><time>2020-05-21T12:28:30Z</time><name>PT9081</name></trkpt>
<trkpt lat="53.387916" lon="-1.653741"><ele>361</ele><time>2020-05-21T12:28:30Z</time><name>PT9082</name></trkpt>
<trkpt lat="53.387897" lon="-1.653749"><ele>361</ele><time>2020-05-21T12:28:31Z</time><name>PT9083</name></trkpt>
<trkpt lat="53.387878" lon="-1.653761"><ele>362</ele><time>2020-05-21T12:28:33Z</time><name>PT9084</name></trkpt>
<trkpt lat="53.387862" lon="-1.653767"><ele>362</ele><time>2020-05-21T12:28:33Z</time><name>PT9085</name></trkpt>
<trkpt lat="53.387850" lon="-1.653767"><ele>362</ele><time>2020-05-21T12:28:34Z</time><name>PT9086</name></trkpt>
<trkpt lat="53.387840" lon="-1.653769"><ele>362</ele><time>2020-05-21T12:28:36Z</time><name>PT9087</name></trkpt>
<trkpt lat="53.387828" lon="-1.653772"><ele>361</ele><time>2020-05-21T12:28:36Z</time><name>PT9088</name></trkpt>
<trkpt lat="53.387813" lon="-1.653776"><ele>361</ele><time>2020-05-21T12:28:37Z</time><name>PT9089</name></trkpt>
<trkpt lat="53.387798" lon="-1.653778"><ele>361</ele><time>2020-05-21T12:28:39Z</time><name>PT9090</name></trkpt>
<trkpt lat="53.387780" lon="-1.653782"><ele>362</ele><time>2020-05-21T12:28:39Z</time><name>PT9091</name></trkpt>
<trkpt lat="53.387760" lon="-1.653782"><ele>362</ele><time>2020-05-21T12:28:40Z</time><name>PT9092</name></trkpt>
<trkpt lat="53.387746" lon="-1.653782"><ele>362</ele><time>2020-05-21T12:28:42Z</time><name>PT9093</name></trkpt>
<trkpt lat="53.387734" lon="-1.653784"><ele>362</ele><time>2020-05-21T12:28:42Z</time><name>PT9094</name></trkpt>
<trkpt lat="53.387719" lon="-1.653781"><ele>361</ele><time>2020-05-21T12:28:43Z</time><name>PT9095</name></trkpt>
<trkpt lat="53.387705" lon="-1.653779"><ele>360</ele><time>2020-05-21T12:28:45Z</time><name>PT9096</name></trkpt>
<trkpt lat="53.387694" lon="-1.653771"><ele>361</ele><time>2020-05-21T12:28:45Z</time><name>PT9097</name></trkpt>
<trkpt lat="53.387678" lon="-1.653772"><ele>362</ele><time>2020-05-21T12:28:46Z</time><name>PT9098</name></trkpt>
<trkpt lat="53.387657" lon="-1.653777"><ele>362</ele><time>2020-05-21T12:28:48Z</time><name>PT9099</name></trkpt>
<trkpt lat="53.387640" lon="-1.653779"><ele>362</ele><time>2020-05-21T12:28:48Z</time><name>PT9100</name></trkpt>
<trkpt lat="53.387628" lon="-1.653775"><ele>361</ele><time>2020-05-21T12:28:49Z</time><name>PT9101</name></trkpt>
<trkpt lat="53.387616" lon="-1.653773"><ele>361</ele><time>2020-05-21T12:28:51Z</time><name>PT9102</name></trkpt>
<trkpt lat="53.387603" lon="-1.653773"><ele>362</ele><time>2020-05-21T12:28:51Z</time><name>PT9103</name></trkpt>
<trkpt lat="53.387592" lon="-1.653773"><ele>363</ele><time>2020-05-21T12:28:52Z</time><name>PT9104</name></trkpt>
<trkpt lat="53.387580" lon="-1.653771"><ele>363</ele><time>2020-05-21T12:28:54Z</time><name>PT9105</name></trkpt>
<trkpt lat="53.387567" lon="-1.653776"><ele>363</ele><time>2020-05-21T12:28:54Z</time><name>PT9106</name></trkpt>
<trkpt lat="53.387551" lon="-1.653782"><ele>364</ele><time>2020-05-21T12:28:55Z</time><name>PT9107</name></trkpt>
<trkpt lat="53.387539" lon="-1.653787"><ele>363</ele><time>2020-05-21T12:28:56Z</time><name>PT9108</name></trkpt>
<trkpt lat="53.387529" lon="-1.653792"><ele>363</ele><time>2020-05-21T12:28:57Z</time><name>PT9109</name></trkpt>
<trkpt lat="53.387518" lon="-1.653803"><ele>363</ele><time>2020-05-21T12:28:58Z</time><name>PT9110</name></trkpt>
<trkpt lat="53.387505" lon="-1.653813"><ele>362</ele><time>2020-05-21T12:29:00Z</time><name>PT9111</name></trkpt>
<trkpt lat="53.387493" lon="-1.653823"><ele>362</ele><time>2020-05-21T12:29:00Z</time><name>PT9112</name></trkpt>
<trkpt lat="53.387481" lon="-1.653840"><ele>362</ele><time>2020-05-21T12:29:01Z</time><name>PT9113</name></trkpt>
<trkpt lat="53.387468" lon="-1.653864"><ele>362</ele><time>2020-05-21T12:29:02Z</time><name>PT9114</name></trkpt>
<trkpt lat="53.387460" lon="-1.653882"><ele>362</ele><time>2020-05-21T12:29:03Z</time><name>PT9115</name></trkpt>
<trkpt lat="53.387455" lon="-1.653895"><ele>362</ele><time>2020-05-21T12:29:04Z</time><name>PT9116</name></trkpt>
<trkpt lat="53.387451" lon="-1.653911"><ele>362</ele><time>2020-05-21T12:29:06Z</time><name>PT9117</name></trkpt>
<trkpt lat="53.387443" lon="-1.653929"><ele>362</ele><time>2020-05-21T12:29:06Z</time><name>PT9118</name></trkpt>
<trkpt lat="53.387436" lon="-1.653946"><ele>361</ele><time>2020-05-21T12:29:07Z</time><name>PT9119</name></trkpt>
<trkpt lat="53.387431" lon="-1.653964"><ele>361</ele><time>2020-05-21T12:29:08Z</time><name>PT9120</name></trkpt>
<trkpt lat="53.387423" lon="-1.653982"><ele>361</ele><time>2020-05-21T12:29:09Z</time><name>PT9121</name></trkpt>
<trkpt lat="53.387412" lon="-1.654003"><ele>361</ele><time>2020-05-21T12:29:10Z</time><name>PT9122</name></trkpt>
<trkpt lat="53.387405" lon="-1.654021"><ele>361</ele><time>2020-05-21T12:29:12Z</time><name>PT9123</name></trkpt>
<trkpt lat="53.387399" lon="-1.654038"><ele>361</ele><time>2020-05-21T12:29:12Z</time><name>PT9124</name></trkpt>
<trkpt lat="53.387401" lon="-1.654070"><ele>362</ele><time>2020-05-21T12:29:13Z</time><name>PT9125</name></trkpt>
<trkpt lat="53.387393" lon="-1.654094"><ele>362</ele><time>2020-05-21T12:29:15Z</time><name>PT9126</name></trkpt>
<trkpt lat="53.387384" lon="-1.654109"><ele>362</ele><time>2020-05-21T12:29:15Z</time><name>PT9127</name></trkpt>
<trkpt lat="53.387377" lon="-1.654129"><ele>361</ele><time>2020-05-21T12:29:16Z</time><name>PT9128</name></trkpt>
<trkpt lat="53.387367" lon="-1.654153"><ele>362</ele><time>2020-05-21T12:29:17Z</time><name>PT9129</name></trkpt>
<trkpt lat="53.387360" lon="-1.654172"><ele>362</ele><time>2020-05-21T12:29:18Z</time><name>PT9130</name></trkpt>
<trkpt lat="53.387358" lon="-1.654188"><ele>362</ele><time>2020-05-21T12:29:19Z</time><name>PT9131</name></trkpt>
<trkpt lat="53.387353" lon="-1.654205"><ele>361</ele><time>2020-05-21T12:29:21Z</time><name>PT9132</name></trkpt>
<trkpt lat="53.387348" lon="-1.654225"><ele>361</ele><time>2020-05-21T12:29:21Z</time><name>PT9133</name></trkpt>
<trkpt lat="53.387344" lon="-1.654246"><ele>361</ele><time>2020-05-21T12:29:22Z</time><name>PT9134</name></trkpt>
<trkpt lat="53.387339" lon="-1.654265"><ele>361</ele><time>2020-05-21T12:29:24Z</time><name>PT9135</name></trkpt>
<trkpt lat="53.387330" lon="-1.654292"><ele>361</ele><time>2020-05-21T12:29:24Z</time><name>PT9136</name></trkpt>
<trkpt lat="53.387322" lon="-1.654312"><ele>361</ele><time>2020-05-21T12:29:25Z</time><name>PT9137</name></trkpt>
<trkpt lat="53.387317" lon="-1.654324"><ele>361</ele><time>2020-05-21T12:29:27Z</time><name>PT9138</name></trkpt>
<trkpt lat="53.387309" lon="-1.654341"><ele>361</ele><time>2020-05-21T12:29:27Z</time><name>PT9139</name></trkpt>
<trkpt lat="53.387296" lon="-1.654354"><ele>361</ele><time>2020-05-21T12:29:28Z</time><name>PT9140</name></trkpt>
<trkpt lat="53.387283" lon="-1.654364"><ele>360</ele><time>2020-05-21T12:29:30Z</time><name>PT9141</name></trkpt>
<trkpt lat="53.387273" lon="-1.654381"><ele>359</ele><time>2020-05-21T12:29:30Z</time><name>PT9142</name></trkpt>
<trkpt lat="53.387259" lon="-1.654399"><ele>359</ele><time>2020-05-21T12:29:31Z</time><name>PT9143</name></trkpt>
<trkpt lat="53.387245" lon="-1.654416"><ele>359</ele><time>2020-05-21T12:29:33Z</time><name>PT9144</name></trkpt>
<trkpt lat="53.387230" lon="-1.654426"><ele>359</ele><time>2020-05-21T12:29:33Z</time><name>PT9145</name></trkpt>
<trkpt lat="53.387223" lon="-1.654433"><ele>360</ele><time>2020-05-21T12:29:34Z</time><name>PT9146</name></trkpt>
<trkpt lat="53.387218" lon="-1.654443"><ele>361</ele><time>2020-05-21T12:29:36Z</time><name>PT9147</name></trkpt>
<trkpt lat="53.387213" lon="-1.654446"><ele>362</ele><time>2020-05-21T12:29:36Z</time><name>PT9148</name></trkpt>
<trkpt lat="53.387209" lon="-1.654442"><ele>361</ele><time>2020-05-21T12:29:37Z</time><name>PT9149</name></trkpt>
<trkpt lat="53.387200" lon="-1.654442"><ele>362</ele><time>2020-05-21T12:29:39Z</time><name>PT9150</name></trkpt>
<trkpt lat="53.387194" lon="-1.654447"><ele>362</ele><time>2020-05-21T12:29:39Z</time><name>PT9151</name></trkpt>
<trkpt lat="53.387186" lon="-1.654457"><ele>361</ele><time>2020-05-21T12:29:40Z</time><name>PT9152</name></trkpt>
<trkpt lat="53.387175" lon="-1.654469"><ele>362</ele><time>2020-05-21T12:29:41Z</time><name>PT9153</name></trkpt>
<trkpt lat="53.387168" lon="-1.654475"><ele>362</ele><time>2020-05-21T12:29:42Z</time><name>PT9154</name></trkpt>
<trkpt lat="53.387166" lon="-1.654472"><ele>362</ele><time>2020-05-21T12:29:43Z</time><name>PT9155</name></trkpt>
<trkpt lat="53.387166" lon="-1.654470"><ele>362</ele><time>2020-05-21T12:29:45Z</time><name>PT9156</name></trkpt>
<trkpt lat="53.387166" lon="-1.654475"><ele>362</ele><time>2020-05-21T12:29:45Z</time><name>PT9157</name></trkpt>
<trkpt lat="53.387164" lon="-1.654477"><ele>361</ele><time>2020-05-21T12:29:46Z</time><name>PT9158</name></trkpt>
<trkpt lat="53.387155" lon="-1.654483"><ele>361</ele><time>2020-05-21T12:29:55Z</time><name>PT9159</name></trkpt>
<trkpt lat="53.387143" lon="-1.654477"><ele>362</ele><time>2020-05-21T12:29:56Z</time><name>PT9160</name></trkpt>
<trkpt lat="53.387130" lon="-1.654477"><ele>362</ele><time>2020-05-21T12:29:57Z</time><name>PT9161</name></trkpt>
<trkpt lat="53.387120" lon="-1.654476"><ele>361</ele><time>2020-05-21T12:29:58Z</time><name>PT9162</name></trkpt>
<trkpt lat="53.387107" lon="-1.654474"><ele>361</ele><time>2020-05-21T12:29:59Z</time><name>PT9163</name></trkpt>
<trkpt lat="53.387084" lon="-1.654475"><ele>361</ele><time>2020-05-21T12:30:01Z</time><name>PT9164</name></trkpt>
<trkpt lat="53.387074" lon="-1.654474"><ele>360</ele><time>2020-05-21T12:30:03Z</time><name>PT9165</name></trkpt>
<trkpt lat="53.387061" lon="-1.654476"><ele>360</ele><time>2020-05-21T12:30:03Z</time><name>PT9166</name></trkpt>
<trkpt lat="53.387049" lon="-1.654476"><ele>361</ele><time>2020-05-21T12:30:04Z</time><name>PT9167</name></trkpt>
<trkpt lat="53.387038" lon="-1.654472"><ele>361</ele><time>2020-05-21T12:30:06Z</time><name>PT9168</name></trkpt>
<trkpt lat="53.387030" lon="-1.654466"><ele>361</ele><time>2020-05-21T12:30:06Z</time><name>PT9169</name></trkpt>
<trkpt lat="53.387019" lon="-1.654461"><ele>361</ele><time>2020-05-21T12:30:07Z</time><name>PT9170</name></trkpt>
<trkpt lat="53.387008" lon="-1.654457"><ele>361</ele><time>2020-05-21T12:30:09Z</time><name>PT9171</name></trkpt>
<trkpt lat="53.386994" lon="-1.654456"><ele>361</ele><time>2020-05-21T12:30:09Z</time><name>PT9172</name></trkpt>
<trkpt lat="53.386984" lon="-1.654460"><ele>361</ele><time>2020-05-21T12:30:10Z</time><name>PT9173</name></trkpt>
<trkpt lat="53.386971" lon="-1.654460"><ele>361</ele><time>2020-05-21T12:30:12Z</time><name>PT9174</name></trkpt>
<trkpt lat="53.386957" lon="-1.654462"><ele>360</ele><time>2020-05-21T12:30:12Z</time><name>PT9175</name></trkpt>
<trkpt lat="53.386941" lon="-1.654463"><ele>361</ele><time>2020-05-21T12:30:13Z</time><name>PT9176</name></trkpt>
<trkpt lat="53.386925" lon="-1.654467"><ele>360</ele><time>2020-05-21T12:30:15Z</time><name>PT9177</name></trkpt>
<trkpt lat="53.386912" lon="-1.654475"><ele>360</ele><time>2020-05-21T12:30:15Z</time><name>PT9178</name></trkpt>
<trkpt lat="53.386905" lon="-1.654477"><ele>360</ele><time>2020-05-21T12:30:16Z</time><name>PT9179</name></trkpt>
<trkpt lat="53.386894" lon="-1.654479"><ele>359</ele><time>2020-05-21T12:30:18Z</time><name>PT9180</name></trkpt>
<trkpt lat="53.386881" lon="-1.654482"><ele>359</ele><time>2020-05-21T12:30:18Z</time><name>PT9181</name></trkpt>
<trkpt lat="53.386868" lon="-1.654483"><ele>360</ele><time>2020-05-21T12:30:19Z</time><name>PT9182</name></trkpt>
<trkpt lat="53.386855" lon="-1.654484"><ele>360</ele><time>2020-05-21T12:30:21Z</time><name>PT9183</name></trkpt>
<trkpt lat="53.386841" lon="-1.654487"><ele>359</ele><time>2020-05-21T12:30:21Z</time><name>PT9184</name></trkpt>
<trkpt lat="53.386833" lon="-1.654490"><ele>359</ele><time>2020-05-21T12:30:22Z</time><name>PT9185</name></trkpt>
<trkpt lat="53.386821" lon="-1.654497"><ele>359</ele><time>2020-05-21T12:30:24Z</time><name>PT9186</name></trkpt>
<trkpt lat="53.386806" lon="-1.654501"><ele>359</ele><time>2020-05-21T12:30:24Z</time><name>PT9187</name></trkpt>
<trkpt lat="53.386791" lon="-1.654497"><ele>360</ele><time>2020-05-21T12:30:25Z</time><name>PT9188</name></trkpt>
<trkpt lat="53.386777" lon="-1.654503"><ele>360</ele><time>2020-05-21T12:30:27Z</time><name>PT9189</name></trkpt>
<trkpt lat="53.386764" lon="-1.654510"><ele>360</ele><time>2020-05-21T12:30:27Z</time><name>PT9190</name></trkpt>
<trkpt lat="53.386756" lon="-1.654512"><ele>360</ele><time>2020-05-21T12:30:28Z</time><name>PT9191</name></trkpt>
<trkpt lat="53.386745" lon="-1.654512"><ele>359</ele><time>2020-05-21T12:30:29Z</time><name>PT9192</name></trkpt>
<trkpt lat="53.386734" lon="-1.654512"><ele>359</ele><time>2020-05-21T12:30:30Z</time><name>PT9193</name></trkpt>
<trkpt lat="53.386720" lon="-1.654516"><ele>359</ele><time>2020-05-21T12:30:31Z</time><name>PT9194</name></trkpt>
<trkpt lat="53.386704" lon="-1.654524"><ele>360</ele><time>2020-05-21T12:30:33Z</time><name>PT9195</name></trkpt>
<trkpt lat="53.386693" lon="-1.654533"><ele>360</ele><time>2020-05-21T12:30:33Z</time><name>PT9196</name></trkpt>
<trkpt lat="53.386684" lon="-1.654535"><ele>360</ele><time>2020-05-21T12:30:34Z</time><name>PT9197</name></trkpt>
<trkpt lat="53.386670" lon="-1.654533"><ele>360</ele><time>2020-05-21T12:30:36Z</time><name>PT9198</name></trkpt>
<trkpt lat="53.386654" lon="-1.654533"><ele>360</ele><time>2020-05-21T12:30:36Z</time><name>PT9199</name></trkpt>
<trkpt lat="53.386642" lon="-1.654531"><ele>361</ele><time>2020-05-21T12:30:37Z</time><name>PT9200</name></trkpt>
<trkpt lat="53.386631" lon="-1.654528"><ele>361</ele><time>2020-05-21T12:30:39Z</time><name>PT9201</name></trkpt>
<trkpt lat="53.386621" lon="-1.654530"><ele>360</ele><time>2020-05-21T12:30:39Z</time><name>PT9202</name></trkpt>
<trkpt lat="53.386613" lon="-1.654540"><ele>361</ele><time>2020-05-21T12:30:40Z</time><name>PT9203</name></trkpt>
<trkpt lat="53.386603" lon="-1.654546"><ele>361</ele><time>2020-05-21T12:30:41Z</time><name>PT9204</name></trkpt>
<trkpt lat="53.386592" lon="-1.654555"><ele>362</ele><time>2020-05-21T12:30:42Z</time><name>PT9205</name></trkpt>
<trkpt lat="53.386578" lon="-1.654564"><ele>362</ele><time>2020-05-21T12:30:44Z</time><name>PT9206</name></trkpt>
<trkpt lat="53.386564" lon="-1.654574"><ele>362</ele><time>2020-05-21T12:30:44Z</time><name>PT9207</name></trkpt>
<trkpt lat="53.386555" lon="-1.654577"><ele>362</ele><time>2020-05-21T12:30:45Z</time><name>PT9208</name></trkpt>
<trkpt lat="53.386546" lon="-1.654582"><ele>362</ele><time>2020-05-21T12:30:47Z</time><name>PT9209</name></trkpt>
<trkpt lat="53.386535" lon="-1.654585"><ele>362</ele><time>2020-05-21T12:30:47Z</time><name>PT9210</name></trkpt>
<trkpt lat="53.386520" lon="-1.654584"><ele>363</ele><time>2020-05-21T12:30:48Z</time><name>PT9211</name></trkpt>
<trkpt lat="53.386505" lon="-1.654583"><ele>363</ele><time>2020-05-21T12:30:50Z</time><name>PT9212</name></trkpt>
<trkpt lat="53.386496" lon="-1.654584"><ele>363</ele><time>2020-05-21T12:30:50Z</time><name>PT9213</name></trkpt>
<trkpt lat="53.386487" lon="-1.654586"><ele>364</ele><time>2020-05-21T12:30:51Z</time><name>PT9214</name></trkpt>
<trkpt lat="53.386476" lon="-1.654587"><ele>364</ele><time>2020-05-21T12:30:53Z</time><name>PT9215</name></trkpt>
<trkpt lat="53.386462" lon="-1.654590"><ele>364</ele><time>2020-05-21T12:30:53Z</time><name>PT9216</name></trkpt>
<trkpt lat="53.386450" lon="-1.654593"><ele>365</ele><time>2020-05-21T12:30:54Z</time><name>PT9217</name></trkpt>
<trkpt lat="53.386439" lon="-1.654598"><ele>364</ele><time>2020-05-21T12:30:56Z</time><name>PT9218</name></trkpt>
<trkpt lat="53.386435" lon="-1.654599"><ele>365</ele><time>2020-05-21T12:30:56Z</time><name>PT9219</name></trkpt>
<trkpt lat="53.386430" lon="-1.654600"><ele>365</ele><time>2020-05-21T12:30:57Z</time><name>PT9220</name></trkpt>
<trkpt lat="53.386422" lon="-1.654598"><ele>365</ele><time>2020-05-21T12:30:59Z</time><name>PT9221</name></trkpt>
<trkpt lat="53.386410" lon="-1.654599"><ele>365</ele><time>2020-05-21T12:30:59Z</time><name>PT9222</name></trkpt>
<trkpt lat="53.386396" lon="-1.654602"><ele>366</ele><time>2020-05-21T12:31:00Z</time><name>PT9223</name></trkpt>
<trkpt lat="53.386382" lon="-1.654607"><ele>366</ele><time>2020-05-21T12:31:01Z</time><name>PT9224</name></trkpt>
<trkpt lat="53.386371" lon="-1.654606"><ele>365</ele><time>2020-05-21T12:31:02Z</time><name>PT9225</name></trkpt>
<trkpt lat="53.386362" lon="-1.654609"><ele>365</ele><time>2020-05-21T12:31:03Z</time><name>PT9226</name></trkpt>
<trkpt lat="53.386351" lon="-1.654610"><ele>364</ele><time>2020-05-21T12:31:05Z</time><name>PT9227</name></trkpt>
<trkpt lat="53.386339" lon="-1.654613"><ele>365</ele><time>2020-05-21T12:31:05Z</time><name>PT9228</name></trkpt>
<trkpt lat="53.386326" lon="-1.654619"><ele>365</ele><time>2020-05-21T12:31:06Z</time><name>PT9229</name></trkpt>
<trkpt lat="53.386311" lon="-1.654620"><ele>366</ele><time>2020-05-21T12:31:07Z</time><name>PT9230</name></trkpt>
<trkpt lat="53.386300" lon="-1.654618"><ele>366</ele><time>2020-05-21T12:31:08Z</time><name>PT9231</name></trkpt>
<trkpt lat="53.386293" lon="-1.654617"><ele>366</ele><time>2020-05-21T12:31:09Z</time><name>PT9232</name></trkpt>
<trkpt lat="53.386285" lon="-1.654618"><ele>366</ele><time>2020-05-21T12:31:11Z</time><name>PT9233</name></trkpt>
<trkpt lat="53.386274" lon="-1.654620"><ele>366</ele><time>2020-05-21T12:31:11Z</time><name>PT9234</name></trkpt>
<trkpt lat="53.386260" lon="-1.654621"><ele>366</ele><time>2020-05-21T12:31:12Z</time><name>PT9235</name></trkpt>
<trkpt lat="53.386246" lon="-1.654627"><ele>367</ele><time>2020-05-21T12:31:13Z</time><name>PT9236</name></trkpt>
<trkpt lat="53.386228" lon="-1.654633"><ele>366</ele><time>2020-05-21T12:31:14Z</time><name>PT9237</name></trkpt>
<trkpt lat="53.386212" lon="-1.654635"><ele>367</ele><time>2020-05-21T12:31:15Z</time><name>PT9238</name></trkpt>
<trkpt lat="53.386202" lon="-1.654639"><ele>367</ele><time>2020-05-21T12:31:17Z</time><name>PT9239</name></trkpt>
<trkpt lat="53.386190" lon="-1.654642"><ele>367</ele><time>2020-05-21T12:31:17Z</time><name>PT9240</name></trkpt>
<trkpt lat="53.386179" lon="-1.654641"><ele>368</ele><time>2020-05-21T12:31:18Z</time><name>PT9241</name></trkpt>
<trkpt lat="53.386166" lon="-1.654644"><ele>368</ele><time>2020-05-21T12:31:19Z</time><name>PT9242</name></trkpt>
<trkpt lat="53.386152" lon="-1.654649"><ele>369</ele><time>2020-05-21T12:31:20Z</time><name>PT9243</name></trkpt>
<trkpt lat="53.386139" lon="-1.654652"><ele>370</ele><time>2020-05-21T12:31:22Z</time><name>PT9244</name></trkpt>
<trkpt lat="53.386129" lon="-1.654648"><ele>370</ele><time>2020-05-21T12:31:22Z</time><name>PT9245</name></trkpt>
<trkpt lat="53.386119" lon="-1.654648"><ele>370</ele><time>2020-05-21T12:31:23Z</time><name>PT9246</name></trkpt>
<trkpt lat="53.386110" lon="-1.654645"><ele>370</ele><time>2020-05-21T12:31:25Z</time><name>PT9247</name></trkpt>
<trkpt lat="53.386099" lon="-1.654641"><ele>370</ele><time>2020-05-21T12:31:25Z</time><name>PT9248</name></trkpt>
<trkpt lat="53.386088" lon="-1.654645"><ele>371</ele><time>2020-05-21T12:31:27Z</time><name>PT9249</name></trkpt>
<trkpt lat="53.386079" lon="-1.654643"><ele>371</ele><time>2020-05-21T12:31:28Z</time><name>PT9250</name></trkpt>
<trkpt lat="53.386068" lon="-1.654643"><ele>372</ele><time>2020-05-21T12:31:28Z</time><name>PT9251</name></trkpt>
<trkpt lat="53.386058" lon="-1.654647"><ele>372</ele><time>2020-05-21T12:31:29Z</time><name>PT9252</name></trkpt>
<trkpt lat="53.386051" lon="-1.654649"><ele>371</ele><time>2020-05-21T12:31:31Z</time><name>PT9253</name></trkpt>
<trkpt lat="53.386042" lon="-1.654650"><ele>372</ele><time>2020-05-21T12:31:31Z</time><name>PT9254</name></trkpt>
<trkpt lat="53.386030" lon="-1.654653"><ele>372</ele><time>2020-05-21T12:31:32Z</time><name>PT9255</name></trkpt>
<trkpt lat="53.386017" lon="-1.654655"><ele>373</ele><time>2020-05-21T12:31:34Z</time><name>PT9256</name></trkpt>
<trkpt lat="53.386001" lon="-1.654652"><ele>373</ele><time>2020-05-21T12:31:34Z</time><name>PT9257</name></trkpt>
<trkpt lat="53.385985" lon="-1.654649"><ele>373</ele><time>2020-05-21T12:31:35Z</time><name>PT9258</name></trkpt>
<trkpt lat="53.385974" lon="-1.654644"><ele>373</ele><time>2020-05-21T12:31:37Z</time><name>PT9259</name></trkpt>
<trkpt lat="53.385967" lon="-1.654645"><ele>373</ele><time>2020-05-21T12:31:37Z</time><name>PT9260</name></trkpt>
<trkpt lat="53.385960" lon="-1.654648"><ele>373</ele><time>2020-05-21T12:31:38Z</time><name>PT9261</name></trkpt>
<trkpt lat="53.385955" lon="-1.654654"><ele>373</ele><time>2020-05-21T12:31:40Z</time><name>PT9262</name></trkpt>
<trkpt lat="53.385948" lon="-1.654655"><ele>373</ele><time>2020-05-21T12:31:40Z</time><name>PT9263</name></trkpt>
<trkpt lat="53.385937" lon="-1.654655"><ele>373</ele><time>2020-05-21T12:31:41Z</time><name>PT9264</name></trkpt>
<trkpt lat="53.385923" lon="-1.654656"><ele>374</ele><time>2020-05-21T12:31:43Z</time><name>PT9265</name></trkpt>
<trkpt lat="53.385912" lon="-1.654654"><ele>374</ele><time>2020-05-21T12:31:43Z</time><name>PT9266</name></trkpt>
<trkpt lat="53.385902" lon="-1.654649"><ele>373</ele><time>2020-05-21T12:31:44Z</time><name>PT9267</name></trkpt>
<trkpt lat="53.385894" lon="-1.654640"><ele>374</ele><time>2020-05-21T12:31:46Z</time><name>PT9268</name></trkpt>
<trkpt lat="53.385883" lon="-1.654633"><ele>374</ele><time>2020-05-21T12:31:46Z</time><name>PT9269</name></trkpt>
<trkpt lat="53.385870" lon="-1.654634"><ele>375</ele><time>2020-05-21T12:31:47Z</time><name>PT9270</name></trkpt>
<trkpt lat="53.385858" lon="-1.654636"><ele>375</ele><time>2020-05-21T12:31:49Z</time><name>PT9271</name></trkpt>
<trkpt lat="53.385850" lon="-1.654634"><ele>375</ele><time>2020-05-21T12:31:49Z</time><name>PT9272</name></trkpt>
<trkpt lat="53.385843" lon="-1.654635"><ele>375</ele><time>2020-05-21T12:31:50Z</time><name>PT9273</name></trkpt>
<trkpt lat="53.385832" lon="-1.654637"><ele>374</ele><time>2020-05-21T12:31:52Z</time><name>PT9274</name></trkpt>
<trkpt lat="53.385821" lon="-1.654639"><ele>374</ele><time>2020-05-21T12:31:52Z</time><name>PT9275</name></trkpt>
<trkpt lat="53.385811" lon="-1.654642"><ele>374</ele><time>2020-05-21T12:31:53Z</time><name>PT9276</name></trkpt>
<trkpt lat="53.385799" lon="-1.654644"><ele>375</ele><time>2020-05-21T12:31:55Z</time><name>PT9277</name></trkpt>
<trkpt lat="53.385790" lon="-1.654644"><ele>374</ele><time>2020-05-21T12:31:55Z</time><name>PT9278</name></trkpt>
<trkpt lat="53.385783" lon="-1.654643"><ele>374</ele><time>2020-05-21T12:31:56Z</time><name>PT9279</name></trkpt>
<trkpt lat="53.385775" lon="-1.654641"><ele>374</ele><time>2020-05-21T12:31:58Z</time><name>PT9280</name></trkpt>
<trkpt lat="53.385764" lon="-1.654643"><ele>375</ele><time>2020-05-21T12:31:58Z</time><name>PT9281</name></trkpt>
<trkpt lat="53.385754" lon="-1.654643"><ele>374</ele><time>2020-05-21T12:31:59Z</time><name>PT9282</name></trkpt>
<trkpt lat="53.385748" lon="-1.654643"><ele>374</ele><time>2020-05-21T12:32:01Z</time><name>PT9283</name></trkpt>
<trkpt lat="53.385739" lon="-1.654642"><ele>374</ele><time>2020-05-21T12:32:01Z</time><name>PT9284</name></trkpt>
<trkpt lat="53.385731" lon="-1.654645"><ele>374</ele><time>2020-05-21T12:32:02Z</time><name>PT9285</name></trkpt>
<trkpt lat="53.385722" lon="-1.654648"><ele>374</ele><time>2020-05-21T12:32:04Z</time><name>PT9286</name></trkpt>
<trkpt lat="53.385716" lon="-1.654650"><ele>374</ele><time>2020-05-21T12:32:04Z</time><name>PT9287</name></trkpt>
<trkpt lat="53.385710" lon="-1.654649"><ele>374</ele><time>2020-05-21T12:32:05Z</time><name>PT9288</name></trkpt>
<trkpt lat="53.385699" lon="-1.654651"><ele>374</ele><time>2020-05-21T12:32:06Z</time><name>PT9289</name></trkpt>
<trkpt lat="53.385689" lon="-1.654652"><ele>374</ele><time>2020-05-21T12:32:07Z</time><name>PT9290</name></trkpt>
<trkpt lat="53.385683" lon="-1.654651"><ele>374</ele><time>2020-05-21T12:32:08Z</time><name>PT9291</name></trkpt>
<trkpt lat="53.385674" lon="-1.654652"><ele>374</ele><time>2020-05-21T12:32:09Z</time><name>PT9292</name></trkpt>
<trkpt lat="53.385666" lon="-1.654656"><ele>374</ele><time>2020-05-21T12:32:10Z</time><name>PT9293</name></trkpt>
<trkpt lat="53.385655" lon="-1.654661"><ele>374</ele><time>2020-05-21T12:32:12Z</time><name>PT9294</name></trkpt>
<trkpt lat="53.385646" lon="-1.654661"><ele>374</ele><time>2020-05-21T12:32:12Z</time><name>PT9295</name></trkpt>
<trkpt lat="53.385636" lon="-1.654658"><ele>373</ele><time>2020-05-21T12:32:13Z</time><name>PT9296</name></trkpt>
<trkpt lat="53.385625" lon="-1.654659"><ele>373</ele><time>2020-05-21T12:32:15Z</time><name>PT9297</name></trkpt>
<trkpt lat="53.385618" lon="-1.654663"><ele>375</ele><time>2020-05-21T12:32:15Z</time><name>PT9298</name></trkpt>
<trkpt lat="53.385605" lon="-1.654673"><ele>375</ele><time>2020-05-21T12:32:16Z</time><name>PT9299</name></trkpt>
<trkpt lat="53.385592" lon="-1.654674"><ele>374</ele><time>2020-05-21T12:32:18Z</time><name>PT9300</name></trkpt>
<trkpt lat="53.385582" lon="-1.654676"><ele>375</ele><time>2020-05-21T12:32:18Z</time><name>PT9301</name></trkpt>
<trkpt lat="53.385574" lon="-1.654677"><ele>375</ele><time>2020-05-21T12:32:19Z</time><name>PT9302</name></trkpt>
<trkpt lat="53.385569" lon="-1.654679"><ele>377</ele><time>2020-05-21T12:32:21Z</time><name>PT9303</name></trkpt>
<trkpt lat="53.385561" lon="-1.654684"><ele>377</ele><time>2020-05-21T12:32:21Z</time><name>PT9304</name></trkpt>
<trkpt lat="53.385550" lon="-1.654688"><ele>377</ele><time>2020-05-21T12:32:22Z</time><name>PT9305</name></trkpt>
<trkpt lat="53.385536" lon="-1.654689"><ele>377</ele><time>2020-05-21T12:32:24Z</time><name>PT9306</name></trkpt>
<trkpt lat="53.385525" lon="-1.654688"><ele>377</ele><time>2020-05-21T12:32:24Z</time><name>PT9307</name></trkpt>
<trkpt lat="53.385516" lon="-1.654685"><ele>377</ele><time>2020-05-21T12:32:25Z</time><name>PT9308</name></trkpt>
<trkpt lat="53.385509" lon="-1.654689"><ele>377</ele><time>2020-05-21T12:32:27Z</time><name>PT9309</name></trkpt>
<trkpt lat="53.385497" lon="-1.654692"><ele>377</ele><time>2020-05-21T12:32:27Z</time><name>PT9310</name></trkpt>
<trkpt lat="53.385486" lon="-1.654689"><ele>377</ele><time>2020-05-21T12:32:28Z</time><name>PT9311</name></trkpt>
<trkpt lat="53.385472" lon="-1.654690"><ele>377</ele><time>2020-05-21T12:32:30Z</time><name>PT9312</name></trkpt>
<trkpt lat="53.385458" lon="-1.654689"><ele>377</ele><time>2020-05-21T12:32:30Z</time><name>PT9313</name></trkpt>
<trkpt lat="53.385450" lon="-1.654686"><ele>377</ele><time>2020-05-21T12:32:31Z</time><name>PT9314</name></trkpt>
<trkpt lat="53.385446" lon="-1.654682"><ele>376</ele><time>2020-05-21T12:32:33Z</time><name>PT9315</name></trkpt>
<trkpt lat="53.385436" lon="-1.654681"><ele>376</ele><time>2020-05-21T12:32:33Z</time><name>PT9316</name></trkpt>
<trkpt lat="53.385423" lon="-1.654686"><ele>376</ele><time>2020-05-21T12:32:34Z</time><name>PT9317</name></trkpt>
<trkpt lat="53.385409" lon="-1.654688"><ele>376</ele><time>2020-05-21T12:32:35Z</time><name>PT9318</name></trkpt>
<trkpt lat="53.385394" lon="-1.654689"><ele>376</ele><time>2020-05-21T12:32:36Z</time><name>PT9319</name></trkpt>
<trkpt lat="53.385380" lon="-1.654684"><ele>376</ele><time>2020-05-21T12:32:38Z</time><name>PT9320</name></trkpt>
<trkpt lat="53.385372" lon="-1.654681"><ele>377</ele><time>2020-05-21T12:32:38Z</time><name>PT9321</name></trkpt>
<trkpt lat="53.385365" lon="-1.654680"><ele>377</ele><time>2020-05-21T12:32:39Z</time><name>PT9322</name></trkpt>
<trkpt lat="53.385353" lon="-1.654681"><ele>377</ele><time>2020-05-21T12:32:41Z</time><name>PT9323</name></trkpt>
<trkpt lat="53.385342" lon="-1.654682"><ele>377</ele><time>2020-05-21T12:32:41Z</time><name>PT9324</name></trkpt>
<trkpt lat="53.385329" lon="-1.654687"><ele>377</ele><time>2020-05-21T12:32:42Z</time><name>PT9325</name></trkpt>
<trkpt lat="53.385316" lon="-1.654691"><ele>378</ele><time>2020-05-21T12:32:44Z</time><name>PT9326</name></trkpt>
<trkpt lat="53.385304" lon="-1.654691"><ele>378</ele><time>2020-05-21T12:32:44Z</time><name>PT9327</name></trkpt>
<trkpt lat="53.385295" lon="-1.654691"><ele>377</ele><time>2020-05-21T12:32:45Z</time><name>PT9328</name></trkpt>
<trkpt lat="53.385288" lon="-1.654692"><ele>377</ele><time>2020-05-21T12:32:47Z</time><name>PT9329</name></trkpt>
<trkpt lat="53.385280" lon="-1.654688"><ele>377</ele><time>2020-05-21T12:32:47Z</time><name>PT9330</name></trkpt>
<trkpt lat="53.385268" lon="-1.654688"><ele>377</ele><time>2020-05-21T12:32:48Z</time><name>PT9331</name></trkpt>
<trkpt lat="53.385255" lon="-1.654687"><ele>378</ele><time>2020-05-21T12:32:50Z</time><name>PT9332</name></trkpt>
<trkpt lat="53.385246" lon="-1.654687"><ele>378</ele><time>2020-05-21T12:32:50Z</time><name>PT9333</name></trkpt>
<trkpt lat="53.385238" lon="-1.654689"><ele>378</ele><time>2020-05-21T12:32:51Z</time><name>PT9334</name></trkpt>
<trkpt lat="53.385227" lon="-1.654691"><ele>378</ele><time>2020-05-21T12:32:53Z</time><name>PT9335</name></trkpt>
<trkpt lat="53.385214" lon="-1.654695"><ele>379</ele><time>2020-05-21T12:32:53Z</time><name>PT9336</name></trkpt>
<trkpt lat="53.385202" lon="-1.654696"><ele>380</ele><time>2020-05-21T12:32:54Z</time><name>PT9337</name></trkpt>
<trkpt lat="53.385194" lon="-1.654695"><ele>380</ele><time>2020-05-21T12:32:56Z</time><name>PT9338</name></trkpt>
<trkpt lat="53.385184" lon="-1.654701"><ele>380</ele><time>2020-05-21T12:32:56Z</time><name>PT9339</name></trkpt>
<trkpt lat="53.385176" lon="-1.654703"><ele>380</ele><time>2020-05-21T12:32:57Z</time><name>PT9340</name></trkpt>
<trkpt lat="53.385163" lon="-1.654706"><ele>381</ele><time>2020-05-21T12:32:58Z</time><name>PT9341</name></trkpt>
<trkpt lat="53.385152" lon="-1.654703"><ele>381</ele><time>2020-05-21T12:32:59Z</time><name>PT9342</name></trkpt>
<trkpt lat="53.385144" lon="-1.654704"><ele>382</ele><time>2020-05-21T12:33:00Z</time><name>PT9343</name></trkpt>
<trkpt lat="53.385132" lon="-1.654702"><ele>381</ele><time>2020-05-21T12:33:02Z</time><name>PT9344</name></trkpt>
<trkpt lat="53.385120" lon="-1.654701"><ele>381</ele><time>2020-05-21T12:33:02Z</time><name>PT9345</name></trkpt>
<trkpt lat="53.385107" lon="-1.654703"><ele>381</ele><time>2020-05-21T12:33:03Z</time><name>PT9346</name></trkpt>
<trkpt lat="53.385094" lon="-1.654714"><ele>382</ele><time>2020-05-21T12:33:05Z</time><name>PT9347</name></trkpt>
<trkpt lat="53.385079" lon="-1.654717"><ele>381</ele><time>2020-05-21T12:33:05Z</time><name>PT9348</name></trkpt>
<trkpt lat="53.385066" lon="-1.654715"><ele>381</ele><time>2020-05-21T12:33:06Z</time><name>PT9349</name></trkpt>
<trkpt lat="53.385058" lon="-1.654714"><ele>382</ele><time>2020-05-21T12:33:07Z</time><name>PT9350</name></trkpt>
<trkpt lat="53.385050" lon="-1.654721"><ele>382</ele><time>2020-05-21T12:33:08Z</time><name>PT9351</name></trkpt>
<trkpt lat="53.385038" lon="-1.654723"><ele>381</ele><time>2020-05-21T12:33:09Z</time><name>PT9352</name></trkpt>
<trkpt lat="53.385027" lon="-1.654725"><ele>381</ele><time>2020-05-21T12:33:11Z</time><name>PT9353</name></trkpt>
<trkpt lat="53.385014" lon="-1.654726"><ele>382</ele><time>2020-05-21T12:33:11Z</time><name>PT9354</name></trkpt>
<trkpt lat="53.385000" lon="-1.654727"><ele>382</ele><time>2020-05-21T12:33:12Z</time><name>PT9355</name></trkpt>
<trkpt lat="53.384990" lon="-1.654728"><ele>382</ele><time>2020-05-21T12:33:14Z</time><name>PT9356</name></trkpt>
<trkpt lat="53.384982" lon="-1.654725"><ele>382</ele><time>2020-05-21T12:33:14Z</time><name>PT9357</name></trkpt>
<trkpt lat="53.384973" lon="-1.654724"><ele>382</ele><time>2020-05-21T12:33:15Z</time><name>PT9358</name></trkpt>
<trkpt lat="53.384961" lon="-1.654726"><ele>382</ele><time>2020-05-21T12:33:17Z</time><name>PT9359</name></trkpt>
<trkpt lat="53.384949" lon="-1.654727"><ele>383</ele><time>2020-05-21T12:33:17Z</time><name>PT9360</name></trkpt>
<trkpt lat="53.384936" lon="-1.654729"><ele>382</ele><time>2020-05-21T12:33:18Z</time><name>PT9361</name></trkpt>
<trkpt lat="53.384929" lon="-1.654730"><ele>382</ele><time>2020-05-21T12:33:20Z</time><name>PT9362</name></trkpt>
<trkpt lat="53.384919" lon="-1.654732"><ele>382</ele><time>2020-05-21T12:33:20Z</time><name>PT9363</name></trkpt>
<trkpt lat="53.384907" lon="-1.654731"><ele>382</ele><time>2020-05-21T12:33:21Z</time><name>PT9364</name></trkpt>
<trkpt lat="53.384892" lon="-1.654734"><ele>381</ele><time>2020-05-21T12:33:23Z</time><name>PT9365</name></trkpt>
<trkpt lat="53.384876" lon="-1.654735"><ele>380</ele><time>2020-05-21T12:33:23Z</time><name>PT9366</name></trkpt>
<trkpt lat="53.384864" lon="-1.654737"><ele>380</ele><time>2020-05-21T12:33:24Z</time><name>PT9367</name></trkpt>
<trkpt lat="53.384856" lon="-1.654737"><ele>380</ele><time>2020-05-21T12:33:25Z</time><name>PT9368</name></trkpt>
<trkpt lat="53.384848" lon="-1.654738"><ele>380</ele><time>2020-05-21T12:33:26Z</time><name>PT9369</name></trkpt>
<trkpt lat="53.384837" lon="-1.654736"><ele>381</ele><time>2020-05-21T12:33:28Z</time><name>PT9370</name></trkpt>
<trkpt lat="53.384824" lon="-1.654737"><ele>381</ele><time>2020-05-21T12:33:28Z</time><name>PT9371</name></trkpt>
<trkpt lat="53.384812" lon="-1.654735"><ele>380</ele><time>2020-05-21T12:33:29Z</time><name>PT9372</name></trkpt>
<trkpt lat="53.384804" lon="-1.654735"><ele>381</ele><time>2020-05-21T12:33:31Z</time><name>PT9373</name></trkpt>
<trkpt lat="53.384790" lon="-1.654736"><ele>380</ele><time>2020-05-21T12:33:31Z</time><name>PT9374</name></trkpt>
<trkpt lat="53.384778" lon="-1.654739"><ele>379</ele><time>2020-05-21T12:33:32Z</time><name>PT9375</name></trkpt>
<trkpt lat="53.384765" lon="-1.654743"><ele>379</ele><time>2020-05-21T12:33:34Z</time><name>PT9376</name></trkpt>
<trkpt lat="53.384757" lon="-1.654744"><ele>378</ele><time>2020-05-21T12:33:34Z</time><name>PT9377</name></trkpt>
<trkpt lat="53.384750" lon="-1.654744"><ele>379</ele><time>2020-05-21T12:33:35Z</time><name>PT9378</name></trkpt>
<trkpt lat="53.384741" lon="-1.654745"><ele>379</ele><time>2020-05-21T12:33:37Z</time><name>PT9379</name></trkpt>
<trkpt lat="53.384729" lon="-1.654749"><ele>380</ele><time>2020-05-21T12:33:37Z</time><name>PT9380</name></trkpt>
<trkpt lat="53.384718" lon="-1.654753"><ele>381</ele><time>2020-05-21T12:33:38Z</time><name>PT9381</name></trkpt>
<trkpt lat="53.384706" lon="-1.654755"><ele>381</ele><time>2020-05-21T12:33:40Z</time><name>PT9382</name></trkpt>
<trkpt lat="53.384696" lon="-1.654756"><ele>380</ele><time>2020-05-21T12:33:40Z</time><name>PT9383</name></trkpt>
<trkpt lat="53.384685" lon="-1.654753"><ele>381</ele><time>2020-05-21T12:33:41Z</time><name>PT9384</name></trkpt>
<trkpt lat="53.384674" lon="-1.654753"><ele>381</ele><time>2020-05-21T12:33:43Z</time><name>PT9385</name></trkpt>
<trkpt lat="53.384662" lon="-1.654751"><ele>381</ele><time>2020-05-21T12:33:43Z</time><name>PT9386</name></trkpt>
<trkpt lat="53.384650" lon="-1.654749"><ele>381</ele><time>2020-05-21T12:33:44Z</time><name>PT9387</name></trkpt>
<trkpt lat="53.384642" lon="-1.654751"><ele>381</ele><time>2020-05-21T12:33:46Z</time><name>PT9388</name></trkpt>
<trkpt lat="53.384632" lon="-1.654750"><ele>381</ele><time>2020-05-21T12:33:46Z</time><name>PT9389</name></trkpt>
<trkpt lat="53.384607" lon="-1.654752"><ele>382</ele><time>2020-05-21T12:33:48Z</time><name>PT9390</name></trkpt>
<trkpt lat="53.384596" lon="-1.654756"><ele>382</ele><time>2020-05-21T12:33:49Z</time><name>PT9391</name></trkpt>
<trkpt lat="53.384588" lon="-1.654753"><ele>382</ele><time>2020-05-21T12:33:51Z</time><name>PT9392</name></trkpt>
<trkpt lat="53.384577" lon="-1.654755"><ele>382</ele><time>2020-05-21T12:33:51Z</time><name>PT9393</name></trkpt>
<trkpt lat="53.384566" lon="-1.654760"><ele>383</ele><time>2020-05-21T12:33:52Z</time><name>PT9394</name></trkpt>
<trkpt lat="53.384552" lon="-1.654764"><ele>383</ele><time>2020-05-21T12:33:53Z</time><name>PT9395</name></trkpt>
<trkpt lat="53.384539" lon="-1.654764"><ele>383</ele><time>2020-05-21T12:33:54Z</time><name>PT9396</name></trkpt>
<trkpt lat="53.384532" lon="-1.654766"><ele>384</ele><time>2020-05-21T12:33:55Z</time><name>PT9397</name></trkpt>
<trkpt lat="53.384525" lon="-1.654772"><ele>384</ele><time>2020-05-21T12:33:57Z</time><name>PT9398</name></trkpt>
<trkpt lat="53.384520" lon="-1.654785"><ele>384</ele><time>2020-05-21T12:33:57Z</time><name>PT9399</name></trkpt>
<trkpt lat="53.384517" lon="-1.654795"><ele>384</ele><time>2020-05-21T12:33:58Z</time><name>PT9400</name></trkpt>
<trkpt lat="53.384514" lon="-1.654805"><ele>384</ele><time>2020-05-21T12:34:00Z</time><name>PT9401</name></trkpt>
<trkpt lat="53.384503" lon="-1.654809"><ele>384</ele><time>2020-05-21T12:34:00Z</time><name>PT9402</name></trkpt>
<trkpt lat="53.384489" lon="-1.654812"><ele>385</ele><time>2020-05-21T12:34:01Z</time><name>PT9403</name></trkpt>
<trkpt lat="53.384474" lon="-1.654810"><ele>386</ele><time>2020-05-21T12:34:03Z</time><name>PT9404</name></trkpt>
<trkpt lat="53.384459" lon="-1.654809"><ele>386</ele><time>2020-05-21T12:34:03Z</time><name>PT9405</name></trkpt>
<trkpt lat="53.384448" lon="-1.654814"><ele>385</ele><time>2020-05-21T12:34:04Z</time><name>PT9406</name></trkpt>
<trkpt lat="53.384438" lon="-1.654817"><ele>386</ele><time>2020-05-21T12:34:05Z</time><name>PT9407</name></trkpt>
<trkpt lat="53.384423" lon="-1.654818"><ele>385</ele><time>2020-05-21T12:34:06Z</time><name>PT9408</name></trkpt>
<trkpt lat="53.384411" lon="-1.654819"><ele>385</ele><time>2020-05-21T12:34:07Z</time><name>PT9409</name></trkpt>
<trkpt lat="53.384397" lon="-1.654826"><ele>385</ele><time>2020-05-21T12:34:08Z</time><name>PT9410</name></trkpt>
<trkpt lat="53.384386" lon="-1.654831"><ele>384</ele><time>2020-05-21T12:34:09Z</time><name>PT9411</name></trkpt>
<trkpt lat="53.384378" lon="-1.654833"><ele>384</ele><time>2020-05-21T12:34:10Z</time><name>PT9412</name></trkpt>
<trkpt lat="53.384367" lon="-1.654838"><ele>383</ele><time>2020-05-21T12:34:12Z</time><name>PT9413</name></trkpt>
<trkpt lat="53.384353" lon="-1.654844"><ele>383</ele><time>2020-05-21T12:34:12Z</time><name>PT9414</name></trkpt>
<trkpt lat="53.384340" lon="-1.654848"><ele>383</ele><time>2020-05-21T12:34:13Z</time><name>PT9415</name></trkpt>
<trkpt lat="53.384323" lon="-1.654849"><ele>383</ele><time>2020-05-21T12:34:15Z</time><name>PT9416</name></trkpt>
<trkpt lat="53.384309" lon="-1.654848"><ele>383</ele><time>2020-05-21T12:34:15Z</time><name>PT9417</name></trkpt>
<trkpt lat="53.384301" lon="-1.654847"><ele>383</ele><time>2020-05-21T12:34:16Z</time><name>PT9418</name></trkpt>
<trkpt lat="53.384289" lon="-1.654848"><ele>383</ele><time>2020-05-21T12:34:18Z</time><name>PT9419</name></trkpt>
<trkpt lat="53.384277" lon="-1.654849"><ele>383</ele><time>2020-05-21T12:34:18Z</time><name>PT9420</name></trkpt>
<trkpt lat="53.384265" lon="-1.654846"><ele>383</ele><time>2020-05-21T12:34:19Z</time><name>PT9421</name></trkpt>
<trkpt lat="53.384252" lon="-1.654847"><ele>383</ele><time>2020-05-21T12:34:21Z</time><name>PT9422</name></trkpt>
<trkpt lat="53.384240" lon="-1.654851"><ele>382</ele><time>2020-05-21T12:34:21Z</time><name>PT9423</name></trkpt>
<trkpt lat="53.384232" lon="-1.654857"><ele>382</ele><time>2020-05-21T12:34:22Z</time><name>PT9424</name></trkpt>
<trkpt lat="53.384222" lon="-1.654857"><ele>381</ele><time>2020-05-21T12:34:24Z</time><name>PT9425</name></trkpt>
<trkpt lat="53.384210" lon="-1.654852"><ele>382</ele><time>2020-05-21T12:34:24Z</time><name>PT9426</name></trkpt>
<trkpt lat="53.384197" lon="-1.654844"><ele>382</ele><time>2020-05-21T12:34:25Z</time><name>PT9427</name></trkpt>
<trkpt lat="53.384183" lon="-1.654843"><ele>383</ele><time>2020-05-21T12:34:27Z</time><name>PT9428</name></trkpt>
<trkpt lat="53.384169" lon="-1.654844"><ele>383</ele><time>2020-05-21T12:34:27Z</time><name>PT9429</name></trkpt>
<trkpt lat="53.384160" lon="-1.654843"><ele>383</ele><time>2020-05-21T12:34:28Z</time><name>PT9430</name></trkpt>
<trkpt lat="53.384150" lon="-1.654848"><ele>383</ele><time>2020-05-21T12:34:29Z</time><name>PT9431</name></trkpt>
<trkpt lat="53.384137" lon="-1.654845"><ele>383</ele><time>2020-05-21T12:34:30Z</time><name>PT9432</name></trkpt>
<trkpt lat="53.384122" lon="-1.654846"><ele>382</ele><time>2020-05-21T12:34:32Z</time><name>PT9433</name></trkpt>
<trkpt lat="53.384111" lon="-1.654853"><ele>384</ele><time>2020-05-21T12:34:32Z</time><name>PT9434</name></trkpt>
<trkpt lat="53.384095" lon="-1.654857"><ele>384</ele><time>2020-05-21T12:34:33Z</time><name>PT9435</name></trkpt>
<trkpt lat="53.384081" lon="-1.654863"><ele>383</ele><time>2020-05-21T12:34:35Z</time><name>PT9436</name></trkpt>
<trkpt lat="53.384071" lon="-1.654868"><ele>384</ele><time>2020-05-21T12:34:35Z</time><name>PT9437</name></trkpt>
<trkpt lat="53.384059" lon="-1.654871"><ele>384</ele><time>2020-05-21T12:34:36Z</time><name>PT9438</name></trkpt>
<trkpt lat="53.384044" lon="-1.654873"><ele>384</ele><time>2020-05-21T12:34:38Z</time><name>PT9439</name></trkpt>
<trkpt lat="53.384030" lon="-1.654879"><ele>384</ele><time>2020-05-21T12:34:38Z</time><name>PT9440</name></trkpt>
<trkpt lat="53.384018" lon="-1.654896"><ele>385</ele><time>2020-05-21T12:34:39Z</time><name>PT9441</name></trkpt>
<trkpt lat="53.384003" lon="-1.654907"><ele>385</ele><time>2020-05-21T12:34:40Z</time><name>PT9442</name></trkpt>
<trkpt lat="53.383991" lon="-1.654912"><ele>386</ele><time>2020-05-21T12:34:41Z</time><name>PT9443</name></trkpt>
<trkpt lat="53.383981" lon="-1.654918"><ele>385</ele><time>2020-05-21T12:34:42Z</time><name>PT9444</name></trkpt>
<trkpt lat="53.383968" lon="-1.654923"><ele>385</ele><time>2020-05-21T12:34:44Z</time><name>PT9445</name></trkpt>
<trkpt lat="53.383956" lon="-1.654927"><ele>385</ele><time>2020-05-21T12:34:44Z</time><name>PT9446</name></trkpt>
<trkpt lat="53.383940" lon="-1.654933"><ele>384</ele><time>2020-05-21T12:34:45Z</time><name>PT9447</name></trkpt>
<trkpt lat="53.383922" lon="-1.654937"><ele>383</ele><time>2020-05-21T12:34:47Z</time><name>PT9448</name></trkpt>
<trkpt lat="53.383904" lon="-1.654944"><ele>382</ele><time>2020-05-21T12:34:47Z</time><name>PT9449</name></trkpt>
<trkpt lat="53.383894" lon="-1.654952"><ele>382</ele><time>2020-05-21T12:34:48Z</time><name>PT9450</name></trkpt>
<trkpt lat="53.383883" lon="-1.654959"><ele>382</ele><time>2020-05-21T12:34:50Z</time><name>PT9451</name></trkpt>
<trkpt lat="53.383870" lon="-1.654962"><ele>382</ele><time>2020-05-21T12:34:50Z</time><name>PT9452</name></trkpt>
<trkpt lat="53.383856" lon="-1.654968"><ele>382</ele><time>2020-05-21T12:34:51Z</time><name>PT9453</name></trkpt>
<trkpt lat="53.383840" lon="-1.654970"><ele>382</ele><time>2020-05-21T12:34:53Z</time><name>PT9454</name></trkpt>
<trkpt lat="53.383822" lon="-1.654974"><ele>382</ele><time>2020-05-21T12:34:53Z</time><name>PT9455</name></trkpt>
<trkpt lat="53.383811" lon="-1.654979"><ele>382</ele><time>2020-05-21T12:34:54Z</time><name>PT9456</name></trkpt>
<trkpt lat="53.383801" lon="-1.654984"><ele>382</ele><time>2020-05-21T12:34:56Z</time><name>PT9457</name></trkpt>
<trkpt lat="53.383791" lon="-1.654989"><ele>381</ele><time>2020-05-21T12:34:56Z</time><name>PT9458</name></trkpt>
<trkpt lat="53.383779" lon="-1.654995"><ele>382</ele><time>2020-05-21T12:34:57Z</time><name>PT9459</name></trkpt>
<trkpt lat="53.383755" lon="-1.655012"><ele>381</ele><time>2020-05-21T12:34:59Z</time><name>PT9460</name></trkpt>
<trkpt lat="53.383746" lon="-1.655019"><ele>381</ele><time>2020-05-21T12:35:00Z</time><name>PT9461</name></trkpt>
<trkpt lat="53.383734" lon="-1.655024"><ele>381</ele><time>2020-05-21T12:35:02Z</time><name>PT9462</name></trkpt>
<trkpt lat="53.383720" lon="-1.655027"><ele>381</ele><time>2020-05-21T12:35:02Z</time><name>PT9463</name></trkpt>
<trkpt lat="53.383705" lon="-1.655032"><ele>381</ele><time>2020-05-21T12:35:03Z</time><name>PT9464</name></trkpt>
<trkpt lat="53.383690" lon="-1.655040"><ele>381</ele><time>2020-05-21T12:35:05Z</time><name>PT9465</name></trkpt>
<trkpt lat="53.383679" lon="-1.655048"><ele>381</ele><time>2020-05-21T12:35:05Z</time><name>PT9466</name></trkpt>
<trkpt lat="53.383668" lon="-1.655053"><ele>382</ele><time>2020-05-21T12:35:06Z</time><name>PT9467</name></trkpt>
<trkpt lat="53.383658" lon="-1.655054"><ele>381</ele><time>2020-05-21T12:35:08Z</time><name>PT9468</name></trkpt>
<trkpt lat="53.383645" lon="-1.655062"><ele>382</ele><time>2020-05-21T12:35:08Z</time><name>PT9469</name></trkpt>
<trkpt lat="53.383633" lon="-1.655066"><ele>381</ele><time>2020-05-21T12:35:09Z</time><name>PT9470</name></trkpt>
<trkpt lat="53.383618" lon="-1.655069"><ele>382</ele><time>2020-05-21T12:35:11Z</time><name>PT9471</name></trkpt>
<trkpt lat="53.383604" lon="-1.655074"><ele>382</ele><time>2020-05-21T12:35:11Z</time><name>PT9472</name></trkpt>
<trkpt lat="53.383591" lon="-1.655074"><ele>381</ele><time>2020-05-21T12:35:13Z</time><name>PT9473</name></trkpt>
<trkpt lat="53.383584" lon="-1.655079"><ele>382</ele><time>2020-05-21T12:35:14Z</time><name>PT9474</name></trkpt>
<trkpt lat="53.383576" lon="-1.655083"><ele>382</ele><time>2020-05-21T12:35:14Z</time><name>PT9475</name></trkpt>
<trkpt lat="53.383565" lon="-1.655089"><ele>382</ele><time>2020-05-21T12:35:15Z</time><name>PT9476</name></trkpt>
<trkpt lat="53.383553" lon="-1.655099"><ele>382</ele><time>2020-05-21T12:35:17Z</time><name>PT9477</name></trkpt>
<trkpt lat="53.383539" lon="-1.655105"><ele>382</ele><time>2020-05-21T12:35:17Z</time><name>PT9478</name></trkpt>
<trkpt lat="53.383529" lon="-1.655107"><ele>382</ele><time>2020-05-21T12:35:18Z</time><name>PT9479</name></trkpt>
<trkpt lat="53.383521" lon="-1.655112"><ele>382</ele><time>2020-05-21T12:35:20Z</time><name>PT9480</name></trkpt>
<trkpt lat="53.383511" lon="-1.655121"><ele>382</ele><time>2020-05-21T12:35:20Z</time><name>PT9481</name></trkpt>
<trkpt lat="53.383500" lon="-1.655128"><ele>382</ele><time>2020-05-21T12:35:21Z</time><name>PT9482</name></trkpt>
<trkpt lat="53.383490" lon="-1.655134"><ele>384</ele><time>2020-05-21T12:35:23Z</time><name>PT9483</name></trkpt>
<trkpt lat="53.383481" lon="-1.655138"><ele>384</ele><time>2020-05-21T12:35:23Z</time><name>PT9484</name></trkpt>
<trkpt lat="53.383472" lon="-1.655146"><ele>384</ele><time>2020-05-21T12:35:24Z</time><name>PT9485</name></trkpt>
<trkpt lat="53.383461" lon="-1.655156"><ele>384</ele><time>2020-05-21T12:35:26Z</time><name>PT9486</name></trkpt>
<trkpt lat="53.383451" lon="-1.655164"><ele>385</ele><time>2020-05-21T12:35:26Z</time><name>PT9487</name></trkpt>
<trkpt lat="53.383437" lon="-1.655175"><ele>386</ele><time>2020-05-21T12:35:27Z</time><name>PT9488</name></trkpt>
<trkpt lat="53.383422" lon="-1.655182"><ele>385</ele><time>2020-05-21T12:35:29Z</time><name>PT9489</name></trkpt>
<trkpt lat="53.383412" lon="-1.655186"><ele>385</ele><time>2020-05-21T12:35:29Z</time><name>PT9490</name></trkpt>
<trkpt lat="53.383402" lon="-1.655189"><ele>385</ele><time>2020-05-21T12:35:30Z</time><name>PT9491</name></trkpt>
<trkpt lat="53.383392" lon="-1.655193"><ele>385</ele><time>2020-05-21T12:35:32Z</time><name>PT9492</name></trkpt>
<trkpt lat="53.383381" lon="-1.655193"><ele>385</ele><time>2020-05-21T12:35:32Z</time><name>PT9493</name></trkpt>
<trkpt lat="53.383368" lon="-1.655202"><ele>385</ele><time>2020-05-21T12:35:33Z</time><name>PT9494</name></trkpt>
<trkpt lat="53.383354" lon="-1.655209"><ele>385</ele><time>2020-05-21T12:35:35Z</time><name>PT9495</name></trkpt>
<trkpt lat="53.383341" lon="-1.655214"><ele>385</ele><time>2020-05-21T12:35:35Z</time><name>PT9496</name></trkpt>
<trkpt lat="53.383333" lon="-1.655219"><ele>385</ele><time>2020-05-21T12:35:36Z</time><name>PT9497</name></trkpt>
<trkpt lat="53.383325" lon="-1.655226"><ele>385</ele><time>2020-05-21T12:35:38Z</time><name>PT9498</name></trkpt>
<trkpt lat="53.383315" lon="-1.655239"><ele>385</ele><time>2020-05-21T12:35:38Z</time><name>PT9499</name></trkpt>
<trkpt lat="53.383304" lon="-1.655252"><ele>386</ele><time>2020-05-21T12:35:39Z</time><name>PT9500</name></trkpt>
<trkpt lat="53.383288" lon="-1.655264"><ele>386</ele><time>2020-05-21T12:35:41Z</time><name>PT9501</name></trkpt>
<trkpt lat="53.383277" lon="-1.655268"><ele>387</ele><time>2020-05-21T12:35:41Z</time><name>PT9502</name></trkpt>
<trkpt lat="53.383267" lon="-1.655271"><ele>386</ele><time>2020-05-21T12:35:42Z</time><name>PT9503</name></trkpt>
<trkpt lat="53.383257" lon="-1.655280"><ele>386</ele><time>2020-05-21T12:35:44Z</time><name>PT9504</name></trkpt>
<trkpt lat="53.383248" lon="-1.655288"><ele>386</ele><time>2020-05-21T12:35:44Z</time><name>PT9505</name></trkpt>
<trkpt lat="53.383238" lon="-1.655296"><ele>386</ele><time>2020-05-21T12:35:45Z</time><name>PT9506</name></trkpt>
<trkpt lat="53.383225" lon="-1.655300"><ele>386</ele><time>2020-05-21T12:35:47Z</time><name>PT9507</name></trkpt>
<trkpt lat="53.383214" lon="-1.655302"><ele>387</ele><time>2020-05-21T12:35:47Z</time><name>PT9508</name></trkpt>
<trkpt lat="53.383203" lon="-1.655311"><ele>388</ele><time>2020-05-21T12:35:48Z</time><name>PT9509</name></trkpt>
<trkpt lat="53.383192" lon="-1.655321"><ele>388</ele><time>2020-05-21T12:35:50Z</time><name>PT9510</name></trkpt>
<trkpt lat="53.383184" lon="-1.655325"><ele>387</ele><time>2020-05-21T12:35:50Z</time><name>PT9511</name></trkpt>
<trkpt lat="53.383175" lon="-1.655331"><ele>387</ele><time>2020-05-21T12:35:51Z</time><name>PT9512</name></trkpt>
<trkpt lat="53.383167" lon="-1.655337"><ele>387</ele><time>2020-05-21T12:35:53Z</time><name>PT9513</name></trkpt>
<trkpt lat="53.383156" lon="-1.655343"><ele>386</ele><time>2020-05-21T12:35:53Z</time><name>PT9514</name></trkpt>
<trkpt lat="53.383145" lon="-1.655348"><ele>386</ele><time>2020-05-21T12:35:54Z</time><name>PT9515</name></trkpt>
<trkpt lat="53.383133" lon="-1.655355"><ele>387</ele><time>2020-05-21T12:35:56Z</time><name>PT9516</name></trkpt>
<trkpt lat="53.383119" lon="-1.655362"><ele>387</ele><time>2020-05-21T12:35:56Z</time><name>PT9517</name></trkpt>
<trkpt lat="53.383107" lon="-1.655365"><ele>387</ele><time>2020-05-21T12:35:57Z</time><name>PT9518</name></trkpt>
<trkpt lat="53.383101" lon="-1.655369"><ele>387</ele><time>2020-05-21T12:35:59Z</time><name>PT9519</name></trkpt>
<trkpt lat="53.383092" lon="-1.655377"><ele>386</ele><time>2020-05-21T12:35:59Z</time><name>PT9520</name></trkpt>
<trkpt lat="53.383084" lon="-1.655387"><ele>386</ele><time>2020-05-21T12:36:00Z</time><name>PT9521</name></trkpt>
<trkpt lat="53.383075" lon="-1.655399"><ele>386</ele><time>2020-05-21T12:36:02Z</time><name>PT9522</name></trkpt>
<trkpt lat="53.383063" lon="-1.655409"><ele>387</ele><time>2020-05-21T12:36:02Z</time><name>PT9523</name></trkpt>
<trkpt lat="53.383048" lon="-1.655418"><ele>387</ele><time>2020-05-21T12:36:03Z</time><name>PT9524</name></trkpt>
<trkpt lat="53.383039" lon="-1.655424"><ele>388</ele><time>2020-05-21T12:36:05Z</time><name>PT9525</name></trkpt>
<trkpt lat="53.383031" lon="-1.655429"><ele>387</ele><time>2020-05-21T12:36:05Z</time><name>PT9526</name></trkpt>
<trkpt lat="53.383022" lon="-1.655435"><ele>387</ele><time>2020-05-21T12:36:06Z</time><name>PT9527</name></trkpt>
<trkpt lat="53.383010" lon="-1.655440"><ele>387</ele><time>2020-05-21T12:36:07Z</time><name>PT9528</name></trkpt>
<trkpt lat="53.382998" lon="-1.655449"><ele>388</ele><time>2020-05-21T12:36:08Z</time><name>PT9529</name></trkpt>
<trkpt lat="53.382984" lon="-1.655466"><ele>388</ele><time>2020-05-21T12:36:09Z</time><name>PT9530</name></trkpt>
<trkpt lat="53.382972" lon="-1.655475"><ele>388</ele><time>2020-05-21T12:36:10Z</time><name>PT9531</name></trkpt>
<trkpt lat="53.382966" lon="-1.655477"><ele>389</ele><time>2020-05-21T12:36:11Z</time><name>PT9532</name></trkpt>
<trkpt lat="53.382957" lon="-1.655485"><ele>389</ele><time>2020-05-21T12:36:12Z</time><name>PT9533</name></trkpt>
<trkpt lat="53.382945" lon="-1.655492"><ele>389</ele><time>2020-05-21T12:36:13Z</time><name>PT9534</name></trkpt>
<trkpt lat="53.382932" lon="-1.655499"><ele>389</ele><time>2020-05-21T12:36:14Z</time><name>PT9535</name></trkpt>
<trkpt lat="53.382916" lon="-1.655511"><ele>389</ele><time>2020-05-21T12:36:16Z</time><name>PT9536</name></trkpt>
<trkpt lat="53.382901" lon="-1.655520"><ele>390</ele><time>2020-05-21T12:36:16Z</time><name>PT9537</name></trkpt>
<trkpt lat="53.382887" lon="-1.655526"><ele>390</ele><time>2020-05-21T12:36:17Z</time><name>PT9538</name></trkpt>
<trkpt lat="53.382878" lon="-1.655530"><ele>389</ele><time>2020-05-21T12:36:19Z</time><name>PT9539</name></trkpt>
<trkpt lat="53.382871" lon="-1.655536"><ele>390</ele><time>2020-05-21T12:36:19Z</time><name>PT9540</name></trkpt>
<trkpt lat="53.382860" lon="-1.655544"><ele>388</ele><time>2020-05-21T12:36:20Z</time><name>PT9541</name></trkpt>
<trkpt lat="53.382846" lon="-1.655549"><ele>387</ele><time>2020-05-21T12:36:22Z</time><name>PT9542</name></trkpt>
<trkpt lat="53.382832" lon="-1.655552"><ele>388</ele><time>2020-05-21T12:36:22Z</time><name>PT9543</name></trkpt>
<trkpt lat="53.382820" lon="-1.655559"><ele>388</ele><time>2020-05-21T12:36:23Z</time><name>PT9544</name></trkpt>
<trkpt lat="53.382809" lon="-1.655563"><ele>387</ele><time>2020-05-21T12:36:24Z</time><name>PT9545</name></trkpt>
<trkpt lat="53.382801" lon="-1.655567"><ele>387</ele><time>2020-05-21T12:36:25Z</time><name>PT9546</name></trkpt>
<trkpt lat="53.382794" lon="-1.655575"><ele>387</ele><time>2020-05-21T12:36:26Z</time><name>PT9547</name></trkpt>
<trkpt lat="53.382782" lon="-1.655582"><ele>388</ele><time>2020-05-21T12:36:28Z</time><name>PT9548</name></trkpt>
<trkpt lat="53.382769" lon="-1.655595"><ele>388</ele><time>2020-05-21T12:36:28Z</time><name>PT9549</name></trkpt>
<trkpt lat="53.382755" lon="-1.655606"><ele>388</ele><time>2020-05-21T12:36:29Z</time><name>PT9550</name></trkpt>
<trkpt lat="53.382745" lon="-1.655612"><ele>388</ele><time>2020-05-21T12:36:31Z</time><name>PT9551</name></trkpt>
<trkpt lat="53.382737" lon="-1.655617"><ele>388</ele><time>2020-05-21T12:36:31Z</time><name>PT9552</name></trkpt>
<trkpt lat="53.382729" lon="-1.655625"><ele>388</ele><time>2020-05-21T12:36:32Z</time><name>PT9553</name></trkpt>
<trkpt lat="53.382716" lon="-1.655639"><ele>388</ele><time>2020-05-21T12:36:34Z</time><name>PT9554</name></trkpt>
<trkpt lat="53.382703" lon="-1.655650"><ele>388</ele><time>2020-05-21T12:36:34Z</time><name>PT9555</name></trkpt>
<trkpt lat="53.382689" lon="-1.655655"><ele>388</ele><time>2020-05-21T12:36:35Z</time><name>PT9556</name></trkpt>
<trkpt lat="53.382680" lon="-1.655659"><ele>387</ele><time>2020-05-21T12:36:37Z</time><name>PT9557</name></trkpt>
<trkpt lat="53.382671" lon="-1.655671"><ele>388</ele><time>2020-05-21T12:36:37Z</time><name>PT9558</name></trkpt>
<trkpt lat="53.382660" lon="-1.655679"><ele>388</ele><time>2020-05-21T12:36:38Z</time><name>PT9559</name></trkpt>
<trkpt lat="53.382649" lon="-1.655683"><ele>388</ele><time>2020-05-21T12:36:40Z</time><name>PT9560</name></trkpt>
<trkpt lat="53.382635" lon="-1.655694"><ele>388</ele><time>2020-05-21T12:36:40Z</time><name>PT9561</name></trkpt>
<trkpt lat="53.382623" lon="-1.655704"><ele>388</ele><time>2020-05-21T12:36:41Z</time><name>PT9562</name></trkpt>
<trkpt lat="53.382612" lon="-1.655710"><ele>388</ele><time>2020-05-21T12:36:43Z</time><name>PT9563</name></trkpt>
<trkpt lat="53.382605" lon="-1.655711"><ele>388</ele><time>2020-05-21T12:36:43Z</time><name>PT9564</name></trkpt>
<trkpt lat="53.382596" lon="-1.655708"><ele>389</ele><time>2020-05-21T12:36:44Z</time><name>PT9565</name></trkpt>
<trkpt lat="53.382583" lon="-1.655708"><ele>389</ele><time>2020-05-21T12:36:46Z</time><name>PT9566</name></trkpt>
<trkpt lat="53.382570" lon="-1.655709"><ele>389</ele><time>2020-05-21T12:36:46Z</time><name>PT9567</name></trkpt>
<trkpt lat="53.382555" lon="-1.655714"><ele>390</ele><time>2020-05-21T12:36:47Z</time><name>PT9568</name></trkpt>
<trkpt lat="53.382540" lon="-1.655720"><ele>390</ele><time>2020-05-21T12:36:48Z</time><name>PT9569</name></trkpt>
<trkpt lat="53.382529" lon="-1.655726"><ele>390</ele><time>2020-05-21T12:36:49Z</time><name>PT9570</name></trkpt>
<trkpt lat="53.382522" lon="-1.655729"><ele>390</ele><time>2020-05-21T12:36:51Z</time><name>PT9571</name></trkpt>
<trkpt lat="53.382512" lon="-1.655737"><ele>390</ele><time>2020-05-21T12:36:51Z</time><name>PT9572</name></trkpt>
<trkpt lat="53.382501" lon="-1.655745"><ele>391</ele><time>2020-05-21T12:36:52Z</time><name>PT9573</name></trkpt>
<trkpt lat="53.382490" lon="-1.655755"><ele>392</ele><time>2020-05-21T12:36:54Z</time><name>PT9574</name></trkpt>
<trkpt lat="53.382476" lon="-1.655764"><ele>392</ele><time>2020-05-21T12:36:54Z</time><name>PT9575</name></trkpt>
<trkpt lat="53.382464" lon="-1.655768"><ele>392</ele><time>2020-05-21T12:36:55Z</time><name>PT9576</name></trkpt>
<trkpt lat="53.382458" lon="-1.655770"><ele>392</ele><time>2020-05-21T12:36:57Z</time><name>PT9577</name></trkpt>
<trkpt lat="53.382450" lon="-1.655776"><ele>392</ele><time>2020-05-21T12:36:57Z</time><name>PT9578</name></trkpt>
<trkpt lat="53.382440" lon="-1.655780"><ele>392</ele><time>2020-05-21T12:36:58Z</time><name>PT9579</name></trkpt>
<trkpt lat="53.382428" lon="-1.655787"><ele>392</ele><time>2020-05-21T12:37:00Z</time><name>PT9580</name></trkpt>
<trkpt lat="53.382417" lon="-1.655792"><ele>393</ele><time>2020-05-21T12:37:00Z</time><name>PT9581</name></trkpt>
<trkpt lat="53.382404" lon="-1.655800"><ele>393</ele><time>2020-05-21T12:37:01Z</time><name>PT9582</name></trkpt>
<trkpt lat="53.382395" lon="-1.655805"><ele>393</ele><time>2020-05-21T12:37:03Z</time><name>PT9583</name></trkpt>
<trkpt lat="53.382388" lon="-1.655810"><ele>393</ele><time>2020-05-21T12:37:03Z</time><name>PT9584</name></trkpt>
<trkpt lat="53.382377" lon="-1.655813"><ele>394</ele><time>2020-05-21T12:37:04Z</time><name>PT9585</name></trkpt>
<trkpt lat="53.382366" lon="-1.655813"><ele>394</ele><time>2020-05-21T12:37:06Z</time><name>PT9586</name></trkpt>
<trkpt lat="53.382355" lon="-1.655818"><ele>394</ele><time>2020-05-21T12:37:06Z</time><name>PT9587</name></trkpt>
<trkpt lat="53.382342" lon="-1.655827"><ele>394</ele><time>2020-05-21T12:37:07Z</time><name>PT9588</name></trkpt>
<trkpt lat="53.382334" lon="-1.655836"><ele>394</ele><time>2020-05-21T12:37:09Z</time><name>PT9589</name></trkpt>
<trkpt lat="53.382326" lon="-1.655845"><ele>394</ele><time>2020-05-21T12:37:09Z</time><name>PT9590</name></trkpt>
<trkpt lat="53.382316" lon="-1.655853"><ele>394</ele><time>2020-05-21T12:37:10Z</time><name>PT9591</name></trkpt>
<trkpt lat="53.382306" lon="-1.655864"><ele>394</ele><time>2020-05-21T12:37:12Z</time><name>PT9592</name></trkpt>
<trkpt lat="53.382297" lon="-1.655876"><ele>394</ele><time>2020-05-21T12:37:12Z</time><name>PT9593</name></trkpt>
<trkpt lat="53.382288" lon="-1.655885"><ele>394</ele><time>2020-05-21T12:37:13Z</time><name>PT9594</name></trkpt>
<trkpt lat="53.382277" lon="-1.655895"><ele>395</ele><time>2020-05-21T12:37:15Z</time><name>PT9595</name></trkpt>
<trkpt lat="53.382270" lon="-1.655898"><ele>395</ele><time>2020-05-21T12:37:15Z</time><name>PT9596</name></trkpt>
<trkpt lat="53.382260" lon="-1.655905"><ele>395</ele><time>2020-05-21T12:37:16Z</time><name>PT9597</name></trkpt>
<trkpt lat="53.382248" lon="-1.655910"><ele>394</ele><time>2020-05-21T12:37:18Z</time><name>PT9598</name></trkpt>
<trkpt lat="53.382236" lon="-1.655916"><ele>394</ele><time>2020-05-21T12:37:18Z</time><name>PT9599</name></trkpt>
<trkpt lat="53.382223" lon="-1.655927"><ele>395</ele><time>2020-05-21T12:37:19Z</time><name>PT9600</name></trkpt>
<trkpt lat="53.382214" lon="-1.655937"><ele>395</ele><time>2020-05-21T12:37:21Z</time><name>PT9601</name></trkpt>
<trkpt lat="53.382207" lon="-1.655945"><ele>395</ele><time>2020-05-21T12:37:21Z</time><name>PT9602</name></trkpt>
<trkpt lat="53.382199" lon="-1.655954"><ele>394</ele><time>2020-05-21T12:37:22Z</time><name>PT9603</name></trkpt>
<trkpt lat="53.382189" lon="-1.655960"><ele>395</ele><time>2020-05-21T12:37:24Z</time><name>PT9604</name></trkpt>
<trkpt lat="53.382177" lon="-1.655970"><ele>395</ele><time>2020-05-21T12:37:24Z</time><name>PT9605</name></trkpt>
<trkpt lat="53.382164" lon="-1.655984"><ele>395</ele><time>2020-05-21T12:37:25Z</time><name>PT9606</name></trkpt>
<trkpt lat="53.382156" lon="-1.655993"><ele>395</ele><time>2020-05-21T12:37:27Z</time><name>PT9607</name></trkpt>
<trkpt lat="53.382151" lon="-1.655998"><ele>396</ele><time>2020-05-21T12:37:27Z</time><name>PT9608</name></trkpt>
<trkpt lat="53.382144" lon="-1.656005"><ele>395</ele><time>2020-05-21T12:37:28Z</time><name>PT9609</name></trkpt>
<trkpt lat="53.382136" lon="-1.656017"><ele>396</ele><time>2020-05-21T12:37:30Z</time><name>PT9610</name></trkpt>
<trkpt lat="53.382124" lon="-1.656027"><ele>396</ele><time>2020-05-21T12:37:30Z</time><name>PT9611</name></trkpt>
<trkpt lat="53.382116" lon="-1.656037"><ele>397</ele><time>2020-05-21T12:37:31Z</time><name>PT9612</name></trkpt>
<trkpt lat="53.382109" lon="-1.656044"><ele>397</ele><time>2020-05-21T12:37:32Z</time><name>PT9613</name></trkpt>
<trkpt lat="53.382105" lon="-1.656050"><ele>397</ele><time>2020-05-21T12:37:33Z</time><name>PT9614</name></trkpt>
<trkpt lat="53.382100" lon="-1.656058"><ele>397</ele><time>2020-05-21T12:37:34Z</time><name>PT9615</name></trkpt>
<trkpt lat="53.382094" lon="-1.656071"><ele>397</ele><time>2020-05-21T12:37:36Z</time><name>PT9616</name></trkpt>
<trkpt lat="53.382084" lon="-1.656084"><ele>397</ele><time>2020-05-21T12:37:36Z</time><name>PT9617</name></trkpt>
<trkpt lat="53.382072" lon="-1.656095"><ele>397</ele><time>2020-05-21T12:37:37Z</time><name>PT9618</name></trkpt>
<trkpt lat="53.382061" lon="-1.656108"><ele>397</ele><time>2020-05-21T12:37:38Z</time><name>PT9619</name></trkpt>
<trkpt lat="53.382055" lon="-1.656118"><ele>397</ele><time>2020-05-21T12:37:39Z</time><name>PT9620</name></trkpt>
<trkpt lat="53.382049" lon="-1.656127"><ele>397</ele><time>2020-05-21T12:37:41Z</time><name>PT9621</name></trkpt>
<trkpt lat="53.382043" lon="-1.656140"><ele>397</ele><time>2020-05-21T12:37:41Z</time><name>PT9622</name></trkpt>
<trkpt lat="53.382033" lon="-1.656153"><ele>398</ele><time>2020-05-21T12:37:42Z</time><name>PT9623</name></trkpt>
<trkpt lat="53.382020" lon="-1.656162"><ele>398</ele><time>2020-05-21T12:37:44Z</time><name>PT9624</name></trkpt>
<trkpt lat="53.382010" lon="-1.656168"><ele>398</ele><time>2020-05-21T12:37:44Z</time><name>PT9625</name></trkpt>
<trkpt lat="53.382005" lon="-1.656179"><ele>398</ele><time>2020-05-21T12:37:45Z</time><name>PT9626</name></trkpt>
<trkpt lat="53.381998" lon="-1.656194"><ele>398</ele><time>2020-05-21T12:37:47Z</time><name>PT9627</name></trkpt>
<trkpt lat="53.381988" lon="-1.656207"><ele>398</ele><time>2020-05-21T12:37:47Z</time><name>PT9628</name></trkpt>
<trkpt lat="53.381978" lon="-1.656224"><ele>399</ele><time>2020-05-21T12:37:48Z</time><name>PT9629</name></trkpt>
<trkpt lat="53.381965" lon="-1.656235"><ele>398</ele><time>2020-05-21T12:37:50Z</time><name>PT9630</name></trkpt>
<trkpt lat="53.381956" lon="-1.656246"><ele>398</ele><time>2020-05-21T12:37:50Z</time><name>PT9631</name></trkpt>
<trkpt lat="53.381948" lon="-1.656257"><ele>398</ele><time>2020-05-21T12:37:51Z</time><name>PT9632</name></trkpt>
<trkpt lat="53.381938" lon="-1.656267"><ele>398</ele><time>2020-05-21T12:37:53Z</time><name>PT9633</name></trkpt>
<trkpt lat="53.381928" lon="-1.656282"><ele>398</ele><time>2020-05-21T12:37:53Z</time><name>PT9634</name></trkpt>
<trkpt lat="53.381916" lon="-1.656296"><ele>398</ele><time>2020-05-21T12:37:54Z</time><name>PT9635</name></trkpt>
<trkpt lat="53.381906" lon="-1.656307"><ele>398</ele><time>2020-05-21T12:37:56Z</time><name>PT9636</name></trkpt>
<trkpt lat="53.381897" lon="-1.656317"><ele>398</ele><time>2020-05-21T12:37:56Z</time><name>PT9637</name></trkpt>
<trkpt lat="53.381888" lon="-1.656327"><ele>398</ele><time>2020-05-21T12:37:57Z</time><name>PT9638</name></trkpt>
<trkpt lat="53.381878" lon="-1.656328"><ele>398</ele><time>2020-05-21T12:37:59Z</time><name>PT9639</name></trkpt>
<trkpt lat="53.381867" lon="-1.656338"><ele>398</ele><time>2020-05-21T12:37:59Z</time><name>PT9640</name></trkpt>
<trkpt lat="53.381846" lon="-1.656372"><ele>399</ele><time>2020-05-21T12:38:01Z</time><name>PT9641</name></trkpt>
<trkpt lat="53.381837" lon="-1.656381"><ele>400</ele><time>2020-05-21T12:38:02Z</time><name>PT9642</name></trkpt>
<trkpt lat="53.381829" lon="-1.656390"><ele>400</ele><time>2020-05-21T12:38:04Z</time><name>PT9643</name></trkpt>
<trkpt lat="53.381821" lon="-1.656396"><ele>400</ele><time>2020-05-21T12:38:04Z</time><name>PT9644</name></trkpt>
<trkpt lat="53.381814" lon="-1.656404"><ele>399</ele><time>2020-05-21T12:38:05Z</time><name>PT9645</name></trkpt>
<trkpt lat="53.381804" lon="-1.656413"><ele>400</ele><time>2020-05-21T12:38:06Z</time><name>PT9646</name></trkpt>
<trkpt lat="53.381794" lon="-1.656423"><ele>400</ele><time>2020-05-21T12:38:07Z</time><name>PT9647</name></trkpt>
<trkpt lat="53.381783" lon="-1.656433"><ele>399</ele><time>2020-05-21T12:38:08Z</time><name>PT9648</name></trkpt>
<trkpt lat="53.381773" lon="-1.656442"><ele>399</ele><time>2020-05-21T12:38:10Z</time><name>PT9649</name></trkpt>
<trkpt lat="53.381765" lon="-1.656449"><ele>399</ele><time>2020-05-21T12:38:10Z</time><name>PT9650</name></trkpt>
<trkpt lat="53.381758" lon="-1.656460"><ele>399</ele><time>2020-05-21T12:38:11Z</time><name>PT9651</name></trkpt>
<trkpt lat="53.381750" lon="-1.656469"><ele>399</ele><time>2020-05-21T12:38:13Z</time><name>PT9652</name></trkpt>
<trkpt lat="53.381739" lon="-1.656478"><ele>399</ele><time>2020-05-21T12:38:13Z</time><name>PT9653</name></trkpt>
<trkpt lat="53.381727" lon="-1.656483"><ele>399</ele><time>2020-05-21T12:38:14Z</time><name>PT9654</name></trkpt>
<trkpt lat="53.381717" lon="-1.656498"><ele>399</ele><time>2020-05-21T12:38:16Z</time><name>PT9655</name></trkpt>
<trkpt lat="53.381708" lon="-1.656507"><ele>399</ele><time>2020-05-21T12:38:16Z</time><name>PT9656</name></trkpt>
<trkpt lat="53.381700" lon="-1.656518"><ele>399</ele><time>2020-05-21T12:38:17Z</time><name>PT9657</name></trkpt>
<trkpt lat="53.381689" lon="-1.656532"><ele>399</ele><time>2020-05-21T12:38:19Z</time><name>PT9658</name></trkpt>
<trkpt lat="53.381679" lon="-1.656549"><ele>399</ele><time>2020-05-21T12:38:19Z</time><name>PT9659</name></trkpt>
<trkpt lat="53.381670" lon="-1.656564"><ele>399</ele><time>2020-05-21T12:38:20Z</time><name>PT9660</name></trkpt>
<trkpt lat="53.381657" lon="-1.656575"><ele>399</ele><time>2020-05-21T12:38:22Z</time><name>PT9661</name></trkpt>
<trkpt lat="53.381645" lon="-1.656585"><ele>399</ele><time>2020-05-21T12:38:22Z</time><name>PT9662</name></trkpt>
<trkpt lat="53.381637" lon="-1.656597"><ele>399</ele><time>2020-05-21T12:38:23Z</time><name>PT9663</name></trkpt>
<trkpt lat="53.381628" lon="-1.656607"><ele>399</ele><time>2020-05-21T12:38:25Z</time><name>PT9664</name></trkpt>
<trkpt lat="53.381619" lon="-1.656616"><ele>399</ele><time>2020-05-21T12:38:25Z</time><name>PT9665</name></trkpt>
<trkpt lat="53.381607" lon="-1.656627"><ele>400</ele><time>2020-05-21T12:38:26Z</time><name>PT9666</name></trkpt>
<trkpt lat="53.381597" lon="-1.656635"><ele>399</ele><time>2020-05-21T12:38:28Z</time><name>PT9667</name></trkpt>
<trkpt lat="53.381586" lon="-1.656642"><ele>399</ele><time>2020-05-21T12:38:28Z</time><name>PT9668</name></trkpt>
<trkpt lat="53.381580" lon="-1.656651"><ele>399</ele><time>2020-05-21T12:38:29Z</time><name>PT9669</name></trkpt>
<trkpt lat="53.381572" lon="-1.656661"><ele>398</ele><time>2020-05-21T12:38:31Z</time><name>PT9670</name></trkpt>
<trkpt lat="53.381561" lon="-1.656674"><ele>398</ele><time>2020-05-21T12:38:31Z</time><name>PT9671</name></trkpt>
<trkpt lat="53.381552" lon="-1.656690"><ele>399</ele><time>2020-05-21T12:38:32Z</time><name>PT9672</name></trkpt>
<trkpt lat="53.381541" lon="-1.656703"><ele>399</ele><time>2020-05-21T12:38:34Z</time><name>PT9673</name></trkpt>
<trkpt lat="53.381528" lon="-1.656714"><ele>398</ele><time>2020-05-21T12:38:34Z</time><name>PT9674</name></trkpt>
<trkpt lat="53.381520" lon="-1.656725"><ele>399</ele><time>2020-05-21T12:38:35Z</time><name>PT9675</name></trkpt>
<trkpt lat="53.381511" lon="-1.656735"><ele>399</ele><time>2020-05-21T12:38:36Z</time><name>PT9676</name></trkpt>
<trkpt lat="53.381502" lon="-1.656749"><ele>399</ele><time>2020-05-21T12:38:37Z</time><name>PT9677</name></trkpt>
<trkpt lat="53.381493" lon="-1.656764"><ele>399</ele><time>2020-05-21T12:38:38Z</time><name>PT9678</name></trkpt>
<trkpt lat="53.381482" lon="-1.656786"><ele>399</ele><time>2020-05-21T12:38:40Z</time><name>PT9679</name></trkpt>
<trkpt lat="53.381472" lon="-1.656802"><ele>400</ele><time>2020-05-21T12:38:40Z</time><name>PT9680</name></trkpt>
<trkpt lat="53.381463" lon="-1.656815"><ele>400</ele><time>2020-05-21T12:38:41Z</time><name>PT9681</name></trkpt>
<trkpt lat="53.381456" lon="-1.656824"><ele>400</ele><time>2020-05-21T12:38:43Z</time><name>PT9682</name></trkpt>
<trkpt lat="53.381448" lon="-1.656837"><ele>400</ele><time>2020-05-21T12:38:43Z</time><name>PT9683</name></trkpt>
<trkpt lat="53.381437" lon="-1.656855"><ele>400</ele><time>2020-05-21T12:38:44Z</time><name>PT9684</name></trkpt>
<trkpt lat="53.381428" lon="-1.656868"><ele>400</ele><time>2020-05-21T12:38:46Z</time><name>PT9685</name></trkpt>
<trkpt lat="53.381415" lon="-1.656881"><ele>400</ele><time>2020-05-21T12:38:46Z</time><name>PT9686</name></trkpt>
<trkpt lat="53.381403" lon="-1.656889"><ele>400</ele><time>2020-05-21T12:38:47Z</time><name>PT9687</name></trkpt>
<trkpt lat="53.381395" lon="-1.656892"><ele>400</ele><time>2020-05-21T12:38:49Z</time><name>PT9688</name></trkpt>
<trkpt lat="53.381385" lon="-1.656903"><ele>400</ele><time>2020-05-21T12:38:49Z</time><name>PT9689</name></trkpt>
<trkpt lat="53.381373" lon="-1.656915"><ele>399</ele><time>2020-05-21T12:38:50Z</time><name>PT9690</name></trkpt>
<trkpt lat="53.381362" lon="-1.656926"><ele>399</ele><time>2020-05-21T12:38:52Z</time><name>PT9691</name></trkpt>
<trkpt lat="53.381349" lon="-1.656948"><ele>400</ele><time>2020-05-21T12:38:52Z</time><name>PT9692</name></trkpt>
<trkpt lat="53.381334" lon="-1.656964"><ele>400</ele><time>2020-05-21T12:38:53Z</time><name>PT9693</name></trkpt>
<trkpt lat="53.381320" lon="-1.656976"><ele>400</ele><time>2020-05-21T12:38:55Z</time><name>PT9694</name></trkpt>
<trkpt lat="53.381311" lon="-1.656984"><ele>399</ele><time>2020-05-21T12:38:55Z</time><name>PT9695</name></trkpt>
<trkpt lat="53.381301" lon="-1.656990"><ele>399</ele><time>2020-05-21T12:38:56Z</time><name>PT9696</name></trkpt>
<trkpt lat="53.381291" lon="-1.656996"><ele>399</ele><time>2020-05-21T12:38:58Z</time><name>PT9697</name></trkpt>
<trkpt lat="53.381279" lon="-1.657005"><ele>399</ele><time>2020-05-21T12:38:58Z</time><name>PT9698</name></trkpt>
<trkpt lat="53.381267" lon="-1.657015"><ele>399</ele><time>2020-05-21T12:38:59Z</time><name>PT9699</name></trkpt>
<trkpt lat="53.381253" lon="-1.657027"><ele>400</ele><time>2020-05-21T12:39:01Z</time><name>PT9700</name></trkpt>
<trkpt lat="53.381239" lon="-1.657041"><ele>400</ele><time>2020-05-21T12:39:01Z</time><name>PT9701</name></trkpt>
<trkpt lat="53.381230" lon="-1.657048"><ele>400</ele><time>2020-05-21T12:39:02Z</time><name>PT9702</name></trkpt>
<trkpt lat="53.381222" lon="-1.657058"><ele>400</ele><time>2020-05-21T12:39:04Z</time><name>PT9703</name></trkpt>
<trkpt lat="53.381212" lon="-1.657070"><ele>400</ele><time>2020-05-21T12:39:04Z</time><name>PT9704</name></trkpt>
<trkpt lat="53.381202" lon="-1.657083"><ele>401</ele><time>2020-05-21T12:39:05Z</time><name>PT9705</name></trkpt>
<trkpt lat="53.381188" lon="-1.657091"><ele>401</ele><time>2020-05-21T12:39:06Z</time><name>PT9706</name></trkpt>
<trkpt lat="53.381178" lon="-1.657098"><ele>401</ele><time>2020-05-21T12:39:07Z</time><name>PT9707</name></trkpt>
<trkpt lat="53.381171" lon="-1.657106"><ele>401</ele><time>2020-05-21T12:39:08Z</time><name>PT9708</name></trkpt>
<trkpt lat="53.381162" lon="-1.657118"><ele>401</ele><time>2020-05-21T12:39:09Z</time><name>PT9709</name></trkpt>
<trkpt lat="53.381153" lon="-1.657133"><ele>401</ele><time>2020-05-21T12:39:10Z</time><name>PT9710</name></trkpt>
<trkpt lat="53.381145" lon="-1.657150"><ele>401</ele><time>2020-05-21T12:39:11Z</time><name>PT9711</name></trkpt>
<trkpt lat="53.381134" lon="-1.657169"><ele>401</ele><time>2020-05-21T12:39:13Z</time><name>PT9712</name></trkpt>
<trkpt lat="53.381125" lon="-1.657182"><ele>401</ele><time>2020-05-21T12:39:13Z</time><name>PT9713</name></trkpt>
<trkpt lat="53.381118" lon="-1.657193"><ele>401</ele><time>2020-05-21T12:39:14Z</time><name>PT9714</name></trkpt>
<trkpt lat="53.381111" lon="-1.657203"><ele>401</ele><time>2020-05-21T12:39:16Z</time><name>PT9715</name></trkpt>
<trkpt lat="53.381101" lon="-1.657212"><ele>401</ele><time>2020-05-21T12:39:16Z</time><name>PT9716</name></trkpt>
<trkpt lat="53.381090" lon="-1.657228"><ele>402</ele><time>2020-05-21T12:39:17Z</time><name>PT9717</name></trkpt>
<trkpt lat="53.381078" lon="-1.657240"><ele>402</ele><time>2020-05-21T12:39:19Z</time><name>PT9718</name></trkpt>
<trkpt lat="53.381069" lon="-1.657249"><ele>402</ele><time>2020-05-21T12:39:19Z</time><name>PT9719</name></trkpt>
<trkpt lat="53.381061" lon="-1.657253"><ele>402</ele><time>2020-05-21T12:39:20Z</time><name>PT9720</name></trkpt>
<trkpt lat="53.381053" lon="-1.657264"><ele>402</ele><time>2020-05-21T12:39:22Z</time><name>PT9721</name></trkpt>
<trkpt lat="53.381045" lon="-1.657275"><ele>402</ele><time>2020-05-21T12:39:22Z</time><name>PT9722</name></trkpt>
<trkpt lat="53.381037" lon="-1.657284"><ele>402</ele><time>2020-05-21T12:39:23Z</time><name>PT9723</name></trkpt>
<trkpt lat="53.381034" lon="-1.657294"><ele>402</ele><time>2020-05-21T12:39:25Z</time><name>PT9724</name></trkpt>
<trkpt lat="53.381028" lon="-1.657298"><ele>402</ele><time>2020-05-21T12:39:25Z</time><name>PT9725</name></trkpt>
<trkpt lat="53.381023" lon="-1.657303"><ele>402</ele><time>2020-05-21T12:39:26Z</time><name>PT9726</name></trkpt>
<trkpt lat="53.381021" lon="-1.657311"><ele>403</ele><time>2020-05-21T12:39:28Z</time><name>PT9727</name></trkpt>
<trkpt lat="53.381021" lon="-1.657316"><ele>403</ele><time>2020-05-21T12:39:28Z</time><name>PT9728</name></trkpt>
<trkpt lat="53.381022" lon="-1.657318"><ele>403</ele><time>2020-05-21T12:39:29Z</time><name>PT9729</name></trkpt>
<trkpt lat="53.381024" lon="-1.657322"><ele>403</ele><time>2020-05-21T12:39:30Z</time><name>PT9730</name></trkpt>
<trkpt lat="53.381025" lon="-1.657322"><ele>403</ele><time>2020-05-21T12:39:46Z</time><name>PT9731</name></trkpt>
<trkpt lat="53.381024" lon="-1.657322"><ele>403</ele><time>2020-05-21T12:39:48Z</time><name>PT9732</name></trkpt>
<trkpt lat="53.381025" lon="-1.657325"><ele>403</ele><time>2020-05-21T12:39:48Z</time><name>PT9733</name></trkpt>
<trkpt lat="53.381022" lon="-1.657323"><ele>403</ele><time>2020-05-21T12:41:09Z</time><name>PT9734</name></trkpt>
<trkpt lat="53.381011" lon="-1.657326"><ele>403</ele><time>2020-05-21T12:41:10Z</time><name>PT9735</name></trkpt>
<trkpt lat="53.381002" lon="-1.657332"><ele>403</ele><time>2020-05-21T12:41:11Z</time><name>PT9736</name></trkpt>
<trkpt lat="53.380992" lon="-1.657341"><ele>402</ele><time>2020-05-21T12:41:12Z</time><name>PT9737</name></trkpt>
<trkpt lat="53.380981" lon="-1.657348"><ele>402</ele><time>2020-05-21T12:41:13Z</time><name>PT9738</name></trkpt>
<trkpt lat="53.380969" lon="-1.657358"><ele>402</ele><time>2020-05-21T12:41:14Z</time><name>PT9739</name></trkpt>
<trkpt lat="53.380956" lon="-1.657373"><ele>403</ele><time>2020-05-21T12:41:15Z</time><name>PT9740</name></trkpt>
<trkpt lat="53.380944" lon="-1.657388"><ele>402</ele><time>2020-05-21T12:41:17Z</time><name>PT9741</name></trkpt>
<trkpt lat="53.380936" lon="-1.657399"><ele>402</ele><time>2020-05-21T12:41:17Z</time><name>PT9742</name></trkpt>
<trkpt lat="53.380927" lon="-1.657406"><ele>402</ele><time>2020-05-21T12:41:18Z</time><name>PT9743</name></trkpt>
<trkpt lat="53.380917" lon="-1.657416"><ele>402</ele><time>2020-05-21T12:41:20Z</time><name>PT9744</name></trkpt>
<trkpt lat="53.380904" lon="-1.657426"><ele>402</ele><time>2020-05-21T12:41:20Z</time><name>PT9745</name></trkpt>
<trkpt lat="53.380890" lon="-1.657442"><ele>402</ele><time>2020-05-21T12:41:21Z</time><name>PT9746</name></trkpt>
<trkpt lat="53.380877" lon="-1.657453"><ele>402</ele><time>2020-05-21T12:41:23Z</time><name>PT9747</name></trkpt>
<trkpt lat="53.380868" lon="-1.657462"><ele>402</ele><time>2020-05-21T12:41:23Z</time><name>PT9748</name></trkpt>
<trkpt lat="53.380858" lon="-1.657475"><ele>402</ele><time>2020-05-21T12:41:24Z</time><name>PT9749</name></trkpt>
<trkpt lat="53.380845" lon="-1.657485"><ele>402</ele><time>2020-05-21T12:41:26Z</time><name>PT9750</name></trkpt>
<trkpt lat="53.380835" lon="-1.657496"><ele>402</ele><time>2020-05-21T12:41:26Z</time><name>PT9751</name></trkpt>
<trkpt lat="53.380822" lon="-1.657509"><ele>402</ele><time>2020-05-21T12:41:27Z</time><name>PT9752</name></trkpt>
<trkpt lat="53.380811" lon="-1.657519"><ele>402</ele><time>2020-05-21T12:41:29Z</time><name>PT9753</name></trkpt>
<trkpt lat="53.380803" lon="-1.657529"><ele>402</ele><time>2020-05-21T12:41:29Z</time><name>PT9754</name></trkpt>
<trkpt lat="53.380793" lon="-1.657544"><ele>403</ele><time>2020-05-21T12:41:30Z</time><name>PT9755</name></trkpt>
<trkpt lat="53.380782" lon="-1.657553"><ele>403</ele><time>2020-05-21T12:41:31Z</time><name>PT9756</name></trkpt>
<trkpt lat="53.380771" lon="-1.657565"><ele>403</ele><time>2020-05-21T12:41:32Z</time><name>PT9757</name></trkpt>
<trkpt lat="53.380756" lon="-1.657577"><ele>403</ele><time>2020-05-21T12:41:33Z</time><name>PT9758</name></trkpt>
<trkpt lat="53.380742" lon="-1.657586"><ele>403</ele><time>2020-05-21T12:41:35Z</time><name>PT9759</name></trkpt>
<trkpt lat="53.380734" lon="-1.657594"><ele>403</ele><time>2020-05-21T12:41:35Z</time><name>PT9760</name></trkpt>
<trkpt lat="53.380724" lon="-1.657603"><ele>403</ele><time>2020-05-21T12:41:36Z</time><name>PT9761</name></trkpt>
<trkpt lat="53.380715" lon="-1.657612"><ele>403</ele><time>2020-05-21T12:41:37Z</time><name>PT9762</name></trkpt>
<trkpt lat="53.380702" lon="-1.657622"><ele>402</ele><time>2020-05-21T12:41:38Z</time><name>PT9763</name></trkpt>
<trkpt lat="53.380685" lon="-1.657639"><ele>402</ele><time>2020-05-21T12:41:39Z</time><name>PT9764</name></trkpt>
<trkpt lat="53.380671" lon="-1.657650"><ele>402</ele><time>2020-05-21T12:41:40Z</time><name>PT9765</name></trkpt>
<trkpt lat="53.380661" lon="-1.657660"><ele>402</ele><time>2020-05-21T12:41:41Z</time><name>PT9766</name></trkpt>
<trkpt lat="53.380655" lon="-1.657673"><ele>401</ele><time>2020-05-21T12:41:42Z</time><name>PT9767</name></trkpt>
<trkpt lat="53.380645" lon="-1.657688"><ele>401</ele><time>2020-05-21T12:41:43Z</time><name>PT9768</name></trkpt>
<trkpt lat="53.380619" lon="-1.657713"><ele>402</ele><time>2020-05-21T12:41:45Z</time><name>PT9769</name></trkpt>
<trkpt lat="53.380605" lon="-1.657717"><ele>402</ele><time>2020-05-21T12:41:46Z</time><name>PT9770</name></trkpt>
<trkpt lat="53.380593" lon="-1.657728"><ele>403</ele><time>2020-05-21T12:41:47Z</time><name>PT9771</name></trkpt>
<trkpt lat="53.380583" lon="-1.657736"><ele>403</ele><time>2020-05-21T12:41:48Z</time><name>PT9772</name></trkpt>
<trkpt lat="53.380573" lon="-1.657750"><ele>403</ele><time>2020-05-21T12:41:50Z</time><name>PT9773</name></trkpt>
<trkpt lat="53.380562" lon="-1.657758"><ele>403</ele><time>2020-05-21T12:41:50Z</time><name>PT9774</name></trkpt>
<trkpt lat="53.380550" lon="-1.657766"><ele>403</ele><time>2020-05-21T12:41:51Z</time><name>PT9775</name></trkpt>
<trkpt lat="53.380541" lon="-1.657769"><ele>404</ele><time>2020-05-21T12:41:52Z</time><name>PT9776</name></trkpt>
<trkpt lat="53.380534" lon="-1.657779"><ele>404</ele><time>2020-05-21T12:41:53Z</time><name>PT9777</name></trkpt>
<trkpt lat="53.380526" lon="-1.657783"><ele>404</ele><time>2020-05-21T12:41:55Z</time><name>PT9778</name></trkpt>
<trkpt lat="53.380514" lon="-1.657792"><ele>403</ele><time>2020-05-21T12:41:55Z</time><name>PT9779</name></trkpt>
<trkpt lat="53.380504" lon="-1.657805"><ele>404</ele><time>2020-05-21T12:41:56Z</time><name>PT9780</name></trkpt>
<trkpt lat="53.380492" lon="-1.657818"><ele>404</ele><time>2020-05-21T12:41:58Z</time><name>PT9781</name></trkpt>
<trkpt lat="53.380484" lon="-1.657826"><ele>404</ele><time>2020-05-21T12:41:58Z</time><name>PT9782</name></trkpt>
<trkpt lat="53.380474" lon="-1.657836"><ele>404</ele><time>2020-05-21T12:41:59Z</time><name>PT9783</name></trkpt>
<trkpt lat="53.380464" lon="-1.657846"><ele>404</ele><time>2020-05-21T12:42:00Z</time><name>PT9784</name></trkpt>
<trkpt lat="53.380455" lon="-1.657861"><ele>404</ele><time>2020-05-21T12:42:01Z</time><name>PT9785</name></trkpt>
<trkpt lat="53.380445" lon="-1.657875"><ele>404</ele><time>2020-05-21T12:42:02Z</time><name>PT9786</name></trkpt>
<trkpt lat="53.380435" lon="-1.657887"><ele>405</ele><time>2020-05-21T12:42:04Z</time><name>PT9787</name></trkpt>
<trkpt lat="53.380426" lon="-1.657898"><ele>405</ele><time>2020-05-21T12:42:04Z</time><name>PT9788</name></trkpt>
<trkpt lat="53.380417" lon="-1.657912"><ele>405</ele><time>2020-05-21T12:42:05Z</time><name>PT9789</name></trkpt>
<trkpt lat="53.380407" lon="-1.657924"><ele>405</ele><time>2020-05-21T12:42:07Z</time><name>PT9790</name></trkpt>
<trkpt lat="53.380395" lon="-1.657940"><ele>405</ele><time>2020-05-21T12:42:07Z</time><name>PT9791</name></trkpt>
<trkpt lat="53.380380" lon="-1.657955"><ele>405</ele><time>2020-05-21T12:42:08Z</time><name>PT9792</name></trkpt>
<trkpt lat="53.380370" lon="-1.657960"><ele>405</ele><time>2020-05-21T12:42:10Z</time><name>PT9793</name></trkpt>
<trkpt lat="53.380361" lon="-1.657964"><ele>405</ele><time>2020-05-21T12:42:10Z</time><name>PT9794</name></trkpt>
<trkpt lat="53.380354" lon="-1.657975"><ele>404</ele><time>2020-05-21T12:42:11Z</time><name>PT9795</name></trkpt>
<trkpt lat="53.380344" lon="-1.657991"><ele>404</ele><time>2020-05-21T12:42:12Z</time><name>PT9796</name></trkpt>
<trkpt lat="53.380331" lon="-1.658007"><ele>405</ele><time>2020-05-21T12:42:13Z</time><name>PT9797</name></trkpt>
<trkpt lat="53.380316" lon="-1.658022"><ele>405</ele><time>2020-05-21T12:42:15Z</time><name>PT9798</name></trkpt>
<trkpt lat="53.380298" lon="-1.658057"><ele>406</ele><time>2020-05-21T12:42:16Z</time><name>PT9799</name></trkpt>
<trkpt lat="53.380296" lon="-1.658071"><ele>405</ele><time>2020-05-21T12:42:17Z</time><name>PT9800</name></trkpt>
<trkpt lat="53.380290" lon="-1.658088"><ele>405</ele><time>2020-05-21T12:42:18Z</time><name>PT9801</name></trkpt>
<trkpt lat="53.380281" lon="-1.658099"><ele>405</ele><time>2020-05-21T12:42:20Z</time><name>PT9802</name></trkpt>
<trkpt lat="53.380273" lon="-1.658108"><ele>405</ele><time>2020-05-21T12:42:20Z</time><name>PT9803</name></trkpt>
<trkpt lat="53.380262" lon="-1.658122"><ele>405</ele><time>2020-05-21T12:42:21Z</time><name>PT9804</name></trkpt>
<trkpt lat="53.380250" lon="-1.658132"><ele>405</ele><time>2020-05-21T12:42:23Z</time><name>PT9805</name></trkpt>
<trkpt lat="53.380241" lon="-1.658144"><ele>405</ele><time>2020-05-21T12:42:23Z</time><name>PT9806</name></trkpt>
<trkpt lat="53.380234" lon="-1.658152"><ele>405</ele><time>2020-05-21T12:42:24Z</time><name>PT9807</name></trkpt>
<trkpt lat="53.380225" lon="-1.658154"><ele>405</ele><time>2020-05-21T12:42:26Z</time><name>PT9808</name></trkpt>
<trkpt lat="53.380212" lon="-1.658166"><ele>405</ele><time>2020-05-21T12:42:26Z</time><name>PT9809</name></trkpt>
<trkpt lat="53.380198" lon="-1.658178"><ele>405</ele><time>2020-05-21T12:42:27Z</time><name>PT9810</name></trkpt>
<trkpt lat="53.380189" lon="-1.658184"><ele>405</ele><time>2020-05-21T12:42:28Z</time><name>PT9811</name></trkpt>
<trkpt lat="53.380181" lon="-1.658189"><ele>404</ele><time>2020-05-21T12:42:29Z</time><name>PT9812</name></trkpt>
<trkpt lat="53.380171" lon="-1.658194"><ele>404</ele><time>2020-05-21T12:42:30Z</time><name>PT9813</name></trkpt>
<trkpt lat="53.380163" lon="-1.658196"><ele>403</ele><time>2020-05-21T12:42:32Z</time><name>PT9814</name></trkpt>
<trkpt lat="53.380152" lon="-1.658204"><ele>403</ele><time>2020-05-21T12:42:32Z</time><name>PT9815</name></trkpt>
<trkpt lat="53.380139" lon="-1.658218"><ele>402</ele><time>2020-05-21T12:42:33Z</time><name>PT9816</name></trkpt>
<trkpt lat="53.380132" lon="-1.658221"><ele>402</ele><time>2020-05-21T12:42:35Z</time><name>PT9817</name></trkpt>
<trkpt lat="53.380119" lon="-1.658226"><ele>401</ele><time>2020-05-21T12:42:35Z</time><name>PT9818</name></trkpt>
<trkpt lat="53.380107" lon="-1.658226"><ele>401</ele><time>2020-05-21T12:42:36Z</time><name>PT9819</name></trkpt>
<trkpt lat="53.380095" lon="-1.658234"><ele>402</ele><time>2020-05-21T12:42:37Z</time><name>PT9820</name></trkpt>
<trkpt lat="53.380081" lon="-1.658241"><ele>402</ele><time>2020-05-21T12:42:38Z</time><name>PT9821</name></trkpt>
<trkpt lat="53.380068" lon="-1.658252"><ele>403</ele><time>2020-05-21T12:42:39Z</time><name>PT9822</name></trkpt>
<trkpt lat="53.380060" lon="-1.658262"><ele>403</ele><time>2020-05-21T12:42:40Z</time><name>PT9823</name></trkpt>
<trkpt lat="53.380051" lon="-1.658272"><ele>403</ele><time>2020-05-21T12:42:42Z</time><name>PT9824</name></trkpt>
<trkpt lat="53.380043" lon="-1.658282"><ele>403</ele><time>2020-05-21T12:42:42Z</time><name>PT9825</name></trkpt>
<trkpt lat="53.380035" lon="-1.658302"><ele>404</ele><time>2020-05-21T12:42:43Z</time><name>PT9826</name></trkpt>
<trkpt lat="53.380024" lon="-1.658317"><ele>404</ele><time>2020-05-21T12:42:44Z</time><name>PT9827</name></trkpt>
<trkpt lat="53.380009" lon="-1.658330"><ele>404</ele><time>2020-05-21T12:42:45Z</time><name>PT9828</name></trkpt>
<trkpt lat="53.379998" lon="-1.658336"><ele>405</ele><time>2020-05-21T12:42:46Z</time><name>PT9829</name></trkpt>
<trkpt lat="53.379990" lon="-1.658350"><ele>405</ele><time>2020-05-21T12:42:47Z</time><name>PT9830</name></trkpt>
<trkpt lat="53.379982" lon="-1.658365"><ele>406</ele><time>2020-05-21T12:42:49Z</time><name>PT9831</name></trkpt>
<trkpt lat="53.379973" lon="-1.658381"><ele>405</ele><time>2020-05-21T12:42:49Z</time><name>PT9832</name></trkpt>
<trkpt lat="53.379962" lon="-1.658396"><ele>405</ele><time>2020-05-21T12:42:50Z</time><name>PT9833</name></trkpt>
<trkpt lat="53.379950" lon="-1.658411"><ele>406</ele><time>2020-05-21T12:42:52Z</time><name>PT9834</name></trkpt>
<trkpt lat="53.379930" lon="-1.658430"><ele>404</ele><time>2020-05-21T12:42:53Z</time><name>PT9835</name></trkpt>
<trkpt lat="53.379922" lon="-1.658438"><ele>404</ele><time>2020-05-21T12:42:55Z</time><name>PT9836</name></trkpt>
<trkpt lat="53.379913" lon="-1.658448"><ele>404</ele><time>2020-05-21T12:42:55Z</time><name>PT9837</name></trkpt>
<trkpt lat="53.379900" lon="-1.658461"><ele>404</ele><time>2020-05-21T12:42:56Z</time><name>PT9838</name></trkpt>
<trkpt lat="53.379890" lon="-1.658472"><ele>405</ele><time>2020-05-21T12:42:58Z</time><name>PT9839</name></trkpt>
<trkpt lat="53.379884" lon="-1.658482"><ele>405</ele><time>2020-05-21T12:42:58Z</time><name>PT9840</name></trkpt>
<trkpt lat="53.379875" lon="-1.658494"><ele>405</ele><time>2020-05-21T12:42:59Z</time><name>PT9841</name></trkpt>
<trkpt lat="53.379865" lon="-1.658508"><ele>405</ele><time>2020-05-21T12:43:01Z</time><name>PT9842</name></trkpt>
<trkpt lat="53.379853" lon="-1.658520"><ele>405</ele><time>2020-05-21T12:43:01Z</time><name>PT9843</name></trkpt>
<trkpt lat="53.379838" lon="-1.658536"><ele>406</ele><time>2020-05-21T12:43:02Z</time><name>PT9844</name></trkpt>
<trkpt lat="53.379826" lon="-1.658547"><ele>406</ele><time>2020-05-21T12:43:04Z</time><name>PT9845</name></trkpt>
<trkpt lat="53.379817" lon="-1.658558"><ele>406</ele><time>2020-05-21T12:43:04Z</time><name>PT9846</name></trkpt>
<trkpt lat="53.379810" lon="-1.658571"><ele>406</ele><time>2020-05-21T12:43:05Z</time><name>PT9847</name></trkpt>
<trkpt lat="53.379801" lon="-1.658586"><ele>407</ele><time>2020-05-21T12:43:07Z</time><name>PT9848</name></trkpt>
<trkpt lat="53.379788" lon="-1.658603"><ele>407</ele><time>2020-05-21T12:43:07Z</time><name>PT9849</name></trkpt>
<trkpt lat="53.379772" lon="-1.658617"><ele>406</ele><time>2020-05-21T12:43:08Z</time><name>PT9850</name></trkpt>
<trkpt lat="53.379762" lon="-1.658625"><ele>406</ele><time>2020-05-21T12:43:10Z</time><name>PT9851</name></trkpt>
<trkpt lat="53.379753" lon="-1.658636"><ele>406</ele><time>2020-05-21T12:43:10Z</time><name>PT9852</name></trkpt>
<trkpt lat="53.379745" lon="-1.658649"><ele>407</ele><time>2020-05-21T12:43:11Z</time><name>PT9853</name></trkpt>
<trkpt lat="53.379734" lon="-1.658665"><ele>406</ele><time>2020-05-21T12:43:13Z</time><name>PT9854</name></trkpt>
<trkpt lat="53.379721" lon="-1.658682"><ele>407</ele><time>2020-05-21T12:43:13Z</time><name>PT9855</name></trkpt>
<trkpt lat="53.379710" lon="-1.658692"><ele>406</ele><time>2020-05-21T12:43:14Z</time><name>PT9856</name></trkpt>
<trkpt lat="53.379701" lon="-1.658699"><ele>406</ele><time>2020-05-21T12:43:16Z</time><name>PT9857</name></trkpt>
<trkpt lat="53.379694" lon="-1.658706"><ele>407</ele><time>2020-05-21T12:43:16Z</time><name>PT9858</name></trkpt>
<trkpt lat="53.379684" lon="-1.658716"><ele>407</ele><time>2020-05-21T12:43:17Z</time><name>PT9859</name></trkpt>
<trkpt lat="53.379672" lon="-1.658723"><ele>407</ele><time>2020-05-21T12:43:18Z</time><name>PT9860</name></trkpt>
<trkpt lat="53.379660" lon="-1.658732"><ele>407</ele><time>2020-05-21T12:43:19Z</time><name>PT9861</name></trkpt>
<trkpt lat="53.379651" lon="-1.658740"><ele>407</ele><time>2020-05-21T12:43:20Z</time><name>PT9862</name></trkpt>
<trkpt lat="53.379642" lon="-1.658752"><ele>408</ele><time>2020-05-21T12:43:22Z</time><name>PT9863</name></trkpt>
<trkpt lat="53.379633" lon="-1.658764"><ele>408</ele><time>2020-05-21T12:43:22Z</time><name>PT9864</name></trkpt>
<trkpt lat="53.379622" lon="-1.658782"><ele>408</ele><time>2020-05-21T12:43:24Z</time><name>PT9865</name></trkpt>
<trkpt lat="53.379612" lon="-1.658799"><ele>409</ele><time>2020-05-21T12:43:25Z</time><name>PT9866</name></trkpt>
<trkpt lat="53.379600" lon="-1.658817"><ele>409</ele><time>2020-05-21T12:43:25Z</time><name>PT9867</name></trkpt>
<trkpt lat="53.379591" lon="-1.658829"><ele>409</ele><time>2020-05-21T12:43:26Z</time><name>PT9868</name></trkpt>
<trkpt lat="53.379586" lon="-1.658843"><ele>409</ele><time>2020-05-21T12:43:27Z</time><name>PT9869</name></trkpt>
<trkpt lat="53.379579" lon="-1.658854"><ele>409</ele><time>2020-05-21T12:43:28Z</time><name>PT9870</name></trkpt>
<trkpt lat="53.379566" lon="-1.658862"><ele>409</ele><time>2020-05-21T12:43:29Z</time><name>PT9871</name></trkpt>
<trkpt lat="53.379555" lon="-1.658868"><ele>409</ele><time>2020-05-21T12:43:30Z</time><name>PT9872</name></trkpt>
<trkpt lat="53.379543" lon="-1.658874"><ele>410</ele><time>2020-05-21T12:43:31Z</time><name>PT9873</name></trkpt>
<trkpt lat="53.379532" lon="-1.658884"><ele>410</ele><time>2020-05-21T12:43:32Z</time><name>PT9874</name></trkpt>
<trkpt lat="53.379526" lon="-1.658899"><ele>410</ele><time>2020-05-21T12:43:34Z</time><name>PT9875</name></trkpt>
<trkpt lat="53.379518" lon="-1.658909"><ele>410</ele><time>2020-05-21T12:43:34Z</time><name>PT9876</name></trkpt>
<trkpt lat="53.379505" lon="-1.658921"><ele>410</ele><time>2020-05-21T12:43:35Z</time><name>PT9877</name></trkpt>
<trkpt lat="53.379493" lon="-1.658932"><ele>410</ele><time>2020-05-21T12:43:36Z</time><name>PT9878</name></trkpt>
<trkpt lat="53.379478" lon="-1.658947"><ele>410</ele><time>2020-05-21T12:43:37Z</time><name>PT9879</name></trkpt>
<trkpt lat="53.379467" lon="-1.658956"><ele>410</ele><time>2020-05-21T12:43:38Z</time><name>PT9880</name></trkpt>
<trkpt lat="53.379458" lon="-1.658972"><ele>410</ele><time>2020-05-21T12:43:39Z</time><name>PT9881</name></trkpt>
<trkpt lat="53.379450" lon="-1.658988"><ele>409</ele><time>2020-05-21T12:43:40Z</time><name>PT9882</name></trkpt>
<trkpt lat="53.379441" lon="-1.659003"><ele>409</ele><time>2020-05-21T12:43:41Z</time><name>PT9883</name></trkpt>
<trkpt lat="53.379426" lon="-1.659021"><ele>409</ele><time>2020-05-21T12:43:43Z</time><name>PT9884</name></trkpt>
<trkpt lat="53.379414" lon="-1.659037"><ele>409</ele><time>2020-05-21T12:43:43Z</time><name>PT9885</name></trkpt>
<trkpt lat="53.379409" lon="-1.659050"><ele>408</ele><time>2020-05-21T12:43:44Z</time><name>PT9886</name></trkpt>
<trkpt lat="53.379401" lon="-1.659067"><ele>408</ele><time>2020-05-21T12:43:46Z</time><name>PT9887</name></trkpt>
<trkpt lat="53.379393" lon="-1.659077"><ele>409</ele><time>2020-05-21T12:43:46Z</time><name>PT9888</name></trkpt>
<trkpt lat="53.379386" lon="-1.659097"><ele>409</ele><time>2020-05-21T12:43:47Z</time><name>PT9889</name></trkpt>
<trkpt lat="53.379380" lon="-1.659113"><ele>410</ele><time>2020-05-21T12:43:49Z</time><name>PT9890</name></trkpt>
<trkpt lat="53.379370" lon="-1.659120"><ele>410</ele><time>2020-05-21T12:43:49Z</time><name>PT9891</name></trkpt>
<trkpt lat="53.379363" lon="-1.659125"><ele>410</ele><time>2020-05-21T12:43:50Z</time><name>PT9892</name></trkpt>
<trkpt lat="53.379357" lon="-1.659133"><ele>410</ele><time>2020-05-21T12:43:52Z</time><name>PT9893</name></trkpt>
<trkpt lat="53.379348" lon="-1.659143"><ele>410</ele><time>2020-05-21T12:43:52Z</time><name>PT9894</name></trkpt>
<trkpt lat="53.379339" lon="-1.659152"><ele>410</ele><time>2020-05-21T12:43:53Z</time><name>PT9895</name></trkpt>
<trkpt lat="53.379327" lon="-1.659171"><ele>411</ele><time>2020-05-21T12:43:55Z</time><name>PT9896</name></trkpt>
<trkpt lat="53.379314" lon="-1.659184"><ele>411</ele><time>2020-05-21T12:43:55Z</time><name>PT9897</name></trkpt>
<trkpt lat="53.379306" lon="-1.659193"><ele>410</ele><time>2020-05-21T12:43:56Z</time><name>PT9898</name></trkpt>
<trkpt lat="53.379296" lon="-1.659206"><ele>410</ele><time>2020-05-21T12:43:57Z</time><name>PT9899</name></trkpt>
<trkpt lat="53.379284" lon="-1.659220"><ele>410</ele><time>2020-05-21T12:43:58Z</time><name>PT9900</name></trkpt>
<trkpt lat="53.379275" lon="-1.659229"><ele>410</ele><time>2020-05-21T12:43:59Z</time><name>PT9901</name></trkpt>
<trkpt lat="53.379265" lon="-1.659238"><ele>411</ele><time>2020-05-21T12:44:01Z</time><name>PT9902</name></trkpt>
<trkpt lat="53.379248" lon="-1.659267"><ele>411</ele><time>2020-05-21T12:44:02Z</time><name>PT9903</name></trkpt>
<trkpt lat="53.379240" lon="-1.659279"><ele>411</ele><time>2020-05-21T12:44:04Z</time><name>PT9904</name></trkpt>
<trkpt lat="53.379230" lon="-1.659296"><ele>412</ele><time>2020-05-21T12:44:04Z</time><name>PT9905</name></trkpt>
<trkpt lat="53.379217" lon="-1.659315"><ele>412</ele><time>2020-05-21T12:44:05Z</time><name>PT9906</name></trkpt>
<trkpt lat="53.379207" lon="-1.659326"><ele>412</ele><time>2020-05-21T12:44:07Z</time><name>PT9907</name></trkpt>
<trkpt lat="53.379200" lon="-1.659335"><ele>412</ele><time>2020-05-21T12:44:07Z</time><name>PT9908</name></trkpt>
<trkpt lat="53.379191" lon="-1.659343"><ele>412</ele><time>2020-05-21T12:44:08Z</time><name>PT9909</name></trkpt>
<trkpt lat="53.379182" lon="-1.659350"><ele>413</ele><time>2020-05-21T12:44:09Z</time><name>PT9910</name></trkpt>
<trkpt lat="53.379168" lon="-1.659356"><ele>414</ele><time>2020-05-21T12:44:10Z</time><name>PT9911</name></trkpt>
<trkpt lat="53.379157" lon="-1.659363"><ele>414</ele><time>2020-05-21T12:44:11Z</time><name>PT9912</name></trkpt>
<trkpt lat="53.379149" lon="-1.659371"><ele>415</ele><time>2020-05-21T12:44:13Z</time><name>PT9913</name></trkpt>
<trkpt lat="53.379138" lon="-1.659379"><ele>414</ele><time>2020-05-21T12:44:13Z</time><name>PT9914</name></trkpt>
<trkpt lat="53.379126" lon="-1.659390"><ele>414</ele><time>2020-05-21T12:44:14Z</time><name>PT9915</name></trkpt>
<trkpt lat="53.379114" lon="-1.659404"><ele>415</ele><time>2020-05-21T12:44:15Z</time><name>PT9916</name></trkpt>
<trkpt lat="53.379104" lon="-1.659416"><ele>415</ele><time>2020-05-21T12:44:16Z</time><name>PT9917</name></trkpt>
<trkpt lat="53.379098" lon="-1.659424"><ele>415</ele><time>2020-05-21T12:44:17Z</time><name>PT9918</name></trkpt>
<trkpt lat="53.379090" lon="-1.659435"><ele>414</ele><time>2020-05-21T12:44:18Z</time><name>PT9919</name></trkpt>
<trkpt lat="53.379080" lon="-1.659449"><ele>414</ele><time>2020-05-21T12:44:19Z</time><name>PT9920</name></trkpt>
<trkpt lat="53.379067" lon="-1.659463"><ele>414</ele><time>2020-05-21T12:44:21Z</time><name>PT9921</name></trkpt>
<trkpt lat="53.379054" lon="-1.659476"><ele>414</ele><time>2020-05-21T12:44:21Z</time><name>PT9922</name></trkpt>
<trkpt lat="53.379048" lon="-1.659485"><ele>414</ele><time>2020-05-21T12:44:22Z</time><name>PT9923</name></trkpt>
<trkpt lat="53.379040" lon="-1.659495"><ele>414</ele><time>2020-05-21T12:44:24Z</time><name>PT9924</name></trkpt>
<trkpt lat="53.379031" lon="-1.659502"><ele>414</ele><time>2020-05-21T12:44:24Z</time><name>PT9925</name></trkpt>
<trkpt lat="53.379019" lon="-1.659511"><ele>414</ele><time>2020-05-21T12:44:25Z</time><name>PT9926</name></trkpt>
<trkpt lat="53.379006" lon="-1.659527"><ele>414</ele><time>2020-05-21T12:44:26Z</time><name>PT9927</name></trkpt>
<trkpt lat="53.379000" lon="-1.659539"><ele>414</ele><time>2020-05-21T12:44:27Z</time><name>PT9928</name></trkpt>
<trkpt lat="53.378993" lon="-1.659551"><ele>415</ele><time>2020-05-21T12:44:29Z</time><name>PT9929</name></trkpt>
<trkpt lat="53.378985" lon="-1.659560"><ele>415</ele><time>2020-05-21T12:44:29Z</time><name>PT9930</name></trkpt>
<trkpt lat="53.378973" lon="-1.659571"><ele>416</ele><time>2020-05-21T12:44:30Z</time><name>PT9931</name></trkpt>
<trkpt lat="53.378959" lon="-1.659578"><ele>415</ele><time>2020-05-21T12:44:32Z</time><name>PT9932</name></trkpt>
<trkpt lat="53.378949" lon="-1.659584"><ele>415</ele><time>2020-05-21T12:44:32Z</time><name>PT9933</name></trkpt>
<trkpt lat="53.378944" lon="-1.659593"><ele>415</ele><time>2020-05-21T12:44:33Z</time><name>PT9934</name></trkpt>
<trkpt lat="53.378934" lon="-1.659606"><ele>415</ele><time>2020-05-21T12:44:34Z</time><name>PT9935</name></trkpt>
<trkpt lat="53.378922" lon="-1.659620"><ele>415</ele><time>2020-05-21T12:44:35Z</time><name>PT9936</name></trkpt>
<trkpt lat="53.378911" lon="-1.659633"><ele>415</ele><time>2020-05-21T12:44:36Z</time><name>PT9937</name></trkpt>
<trkpt lat="53.378903" lon="-1.659651"><ele>415</ele><time>2020-05-21T12:44:37Z</time><name>PT9938</name></trkpt>
<trkpt lat="53.378899" lon="-1.659661"><ele>415</ele><time>2020-05-21T12:44:38Z</time><name>PT9939</name></trkpt>
<trkpt lat="53.378891" lon="-1.659674"><ele>415</ele><time>2020-05-21T12:44:39Z</time><name>PT9940</name></trkpt>
<trkpt lat="53.378881" lon="-1.659688"><ele>415</ele><time>2020-05-21T12:44:40Z</time><name>PT9941</name></trkpt>
<trkpt lat="53.378870" lon="-1.659704"><ele>415</ele><time>2020-05-21T12:44:41Z</time><name>PT9942</name></trkpt>
<trkpt lat="53.378858" lon="-1.659712"><ele>415</ele><time>2020-05-21T12:44:43Z</time><name>PT9943</name></trkpt>
<trkpt lat="53.378850" lon="-1.659720"><ele>415</ele><time>2020-05-21T12:44:43Z</time><name>PT9944</name></trkpt>
<trkpt lat="53.378839" lon="-1.659721"><ele>415</ele><time>2020-05-21T12:44:44Z</time><name>PT9945</name></trkpt>
<trkpt lat="53.378826" lon="-1.659728"><ele>416</ele><time>2020-05-21T12:44:46Z</time><name>PT9946</name></trkpt>
<trkpt lat="53.378812" lon="-1.659740"><ele>416</ele><time>2020-05-21T12:44:46Z</time><name>PT9947</name></trkpt>
<trkpt lat="53.378802" lon="-1.659752"><ele>416</ele><time>2020-05-21T12:44:47Z</time><name>PT9948</name></trkpt>
<trkpt lat="53.378795" lon="-1.659761"><ele>416</ele><time>2020-05-21T12:44:49Z</time><name>PT9949</name></trkpt>
<trkpt lat="53.378786" lon="-1.659775"><ele>415</ele><time>2020-05-21T12:44:49Z</time><name>PT9950</name></trkpt>
<trkpt lat="53.378776" lon="-1.659792"><ele>415</ele><time>2020-05-21T12:44:50Z</time><name>PT9951</name></trkpt>
<trkpt lat="53.378766" lon="-1.659804"><ele>415</ele><time>2020-05-21T12:44:52Z</time><name>PT9952</name></trkpt>
<trkpt lat="53.378759" lon="-1.659815"><ele>415</ele><time>2020-05-21T12:44:52Z</time><name>PT9953</name></trkpt>
<trkpt lat="53.378750" lon="-1.659822"><ele>415</ele><time>2020-05-21T12:44:53Z</time><name>PT9954</name></trkpt>
<trkpt lat="53.378744" lon="-1.659834"><ele>414</ele><time>2020-05-21T12:44:54Z</time><name>PT9955</name></trkpt>
<trkpt lat="53.378733" lon="-1.659848"><ele>414</ele><time>2020-05-21T12:44:55Z</time><name>PT9956</name></trkpt>
<trkpt lat="53.378721" lon="-1.659859"><ele>414</ele><time>2020-05-21T12:44:57Z</time><name>PT9957</name></trkpt>
<trkpt lat="53.378712" lon="-1.659863"><ele>415</ele><time>2020-05-21T12:44:57Z</time><name>PT9958</name></trkpt>
<trkpt lat="53.378703" lon="-1.659872"><ele>415</ele><time>2020-05-21T12:44:58Z</time><name>PT9959</name></trkpt>
<trkpt lat="53.378695" lon="-1.659885"><ele>415</ele><time>2020-05-21T12:45:00Z</time><name>PT9960</name></trkpt>
<trkpt lat="53.378685" lon="-1.659895"><ele>415</ele><time>2020-05-21T12:45:00Z</time><name>PT9961</name></trkpt>
<trkpt lat="53.378671" lon="-1.659910"><ele>415</ele><time>2020-05-21T12:45:01Z</time><name>PT9962</name></trkpt>
<trkpt lat="53.378660" lon="-1.659923"><ele>415</ele><time>2020-05-21T12:45:02Z</time><name>PT9963</name></trkpt>
<trkpt lat="53.378654" lon="-1.659932"><ele>415</ele><time>2020-05-21T12:45:03Z</time><name>PT9964</name></trkpt>
<trkpt lat="53.378647" lon="-1.659938"><ele>415</ele><time>2020-05-21T12:45:05Z</time><name>PT9965</name></trkpt>
<trkpt lat="53.378636" lon="-1.659951"><ele>414</ele><time>2020-05-21T12:45:05Z</time><name>PT9966</name></trkpt>
<trkpt lat="53.378625" lon="-1.659964"><ele>414</ele><time>2020-05-21T12:45:06Z</time><name>PT9967</name></trkpt>
<trkpt lat="53.378616" lon="-1.659972"><ele>414</ele><time>2020-05-21T12:45:08Z</time><name>PT9968</name></trkpt>
<trkpt lat="53.378607" lon="-1.659984"><ele>414</ele><time>2020-05-21T12:45:08Z</time><name>PT9969</name></trkpt>
<trkpt lat="53.378596" lon="-1.659995"><ele>413</ele><time>2020-05-21T12:45:09Z</time><name>PT9970</name></trkpt>
<trkpt lat="53.378585" lon="-1.660009"><ele>413</ele><time>2020-05-21T12:45:10Z</time><name>PT9971</name></trkpt>
<trkpt lat="53.378573" lon="-1.660018"><ele>413</ele><time>2020-05-21T12:45:11Z</time><name>PT9972</name></trkpt>
<trkpt lat="53.378563" lon="-1.660027"><ele>413</ele><time>2020-05-21T12:45:13Z</time><name>PT9973</name></trkpt>
<trkpt lat="53.378558" lon="-1.660040"><ele>413</ele><time>2020-05-21T12:45:13Z</time><name>PT9974</name></trkpt>
<trkpt lat="53.378551" lon="-1.660054"><ele>413</ele><time>2020-05-21T12:45:14Z</time><name>PT9975</name></trkpt>
<trkpt lat="53.378546" lon="-1.660077"><ele>414</ele><time>2020-05-21T12:45:16Z</time><name>PT9976</name></trkpt>
<trkpt lat="53.378535" lon="-1.660102"><ele>415</ele><time>2020-05-21T12:45:16Z</time><name>PT9977</name></trkpt>
<trkpt lat="53.378524" lon="-1.660117"><ele>415</ele><time>2020-05-21T12:45:17Z</time><name>PT9978</name></trkpt>
<trkpt lat="53.378509" lon="-1.660139"><ele>414</ele><time>2020-05-21T12:45:19Z</time><name>PT9979</name></trkpt>
<trkpt lat="53.378502" lon="-1.660151"><ele>414</ele><time>2020-05-21T12:45:20Z</time><name>PT9980</name></trkpt>
<trkpt lat="53.378497" lon="-1.660166"><ele>415</ele><time>2020-05-21T12:45:22Z</time><name>PT9981</name></trkpt>
<trkpt lat="53.378487" lon="-1.660184"><ele>415</ele><time>2020-05-21T12:45:22Z</time><name>PT9982</name></trkpt>
<trkpt lat="53.378476" lon="-1.660188"><ele>414</ele><time>2020-05-21T12:45:23Z</time><name>PT9983</name></trkpt>
<trkpt lat="53.378470" lon="-1.660195"><ele>415</ele><time>2020-05-21T12:45:24Z</time><name>PT9984</name></trkpt>
<trkpt lat="53.378459" lon="-1.660200"><ele>415</ele><time>2020-05-21T12:45:25Z</time><name>PT9985</name></trkpt>
<trkpt lat="53.378446" lon="-1.660205"><ele>415</ele><time>2020-05-21T12:45:26Z</time><name>PT9986</name></trkpt>
<trkpt lat="53.378432" lon="-1.660203"><ele>415</ele><time>2020-05-21T12:45:28Z</time><name>PT9987</name></trkpt>
<trkpt lat="53.378419" lon="-1.660207"><ele>415</ele><time>2020-05-21T12:45:28Z</time><name>PT9988</name></trkpt>
<trkpt lat="53.378409" lon="-1.660210"><ele>415</ele><time>2020-05-21T12:45:29Z</time><name>PT9989</name></trkpt>
<trkpt lat="53.378401" lon="-1.660213"><ele>415</ele><time>2020-05-21T12:45:31Z</time><name>PT9990</name></trkpt>
<trkpt lat="53.378390" lon="-1.660216"><ele>415</ele><time>2020-05-21T12:45:31Z</time><name>PT9991</name></trkpt>
<trkpt lat="53.378377" lon="-1.660219"><ele>415</ele><time>2020-05-21T12:45:32Z</time><name>PT9992</name></trkpt>
<trkpt lat="53.378364" lon="-1.660226"><ele>416</ele><time>2020-05-21T12:45:33Z</time><name>PT9993</name></trkpt>
<trkpt lat="53.378351" lon="-1.660232"><ele>416</ele><time>2020-05-21T12:45:34Z</time><name>PT9994</name></trkpt>
<trkpt lat="53.378343" lon="-1.660242"><ele>416</ele><time>2020-05-21T12:45:36Z</time><name>PT9995</name></trkpt>
<trkpt lat="53.378335" lon="-1.660251"><ele>417</ele><time>2020-05-21T12:45:36Z</time><name>PT9996</name></trkpt>
<trkpt lat="53.378326" lon="-1.660260"><ele>417</ele><time>2020-05-21T12:45:37Z</time><name>PT9997</name></trkpt>
<trkpt lat="53.378315" lon="-1.660271"><ele>417</ele><time>2020-05-21T12:45:39Z</time><name>PT9998</name></trkpt>
<trkpt lat="53.378307" lon="-1.660280"><ele>417</ele><time>2020-05-21T12:45:39Z</time><name>PT9999</name></trkpt>
<trkpt lat="53.378297" lon="-1.660289"><ele>417</ele><time>2020-05-21T12:45:40Z</time><name>PT10000</name></trkpt>
<trkpt lat="53.378285" lon="-1.660296"><ele>417</ele><time>2020-05-21T12:45:41Z</time><name>PT10001</name></trkpt>
<trkpt lat="53.378273" lon="-1.660303"><ele>417</ele><time>2020-05-21T12:45:42Z</time><name>PT10002</name></trkpt>
<trkpt lat="53.378257" lon="-1.660309"><ele>417</ele><time>2020-05-21T12:45:43Z</time><name>PT10003</name></trkpt>
<trkpt lat="53.378247" lon="-1.660317"><ele>418</ele><time>2020-05-21T12:45:44Z</time><name>PT10004</name></trkpt>
<trkpt lat="53.378238" lon="-1.660328"><ele>418</ele><time>2020-05-21T12:45:45Z</time><name>PT10005</name></trkpt>
<trkpt lat="53.378230" lon="-1.660336"><ele>418</ele><time>2020-05-21T12:45:47Z</time><name>PT10006</name></trkpt>
<trkpt lat="53.378220" lon="-1.660349"><ele>418</ele><time>2020-05-21T12:45:47Z</time><name>PT10007</name></trkpt>
<trkpt lat="53.378207" lon="-1.660369"><ele>418</ele><time>2020-05-21T12:45:48Z</time><name>PT10008</name></trkpt>
<trkpt lat="53.378195" lon="-1.660386"><ele>419</ele><time>2020-05-21T12:45:49Z</time><name>PT10009</name></trkpt>
<trkpt lat="53.378189" lon="-1.660393"><ele>419</ele><time>2020-05-21T12:45:50Z</time><name>PT10010</name></trkpt>
<trkpt lat="53.378184" lon="-1.660404"><ele>420</ele><time>2020-05-21T12:45:51Z</time><name>PT10011</name></trkpt>
<trkpt lat="53.378177" lon="-1.660417"><ele>419</ele><time>2020-05-21T12:45:53Z</time><name>PT10012</name></trkpt>
<trkpt lat="53.378170" lon="-1.660434"><ele>419</ele><time>2020-05-21T12:45:53Z</time><name>PT10013</name></trkpt>
<trkpt lat="53.378159" lon="-1.660451"><ele>419</ele><time>2020-05-21T12:45:55Z</time><name>PT10014</name></trkpt>
<trkpt lat="53.378147" lon="-1.660465"><ele>420</ele><time>2020-05-21T12:45:56Z</time><name>PT10015</name></trkpt>
<trkpt lat="53.378138" lon="-1.660473"><ele>420</ele><time>2020-05-21T12:45:56Z</time><name>PT10016</name></trkpt>
<trkpt lat="53.378130" lon="-1.660485"><ele>420</ele><time>2020-05-21T12:45:57Z</time><name>PT10017</name></trkpt>
<trkpt lat="53.378119" lon="-1.660500"><ele>420</ele><time>2020-05-21T12:45:59Z</time><name>PT10018</name></trkpt>
<trkpt lat="53.378105" lon="-1.660521"><ele>420</ele><time>2020-05-21T12:45:59Z</time><name>PT10019</name></trkpt>
<trkpt lat="53.378093" lon="-1.660538"><ele>421</ele><time>2020-05-21T12:46:00Z</time><name>PT10020</name></trkpt>
<trkpt lat="53.378083" lon="-1.660551"><ele>421</ele><time>2020-05-21T12:46:01Z</time><name>PT10021</name></trkpt>
<trkpt lat="53.378077" lon="-1.660558"><ele>420</ele><time>2020-05-21T12:46:02Z</time><name>PT10022</name></trkpt>
<trkpt lat="53.378070" lon="-1.660572"><ele>420</ele><time>2020-05-21T12:46:03Z</time><name>PT10023</name></trkpt>
<trkpt lat="53.378061" lon="-1.660584"><ele>420</ele><time>2020-05-21T12:46:05Z</time><name>PT10024</name></trkpt>
<trkpt lat="53.378050" lon="-1.660596"><ele>420</ele><time>2020-05-21T12:46:05Z</time><name>PT10025</name></trkpt>
<trkpt lat="53.378043" lon="-1.660605"><ele>420</ele><time>2020-05-21T12:46:06Z</time><name>PT10026</name></trkpt>
<trkpt lat="53.378039" lon="-1.660618"><ele>420</ele><time>2020-05-21T12:46:07Z</time><name>PT10027</name></trkpt>
<trkpt lat="53.378031" lon="-1.660628"><ele>420</ele><time>2020-05-21T12:46:08Z</time><name>PT10028</name></trkpt>
<trkpt lat="53.378022" lon="-1.660643"><ele>420</ele><time>2020-05-21T12:46:09Z</time><name>PT10029</name></trkpt>
<trkpt lat="53.378015" lon="-1.660661"><ele>421</ele><time>2020-05-21T12:46:10Z</time><name>PT10030</name></trkpt>
<trkpt lat="53.378005" lon="-1.660681"><ele>421</ele><time>2020-05-21T12:46:11Z</time><name>PT10031</name></trkpt>
<trkpt lat="53.377997" lon="-1.660696"><ele>422</ele><time>2020-05-21T12:46:13Z</time><name>PT10032</name></trkpt>
<trkpt lat="53.377991" lon="-1.660706"><ele>422</ele><time>2020-05-21T12:46:13Z</time><name>PT10033</name></trkpt>
<trkpt lat="53.377975" lon="-1.660723"><ele>422</ele><time>2020-05-21T12:46:16Z</time><name>PT10034</name></trkpt>
<trkpt lat="53.377964" lon="-1.660735"><ele>422</ele><time>2020-05-21T12:46:16Z</time><name>PT10035</name></trkpt>
<trkpt lat="53.377952" lon="-1.660746"><ele>423</ele><time>2020-05-21T12:46:17Z</time><name>PT10036</name></trkpt>
<trkpt lat="53.377946" lon="-1.660753"><ele>422</ele><time>2020-05-21T12:46:19Z</time><name>PT10037</name></trkpt>
<trkpt lat="53.377938" lon="-1.660758"><ele>423</ele><time>2020-05-21T12:46:19Z</time><name>PT10038</name></trkpt>
<trkpt lat="53.377929" lon="-1.660765"><ele>423</ele><time>2020-05-21T12:46:20Z</time><name>PT10039</name></trkpt>
<trkpt lat="53.377917" lon="-1.660777"><ele>423</ele><time>2020-05-21T12:46:22Z</time><name>PT10040</name></trkpt>
<trkpt lat="53.377905" lon="-1.660788"><ele>423</ele><time>2020-05-21T12:46:22Z</time><name>PT10041</name></trkpt>
<trkpt lat="53.377891" lon="-1.660797"><ele>423</ele><time>2020-05-21T12:46:23Z</time><name>PT10042</name></trkpt>
<trkpt lat="53.377884" lon="-1.660805"><ele>423</ele><time>2020-05-21T12:46:25Z</time><name>PT10043</name></trkpt>
<trkpt lat="53.377876" lon="-1.660817"><ele>423</ele><time>2020-05-21T12:46:25Z</time><name>PT10044</name></trkpt>
<trkpt lat="53.377866" lon="-1.660829"><ele>423</ele><time>2020-05-21T12:46:26Z</time><name>PT10045</name></trkpt>
<trkpt lat="53.377854" lon="-1.660844"><ele>424</ele><time>2020-05-21T12:46:28Z</time><name>PT10046</name></trkpt>
<trkpt lat="53.377840" lon="-1.660855"><ele>424</ele><time>2020-05-21T12:46:28Z</time><name>PT10047</name></trkpt>
<trkpt lat="53.377830" lon="-1.660864"><ele>424</ele><time>2020-05-21T12:46:29Z</time><name>PT10048</name></trkpt>
<trkpt lat="53.377824" lon="-1.660872"><ele>424</ele><time>2020-05-21T12:46:31Z</time><name>PT10049</name></trkpt>
<trkpt lat="53.377818" lon="-1.660879"><ele>424</ele><time>2020-05-21T12:46:31Z</time><name>PT10050</name></trkpt>
<trkpt lat="53.377813" lon="-1.660890"><ele>424</ele><time>2020-05-21T12:46:32Z</time><name>PT10051</name></trkpt>
<trkpt lat="53.377802" lon="-1.660904"><ele>424</ele><time>2020-05-21T12:46:33Z</time><name>PT10052</name></trkpt>
<trkpt lat="53.377791" lon="-1.660916"><ele>424</ele><time>2020-05-21T12:46:34Z</time><name>PT10053</name></trkpt>
<trkpt lat="53.377783" lon="-1.660921"><ele>425</ele><time>2020-05-21T12:46:35Z</time><name>PT10054</name></trkpt>
<trkpt lat="53.377777" lon="-1.660927"><ele>425</ele><time>2020-05-21T12:46:37Z</time><name>PT10055</name></trkpt>
<trkpt lat="53.377768" lon="-1.660932"><ele>426</ele><time>2020-05-21T12:46:37Z</time><name>PT10056</name></trkpt>
<trkpt lat="53.377758" lon="-1.660944"><ele>426</ele><time>2020-05-21T12:46:38Z</time><name>PT10057</name></trkpt>
<trkpt lat="53.377747" lon="-1.660959"><ele>426</ele><time>2020-05-21T12:46:39Z</time><name>PT10058</name></trkpt>
<trkpt lat="53.377736" lon="-1.660973"><ele>426</ele><time>2020-05-21T12:46:40Z</time><name>PT10059</name></trkpt>
<trkpt lat="53.377726" lon="-1.660985"><ele>427</ele><time>2020-05-21T12:46:41Z</time><name>PT10060</name></trkpt>
<trkpt lat="53.377721" lon="-1.660995"><ele>426</ele><time>2020-05-21T12:46:42Z</time><name>PT10061</name></trkpt>
<trkpt lat="53.377711" lon="-1.661003"><ele>426</ele><time>2020-05-21T12:46:43Z</time><name>PT10062</name></trkpt>
<trkpt lat="53.377700" lon="-1.661014"><ele>426</ele><time>2020-05-21T12:46:45Z</time><name>PT10063</name></trkpt>
<trkpt lat="53.377690" lon="-1.661034"><ele>427</ele><time>2020-05-21T12:46:45Z</time><name>PT10064</name></trkpt>
<trkpt lat="53.377680" lon="-1.661052"><ele>427</ele><time>2020-05-21T12:46:46Z</time><name>PT10065</name></trkpt>
<trkpt lat="53.377672" lon="-1.661063"><ele>427</ele><time>2020-05-21T12:46:47Z</time><name>PT10066</name></trkpt>
<trkpt lat="53.377666" lon="-1.661072"><ele>427</ele><time>2020-05-21T12:46:49Z</time><name>PT10067</name></trkpt>
<trkpt lat="53.377658" lon="-1.661084"><ele>428</ele><time>2020-05-21T12:46:49Z</time><name>PT10068</name></trkpt>
<trkpt lat="53.377646" lon="-1.661101"><ele>428</ele><time>2020-05-21T12:46:50Z</time><name>PT10069</name></trkpt>
<trkpt lat="53.377633" lon="-1.661114"><ele>428</ele><time>2020-05-21T12:46:52Z</time><name>PT10070</name></trkpt>
<trkpt lat="53.377624" lon="-1.661125"><ele>428</ele><time>2020-05-21T12:46:52Z</time><name>PT10071</name></trkpt>
<trkpt lat="53.377615" lon="-1.661139"><ele>428</ele><time>2020-05-21T12:46:53Z</time><name>PT10072</name></trkpt>
<trkpt lat="53.377606" lon="-1.661149"><ele>428</ele><time>2020-05-21T12:46:54Z</time><name>PT10073</name></trkpt>
<trkpt lat="53.377595" lon="-1.661160"><ele>428</ele><time>2020-05-21T12:46:55Z</time><name>PT10074</name></trkpt>
<trkpt lat="53.377585" lon="-1.661174"><ele>428</ele><time>2020-05-21T12:46:56Z</time><name>PT10075</name></trkpt>
<trkpt lat="53.377575" lon="-1.661185"><ele>429</ele><time>2020-05-21T12:46:57Z</time><name>PT10076</name></trkpt>
<trkpt lat="53.377564" lon="-1.661199"><ele>429</ele><time>2020-05-21T12:46:58Z</time><name>PT10077</name></trkpt>
<trkpt lat="53.377556" lon="-1.661209"><ele>428</ele><time>2020-05-21T12:46:59Z</time><name>PT10078</name></trkpt>
<trkpt lat="53.377546" lon="-1.661222"><ele>428</ele><time>2020-05-21T12:47:01Z</time><name>PT10079</name></trkpt>
<trkpt lat="53.377539" lon="-1.661225"><ele>428</ele><time>2020-05-21T12:47:02Z</time><name>PT10080</name></trkpt>
<trkpt lat="53.377529" lon="-1.661234"><ele>428</ele><time>2020-05-21T12:47:04Z</time><name>PT10081</name></trkpt>
<trkpt lat="53.377516" lon="-1.661244"><ele>428</ele><time>2020-05-21T12:47:04Z</time><name>PT10082</name></trkpt>
<trkpt lat="53.377505" lon="-1.661251"><ele>428</ele><time>2020-05-21T12:47:05Z</time><name>PT10083</name></trkpt>
<trkpt lat="53.377497" lon="-1.661259"><ele>428</ele><time>2020-05-21T12:47:06Z</time><name>PT10084</name></trkpt>
<trkpt lat="53.377489" lon="-1.661269"><ele>428</ele><time>2020-05-21T12:47:07Z</time><name>PT10085</name></trkpt>
<trkpt lat="53.377478" lon="-1.661279"><ele>428</ele><time>2020-05-21T12:47:08Z</time><name>PT10086</name></trkpt>
<trkpt lat="53.377467" lon="-1.661291"><ele>428</ele><time>2020-05-21T12:47:09Z</time><name>PT10087</name></trkpt>
<trkpt lat="53.377453" lon="-1.661305"><ele>428</ele><time>2020-05-21T12:47:10Z</time><name>PT10088</name></trkpt>
<trkpt lat="53.377441" lon="-1.661317"><ele>428</ele><time>2020-05-21T12:47:11Z</time><name>PT10089</name></trkpt>
<trkpt lat="53.377436" lon="-1.661322"><ele>428</ele><time>2020-05-21T12:47:12Z</time><name>PT10090</name></trkpt>
<trkpt lat="53.377427" lon="-1.661331"><ele>428</ele><time>2020-05-21T12:47:14Z</time><name>PT10091</name></trkpt>
<trkpt lat="53.377420" lon="-1.661341"><ele>428</ele><time>2020-05-21T12:47:14Z</time><name>PT10092</name></trkpt>
<trkpt lat="53.377401" lon="-1.661371"><ele>428</ele><time>2020-05-21T12:47:16Z</time><name>PT10093</name></trkpt>
<trkpt lat="53.377393" lon="-1.661380"><ele>428</ele><time>2020-05-21T12:47:17Z</time><name>PT10094</name></trkpt>
<trkpt lat="53.377385" lon="-1.661390"><ele>428</ele><time>2020-05-21T12:47:19Z</time><name>PT10095</name></trkpt>
<trkpt lat="53.377375" lon="-1.661399"><ele>428</ele><time>2020-05-21T12:47:19Z</time><name>PT10096</name></trkpt>
<trkpt lat="53.377361" lon="-1.661403"><ele>428</ele><time>2020-05-21T12:47:20Z</time><name>PT10097</name></trkpt>
<trkpt lat="53.377349" lon="-1.661411"><ele>428</ele><time>2020-05-21T12:47:22Z</time><name>PT10098</name></trkpt>
<trkpt lat="53.377333" lon="-1.661417"><ele>428</ele><time>2020-05-21T12:47:22Z</time><name>PT10099</name></trkpt>
<trkpt lat="53.377319" lon="-1.661429"><ele>429</ele><time>2020-05-21T12:47:23Z</time><name>PT10100</name></trkpt>
<trkpt lat="53.377312" lon="-1.661439"><ele>429</ele><time>2020-05-21T12:47:25Z</time><name>PT10101</name></trkpt>
<trkpt lat="53.377303" lon="-1.661448"><ele>429</ele><time>2020-05-21T12:47:25Z</time><name>PT10102</name></trkpt>
<trkpt lat="53.377293" lon="-1.661459"><ele>429</ele><time>2020-05-21T12:47:26Z</time><name>PT10103</name></trkpt>
<trkpt lat="53.377281" lon="-1.661471"><ele>429</ele><time>2020-05-21T12:47:28Z</time><name>PT10104</name></trkpt>
<trkpt lat="53.377270" lon="-1.661480"><ele>429</ele><time>2020-05-21T12:47:28Z</time><name>PT10105</name></trkpt>
<trkpt lat="53.377263" lon="-1.661485"><ele>429</ele><time>2020-05-21T12:47:29Z</time><name>PT10106</name></trkpt>
<trkpt lat="53.377255" lon="-1.661493"><ele>429</ele><time>2020-05-21T12:47:31Z</time><name>PT10107</name></trkpt>
<trkpt lat="53.377246" lon="-1.661498"><ele>429</ele><time>2020-05-21T12:47:31Z</time><name>PT10108</name></trkpt>
<trkpt lat="53.377234" lon="-1.661503"><ele>429</ele><time>2020-05-21T12:47:32Z</time><name>PT10109</name></trkpt>
<trkpt lat="53.377221" lon="-1.661510"><ele>429</ele><time>2020-05-21T12:47:34Z</time><name>PT10110</name></trkpt>
<trkpt lat="53.377210" lon="-1.661519"><ele>428</ele><time>2020-05-21T12:47:34Z</time><name>PT10111</name></trkpt>
<trkpt lat="53.377201" lon="-1.661529"><ele>428</ele><time>2020-05-21T12:47:35Z</time><name>PT10112</name></trkpt>
<trkpt lat="53.377197" lon="-1.661543"><ele>428</ele><time>2020-05-21T12:47:37Z</time><name>PT10113</name></trkpt>
<trkpt lat="53.377190" lon="-1.661549"><ele>428</ele><time>2020-05-21T12:47:37Z</time><name>PT10114</name></trkpt>
<trkpt lat="53.377179" lon="-1.661559"><ele>428</ele><time>2020-05-21T12:47:38Z</time><name>PT10115</name></trkpt>
<trkpt lat="53.377168" lon="-1.661570"><ele>429</ele><time>2020-05-21T12:47:40Z</time><name>PT10116</name></trkpt>
<trkpt lat="53.377154" lon="-1.661573"><ele>429</ele><time>2020-05-21T12:47:40Z</time><name>PT10117</name></trkpt>
<trkpt lat="53.377143" lon="-1.661580"><ele>430</ele><time>2020-05-21T12:47:41Z</time><name>PT10118</name></trkpt>
<trkpt lat="53.377136" lon="-1.661587"><ele>431</ele><time>2020-05-21T12:47:43Z</time><name>PT10119</name></trkpt>
<trkpt lat="53.377128" lon="-1.661593"><ele>430</ele><time>2020-05-21T12:47:43Z</time><name>PT10120</name></trkpt>
<trkpt lat="53.377124" lon="-1.661605"><ele>431</ele><time>2020-05-21T12:47:44Z</time><name>PT10121</name></trkpt>
<trkpt lat="53.377114" lon="-1.661624"><ele>431</ele><time>2020-05-21T12:47:45Z</time><name>PT10122</name></trkpt>
<trkpt lat="53.377103" lon="-1.661642"><ele>432</ele><time>2020-05-21T12:47:46Z</time><name>PT10123</name></trkpt>
<trkpt lat="53.377092" lon="-1.661657"><ele>433</ele><time>2020-05-21T12:47:47Z</time><name>PT10124</name></trkpt>
<trkpt lat="53.377079" lon="-1.661675"><ele>434</ele><time>2020-05-21T12:47:49Z</time><name>PT10125</name></trkpt>
<trkpt lat="53.377071" lon="-1.661688"><ele>434</ele><time>2020-05-21T12:47:49Z</time><name>PT10126</name></trkpt>
<trkpt lat="53.377068" lon="-1.661694"><ele>434</ele><time>2020-05-21T12:47:50Z</time><name>PT10127</name></trkpt>
<trkpt lat="53.377063" lon="-1.661707"><ele>434</ele><time>2020-05-21T12:47:52Z</time><name>PT10128</name></trkpt>
<trkpt lat="53.377055" lon="-1.661720"><ele>434</ele><time>2020-05-21T12:47:52Z</time><name>PT10129</name></trkpt>
<trkpt lat="53.377041" lon="-1.661732"><ele>434</ele><time>2020-05-21T12:47:53Z</time><name>PT10130</name></trkpt>
<trkpt lat="53.377029" lon="-1.661740"><ele>435</ele><time>2020-05-21T12:47:55Z</time><name>PT10131</name></trkpt>
<trkpt lat="53.377015" lon="-1.661748"><ele>435</ele><time>2020-05-21T12:47:55Z</time><name>PT10132</name></trkpt>
<trkpt lat="53.377005" lon="-1.661757"><ele>435</ele><time>2020-05-21T12:47:56Z</time><name>PT10133</name></trkpt>
<trkpt lat="53.377000" lon="-1.661765"><ele>434</ele><time>2020-05-21T12:47:58Z</time><name>PT10134</name></trkpt>
<trkpt lat="53.376994" lon="-1.661776"><ele>434</ele><time>2020-05-21T12:47:58Z</time><name>PT10135</name></trkpt>
<trkpt lat="53.376983" lon="-1.661783"><ele>435</ele><time>2020-05-21T12:47:59Z</time><name>PT10136</name></trkpt>
<trkpt lat="53.376967" lon="-1.661791"><ele>435</ele><time>2020-05-21T12:48:00Z</time><name>PT10137</name></trkpt>
<trkpt lat="53.376954" lon="-1.661796"><ele>435</ele><time>2020-05-21T12:48:01Z</time><name>PT10138</name></trkpt>
<trkpt lat="53.376942" lon="-1.661801"><ele>436</ele><time>2020-05-21T12:48:02Z</time><name>PT10139</name></trkpt>
<trkpt lat="53.376933" lon="-1.661809"><ele>436</ele><time>2020-05-21T12:48:03Z</time><name>PT10140</name></trkpt>
<trkpt lat="53.376926" lon="-1.661815"><ele>436</ele><time>2020-05-21T12:48:04Z</time><name>PT10141</name></trkpt>
<trkpt lat="53.376916" lon="-1.661826"><ele>436</ele><time>2020-05-21T12:48:06Z</time><name>PT10142</name></trkpt>
<trkpt lat="53.376893" lon="-1.661843"><ele>436</ele><time>2020-05-21T12:48:07Z</time><name>PT10143</name></trkpt>
<trkpt lat="53.376879" lon="-1.661854"><ele>436</ele><time>2020-05-21T12:48:08Z</time><name>PT10144</name></trkpt>
<trkpt lat="53.376866" lon="-1.661863"><ele>436</ele><time>2020-05-21T12:48:09Z</time><name>PT10145</name></trkpt>
<trkpt lat="53.376856" lon="-1.661868"><ele>437</ele><time>2020-05-21T12:48:11Z</time><name>PT10146</name></trkpt>
<trkpt lat="53.376848" lon="-1.661871"><ele>436</ele><time>2020-05-21T12:48:11Z</time><name>PT10147</name></trkpt>
<trkpt lat="53.376838" lon="-1.661877"><ele>436</ele><time>2020-05-21T12:48:12Z</time><name>PT10148</name></trkpt>
<trkpt lat="53.376826" lon="-1.661884"><ele>436</ele><time>2020-05-21T12:48:14Z</time><name>PT10149</name></trkpt>
<trkpt lat="53.376806" lon="-1.661895"><ele>436</ele><time>2020-05-21T12:48:15Z</time><name>PT10150</name></trkpt>
<trkpt lat="53.376796" lon="-1.661905"><ele>436</ele><time>2020-05-21T12:48:17Z</time><name>PT10151</name></trkpt>
<trkpt lat="53.376784" lon="-1.661916"><ele>436</ele><time>2020-05-21T12:48:17Z</time><name>PT10152</name></trkpt>
<trkpt lat="53.376775" lon="-1.661923"><ele>437</ele><time>2020-05-21T12:48:18Z</time><name>PT10153</name></trkpt>
<trkpt lat="53.376769" lon="-1.661930"><ele>436</ele><time>2020-05-21T12:48:20Z</time><name>PT10154</name></trkpt>
<trkpt lat="53.376763" lon="-1.661940"><ele>436</ele><time>2020-05-21T12:48:20Z</time><name>PT10155</name></trkpt>
<trkpt lat="53.376754" lon="-1.661949"><ele>436</ele><time>2020-05-21T12:48:21Z</time><name>PT10156</name></trkpt>
<trkpt lat="53.376744" lon="-1.661958"><ele>436</ele><time>2020-05-21T12:48:22Z</time><name>PT10157</name></trkpt>
<trkpt lat="53.376732" lon="-1.661966"><ele>437</ele><time>2020-05-21T12:48:23Z</time><name>PT10158</name></trkpt>
<trkpt lat="53.376720" lon="-1.661971"><ele>437</ele><time>2020-05-21T12:48:24Z</time><name>PT10159</name></trkpt>
<trkpt lat="53.376711" lon="-1.661984"><ele>437</ele><time>2020-05-21T12:48:26Z</time><name>PT10160</name></trkpt>
<trkpt lat="53.376705" lon="-1.661995"><ele>436</ele><time>2020-05-21T12:48:26Z</time><name>PT10161</name></trkpt>
<trkpt lat="53.376697" lon="-1.662001"><ele>438</ele><time>2020-05-21T12:48:27Z</time><name>PT10162</name></trkpt>
<trkpt lat="53.376686" lon="-1.662009"><ele>438</ele><time>2020-05-21T12:48:28Z</time><name>PT10163</name></trkpt>
<trkpt lat="53.376673" lon="-1.662020"><ele>437</ele><time>2020-05-21T12:48:29Z</time><name>PT10164</name></trkpt>
<trkpt lat="53.376658" lon="-1.662027"><ele>437</ele><time>2020-05-21T12:48:30Z</time><name>PT10165</name></trkpt>
<trkpt lat="53.376646" lon="-1.662028"><ele>437</ele><time>2020-05-21T12:48:31Z</time><name>PT10166</name></trkpt>
<trkpt lat="53.376639" lon="-1.662034"><ele>438</ele><time>2020-05-21T12:48:32Z</time><name>PT10167</name></trkpt>
<trkpt lat="53.376634" lon="-1.662044"><ele>438</ele><time>2020-05-21T12:48:33Z</time><name>PT10168</name></trkpt>
<trkpt lat="53.376625" lon="-1.662050"><ele>438</ele><time>2020-05-21T12:48:35Z</time><name>PT10169</name></trkpt>
<trkpt lat="53.376613" lon="-1.662057"><ele>438</ele><time>2020-05-21T12:48:35Z</time><name>PT10170</name></trkpt>
<trkpt lat="53.376606" lon="-1.662064"><ele>438</ele><time>2020-05-21T12:48:36Z</time><name>PT10171</name></trkpt>
<trkpt lat="53.376602" lon="-1.662069"><ele>438</ele><time>2020-05-21T12:48:37Z</time><name>PT10172</name></trkpt>
<trkpt lat="53.376594" lon="-1.662080"><ele>438</ele><time>2020-05-21T12:48:38Z</time><name>PT10173</name></trkpt>
<trkpt lat="53.376583" lon="-1.662086"><ele>438</ele><time>2020-05-21T12:48:39Z</time><name>PT10174</name></trkpt>
<trkpt lat="53.376568" lon="-1.662095"><ele>438</ele><time>2020-05-21T12:48:40Z</time><name>PT10175</name></trkpt>
<trkpt lat="53.376555" lon="-1.662105"><ele>438</ele><time>2020-05-21T12:48:41Z</time><name>PT10176</name></trkpt>
<trkpt lat="53.376548" lon="-1.662107"><ele>437</ele><time>2020-05-21T12:48:42Z</time><name>PT10177</name></trkpt>
<trkpt lat="53.376541" lon="-1.662110"><ele>437</ele><time>2020-05-21T12:48:43Z</time><name>PT10178</name></trkpt>
<trkpt lat="53.376531" lon="-1.662120"><ele>437</ele><time>2020-05-21T12:48:44Z</time><name>PT10179</name></trkpt>
<trkpt lat="53.376519" lon="-1.662131"><ele>437</ele><time>2020-05-21T12:48:45Z</time><name>PT10180</name></trkpt>
<trkpt lat="53.376498" lon="-1.662149"><ele>438</ele><time>2020-05-21T12:48:47Z</time><name>PT10181</name></trkpt>
<trkpt lat="53.376487" lon="-1.662155"><ele>438</ele><time>2020-05-21T12:48:48Z</time><name>PT10182</name></trkpt>
<trkpt lat="53.376474" lon="-1.662162"><ele>438</ele><time>2020-05-21T12:48:50Z</time><name>PT10183</name></trkpt>
<trkpt lat="53.376464" lon="-1.662165"><ele>439</ele><time>2020-05-21T12:48:50Z</time><name>PT10184</name></trkpt>
<trkpt lat="53.376456" lon="-1.662170"><ele>439</ele><time>2020-05-21T12:48:51Z</time><name>PT10185</name></trkpt>
<trkpt lat="53.376445" lon="-1.662179"><ele>439</ele><time>2020-05-21T12:48:52Z</time><name>PT10186</name></trkpt>
<trkpt lat="53.376432" lon="-1.662187"><ele>439</ele><time>2020-05-21T12:48:53Z</time><name>PT10187</name></trkpt>
<trkpt lat="53.376418" lon="-1.662193"><ele>439</ele><time>2020-05-21T12:48:54Z</time><name>PT10188</name></trkpt>
<trkpt lat="53.376405" lon="-1.662198"><ele>439</ele><time>2020-05-21T12:48:55Z</time><name>PT10189</name></trkpt>
<trkpt lat="53.376399" lon="-1.662203"><ele>439</ele><time>2020-05-21T12:48:56Z</time><name>PT10190</name></trkpt>
<trkpt lat="53.376390" lon="-1.662209"><ele>438</ele><time>2020-05-21T12:48:57Z</time><name>PT10191</name></trkpt>
<trkpt lat="53.376380" lon="-1.662221"><ele>439</ele><time>2020-05-21T12:48:58Z</time><name>PT10192</name></trkpt>
<trkpt lat="53.376368" lon="-1.662229"><ele>439</ele><time>2020-05-21T12:48:59Z</time><name>PT10193</name></trkpt>
<trkpt lat="53.376358" lon="-1.662234"><ele>439</ele><time>2020-05-21T12:49:00Z</time><name>PT10194</name></trkpt>
<trkpt lat="53.376348" lon="-1.662242"><ele>439</ele><time>2020-05-21T12:49:02Z</time><name>PT10195</name></trkpt>
<trkpt lat="53.376331" lon="-1.662255"><ele>439</ele><time>2020-05-21T12:49:03Z</time><name>PT10196</name></trkpt>
<trkpt lat="53.376320" lon="-1.662266"><ele>440</ele><time>2020-05-21T12:49:04Z</time><name>PT10197</name></trkpt>
<trkpt lat="53.376307" lon="-1.662272"><ele>440</ele><time>2020-05-21T12:49:05Z</time><name>PT10198</name></trkpt>
<trkpt lat="53.376284" lon="-1.662281"><ele>440</ele><time>2020-05-21T12:49:07Z</time><name>PT10199</name></trkpt>
<trkpt lat="53.376272" lon="-1.662286"><ele>440</ele><time>2020-05-21T12:49:08Z</time><name>PT10200</name></trkpt>
<trkpt lat="53.376260" lon="-1.662285"><ele>441</ele><time>2020-05-21T12:49:09Z</time><name>PT10201</name></trkpt>
<trkpt lat="53.376247" lon="-1.662285"><ele>441</ele><time>2020-05-21T12:49:10Z</time><name>PT10202</name></trkpt>
<trkpt lat="53.376236" lon="-1.662282"><ele>441</ele><time>2020-05-21T12:49:11Z</time><name>PT10203</name></trkpt>
<trkpt lat="53.376227" lon="-1.662280"><ele>440</ele><time>2020-05-21T12:49:13Z</time><name>PT10204</name></trkpt>
<trkpt lat="53.376219" lon="-1.662275"><ele>440</ele><time>2020-05-21T12:49:13Z</time><name>PT10205</name></trkpt>
<trkpt lat="53.376211" lon="-1.662273"><ele>440</ele><time>2020-05-21T12:49:14Z</time><name>PT10206</name></trkpt>
<trkpt lat="53.376202" lon="-1.662268"><ele>440</ele><time>2020-05-21T12:49:16Z</time><name>PT10207</name></trkpt>
<trkpt lat="53.376192" lon="-1.662259"><ele>440</ele><time>2020-05-21T12:49:16Z</time><name>PT10208</name></trkpt>
<trkpt lat="53.376181" lon="-1.662252"><ele>441</ele><time>2020-05-21T12:49:17Z</time><name>PT10209</name></trkpt>
<trkpt lat="53.376170" lon="-1.662246"><ele>441</ele><time>2020-05-21T12:49:19Z</time><name>PT10210</name></trkpt>
<trkpt lat="53.376160" lon="-1.662244"><ele>441</ele><time>2020-05-21T12:49:19Z</time><name>PT10211</name></trkpt>
<trkpt lat="53.376154" lon="-1.662241"><ele>441</ele><time>2020-05-21T12:49:20Z</time><name>PT10212</name></trkpt>
<trkpt lat="53.376147" lon="-1.662241"><ele>440</ele><time>2020-05-21T12:49:21Z</time><name>PT10213</name></trkpt>
<trkpt lat="53.376138" lon="-1.662243"><ele>441</ele><time>2020-05-21T12:49:22Z</time><name>PT10214</name></trkpt>
<trkpt lat="53.376128" lon="-1.662245"><ele>441</ele><time>2020-05-21T12:49:23Z</time><name>PT10215</name></trkpt>
<trkpt lat="53.376120" lon="-1.662246"><ele>441</ele><time>2020-05-21T12:49:25Z</time><name>PT10216</name></trkpt>
<trkpt lat="53.376115" lon="-1.662248"><ele>441</ele><time>2020-05-21T12:49:25Z</time><name>PT10217</name></trkpt>
<trkpt lat="53.376106" lon="-1.662249"><ele>441</ele><time>2020-05-21T12:49:26Z</time><name>PT10218</name></trkpt>
<trkpt lat="53.376094" lon="-1.662251"><ele>441</ele><time>2020-05-21T12:49:28Z</time><name>PT10219</name></trkpt>
<trkpt lat="53.376082" lon="-1.662253"><ele>441</ele><time>2020-05-21T12:49:28Z</time><name>PT10220</name></trkpt>
<trkpt lat="53.376076" lon="-1.662249"><ele>441</ele><time>2020-05-21T12:49:29Z</time><name>PT10221</name></trkpt>
<trkpt lat="53.376066" lon="-1.662249"><ele>440</ele><time>2020-05-21T12:49:30Z</time><name>PT10222</name></trkpt>
<trkpt lat="53.376056" lon="-1.662249"><ele>439</ele><time>2020-05-21T12:49:31Z</time><name>PT10223</name></trkpt>
<trkpt lat="53.376052" lon="-1.662247"><ele>439</ele><time>2020-05-21T12:49:32Z</time><name>PT10224</name></trkpt>
<trkpt lat="53.376045" lon="-1.662241"><ele>439</ele><time>2020-05-21T12:49:33Z</time><name>PT10225</name></trkpt>
<trkpt lat="53.376041" lon="-1.662241"><ele>440</ele><time>2020-05-21T12:49:34Z</time><name>PT10226</name></trkpt>
<trkpt lat="53.376032" lon="-1.662244"><ele>440</ele><time>2020-05-21T12:49:35Z</time><name>PT10227</name></trkpt>
<trkpt lat="53.376026" lon="-1.662239"><ele>440</ele><time>2020-05-21T12:49:36Z</time><name>PT10228</name></trkpt>
<trkpt lat="53.376021" lon="-1.662231"><ele>440</ele><time>2020-05-21T12:49:37Z</time><name>PT10229</name></trkpt>
<trkpt lat="53.376016" lon="-1.662221"><ele>440</ele><time>2020-05-21T12:49:38Z</time><name>PT10230</name></trkpt>
<trkpt lat="53.376010" lon="-1.662211"><ele>441</ele><time>2020-05-21T12:49:39Z</time><name>PT10231</name></trkpt>
<trkpt lat="53.376004" lon="-1.662196"><ele>441</ele><time>2020-05-21T12:49:40Z</time><name>PT10232</name></trkpt>
<trkpt lat="53.376001" lon="-1.662187"><ele>441</ele><time>2020-05-21T12:49:41Z</time><name>PT10233</name></trkpt>
<trkpt lat="53.375993" lon="-1.662171"><ele>441</ele><time>2020-05-21T12:49:43Z</time><name>PT10234</name></trkpt>
<trkpt lat="53.375977" lon="-1.662160"><ele>443</ele><time>2020-05-21T12:49:44Z</time><name>PT10235</name></trkpt>
<trkpt lat="53.375969" lon="-1.662158"><ele>443</ele><time>2020-05-21T12:49:45Z</time><name>PT10236</name></trkpt>
<trkpt lat="53.375963" lon="-1.662152"><ele>443</ele><time>2020-05-21T12:49:46Z</time><name>PT10237</name></trkpt>
<trkpt lat="53.375955" lon="-1.662145"><ele>443</ele><time>2020-05-21T12:49:47Z</time><name>PT10238</name></trkpt>
<trkpt lat="53.375945" lon="-1.662138"><ele>443</ele><time>2020-05-21T12:49:49Z</time><name>PT10239</name></trkpt>
<trkpt lat="53.375939" lon="-1.662126"><ele>442</ele><time>2020-05-21T12:49:49Z</time><name>PT10240</name></trkpt>
<trkpt lat="53.375934" lon="-1.662120"><ele>443</ele><time>2020-05-21T12:49:50Z</time><name>PT10241</name></trkpt>
<trkpt lat="53.375929" lon="-1.662110"><ele>443</ele><time>2020-05-21T12:49:51Z</time><name>PT10242</name></trkpt>
<trkpt lat="53.375925" lon="-1.662103"><ele>443</ele><time>2020-05-21T12:49:52Z</time><name>PT10243</name></trkpt>
<trkpt lat="53.375919" lon="-1.662099"><ele>443</ele><time>2020-05-21T12:49:53Z</time><name>PT10244</name></trkpt>
<trkpt lat="53.375914" lon="-1.662097"><ele>443</ele><time>2020-05-21T12:49:54Z</time><name>PT10245</name></trkpt>
<trkpt lat="53.375910" lon="-1.662090"><ele>442</ele><time>2020-05-21T12:49:55Z</time><name>PT10246</name></trkpt>
<trkpt lat="53.375905" lon="-1.662076"><ele>441</ele><time>2020-05-21T12:49:57Z</time><name>PT10247</name></trkpt>
<trkpt lat="53.375900" lon="-1.662069"><ele>442</ele><time>2020-05-21T12:49:57Z</time><name>PT10248</name></trkpt>
<trkpt lat="53.375899" lon="-1.662067"><ele>442</ele><time>2020-05-21T12:49:58Z</time><name>PT10249</name></trkpt>
<trkpt lat="53.375899" lon="-1.662073"><ele>442</ele><time>2020-05-21T12:50:00Z</time><name>PT10250</name></trkpt>
<trkpt lat="53.375898" lon="-1.662075"><ele>442</ele><time>2020-05-21T12:50:00Z</time><name>PT10251</name></trkpt>
<trkpt lat="53.375899" lon="-1.662075"><ele>442</ele><time>2020-05-21T12:50:01Z</time><name>PT10252</name></trkpt>
<trkpt lat="53.375901" lon="-1.662076"><ele>442</ele><time>2020-05-21T12:50:19Z</time><name>PT10253</name></trkpt>
<trkpt lat="53.375901" lon="-1.662077"><ele>442</ele><time>2020-05-21T12:50:20Z</time><name>PT10254</name></trkpt>
<trkpt lat="53.375903" lon="-1.662081"><ele>442</ele><time>2020-05-21T12:50:21Z</time><name>PT10255</name></trkpt>
<trkpt lat="53.375897" lon="-1.662078"><ele>442</ele><time>2020-05-21T12:50:22Z</time><name>PT10256</name></trkpt>
<trkpt lat="53.375891" lon="-1.662079"><ele>442</ele><time>2020-05-21T12:50:23Z</time><name>PT10257</name></trkpt>
<trkpt lat="53.375890" lon="-1.662078"><ele>442</ele><time>2020-05-21T12:50:24Z</time><name>PT10258</name></trkpt>
<trkpt lat="53.375887" lon="-1.662069"><ele>442</ele><time>2020-05-21T12:50:25Z</time><name>PT10259</name></trkpt>
<trkpt lat="53.375886" lon="-1.662064"><ele>443</ele><time>2020-05-21T12:50:26Z</time><name>PT10260</name></trkpt>
<trkpt lat="53.375891" lon="-1.662062"><ele>444</ele><time>2020-05-21T12:50:27Z</time><name>PT10261</name></trkpt>
<trkpt lat="53.375901" lon="-1.662065"><ele>443</ele><time>2020-05-21T12:50:28Z</time><name>PT10262</name></trkpt>
<trkpt lat="53.375900" lon="-1.662065"><ele>443</ele><time>2020-05-21T12:50:29Z</time><name>PT10263</name></trkpt>
<trkpt lat="53.375899" lon="-1.662069"><ele>443</ele><time>2020-05-21T12:50:30Z</time><name>PT10264</name></trkpt>
<trkpt lat="53.375898" lon="-1.662069"><ele>442</ele><time>2020-05-21T12:50:32Z</time><name>PT10265</name></trkpt>
<trkpt lat="53.375895" lon="-1.662064"><ele>442</ele><time>2020-05-21T12:50:33Z</time><name>PT10266</name></trkpt>
<trkpt lat="53.375894" lon="-1.662058"><ele>443</ele><time>2020-05-21T12:50:34Z</time><name>PT10267</name></trkpt>
<trkpt lat="53.375892" lon="-1.662061"><ele>443</ele><time>2020-05-21T12:50:35Z</time><name>PT10268</name></trkpt>
<trkpt lat="53.375894" lon="-1.662059"><ele>443</ele><time>2020-05-21T12:50:36Z</time><name>PT10269</name></trkpt>
<trkpt lat="53.375896" lon="-1.662051"><ele>443</ele><time>2020-05-21T12:50:37Z</time><name>PT10270</name></trkpt>
<trkpt lat="53.375897" lon="-1.662048"><ele>443</ele><time>2020-05-21T12:50:38Z</time><name>PT10271</name></trkpt>
<trkpt lat="53.375894" lon="-1.662044"><ele>443</ele><time>2020-05-21T12:50:39Z</time><name>PT10272</name></trkpt>
<trkpt lat="53.375890" lon="-1.662036"><ele>443</ele><time>2020-05-21T12:50:40Z</time><name>PT10273</name></trkpt>
<trkpt lat="53.375885" lon="-1.662025"><ele>443</ele><time>2020-05-21T12:50:41Z</time><name>PT10274</name></trkpt>
<trkpt lat="53.375879" lon="-1.662013"><ele>443</ele><time>2020-05-21T12:50:42Z</time><name>PT10275</name></trkpt>
<trkpt lat="53.375872" lon="-1.661997"><ele>443</ele><time>2020-05-21T12:50:43Z</time><name>PT10276</name></trkpt>
<trkpt lat="53.375867" lon="-1.661983"><ele>443</ele><time>2020-05-21T12:50:44Z</time><name>PT10277</name></trkpt>
<trkpt lat="53.375862" lon="-1.661980"><ele>444</ele><time>2020-05-21T12:50:45Z</time><name>PT10278</name></trkpt>
<trkpt lat="53.375857" lon="-1.661972"><ele>444</ele><time>2020-05-21T12:50:46Z</time><name>PT10279</name></trkpt>
<trkpt lat="53.375849" lon="-1.661964"><ele>444</ele><time>2020-05-21T12:50:47Z</time><name>PT10280</name></trkpt>
<trkpt lat="53.375846" lon="-1.661959"><ele>445</ele><time>2020-05-21T12:50:48Z</time><name>PT10281</name></trkpt>
<trkpt lat="53.375837" lon="-1.661949"><ele>445</ele><time>2020-05-21T12:50:49Z</time><name>PT10282</name></trkpt>
<trkpt lat="53.375829" lon="-1.661944"><ele>446</ele><time>2020-05-21T12:50:50Z</time><name>PT10283</name></trkpt>
<trkpt lat="53.375819" lon="-1.661934"><ele>447</ele><time>2020-05-21T12:50:51Z</time><name>PT10284</name></trkpt>
<trkpt lat="53.375810" lon="-1.661923"><ele>446</ele><time>2020-05-21T12:50:52Z</time><name>PT10285</name></trkpt>
<trkpt lat="53.375802" lon="-1.661915"><ele>446</ele><time>2020-05-21T12:50:53Z</time><name>PT10286</name></trkpt>
<trkpt lat="53.375788" lon="-1.661904"><ele>446</ele><time>2020-05-21T12:50:55Z</time><name>PT10287</name></trkpt>
<trkpt lat="53.375783" lon="-1.661895"><ele>446</ele><time>2020-05-21T12:50:56Z</time><name>PT10288</name></trkpt>
<trkpt lat="53.375777" lon="-1.661889"><ele>447</ele><time>2020-05-21T12:50:57Z</time><name>PT10289</name></trkpt>
<trkpt lat="53.375772" lon="-1.661888"><ele>447</ele><time>2020-05-21T12:50:58Z</time><name>PT10290</name></trkpt>
<trkpt lat="53.375764" lon="-1.661895"><ele>447</ele><time>2020-05-21T12:50:59Z</time><name>PT10291</name></trkpt>
<trkpt lat="53.375755" lon="-1.661902"><ele>447</ele><time>2020-05-21T12:51:00Z</time><name>PT10292</name></trkpt>
<trkpt lat="53.375749" lon="-1.661904"><ele>447</ele><time>2020-05-21T12:51:01Z</time><name>PT10293</name></trkpt>
<trkpt lat="53.375739" lon="-1.661909"><ele>447</ele><time>2020-05-21T12:51:02Z</time><name>PT10294</name></trkpt>
<trkpt lat="53.375731" lon="-1.661916"><ele>447</ele><time>2020-05-21T12:51:03Z</time><name>PT10295</name></trkpt>
<trkpt lat="53.375725" lon="-1.661924"><ele>447</ele><time>2020-05-21T12:51:04Z</time><name>PT10296</name></trkpt>
<trkpt lat="53.375719" lon="-1.661928"><ele>447</ele><time>2020-05-21T12:51:05Z</time><name>PT10297</name></trkpt>
<trkpt lat="53.375712" lon="-1.661939"><ele>448</ele><time>2020-05-21T12:51:06Z</time><name>PT10298</name></trkpt>
<trkpt lat="53.375706" lon="-1.661945"><ele>448</ele><time>2020-05-21T12:51:07Z</time><name>PT10299</name></trkpt>
<trkpt lat="53.375695" lon="-1.661951"><ele>448</ele><time>2020-05-21T12:51:09Z</time><name>PT10300</name></trkpt>
<trkpt lat="53.375685" lon="-1.661951"><ele>448</ele><time>2020-05-21T12:51:09Z</time><name>PT10301</name></trkpt>
<trkpt lat="53.375677" lon="-1.661945"><ele>449</ele><time>2020-05-21T12:51:10Z</time><name>PT10302</name></trkpt>
<trkpt lat="53.375668" lon="-1.661938"><ele>449</ele><time>2020-05-21T12:51:12Z</time><name>PT10303</name></trkpt>
<trkpt lat="53.375660" lon="-1.661932"><ele>450</ele><time>2020-05-21T12:51:12Z</time><name>PT10304</name></trkpt>
<trkpt lat="53.375650" lon="-1.661922"><ele>450</ele><time>2020-05-21T12:51:14Z</time><name>PT10305</name></trkpt>
<trkpt lat="53.375642" lon="-1.661917"><ele>450</ele><time>2020-05-21T12:51:15Z</time><name>PT10306</name></trkpt>
<trkpt lat="53.375631" lon="-1.661911"><ele>451</ele><time>2020-05-21T12:51:17Z</time><name>PT10307</name></trkpt>
<trkpt lat="53.375625" lon="-1.661907"><ele>450</ele><time>2020-05-21T12:51:17Z</time><name>PT10308</name></trkpt>
<trkpt lat="53.375619" lon="-1.661909"><ele>450</ele><time>2020-05-21T12:51:18Z</time><name>PT10309</name></trkpt>
<trkpt lat="53.375611" lon="-1.661920"><ele>451</ele><time>2020-05-21T12:51:20Z</time><name>PT10310</name></trkpt>
<trkpt lat="53.375604" lon="-1.661926"><ele>451</ele><time>2020-05-21T12:51:20Z</time><name>PT10311</name></trkpt>
<trkpt lat="53.375595" lon="-1.661927"><ele>451</ele><time>2020-05-21T12:51:21Z</time><name>PT10312</name></trkpt>
<trkpt lat="53.375584" lon="-1.661919"><ele>451</ele><time>2020-05-21T12:51:23Z</time><name>PT10313</name></trkpt>
<trkpt lat="53.375574" lon="-1.661902"><ele>451</ele><time>2020-05-21T12:51:23Z</time><name>PT10314</name></trkpt>
<trkpt lat="53.375567" lon="-1.661896"><ele>451</ele><time>2020-05-21T12:51:24Z</time><name>PT10315</name></trkpt>
<trkpt lat="53.375557" lon="-1.661898"><ele>451</ele><time>2020-05-21T12:51:25Z</time><name>PT10316</name></trkpt>
<trkpt lat="53.375544" lon="-1.661907"><ele>451</ele><time>2020-05-21T12:51:26Z</time><name>PT10317</name></trkpt>
<trkpt lat="53.375532" lon="-1.661917"><ele>450</ele><time>2020-05-21T12:51:27Z</time><name>PT10318</name></trkpt>
<trkpt lat="53.375520" lon="-1.661922"><ele>450</ele><time>2020-05-21T12:51:28Z</time><name>PT10319</name></trkpt>
<trkpt lat="53.375512" lon="-1.661922"><ele>451</ele><time>2020-05-21T12:51:29Z</time><name>PT10320</name></trkpt>
<trkpt lat="53.375505" lon="-1.661922"><ele>451</ele><time>2020-05-21T12:51:30Z</time><name>PT10321</name></trkpt>
<trkpt lat="53.375493" lon="-1.661918"><ele>451</ele><time>2020-05-21T12:51:32Z</time><name>PT10322</name></trkpt>
<trkpt lat="53.375481" lon="-1.661917"><ele>451</ele><time>2020-05-21T12:51:32Z</time><name>PT10323</name></trkpt>
<trkpt lat="53.375469" lon="-1.661919"><ele>451</ele><time>2020-05-21T12:51:33Z</time><name>PT10324</name></trkpt>
<trkpt lat="53.375462" lon="-1.661916"><ele>451</ele><time>2020-05-21T12:51:34Z</time><name>PT10325</name></trkpt>
<trkpt lat="53.375455" lon="-1.661917"><ele>451</ele><time>2020-05-21T12:51:35Z</time><name>PT10326</name></trkpt>
<trkpt lat="53.375447" lon="-1.661924"><ele>451</ele><time>2020-05-21T12:51:36Z</time><name>PT10327</name></trkpt>
<trkpt lat="53.375438" lon="-1.661934"><ele>451</ele><time>2020-05-21T12:51:38Z</time><name>PT10328</name></trkpt>
<trkpt lat="53.375424" lon="-1.661944"><ele>451</ele><time>2020-05-21T12:51:38Z</time><name>PT10329</name></trkpt>
<trkpt lat="53.375414" lon="-1.661958"><ele>451</ele><time>2020-05-21T12:51:39Z</time><name>PT10330</name></trkpt>
<trkpt lat="53.375409" lon="-1.661968"><ele>451</ele><time>2020-05-21T12:51:40Z</time><name>PT10331</name></trkpt>
<trkpt lat="53.375403" lon="-1.661983"><ele>451</ele><time>2020-05-21T12:51:41Z</time><name>PT10332</name></trkpt>
<trkpt lat="53.375395" lon="-1.661994"><ele>450</ele><time>2020-05-21T12:51:42Z</time><name>PT10333</name></trkpt>
<trkpt lat="53.375392" lon="-1.661997"><ele>450</ele><time>2020-05-21T12:51:44Z</time><name>PT10334</name></trkpt>
<trkpt lat="53.375391" lon="-1.661997"><ele>450</ele><time>2020-05-21T12:51:44Z</time><name>PT10335</name></trkpt>
<trkpt lat="53.375390" lon="-1.661995"><ele>450</ele><time>2020-05-21T12:51:45Z</time><name>PT10336</name></trkpt>
<trkpt lat="53.375393" lon="-1.661992"><ele>450</ele><time>2020-05-21T12:51:55Z</time><name>PT10337</name></trkpt>
<trkpt lat="53.375381" lon="-1.661980"><ele>450</ele><time>2020-05-21T12:51:56Z</time><name>PT10338</name></trkpt>
<trkpt lat="53.375369" lon="-1.661980"><ele>450</ele><time>2020-05-21T12:51:57Z</time><name>PT10339</name></trkpt>
<trkpt lat="53.375360" lon="-1.661981"><ele>450</ele><time>2020-05-21T12:51:58Z</time><name>PT10340</name></trkpt>
<trkpt lat="53.375351" lon="-1.661983"><ele>450</ele><time>2020-05-21T12:51:59Z</time><name>PT10341</name></trkpt>
<trkpt lat="53.375340" lon="-1.661977"><ele>450</ele><time>2020-05-21T12:52:00Z</time><name>PT10342</name></trkpt>
<trkpt lat="53.375327" lon="-1.661967"><ele>451</ele><time>2020-05-21T12:52:02Z</time><name>PT10343</name></trkpt>
<trkpt lat="53.375314" lon="-1.661962"><ele>451</ele><time>2020-05-21T12:52:02Z</time><name>PT10344</name></trkpt>
<trkpt lat="53.375307" lon="-1.661960"><ele>451</ele><time>2020-05-21T12:52:03Z</time><name>PT10345</name></trkpt>
<trkpt lat="53.375299" lon="-1.661957"><ele>451</ele><time>2020-05-21T12:52:04Z</time><name>PT10346</name></trkpt>
<trkpt lat="53.375287" lon="-1.661944"><ele>451</ele><time>2020-05-21T12:52:05Z</time><name>PT10347</name></trkpt>
<trkpt lat="53.375273" lon="-1.661938"><ele>451</ele><time>2020-05-21T12:52:06Z</time><name>PT10348</name></trkpt>
<trkpt lat="53.375260" lon="-1.661942"><ele>451</ele><time>2020-05-21T12:52:08Z</time><name>PT10349</name></trkpt>
<trkpt lat="53.375251" lon="-1.661948"><ele>451</ele><time>2020-05-21T12:52:08Z</time><name>PT10350</name></trkpt>
<trkpt lat="53.375248" lon="-1.661948"><ele>451</ele><time>2020-05-21T12:52:09Z</time><name>PT10351</name></trkpt>
<trkpt lat="53.375243" lon="-1.661952"><ele>451</ele><time>2020-05-21T12:52:10Z</time><name>PT10352</name></trkpt>
<trkpt lat="53.375237" lon="-1.661964"><ele>451</ele><time>2020-05-21T12:52:11Z</time><name>PT10353</name></trkpt>
<trkpt lat="53.375228" lon="-1.661984"><ele>452</ele><time>2020-05-21T12:52:12Z</time><name>PT10354</name></trkpt>
<trkpt lat="53.375218" lon="-1.662001"><ele>452</ele><time>2020-05-21T12:52:14Z</time><name>PT10355</name></trkpt>
<trkpt lat="53.375206" lon="-1.662018"><ele>452</ele><time>2020-05-21T12:52:14Z</time><name>PT10356</name></trkpt>
<trkpt lat="53.375196" lon="-1.662028"><ele>453</ele><time>2020-05-21T12:52:15Z</time><name>PT10357</name></trkpt>
<trkpt lat="53.375191" lon="-1.662028"><ele>452</ele><time>2020-05-21T12:52:16Z</time><name>PT10358</name></trkpt>
<trkpt lat="53.375182" lon="-1.662036"><ele>452</ele><time>2020-05-21T12:52:17Z</time><name>PT10359</name></trkpt>
<trkpt lat="53.375171" lon="-1.662042"><ele>452</ele><time>2020-05-21T12:52:18Z</time><name>PT10360</name></trkpt>
<trkpt lat="53.375157" lon="-1.662054"><ele>453</ele><time>2020-05-21T12:52:20Z</time><name>PT10361</name></trkpt>
<trkpt lat="53.375144" lon="-1.662066"><ele>452</ele><time>2020-05-21T12:52:20Z</time><name>PT10362</name></trkpt>
<trkpt lat="53.375136" lon="-1.662074"><ele>452</ele><time>2020-05-21T12:52:21Z</time><name>PT10363</name></trkpt>
<trkpt lat="53.375130" lon="-1.662086"><ele>452</ele><time>2020-05-21T12:52:22Z</time><name>PT10364</name></trkpt>
<trkpt lat="53.375125" lon="-1.662101"><ele>452</ele><time>2020-05-21T12:52:23Z</time><name>PT10365</name></trkpt>
<trkpt lat="53.375121" lon="-1.662122"><ele>452</ele><time>2020-05-21T12:52:24Z</time><name>PT10366</name></trkpt>
<trkpt lat="53.375118" lon="-1.662134"><ele>451</ele><time>2020-05-21T12:52:25Z</time><name>PT10367</name></trkpt>
<trkpt lat="53.375112" lon="-1.662136"><ele>451</ele><time>2020-05-21T12:52:26Z</time><name>PT10368</name></trkpt>
<trkpt lat="53.375106" lon="-1.662136"><ele>450</ele><time>2020-05-21T12:52:27Z</time><name>PT10369</name></trkpt>
<trkpt lat="53.375099" lon="-1.662141"><ele>450</ele><time>2020-05-21T12:52:29Z</time><name>PT10370</name></trkpt>
<trkpt lat="53.375092" lon="-1.662145"><ele>450</ele><time>2020-05-21T12:52:29Z</time><name>PT10371</name></trkpt>
<trkpt lat="53.375084" lon="-1.662154"><ele>450</ele><time>2020-05-21T12:52:30Z</time><name>PT10372</name></trkpt>
<trkpt lat="53.375074" lon="-1.662168"><ele>450</ele><time>2020-05-21T12:52:32Z</time><name>PT10373</name></trkpt>
<trkpt lat="53.375060" lon="-1.662172"><ele>450</ele><time>2020-05-21T12:52:32Z</time><name>PT10374</name></trkpt>
<trkpt lat="53.375049" lon="-1.662177"><ele>450</ele><time>2020-05-21T12:52:33Z</time><name>PT10375</name></trkpt>
<trkpt lat="53.375039" lon="-1.662181"><ele>450</ele><time>2020-05-21T12:52:35Z</time><name>PT10376</name></trkpt>
<trkpt lat="53.375033" lon="-1.662187"><ele>451</ele><time>2020-05-21T12:52:35Z</time><name>PT10377</name></trkpt>
<trkpt lat="53.375022" lon="-1.662190"><ele>451</ele><time>2020-05-21T12:52:36Z</time><name>PT10378</name></trkpt>
<trkpt lat="53.375010" lon="-1.662198"><ele>451</ele><time>2020-05-21T12:52:38Z</time><name>PT10379</name></trkpt>
<trkpt lat="53.374998" lon="-1.662208"><ele>451</ele><time>2020-05-21T12:52:38Z</time><name>PT10380</name></trkpt>
<trkpt lat="53.374986" lon="-1.662219"><ele>451</ele><time>2020-05-21T12:52:39Z</time><name>PT10381</name></trkpt>
<trkpt lat="53.374976" lon="-1.662226"><ele>452</ele><time>2020-05-21T12:52:40Z</time><name>PT10382</name></trkpt>
<trkpt lat="53.374966" lon="-1.662229"><ele>452</ele><time>2020-05-21T12:52:41Z</time><name>PT10383</name></trkpt>
<trkpt lat="53.374959" lon="-1.662232"><ele>452</ele><time>2020-05-21T12:52:42Z</time><name>PT10384</name></trkpt>
<trkpt lat="53.374949" lon="-1.662239"><ele>452</ele><time>2020-05-21T12:52:43Z</time><name>PT10385</name></trkpt>
<trkpt lat="53.374935" lon="-1.662253"><ele>453</ele><time>2020-05-21T12:52:44Z</time><name>PT10386</name></trkpt>
<trkpt lat="53.374921" lon="-1.662266"><ele>453</ele><time>2020-05-21T12:52:45Z</time><name>PT10387</name></trkpt>
<trkpt lat="53.374908" lon="-1.662273"><ele>453</ele><time>2020-05-21T12:52:46Z</time><name>PT10388</name></trkpt>
<trkpt lat="53.374893" lon="-1.662276"><ele>453</ele><time>2020-05-21T12:52:48Z</time><name>PT10389</name></trkpt>
<trkpt lat="53.374881" lon="-1.662288"><ele>453</ele><time>2020-05-21T12:52:49Z</time><name>PT10390</name></trkpt>
<trkpt lat="53.374868" lon="-1.662296"><ele>453</ele><time>2020-05-21T12:52:50Z</time><name>PT10391</name></trkpt>
<trkpt lat="53.374856" lon="-1.662302"><ele>454</ele><time>2020-05-21T12:52:51Z</time><name>PT10392</name></trkpt>
<trkpt lat="53.374841" lon="-1.662311"><ele>454</ele><time>2020-05-21T12:52:52Z</time><name>PT10393</name></trkpt>
<trkpt lat="53.374830" lon="-1.662316"><ele>454</ele><time>2020-05-21T12:52:53Z</time><name>PT10394</name></trkpt>
<trkpt lat="53.374822" lon="-1.662326"><ele>454</ele><time>2020-05-21T12:52:54Z</time><name>PT10395</name></trkpt>
<trkpt lat="53.374812" lon="-1.662338"><ele>454</ele><time>2020-05-21T12:52:55Z</time><name>PT10396</name></trkpt>
<trkpt lat="53.374803" lon="-1.662343"><ele>454</ele><time>2020-05-21T12:52:56Z</time><name>PT10397</name></trkpt>
<trkpt lat="53.374791" lon="-1.662355"><ele>453</ele><time>2020-05-21T12:52:57Z</time><name>PT10398</name></trkpt>
<trkpt lat="53.374777" lon="-1.662369"><ele>453</ele><time>2020-05-21T12:52:58Z</time><name>PT10399</name></trkpt>
<trkpt lat="53.374766" lon="-1.662377"><ele>454</ele><time>2020-05-21T12:52:59Z</time><name>PT10400</name></trkpt>
<trkpt lat="53.374756" lon="-1.662385"><ele>453</ele><time>2020-05-21T12:53:00Z</time><name>PT10401</name></trkpt>
<trkpt lat="53.374750" lon="-1.662388"><ele>453</ele><time>2020-05-21T12:53:02Z</time><name>PT10402</name></trkpt>
<trkpt lat="53.374739" lon="-1.662391"><ele>453</ele><time>2020-05-21T12:53:02Z</time><name>PT10403</name></trkpt>
<trkpt lat="53.374726" lon="-1.662397"><ele>452</ele><time>2020-05-21T12:53:03Z</time><name>PT10404</name></trkpt>
<trkpt lat="53.374712" lon="-1.662406"><ele>452</ele><time>2020-05-21T12:53:05Z</time><name>PT10405</name></trkpt>
<trkpt lat="53.374704" lon="-1.662414"><ele>452</ele><time>2020-05-21T12:53:05Z</time><name>PT10406</name></trkpt>
<trkpt lat="53.374695" lon="-1.662424"><ele>452</ele><time>2020-05-21T12:53:06Z</time><name>PT10407</name></trkpt>
<trkpt lat="53.374685" lon="-1.662428"><ele>452</ele><time>2020-05-21T12:53:08Z</time><name>PT10408</name></trkpt>
<trkpt lat="53.374673" lon="-1.662437"><ele>452</ele><time>2020-05-21T12:53:08Z</time><name>PT10409</name></trkpt>
<trkpt lat="53.374656" lon="-1.662447"><ele>452</ele><time>2020-05-21T12:53:09Z</time><name>PT10410</name></trkpt>
<trkpt lat="53.374645" lon="-1.662451"><ele>453</ele><time>2020-05-21T12:53:11Z</time><name>PT10411</name></trkpt>
<trkpt lat="53.374637" lon="-1.662457"><ele>453</ele><time>2020-05-21T12:53:11Z</time><name>PT10412</name></trkpt>
<trkpt lat="53.374629" lon="-1.662458"><ele>452</ele><time>2020-05-21T12:53:12Z</time><name>PT10413</name></trkpt>
<trkpt lat="53.374620" lon="-1.662463"><ele>452</ele><time>2020-05-21T12:53:13Z</time><name>PT10414</name></trkpt>
<trkpt lat="53.374606" lon="-1.662476"><ele>453</ele><time>2020-05-21T12:53:14Z</time><name>PT10415</name></trkpt>
<trkpt lat="53.374592" lon="-1.662489"><ele>453</ele><time>2020-05-21T12:53:15Z</time><name>PT10416</name></trkpt>
<trkpt lat="53.374585" lon="-1.662496"><ele>452</ele><time>2020-05-21T12:53:17Z</time><name>PT10417</name></trkpt>
<trkpt lat="53.374582" lon="-1.662496"><ele>452</ele><time>2020-05-21T12:53:17Z</time><name>PT10418</name></trkpt>
<trkpt lat="53.374572" lon="-1.662506"><ele>452</ele><time>2020-05-21T12:53:18Z</time><name>PT10419</name></trkpt>
<trkpt lat="53.374559" lon="-1.662514"><ele>452</ele><time>2020-05-21T12:53:20Z</time><name>PT10420</name></trkpt>
<trkpt lat="53.374546" lon="-1.662520"><ele>452</ele><time>2020-05-21T12:53:20Z</time><name>PT10421</name></trkpt>
<trkpt lat="53.374533" lon="-1.662529"><ele>452</ele><time>2020-05-21T12:53:21Z</time><name>PT10422</name></trkpt>
<trkpt lat="53.374525" lon="-1.662533"><ele>452</ele><time>2020-05-21T12:53:23Z</time><name>PT10423</name></trkpt>
<trkpt lat="53.374516" lon="-1.662543"><ele>452</ele><time>2020-05-21T12:53:23Z</time><name>PT10424</name></trkpt>
<trkpt lat="53.374504" lon="-1.662553"><ele>452</ele><time>2020-05-21T12:53:24Z</time><name>PT10425</name></trkpt>
<trkpt lat="53.374490" lon="-1.662564"><ele>452</ele><time>2020-05-21T12:53:26Z</time><name>PT10426</name></trkpt>
<trkpt lat="53.374481" lon="-1.662571"><ele>452</ele><time>2020-05-21T12:53:26Z</time><name>PT10427</name></trkpt>
<trkpt lat="53.374474" lon="-1.662577"><ele>452</ele><time>2020-05-21T12:53:27Z</time><name>PT10428</name></trkpt>
<trkpt lat="53.374466" lon="-1.662586"><ele>452</ele><time>2020-05-21T12:53:29Z</time><name>PT10429</name></trkpt>
<trkpt lat="53.374455" lon="-1.662599"><ele>452</ele><time>2020-05-21T12:53:29Z</time><name>PT10430</name></trkpt>
<trkpt lat="53.374444" lon="-1.662617"><ele>452</ele><time>2020-05-21T12:53:30Z</time><name>PT10431</name></trkpt>
<trkpt lat="53.374429" lon="-1.662637"><ele>452</ele><time>2020-05-21T12:53:31Z</time><name>PT10432</name></trkpt>
<trkpt lat="53.374421" lon="-1.662643"><ele>452</ele><time>2020-05-21T12:53:32Z</time><name>PT10433</name></trkpt>
<trkpt lat="53.374415" lon="-1.662649"><ele>451</ele><time>2020-05-21T12:53:33Z</time><name>PT10434</name></trkpt>
<trkpt lat="53.374405" lon="-1.662662"><ele>451</ele><time>2020-05-21T12:53:35Z</time><name>PT10435</name></trkpt>
<trkpt lat="53.374394" lon="-1.662676"><ele>451</ele><time>2020-05-21T12:53:35Z</time><name>PT10436</name></trkpt>
<trkpt lat="53.374378" lon="-1.662688"><ele>451</ele><time>2020-05-21T12:53:36Z</time><name>PT10437</name></trkpt>
<trkpt lat="53.374364" lon="-1.662701"><ele>452</ele><time>2020-05-21T12:53:37Z</time><name>PT10438</name></trkpt>
<trkpt lat="53.374356" lon="-1.662711"><ele>452</ele><time>2020-05-21T12:53:38Z</time><name>PT10439</name></trkpt>
<trkpt lat="53.374352" lon="-1.662714"><ele>452</ele><time>2020-05-21T12:53:39Z</time><name>PT10440</name></trkpt>
<trkpt lat="53.374345" lon="-1.662718"><ele>452</ele><time>2020-05-21T12:53:41Z</time><name>PT10441</name></trkpt>
<trkpt lat="53.374335" lon="-1.662723"><ele>452</ele><time>2020-05-21T12:53:41Z</time><name>PT10442</name></trkpt>
<trkpt lat="53.374321" lon="-1.662731"><ele>452</ele><time>2020-05-21T12:53:42Z</time><name>PT10443</name></trkpt>
<trkpt lat="53.374306" lon="-1.662738"><ele>451</ele><time>2020-05-21T12:53:43Z</time><name>PT10444</name></trkpt>
<trkpt lat="53.374294" lon="-1.662741"><ele>451</ele><time>2020-05-21T12:53:44Z</time><name>PT10445</name></trkpt>
<trkpt lat="53.374284" lon="-1.662744"><ele>451</ele><time>2020-05-21T12:53:45Z</time><name>PT10446</name></trkpt>
<trkpt lat="53.374278" lon="-1.662748"><ele>451</ele><time>2020-05-21T12:53:46Z</time><name>PT10447</name></trkpt>
<trkpt lat="53.374270" lon="-1.662752"><ele>451</ele><time>2020-05-21T12:53:48Z</time><name>PT10448</name></trkpt>
<trkpt lat="53.374260" lon="-1.662755"><ele>451</ele><time>2020-05-21T12:53:48Z</time><name>PT10449</name></trkpt>
<trkpt lat="53.374249" lon="-1.662763"><ele>451</ele><time>2020-05-21T12:53:49Z</time><name>PT10450</name></trkpt>
<trkpt lat="53.374235" lon="-1.662775"><ele>452</ele><time>2020-05-21T12:53:50Z</time><name>PT10451</name></trkpt>
<trkpt lat="53.374219" lon="-1.662787"><ele>452</ele><time>2020-05-21T12:53:51Z</time><name>PT10452</name></trkpt>
<trkpt lat="53.374207" lon="-1.662793"><ele>452</ele><time>2020-05-21T12:53:52Z</time><name>PT10453</name></trkpt>
<trkpt lat="53.374201" lon="-1.662799"><ele>452</ele><time>2020-05-21T12:53:53Z</time><name>PT10454</name></trkpt>
<trkpt lat="53.374192" lon="-1.662807"><ele>452</ele><time>2020-05-21T12:53:54Z</time><name>PT10455</name></trkpt>
<trkpt lat="53.374179" lon="-1.662812"><ele>452</ele><time>2020-05-21T12:53:56Z</time><name>PT10456</name></trkpt>
<trkpt lat="53.374165" lon="-1.662818"><ele>452</ele><time>2020-05-21T12:53:56Z</time><name>PT10457</name></trkpt>
<trkpt lat="53.374153" lon="-1.662827"><ele>452</ele><time>2020-05-21T12:53:57Z</time><name>PT10458</name></trkpt>
<trkpt lat="53.374146" lon="-1.662830"><ele>452</ele><time>2020-05-21T12:53:59Z</time><name>PT10459</name></trkpt>
<trkpt lat="53.374139" lon="-1.662828"><ele>451</ele><time>2020-05-21T12:53:59Z</time><name>PT10460</name></trkpt>
<trkpt lat="53.374129" lon="-1.662826"><ele>451</ele><time>2020-05-21T12:54:00Z</time><name>PT10461</name></trkpt>
<trkpt lat="53.374113" lon="-1.662828"><ele>450</ele><time>2020-05-21T12:54:02Z</time><name>PT10462</name></trkpt>
<trkpt lat="53.374097" lon="-1.662830"><ele>451</ele><time>2020-05-21T12:54:02Z</time><name>PT10463</name></trkpt>
<trkpt lat="53.374086" lon="-1.662826"><ele>451</ele><time>2020-05-21T12:54:03Z</time><name>PT10464</name></trkpt>
<trkpt lat="53.374077" lon="-1.662825"><ele>451</ele><time>2020-05-21T12:54:05Z</time><name>PT10465</name></trkpt>
<trkpt lat="53.374065" lon="-1.662821"><ele>451</ele><time>2020-05-21T12:54:05Z</time><name>PT10466</name></trkpt>
<trkpt lat="53.374053" lon="-1.662815"><ele>451</ele><time>2020-05-21T12:54:06Z</time><name>PT10467</name></trkpt>
<trkpt lat="53.374040" lon="-1.662809"><ele>451</ele><time>2020-05-21T12:54:07Z</time><name>PT10468</name></trkpt>
<trkpt lat="53.374022" lon="-1.662808"><ele>451</ele><time>2020-05-21T12:54:08Z</time><name>PT10469</name></trkpt>
<trkpt lat="53.374011" lon="-1.662806"><ele>451</ele><time>2020-05-21T12:54:10Z</time><name>PT10470</name></trkpt>
<trkpt lat="53.374004" lon="-1.662804"><ele>451</ele><time>2020-05-21T12:54:10Z</time><name>PT10471</name></trkpt>
<trkpt lat="53.373999" lon="-1.662805"><ele>451</ele><time>2020-05-21T12:54:11Z</time><name>PT10472</name></trkpt>
<trkpt lat="53.373991" lon="-1.662813"><ele>451</ele><time>2020-05-21T12:54:13Z</time><name>PT10473</name></trkpt>
<trkpt lat="53.373981" lon="-1.662824"><ele>451</ele><time>2020-05-21T12:54:13Z</time><name>PT10474</name></trkpt>
<trkpt lat="53.373969" lon="-1.662831"><ele>451</ele><time>2020-05-21T12:54:14Z</time><name>PT10475</name></trkpt>
<trkpt lat="53.373955" lon="-1.662842"><ele>451</ele><time>2020-05-21T12:54:15Z</time><name>PT10476</name></trkpt>
<trkpt lat="53.373941" lon="-1.662854"><ele>451</ele><time>2020-05-21T12:54:16Z</time><name>PT10477</name></trkpt>
<trkpt lat="53.373932" lon="-1.662859"><ele>451</ele><time>2020-05-21T12:54:17Z</time><name>PT10478</name></trkpt>
<trkpt lat="53.373925" lon="-1.662862"><ele>451</ele><time>2020-05-21T12:54:19Z</time><name>PT10479</name></trkpt>
<trkpt lat="53.373919" lon="-1.662865"><ele>451</ele><time>2020-05-21T12:54:19Z</time><name>PT10480</name></trkpt>
<trkpt lat="53.373909" lon="-1.662863"><ele>451</ele><time>2020-05-21T12:54:20Z</time><name>PT10481</name></trkpt>
<trkpt lat="53.373896" lon="-1.662858"><ele>452</ele><time>2020-05-21T12:54:22Z</time><name>PT10482</name></trkpt>
<trkpt lat="53.373889" lon="-1.662856"><ele>452</ele><time>2020-05-21T12:54:22Z</time><name>PT10483</name></trkpt>
<trkpt lat="53.373883" lon="-1.662853"><ele>452</ele><time>2020-05-21T12:54:23Z</time><name>PT10484</name></trkpt>
<trkpt lat="53.373878" lon="-1.662852"><ele>452</ele><time>2020-05-21T12:54:25Z</time><name>PT10485</name></trkpt>
<trkpt lat="53.373872" lon="-1.662861"><ele>452</ele><time>2020-05-21T12:54:25Z</time><name>PT10486</name></trkpt>
<trkpt lat="53.373866" lon="-1.662871"><ele>451</ele><time>2020-05-21T12:54:26Z</time><name>PT10487</name></trkpt>
<trkpt lat="53.373864" lon="-1.662883"><ele>451</ele><time>2020-05-21T12:54:28Z</time><name>PT10488</name></trkpt>
<trkpt lat="53.373861" lon="-1.662901"><ele>451</ele><time>2020-05-21T12:54:28Z</time><name>PT10489</name></trkpt>
<trkpt lat="53.373851" lon="-1.662918"><ele>451</ele><time>2020-05-21T12:54:29Z</time><name>PT10490</name></trkpt>
<trkpt lat="53.373843" lon="-1.662926"><ele>451</ele><time>2020-05-21T12:54:31Z</time><name>PT10491</name></trkpt>
<trkpt lat="53.373834" lon="-1.662930"><ele>452</ele><time>2020-05-21T12:54:31Z</time><name>PT10492</name></trkpt>
<trkpt lat="53.373821" lon="-1.662931"><ele>452</ele><time>2020-05-21T12:54:32Z</time><name>PT10493</name></trkpt>
<trkpt lat="53.373805" lon="-1.662931"><ele>452</ele><time>2020-05-21T12:54:34Z</time><name>PT10494</name></trkpt>
<trkpt lat="53.373791" lon="-1.662932"><ele>453</ele><time>2020-05-21T12:54:34Z</time><name>PT10495</name></trkpt>
<trkpt lat="53.373776" lon="-1.662933"><ele>453</ele><time>2020-05-21T12:54:35Z</time><name>PT10496</name></trkpt>
<trkpt lat="53.373766" lon="-1.662938"><ele>453</ele><time>2020-05-21T12:54:37Z</time><name>PT10497</name></trkpt>
<trkpt lat="53.373755" lon="-1.662941"><ele>453</ele><time>2020-05-21T12:54:37Z</time><name>PT10498</name></trkpt>
<trkpt lat="53.373744" lon="-1.662949"><ele>453</ele><time>2020-05-21T12:54:38Z</time><name>PT10499</name></trkpt>
<trkpt lat="53.373732" lon="-1.662965"><ele>453</ele><time>2020-05-21T12:54:40Z</time><name>PT10500</name></trkpt>
<trkpt lat="53.373726" lon="-1.662975"><ele>454</ele><time>2020-05-21T12:54:40Z</time><name>PT10501</name></trkpt>
<trkpt lat="53.373722" lon="-1.662977"><ele>454</ele><time>2020-05-21T12:54:41Z</time><name>PT10502</name></trkpt>
<trkpt lat="53.373719" lon="-1.662989"><ele>454</ele><time>2020-05-21T12:54:42Z</time><name>PT10503</name></trkpt>
<trkpt lat="53.373718" lon="-1.662997"><ele>453</ele><time>2020-05-21T12:54:43Z</time><name>PT10504</name></trkpt>
<trkpt lat="53.373713" lon="-1.663004"><ele>453</ele><time>2020-05-21T12:54:44Z</time><name>PT10505</name></trkpt>
<trkpt lat="53.373709" lon="-1.663016"><ele>452</ele><time>2020-05-21T12:54:45Z</time><name>PT10506</name></trkpt>
<trkpt lat="53.373710" lon="-1.663027"><ele>452</ele><time>2020-05-21T12:54:46Z</time><name>PT10507</name></trkpt>
<trkpt lat="53.373711" lon="-1.663039"><ele>452</ele><time>2020-05-21T12:54:47Z</time><name>PT10508</name></trkpt>
<trkpt lat="53.373712" lon="-1.663057"><ele>453</ele><time>2020-05-21T12:54:48Z</time><name>PT10509</name></trkpt>
<trkpt lat="53.373713" lon="-1.663071"><ele>453</ele><time>2020-05-21T12:54:49Z</time><name>PT10510</name></trkpt>
<trkpt lat="53.373716" lon="-1.663085"><ele>452</ele><time>2020-05-21T12:54:50Z</time><name>PT10511</name></trkpt>
<trkpt lat="53.373722" lon="-1.663101"><ele>453</ele><time>2020-05-21T12:54:51Z</time><name>PT10512</name></trkpt>
<trkpt lat="53.373722" lon="-1.663121"><ele>452</ele><time>2020-05-21T12:54:52Z</time><name>PT10513</name></trkpt>
<trkpt lat="53.373724" lon="-1.663130"><ele>452</ele><time>2020-05-21T12:54:53Z</time><name>PT10514</name></trkpt>
<trkpt lat="53.373723" lon="-1.663143"><ele>452</ele><time>2020-05-21T12:54:54Z</time><name>PT10515</name></trkpt>
<trkpt lat="53.373719" lon="-1.663160"><ele>452</ele><time>2020-05-21T12:54:55Z</time><name>PT10516</name></trkpt>
<trkpt lat="53.373716" lon="-1.663172"><ele>452</ele><time>2020-05-21T12:54:56Z</time><name>PT10517</name></trkpt>
<trkpt lat="53.373714" lon="-1.663176"><ele>452</ele><time>2020-05-21T12:54:57Z</time><name>PT10518</name></trkpt>
<trkpt lat="53.373713" lon="-1.663185"><ele>453</ele><time>2020-05-21T12:54:58Z</time><name>PT10519</name></trkpt>
<trkpt lat="53.373709" lon="-1.663203"><ele>452</ele><time>2020-05-21T12:55:00Z</time><name>PT10520</name></trkpt>
<trkpt lat="53.373706" lon="-1.663215"><ele>453</ele><time>2020-05-21T12:55:01Z</time><name>PT10521</name></trkpt>
<trkpt lat="53.373700" lon="-1.663220"><ele>453</ele><time>2020-05-21T12:55:02Z</time><name>PT10522</name></trkpt>
<trkpt lat="53.373698" lon="-1.663226"><ele>452</ele><time>2020-05-21T12:55:03Z</time><name>PT10523</name></trkpt>
<trkpt lat="53.373695" lon="-1.663227"><ele>452</ele><time>2020-05-21T12:55:04Z</time><name>PT10524</name></trkpt>
<trkpt lat="53.373695" lon="-1.663230"><ele>452</ele><time>2020-05-21T12:55:05Z</time><name>PT10525</name></trkpt>
<trkpt lat="53.373691" lon="-1.663221"><ele>452</ele><time>2020-05-21T12:55:06Z</time><name>PT10526</name></trkpt>
<trkpt lat="53.373691" lon="-1.663220"><ele>452</ele><time>2020-05-21T12:55:07Z</time><name>PT10527</name></trkpt>
<trkpt lat="53.373690" lon="-1.663216"><ele>452</ele><time>2020-05-21T12:55:08Z</time><name>PT10528</name></trkpt>
<trkpt lat="53.373699" lon="-1.663225"><ele>451</ele><time>2020-05-21T12:55:19Z</time><name>PT10529</name></trkpt>
<trkpt lat="53.373700" lon="-1.663221"><ele>451</ele><time>2020-05-21T12:55:20Z</time><name>PT10530</name></trkpt>
<trkpt lat="53.373704" lon="-1.663218"><ele>451</ele><time>2020-05-21T12:55:22Z</time><name>PT10531</name></trkpt>
<trkpt lat="53.373702" lon="-1.663212"><ele>451</ele><time>2020-05-21T12:55:22Z</time><name>PT10532</name></trkpt>
<trkpt lat="53.373703" lon="-1.663207"><ele>451</ele><time>2020-05-21T12:55:23Z</time><name>PT10533</name></trkpt>
<trkpt lat="53.373704" lon="-1.663201"><ele>451</ele><time>2020-05-21T12:55:24Z</time><name>PT10534</name></trkpt>
<trkpt lat="53.373702" lon="-1.663201"><ele>451</ele><time>2020-05-21T12:55:40Z</time><name>PT10535</name></trkpt>
<trkpt lat="53.373706" lon="-1.663197"><ele>451</ele><time>2020-05-21T12:55:41Z</time><name>PT10536</name></trkpt>
<trkpt lat="53.373707" lon="-1.663191"><ele>451</ele><time>2020-05-21T12:55:42Z</time><name>PT10537</name></trkpt>
<trkpt lat="53.373705" lon="-1.663187"><ele>451</ele><time>2020-05-21T12:55:43Z</time><name>PT10538</name></trkpt>
<trkpt lat="53.373707" lon="-1.663175"><ele>451</ele><time>2020-05-21T12:55:44Z</time><name>PT10539</name></trkpt>
<trkpt lat="53.373707" lon="-1.663175"><ele>451</ele><time>2020-05-21T12:56:19Z</time><name>PT10540</name></trkpt>
<trkpt lat="53.373708" lon="-1.663161"><ele>451</ele><time>2020-05-21T12:56:20Z</time><name>PT10541</name></trkpt>
<trkpt lat="53.373714" lon="-1.663144"><ele>451</ele><time>2020-05-21T12:56:21Z</time><name>PT10542</name></trkpt>
<trkpt lat="53.373718" lon="-1.663131"><ele>451</ele><time>2020-05-21T12:56:22Z</time><name>PT10543</name></trkpt>
<trkpt lat="53.373718" lon="-1.663121"><ele>451</ele><time>2020-05-21T12:56:23Z</time><name>PT10544</name></trkpt>
<trkpt lat="53.373717" lon="-1.663113"><ele>451</ele><time>2020-05-21T12:56:25Z</time><name>PT10545</name></trkpt>
<trkpt lat="53.373712" lon="-1.663100"><ele>451</ele><time>2020-05-21T12:56:25Z</time><name>PT10546</name></trkpt>
<trkpt lat="53.373708" lon="-1.663086"><ele>451</ele><time>2020-05-21T12:56:26Z</time><name>PT10547</name></trkpt>
<trkpt lat="53.373703" lon="-1.663078"><ele>451</ele><time>2020-05-21T12:56:27Z</time><name>PT10548</name></trkpt>
<trkpt lat="53.373702" lon="-1.663074"><ele>451</ele><time>2020-05-21T12:56:28Z</time><name>PT10549</name></trkpt>
<trkpt lat="53.373705" lon="-1.663069"><ele>451</ele><time>2020-05-21T12:56:29Z</time><name>PT10550</name></trkpt>
<trkpt lat="53.373705" lon="-1.663069"><ele>451</ele><time>2020-05-21T12:56:30Z</time><name>PT10551</name></trkpt>
<trkpt lat="53.373707" lon="-1.663067"><ele>451</ele><time>2020-05-21T12:56:32Z</time><name>PT10552</name></trkpt>
<trkpt lat="53.373705" lon="-1.663053"><ele>452</ele><time>2020-05-21T12:56:33Z</time><name>PT10553</name></trkpt>
<trkpt lat="53.373702" lon="-1.663037"><ele>452</ele><time>2020-05-21T12:56:34Z</time><name>PT10554</name></trkpt>
<trkpt lat="53.373702" lon="-1.663029"><ele>452</ele><time>2020-05-21T12:56:35Z</time><name>PT10555</name></trkpt>
<trkpt lat="53.373699" lon="-1.663014"><ele>452</ele><time>2020-05-21T12:56:36Z</time><name>PT10556</name></trkpt>
<trkpt lat="53.373694" lon="-1.663001"><ele>453</ele><time>2020-05-21T12:56:37Z</time><name>PT10557</name></trkpt>
<trkpt lat="53.373691" lon="-1.662985"><ele>453</ele><time>2020-05-21T12:56:38Z</time><name>PT10558</name></trkpt>
<trkpt lat="53.373688" lon="-1.662980"><ele>453</ele><time>2020-05-21T12:56:39Z</time><name>PT10559</name></trkpt>
<trkpt lat="53.373683" lon="-1.662975"><ele>454</ele><time>2020-05-21T12:56:40Z</time><name>PT10560</name></trkpt>
<trkpt lat="53.373683" lon="-1.662973"><ele>453</ele><time>2020-05-21T12:56:41Z</time><name>PT10561</name></trkpt>
<trkpt lat="53.373683" lon="-1.662975"><ele>453</ele><time>2020-05-21T12:56:42Z</time><name>PT10562</name></trkpt>
<trkpt lat="53.373681" lon="-1.662977"><ele>453</ele><time>2020-05-21T12:56:46Z</time><name>PT10563</name></trkpt>
<trkpt lat="53.373679" lon="-1.662975"><ele>453</ele><time>2020-05-21T12:56:47Z</time><name>PT10564</name></trkpt>
<trkpt lat="53.373677" lon="-1.662967"><ele>453</ele><time>2020-05-21T12:57:04Z</time><name>PT10565</name></trkpt>
<trkpt lat="53.373667" lon="-1.662955"><ele>453</ele><time>2020-05-21T12:57:05Z</time><name>PT10566</name></trkpt>
<trkpt lat="53.373659" lon="-1.662943"><ele>453</ele><time>2020-05-21T12:57:07Z</time><name>PT10567</name></trkpt>
<trkpt lat="53.373651" lon="-1.662919"><ele>454</ele><time>2020-05-21T12:57:07Z</time><name>PT10568</name></trkpt>
<trkpt lat="53.373642" lon="-1.662906"><ele>453</ele><time>2020-05-21T12:57:08Z</time><name>PT10569</name></trkpt>
<trkpt lat="53.373637" lon="-1.662900"><ele>453</ele><time>2020-05-21T12:57:09Z</time><name>PT10570</name></trkpt>
<trkpt lat="53.373636" lon="-1.662902"><ele>453</ele><time>2020-05-21T12:57:10Z</time><name>PT10571</name></trkpt>
<trkpt lat="53.373634" lon="-1.662900"><ele>452</ele><time>2020-05-21T12:57:11Z</time><name>PT10572</name></trkpt>
<trkpt lat="53.373629" lon="-1.662884"><ele>453</ele><time>2020-05-21T12:57:12Z</time><name>PT10573</name></trkpt>
<trkpt lat="53.373624" lon="-1.662862"><ele>453</ele><time>2020-05-21T12:57:13Z</time><name>PT10574</name></trkpt>
<trkpt lat="53.373618" lon="-1.662849"><ele>453</ele><time>2020-05-21T12:57:14Z</time><name>PT10575</name></trkpt>
<trkpt lat="53.373611" lon="-1.662842"><ele>453</ele><time>2020-05-21T12:57:15Z</time><name>PT10576</name></trkpt>
<trkpt lat="53.373602" lon="-1.662835"><ele>453</ele><time>2020-05-21T12:57:16Z</time><name>PT10577</name></trkpt>
<trkpt lat="53.373594" lon="-1.662826"><ele>454</ele><time>2020-05-21T12:57:17Z</time><name>PT10578</name></trkpt>
<trkpt lat="53.373583" lon="-1.662802"><ele>454</ele><time>2020-05-21T12:57:18Z</time><name>PT10579</name></trkpt>
<trkpt lat="53.373576" lon="-1.662785"><ele>454</ele><time>2020-05-21T12:57:19Z</time><name>PT10580</name></trkpt>
<trkpt lat="53.373573" lon="-1.662771"><ele>454</ele><time>2020-05-21T12:57:20Z</time><name>PT10581</name></trkpt>
<trkpt lat="53.373565" lon="-1.662755"><ele>453</ele><time>2020-05-21T12:57:21Z</time><name>PT10582</name></trkpt>
<trkpt lat="53.373555" lon="-1.662742"><ele>453</ele><time>2020-05-21T12:57:22Z</time><name>PT10583</name></trkpt>
<trkpt lat="53.373544" lon="-1.662728"><ele>454</ele><time>2020-05-21T12:57:23Z</time><name>PT10584</name></trkpt>
<trkpt lat="53.373533" lon="-1.662712"><ele>454</ele><time>2020-05-21T12:57:25Z</time><name>PT10585</name></trkpt>
<trkpt lat="53.373527" lon="-1.662703"><ele>454</ele><time>2020-05-21T12:57:25Z</time><name>PT10586</name></trkpt>
<trkpt lat="53.373517" lon="-1.662693"><ele>454</ele><time>2020-05-21T12:57:26Z</time><name>PT10587</name></trkpt>
<trkpt lat="53.373504" lon="-1.662681"><ele>453</ele><time>2020-05-21T12:57:27Z</time><name>PT10588</name></trkpt>
<trkpt lat="53.373491" lon="-1.662666"><ele>452</ele><time>2020-05-21T12:57:28Z</time><name>PT10589</name></trkpt>
<trkpt lat="53.373473" lon="-1.662657"><ele>452</ele><time>2020-05-21T12:57:29Z</time><name>PT10590</name></trkpt>
<trkpt lat="53.373456" lon="-1.662649"><ele>452</ele><time>2020-05-21T12:57:30Z</time><name>PT10591</name></trkpt>
<trkpt lat="53.373444" lon="-1.662642"><ele>452</ele><time>2020-05-21T12:57:31Z</time><name>PT10592</name></trkpt>
<trkpt lat="53.373436" lon="-1.662637"><ele>451</ele><time>2020-05-21T12:57:32Z</time><name>PT10593</name></trkpt>
<trkpt lat="53.373426" lon="-1.662627"><ele>451</ele><time>2020-05-21T12:57:34Z</time><name>PT10594</name></trkpt>
<trkpt lat="53.373415" lon="-1.662613"><ele>451</ele><time>2020-05-21T12:57:34Z</time><name>PT10595</name></trkpt>
<trkpt lat="53.373401" lon="-1.662605"><ele>451</ele><time>2020-05-21T12:57:35Z</time><name>PT10596</name></trkpt>
<trkpt lat="53.373384" lon="-1.662599"><ele>451</ele><time>2020-05-21T12:57:36Z</time><name>PT10597</name></trkpt>
<trkpt lat="53.373367" lon="-1.662599"><ele>451</ele><time>2020-05-21T12:57:37Z</time><name>PT10598</name></trkpt>
<trkpt lat="53.373355" lon="-1.662597"><ele>451</ele><time>2020-05-21T12:57:38Z</time><name>PT10599</name></trkpt>
<trkpt lat="53.373346" lon="-1.662591"><ele>451</ele><time>2020-05-21T12:57:39Z</time><name>PT10600</name></trkpt>
<trkpt lat="53.373333" lon="-1.662591"><ele>451</ele><time>2020-05-21T12:57:40Z</time><name>PT10601</name></trkpt>
<trkpt lat="53.373319" lon="-1.662585"><ele>452</ele><time>2020-05-21T12:57:41Z</time><name>PT10602</name></trkpt>
<trkpt lat="53.373307" lon="-1.662575"><ele>452</ele><time>2020-05-21T12:57:42Z</time><name>PT10603</name></trkpt>
<trkpt lat="53.373292" lon="-1.662572"><ele>452</ele><time>2020-05-21T12:57:43Z</time><name>PT10604</name></trkpt>
<trkpt lat="53.373281" lon="-1.662567"><ele>453</ele><time>2020-05-21T12:57:44Z</time><name>PT10605</name></trkpt>
<trkpt lat="53.373274" lon="-1.662556"><ele>453</ele><time>2020-05-21T12:57:45Z</time><name>PT10606</name></trkpt>
<trkpt lat="53.373261" lon="-1.662546"><ele>452</ele><time>2020-05-21T12:57:46Z</time><name>PT10607</name></trkpt>
<trkpt lat="53.373250" lon="-1.662533"><ele>452</ele><time>2020-05-21T12:57:47Z</time><name>PT10608</name></trkpt>
<trkpt lat="53.373238" lon="-1.662522"><ele>452</ele><time>2020-05-21T12:57:48Z</time><name>PT10609</name></trkpt>
<trkpt lat="53.373226" lon="-1.662510"><ele>452</ele><time>2020-05-21T12:57:49Z</time><name>PT10610</name></trkpt>
<trkpt lat="53.373216" lon="-1.662494"><ele>452</ele><time>2020-05-21T12:57:50Z</time><name>PT10611</name></trkpt>
<trkpt lat="53.373207" lon="-1.662489"><ele>452</ele><time>2020-05-21T12:57:51Z</time><name>PT10612</name></trkpt>
<trkpt lat="53.373199" lon="-1.662485"><ele>452</ele><time>2020-05-21T12:57:52Z</time><name>PT10613</name></trkpt>
<trkpt lat="53.373186" lon="-1.662485"><ele>451</ele><time>2020-05-21T12:57:53Z</time><name>PT10614</name></trkpt>
<trkpt lat="53.373173" lon="-1.662479"><ele>451</ele><time>2020-05-21T12:57:55Z</time><name>PT10615</name></trkpt>
<trkpt lat="53.373159" lon="-1.662474"><ele>451</ele><time>2020-05-21T12:57:55Z</time><name>PT10616</name></trkpt>
<trkpt lat="53.373143" lon="-1.662465"><ele>451</ele><time>2020-05-21T12:57:56Z</time><name>PT10617</name></trkpt>
<trkpt lat="53.373130" lon="-1.662460"><ele>451</ele><time>2020-05-21T12:57:57Z</time><name>PT10618</name></trkpt>
<trkpt lat="53.373121" lon="-1.662457"><ele>451</ele><time>2020-05-21T12:57:58Z</time><name>PT10619</name></trkpt>
<trkpt lat="53.373110" lon="-1.662456"><ele>451</ele><time>2020-05-21T12:57:59Z</time><name>PT10620</name></trkpt>
<trkpt lat="53.373097" lon="-1.662456"><ele>451</ele><time>2020-05-21T12:58:00Z</time><name>PT10621</name></trkpt>
<trkpt lat="53.373083" lon="-1.662448"><ele>451</ele><time>2020-05-21T12:58:01Z</time><name>PT10622</name></trkpt>
<trkpt lat="53.373068" lon="-1.662440"><ele>452</ele><time>2020-05-21T12:58:02Z</time><name>PT10623</name></trkpt>
<trkpt lat="53.373051" lon="-1.662431"><ele>452</ele><time>2020-05-21T12:58:03Z</time><name>PT10624</name></trkpt>
<trkpt lat="53.373038" lon="-1.662428"><ele>452</ele><time>2020-05-21T12:58:04Z</time><name>PT10625</name></trkpt>
<trkpt lat="53.373029" lon="-1.662428"><ele>451</ele><time>2020-05-21T12:58:05Z</time><name>PT10626</name></trkpt>
<trkpt lat="53.373022" lon="-1.662430"><ele>452</ele><time>2020-05-21T12:58:06Z</time><name>PT10627</name></trkpt>
<trkpt lat="53.373008" lon="-1.662435"><ele>452</ele><time>2020-05-21T12:58:07Z</time><name>PT10628</name></trkpt>
<trkpt lat="53.372993" lon="-1.662441"><ele>451</ele><time>2020-05-21T12:58:08Z</time><name>PT10629</name></trkpt>
<trkpt lat="53.372977" lon="-1.662449"><ele>451</ele><time>2020-05-21T12:58:09Z</time><name>PT10630</name></trkpt>
<trkpt lat="53.372962" lon="-1.662456"><ele>451</ele><time>2020-05-21T12:58:10Z</time><name>PT10631</name></trkpt>
<trkpt lat="53.372952" lon="-1.662465"><ele>451</ele><time>2020-05-21T12:58:11Z</time><name>PT10632</name></trkpt>
<trkpt lat="53.372943" lon="-1.662467"><ele>452</ele><time>2020-05-21T12:58:12Z</time><name>PT10633</name></trkpt>
<trkpt lat="53.372931" lon="-1.662466"><ele>451</ele><time>2020-05-21T12:58:13Z</time><name>PT10634</name></trkpt>
<trkpt lat="53.372915" lon="-1.662460"><ele>451</ele><time>2020-05-21T12:58:14Z</time><name>PT10635</name></trkpt>
<trkpt lat="53.372901" lon="-1.662458"><ele>451</ele><time>2020-05-21T12:58:15Z</time><name>PT10636</name></trkpt>
<trkpt lat="53.372884" lon="-1.662460"><ele>451</ele><time>2020-05-21T12:58:16Z</time><name>PT10637</name></trkpt>
<trkpt lat="53.372868" lon="-1.662458"><ele>451</ele><time>2020-05-21T12:58:17Z</time><name>PT10638</name></trkpt>
<trkpt lat="53.372856" lon="-1.662462"><ele>452</ele><time>2020-05-21T12:58:18Z</time><name>PT10639</name></trkpt>
<trkpt lat="53.372849" lon="-1.662467"><ele>452</ele><time>2020-05-21T12:58:19Z</time><name>PT10640</name></trkpt>
<trkpt lat="53.372839" lon="-1.662471"><ele>451</ele><time>2020-05-21T12:58:20Z</time><name>PT10641</name></trkpt>
<trkpt lat="53.372826" lon="-1.662479"><ele>451</ele><time>2020-05-21T12:58:21Z</time><name>PT10642</name></trkpt>
<trkpt lat="53.372811" lon="-1.662484"><ele>451</ele><time>2020-05-21T12:58:22Z</time><name>PT10643</name></trkpt>
<trkpt lat="53.372794" lon="-1.662488"><ele>450</ele><time>2020-05-21T12:58:23Z</time><name>PT10644</name></trkpt>
<trkpt lat="53.372779" lon="-1.662496"><ele>450</ele><time>2020-05-21T12:58:24Z</time><name>PT10645</name></trkpt>
<trkpt lat="53.372771" lon="-1.662501"><ele>450</ele><time>2020-05-21T12:58:25Z</time><name>PT10646</name></trkpt>
<trkpt lat="53.372763" lon="-1.662509"><ele>450</ele><time>2020-05-21T12:58:26Z</time><name>PT10647</name></trkpt>
<trkpt lat="53.372751" lon="-1.662521"><ele>450</ele><time>2020-05-21T12:58:27Z</time><name>PT10648</name></trkpt>
<trkpt lat="53.372728" lon="-1.662541"><ele>448</ele><time>2020-05-21T12:58:28Z</time><name>PT10649</name></trkpt>
<trkpt lat="53.372708" lon="-1.662554"><ele>447</ele><time>2020-05-21T12:58:29Z</time><name>PT10650</name></trkpt>
<trkpt lat="53.372691" lon="-1.662565"><ele>446</ele><time>2020-05-21T12:58:30Z</time><name>PT10651</name></trkpt>
<trkpt lat="53.372677" lon="-1.662576"><ele>447</ele><time>2020-05-21T12:58:31Z</time><name>PT10652</name></trkpt>
<trkpt lat="53.372669" lon="-1.662582"><ele>447</ele><time>2020-05-21T12:58:32Z</time><name>PT10653</name></trkpt>
<trkpt lat="53.372661" lon="-1.662590"><ele>447</ele><time>2020-05-21T12:58:33Z</time><name>PT10654</name></trkpt>
<trkpt lat="53.372653" lon="-1.662596"><ele>447</ele><time>2020-05-21T12:58:34Z</time><name>PT10655</name></trkpt>
<trkpt lat="53.372640" lon="-1.662598"><ele>447</ele><time>2020-05-21T12:58:35Z</time><name>PT10656</name></trkpt>
<trkpt lat="53.372626" lon="-1.662603"><ele>449</ele><time>2020-05-21T12:58:36Z</time><name>PT10657</name></trkpt>
<trkpt lat="53.372616" lon="-1.662604"><ele>450</ele><time>2020-05-21T12:58:37Z</time><name>PT10658</name></trkpt>
<trkpt lat="53.372604" lon="-1.662607"><ele>451</ele><time>2020-05-21T12:58:38Z</time><name>PT10659</name></trkpt>
<trkpt lat="53.372592" lon="-1.662607"><ele>451</ele><time>2020-05-21T12:58:39Z</time><name>PT10660</name></trkpt>
<trkpt lat="53.372582" lon="-1.662611"><ele>450</ele><time>2020-05-21T12:58:40Z</time><name>PT10661</name></trkpt>
<trkpt lat="53.372569" lon="-1.662617"><ele>450</ele><time>2020-05-21T12:58:41Z</time><name>PT10662</name></trkpt>
<trkpt lat="53.372555" lon="-1.662621"><ele>450</ele><time>2020-05-21T12:58:42Z</time><name>PT10663</name></trkpt>
<trkpt lat="53.372542" lon="-1.662627"><ele>450</ele><time>2020-05-21T12:58:43Z</time><name>PT10664</name></trkpt>
<trkpt lat="53.372530" lon="-1.662634"><ele>450</ele><time>2020-05-21T12:58:44Z</time><name>PT10665</name></trkpt>
<trkpt lat="53.372517" lon="-1.662637"><ele>450</ele><time>2020-05-21T12:58:45Z</time><name>PT10666</name></trkpt>
<trkpt lat="53.372504" lon="-1.662639"><ele>449</ele><time>2020-05-21T12:58:46Z</time><name>PT10667</name></trkpt>
<trkpt lat="53.372492" lon="-1.662636"><ele>449</ele><time>2020-05-21T12:58:47Z</time><name>PT10668</name></trkpt>
<trkpt lat="53.372481" lon="-1.662637"><ele>450</ele><time>2020-05-21T12:58:48Z</time><name>PT10669</name></trkpt>
<trkpt lat="53.372467" lon="-1.662638"><ele>449</ele><time>2020-05-21T12:58:49Z</time><name>PT10670</name></trkpt>
<trkpt lat="53.372454" lon="-1.662641"><ele>449</ele><time>2020-05-21T12:58:50Z</time><name>PT10671</name></trkpt>
<trkpt lat="53.372441" lon="-1.662643"><ele>449</ele><time>2020-05-21T12:58:51Z</time><name>PT10672</name></trkpt>
<trkpt lat="53.372428" lon="-1.662644"><ele>449</ele><time>2020-05-21T12:58:52Z</time><name>PT10673</name></trkpt>
<trkpt lat="53.372414" lon="-1.662645"><ele>449</ele><time>2020-05-21T12:58:53Z</time><name>PT10674</name></trkpt>
<trkpt lat="53.372401" lon="-1.662646"><ele>449</ele><time>2020-05-21T12:58:54Z</time><name>PT10675</name></trkpt>
<trkpt lat="53.372388" lon="-1.662645"><ele>449</ele><time>2020-05-21T12:58:55Z</time><name>PT10676</name></trkpt>
<trkpt lat="53.372376" lon="-1.662646"><ele>449</ele><time>2020-05-21T12:58:56Z</time><name>PT10677</name></trkpt>
<trkpt lat="53.372363" lon="-1.662651"><ele>449</ele><time>2020-05-21T12:58:57Z</time><name>PT10678</name></trkpt>
<trkpt lat="53.372350" lon="-1.662656"><ele>449</ele><time>2020-05-21T12:58:58Z</time><name>PT10679</name></trkpt>
<trkpt lat="53.372337" lon="-1.662657"><ele>449</ele><time>2020-05-21T12:58:59Z</time><name>PT10680</name></trkpt>
<trkpt lat="53.372327" lon="-1.662663"><ele>449</ele><time>2020-05-21T12:59:00Z</time><name>PT10681</name></trkpt>
<trkpt lat="53.372318" lon="-1.662669"><ele>449</ele><time>2020-05-21T12:59:01Z</time><name>PT10682</name></trkpt>
<trkpt lat="53.372307" lon="-1.662676"><ele>448</ele><time>2020-05-21T12:59:02Z</time><name>PT10683</name></trkpt>
<trkpt lat="53.372293" lon="-1.662680"><ele>449</ele><time>2020-05-21T12:59:03Z</time><name>PT10684</name></trkpt>
<trkpt lat="53.372279" lon="-1.662680"><ele>449</ele><time>2020-05-21T12:59:04Z</time><name>PT10685</name></trkpt>
<trkpt lat="53.372265" lon="-1.662679"><ele>449</ele><time>2020-05-21T12:59:05Z</time><name>PT10686</name></trkpt>
<trkpt lat="53.372252" lon="-1.662678"><ele>449</ele><time>2020-05-21T12:59:06Z</time><name>PT10687</name></trkpt>
<trkpt lat="53.372241" lon="-1.662679"><ele>449</ele><time>2020-05-21T12:59:07Z</time><name>PT10688</name></trkpt>
<trkpt lat="53.372234" lon="-1.662677"><ele>449</ele><time>2020-05-21T12:59:08Z</time><name>PT10689</name></trkpt>
<trkpt lat="53.372229" lon="-1.662668"><ele>448</ele><time>2020-05-21T12:59:09Z</time><name>PT10690</name></trkpt>
<trkpt lat="53.372218" lon="-1.662666"><ele>448</ele><time>2020-05-21T12:59:10Z</time><name>PT10691</name></trkpt>
<trkpt lat="53.372205" lon="-1.662666"><ele>448</ele><time>2020-05-21T12:59:11Z</time><name>PT10692</name></trkpt>
<trkpt lat="53.372189" lon="-1.662668"><ele>448</ele><time>2020-05-21T12:59:12Z</time><name>PT10693</name></trkpt>
<trkpt lat="53.372178" lon="-1.662669"><ele>447</ele><time>2020-05-21T12:59:13Z</time><name>PT10694</name></trkpt>
<trkpt lat="53.372168" lon="-1.662673"><ele>447</ele><time>2020-05-21T12:59:14Z</time><name>PT10695</name></trkpt>
<trkpt lat="53.372156" lon="-1.662680"><ele>446</ele><time>2020-05-21T12:59:15Z</time><name>PT10696</name></trkpt>
<trkpt lat="53.372144" lon="-1.662689"><ele>447</ele><time>2020-05-21T12:59:16Z</time><name>PT10697</name></trkpt>
<trkpt lat="53.372130" lon="-1.662689"><ele>447</ele><time>2020-05-21T12:59:17Z</time><name>PT10698</name></trkpt>
<trkpt lat="53.372116" lon="-1.662695"><ele>447</ele><time>2020-05-21T12:59:18Z</time><name>PT10699</name></trkpt>
<trkpt lat="53.372100" lon="-1.662710"><ele>448</ele><time>2020-05-21T12:59:19Z</time><name>PT10700</name></trkpt>
<trkpt lat="53.372086" lon="-1.662715"><ele>448</ele><time>2020-05-21T12:59:20Z</time><name>PT10701</name></trkpt>
<trkpt lat="53.372077" lon="-1.662712"><ele>448</ele><time>2020-05-21T12:59:21Z</time><name>PT10702</name></trkpt>
<trkpt lat="53.372069" lon="-1.662710"><ele>448</ele><time>2020-05-21T12:59:22Z</time><name>PT10703</name></trkpt>
<trkpt lat="53.372056" lon="-1.662708"><ele>448</ele><time>2020-05-21T12:59:23Z</time><name>PT10704</name></trkpt>
<trkpt lat="53.372043" lon="-1.662706"><ele>448</ele><time>2020-05-21T12:59:24Z</time><name>PT10705</name></trkpt>
<trkpt lat="53.372027" lon="-1.662714"><ele>449</ele><time>2020-05-21T12:59:25Z</time><name>PT10706</name></trkpt>
<trkpt lat="53.372010" lon="-1.662717"><ele>449</ele><time>2020-05-21T12:59:26Z</time><name>PT10707</name></trkpt>
<trkpt lat="53.372000" lon="-1.662718"><ele>449</ele><time>2020-05-21T12:59:27Z</time><name>PT10708</name></trkpt>
<trkpt lat="53.371992" lon="-1.662720"><ele>449</ele><time>2020-05-21T12:59:28Z</time><name>PT10709</name></trkpt>
<trkpt lat="53.371981" lon="-1.662723"><ele>448</ele><time>2020-05-21T12:59:29Z</time><name>PT10710</name></trkpt>
<trkpt lat="53.371969" lon="-1.662724"><ele>448</ele><time>2020-05-21T12:59:30Z</time><name>PT10711</name></trkpt>
<trkpt lat="53.371955" lon="-1.662731"><ele>448</ele><time>2020-05-21T12:59:31Z</time><name>PT10712</name></trkpt>
<trkpt lat="53.371941" lon="-1.662738"><ele>448</ele><time>2020-05-21T12:59:32Z</time><name>PT10713</name></trkpt>
<trkpt lat="53.371929" lon="-1.662743"><ele>448</ele><time>2020-05-21T12:59:33Z</time><name>PT10714</name></trkpt>
<trkpt lat="53.371921" lon="-1.662744"><ele>447</ele><time>2020-05-21T12:59:34Z</time><name>PT10715</name></trkpt>
<trkpt lat="53.371912" lon="-1.662743"><ele>447</ele><time>2020-05-21T12:59:35Z</time><name>PT10716</name></trkpt>
<trkpt lat="53.371897" lon="-1.662744"><ele>447</ele><time>2020-05-21T12:59:36Z</time><name>PT10717</name></trkpt>
<trkpt lat="53.371883" lon="-1.662748"><ele>447</ele><time>2020-05-21T12:59:37Z</time><name>PT10718</name></trkpt>
<trkpt lat="53.371866" lon="-1.662756"><ele>447</ele><time>2020-05-21T12:59:38Z</time><name>PT10719</name></trkpt>
<trkpt lat="53.371849" lon="-1.662765"><ele>446</ele><time>2020-05-21T12:59:39Z</time><name>PT10720</name></trkpt>
<trkpt lat="53.371837" lon="-1.662772"><ele>446</ele><time>2020-05-21T12:59:40Z</time><name>PT10721</name></trkpt>
<trkpt lat="53.371829" lon="-1.662778"><ele>446</ele><time>2020-05-21T12:59:41Z</time><name>PT10722</name></trkpt>
<trkpt lat="53.371819" lon="-1.662781"><ele>446</ele><time>2020-05-21T12:59:42Z</time><name>PT10723</name></trkpt>
<trkpt lat="53.371808" lon="-1.662784"><ele>446</ele><time>2020-05-21T12:59:43Z</time><name>PT10724</name></trkpt>
<trkpt lat="53.371797" lon="-1.662786"><ele>446</ele><time>2020-05-21T12:59:44Z</time><name>PT10725</name></trkpt>
<trkpt lat="53.371783" lon="-1.662793"><ele>446</ele><time>2020-05-21T12:59:45Z</time><name>PT10726</name></trkpt>
<trkpt lat="53.371768" lon="-1.662802"><ele>447</ele><time>2020-05-21T12:59:46Z</time><name>PT10727</name></trkpt>
<trkpt lat="53.371752" lon="-1.662816"><ele>447</ele><time>2020-05-21T12:59:47Z</time><name>PT10728</name></trkpt>
<trkpt lat="53.371742" lon="-1.662825"><ele>447</ele><time>2020-05-21T12:59:48Z</time><name>PT10729</name></trkpt>
<trkpt lat="53.371733" lon="-1.662828"><ele>447</ele><time>2020-05-21T12:59:49Z</time><name>PT10730</name></trkpt>
<trkpt lat="53.371721" lon="-1.662827"><ele>447</ele><time>2020-05-21T12:59:50Z</time><name>PT10731</name></trkpt>
<trkpt lat="53.371711" lon="-1.662822"><ele>447</ele><time>2020-05-21T12:59:51Z</time><name>PT10732</name></trkpt>
<trkpt lat="53.371701" lon="-1.662820"><ele>447</ele><time>2020-05-21T12:59:52Z</time><name>PT10733</name></trkpt>
<trkpt lat="53.371686" lon="-1.662821"><ele>448</ele><time>2020-05-21T12:59:53Z</time><name>PT10734</name></trkpt>
<trkpt lat="53.371669" lon="-1.662829"><ele>448</ele><time>2020-05-21T12:59:54Z</time><name>PT10735</name></trkpt>
<trkpt lat="53.371656" lon="-1.662826"><ele>449</ele><time>2020-05-21T12:59:55Z</time><name>PT10736</name></trkpt>
<trkpt lat="53.371646" lon="-1.662820"><ele>449</ele><time>2020-05-21T12:59:56Z</time><name>PT10737</name></trkpt>
<trkpt lat="53.371638" lon="-1.662819"><ele>449</ele><time>2020-05-21T12:59:57Z</time><name>PT10738</name></trkpt>
<trkpt lat="53.371628" lon="-1.662823"><ele>450</ele><time>2020-05-21T12:59:58Z</time><name>PT10739</name></trkpt>
<trkpt lat="53.371616" lon="-1.662830"><ele>450</ele><time>2020-05-21T12:59:59Z</time><name>PT10740</name></trkpt>
<trkpt lat="53.371603" lon="-1.662836"><ele>450</ele><time>2020-05-21T13:00:00Z</time><name>PT10741</name></trkpt>
<trkpt lat="53.371588" lon="-1.662842"><ele>450</ele><time>2020-05-21T13:00:01Z</time><name>PT10742</name></trkpt>
<trkpt lat="53.371572" lon="-1.662843"><ele>450</ele><time>2020-05-21T13:00:02Z</time><name>PT10743</name></trkpt>
<trkpt lat="53.371558" lon="-1.662852"><ele>450</ele><time>2020-05-21T13:00:03Z</time><name>PT10744</name></trkpt>
<trkpt lat="53.371547" lon="-1.662859"><ele>450</ele><time>2020-05-21T13:00:04Z</time><name>PT10745</name></trkpt>
<trkpt lat="53.371539" lon="-1.662866"><ele>450</ele><time>2020-05-21T13:00:05Z</time><name>PT10746</name></trkpt>
<trkpt lat="53.371529" lon="-1.662873"><ele>450</ele><time>2020-05-21T13:00:06Z</time><name>PT10747</name></trkpt>
<trkpt lat="53.371519" lon="-1.662878"><ele>450</ele><time>2020-05-21T13:00:07Z</time><name>PT10748</name></trkpt>
<trkpt lat="53.371499" lon="-1.662895"><ele>449</ele><time>2020-05-21T13:00:08Z</time><name>PT10749</name></trkpt>
<trkpt lat="53.371483" lon="-1.662893"><ele>449</ele><time>2020-05-21T13:00:09Z</time><name>PT10750</name></trkpt>
<trkpt lat="53.371465" lon="-1.662891"><ele>449</ele><time>2020-05-21T13:00:10Z</time><name>PT10751</name></trkpt>
<trkpt lat="53.371450" lon="-1.662888"><ele>449</ele><time>2020-05-21T13:00:11Z</time><name>PT10752</name></trkpt>
<trkpt lat="53.371439" lon="-1.662887"><ele>448</ele><time>2020-05-21T13:00:12Z</time><name>PT10753</name></trkpt>
<trkpt lat="53.371430" lon="-1.662889"><ele>449</ele><time>2020-05-21T13:00:13Z</time><name>PT10754</name></trkpt>
<trkpt lat="53.371423" lon="-1.662887"><ele>448</ele><time>2020-05-21T13:00:14Z</time><name>PT10755</name></trkpt>
<trkpt lat="53.371411" lon="-1.662890"><ele>448</ele><time>2020-05-21T13:00:15Z</time><name>PT10756</name></trkpt>
<trkpt lat="53.371397" lon="-1.662892"><ele>449</ele><time>2020-05-21T13:00:16Z</time><name>PT10757</name></trkpt>
<trkpt lat="53.371381" lon="-1.662895"><ele>448</ele><time>2020-05-21T13:00:17Z</time><name>PT10758</name></trkpt>
<trkpt lat="53.371363" lon="-1.662898"><ele>449</ele><time>2020-05-21T13:00:18Z</time><name>PT10759</name></trkpt>
<trkpt lat="53.371344" lon="-1.662901"><ele>449</ele><time>2020-05-21T13:00:19Z</time><name>PT10760</name></trkpt>
<trkpt lat="53.371331" lon="-1.662906"><ele>450</ele><time>2020-05-21T13:00:20Z</time><name>PT10761</name></trkpt>
<trkpt lat="53.371320" lon="-1.662907"><ele>450</ele><time>2020-05-21T13:00:21Z</time><name>PT10762</name></trkpt>
<trkpt lat="53.371309" lon="-1.662910"><ele>450</ele><time>2020-05-21T13:00:22Z</time><name>PT10763</name></trkpt>
<trkpt lat="53.371296" lon="-1.662915"><ele>450</ele><time>2020-05-21T13:00:23Z</time><name>PT10764</name></trkpt>
<trkpt lat="53.371284" lon="-1.662915"><ele>452</ele><time>2020-05-21T13:00:24Z</time><name>PT10765</name></trkpt>
<trkpt lat="53.371271" lon="-1.662917"><ele>452</ele><time>2020-05-21T13:00:25Z</time><name>PT10766</name></trkpt>
<trkpt lat="53.371261" lon="-1.662917"><ele>452</ele><time>2020-05-21T13:00:26Z</time><name>PT10767</name></trkpt>
<trkpt lat="53.371253" lon="-1.662916"><ele>452</ele><time>2020-05-21T13:00:27Z</time><name>PT10768</name></trkpt>
<trkpt lat="53.371244" lon="-1.662916"><ele>451</ele><time>2020-05-21T13:00:28Z</time><name>PT10769</name></trkpt>
<trkpt lat="53.371231" lon="-1.662916"><ele>450</ele><time>2020-05-21T13:00:29Z</time><name>PT10770</name></trkpt>
<trkpt lat="53.371217" lon="-1.662921"><ele>451</ele><time>2020-05-21T13:00:30Z</time><name>PT10771</name></trkpt>
<trkpt lat="53.371203" lon="-1.662918"><ele>451</ele><time>2020-05-21T13:00:31Z</time><name>PT10772</name></trkpt>
<trkpt lat="53.371185" lon="-1.662914"><ele>451</ele><time>2020-05-21T13:00:32Z</time><name>PT10773</name></trkpt>
<trkpt lat="53.371171" lon="-1.662911"><ele>451</ele><time>2020-05-21T13:00:33Z</time><name>PT10774</name></trkpt>
<trkpt lat="53.371164" lon="-1.662913"><ele>451</ele><time>2020-05-21T13:00:34Z</time><name>PT10775</name></trkpt>
<trkpt lat="53.371155" lon="-1.662917"><ele>451</ele><time>2020-05-21T13:00:35Z</time><name>PT10776</name></trkpt>
<trkpt lat="53.371142" lon="-1.662924"><ele>451</ele><time>2020-05-21T13:00:36Z</time><name>PT10777</name></trkpt>
<trkpt lat="53.371129" lon="-1.662928"><ele>450</ele><time>2020-05-21T13:00:37Z</time><name>PT10778</name></trkpt>
<trkpt lat="53.371114" lon="-1.662938"><ele>450</ele><time>2020-05-21T13:00:38Z</time><name>PT10779</name></trkpt>
<trkpt lat="53.371099" lon="-1.662952"><ele>449</ele><time>2020-05-21T13:00:39Z</time><name>PT10780</name></trkpt>
<trkpt lat="53.371088" lon="-1.662962"><ele>449</ele><time>2020-05-21T13:00:40Z</time><name>PT10781</name></trkpt>
<trkpt lat="53.371081" lon="-1.662972"><ele>450</ele><time>2020-05-21T13:00:41Z</time><name>PT10782</name></trkpt>
<trkpt lat="53.371073" lon="-1.662981"><ele>449</ele><time>2020-05-21T13:00:42Z</time><name>PT10783</name></trkpt>
<trkpt lat="53.371061" lon="-1.662989"><ele>448</ele><time>2020-05-21T13:00:43Z</time><name>PT10784</name></trkpt>
<trkpt lat="53.371046" lon="-1.663002"><ele>448</ele><time>2020-05-21T13:00:44Z</time><name>PT10785</name></trkpt>
<trkpt lat="53.371030" lon="-1.663015"><ele>448</ele><time>2020-05-21T13:00:45Z</time><name>PT10786</name></trkpt>
<trkpt lat="53.371014" lon="-1.663023"><ele>449</ele><time>2020-05-21T13:00:46Z</time><name>PT10787</name></trkpt>
<trkpt lat="53.371002" lon="-1.663016"><ele>449</ele><time>2020-05-21T13:00:47Z</time><name>PT10788</name></trkpt>
<trkpt lat="53.370994" lon="-1.663018"><ele>449</ele><time>2020-05-21T13:00:48Z</time><name>PT10789</name></trkpt>
<trkpt lat="53.370984" lon="-1.663025"><ele>449</ele><time>2020-05-21T13:00:49Z</time><name>PT10790</name></trkpt>
<trkpt lat="53.370970" lon="-1.663029"><ele>449</ele><time>2020-05-21T13:00:50Z</time><name>PT10791</name></trkpt>
<trkpt lat="53.370955" lon="-1.663033"><ele>448</ele><time>2020-05-21T13:00:51Z</time><name>PT10792</name></trkpt>
<trkpt lat="53.370940" lon="-1.663040"><ele>448</ele><time>2020-05-21T13:00:52Z</time><name>PT10793</name></trkpt>
<trkpt lat="53.370918" lon="-1.663054"><ele>447</ele><time>2020-05-21T13:00:53Z</time><name>PT10794</name></trkpt>
<trkpt lat="53.370900" lon="-1.663063"><ele>447</ele><time>2020-05-21T13:00:54Z</time><name>PT10795</name></trkpt>
<trkpt lat="53.370890" lon="-1.663066"><ele>447</ele><time>2020-05-21T13:00:55Z</time><name>PT10796</name></trkpt>
<trkpt lat="53.370880" lon="-1.663066"><ele>448</ele><time>2020-05-21T13:00:56Z</time><name>PT10797</name></trkpt>
<trkpt lat="53.370869" lon="-1.663070"><ele>448</ele><time>2020-05-21T13:00:57Z</time><name>PT10798</name></trkpt>
<trkpt lat="53.370856" lon="-1.663069"><ele>446</ele><time>2020-05-21T13:00:58Z</time><name>PT10799</name></trkpt>
<trkpt lat="53.370842" lon="-1.663073"><ele>446</ele><time>2020-05-21T13:00:59Z</time><name>PT10800</name></trkpt>
<trkpt lat="53.370828" lon="-1.663074"><ele>446</ele><time>2020-05-21T13:01:00Z</time><name>PT10801</name></trkpt>
<trkpt lat="53.370813" lon="-1.663073"><ele>445</ele><time>2020-05-21T13:01:01Z</time><name>PT10802</name></trkpt>
<trkpt lat="53.370803" lon="-1.663079"><ele>445</ele><time>2020-05-21T13:01:02Z</time><name>PT10803</name></trkpt>
<trkpt lat="53.370795" lon="-1.663086"><ele>445</ele><time>2020-05-21T13:01:03Z</time><name>PT10804</name></trkpt>
<trkpt lat="53.370785" lon="-1.663095"><ele>445</ele><time>2020-05-21T13:01:04Z</time><name>PT10805</name></trkpt>
<trkpt lat="53.370773" lon="-1.663101"><ele>445</ele><time>2020-05-21T13:01:05Z</time><name>PT10806</name></trkpt>
<trkpt lat="53.370759" lon="-1.663109"><ele>445</ele><time>2020-05-21T13:01:06Z</time><name>PT10807</name></trkpt>
<trkpt lat="53.370745" lon="-1.663119"><ele>445</ele><time>2020-05-21T13:01:07Z</time><name>PT10808</name></trkpt>
<trkpt lat="53.370727" lon="-1.663118"><ele>445</ele><time>2020-05-21T13:01:08Z</time><name>PT10809</name></trkpt>
<trkpt lat="53.370711" lon="-1.663114"><ele>445</ele><time>2020-05-21T13:01:09Z</time><name>PT10810</name></trkpt>
<trkpt lat="53.370703" lon="-1.663110"><ele>445</ele><time>2020-05-21T13:01:10Z</time><name>PT10811</name></trkpt>
<trkpt lat="53.370698" lon="-1.663104"><ele>445</ele><time>2020-05-21T13:01:11Z</time><name>PT10812</name></trkpt>
<trkpt lat="53.370685" lon="-1.663100"><ele>444</ele><time>2020-05-21T13:01:12Z</time><name>PT10813</name></trkpt>
<trkpt lat="53.370672" lon="-1.663104"><ele>444</ele><time>2020-05-21T13:01:13Z</time><name>PT10814</name></trkpt>
<trkpt lat="53.370654" lon="-1.663112"><ele>444</ele><time>2020-05-21T13:01:14Z</time><name>PT10815</name></trkpt>
<trkpt lat="53.370638" lon="-1.663117"><ele>444</ele><time>2020-05-21T13:01:15Z</time><name>PT10816</name></trkpt>
<trkpt lat="53.370628" lon="-1.663120"><ele>444</ele><time>2020-05-21T13:01:16Z</time><name>PT10817</name></trkpt>
<trkpt lat="53.370621" lon="-1.663118"><ele>444</ele><time>2020-05-21T13:01:17Z</time><name>PT10818</name></trkpt>
<trkpt lat="53.370608" lon="-1.663120"><ele>444</ele><time>2020-05-21T13:01:18Z</time><name>PT10819</name></trkpt>
<trkpt lat="53.370593" lon="-1.663122"><ele>443</ele><time>2020-05-21T13:01:19Z</time><name>PT10820</name></trkpt>
<trkpt lat="53.370574" lon="-1.663121"><ele>443</ele><time>2020-05-21T13:01:20Z</time><name>PT10821</name></trkpt>
<trkpt lat="53.370558" lon="-1.663124"><ele>444</ele><time>2020-05-21T13:01:21Z</time><name>PT10822</name></trkpt>
<trkpt lat="53.370546" lon="-1.663123"><ele>444</ele><time>2020-05-21T13:01:22Z</time><name>PT10823</name></trkpt>
<trkpt lat="53.370538" lon="-1.663126"><ele>445</ele><time>2020-05-21T13:01:23Z</time><name>PT10824</name></trkpt>
<trkpt lat="53.370527" lon="-1.663131"><ele>445</ele><time>2020-05-21T13:01:24Z</time><name>PT10825</name></trkpt>
<trkpt lat="53.370515" lon="-1.663141"><ele>446</ele><time>2020-05-21T13:01:25Z</time><name>PT10826</name></trkpt>
<trkpt lat="53.370502" lon="-1.663151"><ele>446</ele><time>2020-05-21T13:01:26Z</time><name>PT10827</name></trkpt>
<trkpt lat="53.370487" lon="-1.663162"><ele>446</ele><time>2020-05-21T13:01:27Z</time><name>PT10828</name></trkpt>
<trkpt lat="53.370475" lon="-1.663171"><ele>446</ele><time>2020-05-21T13:01:28Z</time><name>PT10829</name></trkpt>
<trkpt lat="53.370465" lon="-1.663176"><ele>446</ele><time>2020-05-21T13:01:29Z</time><name>PT10830</name></trkpt>
<trkpt lat="53.370454" lon="-1.663186"><ele>446</ele><time>2020-05-21T13:01:30Z</time><name>PT10831</name></trkpt>
<trkpt lat="53.370440" lon="-1.663192"><ele>446</ele><time>2020-05-21T13:01:31Z</time><name>PT10832</name></trkpt>
<trkpt lat="53.370422" lon="-1.663202"><ele>446</ele><time>2020-05-21T13:01:32Z</time><name>PT10833</name></trkpt>
<trkpt lat="53.370406" lon="-1.663220"><ele>446</ele><time>2020-05-21T13:01:33Z</time><name>PT10834</name></trkpt>
<trkpt lat="53.370394" lon="-1.663231"><ele>446</ele><time>2020-05-21T13:01:34Z</time><name>PT10835</name></trkpt>
<trkpt lat="53.370387" lon="-1.663235"><ele>447</ele><time>2020-05-21T13:01:35Z</time><name>PT10836</name></trkpt>
<trkpt lat="53.370381" lon="-1.663242"><ele>447</ele><time>2020-05-21T13:01:36Z</time><name>PT10837</name></trkpt>
<trkpt lat="53.370370" lon="-1.663247"><ele>447</ele><time>2020-05-21T13:01:37Z</time><name>PT10838</name></trkpt>
<trkpt lat="53.370356" lon="-1.663243"><ele>446</ele><time>2020-05-21T13:01:38Z</time><name>PT10839</name></trkpt>
<trkpt lat="53.370341" lon="-1.663243"><ele>446</ele><time>2020-05-21T13:01:39Z</time><name>PT10840</name></trkpt>
<trkpt lat="53.370326" lon="-1.663244"><ele>446</ele><time>2020-05-21T13:01:40Z</time><name>PT10841</name></trkpt>
<trkpt lat="53.370315" lon="-1.663253"><ele>446</ele><time>2020-05-21T13:01:41Z</time><name>PT10842</name></trkpt>
<trkpt lat="53.370309" lon="-1.663261"><ele>446</ele><time>2020-05-21T13:01:43Z</time><name>PT10843</name></trkpt>
<trkpt lat="53.370301" lon="-1.663265"><ele>446</ele><time>2020-05-21T13:01:43Z</time><name>PT10844</name></trkpt>
<trkpt lat="53.370290" lon="-1.663276"><ele>447</ele><time>2020-05-21T13:01:44Z</time><name>PT10845</name></trkpt>
<trkpt lat="53.370275" lon="-1.663276"><ele>448</ele><time>2020-05-21T13:01:45Z</time><name>PT10846</name></trkpt>
<trkpt lat="53.370258" lon="-1.663276"><ele>447</ele><time>2020-05-21T13:01:46Z</time><name>PT10847</name></trkpt>
<trkpt lat="53.370242" lon="-1.663281"><ele>448</ele><time>2020-05-21T13:01:47Z</time><name>PT10848</name></trkpt>
<trkpt lat="53.370229" lon="-1.663282"><ele>448</ele><time>2020-05-21T13:01:48Z</time><name>PT10849</name></trkpt>
<trkpt lat="53.370220" lon="-1.663286"><ele>448</ele><time>2020-05-21T13:01:49Z</time><name>PT10850</name></trkpt>
<trkpt lat="53.370211" lon="-1.663289"><ele>448</ele><time>2020-05-21T13:01:50Z</time><name>PT10851</name></trkpt>
<trkpt lat="53.370202" lon="-1.663294"><ele>448</ele><time>2020-05-21T13:01:51Z</time><name>PT10852</name></trkpt>
<trkpt lat="53.370190" lon="-1.663300"><ele>448</ele><time>2020-05-21T13:01:52Z</time><name>PT10853</name></trkpt>
<trkpt lat="53.370167" lon="-1.663315"><ele>448</ele><time>2020-05-21T13:01:53Z</time><name>PT10854</name></trkpt>
<trkpt lat="53.370148" lon="-1.663324"><ele>448</ele><time>2020-05-21T13:01:54Z</time><name>PT10855</name></trkpt>
<trkpt lat="53.370140" lon="-1.663330"><ele>448</ele><time>2020-05-21T13:01:55Z</time><name>PT10856</name></trkpt>
<trkpt lat="53.370133" lon="-1.663333"><ele>448</ele><time>2020-05-21T13:01:56Z</time><name>PT10857</name></trkpt>
<trkpt lat="53.370121" lon="-1.663334"><ele>448</ele><time>2020-05-21T13:01:57Z</time><name>PT10858</name></trkpt>
<trkpt lat="53.370106" lon="-1.663339"><ele>448</ele><time>2020-05-21T13:01:58Z</time><name>PT10859</name></trkpt>
<trkpt lat="53.370093" lon="-1.663345"><ele>448</ele><time>2020-05-21T13:01:59Z</time><name>PT10860</name></trkpt>
<trkpt lat="53.370084" lon="-1.663339"><ele>450</ele><time>2020-05-21T13:02:00Z</time><name>PT10861</name></trkpt>
<trkpt lat="53.370069" lon="-1.663342"><ele>450</ele><time>2020-05-21T13:02:01Z</time><name>PT10862</name></trkpt>
<trkpt lat="53.370057" lon="-1.663347"><ele>450</ele><time>2020-05-21T13:02:02Z</time><name>PT10863</name></trkpt>
<trkpt lat="53.370049" lon="-1.663352"><ele>450</ele><time>2020-05-21T13:02:03Z</time><name>PT10864</name></trkpt>
<trkpt lat="53.370039" lon="-1.663352"><ele>450</ele><time>2020-05-21T13:02:04Z</time><name>PT10865</name></trkpt>
<trkpt lat="53.370028" lon="-1.663351"><ele>450</ele><time>2020-05-21T13:02:05Z</time><name>PT10866</name></trkpt>
<trkpt lat="53.370014" lon="-1.663353"><ele>450</ele><time>2020-05-21T13:02:06Z</time><name>PT10867</name></trkpt>
<trkpt lat="53.369998" lon="-1.663363"><ele>449</ele><time>2020-05-21T13:02:07Z</time><name>PT10868</name></trkpt>
<trkpt lat="53.369981" lon="-1.663371"><ele>449</ele><time>2020-05-21T13:02:08Z</time><name>PT10869</name></trkpt>
<trkpt lat="53.369963" lon="-1.663380"><ele>449</ele><time>2020-05-21T13:02:09Z</time><name>PT10870</name></trkpt>
<trkpt lat="53.369949" lon="-1.663387"><ele>449</ele><time>2020-05-21T13:02:10Z</time><name>PT10871</name></trkpt>
<trkpt lat="53.369942" lon="-1.663390"><ele>449</ele><time>2020-05-21T13:02:11Z</time><name>PT10872</name></trkpt>
<trkpt lat="53.369932" lon="-1.663392"><ele>450</ele><time>2020-05-21T13:02:12Z</time><name>PT10873</name></trkpt>
<trkpt lat="53.369921" lon="-1.663392"><ele>450</ele><time>2020-05-21T13:02:13Z</time><name>PT10874</name></trkpt>
<trkpt lat="53.369908" lon="-1.663399"><ele>450</ele><time>2020-05-21T13:02:14Z</time><name>PT10875</name></trkpt>
<trkpt lat="53.369893" lon="-1.663400"><ele>450</ele><time>2020-05-21T13:02:15Z</time><name>PT10876</name></trkpt>
<trkpt lat="53.369875" lon="-1.663400"><ele>450</ele><time>2020-05-21T13:02:16Z</time><name>PT10877</name></trkpt>
<trkpt lat="53.369858" lon="-1.663396"><ele>450</ele><time>2020-05-21T13:02:17Z</time><name>PT10878</name></trkpt>
<trkpt lat="53.369845" lon="-1.663395"><ele>450</ele><time>2020-05-21T13:02:18Z</time><name>PT10879</name></trkpt>
<trkpt lat="53.369836" lon="-1.663393"><ele>450</ele><time>2020-05-21T13:02:19Z</time><name>PT10880</name></trkpt>
<trkpt lat="53.369828" lon="-1.663388"><ele>450</ele><time>2020-05-21T13:02:20Z</time><name>PT10881</name></trkpt>
<trkpt lat="53.369815" lon="-1.663386"><ele>450</ele><time>2020-05-21T13:02:21Z</time><name>PT10882</name></trkpt>
<trkpt lat="53.369804" lon="-1.663385"><ele>450</ele><time>2020-05-21T13:02:22Z</time><name>PT10883</name></trkpt>
<trkpt lat="53.369794" lon="-1.663385"><ele>450</ele><time>2020-05-21T13:02:23Z</time><name>PT10884</name></trkpt>
<trkpt lat="53.369787" lon="-1.663384"><ele>450</ele><time>2020-05-21T13:02:24Z</time><name>PT10885</name></trkpt>
<trkpt lat="53.369776" lon="-1.663380"><ele>449</ele><time>2020-05-21T13:02:25Z</time><name>PT10886</name></trkpt>
<trkpt lat="53.369761" lon="-1.663377"><ele>448</ele><time>2020-05-21T13:02:26Z</time><name>PT10887</name></trkpt>
<trkpt lat="53.369746" lon="-1.663373"><ele>449</ele><time>2020-05-21T13:02:28Z</time><name>PT10888</name></trkpt>
<trkpt lat="53.369728" lon="-1.663378"><ele>448</ele><time>2020-05-21T13:02:28Z</time><name>PT10889</name></trkpt>
<trkpt lat="53.369712" lon="-1.663389"><ele>449</ele><time>2020-05-21T13:02:29Z</time><name>PT10890</name></trkpt>
<trkpt lat="53.369702" lon="-1.663400"><ele>448</ele><time>2020-05-21T13:02:30Z</time><name>PT10891</name></trkpt>
<trkpt lat="53.369693" lon="-1.663410"><ele>448</ele><time>2020-05-21T13:02:31Z</time><name>PT10892</name></trkpt>
<trkpt lat="53.369683" lon="-1.663417"><ele>448</ele><time>2020-05-21T13:02:32Z</time><name>PT10893</name></trkpt>
<trkpt lat="53.369670" lon="-1.663426"><ele>449</ele><time>2020-05-21T13:02:33Z</time><name>PT10894</name></trkpt>
<trkpt lat="53.369653" lon="-1.663435"><ele>449</ele><time>2020-05-21T13:02:34Z</time><name>PT10895</name></trkpt>
<trkpt lat="53.369637" lon="-1.663437"><ele>449</ele><time>2020-05-21T13:02:35Z</time><name>PT10896</name></trkpt>
<trkpt lat="53.369625" lon="-1.663443"><ele>450</ele><time>2020-05-21T13:02:36Z</time><name>PT10897</name></trkpt>
<trkpt lat="53.369618" lon="-1.663449"><ele>450</ele><time>2020-05-21T13:02:37Z</time><name>PT10898</name></trkpt>
<trkpt lat="53.369608" lon="-1.663451"><ele>450</ele><time>2020-05-21T13:02:38Z</time><name>PT10899</name></trkpt>
<trkpt lat="53.369598" lon="-1.663468"><ele>450</ele><time>2020-05-21T13:02:39Z</time><name>PT10900</name></trkpt>
<trkpt lat="53.369586" lon="-1.663476"><ele>450</ele><time>2020-05-21T13:02:40Z</time><name>PT10901</name></trkpt>
<trkpt lat="53.369570" lon="-1.663486"><ele>450</ele><time>2020-05-21T13:02:41Z</time><name>PT10902</name></trkpt>
<trkpt lat="53.369553" lon="-1.663498"><ele>450</ele><time>2020-05-21T13:02:43Z</time><name>PT10903</name></trkpt>
<trkpt lat="53.369539" lon="-1.663513"><ele>450</ele><time>2020-05-21T13:02:43Z</time><name>PT10904</name></trkpt>
<trkpt lat="53.369530" lon="-1.663521"><ele>450</ele><time>2020-05-21T13:02:44Z</time><name>PT10905</name></trkpt>
<trkpt lat="53.369525" lon="-1.663531"><ele>450</ele><time>2020-05-21T13:02:45Z</time><name>PT10906</name></trkpt>
<trkpt lat="53.369515" lon="-1.663538"><ele>450</ele><time>2020-05-21T13:02:46Z</time><name>PT10907</name></trkpt>
<trkpt lat="53.369500" lon="-1.663542"><ele>450</ele><time>2020-05-21T13:02:47Z</time><name>PT10908</name></trkpt>
<trkpt lat="53.369490" lon="-1.663538"><ele>449</ele><time>2020-05-21T13:02:48Z</time><name>PT10909</name></trkpt>
<trkpt lat="53.369475" lon="-1.663542"><ele>448</ele><time>2020-05-21T13:02:49Z</time><name>PT10910</name></trkpt>
<trkpt lat="53.369464" lon="-1.663545"><ele>448</ele><time>2020-05-21T13:02:50Z</time><name>PT10911</name></trkpt>
<trkpt lat="53.369456" lon="-1.663548"><ele>447</ele><time>2020-05-21T13:02:51Z</time><name>PT10912</name></trkpt>
<trkpt lat="53.369443" lon="-1.663551"><ele>447</ele><time>2020-05-21T13:02:52Z</time><name>PT10913</name></trkpt>
<trkpt lat="53.369426" lon="-1.663554"><ele>447</ele><time>2020-05-21T13:02:53Z</time><name>PT10914</name></trkpt>
<trkpt lat="53.369411" lon="-1.663559"><ele>447</ele><time>2020-05-21T13:02:54Z</time><name>PT10915</name></trkpt>
<trkpt lat="53.369399" lon="-1.663561"><ele>446</ele><time>2020-05-21T13:02:55Z</time><name>PT10916</name></trkpt>
<trkpt lat="53.369392" lon="-1.663559"><ele>447</ele><time>2020-05-21T13:02:56Z</time><name>PT10917</name></trkpt>
<trkpt lat="53.369378" lon="-1.663563"><ele>447</ele><time>2020-05-21T13:02:58Z</time><name>PT10918</name></trkpt>
<trkpt lat="53.369362" lon="-1.663567"><ele>447</ele><time>2020-05-21T13:02:58Z</time><name>PT10919</name></trkpt>
<trkpt lat="53.369345" lon="-1.663574"><ele>448</ele><time>2020-05-21T13:02:59Z</time><name>PT10920</name></trkpt>
<trkpt lat="53.369333" lon="-1.663579"><ele>447</ele><time>2020-05-21T13:03:00Z</time><name>PT10921</name></trkpt>
<trkpt lat="53.369327" lon="-1.663587"><ele>447</ele><time>2020-05-21T13:03:01Z</time><name>PT10922</name></trkpt>
<trkpt lat="53.369321" lon="-1.663598"><ele>447</ele><time>2020-05-21T13:03:02Z</time><name>PT10923</name></trkpt>
<trkpt lat="53.369309" lon="-1.663606"><ele>446</ele><time>2020-05-21T13:03:03Z</time><name>PT10924</name></trkpt>
<trkpt lat="53.369295" lon="-1.663612"><ele>446</ele><time>2020-05-21T13:03:04Z</time><name>PT10925</name></trkpt>
<trkpt lat="53.369277" lon="-1.663622"><ele>446</ele><time>2020-05-21T13:03:05Z</time><name>PT10926</name></trkpt>
<trkpt lat="53.369261" lon="-1.663628"><ele>446</ele><time>2020-05-21T13:03:06Z</time><name>PT10927</name></trkpt>
<trkpt lat="53.369251" lon="-1.663636"><ele>446</ele><time>2020-05-21T13:03:07Z</time><name>PT10928</name></trkpt>
<trkpt lat="53.369244" lon="-1.663643"><ele>446</ele><time>2020-05-21T13:03:08Z</time><name>PT10929</name></trkpt>
<trkpt lat="53.369230" lon="-1.663649"><ele>446</ele><time>2020-05-21T13:03:09Z</time><name>PT10930</name></trkpt>
<trkpt lat="53.369216" lon="-1.663661"><ele>447</ele><time>2020-05-21T13:03:10Z</time><name>PT10931</name></trkpt>
<trkpt lat="53.369200" lon="-1.663671"><ele>447</ele><time>2020-05-21T13:03:11Z</time><name>PT10932</name></trkpt>
<trkpt lat="53.369186" lon="-1.663676"><ele>446</ele><time>2020-05-21T13:03:13Z</time><name>PT10933</name></trkpt>
<trkpt lat="53.369176" lon="-1.663683"><ele>446</ele><time>2020-05-21T13:03:13Z</time><name>PT10934</name></trkpt>
<trkpt lat="53.369162" lon="-1.663684"><ele>445</ele><time>2020-05-21T13:03:14Z</time><name>PT10935</name></trkpt>
<trkpt lat="53.369148" lon="-1.663682"><ele>446</ele><time>2020-05-21T13:03:15Z</time><name>PT10936</name></trkpt>
<trkpt lat="53.369129" lon="-1.663683"><ele>446</ele><time>2020-05-21T13:03:16Z</time><name>PT10937</name></trkpt>
<trkpt lat="53.369111" lon="-1.663693"><ele>446</ele><time>2020-05-21T13:03:17Z</time><name>PT10938</name></trkpt>
<trkpt lat="53.369100" lon="-1.663700"><ele>447</ele><time>2020-05-21T13:03:18Z</time><name>PT10939</name></trkpt>
<trkpt lat="53.369092" lon="-1.663698"><ele>447</ele><time>2020-05-21T13:03:19Z</time><name>PT10940</name></trkpt>
<trkpt lat="53.369080" lon="-1.663702"><ele>448</ele><time>2020-05-21T13:03:20Z</time><name>PT10941</name></trkpt>
<trkpt lat="53.369067" lon="-1.663703"><ele>449</ele><time>2020-05-21T13:03:21Z</time><name>PT10942</name></trkpt>
<trkpt lat="53.369050" lon="-1.663702"><ele>449</ele><time>2020-05-21T13:03:22Z</time><name>PT10943</name></trkpt>
<trkpt lat="53.369034" lon="-1.663705"><ele>450</ele><time>2020-05-21T13:03:23Z</time><name>PT10944</name></trkpt>
<trkpt lat="53.369023" lon="-1.663706"><ele>449</ele><time>2020-05-21T13:03:24Z</time><name>PT10945</name></trkpt>
<trkpt lat="53.369017" lon="-1.663704"><ele>449</ele><time>2020-05-21T13:03:25Z</time><name>PT10946</name></trkpt>
<trkpt lat="53.369007" lon="-1.663705"><ele>449</ele><time>2020-05-21T13:03:26Z</time><name>PT10947</name></trkpt>
<trkpt lat="53.368996" lon="-1.663705"><ele>448</ele><time>2020-05-21T13:03:27Z</time><name>PT10948</name></trkpt>
<trkpt lat="53.368982" lon="-1.663707"><ele>448</ele><time>2020-05-21T13:03:28Z</time><name>PT10949</name></trkpt>
<trkpt lat="53.368972" lon="-1.663703"><ele>448</ele><time>2020-05-21T13:03:29Z</time><name>PT10950</name></trkpt>
<trkpt lat="53.368965" lon="-1.663700"><ele>447</ele><time>2020-05-21T13:03:30Z</time><name>PT10951</name></trkpt>
<trkpt lat="53.368956" lon="-1.663707"><ele>447</ele><time>2020-05-21T13:03:31Z</time><name>PT10952</name></trkpt>
<trkpt lat="53.368944" lon="-1.663704"><ele>447</ele><time>2020-05-21T13:03:32Z</time><name>PT10953</name></trkpt>
<trkpt lat="53.368928" lon="-1.663691"><ele>447</ele><time>2020-05-21T13:03:33Z</time><name>PT10954</name></trkpt>
<trkpt lat="53.368915" lon="-1.663685"><ele>447</ele><time>2020-05-21T13:03:34Z</time><name>PT10955</name></trkpt>
<trkpt lat="53.368905" lon="-1.663683"><ele>447</ele><time>2020-05-21T13:03:35Z</time><name>PT10956</name></trkpt>
<trkpt lat="53.368894" lon="-1.663676"><ele>447</ele><time>2020-05-21T13:03:36Z</time><name>PT10957</name></trkpt>
<trkpt lat="53.368881" lon="-1.663673"><ele>447</ele><time>2020-05-21T13:03:37Z</time><name>PT10958</name></trkpt>
<trkpt lat="53.368869" lon="-1.663671"><ele>447</ele><time>2020-05-21T13:03:38Z</time><name>PT10959</name></trkpt>
<trkpt lat="53.368856" lon="-1.663671"><ele>447</ele><time>2020-05-21T13:03:39Z</time><name>PT10960</name></trkpt>
<trkpt lat="53.368848" lon="-1.663673"><ele>447</ele><time>2020-05-21T13:03:40Z</time><name>PT10961</name></trkpt>
<trkpt lat="53.368842" lon="-1.663670"><ele>446</ele><time>2020-05-21T13:03:41Z</time><name>PT10962</name></trkpt>
<trkpt lat="53.368830" lon="-1.663670"><ele>445</ele><time>2020-05-21T13:03:42Z</time><name>PT10963</name></trkpt>
<trkpt lat="53.368820" lon="-1.663667"><ele>445</ele><time>2020-05-21T13:03:43Z</time><name>PT10964</name></trkpt>
<trkpt lat="53.368807" lon="-1.663668"><ele>445</ele><time>2020-05-21T13:03:44Z</time><name>PT10965</name></trkpt>
<trkpt lat="53.368795" lon="-1.663669"><ele>445</ele><time>2020-05-21T13:03:45Z</time><name>PT10966</name></trkpt>
<trkpt lat="53.368785" lon="-1.663667"><ele>445</ele><time>2020-05-21T13:03:46Z</time><name>PT10967</name></trkpt>
<trkpt lat="53.368777" lon="-1.663665"><ele>445</ele><time>2020-05-21T13:03:47Z</time><name>PT10968</name></trkpt>
<trkpt lat="53.368765" lon="-1.663659"><ele>444</ele><time>2020-05-21T13:03:48Z</time><name>PT10969</name></trkpt>
<trkpt lat="53.368753" lon="-1.663655"><ele>444</ele><time>2020-05-21T13:03:49Z</time><name>PT10970</name></trkpt>
<trkpt lat="53.368737" lon="-1.663658"><ele>444</ele><time>2020-05-21T13:03:50Z</time><name>PT10971</name></trkpt>
<trkpt lat="53.368722" lon="-1.663657"><ele>443</ele><time>2020-05-21T13:03:51Z</time><name>PT10972</name></trkpt>
<trkpt lat="53.368713" lon="-1.663654"><ele>443</ele><time>2020-05-21T13:03:52Z</time><name>PT10973</name></trkpt>
<trkpt lat="53.368704" lon="-1.663651"><ele>443</ele><time>2020-05-21T13:03:53Z</time><name>PT10974</name></trkpt>
<trkpt lat="53.368691" lon="-1.663646"><ele>443</ele><time>2020-05-21T13:03:54Z</time><name>PT10975</name></trkpt>
<trkpt lat="53.368679" lon="-1.663638"><ele>443</ele><time>2020-05-21T13:03:55Z</time><name>PT10976</name></trkpt>
<trkpt lat="53.368665" lon="-1.663627"><ele>443</ele><time>2020-05-21T13:03:56Z</time><name>PT10977</name></trkpt>
<trkpt lat="53.368650" lon="-1.663615"><ele>443</ele><time>2020-05-21T13:03:57Z</time><name>PT10978</name></trkpt>
<trkpt lat="53.368639" lon="-1.663609"><ele>443</ele><time>2020-05-21T13:03:58Z</time><name>PT10979</name></trkpt>
<trkpt lat="53.368627" lon="-1.663608"><ele>444</ele><time>2020-05-21T13:03:59Z</time><name>PT10980</name></trkpt>
<trkpt lat="53.368613" lon="-1.663607"><ele>444</ele><time>2020-05-21T13:04:00Z</time><name>PT10981</name></trkpt>
<trkpt lat="53.368602" lon="-1.663608"><ele>444</ele><time>2020-05-21T13:04:01Z</time><name>PT10982</name></trkpt>
<trkpt lat="53.368589" lon="-1.663614"><ele>444</ele><time>2020-05-21T13:04:02Z</time><name>PT10983</name></trkpt>
<trkpt lat="53.368573" lon="-1.663623"><ele>444</ele><time>2020-05-21T13:04:03Z</time><name>PT10984</name></trkpt>
<trkpt lat="53.368564" lon="-1.663627"><ele>444</ele><time>2020-05-21T13:04:04Z</time><name>PT10985</name></trkpt>
<trkpt lat="53.368550" lon="-1.663635"><ele>443</ele><time>2020-05-21T13:04:05Z</time><name>PT10986</name></trkpt>
<trkpt lat="53.368537" lon="-1.663646"><ele>443</ele><time>2020-05-21T13:04:06Z</time><name>PT10987</name></trkpt>
<trkpt lat="53.368521" lon="-1.663661"><ele>444</ele><time>2020-05-21T13:04:07Z</time><name>PT10988</name></trkpt>
<trkpt lat="53.368507" lon="-1.663675"><ele>444</ele><time>2020-05-21T13:04:08Z</time><name>PT10989</name></trkpt>
<trkpt lat="53.368498" lon="-1.663683"><ele>444</ele><time>2020-05-21T13:04:09Z</time><name>PT10990</name></trkpt>
<trkpt lat="53.368493" lon="-1.663692"><ele>445</ele><time>2020-05-21T13:04:10Z</time><name>PT10991</name></trkpt>
<trkpt lat="53.368484" lon="-1.663698"><ele>445</ele><time>2020-05-21T13:04:11Z</time><name>PT10992</name></trkpt>
<trkpt lat="53.368473" lon="-1.663707"><ele>445</ele><time>2020-05-21T13:04:12Z</time><name>PT10993</name></trkpt>
<trkpt lat="53.368460" lon="-1.663716"><ele>445</ele><time>2020-05-21T13:04:13Z</time><name>PT10994</name></trkpt>
<trkpt lat="53.368444" lon="-1.663721"><ele>447</ele><time>2020-05-21T13:04:14Z</time><name>PT10995</name></trkpt>
<trkpt lat="53.368430" lon="-1.663723"><ele>447</ele><time>2020-05-21T13:04:15Z</time><name>PT10996</name></trkpt>
<trkpt lat="53.368421" lon="-1.663725"><ele>447</ele><time>2020-05-21T13:04:16Z</time><name>PT10997</name></trkpt>
<trkpt lat="53.368415" lon="-1.663719"><ele>447</ele><time>2020-05-21T13:04:17Z</time><name>PT10998</name></trkpt>
<trkpt lat="53.368408" lon="-1.663716"><ele>447</ele><time>2020-05-21T13:04:18Z</time><name>PT10999</name></trkpt>
<trkpt lat="53.368397" lon="-1.663719"><ele>447</ele><time>2020-05-21T13:04:19Z</time><name>PT11000</name></trkpt>
<trkpt lat="53.368392" lon="-1.663714"><ele>447</ele><time>2020-05-21T13:04:20Z</time><name>PT11001</name></trkpt>
<trkpt lat="53.368393" lon="-1.663711"><ele>447</ele><time>2020-05-21T13:04:21Z</time><name>PT11002</name></trkpt>
<trkpt lat="53.368392" lon="-1.663712"><ele>447</ele><time>2020-05-21T13:04:22Z</time><name>PT11003</name></trkpt>
<trkpt lat="53.368391" lon="-1.663712"><ele>447</ele><time>2020-05-21T13:04:23Z</time><name>PT11004</name></trkpt>
<trkpt lat="53.368391" lon="-1.663711"><ele>446</ele><time>2020-05-21T13:04:24Z</time><name>PT11005</name></trkpt>
<trkpt lat="53.368379" lon="-1.663702"><ele>446</ele><time>2020-05-21T13:04:32Z</time><name>PT11006</name></trkpt>
<trkpt lat="53.368375" lon="-1.663703"><ele>446</ele><time>2020-05-21T13:04:34Z</time><name>PT11007</name></trkpt>
<trkpt lat="53.368368" lon="-1.663709"><ele>446</ele><time>2020-05-21T13:04:34Z</time><name>PT11008</name></trkpt>
<trkpt lat="53.368361" lon="-1.663712"><ele>446</ele><time>2020-05-21T13:04:35Z</time><name>PT11009</name></trkpt>
<trkpt lat="53.368360" lon="-1.663713"><ele>446</ele><time>2020-05-21T13:04:36Z</time><name>PT11010</name></trkpt>
<trkpt lat="53.368359" lon="-1.663714"><ele>445</ele><time>2020-05-21T13:04:37Z</time><name>PT11011</name></trkpt>
<trkpt lat="53.368353" lon="-1.663723"><ele>445</ele><time>2020-05-21T13:04:38Z</time><name>PT11012</name></trkpt>
<trkpt lat="53.368347" lon="-1.663731"><ele>445</ele><time>2020-05-21T13:04:39Z</time><name>PT11013</name></trkpt>
<trkpt lat="53.368341" lon="-1.663737"><ele>445</ele><time>2020-05-21T13:04:40Z</time><name>PT11014</name></trkpt>
<trkpt lat="53.368337" lon="-1.663746"><ele>445</ele><time>2020-05-21T13:04:41Z</time><name>PT11015</name></trkpt>
<trkpt lat="53.368327" lon="-1.663748"><ele>445</ele><time>2020-05-21T13:04:42Z</time><name>PT11016</name></trkpt>
<trkpt lat="53.368312" lon="-1.663750"><ele>444</ele><time>2020-05-21T13:04:43Z</time><name>PT11017</name></trkpt>
<trkpt lat="53.368298" lon="-1.663757"><ele>444</ele><time>2020-05-21T13:04:44Z</time><name>PT11018</name></trkpt>
<trkpt lat="53.368288" lon="-1.663764"><ele>444</ele><time>2020-05-21T13:04:45Z</time><name>PT11019</name></trkpt>
<trkpt lat="53.368281" lon="-1.663766"><ele>444</ele><time>2020-05-21T13:04:46Z</time><name>PT11020</name></trkpt>
<trkpt lat="53.368268" lon="-1.663766"><ele>444</ele><time>2020-05-21T13:04:47Z</time><name>PT11021</name></trkpt>
<trkpt lat="53.368254" lon="-1.663762"><ele>443</ele><time>2020-05-21T13:04:48Z</time><name>PT11022</name></trkpt>
<trkpt lat="53.368234" lon="-1.663764"><ele>443</ele><time>2020-05-21T13:04:49Z</time><name>PT11023</name></trkpt>
<trkpt lat="53.368218" lon="-1.663768"><ele>443</ele><time>2020-05-21T13:04:50Z</time><name>PT11024</name></trkpt>
<trkpt lat="53.368209" lon="-1.663774"><ele>443</ele><time>2020-05-21T13:04:51Z</time><name>PT11025</name></trkpt>
<trkpt lat="53.368199" lon="-1.663778"><ele>443</ele><time>2020-05-21T13:04:52Z</time><name>PT11026</name></trkpt>
<trkpt lat="53.368184" lon="-1.663781"><ele>443</ele><time>2020-05-21T13:04:53Z</time><name>PT11027</name></trkpt>
<trkpt lat="53.368170" lon="-1.663783"><ele>443</ele><time>2020-05-21T13:04:54Z</time><name>PT11028</name></trkpt>
<trkpt lat="53.368155" lon="-1.663789"><ele>444</ele><time>2020-05-21T13:04:55Z</time><name>PT11029</name></trkpt>
<trkpt lat="53.368140" lon="-1.663788"><ele>444</ele><time>2020-05-21T13:04:56Z</time><name>PT11030</name></trkpt>
<trkpt lat="53.368131" lon="-1.663789"><ele>443</ele><time>2020-05-21T13:04:57Z</time><name>PT11031</name></trkpt>
<trkpt lat="53.368123" lon="-1.663790"><ele>443</ele><time>2020-05-21T13:04:58Z</time><name>PT11032</name></trkpt>
<trkpt lat="53.368109" lon="-1.663789"><ele>443</ele><time>2020-05-21T13:04:59Z</time><name>PT11033</name></trkpt>
<trkpt lat="53.368095" lon="-1.663787"><ele>443</ele><time>2020-05-21T13:05:00Z</time><name>PT11034</name></trkpt>
<trkpt lat="53.368078" lon="-1.663786"><ele>443</ele><time>2020-05-21T13:05:01Z</time><name>PT11035</name></trkpt>
<trkpt lat="53.368062" lon="-1.663791"><ele>443</ele><time>2020-05-21T13:05:02Z</time><name>PT11036</name></trkpt>
<trkpt lat="53.368053" lon="-1.663792"><ele>443</ele><time>2020-05-21T13:05:03Z</time><name>PT11037</name></trkpt>
<trkpt lat="53.368045" lon="-1.663787"><ele>444</ele><time>2020-05-21T13:05:04Z</time><name>PT11038</name></trkpt>
<trkpt lat="53.368037" lon="-1.663775"><ele>443</ele><time>2020-05-21T13:05:05Z</time><name>PT11039</name></trkpt>
<trkpt lat="53.368024" lon="-1.663759"><ele>444</ele><time>2020-05-21T13:05:06Z</time><name>PT11040</name></trkpt>
<trkpt lat="53.368013" lon="-1.663742"><ele>444</ele><time>2020-05-21T13:05:07Z</time><name>PT11041</name></trkpt>
<trkpt lat="53.367999" lon="-1.663732"><ele>445</ele><time>2020-05-21T13:05:08Z</time><name>PT11042</name></trkpt>
<trkpt lat="53.367986" lon="-1.663722"><ele>444</ele><time>2020-05-21T13:05:09Z</time><name>PT11043</name></trkpt>
<trkpt lat="53.367977" lon="-1.663718"><ele>444</ele><time>2020-05-21T13:05:10Z</time><name>PT11044</name></trkpt>
<trkpt lat="53.367966" lon="-1.663709"><ele>444</ele><time>2020-05-21T13:05:11Z</time><name>PT11045</name></trkpt>
<trkpt lat="53.367957" lon="-1.663695"><ele>443</ele><time>2020-05-21T13:05:12Z</time><name>PT11046</name></trkpt>
<trkpt lat="53.367944" lon="-1.663671"><ele>443</ele><time>2020-05-21T13:05:13Z</time><name>PT11047</name></trkpt>
<trkpt lat="53.367932" lon="-1.663651"><ele>443</ele><time>2020-05-21T13:05:14Z</time><name>PT11048</name></trkpt>
<trkpt lat="53.367922" lon="-1.663641"><ele>443</ele><time>2020-05-21T13:05:15Z</time><name>PT11049</name></trkpt>
<trkpt lat="53.367907" lon="-1.663623"><ele>443</ele><time>2020-05-21T13:05:17Z</time><name>PT11050</name></trkpt>
<trkpt lat="53.367897" lon="-1.663614"><ele>443</ele><time>2020-05-21T13:05:18Z</time><name>PT11051</name></trkpt>
<trkpt lat="53.367885" lon="-1.663603"><ele>443</ele><time>2020-05-21T13:05:19Z</time><name>PT11052</name></trkpt>
<trkpt lat="53.367869" lon="-1.663590"><ele>444</ele><time>2020-05-21T13:05:20Z</time><name>PT11053</name></trkpt>
<trkpt lat="53.367857" lon="-1.663578"><ele>444</ele><time>2020-05-21T13:05:21Z</time><name>PT11054</name></trkpt>
<trkpt lat="53.367850" lon="-1.663564"><ele>445</ele><time>2020-05-21T13:05:22Z</time><name>PT11055</name></trkpt>
<trkpt lat="53.367839" lon="-1.663559"><ele>445</ele><time>2020-05-21T13:05:23Z</time><name>PT11056</name></trkpt>
<trkpt lat="53.367829" lon="-1.663549"><ele>445</ele><time>2020-05-21T13:05:24Z</time><name>PT11057</name></trkpt>
<trkpt lat="53.367818" lon="-1.663532"><ele>445</ele><time>2020-05-21T13:05:25Z</time><name>PT11058</name></trkpt>
<trkpt lat="53.367806" lon="-1.663517"><ele>445</ele><time>2020-05-21T13:05:26Z</time><name>PT11059</name></trkpt>
<trkpt lat="53.367801" lon="-1.663497"><ele>447</ele><time>2020-05-21T13:05:27Z</time><name>PT11060</name></trkpt>
<trkpt lat="53.367796" lon="-1.663481"><ele>447</ele><time>2020-05-21T13:05:28Z</time><name>PT11061</name></trkpt>
<trkpt lat="53.367794" lon="-1.663466"><ele>447</ele><time>2020-05-21T13:05:29Z</time><name>PT11062</name></trkpt>
<trkpt lat="53.367790" lon="-1.663454"><ele>447</ele><time>2020-05-21T13:05:30Z</time><name>PT11063</name></trkpt>
<trkpt lat="53.367780" lon="-1.663439"><ele>447</ele><time>2020-05-21T13:05:31Z</time><name>PT11064</name></trkpt>
<trkpt lat="53.367771" lon="-1.663425"><ele>446</ele><time>2020-05-21T13:05:32Z</time><name>PT11065</name></trkpt>
<trkpt lat="53.367763" lon="-1.663414"><ele>447</ele><time>2020-05-21T13:05:33Z</time><name>PT11066</name></trkpt>
<trkpt lat="53.367756" lon="-1.663398"><ele>447</ele><time>2020-05-21T13:05:34Z</time><name>PT11067</name></trkpt>
<trkpt lat="53.367752" lon="-1.663382"><ele>447</ele><time>2020-05-21T13:05:35Z</time><name>PT11068</name></trkpt>
<trkpt lat="53.367743" lon="-1.663374"><ele>447</ele><time>2020-05-21T13:05:36Z</time><name>PT11069</name></trkpt>
<trkpt lat="53.367731" lon="-1.663370"><ele>446</ele><time>2020-05-21T13:05:37Z</time><name>PT11070</name></trkpt>
<trkpt lat="53.367718" lon="-1.663371"><ele>445</ele><time>2020-05-21T13:05:38Z</time><name>PT11071</name></trkpt>
<trkpt lat="53.367706" lon="-1.663359"><ele>445</ele><time>2020-05-21T13:05:39Z</time><name>PT11072</name></trkpt>
<trkpt lat="53.367695" lon="-1.663338"><ele>445</ele><time>2020-05-21T13:05:40Z</time><name>PT11073</name></trkpt>
<trkpt lat="53.367684" lon="-1.663319"><ele>445</ele><time>2020-05-21T13:05:41Z</time><name>PT11074</name></trkpt>
<trkpt lat="53.367678" lon="-1.663310"><ele>445</ele><time>2020-05-21T13:05:42Z</time><name>PT11075</name></trkpt>
<trkpt lat="53.367667" lon="-1.663312"><ele>445</ele><time>2020-05-21T13:05:43Z</time><name>PT11076</name></trkpt>
<trkpt lat="53.367650" lon="-1.663302"><ele>445</ele><time>2020-05-21T13:05:44Z</time><name>PT11077</name></trkpt>
<trkpt lat="53.367635" lon="-1.663301"><ele>445</ele><time>2020-05-21T13:05:45Z</time><name>PT11078</name></trkpt>
<trkpt lat="53.367623" lon="-1.663306"><ele>446</ele><time>2020-05-21T13:05:46Z</time><name>PT11079</name></trkpt>
<trkpt lat="53.367611" lon="-1.663314"><ele>446</ele><time>2020-05-21T13:05:47Z</time><name>PT11080</name></trkpt>
<trkpt lat="53.367601" lon="-1.663326"><ele>446</ele><time>2020-05-21T13:05:48Z</time><name>PT11081</name></trkpt>
<trkpt lat="53.367594" lon="-1.663340"><ele>446</ele><time>2020-05-21T13:05:49Z</time><name>PT11082</name></trkpt>
<trkpt lat="53.367586" lon="-1.663350"><ele>446</ele><time>2020-05-21T13:05:50Z</time><name>PT11083</name></trkpt>
<trkpt lat="53.367578" lon="-1.663370"><ele>446</ele><time>2020-05-21T13:05:51Z</time><name>PT11084</name></trkpt>
<trkpt lat="53.367566" lon="-1.663386"><ele>446</ele><time>2020-05-21T13:05:52Z</time><name>PT11085</name></trkpt>
<trkpt lat="53.367552" lon="-1.663405"><ele>447</ele><time>2020-05-21T13:05:53Z</time><name>PT11086</name></trkpt>
<trkpt lat="53.367537" lon="-1.663418"><ele>447</ele><time>2020-05-21T13:05:54Z</time><name>PT11087</name></trkpt>
<trkpt lat="53.367525" lon="-1.663423"><ele>446</ele><time>2020-05-21T13:05:55Z</time><name>PT11088</name></trkpt>
<trkpt lat="53.367519" lon="-1.663430"><ele>447</ele><time>2020-05-21T13:05:56Z</time><name>PT11089</name></trkpt>
<trkpt lat="53.367511" lon="-1.663435"><ele>446</ele><time>2020-05-21T13:05:57Z</time><name>PT11090</name></trkpt>
<trkpt lat="53.367500" lon="-1.663440"><ele>446</ele><time>2020-05-21T13:05:58Z</time><name>PT11091</name></trkpt>
<trkpt lat="53.367486" lon="-1.663454"><ele>446</ele><time>2020-05-21T13:05:59Z</time><name>PT11092</name></trkpt>
<trkpt lat="53.367470" lon="-1.663463"><ele>447</ele><time>2020-05-21T13:06:00Z</time><name>PT11093</name></trkpt>
<trkpt lat="53.367456" lon="-1.663468"><ele>447</ele><time>2020-05-21T13:06:01Z</time><name>PT11094</name></trkpt>
<trkpt lat="53.367449" lon="-1.663470"><ele>447</ele><time>2020-05-21T13:06:02Z</time><name>PT11095</name></trkpt>
<trkpt lat="53.367441" lon="-1.663475"><ele>447</ele><time>2020-05-21T13:06:03Z</time><name>PT11096</name></trkpt>
<trkpt lat="53.367427" lon="-1.663477"><ele>447</ele><time>2020-05-21T13:06:04Z</time><name>PT11097</name></trkpt>
<trkpt lat="53.367414" lon="-1.663493"><ele>448</ele><time>2020-05-21T13:06:05Z</time><name>PT11098</name></trkpt>
<trkpt lat="53.367400" lon="-1.663498"><ele>448</ele><time>2020-05-21T13:06:06Z</time><name>PT11099</name></trkpt>
<trkpt lat="53.367387" lon="-1.663496"><ele>448</ele><time>2020-05-21T13:06:07Z</time><name>PT11100</name></trkpt>
<trkpt lat="53.367378" lon="-1.663496"><ele>448</ele><time>2020-05-21T13:06:08Z</time><name>PT11101</name></trkpt>
<trkpt lat="53.367367" lon="-1.663498"><ele>448</ele><time>2020-05-21T13:06:09Z</time><name>PT11102</name></trkpt>
<trkpt lat="53.367353" lon="-1.663500"><ele>448</ele><time>2020-05-21T13:06:10Z</time><name>PT11103</name></trkpt>
<trkpt lat="53.367338" lon="-1.663499"><ele>448</ele><time>2020-05-21T13:06:11Z</time><name>PT11104</name></trkpt>
<trkpt lat="53.367323" lon="-1.663493"><ele>449</ele><time>2020-05-21T13:06:12Z</time><name>PT11105</name></trkpt>
<trkpt lat="53.367310" lon="-1.663490"><ele>449</ele><time>2020-05-21T13:06:13Z</time><name>PT11106</name></trkpt>
<trkpt lat="53.367301" lon="-1.663489"><ele>449</ele><time>2020-05-21T13:06:14Z</time><name>PT11107</name></trkpt>
<trkpt lat="53.367292" lon="-1.663486"><ele>448</ele><time>2020-05-21T13:06:15Z</time><name>PT11108</name></trkpt>
<trkpt lat="53.367282" lon="-1.663475"><ele>447</ele><time>2020-05-21T13:06:16Z</time><name>PT11109</name></trkpt>
<trkpt lat="53.367269" lon="-1.663469"><ele>447</ele><time>2020-05-21T13:06:17Z</time><name>PT11110</name></trkpt>
<trkpt lat="53.367257" lon="-1.663457"><ele>447</ele><time>2020-05-21T13:06:18Z</time><name>PT11111</name></trkpt>
<trkpt lat="53.367248" lon="-1.663445"><ele>448</ele><time>2020-05-21T13:06:19Z</time><name>PT11112</name></trkpt>
<trkpt lat="53.367243" lon="-1.663441"><ele>447</ele><time>2020-05-21T13:06:20Z</time><name>PT11113</name></trkpt>
<trkpt lat="53.367235" lon="-1.663441"><ele>447</ele><time>2020-05-21T13:06:21Z</time><name>PT11114</name></trkpt>
<trkpt lat="53.367223" lon="-1.663443"><ele>447</ele><time>2020-05-21T13:06:22Z</time><name>PT11115</name></trkpt>
<trkpt lat="53.367209" lon="-1.663439"><ele>447</ele><time>2020-05-21T13:06:23Z</time><name>PT11116</name></trkpt>
<trkpt lat="53.367201" lon="-1.663429"><ele>447</ele><time>2020-05-21T13:06:24Z</time><name>PT11117</name></trkpt>
<trkpt lat="53.367197" lon="-1.663420"><ele>447</ele><time>2020-05-21T13:06:25Z</time><name>PT11118</name></trkpt>
<trkpt lat="53.367191" lon="-1.663414"><ele>447</ele><time>2020-05-21T13:06:26Z</time><name>PT11119</name></trkpt>
<trkpt lat="53.367180" lon="-1.663416"><ele>447</ele><time>2020-05-21T13:06:27Z</time><name>PT11120</name></trkpt>
<trkpt lat="53.367166" lon="-1.663414"><ele>447</ele><time>2020-05-21T13:06:28Z</time><name>PT11121</name></trkpt>
<trkpt lat="53.367157" lon="-1.663410"><ele>447</ele><time>2020-05-21T13:06:29Z</time><name>PT11122</name></trkpt>
<trkpt lat="53.367150" lon="-1.663408"><ele>448</ele><time>2020-05-21T13:06:30Z</time><name>PT11123</name></trkpt>
<trkpt lat="53.367138" lon="-1.663409"><ele>448</ele><time>2020-05-21T13:06:31Z</time><name>PT11124</name></trkpt>
<trkpt lat="53.367124" lon="-1.663406"><ele>448</ele><time>2020-05-21T13:06:32Z</time><name>PT11125</name></trkpt>
<trkpt lat="53.367108" lon="-1.663402"><ele>448</ele><time>2020-05-21T13:06:33Z</time><name>PT11126</name></trkpt>
<trkpt lat="53.367094" lon="-1.663399"><ele>448</ele><time>2020-05-21T13:06:34Z</time><name>PT11127</name></trkpt>
<trkpt lat="53.367085" lon="-1.663397"><ele>448</ele><time>2020-05-21T13:06:35Z</time><name>PT11128</name></trkpt>
<trkpt lat="53.367076" lon="-1.663393"><ele>448</ele><time>2020-05-21T13:06:36Z</time><name>PT11129</name></trkpt>
<trkpt lat="53.367062" lon="-1.663389"><ele>448</ele><time>2020-05-21T13:06:37Z</time><name>PT11130</name></trkpt>
<trkpt lat="53.367047" lon="-1.663381"><ele>448</ele><time>2020-05-21T13:06:38Z</time><name>PT11131</name></trkpt>
<trkpt lat="53.367032" lon="-1.663373"><ele>449</ele><time>2020-05-21T13:06:39Z</time><name>PT11132</name></trkpt>
<trkpt lat="53.367025" lon="-1.663362"><ele>448</ele><time>2020-05-21T13:06:40Z</time><name>PT11133</name></trkpt>
<trkpt lat="53.367018" lon="-1.663359"><ele>448</ele><time>2020-05-21T13:06:41Z</time><name>PT11134</name></trkpt>
<trkpt lat="53.367009" lon="-1.663344"><ele>448</ele><time>2020-05-21T13:06:42Z</time><name>PT11135</name></trkpt>
<trkpt lat="53.367000" lon="-1.663324"><ele>448</ele><time>2020-05-21T13:06:43Z</time><name>PT11136</name></trkpt>
<trkpt lat="53.366986" lon="-1.663315"><ele>449</ele><time>2020-05-21T13:06:44Z</time><name>PT11137</name></trkpt>
<trkpt lat="53.366976" lon="-1.663311"><ele>449</ele><time>2020-05-21T13:06:45Z</time><name>PT11138</name></trkpt>
<trkpt lat="53.366970" lon="-1.663304"><ele>449</ele><time>2020-05-21T13:06:46Z</time><name>PT11139</name></trkpt>
<trkpt lat="53.366962" lon="-1.663295"><ele>448</ele><time>2020-05-21T13:06:47Z</time><name>PT11140</name></trkpt>
<trkpt lat="53.366949" lon="-1.663285"><ele>448</ele><time>2020-05-21T13:06:48Z</time><name>PT11141</name></trkpt>
<trkpt lat="53.366933" lon="-1.663280"><ele>448</ele><time>2020-05-21T13:06:49Z</time><name>PT11142</name></trkpt>
<trkpt lat="53.366914" lon="-1.663273"><ele>448</ele><time>2020-05-21T13:06:50Z</time><name>PT11143</name></trkpt>
<trkpt lat="53.366901" lon="-1.663266"><ele>448</ele><time>2020-05-21T13:06:51Z</time><name>PT11144</name></trkpt>
<trkpt lat="53.366893" lon="-1.663259"><ele>448</ele><time>2020-05-21T13:06:52Z</time><name>PT11145</name></trkpt>
<trkpt lat="53.366881" lon="-1.663249"><ele>447</ele><time>2020-05-21T13:06:53Z</time><name>PT11146</name></trkpt>
<trkpt lat="53.366872" lon="-1.663262"><ele>448</ele><time>2020-05-21T13:06:54Z</time><name>PT11147</name></trkpt>
<trkpt lat="53.366859" lon="-1.663263"><ele>448</ele><time>2020-05-21T13:06:55Z</time><name>PT11148</name></trkpt>
<trkpt lat="53.366842" lon="-1.663262"><ele>448</ele><time>2020-05-21T13:06:56Z</time><name>PT11149</name></trkpt>
<trkpt lat="53.366828" lon="-1.663259"><ele>449</ele><time>2020-05-21T13:06:57Z</time><name>PT11150</name></trkpt>
<trkpt lat="53.366818" lon="-1.663259"><ele>449</ele><time>2020-05-21T13:06:58Z</time><name>PT11151</name></trkpt>
<trkpt lat="53.366808" lon="-1.663258"><ele>450</ele><time>2020-05-21T13:06:59Z</time><name>PT11152</name></trkpt>
<trkpt lat="53.366793" lon="-1.663246"><ele>449</ele><time>2020-05-21T13:07:00Z</time><name>PT11153</name></trkpt>
<trkpt lat="53.366777" lon="-1.663236"><ele>448</ele><time>2020-05-21T13:07:01Z</time><name>PT11154</name></trkpt>
<trkpt lat="53.366760" lon="-1.663231"><ele>448</ele><time>2020-05-21T13:07:02Z</time><name>PT11155</name></trkpt>
<trkpt lat="53.366748" lon="-1.663226"><ele>448</ele><time>2020-05-21T13:07:03Z</time><name>PT11156</name></trkpt>
<trkpt lat="53.366740" lon="-1.663222"><ele>449</ele><time>2020-05-21T13:07:04Z</time><name>PT11157</name></trkpt>
<trkpt lat="53.366731" lon="-1.663222"><ele>448</ele><time>2020-05-21T13:07:05Z</time><name>PT11158</name></trkpt>
<trkpt lat="53.366719" lon="-1.663216"><ele>448</ele><time>2020-05-21T13:07:06Z</time><name>PT11159</name></trkpt>
<trkpt lat="53.366707" lon="-1.663202"><ele>448</ele><time>2020-05-21T13:07:07Z</time><name>PT11160</name></trkpt>
<trkpt lat="53.366692" lon="-1.663189"><ele>448</ele><time>2020-05-21T13:07:08Z</time><name>PT11161</name></trkpt>
<trkpt lat="53.366682" lon="-1.663175"><ele>448</ele><time>2020-05-21T13:07:09Z</time><name>PT11162</name></trkpt>
<trkpt lat="53.366672" lon="-1.663169"><ele>448</ele><time>2020-05-21T13:07:10Z</time><name>PT11163</name></trkpt>
<trkpt lat="53.366660" lon="-1.663165"><ele>448</ele><time>2020-05-21T13:07:11Z</time><name>PT11164</name></trkpt>
<trkpt lat="53.366645" lon="-1.663159"><ele>448</ele><time>2020-05-21T13:07:12Z</time><name>PT11165</name></trkpt>
<trkpt lat="53.366628" lon="-1.663145"><ele>448</ele><time>2020-05-21T13:07:13Z</time><name>PT11166</name></trkpt>
<trkpt lat="53.366615" lon="-1.663133"><ele>447</ele><time>2020-05-21T13:07:14Z</time><name>PT11167</name></trkpt>
<trkpt lat="53.366607" lon="-1.663126"><ele>447</ele><time>2020-05-21T13:07:15Z</time><name>PT11168</name></trkpt>
<trkpt lat="53.366599" lon="-1.663119"><ele>448</ele><time>2020-05-21T13:07:16Z</time><name>PT11169</name></trkpt>
<trkpt lat="53.366589" lon="-1.663107"><ele>448</ele><time>2020-05-21T13:07:17Z</time><name>PT11170</name></trkpt>
<trkpt lat="53.366577" lon="-1.663092"><ele>448</ele><time>2020-05-21T13:07:18Z</time><name>PT11171</name></trkpt>
<trkpt lat="53.366562" lon="-1.663079"><ele>448</ele><time>2020-05-21T13:07:19Z</time><name>PT11172</name></trkpt>
<trkpt lat="53.366550" lon="-1.663070"><ele>449</ele><time>2020-05-21T13:07:20Z</time><name>PT11173</name></trkpt>
<trkpt lat="53.366544" lon="-1.663063"><ele>449</ele><time>2020-05-21T13:07:21Z</time><name>PT11174</name></trkpt>
<trkpt lat="53.366538" lon="-1.663054"><ele>449</ele><time>2020-05-21T13:07:22Z</time><name>PT11175</name></trkpt>
<trkpt lat="53.366531" lon="-1.663045"><ele>449</ele><time>2020-05-21T13:07:23Z</time><name>PT11176</name></trkpt>
<trkpt lat="53.366519" lon="-1.663032"><ele>449</ele><time>2020-05-21T13:07:24Z</time><name>PT11177</name></trkpt>
<trkpt lat="53.366508" lon="-1.663015"><ele>449</ele><time>2020-05-21T13:07:25Z</time><name>PT11178</name></trkpt>
<trkpt lat="53.366497" lon="-1.662997"><ele>449</ele><time>2020-05-21T13:07:26Z</time><name>PT11179</name></trkpt>
<trkpt lat="53.366483" lon="-1.662982"><ele>448</ele><time>2020-05-21T13:07:27Z</time><name>PT11180</name></trkpt>
<trkpt lat="53.366473" lon="-1.662971"><ele>448</ele><time>2020-05-21T13:07:28Z</time><name>PT11181</name></trkpt>
<trkpt lat="53.366468" lon="-1.662965"><ele>448</ele><time>2020-05-21T13:07:29Z</time><name>PT11182</name></trkpt>
<trkpt lat="53.366460" lon="-1.662955"><ele>447</ele><time>2020-05-21T13:07:30Z</time><name>PT11183</name></trkpt>
<trkpt lat="53.366451" lon="-1.662945"><ele>447</ele><time>2020-05-21T13:07:31Z</time><name>PT11184</name></trkpt>
<trkpt lat="53.366441" lon="-1.662944"><ele>447</ele><time>2020-05-21T13:07:32Z</time><name>PT11185</name></trkpt>
<trkpt lat="53.366425" lon="-1.662931"><ele>447</ele><time>2020-05-21T13:07:33Z</time><name>PT11186</name></trkpt>
<trkpt lat="53.366414" lon="-1.662917"><ele>446</ele><time>2020-05-21T13:07:34Z</time><name>PT11187</name></trkpt>
<trkpt lat="53.366406" lon="-1.662903"><ele>447</ele><time>2020-05-21T13:07:35Z</time><name>PT11188</name></trkpt>
<trkpt lat="53.366399" lon="-1.662887"><ele>447</ele><time>2020-05-21T13:07:36Z</time><name>PT11189</name></trkpt>
<trkpt lat="53.366391" lon="-1.662875"><ele>447</ele><time>2020-05-21T13:07:37Z</time><name>PT11190</name></trkpt>
<trkpt lat="53.366378" lon="-1.662860"><ele>448</ele><time>2020-05-21T13:07:38Z</time><name>PT11191</name></trkpt>
<trkpt lat="53.366367" lon="-1.662840"><ele>448</ele><time>2020-05-21T13:07:39Z</time><name>PT11192</name></trkpt>
<trkpt lat="53.366354" lon="-1.662822"><ele>448</ele><time>2020-05-21T13:07:40Z</time><name>PT11193</name></trkpt>
<trkpt lat="53.366342" lon="-1.662804"><ele>448</ele><time>2020-05-21T13:07:41Z</time><name>PT11194</name></trkpt>
<trkpt lat="53.366335" lon="-1.662790"><ele>448</ele><time>2020-05-21T13:07:42Z</time><name>PT11195</name></trkpt>
<trkpt lat="53.366328" lon="-1.662781"><ele>448</ele><time>2020-05-21T13:07:43Z</time><name>PT11196</name></trkpt>
<trkpt lat="53.366321" lon="-1.662764"><ele>447</ele><time>2020-05-21T13:07:44Z</time><name>PT11197</name></trkpt>
<trkpt lat="53.366313" lon="-1.662746"><ele>447</ele><time>2020-05-21T13:07:45Z</time><name>PT11198</name></trkpt>
<trkpt lat="53.366305" lon="-1.662728"><ele>447</ele><time>2020-05-21T13:07:46Z</time><name>PT11199</name></trkpt>
<trkpt lat="53.366292" lon="-1.662716"><ele>447</ele><time>2020-05-21T13:07:47Z</time><name>PT11200</name></trkpt>
<trkpt lat="53.366279" lon="-1.662706"><ele>448</ele><time>2020-05-21T13:07:49Z</time><name>PT11201</name></trkpt>
<trkpt lat="53.366272" lon="-1.662695"><ele>448</ele><time>2020-05-21T13:07:49Z</time><name>PT11202</name></trkpt>
<trkpt lat="53.366267" lon="-1.662689"><ele>448</ele><time>2020-05-21T13:07:50Z</time><name>PT11203</name></trkpt>
<trkpt lat="53.366257" lon="-1.662679"><ele>447</ele><time>2020-05-21T13:07:51Z</time><name>PT11204</name></trkpt>
<trkpt lat="53.366248" lon="-1.662663"><ele>447</ele><time>2020-05-21T13:07:52Z</time><name>PT11205</name></trkpt>
<trkpt lat="53.366237" lon="-1.662652"><ele>448</ele><time>2020-05-21T13:07:53Z</time><name>PT11206</name></trkpt>
<trkpt lat="53.366224" lon="-1.662638"><ele>448</ele><time>2020-05-21T13:07:54Z</time><name>PT11207</name></trkpt>
<trkpt lat="53.366211" lon="-1.662626"><ele>448</ele><time>2020-05-21T13:07:55Z</time><name>PT11208</name></trkpt>
<trkpt lat="53.366202" lon="-1.662613"><ele>449</ele><time>2020-05-21T13:07:56Z</time><name>PT11209</name></trkpt>
<trkpt lat="53.366195" lon="-1.662605"><ele>449</ele><time>2020-05-21T13:07:57Z</time><name>PT11210</name></trkpt>
<trkpt lat="53.366186" lon="-1.662598"><ele>448</ele><time>2020-05-21T13:07:58Z</time><name>PT11211</name></trkpt>
<trkpt lat="53.366179" lon="-1.662583"><ele>449</ele><time>2020-05-21T13:07:59Z</time><name>PT11212</name></trkpt>
<trkpt lat="53.366171" lon="-1.662567"><ele>449</ele><time>2020-05-21T13:08:00Z</time><name>PT11213</name></trkpt>
<trkpt lat="53.366164" lon="-1.662549"><ele>449</ele><time>2020-05-21T13:08:01Z</time><name>PT11214</name></trkpt>
<trkpt lat="53.366156" lon="-1.662536"><ele>450</ele><time>2020-05-21T13:08:02Z</time><name>PT11215</name></trkpt>
<trkpt lat="53.366150" lon="-1.662526"><ele>449</ele><time>2020-05-21T13:08:04Z</time><name>PT11216</name></trkpt>
<trkpt lat="53.366140" lon="-1.662518"><ele>450</ele><time>2020-05-21T13:08:04Z</time><name>PT11217</name></trkpt>
<trkpt lat="53.366132" lon="-1.662502"><ele>449</ele><time>2020-05-21T13:08:05Z</time><name>PT11218</name></trkpt>
<trkpt lat="53.366124" lon="-1.662486"><ele>449</ele><time>2020-05-21T13:08:06Z</time><name>PT11219</name></trkpt>
<trkpt lat="53.366116" lon="-1.662472"><ele>449</ele><time>2020-05-21T13:08:07Z</time><name>PT11220</name></trkpt>
<trkpt lat="53.366110" lon="-1.662453"><ele>449</ele><time>2020-05-21T13:08:08Z</time><name>PT11221</name></trkpt>
<trkpt lat="53.366101" lon="-1.662432"><ele>449</ele><time>2020-05-21T13:08:09Z</time><name>PT11222</name></trkpt>
<trkpt lat="53.366095" lon="-1.662423"><ele>449</ele><time>2020-05-21T13:08:10Z</time><name>PT11223</name></trkpt>
<trkpt lat="53.366091" lon="-1.662406"><ele>448</ele><time>2020-05-21T13:08:11Z</time><name>PT11224</name></trkpt>
<trkpt lat="53.366083" lon="-1.662387"><ele>448</ele><time>2020-05-21T13:08:12Z</time><name>PT11225</name></trkpt>
<trkpt lat="53.366075" lon="-1.662364"><ele>448</ele><time>2020-05-21T13:08:13Z</time><name>PT11226</name></trkpt>
<trkpt lat="53.366066" lon="-1.662339"><ele>448</ele><time>2020-05-21T13:08:14Z</time><name>PT11227</name></trkpt>
<trkpt lat="53.366058" lon="-1.662318"><ele>448</ele><time>2020-05-21T13:08:15Z</time><name>PT11228</name></trkpt>
<trkpt lat="53.366053" lon="-1.662310"><ele>448</ele><time>2020-05-21T13:08:16Z</time><name>PT11229</name></trkpt>
<trkpt lat="53.366044" lon="-1.662299"><ele>448</ele><time>2020-05-21T13:08:17Z</time><name>PT11230</name></trkpt>
<trkpt lat="53.366035" lon="-1.662282"><ele>448</ele><time>2020-05-21T13:08:18Z</time><name>PT11231</name></trkpt>
<trkpt lat="53.366026" lon="-1.662261"><ele>448</ele><time>2020-05-21T13:08:19Z</time><name>PT11232</name></trkpt>
<trkpt lat="53.366013" lon="-1.662247"><ele>449</ele><time>2020-05-21T13:08:20Z</time><name>PT11233</name></trkpt>
<trkpt lat="53.366005" lon="-1.662233"><ele>449</ele><time>2020-05-21T13:08:21Z</time><name>PT11234</name></trkpt>
<trkpt lat="53.366001" lon="-1.662224"><ele>449</ele><time>2020-05-21T13:08:22Z</time><name>PT11235</name></trkpt>
<trkpt lat="53.365996" lon="-1.662215"><ele>449</ele><time>2020-05-21T13:08:23Z</time><name>PT11236</name></trkpt>
<trkpt lat="53.365990" lon="-1.662205"><ele>449</ele><time>2020-05-21T13:08:24Z</time><name>PT11237</name></trkpt>
<trkpt lat="53.365983" lon="-1.662189"><ele>450</ele><time>2020-05-21T13:08:25Z</time><name>PT11238</name></trkpt>
<trkpt lat="53.365973" lon="-1.662175"><ele>450</ele><time>2020-05-21T13:08:26Z</time><name>PT11239</name></trkpt>
<trkpt lat="53.365961" lon="-1.662161"><ele>450</ele><time>2020-05-21T13:08:27Z</time><name>PT11240</name></trkpt>
<trkpt lat="53.365952" lon="-1.662145"><ele>450</ele><time>2020-05-21T13:08:28Z</time><name>PT11241</name></trkpt>
<trkpt lat="53.365942" lon="-1.662132"><ele>450</ele><time>2020-05-21T13:08:29Z</time><name>PT11242</name></trkpt>
<trkpt lat="53.365936" lon="-1.662123"><ele>450</ele><time>2020-05-21T13:08:30Z</time><name>PT11243</name></trkpt>
<trkpt lat="53.365929" lon="-1.662115"><ele>450</ele><time>2020-05-21T13:08:31Z</time><name>PT11244</name></trkpt>
<trkpt lat="53.365921" lon="-1.662097"><ele>450</ele><time>2020-05-21T13:08:32Z</time><name>PT11245</name></trkpt>
<trkpt lat="53.365912" lon="-1.662075"><ele>450</ele><time>2020-05-21T13:08:33Z</time><name>PT11246</name></trkpt>
<trkpt lat="53.365905" lon="-1.662047"><ele>450</ele><time>2020-05-21T13:08:34Z</time><name>PT11247</name></trkpt>
<trkpt lat="53.365901" lon="-1.662028"><ele>450</ele><time>2020-05-21T13:08:35Z</time><name>PT11248</name></trkpt>
<trkpt lat="53.365898" lon="-1.662017"><ele>450</ele><time>2020-05-21T13:08:36Z</time><name>PT11249</name></trkpt>
<trkpt lat="53.365895" lon="-1.661995"><ele>450</ele><time>2020-05-21T13:08:37Z</time><name>PT11250</name></trkpt>
<trkpt lat="53.365890" lon="-1.661971"><ele>450</ele><time>2020-05-21T13:08:38Z</time><name>PT11251</name></trkpt>
<trkpt lat="53.365885" lon="-1.661945"><ele>451</ele><time>2020-05-21T13:08:39Z</time><name>PT11252</name></trkpt>
<trkpt lat="53.365881" lon="-1.661919"><ele>451</ele><time>2020-05-21T13:08:40Z</time><name>PT11253</name></trkpt>
<trkpt lat="53.365878" lon="-1.661904"><ele>451</ele><time>2020-05-21T13:08:41Z</time><name>PT11254</name></trkpt>
<trkpt lat="53.365874" lon="-1.661892"><ele>451</ele><time>2020-05-21T13:08:42Z</time><name>PT11255</name></trkpt>
<trkpt lat="53.365868" lon="-1.661876"><ele>450</ele><time>2020-05-21T13:08:43Z</time><name>PT11256</name></trkpt>
<trkpt lat="53.365863" lon="-1.661853"><ele>450</ele><time>2020-05-21T13:08:44Z</time><name>PT11257</name></trkpt>
<trkpt lat="53.365855" lon="-1.661826"><ele>450</ele><time>2020-05-21T13:08:45Z</time><name>PT11258</name></trkpt>
<trkpt lat="53.365852" lon="-1.661806"><ele>450</ele><time>2020-05-21T13:08:46Z</time><name>PT11259</name></trkpt>
<trkpt lat="53.365850" lon="-1.661794"><ele>450</ele><time>2020-05-21T13:08:47Z</time><name>PT11260</name></trkpt>
<trkpt lat="53.365850" lon="-1.661774"><ele>449</ele><time>2020-05-21T13:08:48Z</time><name>PT11261</name></trkpt>
<trkpt lat="53.365850" lon="-1.661754"><ele>449</ele><time>2020-05-21T13:08:49Z</time><name>PT11262</name></trkpt>
<trkpt lat="53.365849" lon="-1.661723"><ele>450</ele><time>2020-05-21T13:08:50Z</time><name>PT11263</name></trkpt>
<trkpt lat="53.365843" lon="-1.661694"><ele>450</ele><time>2020-05-21T13:08:51Z</time><name>PT11264</name></trkpt>
<trkpt lat="53.365839" lon="-1.661673"><ele>450</ele><time>2020-05-21T13:08:52Z</time><name>PT11265</name></trkpt>
<trkpt lat="53.365837" lon="-1.661658"><ele>450</ele><time>2020-05-21T13:08:53Z</time><name>PT11266</name></trkpt>
<trkpt lat="53.365832" lon="-1.661640"><ele>449</ele><time>2020-05-21T13:08:54Z</time><name>PT11267</name></trkpt>
<trkpt lat="53.365829" lon="-1.661619"><ele>449</ele><time>2020-05-21T13:08:55Z</time><name>PT11268</name></trkpt>
<trkpt lat="53.365821" lon="-1.661591"><ele>449</ele><time>2020-05-21T13:08:56Z</time><name>PT11269</name></trkpt>
<trkpt lat="53.365816" lon="-1.661569"><ele>449</ele><time>2020-05-21T13:08:57Z</time><name>PT11270</name></trkpt>
<trkpt lat="53.365809" lon="-1.661552"><ele>449</ele><time>2020-05-21T13:08:58Z</time><name>PT11271</name></trkpt>
<trkpt lat="53.365803" lon="-1.661545"><ele>449</ele><time>2020-05-21T13:08:59Z</time><name>PT11272</name></trkpt>
<trkpt lat="53.365797" lon="-1.661532"><ele>449</ele><time>2020-05-21T13:09:00Z</time><name>PT11273</name></trkpt>
<trkpt lat="53.365791" lon="-1.661519"><ele>451</ele><time>2020-05-21T13:09:01Z</time><name>PT11274</name></trkpt>
<trkpt lat="53.365782" lon="-1.661502"><ele>451</ele><time>2020-05-21T13:09:02Z</time><name>PT11275</name></trkpt>
<trkpt lat="53.365772" lon="-1.661484"><ele>451</ele><time>2020-05-21T13:09:03Z</time><name>PT11276</name></trkpt>
<trkpt lat="53.365766" lon="-1.661459"><ele>451</ele><time>2020-05-21T13:09:04Z</time><name>PT11277</name></trkpt>
<trkpt lat="53.365762" lon="-1.661445"><ele>452</ele><time>2020-05-21T13:09:05Z</time><name>PT11278</name></trkpt>
<trkpt lat="53.365759" lon="-1.661432"><ele>452</ele><time>2020-05-21T13:09:06Z</time><name>PT11279</name></trkpt>
<trkpt lat="53.365752" lon="-1.661421"><ele>451</ele><time>2020-05-21T13:09:07Z</time><name>PT11280</name></trkpt>
<trkpt lat="53.365745" lon="-1.661408"><ele>451</ele><time>2020-05-21T13:09:08Z</time><name>PT11281</name></trkpt>
<trkpt lat="53.365735" lon="-1.661389"><ele>451</ele><time>2020-05-21T13:09:09Z</time><name>PT11282</name></trkpt>
<trkpt lat="53.365726" lon="-1.661376"><ele>451</ele><time>2020-05-21T13:09:10Z</time><name>PT11283</name></trkpt>
<trkpt lat="53.365720" lon="-1.661369"><ele>451</ele><time>2020-05-21T13:09:11Z</time><name>PT11284</name></trkpt>
<trkpt lat="53.365706" lon="-1.661361"><ele>450</ele><time>2020-05-21T13:09:12Z</time><name>PT11285</name></trkpt>
<trkpt lat="53.365693" lon="-1.661346"><ele>450</ele><time>2020-05-21T13:09:13Z</time><name>PT11286</name></trkpt>
<trkpt lat="53.365682" lon="-1.661324"><ele>451</ele><time>2020-05-21T13:09:14Z</time><name>PT11287</name></trkpt>
<trkpt lat="53.365672" lon="-1.661306"><ele>451</ele><time>2020-05-21T13:09:16Z</time><name>PT11288</name></trkpt>
<trkpt lat="53.365663" lon="-1.661296"><ele>451</ele><time>2020-05-21T13:09:16Z</time><name>PT11289</name></trkpt>
<trkpt lat="53.365658" lon="-1.661288"><ele>451</ele><time>2020-05-21T13:09:17Z</time><name>PT11290</name></trkpt>
<trkpt lat="53.365651" lon="-1.661276"><ele>451</ele><time>2020-05-21T13:09:18Z</time><name>PT11291</name></trkpt>
<trkpt lat="53.365642" lon="-1.661262"><ele>451</ele><time>2020-05-21T13:09:19Z</time><name>PT11292</name></trkpt>
<trkpt lat="53.365631" lon="-1.661242"><ele>450</ele><time>2020-05-21T13:09:20Z</time><name>PT11293</name></trkpt>
<trkpt lat="53.365623" lon="-1.661229"><ele>450</ele><time>2020-05-21T13:09:21Z</time><name>PT11294</name></trkpt>
<trkpt lat="53.365618" lon="-1.661220"><ele>450</ele><time>2020-05-21T13:09:22Z</time><name>PT11295</name></trkpt>
<trkpt lat="53.365611" lon="-1.661208"><ele>450</ele><time>2020-05-21T13:09:23Z</time><name>PT11296</name></trkpt>
<trkpt lat="53.365601" lon="-1.661196"><ele>450</ele><time>2020-05-21T13:09:24Z</time><name>PT11297</name></trkpt>
<trkpt lat="53.365588" lon="-1.661182"><ele>450</ele><time>2020-05-21T13:09:25Z</time><name>PT11298</name></trkpt>
<trkpt lat="53.365578" lon="-1.661166"><ele>451</ele><time>2020-05-21T13:09:26Z</time><name>PT11299</name></trkpt>
<trkpt lat="53.365567" lon="-1.661150"><ele>451</ele><time>2020-05-21T13:09:27Z</time><name>PT11300</name></trkpt>
<trkpt lat="53.365554" lon="-1.661132"><ele>452</ele><time>2020-05-21T13:09:28Z</time><name>PT11301</name></trkpt>
<trkpt lat="53.365546" lon="-1.661110"><ele>452</ele><time>2020-05-21T13:09:29Z</time><name>PT11302</name></trkpt>
<trkpt lat="53.365541" lon="-1.661088"><ele>452</ele><time>2020-05-21T13:09:30Z</time><name>PT11303</name></trkpt>
<trkpt lat="53.365535" lon="-1.661070"><ele>452</ele><time>2020-05-21T13:09:31Z</time><name>PT11304</name></trkpt>
<trkpt lat="53.365529" lon="-1.661060"><ele>452</ele><time>2020-05-21T13:09:32Z</time><name>PT11305</name></trkpt>
<trkpt lat="53.365525" lon="-1.661046"><ele>453</ele><time>2020-05-21T13:09:33Z</time><name>PT11306</name></trkpt>
<trkpt lat="53.365517" lon="-1.661032"><ele>453</ele><time>2020-05-21T13:09:34Z</time><name>PT11307</name></trkpt>
<trkpt lat="53.365508" lon="-1.661016"><ele>453</ele><time>2020-05-21T13:09:35Z</time><name>PT11308</name></trkpt>
<trkpt lat="53.365498" lon="-1.660995"><ele>453</ele><time>2020-05-21T13:09:36Z</time><name>PT11309</name></trkpt>
<trkpt lat="53.365491" lon="-1.660975"><ele>452</ele><time>2020-05-21T13:09:37Z</time><name>PT11310</name></trkpt>
<trkpt lat="53.365485" lon="-1.660964"><ele>453</ele><time>2020-05-21T13:09:38Z</time><name>PT11311</name></trkpt>
<trkpt lat="53.365480" lon="-1.660955"><ele>453</ele><time>2020-05-21T13:09:39Z</time><name>PT11312</name></trkpt>
<trkpt lat="53.365475" lon="-1.660943"><ele>453</ele><time>2020-05-21T13:09:40Z</time><name>PT11313</name></trkpt>
<trkpt lat="53.365471" lon="-1.660925"><ele>453</ele><time>2020-05-21T13:09:41Z</time><name>PT11314</name></trkpt>
<trkpt lat="53.365463" lon="-1.660908"><ele>453</ele><time>2020-05-21T13:09:42Z</time><name>PT11315</name></trkpt>
<trkpt lat="53.365456" lon="-1.660894"><ele>453</ele><time>2020-05-21T13:09:43Z</time><name>PT11316</name></trkpt>
<trkpt lat="53.365452" lon="-1.660884"><ele>453</ele><time>2020-05-21T13:09:44Z</time><name>PT11317</name></trkpt>
<trkpt lat="53.365446" lon="-1.660873"><ele>453</ele><time>2020-05-21T13:09:45Z</time><name>PT11318</name></trkpt>
<trkpt lat="53.365439" lon="-1.660850"><ele>454</ele><time>2020-05-21T13:09:46Z</time><name>PT11319</name></trkpt>
<trkpt lat="53.365433" lon="-1.660825"><ele>453</ele><time>2020-05-21T13:09:47Z</time><name>PT11320</name></trkpt>
<trkpt lat="53.365430" lon="-1.660809"><ele>453</ele><time>2020-05-21T13:09:48Z</time><name>PT11321</name></trkpt>
<trkpt lat="53.365427" lon="-1.660802"><ele>453</ele><time>2020-05-21T13:09:49Z</time><name>PT11322</name></trkpt>
<trkpt lat="53.365422" lon="-1.660791"><ele>454</ele><time>2020-05-21T13:09:50Z</time><name>PT11323</name></trkpt>
<trkpt lat="53.365414" lon="-1.660777"><ele>454</ele><time>2020-05-21T13:09:51Z</time><name>PT11324</name></trkpt>
<trkpt lat="53.365403" lon="-1.660758"><ele>454</ele><time>2020-05-21T13:09:52Z</time><name>PT11325</name></trkpt>
<trkpt lat="53.365396" lon="-1.660739"><ele>454</ele><time>2020-05-21T13:09:53Z</time><name>PT11326</name></trkpt>
<trkpt lat="53.365393" lon="-1.660730"><ele>455</ele><time>2020-05-21T13:09:54Z</time><name>PT11327</name></trkpt>
<trkpt lat="53.365386" lon="-1.660721"><ele>455</ele><time>2020-05-21T13:09:55Z</time><name>PT11328</name></trkpt>
<trkpt lat="53.365377" lon="-1.660709"><ele>455</ele><time>2020-05-21T13:09:56Z</time><name>PT11329</name></trkpt>
<trkpt lat="53.365363" lon="-1.660693"><ele>455</ele><time>2020-05-21T13:09:57Z</time><name>PT11330</name></trkpt>
<trkpt lat="53.365357" lon="-1.660678"><ele>455</ele><time>2020-05-21T13:09:58Z</time><name>PT11331</name></trkpt>
<trkpt lat="53.365351" lon="-1.660672"><ele>455</ele><time>2020-05-21T13:09:59Z</time><name>PT11332</name></trkpt>
<trkpt lat="53.365339" lon="-1.660664"><ele>455</ele><time>2020-05-21T13:10:00Z</time><name>PT11333</name></trkpt>
<trkpt lat="53.365330" lon="-1.660649"><ele>455</ele><time>2020-05-21T13:10:01Z</time><name>PT11334</name></trkpt>
<trkpt lat="53.365324" lon="-1.660633"><ele>455</ele><time>2020-05-21T13:10:02Z</time><name>PT11335</name></trkpt>
<trkpt lat="53.365320" lon="-1.660621"><ele>455</ele><time>2020-05-21T13:10:03Z</time><name>PT11336</name></trkpt>
<trkpt lat="53.365320" lon="-1.660606"><ele>455</ele><time>2020-05-21T13:10:04Z</time><name>PT11337</name></trkpt>
<trkpt lat="53.365315" lon="-1.660598"><ele>455</ele><time>2020-05-21T13:10:05Z</time><name>PT11338</name></trkpt>
<trkpt lat="53.365303" lon="-1.660583"><ele>455</ele><time>2020-05-21T13:10:06Z</time><name>PT11339</name></trkpt>
<trkpt lat="53.365286" lon="-1.660577"><ele>455</ele><time>2020-05-21T13:10:07Z</time><name>PT11340</name></trkpt>
<trkpt lat="53.365270" lon="-1.660567"><ele>455</ele><time>2020-05-21T13:10:08Z</time><name>PT11341</name></trkpt>
<trkpt lat="53.365256" lon="-1.660559"><ele>456</ele><time>2020-05-21T13:10:09Z</time><name>PT11342</name></trkpt>
<trkpt lat="53.365242" lon="-1.660553"><ele>456</ele><time>2020-05-21T13:10:10Z</time><name>PT11343</name></trkpt>
<trkpt lat="53.365235" lon="-1.660548"><ele>456</ele><time>2020-05-21T13:10:11Z</time><name>PT11344</name></trkpt>
<trkpt lat="53.365230" lon="-1.660542"><ele>456</ele><time>2020-05-21T13:10:12Z</time><name>PT11345</name></trkpt>
<trkpt lat="53.365225" lon="-1.660533"><ele>456</ele><time>2020-05-21T13:10:13Z</time><name>PT11346</name></trkpt>
<trkpt lat="53.365220" lon="-1.660505"><ele>456</ele><time>2020-05-21T13:10:14Z</time><name>PT11347</name></trkpt>
<trkpt lat="53.365212" lon="-1.660486"><ele>456</ele><time>2020-05-21T13:10:15Z</time><name>PT11348</name></trkpt>
<trkpt lat="53.365201" lon="-1.660468"><ele>456</ele><time>2020-05-21T13:10:16Z</time><name>PT11349</name></trkpt>
<trkpt lat="53.365187" lon="-1.660448"><ele>457</ele><time>2020-05-21T13:10:17Z</time><name>PT11350</name></trkpt>
<trkpt lat="53.365176" lon="-1.660431"><ele>457</ele><time>2020-05-21T13:10:18Z</time><name>PT11351</name></trkpt>
<trkpt lat="53.365167" lon="-1.660423"><ele>457</ele><time>2020-05-21T13:10:19Z</time><name>PT11352</name></trkpt>
<trkpt lat="53.365159" lon="-1.660417"><ele>457</ele><time>2020-05-21T13:10:20Z</time><name>PT11353</name></trkpt>
<trkpt lat="53.365149" lon="-1.660403"><ele>457</ele><time>2020-05-21T13:10:21Z</time><name>PT11354</name></trkpt>
<trkpt lat="53.365139" lon="-1.660387"><ele>456</ele><time>2020-05-21T13:10:22Z</time><name>PT11355</name></trkpt>
<trkpt lat="53.365126" lon="-1.660366"><ele>456</ele><time>2020-05-21T13:10:23Z</time><name>PT11356</name></trkpt>
<trkpt lat="53.365115" lon="-1.660349"><ele>456</ele><time>2020-05-21T13:10:24Z</time><name>PT11357</name></trkpt>
<trkpt lat="53.365104" lon="-1.660331"><ele>456</ele><time>2020-05-21T13:10:25Z</time><name>PT11358</name></trkpt>
<trkpt lat="53.365092" lon="-1.660318"><ele>457</ele><time>2020-05-21T13:10:26Z</time><name>PT11359</name></trkpt>
<trkpt lat="53.365086" lon="-1.660310"><ele>457</ele><time>2020-05-21T13:10:27Z</time><name>PT11360</name></trkpt>
<trkpt lat="53.365081" lon="-1.660301"><ele>457</ele><time>2020-05-21T13:10:28Z</time><name>PT11361</name></trkpt>
<trkpt lat="53.365065" lon="-1.660301"><ele>456</ele><time>2020-05-21T13:10:29Z</time><name>PT11362</name></trkpt>
<trkpt lat="53.365052" lon="-1.660290"><ele>456</ele><time>2020-05-21T13:10:30Z</time><name>PT11363</name></trkpt>
<trkpt lat="53.365038" lon="-1.660276"><ele>456</ele><time>2020-05-21T13:10:31Z</time><name>PT11364</name></trkpt>
<trkpt lat="53.365028" lon="-1.660260"><ele>456</ele><time>2020-05-21T13:10:32Z</time><name>PT11365</name></trkpt>
<trkpt lat="53.365023" lon="-1.660247"><ele>456</ele><time>2020-05-21T13:10:33Z</time><name>PT11366</name></trkpt>
<trkpt lat="53.365019" lon="-1.660235"><ele>456</ele><time>2020-05-21T13:10:34Z</time><name>PT11367</name></trkpt>
<trkpt lat="53.365017" lon="-1.660219"><ele>457</ele><time>2020-05-21T13:10:35Z</time><name>PT11368</name></trkpt>
<trkpt lat="53.365014" lon="-1.660198"><ele>457</ele><time>2020-05-21T13:10:36Z</time><name>PT11369</name></trkpt>
<trkpt lat="53.365007" lon="-1.660173"><ele>457</ele><time>2020-05-21T13:10:37Z</time><name>PT11370</name></trkpt>
<trkpt lat="53.365000" lon="-1.660149"><ele>457</ele><time>2020-05-21T13:10:38Z</time><name>PT11371</name></trkpt>
<trkpt lat="53.364998" lon="-1.660130"><ele>456</ele><time>2020-05-21T13:10:39Z</time><name>PT11372</name></trkpt>
<trkpt lat="53.364996" lon="-1.660118"><ele>457</ele><time>2020-05-21T13:10:40Z</time><name>PT11373</name></trkpt>
<trkpt lat="53.364992" lon="-1.660101"><ele>457</ele><time>2020-05-21T13:10:41Z</time><name>PT11374</name></trkpt>
<trkpt lat="53.364987" lon="-1.660080"><ele>458</ele><time>2020-05-21T13:10:42Z</time><name>PT11375</name></trkpt>
<trkpt lat="53.364982" lon="-1.660060"><ele>458</ele><time>2020-05-21T13:10:43Z</time><name>PT11376</name></trkpt>
<trkpt lat="53.364979" lon="-1.660037"><ele>458</ele><time>2020-05-21T13:10:44Z</time><name>PT11377</name></trkpt>
<trkpt lat="53.364975" lon="-1.660020"><ele>458</ele><time>2020-05-21T13:10:45Z</time><name>PT11378</name></trkpt>
<trkpt lat="53.364972" lon="-1.660009"><ele>458</ele><time>2020-05-21T13:10:46Z</time><name>PT11379</name></trkpt>
<trkpt lat="53.364971" lon="-1.659996"><ele>458</ele><time>2020-05-21T13:10:47Z</time><name>PT11380</name></trkpt>
<trkpt lat="53.364965" lon="-1.659980"><ele>458</ele><time>2020-05-21T13:10:48Z</time><name>PT11381</name></trkpt>
<trkpt lat="53.364958" lon="-1.659964"><ele>458</ele><time>2020-05-21T13:10:49Z</time><name>PT11382</name></trkpt>
<trkpt lat="53.364948" lon="-1.659946"><ele>458</ele><time>2020-05-21T13:10:50Z</time><name>PT11383</name></trkpt>
<trkpt lat="53.364941" lon="-1.659922"><ele>458</ele><time>2020-05-21T13:10:51Z</time><name>PT11384</name></trkpt>
<trkpt lat="53.364936" lon="-1.659904"><ele>457</ele><time>2020-05-21T13:10:52Z</time><name>PT11385</name></trkpt>
<trkpt lat="53.364932" lon="-1.659893"><ele>457</ele><time>2020-05-21T13:10:53Z</time><name>PT11386</name></trkpt>
<trkpt lat="53.364931" lon="-1.659880"><ele>457</ele><time>2020-05-21T13:10:54Z</time><name>PT11387</name></trkpt>
<trkpt lat="53.364925" lon="-1.659864"><ele>457</ele><time>2020-05-21T13:10:55Z</time><name>PT11388</name></trkpt>
<trkpt lat="53.364917" lon="-1.659838"><ele>456</ele><time>2020-05-21T13:10:56Z</time><name>PT11389</name></trkpt>
<trkpt lat="53.364909" lon="-1.659811"><ele>456</ele><time>2020-05-21T13:10:57Z</time><name>PT11390</name></trkpt>
<trkpt lat="53.364898" lon="-1.659784"><ele>456</ele><time>2020-05-21T13:10:58Z</time><name>PT11391</name></trkpt>
<trkpt lat="53.364892" lon="-1.659767"><ele>455</ele><time>2020-05-21T13:10:59Z</time><name>PT11392</name></trkpt>
<trkpt lat="53.364890" lon="-1.659762"><ele>456</ele><time>2020-05-21T13:11:00Z</time><name>PT11393</name></trkpt>
<trkpt lat="53.364884" lon="-1.659753"><ele>456</ele><time>2020-05-21T13:11:01Z</time><name>PT11394</name></trkpt>
<trkpt lat="53.364874" lon="-1.659739"><ele>456</ele><time>2020-05-21T13:11:02Z</time><name>PT11395</name></trkpt>
<trkpt lat="53.364867" lon="-1.659727"><ele>455</ele><time>2020-05-21T13:11:03Z</time><name>PT11396</name></trkpt>
<trkpt lat="53.364863" lon="-1.659718"><ele>456</ele><time>2020-05-21T13:11:04Z</time><name>PT11397</name></trkpt>
<trkpt lat="53.364857" lon="-1.659712"><ele>457</ele><time>2020-05-21T13:11:05Z</time><name>PT11398</name></trkpt>
<trkpt lat="53.364845" lon="-1.659714"><ele>456</ele><time>2020-05-21T13:11:06Z</time><name>PT11399</name></trkpt>
<trkpt lat="53.364839" lon="-1.659714"><ele>456</ele><time>2020-05-21T13:11:07Z</time><name>PT11400</name></trkpt>
<trkpt lat="53.364833" lon="-1.659708"><ele>456</ele><time>2020-05-21T13:11:08Z</time><name>PT11401</name></trkpt>
<trkpt lat="53.364829" lon="-1.659698"><ele>456</ele><time>2020-05-21T13:11:09Z</time><name>PT11402</name></trkpt>
<trkpt lat="53.364824" lon="-1.659690"><ele>457</ele><time>2020-05-21T13:11:10Z</time><name>PT11403</name></trkpt>
<trkpt lat="53.364819" lon="-1.659683"><ele>457</ele><time>2020-05-21T13:11:11Z</time><name>PT11404</name></trkpt>
<trkpt lat="53.364814" lon="-1.659678"><ele>457</ele><time>2020-05-21T13:11:12Z</time><name>PT11405</name></trkpt>
<trkpt lat="53.364806" lon="-1.659675"><ele>457</ele><time>2020-05-21T13:11:13Z</time><name>PT11406</name></trkpt>
<trkpt lat="53.364803" lon="-1.659671"><ele>457</ele><time>2020-05-21T13:11:14Z</time><name>PT11407</name></trkpt>
<trkpt lat="53.364796" lon="-1.659674"><ele>457</ele><time>2020-05-21T13:11:15Z</time><name>PT11408</name></trkpt>
<trkpt lat="53.364789" lon="-1.659676"><ele>457</ele><time>2020-05-21T13:11:16Z</time><name>PT11409</name></trkpt>
<trkpt lat="53.364783" lon="-1.659671"><ele>457</ele><time>2020-05-21T13:11:17Z</time><name>PT11410</name></trkpt>
<trkpt lat="53.364779" lon="-1.659667"><ele>457</ele><time>2020-05-21T13:11:18Z</time><name>PT11411</name></trkpt>
<trkpt lat="53.364776" lon="-1.659661"><ele>457</ele><time>2020-05-21T13:11:19Z</time><name>PT11412</name></trkpt>
<trkpt lat="53.364776" lon="-1.659661"><ele>458</ele><time>2020-05-21T13:11:20Z</time><name>PT11413</name></trkpt>
<trkpt lat="53.364774" lon="-1.659663"><ele>457</ele><time>2020-05-21T13:11:21Z</time><name>PT11414</name></trkpt>
<trkpt lat="53.364773" lon="-1.659666"><ele>457</ele><time>2020-05-21T13:11:22Z</time><name>PT11415</name></trkpt>
<trkpt lat="53.364764" lon="-1.659676"><ele>457</ele><time>2020-05-21T13:11:23Z</time><name>PT11416</name></trkpt>
<trkpt lat="53.364759" lon="-1.659678"><ele>456</ele><time>2020-05-21T13:11:24Z</time><name>PT11417</name></trkpt>
<trkpt lat="53.364759" lon="-1.659681"><ele>456</ele><time>2020-05-21T13:11:25Z</time><name>PT11418</name></trkpt>
<trkpt lat="53.364758" lon="-1.659681"><ele>456</ele><time>2020-05-21T13:11:26Z</time><name>PT11419</name></trkpt>
<trkpt lat="53.364758" lon="-1.659681"><ele>456</ele><time>2020-05-21T13:11:27Z</time><name>PT11420</name></trkpt>
<trkpt lat="53.364758" lon="-1.659681"><ele>456</ele><time>2020-05-21T13:11:28Z</time><name>PT11421</name></trkpt>
<trkpt lat="53.364758" lon="-1.659682"><ele>456</ele><time>2020-05-21T13:11:29Z</time><name>PT11422</name></trkpt>
<trkpt lat="53.364757" lon="-1.659685"><ele>456</ele><time>2020-05-21T13:12:17Z</time><name>PT11423</name></trkpt>
<trkpt lat="53.364753" lon="-1.659677"><ele>456</ele><time>2020-05-21T13:12:18Z</time><name>PT11424</name></trkpt>
<trkpt lat="53.364756" lon="-1.659673"><ele>456</ele><time>2020-05-21T13:12:19Z</time><name>PT11425</name></trkpt>
<trkpt lat="53.364758" lon="-1.659668"><ele>456</ele><time>2020-05-21T13:12:20Z</time><name>PT11426</name></trkpt>
<trkpt lat="53.364758" lon="-1.659661"><ele>456</ele><time>2020-05-21T13:12:21Z</time><name>PT11427</name></trkpt>
<trkpt lat="53.364758" lon="-1.659656"><ele>456</ele><time>2020-05-21T13:12:22Z</time><name>PT11428</name></trkpt>
<trkpt lat="53.364757" lon="-1.659658"><ele>456</ele><time>2020-05-21T13:12:25Z</time><name>PT11429</name></trkpt>
<trkpt lat="53.364753" lon="-1.659655"><ele>456</ele><time>2020-05-21T13:12:26Z</time><name>PT11430</name></trkpt>
<trkpt lat="53.364748" lon="-1.659657"><ele>456</ele><time>2020-05-21T13:12:27Z</time><name>PT11431</name></trkpt>
<trkpt lat="53.364747" lon="-1.659654"><ele>456</ele><time>2020-05-21T13:12:28Z</time><name>PT11432</name></trkpt>
<trkpt lat="53.364746" lon="-1.659652"><ele>456</ele><time>2020-05-21T13:12:29Z</time><name>PT11433</name></trkpt>
<trkpt lat="53.364745" lon="-1.659655"><ele>456</ele><time>2020-05-21T13:12:30Z</time><name>PT11434</name></trkpt>
<trkpt lat="53.364742" lon="-1.659660"><ele>456</ele><time>2020-05-21T13:12:31Z</time><name>PT11435</name></trkpt>
<trkpt lat="53.364744" lon="-1.659664"><ele>457</ele><time>2020-05-21T13:12:32Z</time><name>PT11436</name></trkpt>
<trkpt lat="53.364743" lon="-1.659661"><ele>456</ele><time>2020-05-21T13:12:33Z</time><name>PT11437</name></trkpt>
<trkpt lat="53.364742" lon="-1.659662"><ele>456</ele><time>2020-05-21T13:12:34Z</time><name>PT11438</name></trkpt>
<trkpt lat="53.364745" lon="-1.659655"><ele>456</ele><time>2020-05-21T13:13:18Z</time><name>PT11439</name></trkpt>
<trkpt lat="53.364748" lon="-1.659652"><ele>456</ele><time>2020-05-21T13:13:19Z</time><name>PT11440</name></trkpt>
<trkpt lat="53.364752" lon="-1.659645"><ele>455</ele><time>2020-05-21T13:13:48Z</time><name>PT11441</name></trkpt>
<trkpt lat="53.364755" lon="-1.659636"><ele>455</ele><time>2020-05-21T13:13:49Z</time><name>PT11442</name></trkpt>
<trkpt lat="53.364759" lon="-1.659633"><ele>454</ele><time>2020-05-21T13:13:50Z</time><name>PT11443</name></trkpt>
<trkpt lat="53.364760" lon="-1.659632"><ele>454</ele><time>2020-05-21T13:13:51Z</time><name>PT11444</name></trkpt>
<trkpt lat="53.364767" lon="-1.659624"><ele>454</ele><time>2020-05-21T13:13:52Z</time><name>PT11445</name></trkpt>
<trkpt lat="53.364768" lon="-1.659624"><ele>455</ele><time>2020-05-21T13:13:53Z</time><name>PT11446</name></trkpt>
<trkpt lat="53.364760" lon="-1.659614"><ele>456</ele><time>2020-05-21T13:16:53Z</time><name>PT11447</name></trkpt>
<trkpt lat="53.364759" lon="-1.659610"><ele>456</ele><time>2020-05-21T13:16:54Z</time><name>PT11448</name></trkpt>
<trkpt lat="53.364761" lon="-1.659611"><ele>456</ele><time>2020-05-21T13:16:55Z</time><name>PT11449</name></trkpt>
<trkpt lat="53.364761" lon="-1.659615"><ele>456</ele><time>2020-05-21T13:17:16Z</time><name>PT11450</name></trkpt>
<trkpt lat="53.364760" lon="-1.659619"><ele>457</ele><time>2020-05-21T13:17:17Z</time><name>PT11451</name></trkpt>
<trkpt lat="53.364758" lon="-1.659626"><ele>457</ele><time>2020-05-21T13:17:18Z</time><name>PT11452</name></trkpt>
<trkpt lat="53.364762" lon="-1.659624"><ele>456</ele><time>2020-05-21T13:17:20Z</time><name>PT11453</name></trkpt>
<trkpt lat="53.364759" lon="-1.659614"><ele>456</ele><time>2020-05-21T13:17:21Z</time><name>PT11454</name></trkpt>
<trkpt lat="53.364760" lon="-1.659611"><ele>456</ele><time>2020-05-21T13:17:22Z</time><name>PT11455</name></trkpt>
<trkpt lat="53.364763" lon="-1.659604"><ele>456</ele><time>2020-05-21T13:17:23Z</time><name>PT11456</name></trkpt>
<trkpt lat="53.364765" lon="-1.659598"><ele>456</ele><time>2020-05-21T13:17:24Z</time><name>PT11457</name></trkpt>
<trkpt lat="53.364764" lon="-1.659595"><ele>456</ele><time>2020-05-21T13:17:27Z</time><name>PT11458</name></trkpt>
<trkpt lat="53.364766" lon="-1.659597"><ele>456</ele><time>2020-05-21T13:17:28Z</time><name>PT11459</name></trkpt>
<trkpt lat="53.364766" lon="-1.659596"><ele>456</ele><time>2020-05-21T13:17:29Z</time><name>PT11460</name></trkpt>
<trkpt lat="53.364768" lon="-1.659595"><ele>455</ele><time>2020-05-21T13:17:30Z</time><name>PT11461</name></trkpt>
<trkpt lat="53.364769" lon="-1.659600"><ele>456</ele><time>2020-05-21T13:17:31Z</time><name>PT11462</name></trkpt>
<trkpt lat="53.364768" lon="-1.659605"><ele>456</ele><time>2020-05-21T13:18:22Z</time><name>PT11463</name></trkpt>
<trkpt lat="53.364767" lon="-1.659603"><ele>455</ele><time>2020-05-21T13:18:23Z</time><name>PT11464</name></trkpt>
<trkpt lat="53.364767" lon="-1.659603"><ele>455</ele><time>2020-05-21T13:18:24Z</time><name>PT11465</name></trkpt>
<trkpt lat="53.364767" lon="-1.659599"><ele>455</ele><time>2020-05-21T13:18:25Z</time><name>PT11466</name></trkpt>
<trkpt lat="53.364769" lon="-1.659603"><ele>456</ele><time>2020-05-21T13:20:22Z</time><name>PT11467</name></trkpt>
<trkpt lat="53.364772" lon="-1.659600"><ele>456</ele><time>2020-05-21T13:20:23Z</time><name>PT11468</name></trkpt>
<trkpt lat="53.364774" lon="-1.659603"><ele>456</ele><time>2020-05-21T13:20:32Z</time><name>PT11469</name></trkpt>
<trkpt lat="53.364781" lon="-1.659609"><ele>455</ele><time>2020-05-21T13:20:33Z</time><name>PT11470</name></trkpt>
<trkpt lat="53.364779" lon="-1.659609"><ele>456</ele><time>2020-05-21T13:20:34Z</time><name>PT11471</name></trkpt>
<trkpt lat="53.364782" lon="-1.659606"><ele>456</ele><time>2020-05-21T13:20:35Z</time><name>PT11472</name></trkpt>
<trkpt lat="53.364780" lon="-1.659603"><ele>456</ele><time>2020-05-21T13:21:22Z</time><name>PT11473</name></trkpt>
<trkpt lat="53.364781" lon="-1.659593"><ele>456</ele><time>2020-05-21T13:21:23Z</time><name>PT11474</name></trkpt>
<trkpt lat="53.364780" lon="-1.659597"><ele>456</ele><time>2020-05-21T13:22:22Z</time><name>PT11475</name></trkpt>
<trkpt lat="53.364780" lon="-1.659596"><ele>456</ele><time>2020-05-21T13:22:23Z</time><name>PT11476</name></trkpt>
<trkpt lat="53.364781" lon="-1.659595"><ele>456</ele><time>2020-05-21T13:22:24Z</time><name>PT11477</name></trkpt>
<trkpt lat="53.364782" lon="-1.659594"><ele>456</ele><time>2020-05-21T13:22:25Z</time><name>PT11478</name></trkpt>
<trkpt lat="53.364782" lon="-1.659595"><ele>456</ele><time>2020-05-21T13:22:26Z</time><name>PT11479</name></trkpt>
<trkpt lat="53.364782" lon="-1.659598"><ele>457</ele><time>2020-05-21T13:23:49Z</time><name>PT11480</name></trkpt>
<trkpt lat="53.364781" lon="-1.659600"><ele>457</ele><time>2020-05-21T13:23:50Z</time><name>PT11481</name></trkpt>
<trkpt lat="53.364782" lon="-1.659605"><ele>457</ele><time>2020-05-21T13:24:33Z</time><name>PT11482</name></trkpt>
<trkpt lat="53.364782" lon="-1.659610"><ele>457</ele><time>2020-05-21T13:24:34Z</time><name>PT11483</name></trkpt>
<trkpt lat="53.364781" lon="-1.659614"><ele>457</ele><time>2020-05-21T13:24:36Z</time><name>PT11484</name></trkpt>
<trkpt lat="53.364777" lon="-1.659617"><ele>457</ele><time>2020-05-21T13:24:37Z</time><name>PT11485</name></trkpt>
<trkpt lat="53.364775" lon="-1.659618"><ele>457</ele><time>2020-05-21T13:24:38Z</time><name>PT11486</name></trkpt>
<trkpt lat="53.364777" lon="-1.659611"><ele>456</ele><time>2020-05-21T13:24:43Z</time><name>PT11487</name></trkpt>
<trkpt lat="53.364775" lon="-1.659611"><ele>457</ele><time>2020-05-21T13:24:44Z</time><name>PT11488</name></trkpt>
<trkpt lat="53.364778" lon="-1.659600"><ele>456</ele><time>2020-05-21T13:24:45Z</time><name>PT11489</name></trkpt>
<trkpt lat="53.364775" lon="-1.659598"><ele>456</ele><time>2020-05-21T13:25:38Z</time><name>PT11490</name></trkpt>
<trkpt lat="53.364773" lon="-1.659600"><ele>456</ele><time>2020-05-21T13:25:39Z</time><name>PT11491</name></trkpt>
<trkpt lat="53.364770" lon="-1.659596"><ele>456</ele><time>2020-05-21T13:25:40Z</time><name>PT11492</name></trkpt>
<trkpt lat="53.364772" lon="-1.659594"><ele>456</ele><time>2020-05-21T13:25:41Z</time><name>PT11493</name></trkpt>
<trkpt lat="53.364771" lon="-1.659596"><ele>456</ele><time>2020-05-21T13:25:42Z</time><name>PT11494</name></trkpt>
<trkpt lat="53.364769" lon="-1.659602"><ele>456</ele><time>2020-05-21T13:25:43Z</time><name>PT11495</name></trkpt>
<trkpt lat="53.364765" lon="-1.659604"><ele>456</ele><time>2020-05-21T13:25:50Z</time><name>PT11496</name></trkpt>
<trkpt lat="53.364769" lon="-1.659613"><ele>456</ele><time>2020-05-21T13:25:51Z</time><name>PT11497</name></trkpt>
<trkpt lat="53.364772" lon="-1.659631"><ele>456</ele><time>2020-05-21T13:25:52Z</time><name>PT11498</name></trkpt>
<trkpt lat="53.364775" lon="-1.659638"><ele>456</ele><time>2020-05-21T13:25:53Z</time><name>PT11499</name></trkpt>
<trkpt lat="53.364776" lon="-1.659641"><ele>456</ele><time>2020-05-21T13:25:54Z</time><name>PT11500</name></trkpt>
<trkpt lat="53.364776" lon="-1.659643"><ele>456</ele><time>2020-05-21T13:25:55Z</time><name>PT11501</name></trkpt>
<trkpt lat="53.364776" lon="-1.659643"><ele>456</ele><time>2020-05-21T13:25:56Z</time><name>PT11502</name></trkpt>
<trkpt lat="53.364775" lon="-1.659642"><ele>456</ele><time>2020-05-21T13:25:57Z</time><name>PT11503</name></trkpt>
<trkpt lat="53.364771" lon="-1.659639"><ele>456</ele><time>2020-05-21T13:26:21Z</time><name>PT11504</name></trkpt>
<trkpt lat="53.364782" lon="-1.659638"><ele>456</ele><time>2020-05-21T13:26:21Z</time><name>PT11505</name></trkpt>
<trkpt lat="53.364790" lon="-1.659635"><ele>456</ele><time>2020-05-21T13:26:22Z</time><name>PT11506</name></trkpt>
<trkpt lat="53.364794" lon="-1.659637"><ele>456</ele><time>2020-05-21T13:26:23Z</time><name>PT11507</name></trkpt>
<trkpt lat="53.364798" lon="-1.659639"><ele>456</ele><time>2020-05-21T13:26:24Z</time><name>PT11508</name></trkpt>
<trkpt lat="53.364799" lon="-1.659642"><ele>456</ele><time>2020-05-21T13:26:25Z</time><name>PT11509</name></trkpt>
<trkpt lat="53.364800" lon="-1.659643"><ele>457</ele><time>2020-05-21T13:26:26Z</time><name>PT11510</name></trkpt>
<trkpt lat="53.364803" lon="-1.659647"><ele>457</ele><time>2020-05-21T13:26:32Z</time><name>PT11511</name></trkpt>
<trkpt lat="53.364801" lon="-1.659647"><ele>456</ele><time>2020-05-21T13:26:33Z</time><name>PT11512</name></trkpt>
<trkpt lat="53.364802" lon="-1.659650"><ele>456</ele><time>2020-05-21T13:26:34Z</time><name>PT11513</name></trkpt>
<trkpt lat="53.364802" lon="-1.659651"><ele>456</ele><time>2020-05-21T13:26:35Z</time><name>PT11514</name></trkpt>
<trkpt lat="53.364804" lon="-1.659651"><ele>456</ele><time>2020-05-21T13:26:36Z</time><name>PT11515</name></trkpt>
<trkpt lat="53.364804" lon="-1.659656"><ele>456</ele><time>2020-05-21T13:26:40Z</time><name>PT11516</name></trkpt>
<trkpt lat="53.364805" lon="-1.659659"><ele>456</ele><time>2020-05-21T13:26:41Z</time><name>PT11517</name></trkpt>
<trkpt lat="53.364808" lon="-1.659655"><ele>456</ele><time>2020-05-21T13:26:42Z</time><name>PT11518</name></trkpt>
<trkpt lat="53.364815" lon="-1.659645"><ele>456</ele><time>2020-05-21T13:26:43Z</time><name>PT11519</name></trkpt>
<trkpt lat="53.364818" lon="-1.659630"><ele>456</ele><time>2020-05-21T13:26:44Z</time><name>PT11520</name></trkpt>
<trkpt lat="53.364821" lon="-1.659617"><ele>457</ele><time>2020-05-21T13:26:45Z</time><name>PT11521</name></trkpt>
<trkpt lat="53.364823" lon="-1.659602"><ele>457</ele><time>2020-05-21T13:26:46Z</time><name>PT11522</name></trkpt>
<trkpt lat="53.364827" lon="-1.659589"><ele>457</ele><time>2020-05-21T13:26:47Z</time><name>PT11523</name></trkpt>
<trkpt lat="53.364826" lon="-1.659572"><ele>457</ele><time>2020-05-21T13:26:48Z</time><name>PT11524</name></trkpt>
<trkpt lat="53.364827" lon="-1.659560"><ele>457</ele><time>2020-05-21T13:26:49Z</time><name>PT11525</name></trkpt>
<trkpt lat="53.364822" lon="-1.659544"><ele>458</ele><time>2020-05-21T13:26:50Z</time><name>PT11526</name></trkpt>
<trkpt lat="53.364821" lon="-1.659525"><ele>457</ele><time>2020-05-21T13:26:51Z</time><name>PT11527</name></trkpt>
<trkpt lat="53.364822" lon="-1.659515"><ele>458</ele><time>2020-05-21T13:26:52Z</time><name>PT11528</name></trkpt>
<trkpt lat="53.364815" lon="-1.659497"><ele>458</ele><time>2020-05-21T13:26:53Z</time><name>PT11529</name></trkpt>
<trkpt lat="53.364814" lon="-1.659480"><ele>458</ele><time>2020-05-21T13:26:54Z</time><name>PT11530</name></trkpt>
<trkpt lat="53.364808" lon="-1.659464"><ele>458</ele><time>2020-05-21T13:26:55Z</time><name>PT11531</name></trkpt>
<trkpt lat="53.364804" lon="-1.659450"><ele>458</ele><time>2020-05-21T13:26:56Z</time><name>PT11532</name></trkpt>
<trkpt lat="53.364801" lon="-1.659446"><ele>458</ele><time>2020-05-21T13:26:57Z</time><name>PT11533</name></trkpt>
<trkpt lat="53.364794" lon="-1.659433"><ele>458</ele><time>2020-05-21T13:26:58Z</time><name>PT11534</name></trkpt>
<trkpt lat="53.364787" lon="-1.659419"><ele>457</ele><time>2020-05-21T13:26:59Z</time><name>PT11535</name></trkpt>
<trkpt lat="53.364782" lon="-1.659409"><ele>457</ele><time>2020-05-21T13:27:00Z</time><name>PT11536</name></trkpt>
<trkpt lat="53.364775" lon="-1.659396"><ele>457</ele><time>2020-05-21T13:27:01Z</time><name>PT11537</name></trkpt>
<trkpt lat="53.364771" lon="-1.659392"><ele>457</ele><time>2020-05-21T13:27:02Z</time><name>PT11538</name></trkpt>
<trkpt lat="53.364769" lon="-1.659388"><ele>457</ele><time>2020-05-21T13:27:03Z</time><name>PT11539</name></trkpt>
<trkpt lat="53.364765" lon="-1.659386"><ele>458</ele><time>2020-05-21T13:27:04Z</time><name>PT11540</name></trkpt>
<trkpt lat="53.364761" lon="-1.659378"><ele>458</ele><time>2020-05-21T13:27:05Z</time><name>PT11541</name></trkpt>
<trkpt lat="53.364755" lon="-1.659374"><ele>458</ele><time>2020-05-21T13:27:06Z</time><name>PT11542</name></trkpt>
<trkpt lat="53.364750" lon="-1.659369"><ele>457</ele><time>2020-05-21T13:27:07Z</time><name>PT11543</name></trkpt>
<trkpt lat="53.364748" lon="-1.659365"><ele>457</ele><time>2020-05-21T13:27:08Z</time><name>PT11544</name></trkpt>
<trkpt lat="53.364747" lon="-1.659362"><ele>457</ele><time>2020-05-21T13:27:09Z</time><name>PT11545</name></trkpt>
<trkpt lat="53.364743" lon="-1.659353"><ele>456</ele><time>2020-05-21T13:27:11Z</time><name>PT11546</name></trkpt>
<trkpt lat="53.364739" lon="-1.659339"><ele>456</ele><time>2020-05-21T13:27:12Z</time><name>PT11547</name></trkpt>
<trkpt lat="53.364732" lon="-1.659315"><ele>456</ele><time>2020-05-21T13:27:13Z</time><name>PT11548</name></trkpt>
<trkpt lat="53.364726" lon="-1.659294"><ele>457</ele><time>2020-05-21T13:27:14Z</time><name>PT11549</name></trkpt>
<trkpt lat="53.364723" lon="-1.659282"><ele>457</ele><time>2020-05-21T13:27:15Z</time><name>PT11550</name></trkpt>
<trkpt lat="53.364719" lon="-1.659261"><ele>457</ele><time>2020-05-21T13:27:16Z</time><name>PT11551</name></trkpt>
<trkpt lat="53.364716" lon="-1.659239"><ele>456</ele><time>2020-05-21T13:27:17Z</time><name>PT11552</name></trkpt>
<trkpt lat="53.364711" lon="-1.659218"><ele>457</ele><time>2020-05-21T13:27:18Z</time><name>PT11553</name></trkpt>
<trkpt lat="53.364705" lon="-1.659204"><ele>457</ele><time>2020-05-21T13:27:19Z</time><name>PT11554</name></trkpt>
<trkpt lat="53.364695" lon="-1.659181"><ele>458</ele><time>2020-05-21T13:27:21Z</time><name>PT11555</name></trkpt>
<trkpt lat="53.364688" lon="-1.659161"><ele>458</ele><time>2020-05-21T13:27:22Z</time><name>PT11556</name></trkpt>
<trkpt lat="53.364680" lon="-1.659137"><ele>458</ele><time>2020-05-21T13:27:23Z</time><name>PT11557</name></trkpt>
<trkpt lat="53.364674" lon="-1.659128"><ele>457</ele><time>2020-05-21T13:27:24Z</time><name>PT11558</name></trkpt>
<trkpt lat="53.364667" lon="-1.659120"><ele>457</ele><time>2020-05-21T13:27:25Z</time><name>PT11559</name></trkpt>
<trkpt lat="53.364662" lon="-1.659109"><ele>458</ele><time>2020-05-21T13:27:26Z</time><name>PT11560</name></trkpt>
<trkpt lat="53.364656" lon="-1.659090"><ele>458</ele><time>2020-05-21T13:27:27Z</time><name>PT11561</name></trkpt>
<trkpt lat="53.364653" lon="-1.659080"><ele>458</ele><time>2020-05-21T13:27:28Z</time><name>PT11562</name></trkpt>
<trkpt lat="53.364651" lon="-1.659069"><ele>458</ele><time>2020-05-21T13:27:29Z</time><name>PT11563</name></trkpt>
<trkpt lat="53.364647" lon="-1.659052"><ele>458</ele><time>2020-05-21T13:27:30Z</time><name>PT11564</name></trkpt>
<trkpt lat="53.364644" lon="-1.659036"><ele>458</ele><time>2020-05-21T13:27:31Z</time><name>PT11565</name></trkpt>
<trkpt lat="53.364641" lon="-1.659025"><ele>458</ele><time>2020-05-21T13:27:32Z</time><name>PT11566</name></trkpt>
<trkpt lat="53.364637" lon="-1.659006"><ele>458</ele><time>2020-05-21T13:27:33Z</time><name>PT11567</name></trkpt>
<trkpt lat="53.364630" lon="-1.658986"><ele>459</ele><time>2020-05-21T13:27:34Z</time><name>PT11568</name></trkpt>
<trkpt lat="53.364625" lon="-1.658966"><ele>459</ele><time>2020-05-21T13:27:35Z</time><name>PT11569</name></trkpt>
<trkpt lat="53.364621" lon="-1.658958"><ele>459</ele><time>2020-05-21T13:27:36Z</time><name>PT11570</name></trkpt>
<trkpt lat="53.364621" lon="-1.658945"><ele>459</ele><time>2020-05-21T13:27:37Z</time><name>PT11571</name></trkpt>
<trkpt lat="53.364610" lon="-1.658932"><ele>460</ele><time>2020-05-21T13:27:38Z</time><name>PT11572</name></trkpt>
<trkpt lat="53.364601" lon="-1.658914"><ele>460</ele><time>2020-05-21T13:27:39Z</time><name>PT11573</name></trkpt>
<trkpt lat="53.364590" lon="-1.658897"><ele>459</ele><time>2020-05-21T13:27:40Z</time><name>PT11574</name></trkpt>
<trkpt lat="53.364583" lon="-1.658879"><ele>460</ele><time>2020-05-21T13:27:41Z</time><name>PT11575</name></trkpt>
<trkpt lat="53.364579" lon="-1.658865"><ele>460</ele><time>2020-05-21T13:27:42Z</time><name>PT11576</name></trkpt>
<trkpt lat="53.364573" lon="-1.658842"><ele>460</ele><time>2020-05-21T13:27:43Z</time><name>PT11577</name></trkpt>
<trkpt lat="53.364571" lon="-1.658827"><ele>460</ele><time>2020-05-21T13:27:44Z</time><name>PT11578</name></trkpt>
<trkpt lat="53.364570" lon="-1.658811"><ele>461</ele><time>2020-05-21T13:27:45Z</time><name>PT11579</name></trkpt>
<trkpt lat="53.364566" lon="-1.658793"><ele>461</ele><time>2020-05-21T13:27:46Z</time><name>PT11580</name></trkpt>
<trkpt lat="53.364560" lon="-1.658773"><ele>461</ele><time>2020-05-21T13:27:47Z</time><name>PT11581</name></trkpt>
<trkpt lat="53.364557" lon="-1.658751"><ele>460</ele><time>2020-05-21T13:27:48Z</time><name>PT11582</name></trkpt>
<trkpt lat="53.364556" lon="-1.658737"><ele>460</ele><time>2020-05-21T13:27:49Z</time><name>PT11583</name></trkpt>
<trkpt lat="53.364552" lon="-1.658724"><ele>461</ele><time>2020-05-21T13:27:50Z</time><name>PT11584</name></trkpt>
<trkpt lat="53.364548" lon="-1.658706"><ele>461</ele><time>2020-05-21T13:27:51Z</time><name>PT11585</name></trkpt>
<trkpt lat="53.364541" lon="-1.658684"><ele>461</ele><time>2020-05-21T13:27:52Z</time><name>PT11586</name></trkpt>
<trkpt lat="53.364537" lon="-1.658672"><ele>461</ele><time>2020-05-21T13:27:53Z</time><name>PT11587</name></trkpt>
<trkpt lat="53.364535" lon="-1.658658"><ele>461</ele><time>2020-05-21T13:27:54Z</time><name>PT11588</name></trkpt>
<trkpt lat="53.364530" lon="-1.658644"><ele>461</ele><time>2020-05-21T13:27:55Z</time><name>PT11589</name></trkpt>
<trkpt lat="53.364524" lon="-1.658624"><ele>462</ele><time>2020-05-21T13:27:56Z</time><name>PT11590</name></trkpt>
<trkpt lat="53.364519" lon="-1.658612"><ele>461</ele><time>2020-05-21T13:27:57Z</time><name>PT11591</name></trkpt>
<trkpt lat="53.364519" lon="-1.658603"><ele>460</ele><time>2020-05-21T13:27:58Z</time><name>PT11592</name></trkpt>
<trkpt lat="53.364515" lon="-1.658594"><ele>459</ele><time>2020-05-21T13:27:59Z</time><name>PT11593</name></trkpt>
<trkpt lat="53.364512" lon="-1.658586"><ele>460</ele><time>2020-05-21T13:28:00Z</time><name>PT11594</name></trkpt>
<trkpt lat="53.364511" lon="-1.658585"><ele>459</ele><time>2020-05-21T13:28:01Z</time><name>PT11595</name></trkpt>
<trkpt lat="53.364511" lon="-1.658577"><ele>459</ele><time>2020-05-21T13:28:02Z</time><name>PT11596</name></trkpt>
<trkpt lat="53.364509" lon="-1.658573"><ele>459</ele><time>2020-05-21T13:28:03Z</time><name>PT11597</name></trkpt>
<trkpt lat="53.364508" lon="-1.658573"><ele>459</ele><time>2020-05-21T13:28:04Z</time><name>PT11598</name></trkpt>
<trkpt lat="53.364508" lon="-1.658572"><ele>459</ele><time>2020-05-21T13:28:05Z</time><name>PT11599</name></trkpt>
<trkpt lat="53.364510" lon="-1.658571"><ele>459</ele><time>2020-05-21T13:28:06Z</time><name>PT11600</name></trkpt>
<trkpt lat="53.364513" lon="-1.658577"><ele>459</ele><time>2020-05-21T13:28:22Z</time><name>PT11601</name></trkpt>
<trkpt lat="53.364511" lon="-1.658568"><ele>459</ele><time>2020-05-21T13:28:23Z</time><name>PT11602</name></trkpt>
<trkpt lat="53.364507" lon="-1.658562"><ele>459</ele><time>2020-05-21T13:28:24Z</time><name>PT11603</name></trkpt>
<trkpt lat="53.364508" lon="-1.658556"><ele>459</ele><time>2020-05-21T13:28:25Z</time><name>PT11604</name></trkpt>
<trkpt lat="53.364505" lon="-1.658559"><ele>459</ele><time>2020-05-21T13:28:26Z</time><name>PT11605</name></trkpt>
<trkpt lat="53.364504" lon="-1.658554"><ele>459</ele><time>2020-05-21T13:28:27Z</time><name>PT11606</name></trkpt>
<trkpt lat="53.364501" lon="-1.658548"><ele>459</ele><time>2020-05-21T13:28:28Z</time><name>PT11607</name></trkpt>
<trkpt lat="53.364498" lon="-1.658544"><ele>459</ele><time>2020-05-21T13:28:29Z</time><name>PT11608</name></trkpt>
<trkpt lat="53.364494" lon="-1.658544"><ele>459</ele><time>2020-05-21T13:28:30Z</time><name>PT11609</name></trkpt>
<trkpt lat="53.364491" lon="-1.658544"><ele>459</ele><time>2020-05-21T13:28:31Z</time><name>PT11610</name></trkpt>
<trkpt lat="53.364490" lon="-1.658543"><ele>459</ele><time>2020-05-21T13:28:32Z</time><name>PT11611</name></trkpt>
<trkpt lat="53.364488" lon="-1.658540"><ele>459</ele><time>2020-05-21T13:28:33Z</time><name>PT11612</name></trkpt>
<trkpt lat="53.364485" lon="-1.658536"><ele>459</ele><time>2020-05-21T13:28:52Z</time><name>PT11613</name></trkpt>
<trkpt lat="53.364471" lon="-1.658521"><ele>460</ele><time>2020-05-21T13:28:53Z</time><name>PT11614</name></trkpt>
<trkpt lat="53.364460" lon="-1.658510"><ele>460</ele><time>2020-05-21T13:28:54Z</time><name>PT11615</name></trkpt>
<trkpt lat="53.364449" lon="-1.658498"><ele>460</ele><time>2020-05-21T13:28:55Z</time><name>PT11616</name></trkpt>
<trkpt lat="53.364437" lon="-1.658481"><ele>459</ele><time>2020-05-21T13:28:56Z</time><name>PT11617</name></trkpt>
<trkpt lat="53.364430" lon="-1.658463"><ele>459</ele><time>2020-05-21T13:28:57Z</time><name>PT11618</name></trkpt>
<trkpt lat="53.364417" lon="-1.658443"><ele>459</ele><time>2020-05-21T13:28:58Z</time><name>PT11619</name></trkpt>
<trkpt lat="53.364409" lon="-1.658426"><ele>459</ele><time>2020-05-21T13:28:59Z</time><name>PT11620</name></trkpt>
<trkpt lat="53.364405" lon="-1.658413"><ele>460</ele><time>2020-05-21T13:29:00Z</time><name>PT11621</name></trkpt>
<trkpt lat="53.364399" lon="-1.658404"><ele>460</ele><time>2020-05-21T13:29:01Z</time><name>PT11622</name></trkpt>
<trkpt lat="53.364390" lon="-1.658392"><ele>460</ele><time>2020-05-21T13:29:02Z</time><name>PT11623</name></trkpt>
<trkpt lat="53.364383" lon="-1.658374"><ele>460</ele><time>2020-05-21T13:29:03Z</time><name>PT11624</name></trkpt>
<trkpt lat="53.364371" lon="-1.658351"><ele>460</ele><time>2020-05-21T13:29:04Z</time><name>PT11625</name></trkpt>
<trkpt lat="53.364362" lon="-1.658325"><ele>459</ele><time>2020-05-21T13:29:05Z</time><name>PT11626</name></trkpt>
<trkpt lat="53.364355" lon="-1.658309"><ele>459</ele><time>2020-05-21T13:29:06Z</time><name>PT11627</name></trkpt>
<trkpt lat="53.364351" lon="-1.658295"><ele>458</ele><time>2020-05-21T13:29:07Z</time><name>PT11628</name></trkpt>
<trkpt lat="53.364343" lon="-1.658280"><ele>458</ele><time>2020-05-21T13:29:08Z</time><name>PT11629</name></trkpt>
<trkpt lat="53.364333" lon="-1.658265"><ele>458</ele><time>2020-05-21T13:29:09Z</time><name>PT11630</name></trkpt>
<trkpt lat="53.364319" lon="-1.658248"><ele>459</ele><time>2020-05-21T13:29:10Z</time><name>PT11631</name></trkpt>
<trkpt lat="53.364305" lon="-1.658234"><ele>458</ele><time>2020-05-21T13:29:11Z</time><name>PT11632</name></trkpt>
<trkpt lat="53.364297" lon="-1.658222"><ele>458</ele><time>2020-05-21T13:29:12Z</time><name>PT11633</name></trkpt>
<trkpt lat="53.364291" lon="-1.658208"><ele>458</ele><time>2020-05-21T13:29:13Z</time><name>PT11634</name></trkpt>
<trkpt lat="53.364283" lon="-1.658193"><ele>458</ele><time>2020-05-21T13:29:14Z</time><name>PT11635</name></trkpt>
<trkpt lat="53.364275" lon="-1.658176"><ele>458</ele><time>2020-05-21T13:29:15Z</time><name>PT11636</name></trkpt>
<trkpt lat="53.364264" lon="-1.658155"><ele>458</ele><time>2020-05-21T13:29:16Z</time><name>PT11637</name></trkpt>
<trkpt lat="53.364253" lon="-1.658136"><ele>458</ele><time>2020-05-21T13:29:17Z</time><name>PT11638</name></trkpt>
<trkpt lat="53.364247" lon="-1.658126"><ele>458</ele><time>2020-05-21T13:29:18Z</time><name>PT11639</name></trkpt>
<trkpt lat="53.364242" lon="-1.658113"><ele>458</ele><time>2020-05-21T13:29:19Z</time><name>PT11640</name></trkpt>
<trkpt lat="53.364236" lon="-1.658096"><ele>458</ele><time>2020-05-21T13:29:20Z</time><name>PT11641</name></trkpt>
<trkpt lat="53.364225" lon="-1.658078"><ele>458</ele><time>2020-05-21T13:29:21Z</time><name>PT11642</name></trkpt>
<trkpt lat="53.364214" lon="-1.658060"><ele>458</ele><time>2020-05-21T13:29:22Z</time><name>PT11643</name></trkpt>
<trkpt lat="53.364199" lon="-1.658035"><ele>458</ele><time>2020-05-21T13:29:23Z</time><name>PT11644</name></trkpt>
<trkpt lat="53.364189" lon="-1.658015"><ele>458</ele><time>2020-05-21T13:29:24Z</time><name>PT11645</name></trkpt>
<trkpt lat="53.364182" lon="-1.658005"><ele>458</ele><time>2020-05-21T13:29:25Z</time><name>PT11646</name></trkpt>
<trkpt lat="53.364181" lon="-1.657993"><ele>458</ele><time>2020-05-21T13:29:26Z</time><name>PT11647</name></trkpt>
<trkpt lat="53.364173" lon="-1.657975"><ele>458</ele><time>2020-05-21T13:29:27Z</time><name>PT11648</name></trkpt>
<trkpt lat="53.364164" lon="-1.657959"><ele>458</ele><time>2020-05-21T13:29:28Z</time><name>PT11649</name></trkpt>
<trkpt lat="53.364156" lon="-1.657940"><ele>458</ele><time>2020-05-21T13:29:29Z</time><name>PT11650</name></trkpt>
<trkpt lat="53.364150" lon="-1.657927"><ele>457</ele><time>2020-05-21T13:29:30Z</time><name>PT11651</name></trkpt>
<trkpt lat="53.364145" lon="-1.657918"><ele>457</ele><time>2020-05-21T13:29:31Z</time><name>PT11652</name></trkpt>
<trkpt lat="53.364137" lon="-1.657906"><ele>457</ele><time>2020-05-21T13:29:32Z</time><name>PT11653</name></trkpt>
<trkpt lat="53.364132" lon="-1.657888"><ele>458</ele><time>2020-05-21T13:29:33Z</time><name>PT11654</name></trkpt>
<trkpt lat="53.364125" lon="-1.657867"><ele>458</ele><time>2020-05-21T13:29:34Z</time><name>PT11655</name></trkpt>
<trkpt lat="53.364117" lon="-1.657845"><ele>458</ele><time>2020-05-21T13:29:35Z</time><name>PT11656</name></trkpt>
<trkpt lat="53.364111" lon="-1.657832"><ele>458</ele><time>2020-05-21T13:29:36Z</time><name>PT11657</name></trkpt>
<trkpt lat="53.364106" lon="-1.657819"><ele>458</ele><time>2020-05-21T13:29:37Z</time><name>PT11658</name></trkpt>
<trkpt lat="53.364103" lon="-1.657803"><ele>458</ele><time>2020-05-21T13:29:38Z</time><name>PT11659</name></trkpt>
<trkpt lat="53.364097" lon="-1.657788"><ele>458</ele><time>2020-05-21T13:29:39Z</time><name>PT11660</name></trkpt>
<trkpt lat="53.364090" lon="-1.657770"><ele>457</ele><time>2020-05-21T13:29:40Z</time><name>PT11661</name></trkpt>
<trkpt lat="53.364079" lon="-1.657754"><ele>457</ele><time>2020-05-21T13:29:41Z</time><name>PT11662</name></trkpt>
<trkpt lat="53.364075" lon="-1.657744"><ele>458</ele><time>2020-05-21T13:29:42Z</time><name>PT11663</name></trkpt>
<trkpt lat="53.364068" lon="-1.657731"><ele>458</ele><time>2020-05-21T13:29:43Z</time><name>PT11664</name></trkpt>
<trkpt lat="53.364058" lon="-1.657714"><ele>458</ele><time>2020-05-21T13:29:44Z</time><name>PT11665</name></trkpt>
<trkpt lat="53.364046" lon="-1.657696"><ele>458</ele><time>2020-05-21T13:29:45Z</time><name>PT11666</name></trkpt>
<trkpt lat="53.364033" lon="-1.657676"><ele>458</ele><time>2020-05-21T13:29:46Z</time><name>PT11667</name></trkpt>
<trkpt lat="53.364021" lon="-1.657654"><ele>458</ele><time>2020-05-21T13:29:47Z</time><name>PT11668</name></trkpt>
<trkpt lat="53.364014" lon="-1.657645"><ele>458</ele><time>2020-05-21T13:29:48Z</time><name>PT11669</name></trkpt>
<trkpt lat="53.364007" lon="-1.657636"><ele>458</ele><time>2020-05-21T13:29:49Z</time><name>PT11670</name></trkpt>
<trkpt lat="53.363999" lon="-1.657619"><ele>458</ele><time>2020-05-21T13:29:50Z</time><name>PT11671</name></trkpt>
<trkpt lat="53.363991" lon="-1.657603"><ele>458</ele><time>2020-05-21T13:29:51Z</time><name>PT11672</name></trkpt>
<trkpt lat="53.363981" lon="-1.657585"><ele>458</ele><time>2020-05-21T13:29:52Z</time><name>PT11673</name></trkpt>
<trkpt lat="53.363974" lon="-1.657566"><ele>458</ele><time>2020-05-21T13:29:53Z</time><name>PT11674</name></trkpt>
<trkpt lat="53.363966" lon="-1.657552"><ele>458</ele><time>2020-05-21T13:29:54Z</time><name>PT11675</name></trkpt>
<trkpt lat="53.363958" lon="-1.657543"><ele>458</ele><time>2020-05-21T13:29:55Z</time><name>PT11676</name></trkpt>
<trkpt lat="53.363954" lon="-1.657515"><ele>458</ele><time>2020-05-21T13:29:56Z</time><name>PT11677</name></trkpt>
<trkpt lat="53.363955" lon="-1.657490"><ele>458</ele><time>2020-05-21T13:29:57Z</time><name>PT11678</name></trkpt>
<trkpt lat="53.363951" lon="-1.657462"><ele>457</ele><time>2020-05-21T13:29:58Z</time><name>PT11679</name></trkpt>
<trkpt lat="53.363943" lon="-1.657436"><ele>457</ele><time>2020-05-21T13:29:59Z</time><name>PT11680</name></trkpt>
<trkpt lat="53.363938" lon="-1.657421"><ele>457</ele><time>2020-05-21T13:30:00Z</time><name>PT11681</name></trkpt>
<trkpt lat="53.363934" lon="-1.657409"><ele>457</ele><time>2020-05-21T13:30:01Z</time><name>PT11682</name></trkpt>
<trkpt lat="53.363926" lon="-1.657394"><ele>457</ele><time>2020-05-21T13:30:02Z</time><name>PT11683</name></trkpt>
<trkpt lat="53.363915" lon="-1.657378"><ele>457</ele><time>2020-05-21T13:30:03Z</time><name>PT11684</name></trkpt>
<trkpt lat="53.363907" lon="-1.657361"><ele>457</ele><time>2020-05-21T13:30:04Z</time><name>PT11685</name></trkpt>
<trkpt lat="53.363898" lon="-1.657336"><ele>457</ele><time>2020-05-21T13:30:05Z</time><name>PT11686</name></trkpt>
<trkpt lat="53.363890" lon="-1.657312"><ele>457</ele><time>2020-05-21T13:30:06Z</time><name>PT11687</name></trkpt>
<trkpt lat="53.363884" lon="-1.657296"><ele>457</ele><time>2020-05-21T13:30:07Z</time><name>PT11688</name></trkpt>
<trkpt lat="53.363881" lon="-1.657284"><ele>458</ele><time>2020-05-21T13:30:08Z</time><name>PT11689</name></trkpt>
<trkpt lat="53.363878" lon="-1.657261"><ele>457</ele><time>2020-05-21T13:30:09Z</time><name>PT11690</name></trkpt>
<trkpt lat="53.363876" lon="-1.657241"><ele>457</ele><time>2020-05-21T13:30:10Z</time><name>PT11691</name></trkpt>
<trkpt lat="53.363870" lon="-1.657219"><ele>457</ele><time>2020-05-21T13:30:11Z</time><name>PT11692</name></trkpt>
<trkpt lat="53.363864" lon="-1.657195"><ele>457</ele><time>2020-05-21T13:30:12Z</time><name>PT11693</name></trkpt>
<trkpt lat="53.363858" lon="-1.657169"><ele>457</ele><time>2020-05-21T13:30:13Z</time><name>PT11694</name></trkpt>
<trkpt lat="53.363852" lon="-1.657151"><ele>458</ele><time>2020-05-21T13:30:14Z</time><name>PT11695</name></trkpt>
<trkpt lat="53.363847" lon="-1.657140"><ele>457</ele><time>2020-05-21T13:30:15Z</time><name>PT11696</name></trkpt>
<trkpt lat="53.363839" lon="-1.657131"><ele>457</ele><time>2020-05-21T13:30:16Z</time><name>PT11697</name></trkpt>
<trkpt lat="53.363824" lon="-1.657121"><ele>457</ele><time>2020-05-21T13:30:17Z</time><name>PT11698</name></trkpt>
<trkpt lat="53.363813" lon="-1.657106"><ele>457</ele><time>2020-05-21T13:30:18Z</time><name>PT11699</name></trkpt>
<trkpt lat="53.363806" lon="-1.657081"><ele>457</ele><time>2020-05-21T13:30:19Z</time><name>PT11700</name></trkpt>
<trkpt lat="53.363800" lon="-1.657053"><ele>457</ele><time>2020-05-21T13:30:20Z</time><name>PT11701</name></trkpt>
<trkpt lat="53.363796" lon="-1.657033"><ele>457</ele><time>2020-05-21T13:30:21Z</time><name>PT11702</name></trkpt>
<trkpt lat="53.363794" lon="-1.657022"><ele>458</ele><time>2020-05-21T13:30:22Z</time><name>PT11703</name></trkpt>
<trkpt lat="53.363788" lon="-1.657004"><ele>456</ele><time>2020-05-21T13:30:23Z</time><name>PT11704</name></trkpt>
<trkpt lat="53.363784" lon="-1.656981"><ele>456</ele><time>2020-05-21T13:30:24Z</time><name>PT11705</name></trkpt>
<trkpt lat="53.363779" lon="-1.656956"><ele>456</ele><time>2020-05-21T13:30:25Z</time><name>PT11706</name></trkpt>
<trkpt lat="53.363773" lon="-1.656932"><ele>456</ele><time>2020-05-21T13:30:26Z</time><name>PT11707</name></trkpt>
<trkpt lat="53.363765" lon="-1.656906"><ele>457</ele><time>2020-05-21T13:30:27Z</time><name>PT11708</name></trkpt>
<trkpt lat="53.363760" lon="-1.656887"><ele>457</ele><time>2020-05-21T13:30:28Z</time><name>PT11709</name></trkpt>
<trkpt lat="53.363758" lon="-1.656873"><ele>457</ele><time>2020-05-21T13:30:29Z</time><name>PT11710</name></trkpt>
<trkpt lat="53.363754" lon="-1.656849"><ele>457</ele><time>2020-05-21T13:30:30Z</time><name>PT11711</name></trkpt>
<trkpt lat="53.363753" lon="-1.656843"><ele>457</ele><time>2020-05-21T13:30:31Z</time><name>PT11712</name></trkpt>
<trkpt lat="53.363747" lon="-1.656834"><ele>457</ele><time>2020-05-21T13:30:32Z</time><name>PT11713</name></trkpt>
<trkpt lat="53.363743" lon="-1.656820"><ele>457</ele><time>2020-05-21T13:30:33Z</time><name>PT11714</name></trkpt>
<trkpt lat="53.363738" lon="-1.656801"><ele>457</ele><time>2020-05-21T13:30:34Z</time><name>PT11715</name></trkpt>
<trkpt lat="53.363732" lon="-1.656781"><ele>457</ele><time>2020-05-21T13:30:35Z</time><name>PT11716</name></trkpt>
<trkpt lat="53.363727" lon="-1.656764"><ele>456</ele><time>2020-05-21T13:30:36Z</time><name>PT11717</name></trkpt>
<trkpt lat="53.363726" lon="-1.656748"><ele>456</ele><time>2020-05-21T13:30:37Z</time><name>PT11718</name></trkpt>
<trkpt lat="53.363727" lon="-1.656732"><ele>456</ele><time>2020-05-21T13:30:38Z</time><name>PT11719</name></trkpt>
<trkpt lat="53.363727" lon="-1.656716"><ele>456</ele><time>2020-05-21T13:30:39Z</time><name>PT11720</name></trkpt>
<trkpt lat="53.363727" lon="-1.656702"><ele>455</ele><time>2020-05-21T13:30:40Z</time><name>PT11721</name></trkpt>
<trkpt lat="53.363730" lon="-1.656682"><ele>455</ele><time>2020-05-21T13:30:41Z</time><name>PT11722</name></trkpt>
<trkpt lat="53.363731" lon="-1.656661"><ele>455</ele><time>2020-05-21T13:30:42Z</time><name>PT11723</name></trkpt>
<trkpt lat="53.363730" lon="-1.656645"><ele>454</ele><time>2020-05-21T13:30:43Z</time><name>PT11724</name></trkpt>
<trkpt lat="53.363728" lon="-1.656628"><ele>454</ele><time>2020-05-21T13:30:44Z</time><name>PT11725</name></trkpt>
<trkpt lat="53.363726" lon="-1.656607"><ele>454</ele><time>2020-05-21T13:30:45Z</time><name>PT11726</name></trkpt>
<trkpt lat="53.363726" lon="-1.656585"><ele>454</ele><time>2020-05-21T13:30:46Z</time><name>PT11727</name></trkpt>
<trkpt lat="53.363727" lon="-1.656562"><ele>454</ele><time>2020-05-21T13:30:47Z</time><name>PT11728</name></trkpt>
<trkpt lat="53.363726" lon="-1.656539"><ele>454</ele><time>2020-05-21T13:30:48Z</time><name>PT11729</name></trkpt>
<trkpt lat="53.363720" lon="-1.656526"><ele>453</ele><time>2020-05-21T13:30:49Z</time><name>PT11730</name></trkpt>
<trkpt lat="53.363717" lon="-1.656516"><ele>453</ele><time>2020-05-21T13:30:50Z</time><name>PT11731</name></trkpt>
<trkpt lat="53.363713" lon="-1.656503"><ele>453</ele><time>2020-05-21T13:30:51Z</time><name>PT11732</name></trkpt>
<trkpt lat="53.363712" lon="-1.656498"><ele>453</ele><time>2020-05-21T13:30:52Z</time><name>PT11733</name></trkpt>
<trkpt lat="53.363714" lon="-1.656497"><ele>452</ele><time>2020-05-21T13:30:53Z</time><name>PT11734</name></trkpt>
<trkpt lat="53.363714" lon="-1.656496"><ele>452</ele><time>2020-05-21T13:30:54Z</time><name>PT11735</name></trkpt>
<trkpt lat="53.363710" lon="-1.656489"><ele>452</ele><time>2020-05-21T13:30:55Z</time><name>PT11736</name></trkpt>
<trkpt lat="53.363707" lon="-1.656475"><ele>452</ele><time>2020-05-21T13:30:56Z</time><name>PT11737</name></trkpt>
<trkpt lat="53.363703" lon="-1.656463"><ele>453</ele><time>2020-05-21T13:30:57Z</time><name>PT11738</name></trkpt>
<trkpt lat="53.363696" lon="-1.656451"><ele>452</ele><time>2020-05-21T13:30:58Z</time><name>PT11739</name></trkpt>
<trkpt lat="53.363687" lon="-1.656434"><ele>452</ele><time>2020-05-21T13:30:59Z</time><name>PT11740</name></trkpt>
<trkpt lat="53.363682" lon="-1.656412"><ele>452</ele><time>2020-05-21T13:31:00Z</time><name>PT11741</name></trkpt>
<trkpt lat="53.363676" lon="-1.656387"><ele>452</ele><time>2020-05-21T13:31:01Z</time><name>PT11742</name></trkpt>
<trkpt lat="53.363669" lon="-1.656370"><ele>451</ele><time>2020-05-21T13:31:02Z</time><name>PT11743</name></trkpt>
<trkpt lat="53.363667" lon="-1.656356"><ele>451</ele><time>2020-05-21T13:31:03Z</time><name>PT11744</name></trkpt>
<trkpt lat="53.363662" lon="-1.656343"><ele>451</ele><time>2020-05-21T13:31:04Z</time><name>PT11745</name></trkpt>
<trkpt lat="53.363654" lon="-1.656327"><ele>451</ele><time>2020-05-21T13:31:05Z</time><name>PT11746</name></trkpt>
<trkpt lat="53.363647" lon="-1.656308"><ele>451</ele><time>2020-05-21T13:31:06Z</time><name>PT11747</name></trkpt>
<trkpt lat="53.363638" lon="-1.656284"><ele>451</ele><time>2020-05-21T13:31:07Z</time><name>PT11748</name></trkpt>
<trkpt lat="53.363632" lon="-1.656264"><ele>451</ele><time>2020-05-21T13:31:08Z</time><name>PT11749</name></trkpt>
<trkpt lat="53.363628" lon="-1.656247"><ele>451</ele><time>2020-05-21T13:31:09Z</time><name>PT11750</name></trkpt>
<trkpt lat="53.363624" lon="-1.656236"><ele>451</ele><time>2020-05-21T13:31:10Z</time><name>PT11751</name></trkpt>
<trkpt lat="53.363615" lon="-1.656226"><ele>450</ele><time>2020-05-21T13:31:11Z</time><name>PT11752</name></trkpt>
<trkpt lat="53.363609" lon="-1.656211"><ele>450</ele><time>2020-05-21T13:31:12Z</time><name>PT11753</name></trkpt>
<trkpt lat="53.363601" lon="-1.656188"><ele>449</ele><time>2020-05-21T13:31:13Z</time><name>PT11754</name></trkpt>
<trkpt lat="53.363592" lon="-1.656167"><ele>449</ele><time>2020-05-21T13:31:14Z</time><name>PT11755</name></trkpt>
<trkpt lat="53.363586" lon="-1.656157"><ele>449</ele><time>2020-05-21T13:31:15Z</time><name>PT11756</name></trkpt>
<trkpt lat="53.363581" lon="-1.656146"><ele>449</ele><time>2020-05-21T13:31:16Z</time><name>PT11757</name></trkpt>
<trkpt lat="53.363575" lon="-1.656131"><ele>449</ele><time>2020-05-21T13:31:17Z</time><name>PT11758</name></trkpt>
<trkpt lat="53.363569" lon="-1.656112"><ele>449</ele><time>2020-05-21T13:31:18Z</time><name>PT11759</name></trkpt>
<trkpt lat="53.363564" lon="-1.656086"><ele>449</ele><time>2020-05-21T13:31:19Z</time><name>PT11760</name></trkpt>
<trkpt lat="53.363559" lon="-1.656058"><ele>449</ele><time>2020-05-21T13:31:20Z</time><name>PT11761</name></trkpt>
<trkpt lat="53.363552" lon="-1.656036"><ele>449</ele><time>2020-05-21T13:31:21Z</time><name>PT11762</name></trkpt>
<trkpt lat="53.363549" lon="-1.656023"><ele>449</ele><time>2020-05-21T13:31:22Z</time><name>PT11763</name></trkpt>
<trkpt lat="53.363547" lon="-1.656005"><ele>450</ele><time>2020-05-21T13:31:23Z</time><name>PT11764</name></trkpt>
<trkpt lat="53.363544" lon="-1.655992"><ele>450</ele><time>2020-05-21T13:31:24Z</time><name>PT11765</name></trkpt>
<trkpt lat="53.363540" lon="-1.655975"><ele>450</ele><time>2020-05-21T13:31:25Z</time><name>PT11766</name></trkpt>
<trkpt lat="53.363540" lon="-1.655954"><ele>450</ele><time>2020-05-21T13:31:26Z</time><name>PT11767</name></trkpt>
<trkpt lat="53.363538" lon="-1.655941"><ele>450</ele><time>2020-05-21T13:31:27Z</time><name>PT11768</name></trkpt>
<trkpt lat="53.363533" lon="-1.655926"><ele>450</ele><time>2020-05-21T13:31:28Z</time><name>PT11769</name></trkpt>
<trkpt lat="53.363527" lon="-1.655909"><ele>450</ele><time>2020-05-21T13:31:29Z</time><name>PT11770</name></trkpt>
<trkpt lat="53.363521" lon="-1.655887"><ele>450</ele><time>2020-05-21T13:31:30Z</time><name>PT11771</name></trkpt>
<trkpt lat="53.363513" lon="-1.655862"><ele>450</ele><time>2020-05-21T13:31:31Z</time><name>PT11772</name></trkpt>
<trkpt lat="53.363506" lon="-1.655840"><ele>450</ele><time>2020-05-21T13:31:32Z</time><name>PT11773</name></trkpt>
<trkpt lat="53.363501" lon="-1.655828"><ele>450</ele><time>2020-05-21T13:31:33Z</time><name>PT11774</name></trkpt>
<trkpt lat="53.363496" lon="-1.655809"><ele>450</ele><time>2020-05-21T13:31:34Z</time><name>PT11775</name></trkpt>
<trkpt lat="53.363489" lon="-1.655792"><ele>450</ele><time>2020-05-21T13:31:35Z</time><name>PT11776</name></trkpt>
<trkpt lat="53.363481" lon="-1.655772"><ele>450</ele><time>2020-05-21T13:31:36Z</time><name>PT11777</name></trkpt>
<trkpt lat="53.363473" lon="-1.655752"><ele>449</ele><time>2020-05-21T13:31:37Z</time><name>PT11778</name></trkpt>
<trkpt lat="53.363464" lon="-1.655734"><ele>450</ele><time>2020-05-21T13:31:38Z</time><name>PT11779</name></trkpt>
<trkpt lat="53.363454" lon="-1.655709"><ele>449</ele><time>2020-05-21T13:31:39Z</time><name>PT11780</name></trkpt>
<trkpt lat="53.363446" lon="-1.655688"><ele>449</ele><time>2020-05-21T13:31:40Z</time><name>PT11781</name></trkpt>
<trkpt lat="53.363441" lon="-1.655678"><ele>449</ele><time>2020-05-21T13:31:41Z</time><name>PT11782</name></trkpt>
<trkpt lat="53.363436" lon="-1.655668"><ele>449</ele><time>2020-05-21T13:31:42Z</time><name>PT11783</name></trkpt>
<trkpt lat="53.363431" lon="-1.655653"><ele>449</ele><time>2020-05-21T13:31:43Z</time><name>PT11784</name></trkpt>
<trkpt lat="53.363423" lon="-1.655636"><ele>449</ele><time>2020-05-21T13:31:44Z</time><name>PT11785</name></trkpt>
<trkpt lat="53.363415" lon="-1.655619"><ele>448</ele><time>2020-05-21T13:31:45Z</time><name>PT11786</name></trkpt>
<trkpt lat="53.363402" lon="-1.655599"><ele>448</ele><time>2020-05-21T13:31:46Z</time><name>PT11787</name></trkpt>
<trkpt lat="53.363393" lon="-1.655580"><ele>448</ele><time>2020-05-21T13:31:47Z</time><name>PT11788</name></trkpt>
<trkpt lat="53.363388" lon="-1.655573"><ele>448</ele><time>2020-05-21T13:31:48Z</time><name>PT11789</name></trkpt>
<trkpt lat="53.363381" lon="-1.655565"><ele>448</ele><time>2020-05-21T13:31:49Z</time><name>PT11790</name></trkpt>
<trkpt lat="53.363371" lon="-1.655551"><ele>448</ele><time>2020-05-21T13:31:50Z</time><name>PT11791</name></trkpt>
<trkpt lat="53.363360" lon="-1.655532"><ele>448</ele><time>2020-05-21T13:31:51Z</time><name>PT11792</name></trkpt>
<trkpt lat="53.363350" lon="-1.655513"><ele>447</ele><time>2020-05-21T13:31:52Z</time><name>PT11793</name></trkpt>
<trkpt lat="53.363341" lon="-1.655496"><ele>447</ele><time>2020-05-21T13:31:53Z</time><name>PT11794</name></trkpt>
<trkpt lat="53.363337" lon="-1.655480"><ele>447</ele><time>2020-05-21T13:31:54Z</time><name>PT11795</name></trkpt>
<trkpt lat="53.363334" lon="-1.655467"><ele>447</ele><time>2020-05-21T13:31:55Z</time><name>PT11796</name></trkpt>
<trkpt lat="53.363326" lon="-1.655458"><ele>447</ele><time>2020-05-21T13:31:56Z</time><name>PT11797</name></trkpt>
<trkpt lat="53.363315" lon="-1.655438"><ele>447</ele><time>2020-05-21T13:31:57Z</time><name>PT11798</name></trkpt>
<trkpt lat="53.363305" lon="-1.655422"><ele>446</ele><time>2020-05-21T13:31:58Z</time><name>PT11799</name></trkpt>
<trkpt lat="53.363292" lon="-1.655403"><ele>446</ele><time>2020-05-21T13:31:59Z</time><name>PT11800</name></trkpt>
<trkpt lat="53.363283" lon="-1.655380"><ele>446</ele><time>2020-05-21T13:32:00Z</time><name>PT11801</name></trkpt>
<trkpt lat="53.363279" lon="-1.655367"><ele>446</ele><time>2020-05-21T13:32:02Z</time><name>PT11802</name></trkpt>
<trkpt lat="53.363275" lon="-1.655355"><ele>446</ele><time>2020-05-21T13:32:02Z</time><name>PT11803</name></trkpt>
<trkpt lat="53.363268" lon="-1.655338"><ele>446</ele><time>2020-05-21T13:32:03Z</time><name>PT11804</name></trkpt>
<trkpt lat="53.363263" lon="-1.655314"><ele>445</ele><time>2020-05-21T13:32:04Z</time><name>PT11805</name></trkpt>
<trkpt lat="53.363257" lon="-1.655292"><ele>446</ele><time>2020-05-21T13:32:05Z</time><name>PT11806</name></trkpt>
<trkpt lat="53.363247" lon="-1.655273"><ele>445</ele><time>2020-05-21T13:32:06Z</time><name>PT11807</name></trkpt>
<trkpt lat="53.363240" lon="-1.655266"><ele>445</ele><time>2020-05-21T13:32:08Z</time><name>PT11808</name></trkpt>
<trkpt lat="53.363234" lon="-1.655254"><ele>445</ele><time>2020-05-21T13:32:08Z</time><name>PT11809</name></trkpt>
<trkpt lat="53.363226" lon="-1.655235"><ele>445</ele><time>2020-05-21T13:32:09Z</time><name>PT11810</name></trkpt>
<trkpt lat="53.363219" lon="-1.655214"><ele>445</ele><time>2020-05-21T13:32:10Z</time><name>PT11811</name></trkpt>
<trkpt lat="53.363211" lon="-1.655186"><ele>445</ele><time>2020-05-21T13:32:11Z</time><name>PT11812</name></trkpt>
<trkpt lat="53.363202" lon="-1.655163"><ele>445</ele><time>2020-05-21T13:32:12Z</time><name>PT11813</name></trkpt>
<trkpt lat="53.363197" lon="-1.655147"><ele>445</ele><time>2020-05-21T13:32:13Z</time><name>PT11814</name></trkpt>
<trkpt lat="53.363192" lon="-1.655136"><ele>445</ele><time>2020-05-21T13:32:14Z</time><name>PT11815</name></trkpt>
<trkpt lat="53.363182" lon="-1.655122"><ele>444</ele><time>2020-05-21T13:32:15Z</time><name>PT11816</name></trkpt>
<trkpt lat="53.363174" lon="-1.655106"><ele>444</ele><time>2020-05-21T13:32:16Z</time><name>PT11817</name></trkpt>
<trkpt lat="53.363169" lon="-1.655083"><ele>445</ele><time>2020-05-21T13:32:17Z</time><name>PT11818</name></trkpt>
<trkpt lat="53.363161" lon="-1.655065"><ele>444</ele><time>2020-05-21T13:32:18Z</time><name>PT11819</name></trkpt>
<trkpt lat="53.363151" lon="-1.655050"><ele>444</ele><time>2020-05-21T13:32:19Z</time><name>PT11820</name></trkpt>
<trkpt lat="53.363143" lon="-1.655032"><ele>444</ele><time>2020-05-21T13:32:20Z</time><name>PT11821</name></trkpt>
<trkpt lat="53.363137" lon="-1.655010"><ele>443</ele><time>2020-05-21T13:32:21Z</time><name>PT11822</name></trkpt>
<trkpt lat="53.363130" lon="-1.655001"><ele>444</ele><time>2020-05-21T13:32:22Z</time><name>PT11823</name></trkpt>
<trkpt lat="53.363124" lon="-1.654993"><ele>444</ele><time>2020-05-21T13:32:23Z</time><name>PT11824</name></trkpt>
<trkpt lat="53.363119" lon="-1.654981"><ele>444</ele><time>2020-05-21T13:32:24Z</time><name>PT11825</name></trkpt>
<trkpt lat="53.363117" lon="-1.654974"><ele>444</ele><time>2020-05-21T13:32:25Z</time><name>PT11826</name></trkpt>
<trkpt lat="53.363111" lon="-1.654966"><ele>444</ele><time>2020-05-21T13:32:26Z</time><name>PT11827</name></trkpt>
<trkpt lat="53.363103" lon="-1.654953"><ele>444</ele><time>2020-05-21T13:32:27Z</time><name>PT11828</name></trkpt>
<trkpt lat="53.363099" lon="-1.654944"><ele>444</ele><time>2020-05-21T13:32:28Z</time><name>PT11829</name></trkpt>
<trkpt lat="53.363093" lon="-1.654931"><ele>443</ele><time>2020-05-21T13:32:29Z</time><name>PT11830</name></trkpt>
<trkpt lat="53.363085" lon="-1.654914"><ele>443</ele><time>2020-05-21T13:32:30Z</time><name>PT11831</name></trkpt>
<trkpt lat="53.363078" lon="-1.654892"><ele>443</ele><time>2020-05-21T13:32:31Z</time><name>PT11832</name></trkpt>
<trkpt lat="53.363075" lon="-1.654874"><ele>444</ele><time>2020-05-21T13:32:32Z</time><name>PT11833</name></trkpt>
<trkpt lat="53.363074" lon="-1.654864"><ele>444</ele><time>2020-05-21T13:32:33Z</time><name>PT11834</name></trkpt>
<trkpt lat="53.363070" lon="-1.654848"><ele>443</ele><time>2020-05-21T13:32:34Z</time><name>PT11835</name></trkpt>
<trkpt lat="53.363064" lon="-1.654831"><ele>442</ele><time>2020-05-21T13:32:35Z</time><name>PT11836</name></trkpt>
<trkpt lat="53.363057" lon="-1.654810"><ele>442</ele><time>2020-05-21T13:32:36Z</time><name>PT11837</name></trkpt>
<trkpt lat="53.363048" lon="-1.654791"><ele>441</ele><time>2020-05-21T13:32:37Z</time><name>PT11838</name></trkpt>
<trkpt lat="53.363040" lon="-1.654778"><ele>441</ele><time>2020-05-21T13:32:38Z</time><name>PT11839</name></trkpt>
<trkpt lat="53.363036" lon="-1.654768"><ele>441</ele><time>2020-05-21T13:32:39Z</time><name>PT11840</name></trkpt>
<trkpt lat="53.363035" lon="-1.654749"><ele>441</ele><time>2020-05-21T13:32:40Z</time><name>PT11841</name></trkpt>
<trkpt lat="53.363031" lon="-1.654725"><ele>441</ele><time>2020-05-21T13:32:41Z</time><name>PT11842</name></trkpt>
<trkpt lat="53.363028" lon="-1.654708"><ele>441</ele><time>2020-05-21T13:32:42Z</time><name>PT11843</name></trkpt>
<trkpt lat="53.363024" lon="-1.654701"><ele>441</ele><time>2020-05-21T13:32:43Z</time><name>PT11844</name></trkpt>
<trkpt lat="53.363020" lon="-1.654687"><ele>441</ele><time>2020-05-21T13:32:44Z</time><name>PT11845</name></trkpt>
<trkpt lat="53.363013" lon="-1.654669"><ele>441</ele><time>2020-05-21T13:32:45Z</time><name>PT11846</name></trkpt>
<trkpt lat="53.363010" lon="-1.654650"><ele>441</ele><time>2020-05-21T13:32:47Z</time><name>PT11847</name></trkpt>
<trkpt lat="53.363007" lon="-1.654637"><ele>441</ele><time>2020-05-21T13:32:47Z</time><name>PT11848</name></trkpt>
<trkpt lat="53.363007" lon="-1.654623"><ele>441</ele><time>2020-05-21T13:32:48Z</time><name>PT11849</name></trkpt>
<trkpt lat="53.363007" lon="-1.654601"><ele>441</ele><time>2020-05-21T13:32:49Z</time><name>PT11850</name></trkpt>
<trkpt lat="53.363006" lon="-1.654575"><ele>441</ele><time>2020-05-21T13:32:50Z</time><name>PT11851</name></trkpt>
<trkpt lat="53.363002" lon="-1.654547"><ele>441</ele><time>2020-05-21T13:32:52Z</time><name>PT11852</name></trkpt>
<trkpt lat="53.362998" lon="-1.654533"><ele>441</ele><time>2020-05-21T13:32:52Z</time><name>PT11853</name></trkpt>
<trkpt lat="53.362997" lon="-1.654528"><ele>440</ele><time>2020-05-21T13:32:53Z</time><name>PT11854</name></trkpt>
<trkpt lat="53.362988" lon="-1.654520"><ele>440</ele><time>2020-05-21T13:32:54Z</time><name>PT11855</name></trkpt>
<trkpt lat="53.362979" lon="-1.654503"><ele>440</ele><time>2020-05-21T13:32:55Z</time><name>PT11856</name></trkpt>
<trkpt lat="53.362969" lon="-1.654483"><ele>440</ele><time>2020-05-21T13:32:56Z</time><name>PT11857</name></trkpt>
<trkpt lat="53.362959" lon="-1.654459"><ele>439</ele><time>2020-05-21T13:32:58Z</time><name>PT11858</name></trkpt>
<trkpt lat="53.362951" lon="-1.654433"><ele>439</ele><time>2020-05-21T13:32:58Z</time><name>PT11859</name></trkpt>
<trkpt lat="53.362946" lon="-1.654421"><ele>439</ele><time>2020-05-21T13:32:59Z</time><name>PT11860</name></trkpt>
<trkpt lat="53.362942" lon="-1.654410"><ele>439</ele><time>2020-05-21T13:33:00Z</time><name>PT11861</name></trkpt>
<trkpt lat="53.362939" lon="-1.654393"><ele>439</ele><time>2020-05-21T13:33:01Z</time><name>PT11862</name></trkpt>
<trkpt lat="53.362934" lon="-1.654374"><ele>440</ele><time>2020-05-21T13:33:02Z</time><name>PT11863</name></trkpt>
<trkpt lat="53.362932" lon="-1.654353"><ele>440</ele><time>2020-05-21T13:33:03Z</time><name>PT11864</name></trkpt>
<trkpt lat="53.362927" lon="-1.654330"><ele>440</ele><time>2020-05-21T13:33:04Z</time><name>PT11865</name></trkpt>
<trkpt lat="53.362920" lon="-1.654305"><ele>439</ele><time>2020-05-21T13:33:05Z</time><name>PT11866</name></trkpt>
<trkpt lat="53.362914" lon="-1.654285"><ele>439</ele><time>2020-05-21T13:33:06Z</time><name>PT11867</name></trkpt>
<trkpt lat="53.362910" lon="-1.654274"><ele>440</ele><time>2020-05-21T13:33:07Z</time><name>PT11868</name></trkpt>
<trkpt lat="53.362906" lon="-1.654258"><ele>440</ele><time>2020-05-21T13:33:08Z</time><name>PT11869</name></trkpt>
<trkpt lat="53.362899" lon="-1.654241"><ele>440</ele><time>2020-05-21T13:33:09Z</time><name>PT11870</name></trkpt>
<trkpt lat="53.362891" lon="-1.654223"><ele>440</ele><time>2020-05-21T13:33:10Z</time><name>PT11871</name></trkpt>
<trkpt lat="53.362882" lon="-1.654203"><ele>440</ele><time>2020-05-21T13:33:11Z</time><name>PT11872</name></trkpt>
<trkpt lat="53.362872" lon="-1.654188"><ele>440</ele><time>2020-05-21T13:33:12Z</time><name>PT11873</name></trkpt>
<trkpt lat="53.362865" lon="-1.654176"><ele>440</ele><time>2020-05-21T13:33:13Z</time><name>PT11874</name></trkpt>
<trkpt lat="53.362858" lon="-1.654164"><ele>440</ele><time>2020-05-21T13:33:14Z</time><name>PT11875</name></trkpt>
<trkpt lat="53.362853" lon="-1.654146"><ele>440</ele><time>2020-05-21T13:33:15Z</time><name>PT11876</name></trkpt>
<trkpt lat="53.362845" lon="-1.654121"><ele>440</ele><time>2020-05-21T13:33:16Z</time><name>PT11877</name></trkpt>
<trkpt lat="53.362837" lon="-1.654092"><ele>440</ele><time>2020-05-21T13:33:17Z</time><name>PT11878</name></trkpt>
<trkpt lat="53.362828" lon="-1.654071"><ele>440</ele><time>2020-05-21T13:33:18Z</time><name>PT11879</name></trkpt>
<trkpt lat="53.362824" lon="-1.654063"><ele>441</ele><time>2020-05-21T13:33:19Z</time><name>PT11880</name></trkpt>
<trkpt lat="53.362818" lon="-1.654054"><ele>441</ele><time>2020-05-21T13:33:20Z</time><name>PT11881</name></trkpt>
<trkpt lat="53.362809" lon="-1.654042"><ele>441</ele><time>2020-05-21T13:33:21Z</time><name>PT11882</name></trkpt>
<trkpt lat="53.362797" lon="-1.654026"><ele>441</ele><time>2020-05-21T13:33:22Z</time><name>PT11883</name></trkpt>
<trkpt lat="53.362787" lon="-1.654009"><ele>441</ele><time>2020-05-21T13:33:23Z</time><name>PT11884</name></trkpt>
<trkpt lat="53.362778" lon="-1.653991"><ele>441</ele><time>2020-05-21T13:33:24Z</time><name>PT11885</name></trkpt>
<trkpt lat="53.362772" lon="-1.653979"><ele>441</ele><time>2020-05-21T13:33:25Z</time><name>PT11886</name></trkpt>
<trkpt lat="53.362766" lon="-1.653967"><ele>441</ele><time>2020-05-21T13:33:26Z</time><name>PT11887</name></trkpt>
<trkpt lat="53.362759" lon="-1.653950"><ele>441</ele><time>2020-05-21T13:33:27Z</time><name>PT11888</name></trkpt>
<trkpt lat="53.362750" lon="-1.653932"><ele>441</ele><time>2020-05-21T13:33:28Z</time><name>PT11889</name></trkpt>
<trkpt lat="53.362739" lon="-1.653914"><ele>441</ele><time>2020-05-21T13:33:29Z</time><name>PT11890</name></trkpt>
<trkpt lat="53.362727" lon="-1.653897"><ele>441</ele><time>2020-05-21T13:33:30Z</time><name>PT11891</name></trkpt>
<trkpt lat="53.362718" lon="-1.653885"><ele>441</ele><time>2020-05-21T13:33:31Z</time><name>PT11892</name></trkpt>
<trkpt lat="53.362713" lon="-1.653873"><ele>441</ele><time>2020-05-21T13:33:32Z</time><name>PT11893</name></trkpt>
<trkpt lat="53.362707" lon="-1.653857"><ele>441</ele><time>2020-05-21T13:33:33Z</time><name>PT11894</name></trkpt>
<trkpt lat="53.362700" lon="-1.653841"><ele>440</ele><time>2020-05-21T13:33:34Z</time><name>PT11895</name></trkpt>
<trkpt lat="53.362691" lon="-1.653830"><ele>441</ele><time>2020-05-21T13:33:35Z</time><name>PT11896</name></trkpt>
<trkpt lat="53.362680" lon="-1.653810"><ele>441</ele><time>2020-05-21T13:33:36Z</time><name>PT11897</name></trkpt>
<trkpt lat="53.362667" lon="-1.653785"><ele>440</ele><time>2020-05-21T13:33:37Z</time><name>PT11898</name></trkpt>
<trkpt lat="53.362657" lon="-1.653764"><ele>440</ele><time>2020-05-21T13:33:38Z</time><name>PT11899</name></trkpt>
<trkpt lat="53.362650" lon="-1.653751"><ele>440</ele><time>2020-05-21T13:33:39Z</time><name>PT11900</name></trkpt>
<trkpt lat="53.362646" lon="-1.653739"><ele>441</ele><time>2020-05-21T13:33:40Z</time><name>PT11901</name></trkpt>
<trkpt lat="53.362638" lon="-1.653723"><ele>440</ele><time>2020-05-21T13:33:41Z</time><name>PT11902</name></trkpt>
<trkpt lat="53.362629" lon="-1.653705"><ele>440</ele><time>2020-05-21T13:33:42Z</time><name>PT11903</name></trkpt>
<trkpt lat="53.362618" lon="-1.653683"><ele>440</ele><time>2020-05-21T13:33:43Z</time><name>PT11904</name></trkpt>
<trkpt lat="53.362606" lon="-1.653660"><ele>440</ele><time>2020-05-21T13:33:44Z</time><name>PT11905</name></trkpt>
<trkpt lat="53.362593" lon="-1.653641"><ele>440</ele><time>2020-05-21T13:33:45Z</time><name>PT11906</name></trkpt>
<trkpt lat="53.362587" lon="-1.653628"><ele>440</ele><time>2020-05-21T13:33:46Z</time><name>PT11907</name></trkpt>
<trkpt lat="53.362582" lon="-1.653616"><ele>439</ele><time>2020-05-21T13:33:47Z</time><name>PT11908</name></trkpt>
<trkpt lat="53.362576" lon="-1.653603"><ele>440</ele><time>2020-05-21T13:33:48Z</time><name>PT11909</name></trkpt>
<trkpt lat="53.362569" lon="-1.653580"><ele>440</ele><time>2020-05-21T13:33:49Z</time><name>PT11910</name></trkpt>
<trkpt lat="53.362562" lon="-1.653555"><ele>440</ele><time>2020-05-21T13:33:50Z</time><name>PT11911</name></trkpt>
<trkpt lat="53.362552" lon="-1.653533"><ele>440</ele><time>2020-05-21T13:33:51Z</time><name>PT11912</name></trkpt>
<trkpt lat="53.362545" lon="-1.653519"><ele>440</ele><time>2020-05-21T13:33:52Z</time><name>PT11913</name></trkpt>
<trkpt lat="53.362541" lon="-1.653504"><ele>441</ele><time>2020-05-21T13:33:53Z</time><name>PT11914</name></trkpt>
<trkpt lat="53.362536" lon="-1.653492"><ele>441</ele><time>2020-05-21T13:33:54Z</time><name>PT11915</name></trkpt>
<trkpt lat="53.362526" lon="-1.653477"><ele>441</ele><time>2020-05-21T13:33:55Z</time><name>PT11916</name></trkpt>
<trkpt lat="53.362519" lon="-1.653462"><ele>441</ele><time>2020-05-21T13:33:56Z</time><name>PT11917</name></trkpt>
<trkpt lat="53.362512" lon="-1.653442"><ele>442</ele><time>2020-05-21T13:33:57Z</time><name>PT11918</name></trkpt>
<trkpt lat="53.362501" lon="-1.653424"><ele>442</ele><time>2020-05-21T13:33:58Z</time><name>PT11919</name></trkpt>
<trkpt lat="53.362491" lon="-1.653408"><ele>442</ele><time>2020-05-21T13:33:59Z</time><name>PT11920</name></trkpt>
<trkpt lat="53.362484" lon="-1.653399"><ele>442</ele><time>2020-05-21T13:34:00Z</time><name>PT11921</name></trkpt>
<trkpt lat="53.362475" lon="-1.653392"><ele>442</ele><time>2020-05-21T13:34:01Z</time><name>PT11922</name></trkpt>
<trkpt lat="53.362467" lon="-1.653379"><ele>442</ele><time>2020-05-21T13:34:02Z</time><name>PT11923</name></trkpt>
<trkpt lat="53.362459" lon="-1.653357"><ele>442</ele><time>2020-05-21T13:34:03Z</time><name>PT11924</name></trkpt>
<trkpt lat="53.362449" lon="-1.653335"><ele>442</ele><time>2020-05-21T13:34:04Z</time><name>PT11925</name></trkpt>
<trkpt lat="53.362439" lon="-1.653321"><ele>442</ele><time>2020-05-21T13:34:05Z</time><name>PT11926</name></trkpt>
<trkpt lat="53.362433" lon="-1.653310"><ele>443</ele><time>2020-05-21T13:34:06Z</time><name>PT11927</name></trkpt>
<trkpt lat="53.362429" lon="-1.653299"><ele>442</ele><time>2020-05-21T13:34:07Z</time><name>PT11928</name></trkpt>
<trkpt lat="53.362425" lon="-1.653278"><ele>442</ele><time>2020-05-21T13:34:08Z</time><name>PT11929</name></trkpt>
<trkpt lat="53.362419" lon="-1.653255"><ele>442</ele><time>2020-05-21T13:34:09Z</time><name>PT11930</name></trkpt>
<trkpt lat="53.362413" lon="-1.653232"><ele>441</ele><time>2020-05-21T13:34:10Z</time><name>PT11931</name></trkpt>
<trkpt lat="53.362401" lon="-1.653213"><ele>442</ele><time>2020-05-21T13:34:11Z</time><name>PT11932</name></trkpt>
<trkpt lat="53.362388" lon="-1.653192"><ele>441</ele><time>2020-05-21T13:34:12Z</time><name>PT11933</name></trkpt>
<trkpt lat="53.362380" lon="-1.653177"><ele>441</ele><time>2020-05-21T13:34:13Z</time><name>PT11934</name></trkpt>
<trkpt lat="53.362372" lon="-1.653164"><ele>441</ele><time>2020-05-21T13:34:14Z</time><name>PT11935</name></trkpt>
<trkpt lat="53.362365" lon="-1.653150"><ele>440</ele><time>2020-05-21T13:34:15Z</time><name>PT11936</name></trkpt>
<trkpt lat="53.362359" lon="-1.653134"><ele>440</ele><time>2020-05-21T13:34:16Z</time><name>PT11937</name></trkpt>
<trkpt lat="53.362352" lon="-1.653115"><ele>440</ele><time>2020-05-21T13:34:17Z</time><name>PT11938</name></trkpt>
<trkpt lat="53.362341" lon="-1.653095"><ele>440</ele><time>2020-05-21T13:34:18Z</time><name>PT11939</name></trkpt>
<trkpt lat="53.362329" lon="-1.653072"><ele>440</ele><time>2020-05-21T13:34:19Z</time><name>PT11940</name></trkpt>
<trkpt lat="53.362318" lon="-1.653049"><ele>440</ele><time>2020-05-21T13:34:20Z</time><name>PT11941</name></trkpt>
<trkpt lat="53.362311" lon="-1.653038"><ele>440</ele><time>2020-05-21T13:34:21Z</time><name>PT11942</name></trkpt>
<trkpt lat="53.362303" lon="-1.653032"><ele>440</ele><time>2020-05-21T13:34:22Z</time><name>PT11943</name></trkpt>
<trkpt lat="53.362294" lon="-1.653017"><ele>440</ele><time>2020-05-21T13:34:23Z</time><name>PT11944</name></trkpt>
<trkpt lat="53.362284" lon="-1.652993"><ele>440</ele><time>2020-05-21T13:34:24Z</time><name>PT11945</name></trkpt>
<trkpt lat="53.362271" lon="-1.652969"><ele>440</ele><time>2020-05-21T13:34:25Z</time><name>PT11946</name></trkpt>
<trkpt lat="53.362261" lon="-1.652954"><ele>440</ele><time>2020-05-21T13:34:26Z</time><name>PT11947</name></trkpt>
<trkpt lat="53.362253" lon="-1.652948"><ele>440</ele><time>2020-05-21T13:34:27Z</time><name>PT11948</name></trkpt>
<trkpt lat="53.362243" lon="-1.652944"><ele>440</ele><time>2020-05-21T13:34:28Z</time><name>PT11949</name></trkpt>
<trkpt lat="53.362236" lon="-1.652931"><ele>440</ele><time>2020-05-21T13:34:29Z</time><name>PT11950</name></trkpt>
<trkpt lat="53.362230" lon="-1.652908"><ele>440</ele><time>2020-05-21T13:34:30Z</time><name>PT11951</name></trkpt>
<trkpt lat="53.362222" lon="-1.652882"><ele>440</ele><time>2020-05-21T13:34:31Z</time><name>PT11952</name></trkpt>
<trkpt lat="53.362213" lon="-1.652855"><ele>440</ele><time>2020-05-21T13:34:32Z</time><name>PT11953</name></trkpt>
<trkpt lat="53.362205" lon="-1.652831"><ele>439</ele><time>2020-05-21T13:34:33Z</time><name>PT11954</name></trkpt>
<trkpt lat="53.362199" lon="-1.652820"><ele>439</ele><time>2020-05-21T13:34:34Z</time><name>PT11955</name></trkpt>
<trkpt lat="53.362197" lon="-1.652810"><ele>439</ele><time>2020-05-21T13:34:35Z</time><name>PT11956</name></trkpt>
<trkpt lat="53.362190" lon="-1.652800"><ele>439</ele><time>2020-05-21T13:34:36Z</time><name>PT11957</name></trkpt>
<trkpt lat="53.362179" lon="-1.652783"><ele>438</ele><time>2020-05-21T13:34:37Z</time><name>PT11958</name></trkpt>
<trkpt lat="53.362171" lon="-1.652762"><ele>438</ele><time>2020-05-21T13:34:38Z</time><name>PT11959</name></trkpt>
<trkpt lat="53.362161" lon="-1.652736"><ele>438</ele><time>2020-05-21T13:34:39Z</time><name>PT11960</name></trkpt>
<trkpt lat="53.362152" lon="-1.652708"><ele>438</ele><time>2020-05-21T13:34:40Z</time><name>PT11961</name></trkpt>
<trkpt lat="53.362144" lon="-1.652690"><ele>438</ele><time>2020-05-21T13:34:41Z</time><name>PT11962</name></trkpt>
<trkpt lat="53.362139" lon="-1.652682"><ele>438</ele><time>2020-05-21T13:34:42Z</time><name>PT11963</name></trkpt>
<trkpt lat="53.362136" lon="-1.652676"><ele>439</ele><time>2020-05-21T13:34:43Z</time><name>PT11964</name></trkpt>
<trkpt lat="53.362128" lon="-1.652657"><ele>438</ele><time>2020-05-21T13:34:44Z</time><name>PT11965</name></trkpt>
<trkpt lat="53.362120" lon="-1.652638"><ele>438</ele><time>2020-05-21T13:34:45Z</time><name>PT11966</name></trkpt>
<trkpt lat="53.362114" lon="-1.652615"><ele>438</ele><time>2020-05-21T13:34:46Z</time><name>PT11967</name></trkpt>
<trkpt lat="53.362106" lon="-1.652589"><ele>438</ele><time>2020-05-21T13:34:47Z</time><name>PT11968</name></trkpt>
<trkpt lat="53.362099" lon="-1.652572"><ele>439</ele><time>2020-05-21T13:34:48Z</time><name>PT11969</name></trkpt>
<trkpt lat="53.362096" lon="-1.652561"><ele>439</ele><time>2020-05-21T13:34:49Z</time><name>PT11970</name></trkpt>
<trkpt lat="53.362095" lon="-1.652554"><ele>438</ele><time>2020-05-21T13:34:50Z</time><name>PT11971</name></trkpt>
<trkpt lat="53.362092" lon="-1.652539"><ele>438</ele><time>2020-05-21T13:34:51Z</time><name>PT11972</name></trkpt>
<trkpt lat="53.362084" lon="-1.652524"><ele>438</ele><time>2020-05-21T13:34:52Z</time><name>PT11973</name></trkpt>
<trkpt lat="53.362078" lon="-1.652501"><ele>439</ele><time>2020-05-21T13:34:53Z</time><name>PT11974</name></trkpt>
<trkpt lat="53.362073" lon="-1.652473"><ele>438</ele><time>2020-05-21T13:34:54Z</time><name>PT11975</name></trkpt>
<trkpt lat="53.362069" lon="-1.652445"><ele>438</ele><time>2020-05-21T13:34:55Z</time><name>PT11976</name></trkpt>
<trkpt lat="53.362063" lon="-1.652422"><ele>438</ele><time>2020-05-21T13:34:56Z</time><name>PT11977</name></trkpt>
<trkpt lat="53.362058" lon="-1.652410"><ele>438</ele><time>2020-05-21T13:34:57Z</time><name>PT11978</name></trkpt>
<trkpt lat="53.362054" lon="-1.652403"><ele>438</ele><time>2020-05-21T13:34:58Z</time><name>PT11979</name></trkpt>
<trkpt lat="53.362049" lon="-1.652390"><ele>437</ele><time>2020-05-21T13:34:59Z</time><name>PT11980</name></trkpt>
<trkpt lat="53.362045" lon="-1.652375"><ele>437</ele><time>2020-05-21T13:35:00Z</time><name>PT11981</name></trkpt>
<trkpt lat="53.362040" lon="-1.652355"><ele>437</ele><time>2020-05-21T13:35:01Z</time><name>PT11982</name></trkpt>
<trkpt lat="53.362034" lon="-1.652332"><ele>437</ele><time>2020-05-21T13:35:02Z</time><name>PT11983</name></trkpt>
<trkpt lat="53.362029" lon="-1.652307"><ele>437</ele><time>2020-05-21T13:35:03Z</time><name>PT11984</name></trkpt>
<trkpt lat="53.362023" lon="-1.652292"><ele>436</ele><time>2020-05-21T13:35:04Z</time><name>PT11985</name></trkpt>
<trkpt lat="53.362017" lon="-1.652281"><ele>436</ele><time>2020-05-21T13:35:05Z</time><name>PT11986</name></trkpt>
<trkpt lat="53.362012" lon="-1.652276"><ele>436</ele><time>2020-05-21T13:35:06Z</time><name>PT11987</name></trkpt>
<trkpt lat="53.362010" lon="-1.652266"><ele>436</ele><time>2020-05-21T13:35:07Z</time><name>PT11988</name></trkpt>
<trkpt lat="53.362004" lon="-1.652253"><ele>436</ele><time>2020-05-21T13:35:08Z</time><name>PT11989</name></trkpt>
<trkpt lat="53.361997" lon="-1.652233"><ele>436</ele><time>2020-05-21T13:35:09Z</time><name>PT11990</name></trkpt>
<trkpt lat="53.361990" lon="-1.652210"><ele>436</ele><time>2020-05-21T13:35:10Z</time><name>PT11991</name></trkpt>
<trkpt lat="53.361982" lon="-1.652189"><ele>436</ele><time>2020-05-21T13:35:11Z</time><name>PT11992</name></trkpt>
<trkpt lat="53.361978" lon="-1.652176"><ele>436</ele><time>2020-05-21T13:35:12Z</time><name>PT11993</name></trkpt>
<trkpt lat="53.361972" lon="-1.652162"><ele>436</ele><time>2020-05-21T13:35:13Z</time><name>PT11994</name></trkpt>
<trkpt lat="53.361965" lon="-1.652147"><ele>436</ele><time>2020-05-21T13:35:14Z</time><name>PT11995</name></trkpt>
<trkpt lat="53.361957" lon="-1.652131"><ele>435</ele><time>2020-05-21T13:35:15Z</time><name>PT11996</name></trkpt>
<trkpt lat="53.361951" lon="-1.652104"><ele>435</ele><time>2020-05-21T13:35:16Z</time><name>PT11997</name></trkpt>
<trkpt lat="53.361946" lon="-1.652075"><ele>435</ele><time>2020-05-21T13:35:17Z</time><name>PT11998</name></trkpt>
<trkpt lat="53.361941" lon="-1.652060"><ele>435</ele><time>2020-05-21T13:35:18Z</time><name>PT11999</name></trkpt>
<trkpt lat="53.361936" lon="-1.652047"><ele>435</ele><time>2020-05-21T13:35:19Z</time><name>PT12000</name></trkpt>
<trkpt lat="53.361932" lon="-1.652030"><ele>435</ele><time>2020-05-21T13:35:20Z</time><name>PT12001</name></trkpt>
<trkpt lat="53.361928" lon="-1.652010"><ele>434</ele><time>2020-05-21T13:35:21Z</time><name>PT12002</name></trkpt>
<trkpt lat="53.361922" lon="-1.651987"><ele>434</ele><time>2020-05-21T13:35:22Z</time><name>PT12003</name></trkpt>
<trkpt lat="53.361917" lon="-1.651955"><ele>434</ele><time>2020-05-21T13:35:23Z</time><name>PT12004</name></trkpt>
<trkpt lat="53.361912" lon="-1.651930"><ele>435</ele><time>2020-05-21T13:35:24Z</time><name>PT12005</name></trkpt>
<trkpt lat="53.361908" lon="-1.651917"><ele>435</ele><time>2020-05-21T13:35:25Z</time><name>PT12006</name></trkpt>
<trkpt lat="53.361906" lon="-1.651902"><ele>435</ele><time>2020-05-21T13:35:26Z</time><name>PT12007</name></trkpt>
<trkpt lat="53.361903" lon="-1.651886"><ele>435</ele><time>2020-05-21T13:35:27Z</time><name>PT12008</name></trkpt>
<trkpt lat="53.361897" lon="-1.651871"><ele>435</ele><time>2020-05-21T13:35:28Z</time><name>PT12009</name></trkpt>
<trkpt lat="53.361888" lon="-1.651851"><ele>435</ele><time>2020-05-21T13:35:29Z</time><name>PT12010</name></trkpt>
<trkpt lat="53.361878" lon="-1.651824"><ele>434</ele><time>2020-05-21T13:35:30Z</time><name>PT12011</name></trkpt>
<trkpt lat="53.361871" lon="-1.651802"><ele>434</ele><time>2020-05-21T13:35:31Z</time><name>PT12012</name></trkpt>
<trkpt lat="53.361867" lon="-1.651790"><ele>435</ele><time>2020-05-21T13:35:32Z</time><name>PT12013</name></trkpt>
<trkpt lat="53.361863" lon="-1.651776"><ele>435</ele><time>2020-05-21T13:35:33Z</time><name>PT12014</name></trkpt>
<trkpt lat="53.361855" lon="-1.651759"><ele>435</ele><time>2020-05-21T13:35:34Z</time><name>PT12015</name></trkpt>
<trkpt lat="53.361845" lon="-1.651742"><ele>434</ele><time>2020-05-21T13:35:35Z</time><name>PT12016</name></trkpt>
<trkpt lat="53.361835" lon="-1.651726"><ele>434</ele><time>2020-05-21T13:35:36Z</time><name>PT12017</name></trkpt>
<trkpt lat="53.361829" lon="-1.651711"><ele>434</ele><time>2020-05-21T13:35:37Z</time><name>PT12018</name></trkpt>
<trkpt lat="53.361822" lon="-1.651693"><ele>434</ele><time>2020-05-21T13:35:38Z</time><name>PT12019</name></trkpt>
<trkpt lat="53.361819" lon="-1.651681"><ele>434</ele><time>2020-05-21T13:35:39Z</time><name>PT12020</name></trkpt>
<trkpt lat="53.361817" lon="-1.651669"><ele>434</ele><time>2020-05-21T13:35:40Z</time><name>PT12021</name></trkpt>
<trkpt lat="53.361813" lon="-1.651651"><ele>434</ele><time>2020-05-21T13:35:41Z</time><name>PT12022</name></trkpt>
<trkpt lat="53.361809" lon="-1.651628"><ele>433</ele><time>2020-05-21T13:35:42Z</time><name>PT12023</name></trkpt>
<trkpt lat="53.361806" lon="-1.651604"><ele>433</ele><time>2020-05-21T13:35:43Z</time><name>PT12024</name></trkpt>
<trkpt lat="53.361792" lon="-1.651585"><ele>433</ele><time>2020-05-21T13:35:44Z</time><name>PT12025</name></trkpt>
<trkpt lat="53.361782" lon="-1.651563"><ele>433</ele><time>2020-05-21T13:35:45Z</time><name>PT12026</name></trkpt>
<trkpt lat="53.361776" lon="-1.651551"><ele>433</ele><time>2020-05-21T13:35:46Z</time><name>PT12027</name></trkpt>
<trkpt lat="53.361770" lon="-1.651542"><ele>433</ele><time>2020-05-21T13:35:47Z</time><name>PT12028</name></trkpt>
<trkpt lat="53.361762" lon="-1.651533"><ele>432</ele><time>2020-05-21T13:35:48Z</time><name>PT12029</name></trkpt>
<trkpt lat="53.361752" lon="-1.651517"><ele>432</ele><time>2020-05-21T13:35:49Z</time><name>PT12030</name></trkpt>
<trkpt lat="53.361742" lon="-1.651497"><ele>432</ele><time>2020-05-21T13:35:50Z</time><name>PT12031</name></trkpt>
<trkpt lat="53.361729" lon="-1.651477"><ele>432</ele><time>2020-05-21T13:35:51Z</time><name>PT12032</name></trkpt>
<trkpt lat="53.361714" lon="-1.651458"><ele>432</ele><time>2020-05-21T13:35:52Z</time><name>PT12033</name></trkpt>
<trkpt lat="53.361704" lon="-1.651437"><ele>432</ele><time>2020-05-21T13:35:53Z</time><name>PT12034</name></trkpt>
<trkpt lat="53.361697" lon="-1.651424"><ele>432</ele><time>2020-05-21T13:35:54Z</time><name>PT12035</name></trkpt>
<trkpt lat="53.361695" lon="-1.651411"><ele>432</ele><time>2020-05-21T13:35:55Z</time><name>PT12036</name></trkpt>
<trkpt lat="53.361687" lon="-1.651398"><ele>432</ele><time>2020-05-21T13:35:56Z</time><name>PT12037</name></trkpt>
<trkpt lat="53.361678" lon="-1.651377"><ele>432</ele><time>2020-05-21T13:35:57Z</time><name>PT12038</name></trkpt>
<trkpt lat="53.361671" lon="-1.651354"><ele>431</ele><time>2020-05-21T13:35:58Z</time><name>PT12039</name></trkpt>
<trkpt lat="53.361662" lon="-1.651334"><ele>432</ele><time>2020-05-21T13:35:59Z</time><name>PT12040</name></trkpt>
<trkpt lat="53.361656" lon="-1.651324"><ele>432</ele><time>2020-05-21T13:36:00Z</time><name>PT12041</name></trkpt>
<trkpt lat="53.361650" lon="-1.651313"><ele>432</ele><time>2020-05-21T13:36:01Z</time><name>PT12042</name></trkpt>
<trkpt lat="53.361648" lon="-1.651299"><ele>432</ele><time>2020-05-21T13:36:02Z</time><name>PT12043</name></trkpt>
<trkpt lat="53.361641" lon="-1.651279"><ele>432</ele><time>2020-05-21T13:36:03Z</time><name>PT12044</name></trkpt>
<trkpt lat="53.361632" lon="-1.651248"><ele>432</ele><time>2020-05-21T13:36:04Z</time><name>PT12045</name></trkpt>
<trkpt lat="53.361622" lon="-1.651229"><ele>432</ele><time>2020-05-21T13:36:05Z</time><name>PT12046</name></trkpt>
<trkpt lat="53.361612" lon="-1.651224"><ele>432</ele><time>2020-05-21T13:36:06Z</time><name>PT12047</name></trkpt>
<trkpt lat="53.361603" lon="-1.651213"><ele>432</ele><time>2020-05-21T13:36:07Z</time><name>PT12048</name></trkpt>
<trkpt lat="53.361591" lon="-1.651199"><ele>432</ele><time>2020-05-21T13:36:08Z</time><name>PT12049</name></trkpt>
<trkpt lat="53.361575" lon="-1.651185"><ele>432</ele><time>2020-05-21T13:36:09Z</time><name>PT12050</name></trkpt>
<trkpt lat="53.361561" lon="-1.651169"><ele>432</ele><time>2020-05-21T13:36:10Z</time><name>PT12051</name></trkpt>
<trkpt lat="53.361551" lon="-1.651159"><ele>432</ele><time>2020-05-21T13:36:11Z</time><name>PT12052</name></trkpt>
<trkpt lat="53.361544" lon="-1.651151"><ele>432</ele><time>2020-05-21T13:36:13Z</time><name>PT12053</name></trkpt>
<trkpt lat="53.361538" lon="-1.651141"><ele>432</ele><time>2020-05-21T13:36:13Z</time><name>PT12054</name></trkpt>
<trkpt lat="53.361526" lon="-1.651133"><ele>432</ele><time>2020-05-21T13:36:14Z</time><name>PT12055</name></trkpt>
<trkpt lat="53.361511" lon="-1.651118"><ele>432</ele><time>2020-05-21T13:36:15Z</time><name>PT12056</name></trkpt>
<trkpt lat="53.361498" lon="-1.651103"><ele>432</ele><time>2020-05-21T13:36:16Z</time><name>PT12057</name></trkpt>
<trkpt lat="53.361489" lon="-1.651093"><ele>432</ele><time>2020-05-21T13:36:17Z</time><name>PT12058</name></trkpt>
<trkpt lat="53.361482" lon="-1.651088"><ele>432</ele><time>2020-05-21T13:36:18Z</time><name>PT12059</name></trkpt>
<trkpt lat="53.361475" lon="-1.651083"><ele>432</ele><time>2020-05-21T13:36:19Z</time><name>PT12060</name></trkpt>
<trkpt lat="53.361465" lon="-1.651070"><ele>432</ele><time>2020-05-21T13:36:20Z</time><name>PT12061</name></trkpt>
<trkpt lat="53.361454" lon="-1.651051"><ele>432</ele><time>2020-05-21T13:36:21Z</time><name>PT12062</name></trkpt>
<trkpt lat="53.361442" lon="-1.651032"><ele>432</ele><time>2020-05-21T13:36:22Z</time><name>PT12063</name></trkpt>
<trkpt lat="53.361433" lon="-1.651015"><ele>432</ele><time>2020-05-21T13:36:23Z</time><name>PT12064</name></trkpt>
<trkpt lat="53.361425" lon="-1.651009"><ele>432</ele><time>2020-05-21T13:36:24Z</time><name>PT12065</name></trkpt>
<trkpt lat="53.361420" lon="-1.650997"><ele>431</ele><time>2020-05-21T13:36:25Z</time><name>PT12066</name></trkpt>
<trkpt lat="53.361414" lon="-1.650978"><ele>431</ele><time>2020-05-21T13:36:26Z</time><name>PT12067</name></trkpt>
<trkpt lat="53.361404" lon="-1.650956"><ele>431</ele><time>2020-05-21T13:36:27Z</time><name>PT12068</name></trkpt>
<trkpt lat="53.361391" lon="-1.650935"><ele>431</ele><time>2020-05-21T13:36:28Z</time><name>PT12069</name></trkpt>
<trkpt lat="53.361379" lon="-1.650917"><ele>431</ele><time>2020-05-21T13:36:29Z</time><name>PT12070</name></trkpt>
<trkpt lat="53.361373" lon="-1.650904"><ele>431</ele><time>2020-05-21T13:36:30Z</time><name>PT12071</name></trkpt>
<trkpt lat="53.361366" lon="-1.650896"><ele>431</ele><time>2020-05-21T13:36:31Z</time><name>PT12072</name></trkpt>
<trkpt lat="53.361360" lon="-1.650883"><ele>431</ele><time>2020-05-21T13:36:32Z</time><name>PT12073</name></trkpt>
<trkpt lat="53.361354" lon="-1.650866"><ele>431</ele><time>2020-05-21T13:36:33Z</time><name>PT12074</name></trkpt>
<trkpt lat="53.361346" lon="-1.650848"><ele>431</ele><time>2020-05-21T13:36:34Z</time><name>PT12075</name></trkpt>
<trkpt lat="53.361334" lon="-1.650835"><ele>431</ele><time>2020-05-21T13:36:35Z</time><name>PT12076</name></trkpt>
<trkpt lat="53.361321" lon="-1.650824"><ele>431</ele><time>2020-05-21T13:36:36Z</time><name>PT12077</name></trkpt>
<trkpt lat="53.361313" lon="-1.650821"><ele>431</ele><time>2020-05-21T13:36:37Z</time><name>PT12078</name></trkpt>
<trkpt lat="53.361311" lon="-1.650808"><ele>431</ele><time>2020-05-21T13:36:38Z</time><name>PT12079</name></trkpt>
<trkpt lat="53.361305" lon="-1.650790"><ele>431</ele><time>2020-05-21T13:36:39Z</time><name>PT12080</name></trkpt>
<trkpt lat="53.361295" lon="-1.650769"><ele>432</ele><time>2020-05-21T13:36:40Z</time><name>PT12081</name></trkpt>
<trkpt lat="53.361281" lon="-1.650749"><ele>432</ele><time>2020-05-21T13:36:41Z</time><name>PT12082</name></trkpt>
<trkpt lat="53.361269" lon="-1.650730"><ele>432</ele><time>2020-05-21T13:36:42Z</time><name>PT12083</name></trkpt>
<trkpt lat="53.361262" lon="-1.650714"><ele>432</ele><time>2020-05-21T13:36:43Z</time><name>PT12084</name></trkpt>
<trkpt lat="53.361257" lon="-1.650707"><ele>432</ele><time>2020-05-21T13:36:44Z</time><name>PT12085</name></trkpt>
<trkpt lat="53.361249" lon="-1.650696"><ele>432</ele><time>2020-05-21T13:36:45Z</time><name>PT12086</name></trkpt>
<trkpt lat="53.361243" lon="-1.650676"><ele>431</ele><time>2020-05-21T13:36:46Z</time><name>PT12087</name></trkpt>
<trkpt lat="53.361231" lon="-1.650657"><ele>431</ele><time>2020-05-21T13:36:47Z</time><name>PT12088</name></trkpt>
<trkpt lat="53.361221" lon="-1.650637"><ele>431</ele><time>2020-05-21T13:36:48Z</time><name>PT12089</name></trkpt>
<trkpt lat="53.361210" lon="-1.650617"><ele>431</ele><time>2020-05-21T13:36:49Z</time><name>PT12090</name></trkpt>
<trkpt lat="53.361201" lon="-1.650605"><ele>431</ele><time>2020-05-21T13:36:50Z</time><name>PT12091</name></trkpt>
<trkpt lat="53.361194" lon="-1.650600"><ele>431</ele><time>2020-05-21T13:36:51Z</time><name>PT12092</name></trkpt>
<trkpt lat="53.361181" lon="-1.650594"><ele>431</ele><time>2020-05-21T13:36:52Z</time><name>PT12093</name></trkpt>
<trkpt lat="53.361171" lon="-1.650580"><ele>430</ele><time>2020-05-21T13:36:53Z</time><name>PT12094</name></trkpt>
<trkpt lat="53.361161" lon="-1.650561"><ele>431</ele><time>2020-05-21T13:36:54Z</time><name>PT12095</name></trkpt>
<trkpt lat="53.361155" lon="-1.650546"><ele>431</ele><time>2020-05-21T13:36:55Z</time><name>PT12096</name></trkpt>
<trkpt lat="53.361155" lon="-1.650540"><ele>430</ele><time>2020-05-21T13:36:56Z</time><name>PT12097</name></trkpt>
<trkpt lat="53.361154" lon="-1.650540"><ele>430</ele><time>2020-05-21T13:36:57Z</time><name>PT12098</name></trkpt>
<trkpt lat="53.361152" lon="-1.650541"><ele>430</ele><time>2020-05-21T13:36:58Z</time><name>PT12099</name></trkpt>
<trkpt lat="53.361151" lon="-1.650541"><ele>430</ele><time>2020-05-21T13:36:59Z</time><name>PT12100</name></trkpt>
<trkpt lat="53.361153" lon="-1.650537"><ele>430</ele><time>2020-05-21T13:37:00Z</time><name>PT12101</name></trkpt>
<trkpt lat="53.361153" lon="-1.650537"><ele>430</ele><time>2020-05-21T13:37:01Z</time><name>PT12102</name></trkpt>
<trkpt lat="53.361155" lon="-1.650540"><ele>430</ele><time>2020-05-21T13:37:29Z</time><name>PT12103</name></trkpt>
<trkpt lat="53.361147" lon="-1.650528"><ele>430</ele><time>2020-05-21T13:37:30Z</time><name>PT12104</name></trkpt>
<trkpt lat="53.361141" lon="-1.650516"><ele>430</ele><time>2020-05-21T13:37:31Z</time><name>PT12105</name></trkpt>
<trkpt lat="53.361131" lon="-1.650496"><ele>431</ele><time>2020-05-21T13:37:32Z</time><name>PT12106</name></trkpt>
<trkpt lat="53.361126" lon="-1.650476"><ele>431</ele><time>2020-05-21T13:37:33Z</time><name>PT12107</name></trkpt>
<trkpt lat="53.361122" lon="-1.650462"><ele>430</ele><time>2020-05-21T13:37:34Z</time><name>PT12108</name></trkpt>
<trkpt lat="53.361116" lon="-1.650444"><ele>430</ele><time>2020-05-21T13:37:35Z</time><name>PT12109</name></trkpt>
<trkpt lat="53.361108" lon="-1.650427"><ele>430</ele><time>2020-05-21T13:37:36Z</time><name>PT12110</name></trkpt>
<trkpt lat="53.361099" lon="-1.650404"><ele>429</ele><time>2020-05-21T13:37:37Z</time><name>PT12111</name></trkpt>
<trkpt lat="53.361089" lon="-1.650383"><ele>429</ele><time>2020-05-21T13:37:38Z</time><name>PT12112</name></trkpt>
<trkpt lat="53.361085" lon="-1.650375"><ele>429</ele><time>2020-05-21T13:37:39Z</time><name>PT12113</name></trkpt>
<trkpt lat="53.361078" lon="-1.650367"><ele>429</ele><time>2020-05-21T13:37:40Z</time><name>PT12114</name></trkpt>
<trkpt lat="53.361070" lon="-1.650352"><ele>428</ele><time>2020-05-21T13:37:41Z</time><name>PT12115</name></trkpt>
<trkpt lat="53.361051" lon="-1.650318"><ele>428</ele><time>2020-05-21T13:37:43Z</time><name>PT12116</name></trkpt>
<trkpt lat="53.361041" lon="-1.650301"><ele>428</ele><time>2020-05-21T13:37:44Z</time><name>PT12117</name></trkpt>
<trkpt lat="53.361035" lon="-1.650292"><ele>428</ele><time>2020-05-21T13:37:45Z</time><name>PT12118</name></trkpt>
<trkpt lat="53.361029" lon="-1.650286"><ele>428</ele><time>2020-05-21T13:37:46Z</time><name>PT12119</name></trkpt>
<trkpt lat="53.361022" lon="-1.650278"><ele>428</ele><time>2020-05-21T13:37:47Z</time><name>PT12120</name></trkpt>
<trkpt lat="53.361016" lon="-1.650260"><ele>427</ele><time>2020-05-21T13:37:48Z</time><name>PT12121</name></trkpt>
<trkpt lat="53.361010" lon="-1.650238"><ele>427</ele><time>2020-05-21T13:37:49Z</time><name>PT12122</name></trkpt>
<trkpt lat="53.361002" lon="-1.650217"><ele>427</ele><time>2020-05-21T13:37:50Z</time><name>PT12123</name></trkpt>
<trkpt lat="53.360993" lon="-1.650190"><ele>427</ele><time>2020-05-21T13:37:51Z</time><name>PT12124</name></trkpt>
<trkpt lat="53.360985" lon="-1.650166"><ele>427</ele><time>2020-05-21T13:37:52Z</time><name>PT12125</name></trkpt>
<trkpt lat="53.360979" lon="-1.650153"><ele>427</ele><time>2020-05-21T13:37:53Z</time><name>PT12126</name></trkpt>
<trkpt lat="53.360975" lon="-1.650143"><ele>427</ele><time>2020-05-21T13:37:54Z</time><name>PT12127</name></trkpt>
<trkpt lat="53.360964" lon="-1.650129"><ele>426</ele><time>2020-05-21T13:37:55Z</time><name>PT12128</name></trkpt>
<trkpt lat="53.360952" lon="-1.650113"><ele>426</ele><time>2020-05-21T13:37:56Z</time><name>PT12129</name></trkpt>
<trkpt lat="53.360942" lon="-1.650090"><ele>427</ele><time>2020-05-21T13:37:57Z</time><name>PT12130</name></trkpt>
<trkpt lat="53.360934" lon="-1.650061"><ele>427</ele><time>2020-05-21T13:37:58Z</time><name>PT12131</name></trkpt>
<trkpt lat="53.360928" lon="-1.650040"><ele>427</ele><time>2020-05-21T13:37:59Z</time><name>PT12132</name></trkpt>
<trkpt lat="53.360925" lon="-1.650028"><ele>427</ele><time>2020-05-21T13:38:00Z</time><name>PT12133</name></trkpt>
<trkpt lat="53.360922" lon="-1.650017"><ele>427</ele><time>2020-05-21T13:38:01Z</time><name>PT12134</name></trkpt>
<trkpt lat="53.360918" lon="-1.650004"><ele>427</ele><time>2020-05-21T13:38:02Z</time><name>PT12135</name></trkpt>
<trkpt lat="53.360910" lon="-1.649986"><ele>427</ele><time>2020-05-21T13:38:03Z</time><name>PT12136</name></trkpt>
<trkpt lat="53.360903" lon="-1.649963"><ele>426</ele><time>2020-05-21T13:38:04Z</time><name>PT12137</name></trkpt>
<trkpt lat="53.360894" lon="-1.649940"><ele>427</ele><time>2020-05-21T13:38:05Z</time><name>PT12138</name></trkpt>
<trkpt lat="53.360884" lon="-1.649914"><ele>427</ele><time>2020-05-21T13:38:06Z</time><name>PT12139</name></trkpt>
<trkpt lat="53.360876" lon="-1.649890"><ele>426</ele><time>2020-05-21T13:38:07Z</time><name>PT12140</name></trkpt>
<trkpt lat="53.360871" lon="-1.649872"><ele>426</ele><time>2020-05-21T13:38:08Z</time><name>PT12141</name></trkpt>
<trkpt lat="53.360867" lon="-1.649859"><ele>426</ele><time>2020-05-21T13:38:09Z</time><name>PT12142</name></trkpt>
<trkpt lat="53.360862" lon="-1.649847"><ele>427</ele><time>2020-05-21T13:38:11Z</time><name>PT12143</name></trkpt>
<trkpt lat="53.360858" lon="-1.649830"><ele>426</ele><time>2020-05-21T13:38:11Z</time><name>PT12144</name></trkpt>
<trkpt lat="53.360854" lon="-1.649810"><ele>426</ele><time>2020-05-21T13:38:12Z</time><name>PT12145</name></trkpt>
<trkpt lat="53.360848" lon="-1.649793"><ele>426</ele><time>2020-05-21T13:38:13Z</time><name>PT12146</name></trkpt>
<trkpt lat="53.360839" lon="-1.649768"><ele>426</ele><time>2020-05-21T13:38:14Z</time><name>PT12147</name></trkpt>
<trkpt lat="53.360831" lon="-1.649750"><ele>426</ele><time>2020-05-21T13:38:15Z</time><name>PT12148</name></trkpt>
<trkpt lat="53.360827" lon="-1.649738"><ele>426</ele><time>2020-05-21T13:38:16Z</time><name>PT12149</name></trkpt>
<trkpt lat="53.360822" lon="-1.649729"><ele>426</ele><time>2020-05-21T13:38:17Z</time><name>PT12150</name></trkpt>
<trkpt lat="53.360816" lon="-1.649713"><ele>426</ele><time>2020-05-21T13:38:18Z</time><name>PT12151</name></trkpt>
<trkpt lat="53.360808" lon="-1.649694"><ele>425</ele><time>2020-05-21T13:38:19Z</time><name>PT12152</name></trkpt>
<trkpt lat="53.360803" lon="-1.649667"><ele>425</ele><time>2020-05-21T13:38:20Z</time><name>PT12153</name></trkpt>
<trkpt lat="53.360795" lon="-1.649640"><ele>425</ele><time>2020-05-21T13:38:21Z</time><name>PT12154</name></trkpt>
<trkpt lat="53.360784" lon="-1.649615"><ele>425</ele><time>2020-05-21T13:38:22Z</time><name>PT12155</name></trkpt>
<trkpt lat="53.360779" lon="-1.649600"><ele>425</ele><time>2020-05-21T13:38:23Z</time><name>PT12156</name></trkpt>
<trkpt lat="53.360775" lon="-1.649586"><ele>425</ele><time>2020-05-21T13:38:24Z</time><name>PT12157</name></trkpt>
<trkpt lat="53.360770" lon="-1.649571"><ele>424</ele><time>2020-05-21T13:38:25Z</time><name>PT12158</name></trkpt>
<trkpt lat="53.360762" lon="-1.649553"><ele>424</ele><time>2020-05-21T13:38:26Z</time><name>PT12159</name></trkpt>
<trkpt lat="53.360750" lon="-1.649531"><ele>424</ele><time>2020-05-21T13:38:27Z</time><name>PT12160</name></trkpt>
<trkpt lat="53.360737" lon="-1.649512"><ele>424</ele><time>2020-05-21T13:38:28Z</time><name>PT12161</name></trkpt>
<trkpt lat="53.360713" lon="-1.649482"><ele>424</ele><time>2020-05-21T13:38:30Z</time><name>PT12162</name></trkpt>
<trkpt lat="53.360707" lon="-1.649454"><ele>425</ele><time>2020-05-21T13:38:31Z</time><name>PT12163</name></trkpt>
<trkpt lat="53.360702" lon="-1.649425"><ele>425</ele><time>2020-05-21T13:38:32Z</time><name>PT12164</name></trkpt>
<trkpt lat="53.360700" lon="-1.649408"><ele>425</ele><time>2020-05-21T13:38:33Z</time><name>PT12165</name></trkpt>
<trkpt lat="53.360694" lon="-1.649394"><ele>426</ele><time>2020-05-21T13:38:34Z</time><name>PT12166</name></trkpt>
<trkpt lat="53.360685" lon="-1.649380"><ele>426</ele><time>2020-05-21T13:38:35Z</time><name>PT12167</name></trkpt>
<trkpt lat="53.360678" lon="-1.649364"><ele>426</ele><time>2020-05-21T13:38:36Z</time><name>PT12168</name></trkpt>
<trkpt lat="53.360672" lon="-1.649345"><ele>425</ele><time>2020-05-21T13:38:37Z</time><name>PT12169</name></trkpt>
<trkpt lat="53.360668" lon="-1.649329"><ele>425</ele><time>2020-05-21T13:38:38Z</time><name>PT12170</name></trkpt>
<trkpt lat="53.360661" lon="-1.649314"><ele>426</ele><time>2020-05-21T13:38:39Z</time><name>PT12171</name></trkpt>
<trkpt lat="53.360654" lon="-1.649300"><ele>426</ele><time>2020-05-21T13:38:40Z</time><name>PT12172</name></trkpt>
<trkpt lat="53.360647" lon="-1.649284"><ele>426</ele><time>2020-05-21T13:38:41Z</time><name>PT12173</name></trkpt>
<trkpt lat="53.360640" lon="-1.649270"><ele>426</ele><time>2020-05-21T13:38:42Z</time><name>PT12174</name></trkpt>
<trkpt lat="53.360633" lon="-1.649254"><ele>426</ele><time>2020-05-21T13:38:43Z</time><name>PT12175</name></trkpt>
<trkpt lat="53.360625" lon="-1.649237"><ele>425</ele><time>2020-05-21T13:38:44Z</time><name>PT12176</name></trkpt>
<trkpt lat="53.360618" lon="-1.649221"><ele>425</ele><time>2020-05-21T13:38:45Z</time><name>PT12177</name></trkpt>
<trkpt lat="53.360610" lon="-1.649199"><ele>426</ele><time>2020-05-21T13:38:46Z</time><name>PT12178</name></trkpt>
<trkpt lat="53.360601" lon="-1.649182"><ele>426</ele><time>2020-05-21T13:38:47Z</time><name>PT12179</name></trkpt>
<trkpt lat="53.360595" lon="-1.649162"><ele>426</ele><time>2020-05-21T13:38:48Z</time><name>PT12180</name></trkpt>
<trkpt lat="53.360588" lon="-1.649140"><ele>426</ele><time>2020-05-21T13:38:50Z</time><name>PT12181</name></trkpt>
<trkpt lat="53.360582" lon="-1.649127"><ele>426</ele><time>2020-05-21T13:38:50Z</time><name>PT12182</name></trkpt>
<trkpt lat="53.360578" lon="-1.649116"><ele>426</ele><time>2020-05-21T13:38:51Z</time><name>PT12183</name></trkpt>
<trkpt lat="53.360575" lon="-1.649093"><ele>426</ele><time>2020-05-21T13:38:52Z</time><name>PT12184</name></trkpt>
<trkpt lat="53.360573" lon="-1.649073"><ele>426</ele><time>2020-05-21T13:38:53Z</time><name>PT12185</name></trkpt>
<trkpt lat="53.360568" lon="-1.649054"><ele>426</ele><time>2020-05-21T13:38:54Z</time><name>PT12186</name></trkpt>
<trkpt lat="53.360561" lon="-1.649033"><ele>426</ele><time>2020-05-21T13:38:55Z</time><name>PT12187</name></trkpt>
<trkpt lat="53.360559" lon="-1.649016"><ele>427</ele><time>2020-05-21T13:38:56Z</time><name>PT12188</name></trkpt>
<trkpt lat="53.360557" lon="-1.649006"><ele>427</ele><time>2020-05-21T13:38:57Z</time><name>PT12189</name></trkpt>
<trkpt lat="53.360553" lon="-1.648997"><ele>427</ele><time>2020-05-21T13:38:58Z</time><name>PT12190</name></trkpt>
<trkpt lat="53.360549" lon="-1.648981"><ele>428</ele><time>2020-05-21T13:38:59Z</time><name>PT12191</name></trkpt>
<trkpt lat="53.360543" lon="-1.648960"><ele>428</ele><time>2020-05-21T13:39:00Z</time><name>PT12192</name></trkpt>
<trkpt lat="53.360535" lon="-1.648940"><ele>428</ele><time>2020-05-21T13:39:01Z</time><name>PT12193</name></trkpt>
<trkpt lat="53.360527" lon="-1.648919"><ele>428</ele><time>2020-05-21T13:39:02Z</time><name>PT12194</name></trkpt>
<trkpt lat="53.360522" lon="-1.648904"><ele>428</ele><time>2020-05-21T13:39:03Z</time><name>PT12195</name></trkpt>
<trkpt lat="53.360516" lon="-1.648892"><ele>427</ele><time>2020-05-21T13:39:04Z</time><name>PT12196</name></trkpt>
<trkpt lat="53.360512" lon="-1.648871"><ele>427</ele><time>2020-05-21T13:39:05Z</time><name>PT12197</name></trkpt>
<trkpt lat="53.360504" lon="-1.648851"><ele>427</ele><time>2020-05-21T13:39:06Z</time><name>PT12198</name></trkpt>
<trkpt lat="53.360499" lon="-1.648829"><ele>427</ele><time>2020-05-21T13:39:07Z</time><name>PT12199</name></trkpt>
<trkpt lat="53.360496" lon="-1.648805"><ele>427</ele><time>2020-05-21T13:39:08Z</time><name>PT12200</name></trkpt>
<trkpt lat="53.360492" lon="-1.648780"><ele>426</ele><time>2020-05-21T13:39:09Z</time><name>PT12201</name></trkpt>
<trkpt lat="53.360487" lon="-1.648764"><ele>426</ele><time>2020-05-21T13:39:10Z</time><name>PT12202</name></trkpt>
<trkpt lat="53.360483" lon="-1.648754"><ele>426</ele><time>2020-05-21T13:39:11Z</time><name>PT12203</name></trkpt>
<trkpt lat="53.360477" lon="-1.648741"><ele>425</ele><time>2020-05-21T13:39:12Z</time><name>PT12204</name></trkpt>
<trkpt lat="53.360475" lon="-1.648724"><ele>425</ele><time>2020-05-21T13:39:13Z</time><name>PT12205</name></trkpt>
<trkpt lat="53.360472" lon="-1.648709"><ele>425</ele><time>2020-05-21T13:39:14Z</time><name>PT12206</name></trkpt>
<trkpt lat="53.360465" lon="-1.648688"><ele>425</ele><time>2020-05-21T13:39:15Z</time><name>PT12207</name></trkpt>
<trkpt lat="53.360458" lon="-1.648667"><ele>426</ele><time>2020-05-21T13:39:16Z</time><name>PT12208</name></trkpt>
<trkpt lat="53.360456" lon="-1.648655"><ele>425</ele><time>2020-05-21T13:39:17Z</time><name>PT12209</name></trkpt>
<trkpt lat="53.360452" lon="-1.648644"><ele>424</ele><time>2020-05-21T13:39:18Z</time><name>PT12210</name></trkpt>
<trkpt lat="53.360445" lon="-1.648629"><ele>424</ele><time>2020-05-21T13:39:19Z</time><name>PT12211</name></trkpt>
<trkpt lat="53.360440" lon="-1.648608"><ele>424</ele><time>2020-05-21T13:39:20Z</time><name>PT12212</name></trkpt>
<trkpt lat="53.360434" lon="-1.648586"><ele>424</ele><time>2020-05-21T13:39:21Z</time><name>PT12213</name></trkpt>
<trkpt lat="53.360426" lon="-1.648564"><ele>424</ele><time>2020-05-21T13:39:22Z</time><name>PT12214</name></trkpt>
<trkpt lat="53.360418" lon="-1.648545"><ele>424</ele><time>2020-05-21T13:39:23Z</time><name>PT12215</name></trkpt>
<trkpt lat="53.360413" lon="-1.648534"><ele>424</ele><time>2020-05-21T13:39:24Z</time><name>PT12216</name></trkpt>
<trkpt lat="53.360407" lon="-1.648531"><ele>424</ele><time>2020-05-21T13:39:25Z</time><name>PT12217</name></trkpt>
<trkpt lat="53.360399" lon="-1.648521"><ele>423</ele><time>2020-05-21T13:39:26Z</time><name>PT12218</name></trkpt>
<trkpt lat="53.360393" lon="-1.648506"><ele>423</ele><time>2020-05-21T13:39:27Z</time><name>PT12219</name></trkpt>
<trkpt lat="53.360383" lon="-1.648488"><ele>422</ele><time>2020-05-21T13:39:28Z</time><name>PT12220</name></trkpt>
<trkpt lat="53.360371" lon="-1.648471"><ele>422</ele><time>2020-05-21T13:39:29Z</time><name>PT12221</name></trkpt>
<trkpt lat="53.360359" lon="-1.648457"><ele>422</ele><time>2020-05-21T13:39:30Z</time><name>PT12222</name></trkpt>
<trkpt lat="53.360352" lon="-1.648450"><ele>422</ele><time>2020-05-21T13:39:31Z</time><name>PT12223</name></trkpt>
<trkpt lat="53.360343" lon="-1.648445"><ele>421</ele><time>2020-05-21T13:39:32Z</time><name>PT12224</name></trkpt>
<trkpt lat="53.360337" lon="-1.648427"><ele>421</ele><time>2020-05-21T13:39:33Z</time><name>PT12225</name></trkpt>
<trkpt lat="53.360332" lon="-1.648408"><ele>421</ele><time>2020-05-21T13:39:34Z</time><name>PT12226</name></trkpt>
<trkpt lat="53.360323" lon="-1.648392"><ele>420</ele><time>2020-05-21T13:39:35Z</time><name>PT12227</name></trkpt>
<trkpt lat="53.360314" lon="-1.648376"><ele>420</ele><time>2020-05-21T13:39:36Z</time><name>PT12228</name></trkpt>
<trkpt lat="53.360308" lon="-1.648367"><ele>420</ele><time>2020-05-21T13:39:37Z</time><name>PT12229</name></trkpt>
<trkpt lat="53.360303" lon="-1.648359"><ele>420</ele><time>2020-05-21T13:39:38Z</time><name>PT12230</name></trkpt>
<trkpt lat="53.360293" lon="-1.648342"><ele>417</ele><time>2020-05-21T13:39:39Z</time><name>PT12231</name></trkpt>
<trkpt lat="53.360282" lon="-1.648334"><ele>418</ele><time>2020-05-21T13:39:40Z</time><name>PT12232</name></trkpt>
<trkpt lat="53.360272" lon="-1.648324"><ele>417</ele><time>2020-05-21T13:39:41Z</time><name>PT12233</name></trkpt>
<trkpt lat="53.360263" lon="-1.648307"><ele>417</ele><time>2020-05-21T13:39:42Z</time><name>PT12234</name></trkpt>
<trkpt lat="53.360259" lon="-1.648282"><ele>417</ele><time>2020-05-21T13:39:43Z</time><name>PT12235</name></trkpt>
<trkpt lat="53.360253" lon="-1.648259"><ele>417</ele><time>2020-05-21T13:39:44Z</time><name>PT12236</name></trkpt>
<trkpt lat="53.360248" lon="-1.648245"><ele>417</ele><time>2020-05-21T13:39:45Z</time><name>PT12237</name></trkpt>
<trkpt lat="53.360246" lon="-1.648230"><ele>417</ele><time>2020-05-21T13:39:46Z</time><name>PT12238</name></trkpt>
<trkpt lat="53.360245" lon="-1.648222"><ele>417</ele><time>2020-05-21T13:39:47Z</time><name>PT12239</name></trkpt>
<trkpt lat="53.360237" lon="-1.648210"><ele>416</ele><time>2020-05-21T13:39:48Z</time><name>PT12240</name></trkpt>
<trkpt lat="53.360233" lon="-1.648198"><ele>415</ele><time>2020-05-21T13:39:49Z</time><name>PT12241</name></trkpt>
<trkpt lat="53.360229" lon="-1.648180"><ele>415</ele><time>2020-05-21T13:39:50Z</time><name>PT12242</name></trkpt>
<trkpt lat="53.360224" lon="-1.648163"><ele>415</ele><time>2020-05-21T13:39:51Z</time><name>PT12243</name></trkpt>
<trkpt lat="53.360223" lon="-1.648144"><ele>415</ele><time>2020-05-21T13:39:52Z</time><name>PT12244</name></trkpt>
<trkpt lat="53.360218" lon="-1.648123"><ele>415</ele><time>2020-05-21T13:39:53Z</time><name>PT12245</name></trkpt>
<trkpt lat="53.360216" lon="-1.648107"><ele>415</ele><time>2020-05-21T13:39:54Z</time><name>PT12246</name></trkpt>
<trkpt lat="53.360214" lon="-1.648097"><ele>415</ele><time>2020-05-21T13:39:55Z</time><name>PT12247</name></trkpt>
<trkpt lat="53.360211" lon="-1.648081"><ele>415</ele><time>2020-05-21T13:39:56Z</time><name>PT12248</name></trkpt>
<trkpt lat="53.360208" lon="-1.648063"><ele>414</ele><time>2020-05-21T13:39:57Z</time><name>PT12249</name></trkpt>
<trkpt lat="53.360210" lon="-1.648036"><ele>414</ele><time>2020-05-21T13:39:58Z</time><name>PT12250</name></trkpt>
<trkpt lat="53.360208" lon="-1.648006"><ele>414</ele><time>2020-05-21T13:39:59Z</time><name>PT12251</name></trkpt>
<trkpt lat="53.360208" lon="-1.647987"><ele>414</ele><time>2020-05-21T13:40:00Z</time><name>PT12252</name></trkpt>
<trkpt lat="53.360211" lon="-1.647978"><ele>414</ele><time>2020-05-21T13:40:01Z</time><name>PT12253</name></trkpt>
<trkpt lat="53.360211" lon="-1.647966"><ele>414</ele><time>2020-05-21T13:40:02Z</time><name>PT12254</name></trkpt>
<trkpt lat="53.360209" lon="-1.647956"><ele>414</ele><time>2020-05-21T13:40:03Z</time><name>PT12255</name></trkpt>
<trkpt lat="53.360209" lon="-1.647935"><ele>414</ele><time>2020-05-21T13:40:04Z</time><name>PT12256</name></trkpt>
<trkpt lat="53.360208" lon="-1.647911"><ele>414</ele><time>2020-05-21T13:40:05Z</time><name>PT12257</name></trkpt>
<trkpt lat="53.360209" lon="-1.647888"><ele>414</ele><time>2020-05-21T13:40:06Z</time><name>PT12258</name></trkpt>
<trkpt lat="53.360209" lon="-1.647871"><ele>414</ele><time>2020-05-21T13:40:07Z</time><name>PT12259</name></trkpt>
<trkpt lat="53.360209" lon="-1.647859"><ele>414</ele><time>2020-05-21T13:40:08Z</time><name>PT12260</name></trkpt>
<trkpt lat="53.360209" lon="-1.647852"><ele>414</ele><time>2020-05-21T13:40:09Z</time><name>PT12261</name></trkpt>
<trkpt lat="53.360210" lon="-1.647851"><ele>414</ele><time>2020-05-21T13:40:10Z</time><name>PT12262</name></trkpt>
<trkpt lat="53.360209" lon="-1.647849"><ele>414</ele><time>2020-05-21T13:40:11Z</time><name>PT12263</name></trkpt>
<trkpt lat="53.360209" lon="-1.647844"><ele>414</ele><time>2020-05-21T13:40:12Z</time><name>PT12264</name></trkpt>
<trkpt lat="53.360206" lon="-1.647834"><ele>414</ele><time>2020-05-21T13:40:13Z</time><name>PT12265</name></trkpt>
<trkpt lat="53.360204" lon="-1.647824"><ele>414</ele><time>2020-05-21T13:40:14Z</time><name>PT12266</name></trkpt>
<trkpt lat="53.360198" lon="-1.647805"><ele>414</ele><time>2020-05-21T13:40:15Z</time><name>PT12267</name></trkpt>
<trkpt lat="53.360197" lon="-1.647785"><ele>414</ele><time>2020-05-21T13:40:16Z</time><name>PT12268</name></trkpt>
<trkpt lat="53.360193" lon="-1.647767"><ele>414</ele><time>2020-05-21T13:40:17Z</time><name>PT12269</name></trkpt>
<trkpt lat="53.360187" lon="-1.647745"><ele>414</ele><time>2020-05-21T13:40:18Z</time><name>PT12270</name></trkpt>
<trkpt lat="53.360181" lon="-1.647721"><ele>414</ele><time>2020-05-21T13:40:19Z</time><name>PT12271</name></trkpt>
<trkpt lat="53.360178" lon="-1.647700"><ele>414</ele><time>2020-05-21T13:40:20Z</time><name>PT12272</name></trkpt>
<trkpt lat="53.360177" lon="-1.647686"><ele>414</ele><time>2020-05-21T13:40:21Z</time><name>PT12273</name></trkpt>
<trkpt lat="53.360178" lon="-1.647670"><ele>414</ele><time>2020-05-21T13:40:22Z</time><name>PT12274</name></trkpt>
<trkpt lat="53.360177" lon="-1.647645"><ele>414</ele><time>2020-05-21T13:40:23Z</time><name>PT12275</name></trkpt>
<trkpt lat="53.360172" lon="-1.647624"><ele>414</ele><time>2020-05-21T13:40:24Z</time><name>PT12276</name></trkpt>
<trkpt lat="53.360169" lon="-1.647599"><ele>414</ele><time>2020-05-21T13:40:25Z</time><name>PT12277</name></trkpt>
<trkpt lat="53.360168" lon="-1.647571"><ele>414</ele><time>2020-05-21T13:40:26Z</time><name>PT12278</name></trkpt>
<trkpt lat="53.360166" lon="-1.647541"><ele>415</ele><time>2020-05-21T13:40:27Z</time><name>PT12279</name></trkpt>
<trkpt lat="53.360163" lon="-1.647524"><ele>415</ele><time>2020-05-21T13:40:28Z</time><name>PT12280</name></trkpt>
<trkpt lat="53.360163" lon="-1.647513"><ele>415</ele><time>2020-05-21T13:40:29Z</time><name>PT12281</name></trkpt>
<trkpt lat="53.360164" lon="-1.647497"><ele>415</ele><time>2020-05-21T13:40:30Z</time><name>PT12282</name></trkpt>
<trkpt lat="53.360159" lon="-1.647473"><ele>415</ele><time>2020-05-21T13:40:31Z</time><name>PT12283</name></trkpt>
<trkpt lat="53.360151" lon="-1.647442"><ele>415</ele><time>2020-05-21T13:40:32Z</time><name>PT12284</name></trkpt>
<trkpt lat="53.360144" lon="-1.647426"><ele>415</ele><time>2020-05-21T13:40:33Z</time><name>PT12285</name></trkpt>
<trkpt lat="53.360139" lon="-1.647414"><ele>416</ele><time>2020-05-21T13:40:35Z</time><name>PT12286</name></trkpt>
<trkpt lat="53.360132" lon="-1.647405"><ele>416</ele><time>2020-05-21T13:40:35Z</time><name>PT12287</name></trkpt>
<trkpt lat="53.360125" lon="-1.647392"><ele>416</ele><time>2020-05-21T13:40:36Z</time><name>PT12288</name></trkpt>
<trkpt lat="53.360118" lon="-1.647381"><ele>417</ele><time>2020-05-21T13:40:37Z</time><name>PT12289</name></trkpt>
<trkpt lat="53.360107" lon="-1.647374"><ele>417</ele><time>2020-05-21T13:40:38Z</time><name>PT12290</name></trkpt>
<trkpt lat="53.360100" lon="-1.647367"><ele>417</ele><time>2020-05-21T13:40:39Z</time><name>PT12291</name></trkpt>
<trkpt lat="53.360095" lon="-1.647361"><ele>417</ele><time>2020-05-21T13:40:40Z</time><name>PT12292</name></trkpt>
<trkpt lat="53.360082" lon="-1.647353"><ele>417</ele><time>2020-05-21T13:40:41Z</time><name>PT12293</name></trkpt>
<trkpt lat="53.360071" lon="-1.647339"><ele>417</ele><time>2020-05-21T13:40:42Z</time><name>PT12294</name></trkpt>
<trkpt lat="53.360058" lon="-1.647326"><ele>417</ele><time>2020-05-21T13:40:43Z</time><name>PT12295</name></trkpt>
<trkpt lat="53.360050" lon="-1.647317"><ele>417</ele><time>2020-05-21T13:40:44Z</time><name>PT12296</name></trkpt>
<trkpt lat="53.360040" lon="-1.647318"><ele>417</ele><time>2020-05-21T13:40:45Z</time><name>PT12297</name></trkpt>
<trkpt lat="53.360031" lon="-1.647312"><ele>417</ele><time>2020-05-21T13:40:46Z</time><name>PT12298</name></trkpt>
<trkpt lat="53.360018" lon="-1.647305"><ele>417</ele><time>2020-05-21T13:40:47Z</time><name>PT12299</name></trkpt>
<trkpt lat="53.360006" lon="-1.647295"><ele>417</ele><time>2020-05-21T13:40:48Z</time><name>PT12300</name></trkpt>
<trkpt lat="53.359992" lon="-1.647285"><ele>417</ele><time>2020-05-21T13:40:49Z</time><name>PT12301</name></trkpt>
<trkpt lat="53.359982" lon="-1.647274"><ele>417</ele><time>2020-05-21T13:40:50Z</time><name>PT12302</name></trkpt>
<trkpt lat="53.359977" lon="-1.647271"><ele>416</ele><time>2020-05-21T13:40:51Z</time><name>PT12303</name></trkpt>
<trkpt lat="53.359971" lon="-1.647265"><ele>416</ele><time>2020-05-21T13:40:52Z</time><name>PT12304</name></trkpt>
<trkpt lat="53.359962" lon="-1.647255"><ele>416</ele><time>2020-05-21T13:40:53Z</time><name>PT12305</name></trkpt>
<trkpt lat="53.359951" lon="-1.647242"><ele>416</ele><time>2020-05-21T13:40:54Z</time><name>PT12306</name></trkpt>
<trkpt lat="53.359939" lon="-1.647234"><ele>417</ele><time>2020-05-21T13:40:55Z</time><name>PT12307</name></trkpt>
<trkpt lat="53.359931" lon="-1.647222"><ele>417</ele><time>2020-05-21T13:40:56Z</time><name>PT12308</name></trkpt>
<trkpt lat="53.359923" lon="-1.647213"><ele>417</ele><time>2020-05-21T13:40:57Z</time><name>PT12309</name></trkpt>
<trkpt lat="53.359915" lon="-1.647209"><ele>416</ele><time>2020-05-21T13:40:58Z</time><name>PT12310</name></trkpt>
<trkpt lat="53.359909" lon="-1.647199"><ele>417</ele><time>2020-05-21T13:40:59Z</time><name>PT12311</name></trkpt>
<trkpt lat="53.359898" lon="-1.647184"><ele>416</ele><time>2020-05-21T13:41:00Z</time><name>PT12312</name></trkpt>
<trkpt lat="53.359890" lon="-1.647173"><ele>417</ele><time>2020-05-21T13:41:01Z</time><name>PT12313</name></trkpt>
<trkpt lat="53.359882" lon="-1.647164"><ele>416</ele><time>2020-05-21T13:41:02Z</time><name>PT12314</name></trkpt>
<trkpt lat="53.359875" lon="-1.647155"><ele>416</ele><time>2020-05-21T13:41:03Z</time><name>PT12315</name></trkpt>
<trkpt lat="53.359866" lon="-1.647142"><ele>417</ele><time>2020-05-21T13:41:04Z</time><name>PT12316</name></trkpt>
<trkpt lat="53.359855" lon="-1.647124"><ele>417</ele><time>2020-05-21T13:41:05Z</time><name>PT12317</name></trkpt>
<trkpt lat="53.359846" lon="-1.647115"><ele>416</ele><time>2020-05-21T13:41:06Z</time><name>PT12318</name></trkpt>
<trkpt lat="53.359836" lon="-1.647116"><ele>417</ele><time>2020-05-21T13:41:07Z</time><name>PT12319</name></trkpt>
<trkpt lat="53.359825" lon="-1.647104"><ele>417</ele><time>2020-05-21T13:41:08Z</time><name>PT12320</name></trkpt>
<trkpt lat="53.359812" lon="-1.647089"><ele>417</ele><time>2020-05-21T13:41:09Z</time><name>PT12321</name></trkpt>
<trkpt lat="53.359799" lon="-1.647078"><ele>417</ele><time>2020-05-21T13:41:10Z</time><name>PT12322</name></trkpt>
<trkpt lat="53.359793" lon="-1.647068"><ele>417</ele><time>2020-05-21T13:41:11Z</time><name>PT12323</name></trkpt>
<trkpt lat="53.359788" lon="-1.647064"><ele>417</ele><time>2020-05-21T13:41:12Z</time><name>PT12324</name></trkpt>
<trkpt lat="53.359787" lon="-1.647060"><ele>417</ele><time>2020-05-21T13:41:13Z</time><name>PT12325</name></trkpt>
<trkpt lat="53.359786" lon="-1.647052"><ele>417</ele><time>2020-05-21T13:41:14Z</time><name>PT12326</name></trkpt>
<trkpt lat="53.359785" lon="-1.647049"><ele>417</ele><time>2020-05-21T13:41:15Z</time><name>PT12327</name></trkpt>
<trkpt lat="53.359783" lon="-1.647044"><ele>417</ele><time>2020-05-21T13:41:16Z</time><name>PT12328</name></trkpt>
<trkpt lat="53.359781" lon="-1.647032"><ele>416</ele><time>2020-05-21T13:41:17Z</time><name>PT12329</name></trkpt>
<trkpt lat="53.359780" lon="-1.647026"><ele>416</ele><time>2020-05-21T13:41:18Z</time><name>PT12330</name></trkpt>
<trkpt lat="53.359779" lon="-1.647026"><ele>416</ele><time>2020-05-21T13:41:19Z</time><name>PT12331</name></trkpt>
<trkpt lat="53.359779" lon="-1.647029"><ele>415</ele><time>2020-05-21T13:41:20Z</time><name>PT12332</name></trkpt>
<trkpt lat="53.359779" lon="-1.647033"><ele>415</ele><time>2020-05-21T13:41:21Z</time><name>PT12333</name></trkpt>
<trkpt lat="53.359779" lon="-1.647023"><ele>415</ele><time>2020-05-21T13:41:22Z</time><name>PT12334</name></trkpt>
<trkpt lat="53.359777" lon="-1.647018"><ele>415</ele><time>2020-05-21T13:41:23Z</time><name>PT12335</name></trkpt>
<trkpt lat="53.359774" lon="-1.647006"><ele>415</ele><time>2020-05-21T13:41:24Z</time><name>PT12336</name></trkpt>
<trkpt lat="53.359769" lon="-1.646995"><ele>415</ele><time>2020-05-21T13:41:25Z</time><name>PT12337</name></trkpt>
<trkpt lat="53.359769" lon="-1.646987"><ele>414</ele><time>2020-05-21T13:41:26Z</time><name>PT12338</name></trkpt>
<trkpt lat="53.359766" lon="-1.646968"><ele>414</ele><time>2020-05-21T13:41:27Z</time><name>PT12339</name></trkpt>
<trkpt lat="53.359762" lon="-1.646956"><ele>415</ele><time>2020-05-21T13:41:28Z</time><name>PT12340</name></trkpt>
<trkpt lat="53.359758" lon="-1.646948"><ele>414</ele><time>2020-05-21T13:41:29Z</time><name>PT12341</name></trkpt>
<trkpt lat="53.359752" lon="-1.646933"><ele>415</ele><time>2020-05-21T13:41:30Z</time><name>PT12342</name></trkpt>
<trkpt lat="53.359746" lon="-1.646918"><ele>414</ele><time>2020-05-21T13:41:31Z</time><name>PT12343</name></trkpt>
<trkpt lat="53.359740" lon="-1.646914"><ele>414</ele><time>2020-05-21T13:41:32Z</time><name>PT12344</name></trkpt>
<trkpt lat="53.359734" lon="-1.646904"><ele>414</ele><time>2020-05-21T13:41:33Z</time><name>PT12345</name></trkpt>
<trkpt lat="53.359723" lon="-1.646893"><ele>414</ele><time>2020-05-21T13:41:34Z</time><name>PT12346</name></trkpt>
<trkpt lat="53.359710" lon="-1.646872"><ele>414</ele><time>2020-05-21T13:41:35Z</time><name>PT12347</name></trkpt>
<trkpt lat="53.359704" lon="-1.646860"><ele>414</ele><time>2020-05-21T13:41:36Z</time><name>PT12348</name></trkpt>
<trkpt lat="53.359702" lon="-1.646842"><ele>414</ele><time>2020-05-21T13:41:37Z</time><name>PT12349</name></trkpt>
<trkpt lat="53.359697" lon="-1.646826"><ele>414</ele><time>2020-05-21T13:41:38Z</time><name>PT12350</name></trkpt>
<trkpt lat="53.359685" lon="-1.646811"><ele>415</ele><time>2020-05-21T13:41:39Z</time><name>PT12351</name></trkpt>
<trkpt lat="53.359675" lon="-1.646796"><ele>415</ele><time>2020-05-21T13:41:40Z</time><name>PT12352</name></trkpt>
<trkpt lat="53.359671" lon="-1.646788"><ele>415</ele><time>2020-05-21T13:41:41Z</time><name>PT12353</name></trkpt>
<trkpt lat="53.359664" lon="-1.646774"><ele>414</ele><time>2020-05-21T13:41:42Z</time><name>PT12354</name></trkpt>
<trkpt lat="53.359657" lon="-1.646758"><ele>414</ele><time>2020-05-21T13:41:43Z</time><name>PT12355</name></trkpt>
<trkpt lat="53.359647" lon="-1.646740"><ele>414</ele><time>2020-05-21T13:41:44Z</time><name>PT12356</name></trkpt>
<trkpt lat="53.359641" lon="-1.646731"><ele>414</ele><time>2020-05-21T13:41:45Z</time><name>PT12357</name></trkpt>
<trkpt lat="53.359640" lon="-1.646727"><ele>415</ele><time>2020-05-21T13:41:46Z</time><name>PT12358</name></trkpt>
<trkpt lat="53.359633" lon="-1.646716"><ele>415</ele><time>2020-05-21T13:41:47Z</time><name>PT12359</name></trkpt>
<trkpt lat="53.359624" lon="-1.646699"><ele>415</ele><time>2020-05-21T13:41:48Z</time><name>PT12360</name></trkpt>
<trkpt lat="53.359616" lon="-1.646680"><ele>415</ele><time>2020-05-21T13:41:49Z</time><name>PT12361</name></trkpt>
<trkpt lat="53.359612" lon="-1.646672"><ele>416</ele><time>2020-05-21T13:41:50Z</time><name>PT12362</name></trkpt>
<trkpt lat="53.359604" lon="-1.646661"><ele>415</ele><time>2020-05-21T13:41:51Z</time><name>PT12363</name></trkpt>
<trkpt lat="53.359596" lon="-1.646644"><ele>416</ele><time>2020-05-21T13:41:52Z</time><name>PT12364</name></trkpt>
<trkpt lat="53.359584" lon="-1.646624"><ele>416</ele><time>2020-05-21T13:41:53Z</time><name>PT12365</name></trkpt>
<trkpt lat="53.359574" lon="-1.646597"><ele>415</ele><time>2020-05-21T13:41:54Z</time><name>PT12366</name></trkpt>
<trkpt lat="53.359568" lon="-1.646576"><ele>415</ele><time>2020-05-21T13:41:55Z</time><name>PT12367</name></trkpt>
<trkpt lat="53.359562" lon="-1.646564"><ele>415</ele><time>2020-05-21T13:41:56Z</time><name>PT12368</name></trkpt>
<trkpt lat="53.359555" lon="-1.646555"><ele>415</ele><time>2020-05-21T13:41:57Z</time><name>PT12369</name></trkpt>
<trkpt lat="53.359543" lon="-1.646541"><ele>416</ele><time>2020-05-21T13:41:58Z</time><name>PT12370</name></trkpt>
<trkpt lat="53.359535" lon="-1.646521"><ele>415</ele><time>2020-05-21T13:41:59Z</time><name>PT12371</name></trkpt>
<trkpt lat="53.359523" lon="-1.646502"><ele>416</ele><time>2020-05-21T13:42:00Z</time><name>PT12372</name></trkpt>
<trkpt lat="53.359512" lon="-1.646486"><ele>416</ele><time>2020-05-21T13:42:01Z</time><name>PT12373</name></trkpt>
<trkpt lat="53.359505" lon="-1.646478"><ele>417</ele><time>2020-05-21T13:42:02Z</time><name>PT12374</name></trkpt>
<trkpt lat="53.359500" lon="-1.646468"><ele>417</ele><time>2020-05-21T13:42:03Z</time><name>PT12375</name></trkpt>
<trkpt lat="53.359494" lon="-1.646451"><ele>416</ele><time>2020-05-21T13:42:04Z</time><name>PT12376</name></trkpt>
<trkpt lat="53.359487" lon="-1.646431"><ele>417</ele><time>2020-05-21T13:42:05Z</time><name>PT12377</name></trkpt>
<trkpt lat="53.359480" lon="-1.646409"><ele>417</ele><time>2020-05-21T13:42:06Z</time><name>PT12378</name></trkpt>
<trkpt lat="53.359473" lon="-1.646384"><ele>417</ele><time>2020-05-21T13:42:07Z</time><name>PT12379</name></trkpt>
<trkpt lat="53.359469" lon="-1.646364"><ele>417</ele><time>2020-05-21T13:42:08Z</time><name>PT12380</name></trkpt>
<trkpt lat="53.359468" lon="-1.646351"><ele>417</ele><time>2020-05-21T13:42:09Z</time><name>PT12381</name></trkpt>
<trkpt lat="53.359466" lon="-1.646335"><ele>417</ele><time>2020-05-21T13:42:10Z</time><name>PT12382</name></trkpt>
<trkpt lat="53.359461" lon="-1.646322"><ele>418</ele><time>2020-05-21T13:42:11Z</time><name>PT12383</name></trkpt>
<trkpt lat="53.359456" lon="-1.646304"><ele>418</ele><time>2020-05-21T13:42:12Z</time><name>PT12384</name></trkpt>
<trkpt lat="53.359448" lon="-1.646284"><ele>419</ele><time>2020-05-21T13:42:13Z</time><name>PT12385</name></trkpt>
<trkpt lat="53.359443" lon="-1.646263"><ele>418</ele><time>2020-05-21T13:42:14Z</time><name>PT12386</name></trkpt>
<trkpt lat="53.359440" lon="-1.646253"><ele>419</ele><time>2020-05-21T13:42:15Z</time><name>PT12387</name></trkpt>
<trkpt lat="53.359437" lon="-1.646235"><ele>419</ele><time>2020-05-21T13:42:16Z</time><name>PT12388</name></trkpt>
<trkpt lat="53.359433" lon="-1.646214"><ele>419</ele><time>2020-05-21T13:42:17Z</time><name>PT12389</name></trkpt>
<trkpt lat="53.359427" lon="-1.646194"><ele>419</ele><time>2020-05-21T13:42:18Z</time><name>PT12390</name></trkpt>
<trkpt lat="53.359416" lon="-1.646176"><ele>419</ele><time>2020-05-21T13:42:19Z</time><name>PT12391</name></trkpt>
<trkpt lat="53.359407" lon="-1.646158"><ele>419</ele><time>2020-05-21T13:42:20Z</time><name>PT12392</name></trkpt>
<trkpt lat="53.359402" lon="-1.646146"><ele>420</ele><time>2020-05-21T13:42:21Z</time><name>PT12393</name></trkpt>
<trkpt lat="53.359395" lon="-1.646133"><ele>419</ele><time>2020-05-21T13:42:22Z</time><name>PT12394</name></trkpt>
<trkpt lat="53.359389" lon="-1.646114"><ele>419</ele><time>2020-05-21T13:42:23Z</time><name>PT12395</name></trkpt>
<trkpt lat="53.359383" lon="-1.646093"><ele>419</ele><time>2020-05-21T13:42:24Z</time><name>PT12396</name></trkpt>
<trkpt lat="53.359379" lon="-1.646064"><ele>419</ele><time>2020-05-21T13:42:25Z</time><name>PT12397</name></trkpt>
<trkpt lat="53.359374" lon="-1.646043"><ele>419</ele><time>2020-05-21T13:42:26Z</time><name>PT12398</name></trkpt>
<trkpt lat="53.359370" lon="-1.646029"><ele>419</ele><time>2020-05-21T13:42:27Z</time><name>PT12399</name></trkpt>
<trkpt lat="53.359366" lon="-1.646014"><ele>418</ele><time>2020-05-21T13:42:28Z</time><name>PT12400</name></trkpt>
<trkpt lat="53.359359" lon="-1.645997"><ele>418</ele><time>2020-05-21T13:42:29Z</time><name>PT12401</name></trkpt>
<trkpt lat="53.359352" lon="-1.645974"><ele>418</ele><time>2020-05-21T13:42:30Z</time><name>PT12402</name></trkpt>
<trkpt lat="53.359340" lon="-1.645954"><ele>418</ele><time>2020-05-21T13:42:31Z</time><name>PT12403</name></trkpt>
<trkpt lat="53.359330" lon="-1.645942"><ele>418</ele><time>2020-05-21T13:42:32Z</time><name>PT12404</name></trkpt>
<trkpt lat="53.359330" lon="-1.645931"><ele>418</ele><time>2020-05-21T13:42:33Z</time><name>PT12405</name></trkpt>
<trkpt lat="53.359328" lon="-1.645916"><ele>418</ele><time>2020-05-21T13:42:34Z</time><name>PT12406</name></trkpt>
<trkpt lat="53.359319" lon="-1.645904"><ele>419</ele><time>2020-05-21T13:42:35Z</time><name>PT12407</name></trkpt>
<trkpt lat="53.359311" lon="-1.645890"><ele>419</ele><time>2020-05-21T13:42:36Z</time><name>PT12408</name></trkpt>
<trkpt lat="53.359308" lon="-1.645877"><ele>419</ele><time>2020-05-21T13:42:37Z</time><name>PT12409</name></trkpt>
<trkpt lat="53.359306" lon="-1.645865"><ele>419</ele><time>2020-05-21T13:42:38Z</time><name>PT12410</name></trkpt>
<trkpt lat="53.359303" lon="-1.645851"><ele>419</ele><time>2020-05-21T13:42:39Z</time><name>PT12411</name></trkpt>
<trkpt lat="53.359296" lon="-1.645836"><ele>419</ele><time>2020-05-21T13:42:40Z</time><name>PT12412</name></trkpt>
<trkpt lat="53.359289" lon="-1.645826"><ele>419</ele><time>2020-05-21T13:42:41Z</time><name>PT12413</name></trkpt>
<trkpt lat="53.359284" lon="-1.645812"><ele>420</ele><time>2020-05-21T13:42:42Z</time><name>PT12414</name></trkpt>
<trkpt lat="53.359275" lon="-1.645799"><ele>420</ele><time>2020-05-21T13:42:43Z</time><name>PT12415</name></trkpt>
<trkpt lat="53.359265" lon="-1.645780"><ele>419</ele><time>2020-05-21T13:42:44Z</time><name>PT12416</name></trkpt>
<trkpt lat="53.359258" lon="-1.645768"><ele>419</ele><time>2020-05-21T13:42:46Z</time><name>PT12417</name></trkpt>
<trkpt lat="53.359249" lon="-1.645759"><ele>420</ele><time>2020-05-21T13:42:46Z</time><name>PT12418</name></trkpt>
<trkpt lat="53.359240" lon="-1.645741"><ele>421</ele><time>2020-05-21T13:42:47Z</time><name>PT12419</name></trkpt>
<trkpt lat="53.359235" lon="-1.645717"><ele>422</ele><time>2020-05-21T13:42:48Z</time><name>PT12420</name></trkpt>
<trkpt lat="53.359230" lon="-1.645696"><ele>422</ele><time>2020-05-21T13:42:49Z</time><name>PT12421</name></trkpt>
<trkpt lat="53.359220" lon="-1.645674"><ele>422</ele><time>2020-05-21T13:42:50Z</time><name>PT12422</name></trkpt>
<trkpt lat="53.359214" lon="-1.645661"><ele>422</ele><time>2020-05-21T13:42:51Z</time><name>PT12423</name></trkpt>
<trkpt lat="53.359211" lon="-1.645652"><ele>422</ele><time>2020-05-21T13:42:52Z</time><name>PT12424</name></trkpt>
<trkpt lat="53.359206" lon="-1.645643"><ele>422</ele><time>2020-05-21T13:42:53Z</time><name>PT12425</name></trkpt>
<trkpt lat="53.359200" lon="-1.645629"><ele>422</ele><time>2020-05-21T13:42:54Z</time><name>PT12426</name></trkpt>
<trkpt lat="53.359188" lon="-1.645617"><ele>422</ele><time>2020-05-21T13:42:55Z</time><name>PT12427</name></trkpt>
<trkpt lat="53.359175" lon="-1.645602"><ele>422</ele><time>2020-05-21T13:42:56Z</time><name>PT12428</name></trkpt>
<trkpt lat="53.359168" lon="-1.645589"><ele>422</ele><time>2020-05-21T13:42:57Z</time><name>PT12429</name></trkpt>
<trkpt lat="53.359167" lon="-1.645580"><ele>422</ele><time>2020-05-21T13:42:58Z</time><name>PT12430</name></trkpt>
<trkpt lat="53.359161" lon="-1.645568"><ele>422</ele><time>2020-05-21T13:42:59Z</time><name>PT12431</name></trkpt>
<trkpt lat="53.359153" lon="-1.645552"><ele>422</ele><time>2020-05-21T13:43:00Z</time><name>PT12432</name></trkpt>
<trkpt lat="53.359145" lon="-1.645533"><ele>422</ele><time>2020-05-21T13:43:01Z</time><name>PT12433</name></trkpt>
<trkpt lat="53.359140" lon="-1.645518"><ele>422</ele><time>2020-05-21T13:43:02Z</time><name>PT12434</name></trkpt>
<trkpt lat="53.359140" lon="-1.645508"><ele>422</ele><time>2020-05-21T13:43:03Z</time><name>PT12435</name></trkpt>
<trkpt lat="53.359137" lon="-1.645497"><ele>421</ele><time>2020-05-21T13:43:04Z</time><name>PT12436</name></trkpt>
<trkpt lat="53.359131" lon="-1.645479"><ele>421</ele><time>2020-05-21T13:43:05Z</time><name>PT12437</name></trkpt>
<trkpt lat="53.359118" lon="-1.645462"><ele>422</ele><time>2020-05-21T13:43:07Z</time><name>PT12438</name></trkpt>
<trkpt lat="53.359109" lon="-1.645444"><ele>422</ele><time>2020-05-21T13:43:07Z</time><name>PT12439</name></trkpt>
<trkpt lat="53.359105" lon="-1.645432"><ele>421</ele><time>2020-05-21T13:43:08Z</time><name>PT12440</name></trkpt>
<trkpt lat="53.359102" lon="-1.645417"><ele>422</ele><time>2020-05-21T13:43:09Z</time><name>PT12441</name></trkpt>
<trkpt lat="53.359095" lon="-1.645403"><ele>422</ele><time>2020-05-21T13:43:10Z</time><name>PT12442</name></trkpt>
<trkpt lat="53.359084" lon="-1.645388"><ele>422</ele><time>2020-05-21T13:43:11Z</time><name>PT12443</name></trkpt>
<trkpt lat="53.359075" lon="-1.645375"><ele>422</ele><time>2020-05-21T13:43:13Z</time><name>PT12444</name></trkpt>
<trkpt lat="53.359071" lon="-1.645366"><ele>422</ele><time>2020-05-21T13:43:13Z</time><name>PT12445</name></trkpt>
<trkpt lat="53.359063" lon="-1.645359"><ele>422</ele><time>2020-05-21T13:43:14Z</time><name>PT12446</name></trkpt>
<trkpt lat="53.359055" lon="-1.645343"><ele>422</ele><time>2020-05-21T13:43:15Z</time><name>PT12447</name></trkpt>
<trkpt lat="53.359043" lon="-1.645328"><ele>423</ele><time>2020-05-21T13:43:16Z</time><name>PT12448</name></trkpt>
<trkpt lat="53.359033" lon="-1.645314"><ele>423</ele><time>2020-05-21T13:43:17Z</time><name>PT12449</name></trkpt>
<trkpt lat="53.359026" lon="-1.645305"><ele>423</ele><time>2020-05-21T13:43:18Z</time><name>PT12450</name></trkpt>
<trkpt lat="53.359018" lon="-1.645287"><ele>423</ele><time>2020-05-21T13:43:19Z</time><name>PT12451</name></trkpt>
<trkpt lat="53.359011" lon="-1.645269"><ele>423</ele><time>2020-05-21T13:43:20Z</time><name>PT12452</name></trkpt>
<trkpt lat="53.359003" lon="-1.645260"><ele>423</ele><time>2020-05-21T13:43:21Z</time><name>PT12453</name></trkpt>
<trkpt lat="53.358998" lon="-1.645255"><ele>423</ele><time>2020-05-21T13:43:22Z</time><name>PT12454</name></trkpt>
<trkpt lat="53.358993" lon="-1.645236"><ele>423</ele><time>2020-05-21T13:43:23Z</time><name>PT12455</name></trkpt>
<trkpt lat="53.358985" lon="-1.645217"><ele>423</ele><time>2020-05-21T13:43:24Z</time><name>PT12456</name></trkpt>
<trkpt lat="53.358970" lon="-1.645201"><ele>423</ele><time>2020-05-21T13:43:25Z</time><name>PT12457</name></trkpt>
<trkpt lat="53.358957" lon="-1.645185"><ele>424</ele><time>2020-05-21T13:43:26Z</time><name>PT12458</name></trkpt>
<trkpt lat="53.358947" lon="-1.645178"><ele>423</ele><time>2020-05-21T13:43:27Z</time><name>PT12459</name></trkpt>
<trkpt lat="53.358940" lon="-1.645156"><ele>423</ele><time>2020-05-21T13:43:28Z</time><name>PT12460</name></trkpt>
<trkpt lat="53.358929" lon="-1.645137"><ele>423</ele><time>2020-05-21T13:43:29Z</time><name>PT12461</name></trkpt>
<trkpt lat="53.358921" lon="-1.645112"><ele>423</ele><time>2020-05-21T13:43:30Z</time><name>PT12462</name></trkpt>
<trkpt lat="53.358911" lon="-1.645095"><ele>422</ele><time>2020-05-21T13:43:31Z</time><name>PT12463</name></trkpt>
<trkpt lat="53.358905" lon="-1.645086"><ele>423</ele><time>2020-05-21T13:43:32Z</time><name>PT12464</name></trkpt>
<trkpt lat="53.358901" lon="-1.645069"><ele>423</ele><time>2020-05-21T13:43:33Z</time><name>PT12465</name></trkpt>
<trkpt lat="53.358895" lon="-1.645050"><ele>422</ele><time>2020-05-21T13:43:34Z</time><name>PT12466</name></trkpt>
<trkpt lat="53.358886" lon="-1.645035"><ele>422</ele><time>2020-05-21T13:43:35Z</time><name>PT12467</name></trkpt>
<trkpt lat="53.358872" lon="-1.645017"><ele>423</ele><time>2020-05-21T13:43:36Z</time><name>PT12468</name></trkpt>
<trkpt lat="53.358861" lon="-1.645004"><ele>423</ele><time>2020-05-21T13:43:37Z</time><name>PT12469</name></trkpt>
<trkpt lat="53.358856" lon="-1.644992"><ele>424</ele><time>2020-05-21T13:43:38Z</time><name>PT12470</name></trkpt>
<trkpt lat="53.358846" lon="-1.644980"><ele>423</ele><time>2020-05-21T13:43:39Z</time><name>PT12471</name></trkpt>
<trkpt lat="53.358840" lon="-1.644964"><ele>423</ele><time>2020-05-21T13:43:40Z</time><name>PT12472</name></trkpt>
<trkpt lat="53.358831" lon="-1.644943"><ele>423</ele><time>2020-05-21T13:43:41Z</time><name>PT12473</name></trkpt>
<trkpt lat="53.358824" lon="-1.644930"><ele>423</ele><time>2020-05-21T13:43:42Z</time><name>PT12474</name></trkpt>
<trkpt lat="53.358816" lon="-1.644919"><ele>423</ele><time>2020-05-21T13:43:43Z</time><name>PT12475</name></trkpt>
<trkpt lat="53.358807" lon="-1.644905"><ele>422</ele><time>2020-05-21T13:43:44Z</time><name>PT12476</name></trkpt>
<trkpt lat="53.358799" lon="-1.644888"><ele>422</ele><time>2020-05-21T13:43:45Z</time><name>PT12477</name></trkpt>
<trkpt lat="53.358787" lon="-1.644867"><ele>422</ele><time>2020-05-21T13:43:46Z</time><name>PT12478</name></trkpt>
<trkpt lat="53.358779" lon="-1.644845"><ele>422</ele><time>2020-05-21T13:43:47Z</time><name>PT12479</name></trkpt>
<trkpt lat="53.358775" lon="-1.644828"><ele>422</ele><time>2020-05-21T13:43:48Z</time><name>PT12480</name></trkpt>
<trkpt lat="53.358771" lon="-1.644816"><ele>422</ele><time>2020-05-21T13:43:49Z</time><name>PT12481</name></trkpt>
<trkpt lat="53.358763" lon="-1.644805"><ele>422</ele><time>2020-05-21T13:43:50Z</time><name>PT12482</name></trkpt>
<trkpt lat="53.358759" lon="-1.644784"><ele>423</ele><time>2020-05-21T13:43:51Z</time><name>PT12483</name></trkpt>
<trkpt lat="53.358753" lon="-1.644763"><ele>423</ele><time>2020-05-21T13:43:52Z</time><name>PT12484</name></trkpt>
<trkpt lat="53.358748" lon="-1.644741"><ele>423</ele><time>2020-05-21T13:43:53Z</time><name>PT12485</name></trkpt>
<trkpt lat="53.358745" lon="-1.644725"><ele>423</ele><time>2020-05-21T13:43:54Z</time><name>PT12486</name></trkpt>
<trkpt lat="53.358737" lon="-1.644713"><ele>423</ele><time>2020-05-21T13:43:55Z</time><name>PT12487</name></trkpt>
<trkpt lat="53.358728" lon="-1.644696"><ele>423</ele><time>2020-05-21T13:43:56Z</time><name>PT12488</name></trkpt>
<trkpt lat="53.358717" lon="-1.644677"><ele>424</ele><time>2020-05-21T13:43:57Z</time><name>PT12489</name></trkpt>
<trkpt lat="53.358705" lon="-1.644657"><ele>424</ele><time>2020-05-21T13:43:58Z</time><name>PT12490</name></trkpt>
<trkpt lat="53.358697" lon="-1.644638"><ele>423</ele><time>2020-05-21T13:43:59Z</time><name>PT12491</name></trkpt>
<trkpt lat="53.358691" lon="-1.644627"><ele>423</ele><time>2020-05-21T13:44:00Z</time><name>PT12492</name></trkpt>
<trkpt lat="53.358685" lon="-1.644618"><ele>423</ele><time>2020-05-21T13:44:01Z</time><name>PT12493</name></trkpt>
<trkpt lat="53.358678" lon="-1.644601"><ele>423</ele><time>2020-05-21T13:44:02Z</time><name>PT12494</name></trkpt>
<trkpt lat="53.358667" lon="-1.644584"><ele>423</ele><time>2020-05-21T13:44:03Z</time><name>PT12495</name></trkpt>
<trkpt lat="53.358655" lon="-1.644565"><ele>423</ele><time>2020-05-21T13:44:04Z</time><name>PT12496</name></trkpt>
<trkpt lat="53.358642" lon="-1.644543"><ele>423</ele><time>2020-05-21T13:44:05Z</time><name>PT12497</name></trkpt>
<trkpt lat="53.358633" lon="-1.644526"><ele>423</ele><time>2020-05-21T13:44:06Z</time><name>PT12498</name></trkpt>
<trkpt lat="53.358626" lon="-1.644517"><ele>423</ele><time>2020-05-21T13:44:07Z</time><name>PT12499</name></trkpt>
<trkpt lat="53.358619" lon="-1.644502"><ele>424</ele><time>2020-05-21T13:44:08Z</time><name>PT12500</name></trkpt>
<trkpt lat="53.358610" lon="-1.644486"><ele>424</ele><time>2020-05-21T13:44:09Z</time><name>PT12501</name></trkpt>
<trkpt lat="53.358601" lon="-1.644469"><ele>424</ele><time>2020-05-21T13:44:10Z</time><name>PT12502</name></trkpt>
<trkpt lat="53.358588" lon="-1.644448"><ele>425</ele><time>2020-05-21T13:44:11Z</time><name>PT12503</name></trkpt>
<trkpt lat="53.358574" lon="-1.644428"><ele>424</ele><time>2020-05-21T13:44:12Z</time><name>PT12504</name></trkpt>
<trkpt lat="53.358566" lon="-1.644416"><ele>424</ele><time>2020-05-21T13:44:13Z</time><name>PT12505</name></trkpt>
<trkpt lat="53.358561" lon="-1.644411"><ele>424</ele><time>2020-05-21T13:44:14Z</time><name>PT12506</name></trkpt>
<trkpt lat="53.358555" lon="-1.644401"><ele>423</ele><time>2020-05-21T13:44:15Z</time><name>PT12507</name></trkpt>
<trkpt lat="53.358547" lon="-1.644383"><ele>423</ele><time>2020-05-21T13:44:16Z</time><name>PT12508</name></trkpt>
<trkpt lat="53.358534" lon="-1.644367"><ele>423</ele><time>2020-05-21T13:44:17Z</time><name>PT12509</name></trkpt>
<trkpt lat="53.358520" lon="-1.644351"><ele>423</ele><time>2020-05-21T13:44:18Z</time><name>PT12510</name></trkpt>
<trkpt lat="53.358511" lon="-1.644340"><ele>423</ele><time>2020-05-21T13:44:19Z</time><name>PT12511</name></trkpt>
<trkpt lat="53.358505" lon="-1.644333"><ele>423</ele><time>2020-05-21T13:44:20Z</time><name>PT12512</name></trkpt>
<trkpt lat="53.358498" lon="-1.644318"><ele>423</ele><time>2020-05-21T13:44:21Z</time><name>PT12513</name></trkpt>
<trkpt lat="53.358488" lon="-1.644298"><ele>422</ele><time>2020-05-21T13:44:22Z</time><name>PT12514</name></trkpt>
<trkpt lat="53.358474" lon="-1.644278"><ele>422</ele><time>2020-05-21T13:44:23Z</time><name>PT12515</name></trkpt>
<trkpt lat="53.358461" lon="-1.644260"><ele>422</ele><time>2020-05-21T13:44:24Z</time><name>PT12516</name></trkpt>
<trkpt lat="53.358449" lon="-1.644243"><ele>422</ele><time>2020-05-21T13:44:25Z</time><name>PT12517</name></trkpt>
<trkpt lat="53.358442" lon="-1.644230"><ele>422</ele><time>2020-05-21T13:44:26Z</time><name>PT12518</name></trkpt>
<trkpt lat="53.358438" lon="-1.644223"><ele>422</ele><time>2020-05-21T13:44:27Z</time><name>PT12519</name></trkpt>
<trkpt lat="53.358435" lon="-1.644212"><ele>422</ele><time>2020-05-21T13:44:28Z</time><name>PT12520</name></trkpt>
<trkpt lat="53.358432" lon="-1.644195"><ele>422</ele><time>2020-05-21T13:44:29Z</time><name>PT12521</name></trkpt>
<trkpt lat="53.358430" lon="-1.644185"><ele>422</ele><time>2020-05-21T13:44:30Z</time><name>PT12522</name></trkpt>
<trkpt lat="53.358426" lon="-1.644173"><ele>422</ele><time>2020-05-21T13:44:31Z</time><name>PT12523</name></trkpt>
<trkpt lat="53.358419" lon="-1.644163"><ele>422</ele><time>2020-05-21T13:44:32Z</time><name>PT12524</name></trkpt>
<trkpt lat="53.358415" lon="-1.644161"><ele>421</ele><time>2020-05-21T13:44:33Z</time><name>PT12525</name></trkpt>
<trkpt lat="53.358407" lon="-1.644157"><ele>421</ele><time>2020-05-21T13:44:34Z</time><name>PT12526</name></trkpt>
<trkpt lat="53.358396" lon="-1.644147"><ele>420</ele><time>2020-05-21T13:44:35Z</time><name>PT12527</name></trkpt>
<trkpt lat="53.358389" lon="-1.644137"><ele>420</ele><time>2020-05-21T13:44:36Z</time><name>PT12528</name></trkpt>
<trkpt lat="53.358382" lon="-1.644136"><ele>420</ele><time>2020-05-21T13:44:37Z</time><name>PT12529</name></trkpt>
<trkpt lat="53.358372" lon="-1.644135"><ele>420</ele><time>2020-05-21T13:44:38Z</time><name>PT12530</name></trkpt>
<trkpt lat="53.358359" lon="-1.644134"><ele>420</ele><time>2020-05-21T13:44:39Z</time><name>PT12531</name></trkpt>
<trkpt lat="53.358353" lon="-1.644127"><ele>420</ele><time>2020-05-21T13:44:40Z</time><name>PT12532</name></trkpt>
<trkpt lat="53.358345" lon="-1.644111"><ele>419</ele><time>2020-05-21T13:44:41Z</time><name>PT12533</name></trkpt>
<trkpt lat="53.358333" lon="-1.644096"><ele>419</ele><time>2020-05-21T13:44:42Z</time><name>PT12534</name></trkpt>
<trkpt lat="53.358322" lon="-1.644080"><ele>419</ele><time>2020-05-21T13:44:43Z</time><name>PT12535</name></trkpt>
<trkpt lat="53.358311" lon="-1.644070"><ele>419</ele><time>2020-05-21T13:44:44Z</time><name>PT12536</name></trkpt>
<trkpt lat="53.358306" lon="-1.644065"><ele>419</ele><time>2020-05-21T13:44:45Z</time><name>PT12537</name></trkpt>
<trkpt lat="53.358297" lon="-1.644059"><ele>419</ele><time>2020-05-21T13:44:46Z</time><name>PT12538</name></trkpt>
<trkpt lat="53.358287" lon="-1.644043"><ele>419</ele><time>2020-05-21T13:44:47Z</time><name>PT12539</name></trkpt>
<trkpt lat="53.358275" lon="-1.644026"><ele>419</ele><time>2020-05-21T13:44:48Z</time><name>PT12540</name></trkpt>
<trkpt lat="53.358265" lon="-1.644017"><ele>419</ele><time>2020-05-21T13:44:49Z</time><name>PT12541</name></trkpt>
<trkpt lat="53.358260" lon="-1.644012"><ele>419</ele><time>2020-05-21T13:44:50Z</time><name>PT12542</name></trkpt>
<trkpt lat="53.358254" lon="-1.644003"><ele>420</ele><time>2020-05-21T13:44:51Z</time><name>PT12543</name></trkpt>
<trkpt lat="53.358245" lon="-1.643988"><ele>419</ele><time>2020-05-21T13:44:52Z</time><name>PT12544</name></trkpt>
<trkpt lat="53.358234" lon="-1.643973"><ele>419</ele><time>2020-05-21T13:44:53Z</time><name>PT12545</name></trkpt>
<trkpt lat="53.358223" lon="-1.643965"><ele>419</ele><time>2020-05-21T13:44:54Z</time><name>PT12546</name></trkpt>
<trkpt lat="53.358216" lon="-1.643960"><ele>419</ele><time>2020-05-21T13:44:55Z</time><name>PT12547</name></trkpt>
<trkpt lat="53.358204" lon="-1.643955"><ele>418</ele><time>2020-05-21T13:44:56Z</time><name>PT12548</name></trkpt>
<trkpt lat="53.358191" lon="-1.643944"><ele>419</ele><time>2020-05-21T13:44:57Z</time><name>PT12549</name></trkpt>
<trkpt lat="53.358179" lon="-1.643930"><ele>419</ele><time>2020-05-21T13:44:58Z</time><name>PT12550</name></trkpt>
<trkpt lat="53.358165" lon="-1.643918"><ele>419</ele><time>2020-05-21T13:44:59Z</time><name>PT12551</name></trkpt>
<trkpt lat="53.358153" lon="-1.643903"><ele>418</ele><time>2020-05-21T13:45:00Z</time><name>PT12552</name></trkpt>
<trkpt lat="53.358145" lon="-1.643898"><ele>418</ele><time>2020-05-21T13:45:01Z</time><name>PT12553</name></trkpt>
<trkpt lat="53.358142" lon="-1.643886"><ele>418</ele><time>2020-05-21T13:45:02Z</time><name>PT12554</name></trkpt>
<trkpt lat="53.358135" lon="-1.643873"><ele>418</ele><time>2020-05-21T13:45:03Z</time><name>PT12555</name></trkpt>
<trkpt lat="53.358122" lon="-1.643862"><ele>418</ele><time>2020-05-21T13:45:04Z</time><name>PT12556</name></trkpt>
<trkpt lat="53.358107" lon="-1.643850"><ele>418</ele><time>2020-05-21T13:45:05Z</time><name>PT12557</name></trkpt>
<trkpt lat="53.358097" lon="-1.643842"><ele>418</ele><time>2020-05-21T13:45:06Z</time><name>PT12558</name></trkpt>
<trkpt lat="53.358092" lon="-1.643831"><ele>418</ele><time>2020-05-21T13:45:07Z</time><name>PT12559</name></trkpt>
<trkpt lat="53.358084" lon="-1.643818"><ele>418</ele><time>2020-05-21T13:45:08Z</time><name>PT12560</name></trkpt>
<trkpt lat="53.358074" lon="-1.643807"><ele>418</ele><time>2020-05-21T13:45:09Z</time><name>PT12561</name></trkpt>
<trkpt lat="53.358059" lon="-1.643796"><ele>418</ele><time>2020-05-21T13:45:10Z</time><name>PT12562</name></trkpt>
<trkpt lat="53.358044" lon="-1.643785"><ele>419</ele><time>2020-05-21T13:45:11Z</time><name>PT12563</name></trkpt>
<trkpt lat="53.358036" lon="-1.643779"><ele>419</ele><time>2020-05-21T13:45:12Z</time><name>PT12564</name></trkpt>
<trkpt lat="53.358024" lon="-1.643776"><ele>419</ele><time>2020-05-21T13:45:13Z</time><name>PT12565</name></trkpt>
<trkpt lat="53.358018" lon="-1.643758"><ele>419</ele><time>2020-05-21T13:45:14Z</time><name>PT12566</name></trkpt>
<trkpt lat="53.358005" lon="-1.643744"><ele>419</ele><time>2020-05-21T13:45:15Z</time><name>PT12567</name></trkpt>
<trkpt lat="53.357996" lon="-1.643735"><ele>419</ele><time>2020-05-21T13:45:16Z</time><name>PT12568</name></trkpt>
<trkpt lat="53.357991" lon="-1.643739"><ele>419</ele><time>2020-05-21T13:45:17Z</time><name>PT12569</name></trkpt>
<trkpt lat="53.357980" lon="-1.643748"><ele>419</ele><time>2020-05-21T13:45:18Z</time><name>PT12570</name></trkpt>
<trkpt lat="53.357970" lon="-1.643748"><ele>419</ele><time>2020-05-21T13:45:19Z</time><name>PT12571</name></trkpt>
<trkpt lat="53.357958" lon="-1.643744"><ele>419</ele><time>2020-05-21T13:45:20Z</time><name>PT12572</name></trkpt>
<trkpt lat="53.357951" lon="-1.643738"><ele>419</ele><time>2020-05-21T13:45:21Z</time><name>PT12573</name></trkpt>
<trkpt lat="53.357948" lon="-1.643732"><ele>419</ele><time>2020-05-21T13:45:22Z</time><name>PT12574</name></trkpt>
<trkpt lat="53.357940" lon="-1.643723"><ele>419</ele><time>2020-05-21T13:45:23Z</time><name>PT12575</name></trkpt>
<trkpt lat="53.357931" lon="-1.643711"><ele>419</ele><time>2020-05-21T13:45:24Z</time><name>PT12576</name></trkpt>
<trkpt lat="53.357923" lon="-1.643702"><ele>420</ele><time>2020-05-21T13:45:25Z</time><name>PT12577</name></trkpt>
<trkpt lat="53.357920" lon="-1.643694"><ele>419</ele><time>2020-05-21T13:45:26Z</time><name>PT12578</name></trkpt>
<trkpt lat="53.357917" lon="-1.643679"><ele>419</ele><time>2020-05-21T13:45:27Z</time><name>PT12579</name></trkpt>
<trkpt lat="53.357909" lon="-1.643663"><ele>420</ele><time>2020-05-21T13:45:28Z</time><name>PT12580</name></trkpt>
<trkpt lat="53.357900" lon="-1.643649"><ele>420</ele><time>2020-05-21T13:45:29Z</time><name>PT12581</name></trkpt>
<trkpt lat="53.357898" lon="-1.643638"><ele>420</ele><time>2020-05-21T13:45:30Z</time><name>PT12582</name></trkpt>
<trkpt lat="53.357895" lon="-1.643621"><ele>420</ele><time>2020-05-21T13:45:31Z</time><name>PT12583</name></trkpt>
<trkpt lat="53.357889" lon="-1.643604"><ele>420</ele><time>2020-05-21T13:45:32Z</time><name>PT12584</name></trkpt>
<trkpt lat="53.357885" lon="-1.643590"><ele>420</ele><time>2020-05-21T13:45:33Z</time><name>PT12585</name></trkpt>
<trkpt lat="53.357886" lon="-1.643577"><ele>420</ele><time>2020-05-21T13:45:34Z</time><name>PT12586</name></trkpt>
<trkpt lat="53.357880" lon="-1.643561"><ele>420</ele><time>2020-05-21T13:45:35Z</time><name>PT12587</name></trkpt>
<trkpt lat="53.357870" lon="-1.643548"><ele>421</ele><time>2020-05-21T13:45:36Z</time><name>PT12588</name></trkpt>
<trkpt lat="53.357861" lon="-1.643535"><ele>421</ele><time>2020-05-21T13:45:37Z</time><name>PT12589</name></trkpt>
<trkpt lat="53.357856" lon="-1.643529"><ele>421</ele><time>2020-05-21T13:45:38Z</time><name>PT12590</name></trkpt>
<trkpt lat="53.357850" lon="-1.643520"><ele>421</ele><time>2020-05-21T13:45:39Z</time><name>PT12591</name></trkpt>
<trkpt lat="53.357848" lon="-1.643517"><ele>421</ele><time>2020-05-21T13:45:40Z</time><name>PT12592</name></trkpt>
<trkpt lat="53.357846" lon="-1.643517"><ele>421</ele><time>2020-05-21T13:45:41Z</time><name>PT12593</name></trkpt>
<trkpt lat="53.357845" lon="-1.643517"><ele>421</ele><time>2020-05-21T13:45:42Z</time><name>PT12594</name></trkpt>
<trkpt lat="53.357846" lon="-1.643516"><ele>421</ele><time>2020-05-21T13:45:46Z</time><name>PT12595</name></trkpt>
<trkpt lat="53.357845" lon="-1.643521"><ele>421</ele><time>2020-05-21T13:45:47Z</time><name>PT12596</name></trkpt>
<trkpt lat="53.357843" lon="-1.643528"><ele>421</ele><time>2020-05-21T13:45:48Z</time><name>PT12597</name></trkpt>
<trkpt lat="53.357843" lon="-1.643531"><ele>421</ele><time>2020-05-21T13:45:49Z</time><name>PT12598</name></trkpt>
<trkpt lat="53.357844" lon="-1.643530"><ele>421</ele><time>2020-05-21T13:45:54Z</time><name>PT12599</name></trkpt>
<trkpt lat="53.357843" lon="-1.643533"><ele>420</ele><time>2020-05-21T13:45:55Z</time><name>PT12600</name></trkpt>
<trkpt lat="53.357842" lon="-1.643525"><ele>420</ele><time>2020-05-21T13:45:56Z</time><name>PT12601</name></trkpt>
<trkpt lat="53.357833" lon="-1.643510"><ele>420</ele><time>2020-05-21T13:45:57Z</time><name>PT12602</name></trkpt>
<trkpt lat="53.357826" lon="-1.643504"><ele>421</ele><time>2020-05-21T13:45:58Z</time><name>PT12603</name></trkpt>
<trkpt lat="53.357821" lon="-1.643492"><ele>421</ele><time>2020-05-21T13:45:59Z</time><name>PT12604</name></trkpt>
<trkpt lat="53.357814" lon="-1.643476"><ele>420</ele><time>2020-05-21T13:46:00Z</time><name>PT12605</name></trkpt>
<trkpt lat="53.357805" lon="-1.643461"><ele>420</ele><time>2020-05-21T13:46:01Z</time><name>PT12606</name></trkpt>
<trkpt lat="53.357799" lon="-1.643453"><ele>420</ele><time>2020-05-21T13:46:02Z</time><name>PT12607</name></trkpt>
<trkpt lat="53.357792" lon="-1.643444"><ele>420</ele><time>2020-05-21T13:46:03Z</time><name>PT12608</name></trkpt>
<trkpt lat="53.357783" lon="-1.643430"><ele>421</ele><time>2020-05-21T13:46:04Z</time><name>PT12609</name></trkpt>
<trkpt lat="53.357775" lon="-1.643412"><ele>421</ele><time>2020-05-21T13:46:06Z</time><name>PT12610</name></trkpt>
<trkpt lat="53.357769" lon="-1.643404"><ele>421</ele><time>2020-05-21T13:46:06Z</time><name>PT12611</name></trkpt>
<trkpt lat="53.357764" lon="-1.643390"><ele>421</ele><time>2020-05-21T13:46:07Z</time><name>PT12612</name></trkpt>
<trkpt lat="53.357757" lon="-1.643373"><ele>421</ele><time>2020-05-21T13:46:08Z</time><name>PT12613</name></trkpt>
<trkpt lat="53.357747" lon="-1.643359"><ele>421</ele><time>2020-05-21T13:46:09Z</time><name>PT12614</name></trkpt>
<trkpt lat="53.357740" lon="-1.643354"><ele>421</ele><time>2020-05-21T13:46:10Z</time><name>PT12615</name></trkpt>
<trkpt lat="53.357734" lon="-1.643340"><ele>421</ele><time>2020-05-21T13:46:11Z</time><name>PT12616</name></trkpt>
<trkpt lat="53.357731" lon="-1.643322"><ele>421</ele><time>2020-05-21T13:46:12Z</time><name>PT12617</name></trkpt>
<trkpt lat="53.357721" lon="-1.643305"><ele>421</ele><time>2020-05-21T13:46:13Z</time><name>PT12618</name></trkpt>
<trkpt lat="53.357716" lon="-1.643293"><ele>421</ele><time>2020-05-21T13:46:14Z</time><name>PT12619</name></trkpt>
<trkpt lat="53.357709" lon="-1.643285"><ele>421</ele><time>2020-05-21T13:46:15Z</time><name>PT12620</name></trkpt>
<trkpt lat="53.357702" lon="-1.643270"><ele>421</ele><time>2020-05-21T13:46:16Z</time><name>PT12621</name></trkpt>
<trkpt lat="53.357693" lon="-1.643254"><ele>421</ele><time>2020-05-21T13:46:17Z</time><name>PT12622</name></trkpt>
<trkpt lat="53.357683" lon="-1.643240"><ele>422</ele><time>2020-05-21T13:46:18Z</time><name>PT12623</name></trkpt>
<trkpt lat="53.357676" lon="-1.643231"><ele>422</ele><time>2020-05-21T13:46:19Z</time><name>PT12624</name></trkpt>
<trkpt lat="53.357668" lon="-1.643225"><ele>421</ele><time>2020-05-21T13:46:20Z</time><name>PT12625</name></trkpt>
<trkpt lat="53.357659" lon="-1.643211"><ele>422</ele><time>2020-05-21T13:46:21Z</time><name>PT12626</name></trkpt>
<trkpt lat="53.357649" lon="-1.643194"><ele>422</ele><time>2020-05-21T13:46:22Z</time><name>PT12627</name></trkpt>
<trkpt lat="53.357641" lon="-1.643172"><ele>422</ele><time>2020-05-21T13:46:23Z</time><name>PT12628</name></trkpt>
<trkpt lat="53.357636" lon="-1.643164"><ele>423</ele><time>2020-05-21T13:46:24Z</time><name>PT12629</name></trkpt>
<trkpt lat="53.357632" lon="-1.643160"><ele>423</ele><time>2020-05-21T13:46:25Z</time><name>PT12630</name></trkpt>
<trkpt lat="53.357622" lon="-1.643147"><ele>423</ele><time>2020-05-21T13:46:26Z</time><name>PT12631</name></trkpt>
<trkpt lat="53.357612" lon="-1.643133"><ele>423</ele><time>2020-05-21T13:46:27Z</time><name>PT12632</name></trkpt>
<trkpt lat="53.357603" lon="-1.643116"><ele>423</ele><time>2020-05-21T13:46:28Z</time><name>PT12633</name></trkpt>
<trkpt lat="53.357598" lon="-1.643102"><ele>423</ele><time>2020-05-21T13:46:29Z</time><name>PT12634</name></trkpt>
<trkpt lat="53.357593" lon="-1.643090"><ele>423</ele><time>2020-05-21T13:46:30Z</time><name>PT12635</name></trkpt>
<trkpt lat="53.357589" lon="-1.643073"><ele>423</ele><time>2020-05-21T13:46:31Z</time><name>PT12636</name></trkpt>
<trkpt lat="53.357585" lon="-1.643053"><ele>423</ele><time>2020-05-21T13:46:32Z</time><name>PT12637</name></trkpt>
<trkpt lat="53.357576" lon="-1.643033"><ele>424</ele><time>2020-05-21T13:46:33Z</time><name>PT12638</name></trkpt>
<trkpt lat="53.357567" lon="-1.643017"><ele>424</ele><time>2020-05-21T13:46:34Z</time><name>PT12639</name></trkpt>
<trkpt lat="53.357561" lon="-1.643007"><ele>424</ele><time>2020-05-21T13:46:35Z</time><name>PT12640</name></trkpt>
<trkpt lat="53.357556" lon="-1.643001"><ele>424</ele><time>2020-05-21T13:46:36Z</time><name>PT12641</name></trkpt>
<trkpt lat="53.357548" lon="-1.642987"><ele>424</ele><time>2020-05-21T13:46:37Z</time><name>PT12642</name></trkpt>
<trkpt lat="53.357537" lon="-1.642973"><ele>424</ele><time>2020-05-21T13:46:38Z</time><name>PT12643</name></trkpt>
<trkpt lat="53.357524" lon="-1.642958"><ele>425</ele><time>2020-05-21T13:46:39Z</time><name>PT12644</name></trkpt>
<trkpt lat="53.357511" lon="-1.642941"><ele>425</ele><time>2020-05-21T13:46:40Z</time><name>PT12645</name></trkpt>
<trkpt lat="53.357502" lon="-1.642924"><ele>425</ele><time>2020-05-21T13:46:41Z</time><name>PT12646</name></trkpt>
<trkpt lat="53.357497" lon="-1.642915"><ele>425</ele><time>2020-05-21T13:46:42Z</time><name>PT12647</name></trkpt>
<trkpt lat="53.357485" lon="-1.642909"><ele>425</ele><time>2020-05-21T13:46:43Z</time><name>PT12648</name></trkpt>
<trkpt lat="53.357478" lon="-1.642893"><ele>425</ele><time>2020-05-21T13:46:44Z</time><name>PT12649</name></trkpt>
<trkpt lat="53.357469" lon="-1.642878"><ele>425</ele><time>2020-05-21T13:46:45Z</time><name>PT12650</name></trkpt>
<trkpt lat="53.357459" lon="-1.642860"><ele>425</ele><time>2020-05-21T13:46:46Z</time><name>PT12651</name></trkpt>
<trkpt lat="53.357449" lon="-1.642844"><ele>425</ele><time>2020-05-21T13:46:47Z</time><name>PT12652</name></trkpt>
<trkpt lat="53.357440" lon="-1.642838"><ele>426</ele><time>2020-05-21T13:46:48Z</time><name>PT12653</name></trkpt>
<trkpt lat="53.357431" lon="-1.642829"><ele>425</ele><time>2020-05-21T13:46:49Z</time><name>PT12654</name></trkpt>
<trkpt lat="53.357424" lon="-1.642813"><ele>425</ele><time>2020-05-21T13:46:50Z</time><name>PT12655</name></trkpt>
<trkpt lat="53.357415" lon="-1.642792"><ele>425</ele><time>2020-05-21T13:46:51Z</time><name>PT12656</name></trkpt>
<trkpt lat="53.357405" lon="-1.642772"><ele>425</ele><time>2020-05-21T13:46:52Z</time><name>PT12657</name></trkpt>
<trkpt lat="53.357397" lon="-1.642762"><ele>425</ele><time>2020-05-21T13:46:53Z</time><name>PT12658</name></trkpt>
<trkpt lat="53.357394" lon="-1.642751"><ele>425</ele><time>2020-05-21T13:46:54Z</time><name>PT12659</name></trkpt>
<trkpt lat="53.357390" lon="-1.642737"><ele>425</ele><time>2020-05-21T13:46:55Z</time><name>PT12660</name></trkpt>
<trkpt lat="53.357383" lon="-1.642718"><ele>425</ele><time>2020-05-21T13:46:56Z</time><name>PT12661</name></trkpt>
<trkpt lat="53.357375" lon="-1.642697"><ele>425</ele><time>2020-05-21T13:46:57Z</time><name>PT12662</name></trkpt>
<trkpt lat="53.357371" lon="-1.642685"><ele>425</ele><time>2020-05-21T13:46:58Z</time><name>PT12663</name></trkpt>
<trkpt lat="53.357365" lon="-1.642674"><ele>426</ele><time>2020-05-21T13:46:59Z</time><name>PT12664</name></trkpt>
<trkpt lat="53.357358" lon="-1.642661"><ele>425</ele><time>2020-05-21T13:47:00Z</time><name>PT12665</name></trkpt>
<trkpt lat="53.357352" lon="-1.642647"><ele>426</ele><time>2020-05-21T13:47:01Z</time><name>PT12666</name></trkpt>
<trkpt lat="53.357340" lon="-1.642635"><ele>426</ele><time>2020-05-21T13:47:02Z</time><name>PT12667</name></trkpt>
<trkpt lat="53.357332" lon="-1.642620"><ele>425</ele><time>2020-05-21T13:47:03Z</time><name>PT12668</name></trkpt>
<trkpt lat="53.357325" lon="-1.642609"><ele>426</ele><time>2020-05-21T13:47:04Z</time><name>PT12669</name></trkpt>
<trkpt lat="53.357315" lon="-1.642601"><ele>425</ele><time>2020-05-21T13:47:05Z</time><name>PT12670</name></trkpt>
<trkpt lat="53.357304" lon="-1.642589"><ele>425</ele><time>2020-05-21T13:47:06Z</time><name>PT12671</name></trkpt>
<trkpt lat="53.357291" lon="-1.642572"><ele>425</ele><time>2020-05-21T13:47:07Z</time><name>PT12672</name></trkpt>
<trkpt lat="53.357284" lon="-1.642564"><ele>425</ele><time>2020-05-21T13:47:08Z</time><name>PT12673</name></trkpt>
<trkpt lat="53.357278" lon="-1.642553"><ele>425</ele><time>2020-05-21T13:47:09Z</time><name>PT12674</name></trkpt>
<trkpt lat="53.357270" lon="-1.642539"><ele>426</ele><time>2020-05-21T13:47:10Z</time><name>PT12675</name></trkpt>
<trkpt lat="53.357260" lon="-1.642520"><ele>426</ele><time>2020-05-21T13:47:11Z</time><name>PT12676</name></trkpt>
<trkpt lat="53.357249" lon="-1.642504"><ele>426</ele><time>2020-05-21T13:47:12Z</time><name>PT12677</name></trkpt>
<trkpt lat="53.357244" lon="-1.642493"><ele>426</ele><time>2020-05-21T13:47:13Z</time><name>PT12678</name></trkpt>
<trkpt lat="53.357237" lon="-1.642485"><ele>426</ele><time>2020-05-21T13:47:14Z</time><name>PT12679</name></trkpt>
<trkpt lat="53.357230" lon="-1.642469"><ele>426</ele><time>2020-05-21T13:47:15Z</time><name>PT12680</name></trkpt>
<trkpt lat="53.357219" lon="-1.642448"><ele>427</ele><time>2020-05-21T13:47:16Z</time><name>PT12681</name></trkpt>
<trkpt lat="53.357210" lon="-1.642433"><ele>427</ele><time>2020-05-21T13:47:17Z</time><name>PT12682</name></trkpt>
<trkpt lat="53.357204" lon="-1.642420"><ele>428</ele><time>2020-05-21T13:47:18Z</time><name>PT12683</name></trkpt>
<trkpt lat="53.357198" lon="-1.642406"><ele>428</ele><time>2020-05-21T13:47:19Z</time><name>PT12684</name></trkpt>
<trkpt lat="53.357188" lon="-1.642392"><ele>428</ele><time>2020-05-21T13:47:20Z</time><name>PT12685</name></trkpt>
<trkpt lat="53.357180" lon="-1.642367"><ele>428</ele><time>2020-05-21T13:47:21Z</time><name>PT12686</name></trkpt>
<trkpt lat="53.357173" lon="-1.642350"><ele>428</ele><time>2020-05-21T13:47:22Z</time><name>PT12687</name></trkpt>
<trkpt lat="53.357170" lon="-1.642336"><ele>428</ele><time>2020-05-21T13:47:23Z</time><name>PT12688</name></trkpt>
<trkpt lat="53.357162" lon="-1.642319"><ele>429</ele><time>2020-05-21T13:47:24Z</time><name>PT12689</name></trkpt>
<trkpt lat="53.357156" lon="-1.642305"><ele>429</ele><time>2020-05-21T13:47:25Z</time><name>PT12690</name></trkpt>
<trkpt lat="53.357146" lon="-1.642285"><ele>429</ele><time>2020-05-21T13:47:26Z</time><name>PT12691</name></trkpt>
<trkpt lat="53.357136" lon="-1.642267"><ele>429</ele><time>2020-05-21T13:47:27Z</time><name>PT12692</name></trkpt>
<trkpt lat="53.357134" lon="-1.642255"><ele>429</ele><time>2020-05-21T13:47:28Z</time><name>PT12693</name></trkpt>
<trkpt lat="53.357129" lon="-1.642242"><ele>429</ele><time>2020-05-21T13:47:29Z</time><name>PT12694</name></trkpt>
<trkpt lat="53.357123" lon="-1.642225"><ele>429</ele><time>2020-05-21T13:47:30Z</time><name>PT12695</name></trkpt>
<trkpt lat="53.357113" lon="-1.642205"><ele>429</ele><time>2020-05-21T13:47:31Z</time><name>PT12696</name></trkpt>
<trkpt lat="53.357103" lon="-1.642187"><ele>429</ele><time>2020-05-21T13:47:32Z</time><name>PT12697</name></trkpt>
<trkpt lat="53.357099" lon="-1.642173"><ele>429</ele><time>2020-05-21T13:47:33Z</time><name>PT12698</name></trkpt>
<trkpt lat="53.357094" lon="-1.642159"><ele>429</ele><time>2020-05-21T13:47:34Z</time><name>PT12699</name></trkpt>
<trkpt lat="53.357086" lon="-1.642141"><ele>429</ele><time>2020-05-21T13:47:35Z</time><name>PT12700</name></trkpt>
<trkpt lat="53.357072" lon="-1.642124"><ele>429</ele><time>2020-05-21T13:47:36Z</time><name>PT12701</name></trkpt>
<trkpt lat="53.357059" lon="-1.642107"><ele>429</ele><time>2020-05-21T13:47:37Z</time><name>PT12702</name></trkpt>
<trkpt lat="53.357053" lon="-1.642096"><ele>429</ele><time>2020-05-21T13:47:38Z</time><name>PT12703</name></trkpt>
<trkpt lat="53.357045" lon="-1.642087"><ele>429</ele><time>2020-05-21T13:47:39Z</time><name>PT12704</name></trkpt>
<trkpt lat="53.357037" lon="-1.642072"><ele>429</ele><time>2020-05-21T13:47:40Z</time><name>PT12705</name></trkpt>
<trkpt lat="53.357029" lon="-1.642054"><ele>429</ele><time>2020-05-21T13:47:41Z</time><name>PT12706</name></trkpt>
<trkpt lat="53.357020" lon="-1.642036"><ele>430</ele><time>2020-05-21T13:47:42Z</time><name>PT12707</name></trkpt>
<trkpt lat="53.357013" lon="-1.642020"><ele>430</ele><time>2020-05-21T13:47:43Z</time><name>PT12708</name></trkpt>
<trkpt lat="53.357010" lon="-1.642009"><ele>430</ele><time>2020-05-21T13:47:44Z</time><name>PT12709</name></trkpt>
<trkpt lat="53.357003" lon="-1.641998"><ele>430</ele><time>2020-05-21T13:47:45Z</time><name>PT12710</name></trkpt>
<trkpt lat="53.356994" lon="-1.641977"><ele>430</ele><time>2020-05-21T13:47:46Z</time><name>PT12711</name></trkpt>
<trkpt lat="53.356984" lon="-1.641954"><ele>430</ele><time>2020-05-21T13:47:47Z</time><name>PT12712</name></trkpt>
<trkpt lat="53.356973" lon="-1.641937"><ele>431</ele><time>2020-05-21T13:47:48Z</time><name>PT12713</name></trkpt>
<trkpt lat="53.356965" lon="-1.641926"><ele>430</ele><time>2020-05-21T13:47:49Z</time><name>PT12714</name></trkpt>
<trkpt lat="53.356959" lon="-1.641915"><ele>430</ele><time>2020-05-21T13:47:50Z</time><name>PT12715</name></trkpt>
<trkpt lat="53.356950" lon="-1.641900"><ele>430</ele><time>2020-05-21T13:47:51Z</time><name>PT12716</name></trkpt>
<trkpt lat="53.356939" lon="-1.641876"><ele>430</ele><time>2020-05-21T13:47:52Z</time><name>PT12717</name></trkpt>
<trkpt lat="53.356928" lon="-1.641855"><ele>430</ele><time>2020-05-21T13:47:53Z</time><name>PT12718</name></trkpt>
<trkpt lat="53.356921" lon="-1.641842"><ele>430</ele><time>2020-05-21T13:47:54Z</time><name>PT12719</name></trkpt>
<trkpt lat="53.356915" lon="-1.641833"><ele>430</ele><time>2020-05-21T13:47:55Z</time><name>PT12720</name></trkpt>
<trkpt lat="53.356913" lon="-1.641821"><ele>429</ele><time>2020-05-21T13:47:56Z</time><name>PT12721</name></trkpt>
<trkpt lat="53.356905" lon="-1.641804"><ele>429</ele><time>2020-05-21T13:47:57Z</time><name>PT12722</name></trkpt>
<trkpt lat="53.356894" lon="-1.641785"><ele>429</ele><time>2020-05-21T13:47:58Z</time><name>PT12723</name></trkpt>
<trkpt lat="53.356882" lon="-1.641769"><ele>429</ele><time>2020-05-21T13:47:59Z</time><name>PT12724</name></trkpt>
<trkpt lat="53.356877" lon="-1.641757"><ele>429</ele><time>2020-05-21T13:48:00Z</time><name>PT12725</name></trkpt>
<trkpt lat="53.356871" lon="-1.641746"><ele>430</ele><time>2020-05-21T13:48:01Z</time><name>PT12726</name></trkpt>
<trkpt lat="53.356864" lon="-1.641728"><ele>430</ele><time>2020-05-21T13:48:02Z</time><name>PT12727</name></trkpt>
<trkpt lat="53.356855" lon="-1.641706"><ele>430</ele><time>2020-05-21T13:48:03Z</time><name>PT12728</name></trkpt>
<trkpt lat="53.356844" lon="-1.641689"><ele>430</ele><time>2020-05-21T13:48:04Z</time><name>PT12729</name></trkpt>
<trkpt lat="53.356835" lon="-1.641672"><ele>430</ele><time>2020-05-21T13:48:05Z</time><name>PT12730</name></trkpt>
<trkpt lat="53.356830" lon="-1.641659"><ele>430</ele><time>2020-05-21T13:48:06Z</time><name>PT12731</name></trkpt>
<trkpt lat="53.356826" lon="-1.641641"><ele>430</ele><time>2020-05-21T13:48:07Z</time><name>PT12732</name></trkpt>
<trkpt lat="53.356819" lon="-1.641622"><ele>430</ele><time>2020-05-21T13:48:08Z</time><name>PT12733</name></trkpt>
<trkpt lat="53.356809" lon="-1.641602"><ele>430</ele><time>2020-05-21T13:48:09Z</time><name>PT12734</name></trkpt>
<trkpt lat="53.356798" lon="-1.641582"><ele>431</ele><time>2020-05-21T13:48:11Z</time><name>PT12735</name></trkpt>
<trkpt lat="53.356789" lon="-1.641562"><ele>431</ele><time>2020-05-21T13:48:11Z</time><name>PT12736</name></trkpt>
<trkpt lat="53.356783" lon="-1.641551"><ele>431</ele><time>2020-05-21T13:48:12Z</time><name>PT12737</name></trkpt>
<trkpt lat="53.356780" lon="-1.641541"><ele>431</ele><time>2020-05-21T13:48:13Z</time><name>PT12738</name></trkpt>
<trkpt lat="53.356771" lon="-1.641523"><ele>431</ele><time>2020-05-21T13:48:14Z</time><name>PT12739</name></trkpt>
<trkpt lat="53.356762" lon="-1.641505"><ele>431</ele><time>2020-05-21T13:48:15Z</time><name>PT12740</name></trkpt>
<trkpt lat="53.356753" lon="-1.641483"><ele>431</ele><time>2020-05-21T13:48:16Z</time><name>PT12741</name></trkpt>
<trkpt lat="53.356744" lon="-1.641464"><ele>431</ele><time>2020-05-21T13:48:17Z</time><name>PT12742</name></trkpt>
<trkpt lat="53.356736" lon="-1.641454"><ele>432</ele><time>2020-05-21T13:48:18Z</time><name>PT12743</name></trkpt>
<trkpt lat="53.356728" lon="-1.641444"><ele>432</ele><time>2020-05-21T13:48:19Z</time><name>PT12744</name></trkpt>
<trkpt lat="53.356719" lon="-1.641432"><ele>432</ele><time>2020-05-21T13:48:20Z</time><name>PT12745</name></trkpt>
<trkpt lat="53.356710" lon="-1.641413"><ele>432</ele><time>2020-05-21T13:48:21Z</time><name>PT12746</name></trkpt>
<trkpt lat="53.356700" lon="-1.641390"><ele>432</ele><time>2020-05-21T13:48:22Z</time><name>PT12747</name></trkpt>
<trkpt lat="53.356689" lon="-1.641374"><ele>432</ele><time>2020-05-21T13:48:23Z</time><name>PT12748</name></trkpt>
<trkpt lat="53.356683" lon="-1.641364"><ele>433</ele><time>2020-05-21T13:48:24Z</time><name>PT12749</name></trkpt>
<trkpt lat="53.356678" lon="-1.641354"><ele>432</ele><time>2020-05-21T13:48:25Z</time><name>PT12750</name></trkpt>
<trkpt lat="53.356673" lon="-1.641336"><ele>432</ele><time>2020-05-21T13:48:26Z</time><name>PT12751</name></trkpt>
<trkpt lat="53.356668" lon="-1.641315"><ele>432</ele><time>2020-05-21T13:48:27Z</time><name>PT12752</name></trkpt>
<trkpt lat="53.356659" lon="-1.641291"><ele>431</ele><time>2020-05-21T13:48:28Z</time><name>PT12753</name></trkpt>
<trkpt lat="53.356651" lon="-1.641272"><ele>431</ele><time>2020-05-21T13:48:29Z</time><name>PT12754</name></trkpt>
<trkpt lat="53.356645" lon="-1.641261"><ele>432</ele><time>2020-05-21T13:48:30Z</time><name>PT12755</name></trkpt>
<trkpt lat="53.356639" lon="-1.641251"><ele>432</ele><time>2020-05-21T13:48:31Z</time><name>PT12756</name></trkpt>
<trkpt lat="53.356630" lon="-1.641234"><ele>431</ele><time>2020-05-21T13:48:32Z</time><name>PT12757</name></trkpt>
<trkpt lat="53.356618" lon="-1.641211"><ele>431</ele><time>2020-05-21T13:48:33Z</time><name>PT12758</name></trkpt>
<trkpt lat="53.356608" lon="-1.641185"><ele>431</ele><time>2020-05-21T13:48:34Z</time><name>PT12759</name></trkpt>
<trkpt lat="53.356600" lon="-1.641166"><ele>431</ele><time>2020-05-21T13:48:35Z</time><name>PT12760</name></trkpt>
<trkpt lat="53.356594" lon="-1.641155"><ele>432</ele><time>2020-05-21T13:48:36Z</time><name>PT12761</name></trkpt>
<trkpt lat="53.356586" lon="-1.641141"><ele>432</ele><time>2020-05-21T13:48:37Z</time><name>PT12762</name></trkpt>
<trkpt lat="53.356579" lon="-1.641121"><ele>432</ele><time>2020-05-21T13:48:38Z</time><name>PT12763</name></trkpt>
<trkpt lat="53.356569" lon="-1.641099"><ele>431</ele><time>2020-05-21T13:48:39Z</time><name>PT12764</name></trkpt>
<trkpt lat="53.356558" lon="-1.641077"><ele>432</ele><time>2020-05-21T13:48:40Z</time><name>PT12765</name></trkpt>
<trkpt lat="53.356551" lon="-1.641064"><ele>432</ele><time>2020-05-21T13:48:41Z</time><name>PT12766</name></trkpt>
<trkpt lat="53.356546" lon="-1.641056"><ele>433</ele><time>2020-05-21T13:48:42Z</time><name>PT12767</name></trkpt>
<trkpt lat="53.356539" lon="-1.641045"><ele>432</ele><time>2020-05-21T13:48:43Z</time><name>PT12768</name></trkpt>
<trkpt lat="53.356532" lon="-1.641026"><ele>432</ele><time>2020-05-21T13:48:44Z</time><name>PT12769</name></trkpt>
<trkpt lat="53.356520" lon="-1.641006"><ele>432</ele><time>2020-05-21T13:48:45Z</time><name>PT12770</name></trkpt>
<trkpt lat="53.356510" lon="-1.640991"><ele>432</ele><time>2020-05-21T13:48:46Z</time><name>PT12771</name></trkpt>
<trkpt lat="53.356505" lon="-1.640984"><ele>431</ele><time>2020-05-21T13:48:47Z</time><name>PT12772</name></trkpt>
<trkpt lat="53.356497" lon="-1.640974"><ele>431</ele><time>2020-05-21T13:48:48Z</time><name>PT12773</name></trkpt>
<trkpt lat="53.356491" lon="-1.640956"><ele>431</ele><time>2020-05-21T13:48:49Z</time><name>PT12774</name></trkpt>
<trkpt lat="53.356479" lon="-1.640936"><ele>432</ele><time>2020-05-21T13:48:50Z</time><name>PT12775</name></trkpt>
<trkpt lat="53.356470" lon="-1.640918"><ele>431</ele><time>2020-05-21T13:48:51Z</time><name>PT12776</name></trkpt>
<trkpt lat="53.356464" lon="-1.640909"><ele>431</ele><time>2020-05-21T13:48:52Z</time><name>PT12777</name></trkpt>
<trkpt lat="53.356459" lon="-1.640897"><ele>431</ele><time>2020-05-21T13:48:53Z</time><name>PT12778</name></trkpt>
<trkpt lat="53.356450" lon="-1.640880"><ele>432</ele><time>2020-05-21T13:48:54Z</time><name>PT12779</name></trkpt>
<trkpt lat="53.356438" lon="-1.640860"><ele>431</ele><time>2020-05-21T13:48:55Z</time><name>PT12780</name></trkpt>
<trkpt lat="53.356426" lon="-1.640839"><ele>431</ele><time>2020-05-21T13:48:56Z</time><name>PT12781</name></trkpt>
<trkpt lat="53.356420" lon="-1.640825"><ele>431</ele><time>2020-05-21T13:48:57Z</time><name>PT12782</name></trkpt>
<trkpt lat="53.356414" lon="-1.640813"><ele>431</ele><time>2020-05-21T13:48:58Z</time><name>PT12783</name></trkpt>
<trkpt lat="53.356406" lon="-1.640800"><ele>431</ele><time>2020-05-21T13:48:59Z</time><name>PT12784</name></trkpt>
<trkpt lat="53.356399" lon="-1.640787"><ele>431</ele><time>2020-05-21T13:49:00Z</time><name>PT12785</name></trkpt>
<trkpt lat="53.356389" lon="-1.640769"><ele>432</ele><time>2020-05-21T13:49:01Z</time><name>PT12786</name></trkpt>
<trkpt lat="53.356380" lon="-1.640751"><ele>432</ele><time>2020-05-21T13:49:02Z</time><name>PT12787</name></trkpt>
<trkpt lat="53.356371" lon="-1.640740"><ele>431</ele><time>2020-05-21T13:49:03Z</time><name>PT12788</name></trkpt>
<trkpt lat="53.356362" lon="-1.640726"><ele>431</ele><time>2020-05-21T13:49:04Z</time><name>PT12789</name></trkpt>
<trkpt lat="53.356354" lon="-1.640709"><ele>431</ele><time>2020-05-21T13:49:05Z</time><name>PT12790</name></trkpt>
<trkpt lat="53.356348" lon="-1.640693"><ele>431</ele><time>2020-05-21T13:49:06Z</time><name>PT12791</name></trkpt>
<trkpt lat="53.356340" lon="-1.640680"><ele>431</ele><time>2020-05-21T13:49:07Z</time><name>PT12792</name></trkpt>
<trkpt lat="53.356332" lon="-1.640665"><ele>431</ele><time>2020-05-21T13:49:08Z</time><name>PT12793</name></trkpt>
<trkpt lat="53.356326" lon="-1.640652"><ele>431</ele><time>2020-05-21T13:49:09Z</time><name>PT12794</name></trkpt>
<trkpt lat="53.356320" lon="-1.640637"><ele>431</ele><time>2020-05-21T13:49:10Z</time><name>PT12795</name></trkpt>
<trkpt lat="53.356312" lon="-1.640623"><ele>431</ele><time>2020-05-21T13:49:11Z</time><name>PT12796</name></trkpt>
<trkpt lat="53.356305" lon="-1.640610"><ele>431</ele><time>2020-05-21T13:49:12Z</time><name>PT12797</name></trkpt>
<trkpt lat="53.356296" lon="-1.640597"><ele>431</ele><time>2020-05-21T13:49:13Z</time><name>PT12798</name></trkpt>
<trkpt lat="53.356287" lon="-1.640584"><ele>431</ele><time>2020-05-21T13:49:14Z</time><name>PT12799</name></trkpt>
<trkpt lat="53.356280" lon="-1.640571"><ele>431</ele><time>2020-05-21T13:49:15Z</time><name>PT12800</name></trkpt>
<trkpt lat="53.356271" lon="-1.640558"><ele>431</ele><time>2020-05-21T13:49:16Z</time><name>PT12801</name></trkpt>
<trkpt lat="53.356263" lon="-1.640547"><ele>431</ele><time>2020-05-21T13:49:17Z</time><name>PT12802</name></trkpt>
<trkpt lat="53.356254" lon="-1.640532"><ele>430</ele><time>2020-05-21T13:49:18Z</time><name>PT12803</name></trkpt>
<trkpt lat="53.356246" lon="-1.640516"><ele>431</ele><time>2020-05-21T13:49:19Z</time><name>PT12804</name></trkpt>
<trkpt lat="53.356239" lon="-1.640507"><ele>431</ele><time>2020-05-21T13:49:20Z</time><name>PT12805</name></trkpt>
<trkpt lat="53.356232" lon="-1.640495"><ele>431</ele><time>2020-05-21T13:49:21Z</time><name>PT12806</name></trkpt>
<trkpt lat="53.356223" lon="-1.640481"><ele>430</ele><time>2020-05-21T13:49:22Z</time><name>PT12807</name></trkpt>
<trkpt lat="53.356215" lon="-1.640463"><ele>430</ele><time>2020-05-21T13:49:23Z</time><name>PT12808</name></trkpt>
<trkpt lat="53.356202" lon="-1.640444"><ele>430</ele><time>2020-05-21T13:49:24Z</time><name>PT12809</name></trkpt>
<trkpt lat="53.356189" lon="-1.640425"><ele>430</ele><time>2020-05-21T13:49:25Z</time><name>PT12810</name></trkpt>
<trkpt lat="53.356183" lon="-1.640415"><ele>430</ele><time>2020-05-21T13:49:26Z</time><name>PT12811</name></trkpt>
<trkpt lat="53.356177" lon="-1.640403"><ele>430</ele><time>2020-05-21T13:49:27Z</time><name>PT12812</name></trkpt>
<trkpt lat="53.356172" lon="-1.640385"><ele>430</ele><time>2020-05-21T13:49:28Z</time><name>PT12813</name></trkpt>
<trkpt lat="53.356163" lon="-1.640366"><ele>430</ele><time>2020-05-21T13:49:29Z</time><name>PT12814</name></trkpt>
<trkpt lat="53.356151" lon="-1.640347"><ele>430</ele><time>2020-05-21T13:49:30Z</time><name>PT12815</name></trkpt>
<trkpt lat="53.356141" lon="-1.640327"><ele>430</ele><time>2020-05-21T13:49:31Z</time><name>PT12816</name></trkpt>
<trkpt lat="53.356137" lon="-1.640316"><ele>431</ele><time>2020-05-21T13:49:32Z</time><name>PT12817</name></trkpt>
<trkpt lat="53.356133" lon="-1.640301"><ele>431</ele><time>2020-05-21T13:49:33Z</time><name>PT12818</name></trkpt>
<trkpt lat="53.356125" lon="-1.640284"><ele>430</ele><time>2020-05-21T13:49:34Z</time><name>PT12819</name></trkpt>
<trkpt lat="53.356119" lon="-1.640263"><ele>430</ele><time>2020-05-21T13:49:35Z</time><name>PT12820</name></trkpt>
<trkpt lat="53.356108" lon="-1.640244"><ele>430</ele><time>2020-05-21T13:49:36Z</time><name>PT12821</name></trkpt>
<trkpt lat="53.356097" lon="-1.640226"><ele>431</ele><time>2020-05-21T13:49:37Z</time><name>PT12822</name></trkpt>
<trkpt lat="53.356092" lon="-1.640213"><ele>431</ele><time>2020-05-21T13:49:38Z</time><name>PT12823</name></trkpt>
<trkpt lat="53.356085" lon="-1.640200"><ele>431</ele><time>2020-05-21T13:49:39Z</time><name>PT12824</name></trkpt>
<trkpt lat="53.356078" lon="-1.640183"><ele>431</ele><time>2020-05-21T13:49:40Z</time><name>PT12825</name></trkpt>
<trkpt lat="53.356066" lon="-1.640166"><ele>431</ele><time>2020-05-21T13:49:41Z</time><name>PT12826</name></trkpt>
<trkpt lat="53.356054" lon="-1.640146"><ele>431</ele><time>2020-05-21T13:49:42Z</time><name>PT12827</name></trkpt>
<trkpt lat="53.356046" lon="-1.640127"><ele>432</ele><time>2020-05-21T13:49:43Z</time><name>PT12828</name></trkpt>
<trkpt lat="53.356042" lon="-1.640114"><ele>432</ele><time>2020-05-21T13:49:44Z</time><name>PT12829</name></trkpt>
<trkpt lat="53.356036" lon="-1.640103"><ele>431</ele><time>2020-05-21T13:49:45Z</time><name>PT12830</name></trkpt>
<trkpt lat="53.356026" lon="-1.640089"><ele>431</ele><time>2020-05-21T13:49:46Z</time><name>PT12831</name></trkpt>
<trkpt lat="53.356016" lon="-1.640070"><ele>431</ele><time>2020-05-21T13:49:47Z</time><name>PT12832</name></trkpt>
<trkpt lat="53.356005" lon="-1.640051"><ele>431</ele><time>2020-05-21T13:49:48Z</time><name>PT12833</name></trkpt>
<trkpt lat="53.355995" lon="-1.640034"><ele>431</ele><time>2020-05-21T13:49:49Z</time><name>PT12834</name></trkpt>
<trkpt lat="53.355989" lon="-1.640023"><ele>431</ele><time>2020-05-21T13:49:50Z</time><name>PT12835</name></trkpt>
<trkpt lat="53.355982" lon="-1.640009"><ele>431</ele><time>2020-05-21T13:49:51Z</time><name>PT12836</name></trkpt>
<trkpt lat="53.355970" lon="-1.639998"><ele>431</ele><time>2020-05-21T13:49:52Z</time><name>PT12837</name></trkpt>
<trkpt lat="53.355958" lon="-1.639986"><ele>432</ele><time>2020-05-21T13:49:53Z</time><name>PT12838</name></trkpt>
<trkpt lat="53.355948" lon="-1.639967"><ele>432</ele><time>2020-05-21T13:49:54Z</time><name>PT12839</name></trkpt>
<trkpt lat="53.355936" lon="-1.639949"><ele>432</ele><time>2020-05-21T13:49:55Z</time><name>PT12840</name></trkpt>
<trkpt lat="53.355928" lon="-1.639931"><ele>432</ele><time>2020-05-21T13:49:56Z</time><name>PT12841</name></trkpt>
<trkpt lat="53.355923" lon="-1.639919"><ele>432</ele><time>2020-05-21T13:49:57Z</time><name>PT12842</name></trkpt>
<trkpt lat="53.355917" lon="-1.639908"><ele>433</ele><time>2020-05-21T13:49:58Z</time><name>PT12843</name></trkpt>
<trkpt lat="53.355910" lon="-1.639894"><ele>432</ele><time>2020-05-21T13:49:59Z</time><name>PT12844</name></trkpt>
<trkpt lat="53.355901" lon="-1.639879"><ele>432</ele><time>2020-05-21T13:50:00Z</time><name>PT12845</name></trkpt>
<trkpt lat="53.355890" lon="-1.639861"><ele>433</ele><time>2020-05-21T13:50:01Z</time><name>PT12846</name></trkpt>
<trkpt lat="53.355877" lon="-1.639840"><ele>433</ele><time>2020-05-21T13:50:02Z</time><name>PT12847</name></trkpt>
<trkpt lat="53.355867" lon="-1.639825"><ele>433</ele><time>2020-05-21T13:50:03Z</time><name>PT12848</name></trkpt>
<trkpt lat="53.355862" lon="-1.639814"><ele>433</ele><time>2020-05-21T13:50:04Z</time><name>PT12849</name></trkpt>
<trkpt lat="53.355857" lon="-1.639800"><ele>433</ele><time>2020-05-21T13:50:05Z</time><name>PT12850</name></trkpt>
<trkpt lat="53.355851" lon="-1.639785"><ele>433</ele><time>2020-05-21T13:50:06Z</time><name>PT12851</name></trkpt>
<trkpt lat="53.355842" lon="-1.639766"><ele>434</ele><time>2020-05-21T13:50:07Z</time><name>PT12852</name></trkpt>
<trkpt lat="53.355831" lon="-1.639744"><ele>434</ele><time>2020-05-21T13:50:08Z</time><name>PT12853</name></trkpt>
<trkpt lat="53.355820" lon="-1.639725"><ele>434</ele><time>2020-05-21T13:50:09Z</time><name>PT12854</name></trkpt>
<trkpt lat="53.355816" lon="-1.639718"><ele>434</ele><time>2020-05-21T13:50:10Z</time><name>PT12855</name></trkpt>
<trkpt lat="53.355812" lon="-1.639705"><ele>434</ele><time>2020-05-21T13:50:11Z</time><name>PT12856</name></trkpt>
<trkpt lat="53.355803" lon="-1.639689"><ele>434</ele><time>2020-05-21T13:50:12Z</time><name>PT12857</name></trkpt>
<trkpt lat="53.355795" lon="-1.639671"><ele>433</ele><time>2020-05-21T13:50:13Z</time><name>PT12858</name></trkpt>
<trkpt lat="53.355783" lon="-1.639652"><ele>434</ele><time>2020-05-21T13:50:14Z</time><name>PT12859</name></trkpt>
<trkpt lat="53.355772" lon="-1.639640"><ele>434</ele><time>2020-05-21T13:50:15Z</time><name>PT12860</name></trkpt>
<trkpt lat="53.355766" lon="-1.639634"><ele>434</ele><time>2020-05-21T13:50:17Z</time><name>PT12861</name></trkpt>
<trkpt lat="53.355759" lon="-1.639621"><ele>434</ele><time>2020-05-21T13:50:17Z</time><name>PT12862</name></trkpt>
<trkpt lat="53.355752" lon="-1.639606"><ele>434</ele><time>2020-05-21T13:50:18Z</time><name>PT12863</name></trkpt>
<trkpt lat="53.355743" lon="-1.639594"><ele>434</ele><time>2020-05-21T13:50:19Z</time><name>PT12864</name></trkpt>
<trkpt lat="53.355741" lon="-1.639577"><ele>434</ele><time>2020-05-21T13:50:20Z</time><name>PT12865</name></trkpt>
<trkpt lat="53.355743" lon="-1.639564"><ele>434</ele><time>2020-05-21T13:50:21Z</time><name>PT12866</name></trkpt>
<trkpt lat="53.355742" lon="-1.639559"><ele>433</ele><time>2020-05-21T13:50:22Z</time><name>PT12867</name></trkpt>
<trkpt lat="53.355743" lon="-1.639556"><ele>433</ele><time>2020-05-21T13:50:23Z</time><name>PT12868</name></trkpt>
<trkpt lat="53.355743" lon="-1.639556"><ele>432</ele><time>2020-05-21T13:50:24Z</time><name>PT12869</name></trkpt>
<trkpt lat="53.355742" lon="-1.639556"><ele>432</ele><time>2020-05-21T13:50:25Z</time><name>PT12870</name></trkpt>
<trkpt lat="53.355744" lon="-1.639564"><ele>432</ele><time>2020-05-21T13:50:27Z</time><name>PT12871</name></trkpt>
<trkpt lat="53.355743" lon="-1.639561"><ele>432</ele><time>2020-05-21T13:50:28Z</time><name>PT12872</name></trkpt>
<trkpt lat="53.355743" lon="-1.639561"><ele>432</ele><time>2020-05-21T13:50:29Z</time><name>PT12873</name></trkpt>
<trkpt lat="53.355740" lon="-1.639549"><ele>432</ele><time>2020-05-21T13:50:41Z</time><name>PT12874</name></trkpt>
<trkpt lat="53.355733" lon="-1.639526"><ele>432</ele><time>2020-05-21T13:50:42Z</time><name>PT12875</name></trkpt>
<trkpt lat="53.355726" lon="-1.639498"><ele>433</ele><time>2020-05-21T13:50:43Z</time><name>PT12876</name></trkpt>
<trkpt lat="53.355717" lon="-1.639475"><ele>433</ele><time>2020-05-21T13:50:44Z</time><name>PT12877</name></trkpt>
<trkpt lat="53.355713" lon="-1.639457"><ele>433</ele><time>2020-05-21T13:50:45Z</time><name>PT12878</name></trkpt>
<trkpt lat="53.355710" lon="-1.639438"><ele>433</ele><time>2020-05-21T13:50:46Z</time><name>PT12879</name></trkpt>
<trkpt lat="53.355705" lon="-1.639420"><ele>433</ele><time>2020-05-21T13:50:47Z</time><name>PT12880</name></trkpt>
<trkpt lat="53.355701" lon="-1.639398"><ele>433</ele><time>2020-05-21T13:50:48Z</time><name>PT12881</name></trkpt>
<trkpt lat="53.355695" lon="-1.639385"><ele>433</ele><time>2020-05-21T13:50:49Z</time><name>PT12882</name></trkpt>
<trkpt lat="53.355687" lon="-1.639366"><ele>433</ele><time>2020-05-21T13:50:50Z</time><name>PT12883</name></trkpt>
<trkpt lat="53.355682" lon="-1.639344"><ele>432</ele><time>2020-05-21T13:50:51Z</time><name>PT12884</name></trkpt>
<trkpt lat="53.355678" lon="-1.639321"><ele>433</ele><time>2020-05-21T13:50:52Z</time><name>PT12885</name></trkpt>
<trkpt lat="53.355677" lon="-1.639304"><ele>432</ele><time>2020-05-21T13:50:53Z</time><name>PT12886</name></trkpt>
<trkpt lat="53.355675" lon="-1.639292"><ele>432</ele><time>2020-05-21T13:50:54Z</time><name>PT12887</name></trkpt>
<trkpt lat="53.355671" lon="-1.639277"><ele>432</ele><time>2020-05-21T13:50:55Z</time><name>PT12888</name></trkpt>
<trkpt lat="53.355667" lon="-1.639257"><ele>433</ele><time>2020-05-21T13:50:56Z</time><name>PT12889</name></trkpt>
<trkpt lat="53.355661" lon="-1.639234"><ele>433</ele><time>2020-05-21T13:50:57Z</time><name>PT12890</name></trkpt>
<trkpt lat="53.355658" lon="-1.639212"><ele>433</ele><time>2020-05-21T13:50:58Z</time><name>PT12891</name></trkpt>
<trkpt lat="53.355658" lon="-1.639191"><ele>433</ele><time>2020-05-21T13:50:59Z</time><name>PT12892</name></trkpt>
<trkpt lat="53.355656" lon="-1.639174"><ele>433</ele><time>2020-05-21T13:51:00Z</time><name>PT12893</name></trkpt>
<trkpt lat="53.355652" lon="-1.639158"><ele>433</ele><time>2020-05-21T13:51:01Z</time><name>PT12894</name></trkpt>
<trkpt lat="53.355650" lon="-1.639135"><ele>433</ele><time>2020-05-21T13:51:02Z</time><name>PT12895</name></trkpt>
<trkpt lat="53.355649" lon="-1.639112"><ele>433</ele><time>2020-05-21T13:51:03Z</time><name>PT12896</name></trkpt>
<trkpt lat="53.355645" lon="-1.639086"><ele>433</ele><time>2020-05-21T13:51:04Z</time><name>PT12897</name></trkpt>
<trkpt lat="53.355643" lon="-1.639060"><ele>433</ele><time>2020-05-21T13:51:05Z</time><name>PT12898</name></trkpt>
<trkpt lat="53.355641" lon="-1.639042"><ele>434</ele><time>2020-05-21T13:51:06Z</time><name>PT12899</name></trkpt>
<trkpt lat="53.355640" lon="-1.639026"><ele>434</ele><time>2020-05-21T13:51:07Z</time><name>PT12900</name></trkpt>
<trkpt lat="53.355639" lon="-1.639008"><ele>433</ele><time>2020-05-21T13:51:08Z</time><name>PT12901</name></trkpt>
<trkpt lat="53.355637" lon="-1.638985"><ele>433</ele><time>2020-05-21T13:51:09Z</time><name>PT12902</name></trkpt>
<trkpt lat="53.355637" lon="-1.638964"><ele>434</ele><time>2020-05-21T13:51:10Z</time><name>PT12903</name></trkpt>
<trkpt lat="53.355636" lon="-1.638935"><ele>434</ele><time>2020-05-21T13:51:11Z</time><name>PT12904</name></trkpt>
<trkpt lat="53.355633" lon="-1.638911"><ele>434</ele><time>2020-05-21T13:51:12Z</time><name>PT12905</name></trkpt>
<trkpt lat="53.355633" lon="-1.638898"><ele>435</ele><time>2020-05-21T13:51:13Z</time><name>PT12906</name></trkpt>
<trkpt lat="53.355635" lon="-1.638872"><ele>435</ele><time>2020-05-21T13:51:15Z</time><name>PT12907</name></trkpt>
<trkpt lat="53.355634" lon="-1.638846"><ele>435</ele><time>2020-05-21T13:51:16Z</time><name>PT12908</name></trkpt>
<trkpt lat="53.355633" lon="-1.638815"><ele>435</ele><time>2020-05-21T13:51:17Z</time><name>PT12909</name></trkpt>
<trkpt lat="53.355633" lon="-1.638786"><ele>435</ele><time>2020-05-21T13:51:18Z</time><name>PT12910</name></trkpt>
<trkpt lat="53.355630" lon="-1.638769"><ele>435</ele><time>2020-05-21T13:51:19Z</time><name>PT12911</name></trkpt>
<trkpt lat="53.355629" lon="-1.638756"><ele>435</ele><time>2020-05-21T13:51:20Z</time><name>PT12912</name></trkpt>
<trkpt lat="53.355628" lon="-1.638737"><ele>435</ele><time>2020-05-21T13:51:21Z</time><name>PT12913</name></trkpt>
<trkpt lat="53.355629" lon="-1.638715"><ele>434</ele><time>2020-05-21T13:51:22Z</time><name>PT12914</name></trkpt>
<trkpt lat="53.355629" lon="-1.638695"><ele>434</ele><time>2020-05-21T13:51:23Z</time><name>PT12915</name></trkpt>
<trkpt lat="53.355629" lon="-1.638670"><ele>434</ele><time>2020-05-21T13:51:24Z</time><name>PT12916</name></trkpt>
<trkpt lat="53.355630" lon="-1.638646"><ele>434</ele><time>2020-05-21T13:51:25Z</time><name>PT12917</name></trkpt>
<trkpt lat="53.355629" lon="-1.638629"><ele>435</ele><time>2020-05-21T13:51:26Z</time><name>PT12918</name></trkpt>
<trkpt lat="53.355629" lon="-1.638614"><ele>435</ele><time>2020-05-21T13:51:27Z</time><name>PT12919</name></trkpt>
<trkpt lat="53.355630" lon="-1.638591"><ele>434</ele><time>2020-05-21T13:51:28Z</time><name>PT12920</name></trkpt>
<trkpt lat="53.355632" lon="-1.638566"><ele>434</ele><time>2020-05-21T13:51:29Z</time><name>PT12921</name></trkpt>
<trkpt lat="53.355634" lon="-1.638514"><ele>435</ele><time>2020-05-21T13:51:31Z</time><name>PT12922</name></trkpt>
<trkpt lat="53.355633" lon="-1.638497"><ele>435</ele><time>2020-05-21T13:51:32Z</time><name>PT12923</name></trkpt>
<trkpt lat="53.355631" lon="-1.638481"><ele>434</ele><time>2020-05-21T13:51:33Z</time><name>PT12924</name></trkpt>
<trkpt lat="53.355629" lon="-1.638464"><ele>433</ele><time>2020-05-21T13:51:34Z</time><name>PT12925</name></trkpt>
<trkpt lat="53.355629" lon="-1.638440"><ele>433</ele><time>2020-05-21T13:51:35Z</time><name>PT12926</name></trkpt>
<trkpt lat="53.355630" lon="-1.638412"><ele>434</ele><time>2020-05-21T13:51:36Z</time><name>PT12927</name></trkpt>
<trkpt lat="53.355632" lon="-1.638384"><ele>434</ele><time>2020-05-21T13:51:37Z</time><name>PT12928</name></trkpt>
<trkpt lat="53.355633" lon="-1.638367"><ele>434</ele><time>2020-05-21T13:51:38Z</time><name>PT12929</name></trkpt>
<trkpt lat="53.355635" lon="-1.638354"><ele>434</ele><time>2020-05-21T13:51:39Z</time><name>PT12930</name></trkpt>
<trkpt lat="53.355636" lon="-1.638338"><ele>433</ele><time>2020-05-21T13:51:40Z</time><name>PT12931</name></trkpt>
<trkpt lat="53.355640" lon="-1.638316"><ele>433</ele><time>2020-05-21T13:51:41Z</time><name>PT12932</name></trkpt>
<trkpt lat="53.355646" lon="-1.638298"><ele>433</ele><time>2020-05-21T13:51:42Z</time><name>PT12933</name></trkpt>
<trkpt lat="53.355650" lon="-1.638271"><ele>433</ele><time>2020-05-21T13:51:43Z</time><name>PT12934</name></trkpt>
<trkpt lat="53.355651" lon="-1.638254"><ele>433</ele><time>2020-05-21T13:51:44Z</time><name>PT12935</name></trkpt>
<trkpt lat="53.355652" lon="-1.638238"><ele>433</ele><time>2020-05-21T13:51:45Z</time><name>PT12936</name></trkpt>
<trkpt lat="53.355651" lon="-1.638218"><ele>432</ele><time>2020-05-21T13:51:46Z</time><name>PT12937</name></trkpt>
<trkpt lat="53.355652" lon="-1.638196"><ele>432</ele><time>2020-05-21T13:51:47Z</time><name>PT12938</name></trkpt>
<trkpt lat="53.355655" lon="-1.638178"><ele>432</ele><time>2020-05-21T13:51:48Z</time><name>PT12939</name></trkpt>
<trkpt lat="53.355657" lon="-1.638155"><ele>432</ele><time>2020-05-21T13:51:49Z</time><name>PT12940</name></trkpt>
<trkpt lat="53.355658" lon="-1.638132"><ele>433</ele><time>2020-05-21T13:51:50Z</time><name>PT12941</name></trkpt>
<trkpt lat="53.355657" lon="-1.638117"><ele>433</ele><time>2020-05-21T13:51:51Z</time><name>PT12942</name></trkpt>
<trkpt lat="53.355657" lon="-1.638102"><ele>433</ele><time>2020-05-21T13:51:52Z</time><name>PT12943</name></trkpt>
<trkpt lat="53.355659" lon="-1.638084"><ele>433</ele><time>2020-05-21T13:51:53Z</time><name>PT12944</name></trkpt>
<trkpt lat="53.355662" lon="-1.638059"><ele>433</ele><time>2020-05-21T13:51:54Z</time><name>PT12945</name></trkpt>
<trkpt lat="53.355663" lon="-1.638034"><ele>434</ele><time>2020-05-21T13:51:55Z</time><name>PT12946</name></trkpt>
<trkpt lat="53.355664" lon="-1.638007"><ele>434</ele><time>2020-05-21T13:51:56Z</time><name>PT12947</name></trkpt>
<trkpt lat="53.355664" lon="-1.637993"><ele>433</ele><time>2020-05-21T13:51:57Z</time><name>PT12948</name></trkpt>
<trkpt lat="53.355667" lon="-1.637983"><ele>434</ele><time>2020-05-21T13:51:58Z</time><name>PT12949</name></trkpt>
<trkpt lat="53.355670" lon="-1.637962"><ele>434</ele><time>2020-05-21T13:51:59Z</time><name>PT12950</name></trkpt>
<trkpt lat="53.355672" lon="-1.637941"><ele>434</ele><time>2020-05-21T13:52:00Z</time><name>PT12951</name></trkpt>
<trkpt lat="53.355674" lon="-1.637921"><ele>434</ele><time>2020-05-21T13:52:01Z</time><name>PT12952</name></trkpt>
<trkpt lat="53.355675" lon="-1.637895"><ele>434</ele><time>2020-05-21T13:52:02Z</time><name>PT12953</name></trkpt>
<trkpt lat="53.355674" lon="-1.637875"><ele>434</ele><time>2020-05-21T13:52:03Z</time><name>PT12954</name></trkpt>
<trkpt lat="53.355675" lon="-1.637858"><ele>434</ele><time>2020-05-21T13:52:04Z</time><name>PT12955</name></trkpt>
<trkpt lat="53.355679" lon="-1.637841"><ele>434</ele><time>2020-05-21T13:52:05Z</time><name>PT12956</name></trkpt>
<trkpt lat="53.355682" lon="-1.637818"><ele>434</ele><time>2020-05-21T13:52:06Z</time><name>PT12957</name></trkpt>
<trkpt lat="53.355684" lon="-1.637790"><ele>434</ele><time>2020-05-21T13:52:07Z</time><name>PT12958</name></trkpt>
<trkpt lat="53.355684" lon="-1.637768"><ele>435</ele><time>2020-05-21T13:52:08Z</time><name>PT12959</name></trkpt>
<trkpt lat="53.355685" lon="-1.637750"><ele>435</ele><time>2020-05-21T13:52:09Z</time><name>PT12960</name></trkpt>
<trkpt lat="53.355686" lon="-1.637728"><ele>435</ele><time>2020-05-21T13:52:10Z</time><name>PT12961</name></trkpt>
<trkpt lat="53.355685" lon="-1.637704"><ele>435</ele><time>2020-05-21T13:52:11Z</time><name>PT12962</name></trkpt>
<trkpt lat="53.355686" lon="-1.637680"><ele>435</ele><time>2020-05-21T13:52:12Z</time><name>PT12963</name></trkpt>
<trkpt lat="53.355689" lon="-1.637656"><ele>435</ele><time>2020-05-21T13:52:13Z</time><name>PT12964</name></trkpt>
<trkpt lat="53.355692" lon="-1.637633"><ele>435</ele><time>2020-05-21T13:52:14Z</time><name>PT12965</name></trkpt>
<trkpt lat="53.355691" lon="-1.637620"><ele>435</ele><time>2020-05-21T13:52:15Z</time><name>PT12966</name></trkpt>
<trkpt lat="53.355691" lon="-1.637607"><ele>435</ele><time>2020-05-21T13:52:16Z</time><name>PT12967</name></trkpt>
<trkpt lat="53.355692" lon="-1.637586"><ele>435</ele><time>2020-05-21T13:52:17Z</time><name>PT12968</name></trkpt>
<trkpt lat="53.355694" lon="-1.637566"><ele>436</ele><time>2020-05-21T13:52:18Z</time><name>PT12969</name></trkpt>
<trkpt lat="53.355695" lon="-1.637542"><ele>436</ele><time>2020-05-21T13:52:19Z</time><name>PT12970</name></trkpt>
<trkpt lat="53.355694" lon="-1.637517"><ele>436</ele><time>2020-05-21T13:52:20Z</time><name>PT12971</name></trkpt>
<trkpt lat="53.355693" lon="-1.637500"><ele>435</ele><time>2020-05-21T13:52:21Z</time><name>PT12972</name></trkpt>
<trkpt lat="53.355694" lon="-1.637489"><ele>435</ele><time>2020-05-21T13:52:22Z</time><name>PT12973</name></trkpt>
<trkpt lat="53.355694" lon="-1.637467"><ele>435</ele><time>2020-05-21T13:52:23Z</time><name>PT12974</name></trkpt>
<trkpt lat="53.355693" lon="-1.637447"><ele>435</ele><time>2020-05-21T13:52:24Z</time><name>PT12975</name></trkpt>
<trkpt lat="53.355693" lon="-1.637426"><ele>436</ele><time>2020-05-21T13:52:25Z</time><name>PT12976</name></trkpt>
<trkpt lat="53.355694" lon="-1.637407"><ele>436</ele><time>2020-05-21T13:52:26Z</time><name>PT12977</name></trkpt>
<trkpt lat="53.355696" lon="-1.637391"><ele>436</ele><time>2020-05-21T13:52:27Z</time><name>PT12978</name></trkpt>
<trkpt lat="53.355698" lon="-1.637378"><ele>436</ele><time>2020-05-21T13:52:28Z</time><name>PT12979</name></trkpt>
<trkpt lat="53.355700" lon="-1.637361"><ele>435</ele><time>2020-05-21T13:52:29Z</time><name>PT12980</name></trkpt>
<trkpt lat="53.355701" lon="-1.637342"><ele>435</ele><time>2020-05-21T13:52:30Z</time><name>PT12981</name></trkpt>
<trkpt lat="53.355706" lon="-1.637319"><ele>435</ele><time>2020-05-21T13:52:31Z</time><name>PT12982</name></trkpt>
<trkpt lat="53.355710" lon="-1.637289"><ele>435</ele><time>2020-05-21T13:52:32Z</time><name>PT12983</name></trkpt>
<trkpt lat="53.355711" lon="-1.637268"><ele>435</ele><time>2020-05-21T13:52:33Z</time><name>PT12984</name></trkpt>
<trkpt lat="53.355712" lon="-1.637252"><ele>435</ele><time>2020-05-21T13:52:34Z</time><name>PT12985</name></trkpt>
<trkpt lat="53.355714" lon="-1.637233"><ele>436</ele><time>2020-05-21T13:52:35Z</time><name>PT12986</name></trkpt>
<trkpt lat="53.355716" lon="-1.637211"><ele>436</ele><time>2020-05-21T13:52:36Z</time><name>PT12987</name></trkpt>
<trkpt lat="53.355718" lon="-1.637187"><ele>436</ele><time>2020-05-21T13:52:37Z</time><name>PT12988</name></trkpt>
<trkpt lat="53.355719" lon="-1.637165"><ele>436</ele><time>2020-05-21T13:52:38Z</time><name>PT12989</name></trkpt>
<trkpt lat="53.355718" lon="-1.637149"><ele>436</ele><time>2020-05-21T13:52:39Z</time><name>PT12990</name></trkpt>
<trkpt lat="53.355720" lon="-1.637132"><ele>436</ele><time>2020-05-21T13:52:40Z</time><name>PT12991</name></trkpt>
<trkpt lat="53.355720" lon="-1.637109"><ele>436</ele><time>2020-05-21T13:52:41Z</time><name>PT12992</name></trkpt>
<trkpt lat="53.355722" lon="-1.637085"><ele>436</ele><time>2020-05-21T13:52:42Z</time><name>PT12993</name></trkpt>
<trkpt lat="53.355721" lon="-1.637056"><ele>437</ele><time>2020-05-21T13:52:43Z</time><name>PT12994</name></trkpt>
<trkpt lat="53.355721" lon="-1.637029"><ele>437</ele><time>2020-05-21T13:52:44Z</time><name>PT12995</name></trkpt>
<trkpt lat="53.355724" lon="-1.637014"><ele>437</ele><time>2020-05-21T13:52:45Z</time><name>PT12996</name></trkpt>
<trkpt lat="53.355729" lon="-1.637001"><ele>437</ele><time>2020-05-21T13:52:46Z</time><name>PT12997</name></trkpt>
<trkpt lat="53.355733" lon="-1.636981"><ele>437</ele><time>2020-05-21T13:52:47Z</time><name>PT12998</name></trkpt>
<trkpt lat="53.355736" lon="-1.636961"><ele>437</ele><time>2020-05-21T13:52:48Z</time><name>PT12999</name></trkpt>
<trkpt lat="53.355739" lon="-1.636932"><ele>438</ele><time>2020-05-21T13:52:49Z</time><name>PT13000</name></trkpt>
<trkpt lat="53.355739" lon="-1.636907"><ele>437</ele><time>2020-05-21T13:52:50Z</time><name>PT13001</name></trkpt>
<trkpt lat="53.355738" lon="-1.636890"><ele>437</ele><time>2020-05-21T13:52:51Z</time><name>PT13002</name></trkpt>
<trkpt lat="53.355738" lon="-1.636873"><ele>436</ele><time>2020-05-21T13:52:52Z</time><name>PT13003</name></trkpt>
<trkpt lat="53.355738" lon="-1.636849"><ele>436</ele><time>2020-05-21T13:52:53Z</time><name>PT13004</name></trkpt>
<trkpt lat="53.355736" lon="-1.636833"><ele>436</ele><time>2020-05-21T13:52:54Z</time><name>PT13005</name></trkpt>
<trkpt lat="53.355738" lon="-1.636811"><ele>436</ele><time>2020-05-21T13:52:55Z</time><name>PT13006</name></trkpt>
<trkpt lat="53.355741" lon="-1.636791"><ele>437</ele><time>2020-05-21T13:52:56Z</time><name>PT13007</name></trkpt>
<trkpt lat="53.355744" lon="-1.636775"><ele>437</ele><time>2020-05-21T13:52:57Z</time><name>PT13008</name></trkpt>
<trkpt lat="53.355747" lon="-1.636754"><ele>436</ele><time>2020-05-21T13:52:58Z</time><name>PT13009</name></trkpt>
<trkpt lat="53.355752" lon="-1.636734"><ele>435</ele><time>2020-05-21T13:52:59Z</time><name>PT13010</name></trkpt>
<trkpt lat="53.355755" lon="-1.636711"><ele>436</ele><time>2020-05-21T13:53:00Z</time><name>PT13011</name></trkpt>
<trkpt lat="53.355756" lon="-1.636685"><ele>436</ele><time>2020-05-21T13:53:01Z</time><name>PT13012</name></trkpt>
<trkpt lat="53.355757" lon="-1.636661"><ele>436</ele><time>2020-05-21T13:53:02Z</time><name>PT13013</name></trkpt>
<trkpt lat="53.355759" lon="-1.636639"><ele>436</ele><time>2020-05-21T13:53:03Z</time><name>PT13014</name></trkpt>
<trkpt lat="53.355759" lon="-1.636620"><ele>435</ele><time>2020-05-21T13:53:04Z</time><name>PT13015</name></trkpt>
<trkpt lat="53.355761" lon="-1.636600"><ele>435</ele><time>2020-05-21T13:53:05Z</time><name>PT13016</name></trkpt>
<trkpt lat="53.355761" lon="-1.636578"><ele>435</ele><time>2020-05-21T13:53:06Z</time><name>PT13017</name></trkpt>
<trkpt lat="53.355763" lon="-1.636552"><ele>436</ele><time>2020-05-21T13:53:07Z</time><name>PT13018</name></trkpt>
<trkpt lat="53.355764" lon="-1.636536"><ele>435</ele><time>2020-05-21T13:53:08Z</time><name>PT13019</name></trkpt>
<trkpt lat="53.355768" lon="-1.636522"><ele>435</ele><time>2020-05-21T13:53:09Z</time><name>PT13020</name></trkpt>
<trkpt lat="53.355770" lon="-1.636506"><ele>434</ele><time>2020-05-21T13:53:10Z</time><name>PT13021</name></trkpt>
<trkpt lat="53.355771" lon="-1.636486"><ele>434</ele><time>2020-05-21T13:53:11Z</time><name>PT13022</name></trkpt>
<trkpt lat="53.355773" lon="-1.636460"><ele>434</ele><time>2020-05-21T13:53:12Z</time><name>PT13023</name></trkpt>
<trkpt lat="53.355775" lon="-1.636433"><ele>435</ele><time>2020-05-21T13:53:13Z</time><name>PT13024</name></trkpt>
<trkpt lat="53.355776" lon="-1.636415"><ele>434</ele><time>2020-05-21T13:53:14Z</time><name>PT13025</name></trkpt>
<trkpt lat="53.355776" lon="-1.636398"><ele>434</ele><time>2020-05-21T13:53:15Z</time><name>PT13026</name></trkpt>
<trkpt lat="53.355778" lon="-1.636378"><ele>434</ele><time>2020-05-21T13:53:16Z</time><name>PT13027</name></trkpt>
<trkpt lat="53.355782" lon="-1.636357"><ele>435</ele><time>2020-05-21T13:53:17Z</time><name>PT13028</name></trkpt>
<trkpt lat="53.355786" lon="-1.636336"><ele>435</ele><time>2020-05-21T13:53:18Z</time><name>PT13029</name></trkpt>
<trkpt lat="53.355788" lon="-1.636311"><ele>435</ele><time>2020-05-21T13:53:19Z</time><name>PT13030</name></trkpt>
<trkpt lat="53.355792" lon="-1.636291"><ele>435</ele><time>2020-05-21T13:53:20Z</time><name>PT13031</name></trkpt>
<trkpt lat="53.355794" lon="-1.636278"><ele>435</ele><time>2020-05-21T13:53:21Z</time><name>PT13032</name></trkpt>
<trkpt lat="53.355797" lon="-1.636240"><ele>435</ele><time>2020-05-21T13:53:23Z</time><name>PT13033</name></trkpt>
<trkpt lat="53.355800" lon="-1.636214"><ele>435</ele><time>2020-05-21T13:53:24Z</time><name>PT13034</name></trkpt>
<trkpt lat="53.355802" lon="-1.636188"><ele>436</ele><time>2020-05-21T13:53:25Z</time><name>PT13035</name></trkpt>
<trkpt lat="53.355805" lon="-1.636167"><ele>436</ele><time>2020-05-21T13:53:26Z</time><name>PT13036</name></trkpt>
<trkpt lat="53.355805" lon="-1.636152"><ele>436</ele><time>2020-05-21T13:53:27Z</time><name>PT13037</name></trkpt>
<trkpt lat="53.355804" lon="-1.636135"><ele>436</ele><time>2020-05-21T13:53:28Z</time><name>PT13038</name></trkpt>
<trkpt lat="53.355802" lon="-1.636113"><ele>436</ele><time>2020-05-21T13:53:29Z</time><name>PT13039</name></trkpt>
<trkpt lat="53.355802" lon="-1.636089"><ele>435</ele><time>2020-05-21T13:53:30Z</time><name>PT13040</name></trkpt>
<trkpt lat="53.355802" lon="-1.636061"><ele>436</ele><time>2020-05-21T13:53:31Z</time><name>PT13041</name></trkpt>
<trkpt lat="53.355800" lon="-1.636037"><ele>436</ele><time>2020-05-21T13:53:32Z</time><name>PT13042</name></trkpt>
<trkpt lat="53.355800" lon="-1.636020"><ele>436</ele><time>2020-05-21T13:53:33Z</time><name>PT13043</name></trkpt>
<trkpt lat="53.355799" lon="-1.636002"><ele>436</ele><time>2020-05-21T13:53:34Z</time><name>PT13044</name></trkpt>
<trkpt lat="53.355796" lon="-1.635983"><ele>435</ele><time>2020-05-21T13:53:35Z</time><name>PT13045</name></trkpt>
<trkpt lat="53.355796" lon="-1.635961"><ele>435</ele><time>2020-05-21T13:53:36Z</time><name>PT13046</name></trkpt>
<trkpt lat="53.355793" lon="-1.635939"><ele>435</ele><time>2020-05-21T13:53:37Z</time><name>PT13047</name></trkpt>
<trkpt lat="53.355793" lon="-1.635914"><ele>436</ele><time>2020-05-21T13:53:38Z</time><name>PT13048</name></trkpt>
<trkpt lat="53.355794" lon="-1.635894"><ele>436</ele><time>2020-05-21T13:53:39Z</time><name>PT13049</name></trkpt>
<trkpt lat="53.355793" lon="-1.635877"><ele>436</ele><time>2020-05-21T13:53:40Z</time><name>PT13050</name></trkpt>
<trkpt lat="53.355794" lon="-1.635854"><ele>436</ele><time>2020-05-21T13:53:41Z</time><name>PT13051</name></trkpt>
<trkpt lat="53.355797" lon="-1.635831"><ele>436</ele><time>2020-05-21T13:53:42Z</time><name>PT13052</name></trkpt>
<trkpt lat="53.355802" lon="-1.635808"><ele>436</ele><time>2020-05-21T13:53:43Z</time><name>PT13053</name></trkpt>
<trkpt lat="53.355808" lon="-1.635788"><ele>436</ele><time>2020-05-21T13:53:44Z</time><name>PT13054</name></trkpt>
<trkpt lat="53.355810" lon="-1.635772"><ele>436</ele><time>2020-05-21T13:53:45Z</time><name>PT13055</name></trkpt>
<trkpt lat="53.355812" lon="-1.635760"><ele>435</ele><time>2020-05-21T13:53:46Z</time><name>PT13056</name></trkpt>
<trkpt lat="53.355818" lon="-1.635745"><ele>435</ele><time>2020-05-21T13:53:47Z</time><name>PT13057</name></trkpt>
<trkpt lat="53.355821" lon="-1.635719"><ele>435</ele><time>2020-05-21T13:53:48Z</time><name>PT13058</name></trkpt>
<trkpt lat="53.355824" lon="-1.635691"><ele>436</ele><time>2020-05-21T13:53:49Z</time><name>PT13059</name></trkpt>
<trkpt lat="53.355828" lon="-1.635667"><ele>436</ele><time>2020-05-21T13:53:50Z</time><name>PT13060</name></trkpt>
<trkpt lat="53.355828" lon="-1.635649"><ele>436</ele><time>2020-05-21T13:53:51Z</time><name>PT13061</name></trkpt>
<trkpt lat="53.355829" lon="-1.635634"><ele>436</ele><time>2020-05-21T13:53:52Z</time><name>PT13062</name></trkpt>
<trkpt lat="53.355832" lon="-1.635615"><ele>436</ele><time>2020-05-21T13:53:53Z</time><name>PT13063</name></trkpt>
<trkpt lat="53.355833" lon="-1.635589"><ele>437</ele><time>2020-05-21T13:53:54Z</time><name>PT13064</name></trkpt>
<trkpt lat="53.355835" lon="-1.635563"><ele>437</ele><time>2020-05-21T13:53:55Z</time><name>PT13065</name></trkpt>
<trkpt lat="53.355837" lon="-1.635549"><ele>436</ele><time>2020-05-21T13:53:56Z</time><name>PT13066</name></trkpt>
<trkpt lat="53.355839" lon="-1.635535"><ele>436</ele><time>2020-05-21T13:53:57Z</time><name>PT13067</name></trkpt>
<trkpt lat="53.355840" lon="-1.635519"><ele>436</ele><time>2020-05-21T13:53:58Z</time><name>PT13068</name></trkpt>
<trkpt lat="53.355843" lon="-1.635503"><ele>436</ele><time>2020-05-21T13:53:59Z</time><name>PT13069</name></trkpt>
<trkpt lat="53.355845" lon="-1.635481"><ele>436</ele><time>2020-05-21T13:54:00Z</time><name>PT13070</name></trkpt>
<trkpt lat="53.355849" lon="-1.635459"><ele>436</ele><time>2020-05-21T13:54:01Z</time><name>PT13071</name></trkpt>
<trkpt lat="53.355851" lon="-1.635442"><ele>437</ele><time>2020-05-21T13:54:02Z</time><name>PT13072</name></trkpt>
<trkpt lat="53.355850" lon="-1.635422"><ele>437</ele><time>2020-05-21T13:54:03Z</time><name>PT13073</name></trkpt>
<trkpt lat="53.355852" lon="-1.635401"><ele>436</ele><time>2020-05-21T13:54:04Z</time><name>PT13074</name></trkpt>
<trkpt lat="53.355854" lon="-1.635378"><ele>437</ele><time>2020-05-21T13:54:05Z</time><name>PT13075</name></trkpt>
<trkpt lat="53.355852" lon="-1.635355"><ele>436</ele><time>2020-05-21T13:54:06Z</time><name>PT13076</name></trkpt>
<trkpt lat="53.355854" lon="-1.635332"><ele>436</ele><time>2020-05-21T13:54:07Z</time><name>PT13077</name></trkpt>
<trkpt lat="53.355853" lon="-1.635310"><ele>436</ele><time>2020-05-21T13:54:08Z</time><name>PT13078</name></trkpt>
<trkpt lat="53.355855" lon="-1.635293"><ele>436</ele><time>2020-05-21T13:54:09Z</time><name>PT13079</name></trkpt>
<trkpt lat="53.355858" lon="-1.635275"><ele>436</ele><time>2020-05-21T13:54:10Z</time><name>PT13080</name></trkpt>
<trkpt lat="53.355862" lon="-1.635251"><ele>436</ele><time>2020-05-21T13:54:11Z</time><name>PT13081</name></trkpt>
<trkpt lat="53.355859" lon="-1.635218"><ele>436</ele><time>2020-05-21T13:54:12Z</time><name>PT13082</name></trkpt>
<trkpt lat="53.355861" lon="-1.635191"><ele>436</ele><time>2020-05-21T13:54:13Z</time><name>PT13083</name></trkpt>
<trkpt lat="53.355864" lon="-1.635175"><ele>436</ele><time>2020-05-21T13:54:14Z</time><name>PT13084</name></trkpt>
<trkpt lat="53.355868" lon="-1.635158"><ele>437</ele><time>2020-05-21T13:54:15Z</time><name>PT13085</name></trkpt>
<trkpt lat="53.355873" lon="-1.635141"><ele>437</ele><time>2020-05-21T13:54:16Z</time><name>PT13086</name></trkpt>
<trkpt lat="53.355875" lon="-1.635122"><ele>437</ele><time>2020-05-21T13:54:17Z</time><name>PT13087</name></trkpt>
<trkpt lat="53.355878" lon="-1.635096"><ele>438</ele><time>2020-05-21T13:54:18Z</time><name>PT13088</name></trkpt>
<trkpt lat="53.355882" lon="-1.635072"><ele>438</ele><time>2020-05-21T13:54:19Z</time><name>PT13089</name></trkpt>
<trkpt lat="53.355885" lon="-1.635055"><ele>438</ele><time>2020-05-21T13:54:20Z</time><name>PT13090</name></trkpt>
<trkpt lat="53.355883" lon="-1.635034"><ele>438</ele><time>2020-05-21T13:54:21Z</time><name>PT13091</name></trkpt>
<trkpt lat="53.355883" lon="-1.635017"><ele>438</ele><time>2020-05-21T13:54:22Z</time><name>PT13092</name></trkpt>
<trkpt lat="53.355884" lon="-1.634994"><ele>438</ele><time>2020-05-21T13:54:23Z</time><name>PT13093</name></trkpt>
<trkpt lat="53.355883" lon="-1.634966"><ele>438</ele><time>2020-05-21T13:54:24Z</time><name>PT13094</name></trkpt>
<trkpt lat="53.355886" lon="-1.634940"><ele>439</ele><time>2020-05-21T13:54:25Z</time><name>PT13095</name></trkpt>
<trkpt lat="53.355887" lon="-1.634921"><ele>439</ele><time>2020-05-21T13:54:26Z</time><name>PT13096</name></trkpt>
<trkpt lat="53.355887" lon="-1.634904"><ele>439</ele><time>2020-05-21T13:54:27Z</time><name>PT13097</name></trkpt>
<trkpt lat="53.355889" lon="-1.634889"><ele>438</ele><time>2020-05-21T13:54:28Z</time><name>PT13098</name></trkpt>
<trkpt lat="53.355891" lon="-1.634866"><ele>438</ele><time>2020-05-21T13:54:29Z</time><name>PT13099</name></trkpt>
<trkpt lat="53.355893" lon="-1.634843"><ele>438</ele><time>2020-05-21T13:54:30Z</time><name>PT13100</name></trkpt>
<trkpt lat="53.355896" lon="-1.634815"><ele>438</ele><time>2020-05-21T13:54:31Z</time><name>PT13101</name></trkpt>
<trkpt lat="53.355897" lon="-1.634797"><ele>438</ele><time>2020-05-21T13:54:32Z</time><name>PT13102</name></trkpt>
<trkpt lat="53.355896" lon="-1.634780"><ele>438</ele><time>2020-05-21T13:54:33Z</time><name>PT13103</name></trkpt>
<trkpt lat="53.355896" lon="-1.634758"><ele>438</ele><time>2020-05-21T13:54:34Z</time><name>PT13104</name></trkpt>
<trkpt lat="53.355898" lon="-1.634735"><ele>438</ele><time>2020-05-21T13:54:35Z</time><name>PT13105</name></trkpt>
<trkpt lat="53.355900" lon="-1.634708"><ele>439</ele><time>2020-05-21T13:54:36Z</time><name>PT13106</name></trkpt>
<trkpt lat="53.355901" lon="-1.634682"><ele>439</ele><time>2020-05-21T13:54:37Z</time><name>PT13107</name></trkpt>
<trkpt lat="53.355904" lon="-1.634670"><ele>438</ele><time>2020-05-21T13:54:38Z</time><name>PT13108</name></trkpt>
<trkpt lat="53.355908" lon="-1.634657"><ele>439</ele><time>2020-05-21T13:54:39Z</time><name>PT13109</name></trkpt>
<trkpt lat="53.355909" lon="-1.634636"><ele>439</ele><time>2020-05-21T13:54:40Z</time><name>PT13110</name></trkpt>
<trkpt lat="53.355910" lon="-1.634613"><ele>439</ele><time>2020-05-21T13:54:41Z</time><name>PT13111</name></trkpt>
<trkpt lat="53.355908" lon="-1.634585"><ele>439</ele><time>2020-05-21T13:54:42Z</time><name>PT13112</name></trkpt>
<trkpt lat="53.355910" lon="-1.634565"><ele>439</ele><time>2020-05-21T13:54:43Z</time><name>PT13113</name></trkpt>
<trkpt lat="53.355911" lon="-1.634548"><ele>439</ele><time>2020-05-21T13:54:44Z</time><name>PT13114</name></trkpt>
<trkpt lat="53.355911" lon="-1.634536"><ele>439</ele><time>2020-05-21T13:54:45Z</time><name>PT13115</name></trkpt>
<trkpt lat="53.355914" lon="-1.634523"><ele>439</ele><time>2020-05-21T13:54:46Z</time><name>PT13116</name></trkpt>
<trkpt lat="53.355920" lon="-1.634515"><ele>439</ele><time>2020-05-21T13:54:47Z</time><name>PT13117</name></trkpt>
<trkpt lat="53.355921" lon="-1.634498"><ele>439</ele><time>2020-05-21T13:54:48Z</time><name>PT13118</name></trkpt>
<trkpt lat="53.355920" lon="-1.634477"><ele>439</ele><time>2020-05-21T13:54:49Z</time><name>PT13119</name></trkpt>
<trkpt lat="53.355923" lon="-1.634458"><ele>439</ele><time>2020-05-21T13:54:50Z</time><name>PT13120</name></trkpt>
<trkpt lat="53.355924" lon="-1.634435"><ele>439</ele><time>2020-05-21T13:54:51Z</time><name>PT13121</name></trkpt>
<trkpt lat="53.355925" lon="-1.634411"><ele>439</ele><time>2020-05-21T13:54:52Z</time><name>PT13122</name></trkpt>
<trkpt lat="53.355927" lon="-1.634395"><ele>439</ele><time>2020-05-21T13:54:53Z</time><name>PT13123</name></trkpt>
<trkpt lat="53.355928" lon="-1.634378"><ele>439</ele><time>2020-05-21T13:54:54Z</time><name>PT13124</name></trkpt>
<trkpt lat="53.355929" lon="-1.634356"><ele>439</ele><time>2020-05-21T13:54:55Z</time><name>PT13125</name></trkpt>
<trkpt lat="53.355931" lon="-1.634336"><ele>439</ele><time>2020-05-21T13:54:56Z</time><name>PT13126</name></trkpt>
<trkpt lat="53.355934" lon="-1.634311"><ele>439</ele><time>2020-05-21T13:54:57Z</time><name>PT13127</name></trkpt>
<trkpt lat="53.355937" lon="-1.634286"><ele>440</ele><time>2020-05-21T13:54:58Z</time><name>PT13128</name></trkpt>
<trkpt lat="53.355938" lon="-1.634266"><ele>439</ele><time>2020-05-21T13:54:59Z</time><name>PT13129</name></trkpt>
<trkpt lat="53.355941" lon="-1.634245"><ele>440</ele><time>2020-05-21T13:55:00Z</time><name>PT13130</name></trkpt>
<trkpt lat="53.355945" lon="-1.634225"><ele>439</ele><time>2020-05-21T13:55:01Z</time><name>PT13131</name></trkpt>
<trkpt lat="53.355949" lon="-1.634203"><ele>439</ele><time>2020-05-21T13:55:02Z</time><name>PT13132</name></trkpt>
<trkpt lat="53.355951" lon="-1.634177"><ele>439</ele><time>2020-05-21T13:55:03Z</time><name>PT13133</name></trkpt>
<trkpt lat="53.355953" lon="-1.634157"><ele>439</ele><time>2020-05-21T13:55:04Z</time><name>PT13134</name></trkpt>
<trkpt lat="53.355953" lon="-1.634142"><ele>439</ele><time>2020-05-21T13:55:05Z</time><name>PT13135</name></trkpt>
<trkpt lat="53.355956" lon="-1.634123"><ele>439</ele><time>2020-05-21T13:55:06Z</time><name>PT13136</name></trkpt>
<trkpt lat="53.355954" lon="-1.634094"><ele>439</ele><time>2020-05-21T13:55:07Z</time><name>PT13137</name></trkpt>
<trkpt lat="53.355951" lon="-1.634066"><ele>439</ele><time>2020-05-21T13:55:08Z</time><name>PT13138</name></trkpt>
<trkpt lat="53.355952" lon="-1.634040"><ele>439</ele><time>2020-05-21T13:55:09Z</time><name>PT13139</name></trkpt>
<trkpt lat="53.355952" lon="-1.634022"><ele>439</ele><time>2020-05-21T13:55:10Z</time><name>PT13140</name></trkpt>
<trkpt lat="53.355952" lon="-1.634002"><ele>439</ele><time>2020-05-21T13:55:11Z</time><name>PT13141</name></trkpt>
<trkpt lat="53.355954" lon="-1.633980"><ele>439</ele><time>2020-05-21T13:55:12Z</time><name>PT13142</name></trkpt>
<trkpt lat="53.355957" lon="-1.633953"><ele>440</ele><time>2020-05-21T13:55:13Z</time><name>PT13143</name></trkpt>
<trkpt lat="53.355959" lon="-1.633929"><ele>440</ele><time>2020-05-21T13:55:14Z</time><name>PT13144</name></trkpt>
<trkpt lat="53.355958" lon="-1.633910"><ele>440</ele><time>2020-05-21T13:55:15Z</time><name>PT13145</name></trkpt>
<trkpt lat="53.355957" lon="-1.633895"><ele>439</ele><time>2020-05-21T13:55:16Z</time><name>PT13146</name></trkpt>
<trkpt lat="53.355960" lon="-1.633879"><ele>439</ele><time>2020-05-21T13:55:17Z</time><name>PT13147</name></trkpt>
<trkpt lat="53.355960" lon="-1.633854"><ele>439</ele><time>2020-05-21T13:55:18Z</time><name>PT13148</name></trkpt>
<trkpt lat="53.355961" lon="-1.633827"><ele>439</ele><time>2020-05-21T13:55:19Z</time><name>PT13149</name></trkpt>
<trkpt lat="53.355967" lon="-1.633797"><ele>438</ele><time>2020-05-21T13:55:21Z</time><name>PT13150</name></trkpt>
<trkpt lat="53.355968" lon="-1.633789"><ele>438</ele><time>2020-05-21T13:55:22Z</time><name>PT13151</name></trkpt>
<trkpt lat="53.355969" lon="-1.633766"><ele>438</ele><time>2020-05-21T13:55:23Z</time><name>PT13152</name></trkpt>
<trkpt lat="53.355971" lon="-1.633746"><ele>437</ele><time>2020-05-21T13:55:24Z</time><name>PT13153</name></trkpt>
<trkpt lat="53.355971" lon="-1.633722"><ele>438</ele><time>2020-05-21T13:55:25Z</time><name>PT13154</name></trkpt>
<trkpt lat="53.355972" lon="-1.633699"><ele>437</ele><time>2020-05-21T13:55:26Z</time><name>PT13155</name></trkpt>
<trkpt lat="53.355974" lon="-1.633684"><ele>437</ele><time>2020-05-21T13:55:27Z</time><name>PT13156</name></trkpt>
<trkpt lat="53.355976" lon="-1.633672"><ele>437</ele><time>2020-05-21T13:55:28Z</time><name>PT13157</name></trkpt>
<trkpt lat="53.355980" lon="-1.633659"><ele>437</ele><time>2020-05-21T13:55:29Z</time><name>PT13158</name></trkpt>
<trkpt lat="53.355981" lon="-1.633636"><ele>437</ele><time>2020-05-21T13:55:30Z</time><name>PT13159</name></trkpt>
<trkpt lat="53.355982" lon="-1.633612"><ele>437</ele><time>2020-05-21T13:55:31Z</time><name>PT13160</name></trkpt>
<trkpt lat="53.355981" lon="-1.633593"><ele>436</ele><time>2020-05-21T13:55:32Z</time><name>PT13161</name></trkpt>
<trkpt lat="53.355983" lon="-1.633578"><ele>436</ele><time>2020-05-21T13:55:33Z</time><name>PT13162</name></trkpt>
<trkpt lat="53.355984" lon="-1.633558"><ele>436</ele><time>2020-05-21T13:55:34Z</time><name>PT13163</name></trkpt>
<trkpt lat="53.355985" lon="-1.633539"><ele>437</ele><time>2020-05-21T13:55:35Z</time><name>PT13164</name></trkpt>
<trkpt lat="53.355988" lon="-1.633516"><ele>436</ele><time>2020-05-21T13:55:36Z</time><name>PT13165</name></trkpt>
<trkpt lat="53.355989" lon="-1.633496"><ele>437</ele><time>2020-05-21T13:55:37Z</time><name>PT13166</name></trkpt>
<trkpt lat="53.355990" lon="-1.633480"><ele>437</ele><time>2020-05-21T13:55:38Z</time><name>PT13167</name></trkpt>
<trkpt lat="53.355993" lon="-1.633461"><ele>437</ele><time>2020-05-21T13:55:39Z</time><name>PT13168</name></trkpt>
<trkpt lat="53.355996" lon="-1.633436"><ele>438</ele><time>2020-05-21T13:55:40Z</time><name>PT13169</name></trkpt>
<trkpt lat="53.355995" lon="-1.633407"><ele>438</ele><time>2020-05-21T13:55:41Z</time><name>PT13170</name></trkpt>
<trkpt lat="53.355995" lon="-1.633390"><ele>438</ele><time>2020-05-21T13:55:43Z</time><name>PT13171</name></trkpt>
<trkpt lat="53.355997" lon="-1.633380"><ele>438</ele><time>2020-05-21T13:55:43Z</time><name>PT13172</name></trkpt>
<trkpt lat="53.355999" lon="-1.633364"><ele>437</ele><time>2020-05-21T13:55:44Z</time><name>PT13173</name></trkpt>
<trkpt lat="53.356001" lon="-1.633343"><ele>437</ele><time>2020-05-21T13:55:45Z</time><name>PT13174</name></trkpt>
<trkpt lat="53.356003" lon="-1.633314"><ele>438</ele><time>2020-05-21T13:55:46Z</time><name>PT13175</name></trkpt>
<trkpt lat="53.356009" lon="-1.633290"><ele>438</ele><time>2020-05-21T13:55:47Z</time><name>PT13176</name></trkpt>
<trkpt lat="53.356011" lon="-1.633273"><ele>437</ele><time>2020-05-21T13:55:48Z</time><name>PT13177</name></trkpt>
<trkpt lat="53.356009" lon="-1.633256"><ele>437</ele><time>2020-05-21T13:55:49Z</time><name>PT13178</name></trkpt>
<trkpt lat="53.356011" lon="-1.633238"><ele>437</ele><time>2020-05-21T13:55:50Z</time><name>PT13179</name></trkpt>
<trkpt lat="53.356015" lon="-1.633220"><ele>437</ele><time>2020-05-21T13:55:51Z</time><name>PT13180</name></trkpt>
<trkpt lat="53.356013" lon="-1.633195"><ele>438</ele><time>2020-05-21T13:55:52Z</time><name>PT13181</name></trkpt>
<trkpt lat="53.356015" lon="-1.633176"><ele>438</ele><time>2020-05-21T13:55:53Z</time><name>PT13182</name></trkpt>
<trkpt lat="53.356016" lon="-1.633159"><ele>438</ele><time>2020-05-21T13:55:54Z</time><name>PT13183</name></trkpt>
<trkpt lat="53.356017" lon="-1.633142"><ele>438</ele><time>2020-05-21T13:55:55Z</time><name>PT13184</name></trkpt>
<trkpt lat="53.356021" lon="-1.633121"><ele>438</ele><time>2020-05-21T13:55:56Z</time><name>PT13185</name></trkpt>
<trkpt lat="53.356023" lon="-1.633096"><ele>439</ele><time>2020-05-21T13:55:57Z</time><name>PT13186</name></trkpt>
<trkpt lat="53.356025" lon="-1.633081"><ele>439</ele><time>2020-05-21T13:55:58Z</time><name>PT13187</name></trkpt>
<trkpt lat="53.356026" lon="-1.633067"><ele>439</ele><time>2020-05-21T13:55:59Z</time><name>PT13188</name></trkpt>
<trkpt lat="53.356028" lon="-1.633047"><ele>439</ele><time>2020-05-21T13:56:00Z</time><name>PT13189</name></trkpt>
<trkpt lat="53.356029" lon="-1.633024"><ele>439</ele><time>2020-05-21T13:56:01Z</time><name>PT13190</name></trkpt>
<trkpt lat="53.356030" lon="-1.632997"><ele>439</ele><time>2020-05-21T13:56:02Z</time><name>PT13191</name></trkpt>
<trkpt lat="53.356033" lon="-1.632977"><ele>439</ele><time>2020-05-21T13:56:03Z</time><name>PT13192</name></trkpt>
<trkpt lat="53.356032" lon="-1.632960"><ele>440</ele><time>2020-05-21T13:56:04Z</time><name>PT13193</name></trkpt>
<trkpt lat="53.356034" lon="-1.632937"><ele>441</ele><time>2020-05-21T13:56:05Z</time><name>PT13194</name></trkpt>
<trkpt lat="53.356036" lon="-1.632913"><ele>442</ele><time>2020-05-21T13:56:06Z</time><name>PT13195</name></trkpt>
<trkpt lat="53.356045" lon="-1.632887"><ele>443</ele><time>2020-05-21T13:56:07Z</time><name>PT13196</name></trkpt>
<trkpt lat="53.356049" lon="-1.632866"><ele>443</ele><time>2020-05-21T13:56:08Z</time><name>PT13197</name></trkpt>
<trkpt lat="53.356049" lon="-1.632851"><ele>443</ele><time>2020-05-21T13:56:09Z</time><name>PT13198</name></trkpt>
<trkpt lat="53.356051" lon="-1.632833"><ele>443</ele><time>2020-05-21T13:56:10Z</time><name>PT13199</name></trkpt>
<trkpt lat="53.356052" lon="-1.632812"><ele>443</ele><time>2020-05-21T13:56:11Z</time><name>PT13200</name></trkpt>
<trkpt lat="53.356054" lon="-1.632789"><ele>443</ele><time>2020-05-21T13:56:12Z</time><name>PT13201</name></trkpt>
<trkpt lat="53.356055" lon="-1.632765"><ele>443</ele><time>2020-05-21T13:56:13Z</time><name>PT13202</name></trkpt>
<trkpt lat="53.356054" lon="-1.632746"><ele>443</ele><time>2020-05-21T13:56:14Z</time><name>PT13203</name></trkpt>
<trkpt lat="53.356054" lon="-1.632728"><ele>443</ele><time>2020-05-21T13:56:15Z</time><name>PT13204</name></trkpt>
<trkpt lat="53.356055" lon="-1.632708"><ele>442</ele><time>2020-05-21T13:56:16Z</time><name>PT13205</name></trkpt>
<trkpt lat="53.356056" lon="-1.632680"><ele>442</ele><time>2020-05-21T13:56:17Z</time><name>PT13206</name></trkpt>
<trkpt lat="53.356055" lon="-1.632648"><ele>443</ele><time>2020-05-21T13:56:18Z</time><name>PT13207</name></trkpt>
<trkpt lat="53.356055" lon="-1.632624"><ele>443</ele><time>2020-05-21T13:56:19Z</time><name>PT13208</name></trkpt>
<trkpt lat="53.356055" lon="-1.632605"><ele>443</ele><time>2020-05-21T13:56:20Z</time><name>PT13209</name></trkpt>
<trkpt lat="53.356055" lon="-1.632583"><ele>442</ele><time>2020-05-21T13:56:21Z</time><name>PT13210</name></trkpt>
<trkpt lat="53.356056" lon="-1.632560"><ele>442</ele><time>2020-05-21T13:56:22Z</time><name>PT13211</name></trkpt>
<trkpt lat="53.356059" lon="-1.632536"><ele>443</ele><time>2020-05-21T13:56:23Z</time><name>PT13212</name></trkpt>
<trkpt lat="53.356062" lon="-1.632513"><ele>443</ele><time>2020-05-21T13:56:24Z</time><name>PT13213</name></trkpt>
<trkpt lat="53.356064" lon="-1.632497"><ele>443</ele><time>2020-05-21T13:56:25Z</time><name>PT13214</name></trkpt>
<trkpt lat="53.356064" lon="-1.632483"><ele>443</ele><time>2020-05-21T13:56:26Z</time><name>PT13215</name></trkpt>
<trkpt lat="53.356067" lon="-1.632460"><ele>443</ele><time>2020-05-21T13:56:27Z</time><name>PT13216</name></trkpt>
<trkpt lat="53.356068" lon="-1.632437"><ele>444</ele><time>2020-05-21T13:56:28Z</time><name>PT13217</name></trkpt>
<trkpt lat="53.356068" lon="-1.632409"><ele>445</ele><time>2020-05-21T13:56:29Z</time><name>PT13218</name></trkpt>
<trkpt lat="53.356069" lon="-1.632383"><ele>444</ele><time>2020-05-21T13:56:30Z</time><name>PT13219</name></trkpt>
<trkpt lat="53.356072" lon="-1.632367"><ele>443</ele><time>2020-05-21T13:56:31Z</time><name>PT13220</name></trkpt>
<trkpt lat="53.356072" lon="-1.632350"><ele>443</ele><time>2020-05-21T13:56:32Z</time><name>PT13221</name></trkpt>
<trkpt lat="53.356076" lon="-1.632336"><ele>442</ele><time>2020-05-21T13:56:33Z</time><name>PT13222</name></trkpt>
<trkpt lat="53.356079" lon="-1.632317"><ele>442</ele><time>2020-05-21T13:56:34Z</time><name>PT13223</name></trkpt>
<trkpt lat="53.356081" lon="-1.632287"><ele>443</ele><time>2020-05-21T13:56:35Z</time><name>PT13224</name></trkpt>
<trkpt lat="53.356083" lon="-1.632259"><ele>443</ele><time>2020-05-21T13:56:36Z</time><name>PT13225</name></trkpt>
<trkpt lat="53.356083" lon="-1.632237"><ele>443</ele><time>2020-05-21T13:56:37Z</time><name>PT13226</name></trkpt>
<trkpt lat="53.356084" lon="-1.632222"><ele>443</ele><time>2020-05-21T13:56:38Z</time><name>PT13227</name></trkpt>
<trkpt lat="53.356088" lon="-1.632208"><ele>442</ele><time>2020-05-21T13:56:39Z</time><name>PT13228</name></trkpt>
<trkpt lat="53.356092" lon="-1.632187"><ele>442</ele><time>2020-05-21T13:56:40Z</time><name>PT13229</name></trkpt>
<trkpt lat="53.356094" lon="-1.632159"><ele>442</ele><time>2020-05-21T13:56:41Z</time><name>PT13230</name></trkpt>
<trkpt lat="53.356096" lon="-1.632133"><ele>442</ele><time>2020-05-21T13:56:42Z</time><name>PT13231</name></trkpt>
<trkpt lat="53.356099" lon="-1.632117"><ele>441</ele><time>2020-05-21T13:56:43Z</time><name>PT13232</name></trkpt>
<trkpt lat="53.356096" lon="-1.632100"><ele>441</ele><time>2020-05-21T13:56:44Z</time><name>PT13233</name></trkpt>
<trkpt lat="53.356096" lon="-1.632078"><ele>441</ele><time>2020-05-21T13:56:45Z</time><name>PT13234</name></trkpt>
<trkpt lat="53.356103" lon="-1.632057"><ele>442</ele><time>2020-05-21T13:56:46Z</time><name>PT13235</name></trkpt>
<trkpt lat="53.356104" lon="-1.632028"><ele>442</ele><time>2020-05-21T13:56:47Z</time><name>PT13236</name></trkpt>
<trkpt lat="53.356104" lon="-1.632005"><ele>442</ele><time>2020-05-21T13:56:48Z</time><name>PT13237</name></trkpt>
<trkpt lat="53.356104" lon="-1.631987"><ele>442</ele><time>2020-05-21T13:56:49Z</time><name>PT13238</name></trkpt>
<trkpt lat="53.356106" lon="-1.631969"><ele>442</ele><time>2020-05-21T13:56:50Z</time><name>PT13239</name></trkpt>
<trkpt lat="53.356109" lon="-1.631949"><ele>442</ele><time>2020-05-21T13:56:51Z</time><name>PT13240</name></trkpt>
<trkpt lat="53.356109" lon="-1.631926"><ele>442</ele><time>2020-05-21T13:56:52Z</time><name>PT13241</name></trkpt>
<trkpt lat="53.356110" lon="-1.631901"><ele>442</ele><time>2020-05-21T13:56:53Z</time><name>PT13242</name></trkpt>
<trkpt lat="53.356111" lon="-1.631881"><ele>442</ele><time>2020-05-21T13:56:54Z</time><name>PT13243</name></trkpt>
<trkpt lat="53.356109" lon="-1.631869"><ele>442</ele><time>2020-05-21T13:56:55Z</time><name>PT13244</name></trkpt>
<trkpt lat="53.356109" lon="-1.631852"><ele>441</ele><time>2020-05-21T13:56:56Z</time><name>PT13245</name></trkpt>
<trkpt lat="53.356109" lon="-1.631831"><ele>441</ele><time>2020-05-21T13:56:57Z</time><name>PT13246</name></trkpt>
<trkpt lat="53.356111" lon="-1.631808"><ele>442</ele><time>2020-05-21T13:56:58Z</time><name>PT13247</name></trkpt>
<trkpt lat="53.356114" lon="-1.631783"><ele>442</ele><time>2020-05-21T13:56:59Z</time><name>PT13248</name></trkpt>
<trkpt lat="53.356114" lon="-1.631765"><ele>442</ele><time>2020-05-21T13:57:00Z</time><name>PT13249</name></trkpt>
<trkpt lat="53.356114" lon="-1.631749"><ele>441</ele><time>2020-05-21T13:57:01Z</time><name>PT13250</name></trkpt>
<trkpt lat="53.356115" lon="-1.631729"><ele>441</ele><time>2020-05-21T13:57:02Z</time><name>PT13251</name></trkpt>
<trkpt lat="53.356119" lon="-1.631709"><ele>441</ele><time>2020-05-21T13:57:03Z</time><name>PT13252</name></trkpt>
<trkpt lat="53.356121" lon="-1.631681"><ele>441</ele><time>2020-05-21T13:57:04Z</time><name>PT13253</name></trkpt>
<trkpt lat="53.356123" lon="-1.631659"><ele>441</ele><time>2020-05-21T13:57:05Z</time><name>PT13254</name></trkpt>
<trkpt lat="53.356123" lon="-1.631643"><ele>440</ele><time>2020-05-21T13:57:06Z</time><name>PT13255</name></trkpt>
<trkpt lat="53.356122" lon="-1.631625"><ele>440</ele><time>2020-05-21T13:57:07Z</time><name>PT13256</name></trkpt>
<trkpt lat="53.356119" lon="-1.631603"><ele>439</ele><time>2020-05-21T13:57:09Z</time><name>PT13257</name></trkpt>
<trkpt lat="53.356118" lon="-1.631579"><ele>439</ele><time>2020-05-21T13:57:09Z</time><name>PT13258</name></trkpt>
<trkpt lat="53.356118" lon="-1.631551"><ele>439</ele><time>2020-05-21T13:57:10Z</time><name>PT13259</name></trkpt>
<trkpt lat="53.356120" lon="-1.631529"><ele>439</ele><time>2020-05-21T13:57:11Z</time><name>PT13260</name></trkpt>
<trkpt lat="53.356122" lon="-1.631514"><ele>439</ele><time>2020-05-21T13:57:12Z</time><name>PT13261</name></trkpt>
<trkpt lat="53.356122" lon="-1.631494"><ele>439</ele><time>2020-05-21T13:57:13Z</time><name>PT13262</name></trkpt>
<trkpt lat="53.356122" lon="-1.631469"><ele>440</ele><time>2020-05-21T13:57:14Z</time><name>PT13263</name></trkpt>
<trkpt lat="53.356123" lon="-1.631450"><ele>440</ele><time>2020-05-21T13:57:15Z</time><name>PT13264</name></trkpt>
<trkpt lat="53.356123" lon="-1.631428"><ele>441</ele><time>2020-05-21T13:57:16Z</time><name>PT13265</name></trkpt>
<trkpt lat="53.356122" lon="-1.631411"><ele>440</ele><time>2020-05-21T13:57:17Z</time><name>PT13266</name></trkpt>
<trkpt lat="53.356124" lon="-1.631399"><ele>440</ele><time>2020-05-21T13:57:18Z</time><name>PT13267</name></trkpt>
<trkpt lat="53.356127" lon="-1.631388"><ele>441</ele><time>2020-05-21T13:57:19Z</time><name>PT13268</name></trkpt>
<trkpt lat="53.356131" lon="-1.631374"><ele>441</ele><time>2020-05-21T13:57:20Z</time><name>PT13269</name></trkpt>
<trkpt lat="53.356134" lon="-1.631353"><ele>441</ele><time>2020-05-21T13:57:21Z</time><name>PT13270</name></trkpt>
<trkpt lat="53.356138" lon="-1.631336"><ele>442</ele><time>2020-05-21T13:57:22Z</time><name>PT13271</name></trkpt>
<trkpt lat="53.356137" lon="-1.631322"><ele>441</ele><time>2020-05-21T13:57:23Z</time><name>PT13272</name></trkpt>
<trkpt lat="53.356136" lon="-1.631308"><ele>442</ele><time>2020-05-21T13:57:24Z</time><name>PT13273</name></trkpt>
<trkpt lat="53.356137" lon="-1.631288"><ele>442</ele><time>2020-05-21T13:57:25Z</time><name>PT13274</name></trkpt>
<trkpt lat="53.356138" lon="-1.631263"><ele>443</ele><time>2020-05-21T13:57:26Z</time><name>PT13275</name></trkpt>
<trkpt lat="53.356140" lon="-1.631242"><ele>443</ele><time>2020-05-21T13:57:27Z</time><name>PT13276</name></trkpt>
<trkpt lat="53.356143" lon="-1.631233"><ele>442</ele><time>2020-05-21T13:57:28Z</time><name>PT13277</name></trkpt>
<trkpt lat="53.356144" lon="-1.631212"><ele>443</ele><time>2020-05-21T13:57:29Z</time><name>PT13278</name></trkpt>
<trkpt lat="53.356146" lon="-1.631194"><ele>443</ele><time>2020-05-21T13:57:30Z</time><name>PT13279</name></trkpt>
<trkpt lat="53.356147" lon="-1.631172"><ele>444</ele><time>2020-05-21T13:57:31Z</time><name>PT13280</name></trkpt>
<trkpt lat="53.356149" lon="-1.631155"><ele>444</ele><time>2020-05-21T13:57:32Z</time><name>PT13281</name></trkpt>
<trkpt lat="53.356151" lon="-1.631143"><ele>444</ele><time>2020-05-21T13:57:33Z</time><name>PT13282</name></trkpt>
<trkpt lat="53.356154" lon="-1.631128"><ele>444</ele><time>2020-05-21T13:57:34Z</time><name>PT13283</name></trkpt>
<trkpt lat="53.356156" lon="-1.631106"><ele>445</ele><time>2020-05-21T13:57:35Z</time><name>PT13284</name></trkpt>
<trkpt lat="53.356156" lon="-1.631083"><ele>445</ele><time>2020-05-21T13:57:36Z</time><name>PT13285</name></trkpt>
<trkpt lat="53.356160" lon="-1.631066"><ele>446</ele><time>2020-05-21T13:57:37Z</time><name>PT13286</name></trkpt>
<trkpt lat="53.356162" lon="-1.631055"><ele>445</ele><time>2020-05-21T13:57:38Z</time><name>PT13287</name></trkpt>
<trkpt lat="53.356167" lon="-1.631044"><ele>445</ele><time>2020-05-21T13:57:39Z</time><name>PT13288</name></trkpt>
<trkpt lat="53.356175" lon="-1.631031"><ele>446</ele><time>2020-05-21T13:57:40Z</time><name>PT13289</name></trkpt>
<trkpt lat="53.356181" lon="-1.631016"><ele>446</ele><time>2020-05-21T13:57:41Z</time><name>PT13290</name></trkpt>
<trkpt lat="53.356184" lon="-1.631002"><ele>446</ele><time>2020-05-21T13:57:42Z</time><name>PT13291</name></trkpt>
<trkpt lat="53.356187" lon="-1.630992"><ele>446</ele><time>2020-05-21T13:57:43Z</time><name>PT13292</name></trkpt>
<trkpt lat="53.356189" lon="-1.630978"><ele>446</ele><time>2020-05-21T13:57:44Z</time><name>PT13293</name></trkpt>
<trkpt lat="53.356190" lon="-1.630962"><ele>447</ele><time>2020-05-21T13:57:45Z</time><name>PT13294</name></trkpt>
<trkpt lat="53.356192" lon="-1.630952"><ele>447</ele><time>2020-05-21T13:57:46Z</time><name>PT13295</name></trkpt>
<trkpt lat="53.356194" lon="-1.630941"><ele>447</ele><time>2020-05-21T13:57:47Z</time><name>PT13296</name></trkpt>
<trkpt lat="53.356194" lon="-1.630925"><ele>447</ele><time>2020-05-21T13:57:48Z</time><name>PT13297</name></trkpt>
<trkpt lat="53.356192" lon="-1.630910"><ele>447</ele><time>2020-05-21T13:57:49Z</time><name>PT13298</name></trkpt>
<trkpt lat="53.356192" lon="-1.630901"><ele>446</ele><time>2020-05-21T13:57:50Z</time><name>PT13299</name></trkpt>
<trkpt lat="53.356190" lon="-1.630880"><ele>446</ele><time>2020-05-21T13:57:51Z</time><name>PT13300</name></trkpt>
<trkpt lat="53.356189" lon="-1.630862"><ele>446</ele><time>2020-05-21T13:57:52Z</time><name>PT13301</name></trkpt>
<trkpt lat="53.356191" lon="-1.630846"><ele>446</ele><time>2020-05-21T13:57:53Z</time><name>PT13302</name></trkpt>
<trkpt lat="53.356190" lon="-1.630830"><ele>446</ele><time>2020-05-21T13:57:54Z</time><name>PT13303</name></trkpt>
<trkpt lat="53.356189" lon="-1.630819"><ele>446</ele><time>2020-05-21T13:57:55Z</time><name>PT13304</name></trkpt>
<trkpt lat="53.356186" lon="-1.630795"><ele>446</ele><time>2020-05-21T13:57:56Z</time><name>PT13305</name></trkpt>
<trkpt lat="53.356188" lon="-1.630777"><ele>446</ele><time>2020-05-21T13:57:57Z</time><name>PT13306</name></trkpt>
<trkpt lat="53.356186" lon="-1.630760"><ele>446</ele><time>2020-05-21T13:57:58Z</time><name>PT13307</name></trkpt>
<trkpt lat="53.356187" lon="-1.630741"><ele>446</ele><time>2020-05-21T13:57:59Z</time><name>PT13308</name></trkpt>
<trkpt lat="53.356188" lon="-1.630722"><ele>446</ele><time>2020-05-21T13:58:00Z</time><name>PT13309</name></trkpt>
<trkpt lat="53.356188" lon="-1.630702"><ele>446</ele><time>2020-05-21T13:58:01Z</time><name>PT13310</name></trkpt>
<trkpt lat="53.356189" lon="-1.630688"><ele>446</ele><time>2020-05-21T13:58:02Z</time><name>PT13311</name></trkpt>
<trkpt lat="53.356189" lon="-1.630678"><ele>446</ele><time>2020-05-21T13:58:03Z</time><name>PT13312</name></trkpt>
<trkpt lat="53.356191" lon="-1.630669"><ele>446</ele><time>2020-05-21T13:58:04Z</time><name>PT13313</name></trkpt>
<trkpt lat="53.356191" lon="-1.630654"><ele>446</ele><time>2020-05-21T13:58:05Z</time><name>PT13314</name></trkpt>
<trkpt lat="53.356190" lon="-1.630641"><ele>446</ele><time>2020-05-21T13:58:06Z</time><name>PT13315</name></trkpt>
<trkpt lat="53.356188" lon="-1.630630"><ele>446</ele><time>2020-05-21T13:58:07Z</time><name>PT13316</name></trkpt>
<trkpt lat="53.356186" lon="-1.630620"><ele>446</ele><time>2020-05-21T13:58:08Z</time><name>PT13317</name></trkpt>
<trkpt lat="53.356181" lon="-1.630608"><ele>446</ele><time>2020-05-21T13:58:09Z</time><name>PT13318</name></trkpt>
<trkpt lat="53.356179" lon="-1.630604"><ele>446</ele><time>2020-05-21T13:58:10Z</time><name>PT13319</name></trkpt>
<trkpt lat="53.356177" lon="-1.630596"><ele>445</ele><time>2020-05-21T13:58:11Z</time><name>PT13320</name></trkpt>
<trkpt lat="53.356178" lon="-1.630591"><ele>445</ele><time>2020-05-21T13:58:12Z</time><name>PT13321</name></trkpt>
<trkpt lat="53.356175" lon="-1.630589"><ele>445</ele><time>2020-05-21T13:58:13Z</time><name>PT13322</name></trkpt>
<trkpt lat="53.356174" lon="-1.630583"><ele>445</ele><time>2020-05-21T13:58:14Z</time><name>PT13323</name></trkpt>
<trkpt lat="53.356174" lon="-1.630584"><ele>445</ele><time>2020-05-21T13:58:15Z</time><name>PT13324</name></trkpt>
<trkpt lat="53.356174" lon="-1.630583"><ele>445</ele><time>2020-05-21T13:58:16Z</time><name>PT13325</name></trkpt>
<trkpt lat="53.356173" lon="-1.630582"><ele>445</ele><time>2020-05-21T13:58:17Z</time><name>PT13326</name></trkpt>
<trkpt lat="53.356165" lon="-1.630588"><ele>445</ele><time>2020-05-21T13:58:18Z</time><name>PT13327</name></trkpt>
<trkpt lat="53.356165" lon="-1.630589"><ele>445</ele><time>2020-05-21T13:58:19Z</time><name>PT13328</name></trkpt>
<trkpt lat="53.356162" lon="-1.630589"><ele>445</ele><time>2020-05-21T13:58:20Z</time><name>PT13329</name></trkpt>
<trkpt lat="53.356163" lon="-1.630587"><ele>445</ele><time>2020-05-21T13:58:21Z</time><name>PT13330</name></trkpt>
<trkpt lat="53.356164" lon="-1.630590"><ele>444</ele><time>2020-05-21T13:58:22Z</time><name>PT13331</name></trkpt>
<trkpt lat="53.356165" lon="-1.630589"><ele>445</ele><time>2020-05-21T13:58:23Z</time><name>PT13332</name></trkpt>
<trkpt lat="53.356166" lon="-1.630586"><ele>445</ele><time>2020-05-21T13:58:24Z</time><name>PT13333</name></trkpt>
<trkpt lat="53.356167" lon="-1.630579"><ele>445</ele><time>2020-05-21T13:58:34Z</time><name>PT13334</name></trkpt>
<trkpt lat="53.356168" lon="-1.630584"><ele>445</ele><time>2020-05-21T13:58:35Z</time><name>PT13335</name></trkpt>
<trkpt lat="53.356171" lon="-1.630584"><ele>445</ele><time>2020-05-21T13:58:36Z</time><name>PT13336</name></trkpt>
<trkpt lat="53.356169" lon="-1.630583"><ele>445</ele><time>2020-05-21T13:58:37Z</time><name>PT13337</name></trkpt>
<trkpt lat="53.356167" lon="-1.630579"><ele>444</ele><time>2020-05-21T13:58:38Z</time><name>PT13338</name></trkpt>
<trkpt lat="53.356169" lon="-1.630575"><ele>444</ele><time>2020-05-21T13:58:39Z</time><name>PT13339</name></trkpt>
<trkpt lat="53.356171" lon="-1.630576"><ele>445</ele><time>2020-05-21T13:58:40Z</time><name>PT13340</name></trkpt>
<trkpt lat="53.356176" lon="-1.630573"><ele>444</ele><time>2020-05-21T13:58:41Z</time><name>PT13341</name></trkpt>
<trkpt lat="53.356179" lon="-1.630570"><ele>444</ele><time>2020-05-21T13:58:42Z</time><name>PT13342</name></trkpt>
<trkpt lat="53.356176" lon="-1.630576"><ele>444</ele><time>2020-05-21T13:59:02Z</time><name>PT13343</name></trkpt>
<trkpt lat="53.356176" lon="-1.630565"><ele>444</ele><time>2020-05-21T13:59:03Z</time><name>PT13344</name></trkpt>
<trkpt lat="53.356180" lon="-1.630554"><ele>445</ele><time>2020-05-21T13:59:04Z</time><name>PT13345</name></trkpt>
<trkpt lat="53.356177" lon="-1.630548"><ele>445</ele><time>2020-05-21T13:59:05Z</time><name>PT13346</name></trkpt>
<trkpt lat="53.356175" lon="-1.630546"><ele>444</ele><time>2020-05-21T13:59:06Z</time><name>PT13347</name></trkpt>
<trkpt lat="53.356173" lon="-1.630544"><ele>444</ele><time>2020-05-21T13:59:07Z</time><name>PT13348</name></trkpt>
<trkpt lat="53.356172" lon="-1.630544"><ele>444</ele><time>2020-05-21T13:59:13Z</time><name>PT13349</name></trkpt>
<trkpt lat="53.356171" lon="-1.630544"><ele>444</ele><time>2020-05-21T13:59:14Z</time><name>PT13350</name></trkpt>
<trkpt lat="53.356176" lon="-1.630546"><ele>444</ele><time>2020-05-21T13:59:15Z</time><name>PT13351</name></trkpt>
<trkpt lat="53.356183" lon="-1.630545"><ele>444</ele><time>2020-05-21T13:59:16Z</time><name>PT13352</name></trkpt>
<trkpt lat="53.356190" lon="-1.630534"><ele>445</ele><time>2020-05-21T13:59:18Z</time><name>PT13353</name></trkpt>
<trkpt lat="53.356198" lon="-1.630519"><ele>445</ele><time>2020-05-21T13:59:18Z</time><name>PT13354</name></trkpt>
<trkpt lat="53.356205" lon="-1.630507"><ele>445</ele><time>2020-05-21T13:59:19Z</time><name>PT13355</name></trkpt>
<trkpt lat="53.356209" lon="-1.630495"><ele>445</ele><time>2020-05-21T13:59:20Z</time><name>PT13356</name></trkpt>
<trkpt lat="53.356218" lon="-1.630485"><ele>445</ele><time>2020-05-21T13:59:21Z</time><name>PT13357</name></trkpt>
<trkpt lat="53.356225" lon="-1.630470"><ele>445</ele><time>2020-05-21T13:59:22Z</time><name>PT13358</name></trkpt>
<trkpt lat="53.356233" lon="-1.630448"><ele>445</ele><time>2020-05-21T13:59:24Z</time><name>PT13359</name></trkpt>
<trkpt lat="53.356238" lon="-1.630433"><ele>444</ele><time>2020-05-21T13:59:24Z</time><name>PT13360</name></trkpt>
<trkpt lat="53.356244" lon="-1.630423"><ele>444</ele><time>2020-05-21T13:59:25Z</time><name>PT13361</name></trkpt>
<trkpt lat="53.356248" lon="-1.630413"><ele>443</ele><time>2020-05-21T13:59:26Z</time><name>PT13362</name></trkpt>
<trkpt lat="53.356256" lon="-1.630397"><ele>444</ele><time>2020-05-21T13:59:27Z</time><name>PT13363</name></trkpt>
<trkpt lat="53.356262" lon="-1.630384"><ele>443</ele><time>2020-05-21T13:59:28Z</time><name>PT13364</name></trkpt>
<trkpt lat="53.356272" lon="-1.630365"><ele>444</ele><time>2020-05-21T13:59:29Z</time><name>PT13365</name></trkpt>
<trkpt lat="53.356279" lon="-1.630353"><ele>443</ele><time>2020-05-21T13:59:30Z</time><name>PT13366</name></trkpt>
<trkpt lat="53.356285" lon="-1.630341"><ele>443</ele><time>2020-05-21T13:59:31Z</time><name>PT13367</name></trkpt>
<trkpt lat="53.356292" lon="-1.630328"><ele>443</ele><time>2020-05-21T13:59:32Z</time><name>PT13368</name></trkpt>
<trkpt lat="53.356299" lon="-1.630314"><ele>443</ele><time>2020-05-21T13:59:33Z</time><name>PT13369</name></trkpt>
<trkpt lat="53.356307" lon="-1.630299"><ele>444</ele><time>2020-05-21T13:59:34Z</time><name>PT13370</name></trkpt>
<trkpt lat="53.356315" lon="-1.630290"><ele>444</ele><time>2020-05-21T13:59:35Z</time><name>PT13371</name></trkpt>
<trkpt lat="53.356320" lon="-1.630280"><ele>444</ele><time>2020-05-21T13:59:36Z</time><name>PT13372</name></trkpt>
<trkpt lat="53.356327" lon="-1.630267"><ele>444</ele><time>2020-05-21T13:59:37Z</time><name>PT13373</name></trkpt>
<trkpt lat="53.356333" lon="-1.630250"><ele>444</ele><time>2020-05-21T13:59:38Z</time><name>PT13374</name></trkpt>
<trkpt lat="53.356341" lon="-1.630236"><ele>444</ele><time>2020-05-21T13:59:39Z</time><name>PT13375</name></trkpt>
<trkpt lat="53.356344" lon="-1.630224"><ele>444</ele><time>2020-05-21T13:59:40Z</time><name>PT13376</name></trkpt>
<trkpt lat="53.356345" lon="-1.630216"><ele>443</ele><time>2020-05-21T13:59:41Z</time><name>PT13377</name></trkpt>
<trkpt lat="53.356350" lon="-1.630200"><ele>442</ele><time>2020-05-21T13:59:42Z</time><name>PT13378</name></trkpt>
<trkpt lat="53.356355" lon="-1.630186"><ele>442</ele><time>2020-05-21T13:59:43Z</time><name>PT13379</name></trkpt>
<trkpt lat="53.356361" lon="-1.630166"><ele>443</ele><time>2020-05-21T13:59:44Z</time><name>PT13380</name></trkpt>
<trkpt lat="53.356368" lon="-1.630153"><ele>443</ele><time>2020-05-21T13:59:45Z</time><name>PT13381</name></trkpt>
<trkpt lat="53.356374" lon="-1.630146"><ele>443</ele><time>2020-05-21T13:59:46Z</time><name>PT13382</name></trkpt>
<trkpt lat="53.356381" lon="-1.630125"><ele>442</ele><time>2020-05-21T13:59:47Z</time><name>PT13383</name></trkpt>
<trkpt lat="53.356389" lon="-1.630112"><ele>442</ele><time>2020-05-21T13:59:48Z</time><name>PT13384</name></trkpt>
<trkpt lat="53.356396" lon="-1.630094"><ele>442</ele><time>2020-05-21T13:59:49Z</time><name>PT13385</name></trkpt>
<trkpt lat="53.356399" lon="-1.630088"><ele>443</ele><time>2020-05-21T13:59:50Z</time><name>PT13386</name></trkpt>
<trkpt lat="53.356398" lon="-1.630084"><ele>442</ele><time>2020-05-21T13:59:51Z</time><name>PT13387</name></trkpt>
<trkpt lat="53.356399" lon="-1.630078"><ele>442</ele><time>2020-05-21T13:59:52Z</time><name>PT13388</name></trkpt>
<trkpt lat="53.356400" lon="-1.630070"><ele>442</ele><time>2020-05-21T13:59:53Z</time><name>PT13389</name></trkpt>
<trkpt lat="53.356405" lon="-1.630064"><ele>442</ele><time>2020-05-21T13:59:56Z</time><name>PT13390</name></trkpt>
<trkpt lat="53.356412" lon="-1.630052"><ele>442</ele><time>2020-05-21T13:59:57Z</time><name>PT13391</name></trkpt>
<trkpt lat="53.356419" lon="-1.630043"><ele>442</ele><time>2020-05-21T13:59:58Z</time><name>PT13392</name></trkpt>
<trkpt lat="53.356427" lon="-1.630022"><ele>442</ele><time>2020-05-21T13:59:59Z</time><name>PT13393</name></trkpt>
<trkpt lat="53.356435" lon="-1.630009"><ele>442</ele><time>2020-05-21T14:00:00Z</time><name>PT13394</name></trkpt>
<trkpt lat="53.356439" lon="-1.630004"><ele>442</ele><time>2020-05-21T14:00:01Z</time><name>PT13395</name></trkpt>
<trkpt lat="53.356439" lon="-1.630003"><ele>441</ele><time>2020-05-21T14:00:02Z</time><name>PT13396</name></trkpt>
<trkpt lat="53.356441" lon="-1.629998"><ele>441</ele><time>2020-05-21T14:00:03Z</time><name>PT13397</name></trkpt>
<trkpt lat="53.356441" lon="-1.629996"><ele>441</ele><time>2020-05-21T14:00:04Z</time><name>PT13398</name></trkpt>
<trkpt lat="53.356443" lon="-1.629990"><ele>442</ele><time>2020-05-21T14:00:08Z</time><name>PT13399</name></trkpt>
<trkpt lat="53.356449" lon="-1.629975"><ele>442</ele><time>2020-05-21T14:00:09Z</time><name>PT13400</name></trkpt>
<trkpt lat="53.356455" lon="-1.629964"><ele>442</ele><time>2020-05-21T14:00:10Z</time><name>PT13401</name></trkpt>
<trkpt lat="53.356462" lon="-1.629952"><ele>442</ele><time>2020-05-21T14:00:11Z</time><name>PT13402</name></trkpt>
<trkpt lat="53.356469" lon="-1.629932"><ele>442</ele><time>2020-05-21T14:00:12Z</time><name>PT13403</name></trkpt>
<trkpt lat="53.356476" lon="-1.629903"><ele>442</ele><time>2020-05-21T14:00:13Z</time><name>PT13404</name></trkpt>
<trkpt lat="53.356485" lon="-1.629883"><ele>441</ele><time>2020-05-21T14:00:14Z</time><name>PT13405</name></trkpt>
<trkpt lat="53.356492" lon="-1.629869"><ele>441</ele><time>2020-05-21T14:00:15Z</time><name>PT13406</name></trkpt>
<trkpt lat="53.356497" lon="-1.629852"><ele>441</ele><time>2020-05-21T14:00:16Z</time><name>PT13407</name></trkpt>
<trkpt lat="53.356504" lon="-1.629833"><ele>440</ele><time>2020-05-21T14:00:17Z</time><name>PT13408</name></trkpt>
<trkpt lat="53.356512" lon="-1.629815"><ele>441</ele><time>2020-05-21T14:00:18Z</time><name>PT13409</name></trkpt>
<trkpt lat="53.356518" lon="-1.629789"><ele>441</ele><time>2020-05-21T14:00:19Z</time><name>PT13410</name></trkpt>
<trkpt lat="53.356527" lon="-1.629763"><ele>441</ele><time>2020-05-21T14:00:20Z</time><name>PT13411</name></trkpt>
<trkpt lat="53.356534" lon="-1.629751"><ele>441</ele><time>2020-05-21T14:00:21Z</time><name>PT13412</name></trkpt>
<trkpt lat="53.356539" lon="-1.629737"><ele>441</ele><time>2020-05-21T14:00:22Z</time><name>PT13413</name></trkpt>
<trkpt lat="53.356549" lon="-1.629725"><ele>441</ele><time>2020-05-21T14:00:23Z</time><name>PT13414</name></trkpt>
<trkpt lat="53.356560" lon="-1.629711"><ele>441</ele><time>2020-05-21T14:00:24Z</time><name>PT13415</name></trkpt>
<trkpt lat="53.356573" lon="-1.629691"><ele>442</ele><time>2020-05-21T14:00:25Z</time><name>PT13416</name></trkpt>
<trkpt lat="53.356585" lon="-1.629679"><ele>442</ele><time>2020-05-21T14:00:26Z</time><name>PT13417</name></trkpt>
<trkpt lat="53.356594" lon="-1.629670"><ele>442</ele><time>2020-05-21T14:00:27Z</time><name>PT13418</name></trkpt>
<trkpt lat="53.356598" lon="-1.629659"><ele>441</ele><time>2020-05-21T14:00:28Z</time><name>PT13419</name></trkpt>
<trkpt lat="53.356605" lon="-1.629648"><ele>439</ele><time>2020-05-21T14:00:29Z</time><name>PT13420</name></trkpt>
<trkpt lat="53.356614" lon="-1.629634"><ele>439</ele><time>2020-05-21T14:00:30Z</time><name>PT13421</name></trkpt>
<trkpt lat="53.356624" lon="-1.629620"><ele>438</ele><time>2020-05-21T14:00:31Z</time><name>PT13422</name></trkpt>
<trkpt lat="53.356636" lon="-1.629592"><ele>439</ele><time>2020-05-21T14:00:32Z</time><name>PT13423</name></trkpt>
<trkpt lat="53.356649" lon="-1.629568"><ele>439</ele><time>2020-05-21T14:00:33Z</time><name>PT13424</name></trkpt>
<trkpt lat="53.356657" lon="-1.629557"><ele>439</ele><time>2020-05-21T14:00:34Z</time><name>PT13425</name></trkpt>
<trkpt lat="53.356666" lon="-1.629545"><ele>439</ele><time>2020-05-21T14:00:35Z</time><name>PT13426</name></trkpt>
<trkpt lat="53.356677" lon="-1.629531"><ele>438</ele><time>2020-05-21T14:00:36Z</time><name>PT13427</name></trkpt>
<trkpt lat="53.356690" lon="-1.629518"><ele>439</ele><time>2020-05-21T14:00:37Z</time><name>PT13428</name></trkpt>
<trkpt lat="53.356702" lon="-1.629500"><ele>439</ele><time>2020-05-21T14:00:38Z</time><name>PT13429</name></trkpt>
<trkpt lat="53.356715" lon="-1.629484"><ele>439</ele><time>2020-05-21T14:00:39Z</time><name>PT13430</name></trkpt>
<trkpt lat="53.356723" lon="-1.629472"><ele>439</ele><time>2020-05-21T14:00:40Z</time><name>PT13431</name></trkpt>
<trkpt lat="53.356730" lon="-1.629463"><ele>439</ele><time>2020-05-21T14:00:41Z</time><name>PT13432</name></trkpt>
<trkpt lat="53.356744" lon="-1.629447"><ele>440</ele><time>2020-05-21T14:00:42Z</time><name>PT13433</name></trkpt>
<trkpt lat="53.356756" lon="-1.629433"><ele>439</ele><time>2020-05-21T14:00:44Z</time><name>PT13434</name></trkpt>
<trkpt lat="53.356768" lon="-1.629419"><ele>440</ele><time>2020-05-21T14:00:44Z</time><name>PT13435</name></trkpt>
<trkpt lat="53.356779" lon="-1.629394"><ele>439</ele><time>2020-05-21T14:00:45Z</time><name>PT13436</name></trkpt>
<trkpt lat="53.356793" lon="-1.629365"><ele>440</ele><time>2020-05-21T14:00:46Z</time><name>PT13437</name></trkpt>
<trkpt lat="53.356801" lon="-1.629351"><ele>441</ele><time>2020-05-21T14:00:47Z</time><name>PT13438</name></trkpt>
<trkpt lat="53.356804" lon="-1.629343"><ele>440</ele><time>2020-05-21T14:00:48Z</time><name>PT13439</name></trkpt>
<trkpt lat="53.356810" lon="-1.629329"><ele>440</ele><time>2020-05-21T14:00:50Z</time><name>PT13440</name></trkpt>
<trkpt lat="53.356816" lon="-1.629313"><ele>439</ele><time>2020-05-21T14:00:50Z</time><name>PT13441</name></trkpt>
<trkpt lat="53.356826" lon="-1.629299"><ele>439</ele><time>2020-05-21T14:00:51Z</time><name>PT13442</name></trkpt>
<trkpt lat="53.356842" lon="-1.629288"><ele>439</ele><time>2020-05-21T14:00:52Z</time><name>PT13443</name></trkpt>
<trkpt lat="53.356854" lon="-1.629265"><ele>440</ele><time>2020-05-21T14:00:53Z</time><name>PT13444</name></trkpt>
<trkpt lat="53.356863" lon="-1.629249"><ele>439</ele><time>2020-05-21T14:00:55Z</time><name>PT13445</name></trkpt>
<trkpt lat="53.356869" lon="-1.629238"><ele>439</ele><time>2020-05-21T14:00:55Z</time><name>PT13446</name></trkpt>
<trkpt lat="53.356873" lon="-1.629221"><ele>439</ele><time>2020-05-21T14:00:56Z</time><name>PT13447</name></trkpt>
<trkpt lat="53.356879" lon="-1.629202"><ele>439</ele><time>2020-05-21T14:00:57Z</time><name>PT13448</name></trkpt>
<trkpt lat="53.356889" lon="-1.629185"><ele>439</ele><time>2020-05-21T14:00:58Z</time><name>PT13449</name></trkpt>
<trkpt lat="53.356900" lon="-1.629165"><ele>439</ele><time>2020-05-21T14:00:59Z</time><name>PT13450</name></trkpt>
<trkpt lat="53.356911" lon="-1.629141"><ele>439</ele><time>2020-05-21T14:01:00Z</time><name>PT13451</name></trkpt>
<trkpt lat="53.356920" lon="-1.629125"><ele>439</ele><time>2020-05-21T14:01:01Z</time><name>PT13452</name></trkpt>
<trkpt lat="53.356924" lon="-1.629120"><ele>438</ele><time>2020-05-21T14:01:02Z</time><name>PT13453</name></trkpt>
<trkpt lat="53.356929" lon="-1.629106"><ele>438</ele><time>2020-05-21T14:01:03Z</time><name>PT13454</name></trkpt>
<trkpt lat="53.356936" lon="-1.629093"><ele>438</ele><time>2020-05-21T14:01:04Z</time><name>PT13455</name></trkpt>
<trkpt lat="53.356944" lon="-1.629079"><ele>438</ele><time>2020-05-21T14:01:05Z</time><name>PT13456</name></trkpt>
<trkpt lat="53.356951" lon="-1.629056"><ele>438</ele><time>2020-05-21T14:01:06Z</time><name>PT13457</name></trkpt>
<trkpt lat="53.356960" lon="-1.629030"><ele>438</ele><time>2020-05-21T14:01:07Z</time><name>PT13458</name></trkpt>
<trkpt lat="53.356966" lon="-1.629015"><ele>438</ele><time>2020-05-21T14:01:08Z</time><name>PT13459</name></trkpt>
<trkpt lat="53.356967" lon="-1.629010"><ele>436</ele><time>2020-05-21T14:01:09Z</time><name>PT13460</name></trkpt>
<trkpt lat="53.356972" lon="-1.628993"><ele>436</ele><time>2020-05-21T14:01:10Z</time><name>PT13461</name></trkpt>
<trkpt lat="53.356978" lon="-1.628978"><ele>435</ele><time>2020-05-21T14:01:11Z</time><name>PT13462</name></trkpt>
<trkpt lat="53.356984" lon="-1.628950"><ele>436</ele><time>2020-05-21T14:01:12Z</time><name>PT13463</name></trkpt>
<trkpt lat="53.356991" lon="-1.628928"><ele>435</ele><time>2020-05-21T14:01:13Z</time><name>PT13464</name></trkpt>
<trkpt lat="53.356999" lon="-1.628914"><ele>436</ele><time>2020-05-21T14:01:14Z</time><name>PT13465</name></trkpt>
<trkpt lat="53.357007" lon="-1.628904"><ele>436</ele><time>2020-05-21T14:01:15Z</time><name>PT13466</name></trkpt>
<trkpt lat="53.357017" lon="-1.628892"><ele>436</ele><time>2020-05-21T14:01:16Z</time><name>PT13467</name></trkpt>
<trkpt lat="53.357026" lon="-1.628871"><ele>436</ele><time>2020-05-21T14:01:17Z</time><name>PT13468</name></trkpt>
<trkpt lat="53.357035" lon="-1.628854"><ele>436</ele><time>2020-05-21T14:01:18Z</time><name>PT13469</name></trkpt>
<trkpt lat="53.357043" lon="-1.628842"><ele>437</ele><time>2020-05-21T14:01:19Z</time><name>PT13470</name></trkpt>
<trkpt lat="53.357045" lon="-1.628840"><ele>435</ele><time>2020-05-21T14:01:20Z</time><name>PT13471</name></trkpt>
<trkpt lat="53.357054" lon="-1.628823"><ele>435</ele><time>2020-05-21T14:01:21Z</time><name>PT13472</name></trkpt>
<trkpt lat="53.357064" lon="-1.628813"><ele>435</ele><time>2020-05-21T14:01:22Z</time><name>PT13473</name></trkpt>
<trkpt lat="53.357077" lon="-1.628801"><ele>435</ele><time>2020-05-21T14:01:23Z</time><name>PT13474</name></trkpt>
<trkpt lat="53.357090" lon="-1.628780"><ele>435</ele><time>2020-05-21T14:01:24Z</time><name>PT13475</name></trkpt>
<trkpt lat="53.357101" lon="-1.628769"><ele>435</ele><time>2020-05-21T14:01:25Z</time><name>PT13476</name></trkpt>
<trkpt lat="53.357108" lon="-1.628759"><ele>435</ele><time>2020-05-21T14:01:26Z</time><name>PT13477</name></trkpt>
<trkpt lat="53.357116" lon="-1.628749"><ele>435</ele><time>2020-05-21T14:01:27Z</time><name>PT13478</name></trkpt>
<trkpt lat="53.357125" lon="-1.628738"><ele>435</ele><time>2020-05-21T14:01:28Z</time><name>PT13479</name></trkpt>
<trkpt lat="53.357135" lon="-1.628727"><ele>434</ele><time>2020-05-21T14:01:30Z</time><name>PT13480</name></trkpt>
<trkpt lat="53.357148" lon="-1.628710"><ele>435</ele><time>2020-05-21T14:01:30Z</time><name>PT13481</name></trkpt>
<trkpt lat="53.357163" lon="-1.628692"><ele>434</ele><time>2020-05-21T14:01:31Z</time><name>PT13482</name></trkpt>
<trkpt lat="53.357176" lon="-1.628677"><ele>434</ele><time>2020-05-21T14:01:32Z</time><name>PT13483</name></trkpt>
<trkpt lat="53.357185" lon="-1.628663"><ele>434</ele><time>2020-05-21T14:01:33Z</time><name>PT13484</name></trkpt>
<trkpt lat="53.357191" lon="-1.628663"><ele>434</ele><time>2020-05-21T14:01:35Z</time><name>PT13485</name></trkpt>
<trkpt lat="53.357196" lon="-1.628647"><ele>433</ele><time>2020-05-21T14:01:35Z</time><name>PT13486</name></trkpt>
<trkpt lat="53.357203" lon="-1.628630"><ele>433</ele><time>2020-05-21T14:01:36Z</time><name>PT13487</name></trkpt>
<trkpt lat="53.357210" lon="-1.628615"><ele>432</ele><time>2020-05-21T14:01:37Z</time><name>PT13488</name></trkpt>
<trkpt lat="53.357215" lon="-1.628589"><ele>433</ele><time>2020-05-21T14:01:38Z</time><name>PT13489</name></trkpt>
<trkpt lat="53.357221" lon="-1.628561"><ele>433</ele><time>2020-05-21T14:01:39Z</time><name>PT13490</name></trkpt>
<trkpt lat="53.357225" lon="-1.628544"><ele>433</ele><time>2020-05-21T14:01:40Z</time><name>PT13491</name></trkpt>
<trkpt lat="53.357233" lon="-1.628525"><ele>434</ele><time>2020-05-21T14:01:41Z</time><name>PT13492</name></trkpt>
<trkpt lat="53.357240" lon="-1.628506"><ele>434</ele><time>2020-05-21T14:01:42Z</time><name>PT13493</name></trkpt>
<trkpt lat="53.357244" lon="-1.628472"><ele>434</ele><time>2020-05-21T14:01:43Z</time><name>PT13494</name></trkpt>
<trkpt lat="53.357254" lon="-1.628442"><ele>435</ele><time>2020-05-21T14:01:44Z</time><name>PT13495</name></trkpt>
<trkpt lat="53.357264" lon="-1.628425"><ele>435</ele><time>2020-05-21T14:01:45Z</time><name>PT13496</name></trkpt>
<trkpt lat="53.357269" lon="-1.628411"><ele>435</ele><time>2020-05-21T14:01:46Z</time><name>PT13497</name></trkpt>
<trkpt lat="53.357271" lon="-1.628404"><ele>435</ele><time>2020-05-21T14:01:47Z</time><name>PT13498</name></trkpt>
<trkpt lat="53.357275" lon="-1.628390"><ele>434</ele><time>2020-05-21T14:01:48Z</time><name>PT13499</name></trkpt>
<trkpt lat="53.357285" lon="-1.628382"><ele>434</ele><time>2020-05-21T14:01:49Z</time><name>PT13500</name></trkpt>
<trkpt lat="53.357294" lon="-1.628364"><ele>434</ele><time>2020-05-21T14:01:50Z</time><name>PT13501</name></trkpt>
<trkpt lat="53.357307" lon="-1.628347"><ele>434</ele><time>2020-05-21T14:01:51Z</time><name>PT13502</name></trkpt>
<trkpt lat="53.357319" lon="-1.628329"><ele>435</ele><time>2020-05-21T14:01:52Z</time><name>PT13503</name></trkpt>
<trkpt lat="53.357325" lon="-1.628318"><ele>434</ele><time>2020-05-21T14:01:53Z</time><name>PT13504</name></trkpt>
<trkpt lat="53.357335" lon="-1.628318"><ele>434</ele><time>2020-05-21T14:01:54Z</time><name>PT13505</name></trkpt>
<trkpt lat="53.357343" lon="-1.628311"><ele>434</ele><time>2020-05-21T14:01:55Z</time><name>PT13506</name></trkpt>
<trkpt lat="53.357353" lon="-1.628301"><ele>434</ele><time>2020-05-21T14:01:56Z</time><name>PT13507</name></trkpt>
<trkpt lat="53.357365" lon="-1.628289"><ele>434</ele><time>2020-05-21T14:01:57Z</time><name>PT13508</name></trkpt>
<trkpt lat="53.357376" lon="-1.628271"><ele>433</ele><time>2020-05-21T14:01:58Z</time><name>PT13509</name></trkpt>
<trkpt lat="53.357387" lon="-1.628251"><ele>433</ele><time>2020-05-21T14:01:59Z</time><name>PT13510</name></trkpt>
<trkpt lat="53.357397" lon="-1.628241"><ele>433</ele><time>2020-05-21T14:02:00Z</time><name>PT13511</name></trkpt>
<trkpt lat="53.357404" lon="-1.628233"><ele>432</ele><time>2020-05-21T14:02:01Z</time><name>PT13512</name></trkpt>
<trkpt lat="53.357409" lon="-1.628223"><ele>432</ele><time>2020-05-21T14:02:02Z</time><name>PT13513</name></trkpt>
<trkpt lat="53.357418" lon="-1.628212"><ele>432</ele><time>2020-05-21T14:02:03Z</time><name>PT13514</name></trkpt>
<trkpt lat="53.357428" lon="-1.628196"><ele>432</ele><time>2020-05-21T14:02:04Z</time><name>PT13515</name></trkpt>
<trkpt lat="53.357437" lon="-1.628184"><ele>432</ele><time>2020-05-21T14:02:05Z</time><name>PT13516</name></trkpt>
<trkpt lat="53.357447" lon="-1.628169"><ele>431</ele><time>2020-05-21T14:02:06Z</time><name>PT13517</name></trkpt>
<trkpt lat="53.357459" lon="-1.628147"><ele>432</ele><time>2020-05-21T14:02:07Z</time><name>PT13518</name></trkpt>
<trkpt lat="53.357470" lon="-1.628131"><ele>431</ele><time>2020-05-21T14:02:08Z</time><name>PT13519</name></trkpt>
<trkpt lat="53.357478" lon="-1.628121"><ele>431</ele><time>2020-05-21T14:02:09Z</time><name>PT13520</name></trkpt>
<trkpt lat="53.357484" lon="-1.628114"><ele>431</ele><time>2020-05-21T14:02:10Z</time><name>PT13521</name></trkpt>
<trkpt lat="53.357494" lon="-1.628098"><ele>430</ele><time>2020-05-21T14:02:11Z</time><name>PT13522</name></trkpt>
<trkpt lat="53.357506" lon="-1.628087"><ele>430</ele><time>2020-05-21T14:02:12Z</time><name>PT13523</name></trkpt>
<trkpt lat="53.357518" lon="-1.628073"><ele>430</ele><time>2020-05-21T14:02:13Z</time><name>PT13524</name></trkpt>
<trkpt lat="53.357531" lon="-1.628052"><ele>430</ele><time>2020-05-21T14:02:14Z</time><name>PT13525</name></trkpt>
<trkpt lat="53.357545" lon="-1.628027"><ele>430</ele><time>2020-05-21T14:02:15Z</time><name>PT13526</name></trkpt>
<trkpt lat="53.357561" lon="-1.627994"><ele>430</ele><time>2020-05-21T14:02:17Z</time><name>PT13527</name></trkpt>
<trkpt lat="53.357574" lon="-1.627983"><ele>431</ele><time>2020-05-21T14:02:18Z</time><name>PT13528</name></trkpt>
<trkpt lat="53.357584" lon="-1.627968"><ele>431</ele><time>2020-05-21T14:02:19Z</time><name>PT13529</name></trkpt>
<trkpt lat="53.357595" lon="-1.627955"><ele>431</ele><time>2020-05-21T14:02:20Z</time><name>PT13530</name></trkpt>
<trkpt lat="53.357609" lon="-1.627935"><ele>432</ele><time>2020-05-21T14:02:21Z</time><name>PT13531</name></trkpt>
<trkpt lat="53.357623" lon="-1.627913"><ele>432</ele><time>2020-05-21T14:02:22Z</time><name>PT13532</name></trkpt>
<trkpt lat="53.357633" lon="-1.627894"><ele>432</ele><time>2020-05-21T14:02:24Z</time><name>PT13533</name></trkpt>
<trkpt lat="53.357639" lon="-1.627885"><ele>431</ele><time>2020-05-21T14:02:24Z</time><name>PT13534</name></trkpt>
<trkpt lat="53.357649" lon="-1.627870"><ele>431</ele><time>2020-05-21T14:02:25Z</time><name>PT13535</name></trkpt>
<trkpt lat="53.357655" lon="-1.627860"><ele>431</ele><time>2020-05-21T14:02:26Z</time><name>PT13536</name></trkpt>
<trkpt lat="53.357662" lon="-1.627851"><ele>431</ele><time>2020-05-21T14:02:27Z</time><name>PT13537</name></trkpt>
<trkpt lat="53.357673" lon="-1.627829"><ele>431</ele><time>2020-05-21T14:02:28Z</time><name>PT13538</name></trkpt>
<trkpt lat="53.357687" lon="-1.627815"><ele>431</ele><time>2020-05-21T14:02:29Z</time><name>PT13539</name></trkpt>
<trkpt lat="53.357699" lon="-1.627805"><ele>431</ele><time>2020-05-21T14:02:30Z</time><name>PT13540</name></trkpt>
<trkpt lat="53.357705" lon="-1.627799"><ele>431</ele><time>2020-05-21T14:02:31Z</time><name>PT13541</name></trkpt>
<trkpt lat="53.357712" lon="-1.627799"><ele>430</ele><time>2020-05-21T14:02:32Z</time><name>PT13542</name></trkpt>
<trkpt lat="53.357724" lon="-1.627790"><ele>430</ele><time>2020-05-21T14:02:33Z</time><name>PT13543</name></trkpt>
<trkpt lat="53.357736" lon="-1.627779"><ele>430</ele><time>2020-05-21T14:02:34Z</time><name>PT13544</name></trkpt>
<trkpt lat="53.357755" lon="-1.627762"><ele>431</ele><time>2020-05-21T14:02:35Z</time><name>PT13545</name></trkpt>
<trkpt lat="53.357772" lon="-1.627743"><ele>431</ele><time>2020-05-21T14:02:36Z</time><name>PT13546</name></trkpt>
<trkpt lat="53.357782" lon="-1.627734"><ele>430</ele><time>2020-05-21T14:02:37Z</time><name>PT13547</name></trkpt>
<trkpt lat="53.357789" lon="-1.627722"><ele>430</ele><time>2020-05-21T14:02:38Z</time><name>PT13548</name></trkpt>
<trkpt lat="53.357795" lon="-1.627706"><ele>430</ele><time>2020-05-21T14:02:39Z</time><name>PT13549</name></trkpt>
<trkpt lat="53.357807" lon="-1.627691"><ele>430</ele><time>2020-05-21T14:02:40Z</time><name>PT13550</name></trkpt>
<trkpt lat="53.357822" lon="-1.627683"><ele>430</ele><time>2020-05-21T14:02:41Z</time><name>PT13551</name></trkpt>
<trkpt lat="53.357835" lon="-1.627661"><ele>431</ele><time>2020-05-21T14:02:42Z</time><name>PT13552</name></trkpt>
<trkpt lat="53.357847" lon="-1.627639"><ele>431</ele><time>2020-05-21T14:02:43Z</time><name>PT13553</name></trkpt>
<trkpt lat="53.357853" lon="-1.627628"><ele>430</ele><time>2020-05-21T14:02:44Z</time><name>PT13554</name></trkpt>
<trkpt lat="53.357861" lon="-1.627616"><ele>430</ele><time>2020-05-21T14:02:45Z</time><name>PT13555</name></trkpt>
<trkpt lat="53.357872" lon="-1.627601"><ele>430</ele><time>2020-05-21T14:02:46Z</time><name>PT13556</name></trkpt>
<trkpt lat="53.357883" lon="-1.627587"><ele>430</ele><time>2020-05-21T14:02:47Z</time><name>PT13557</name></trkpt>
<trkpt lat="53.357895" lon="-1.627569"><ele>430</ele><time>2020-05-21T14:02:48Z</time><name>PT13558</name></trkpt>
<trkpt lat="53.357908" lon="-1.627553"><ele>430</ele><time>2020-05-21T14:02:49Z</time><name>PT13559</name></trkpt>
<trkpt lat="53.357922" lon="-1.627539"><ele>430</ele><time>2020-05-21T14:02:50Z</time><name>PT13560</name></trkpt>
<trkpt lat="53.357929" lon="-1.627532"><ele>429</ele><time>2020-05-21T14:02:51Z</time><name>PT13561</name></trkpt>
<trkpt lat="53.357934" lon="-1.627528"><ele>429</ele><time>2020-05-21T14:02:52Z</time><name>PT13562</name></trkpt>
<trkpt lat="53.357941" lon="-1.627514"><ele>428</ele><time>2020-05-21T14:02:53Z</time><name>PT13563</name></trkpt>
<trkpt lat="53.357952" lon="-1.627502"><ele>427</ele><time>2020-05-21T14:02:54Z</time><name>PT13564</name></trkpt>
<trkpt lat="53.357963" lon="-1.627489"><ele>427</ele><time>2020-05-21T14:02:55Z</time><name>PT13565</name></trkpt>
<trkpt lat="53.357972" lon="-1.627474"><ele>428</ele><time>2020-05-21T14:02:56Z</time><name>PT13566</name></trkpt>
<trkpt lat="53.357982" lon="-1.627465"><ele>427</ele><time>2020-05-21T14:02:57Z</time><name>PT13567</name></trkpt>
<trkpt lat="53.357990" lon="-1.627461"><ele>427</ele><time>2020-05-21T14:02:58Z</time><name>PT13568</name></trkpt>
<trkpt lat="53.357994" lon="-1.627452"><ele>427</ele><time>2020-05-21T14:02:59Z</time><name>PT13569</name></trkpt>
<trkpt lat="53.358000" lon="-1.627440"><ele>427</ele><time>2020-05-21T14:03:00Z</time><name>PT13570</name></trkpt>
<trkpt lat="53.358002" lon="-1.627430"><ele>427</ele><time>2020-05-21T14:03:01Z</time><name>PT13571</name></trkpt>
<trkpt lat="53.358003" lon="-1.627426"><ele>427</ele><time>2020-05-21T14:03:02Z</time><name>PT13572</name></trkpt>
<trkpt lat="53.358005" lon="-1.627426"><ele>427</ele><time>2020-05-21T14:03:03Z</time><name>PT13573</name></trkpt>
<trkpt lat="53.358005" lon="-1.627420"><ele>427</ele><time>2020-05-21T14:03:04Z</time><name>PT13574</name></trkpt>
<trkpt lat="53.358007" lon="-1.627408"><ele>428</ele><time>2020-05-21T14:03:06Z</time><name>PT13575</name></trkpt>
<trkpt lat="53.358009" lon="-1.627405"><ele>428</ele><time>2020-05-21T14:03:06Z</time><name>PT13576</name></trkpt>
<trkpt lat="53.358009" lon="-1.627401"><ele>428</ele><time>2020-05-21T14:03:07Z</time><name>PT13577</name></trkpt>
<trkpt lat="53.358009" lon="-1.627399"><ele>428</ele><time>2020-05-21T14:03:08Z</time><name>PT13578</name></trkpt>
<trkpt lat="53.358014" lon="-1.627391"><ele>428</ele><time>2020-05-21T14:03:11Z</time><name>PT13579</name></trkpt>
<trkpt lat="53.358018" lon="-1.627373"><ele>428</ele><time>2020-05-21T14:03:11Z</time><name>PT13580</name></trkpt>
<trkpt lat="53.358027" lon="-1.627358"><ele>428</ele><time>2020-05-21T14:03:12Z</time><name>PT13581</name></trkpt>
<trkpt lat="53.358032" lon="-1.627346"><ele>428</ele><time>2020-05-21T14:03:13Z</time><name>PT13582</name></trkpt>
<trkpt lat="53.358036" lon="-1.627334"><ele>427</ele><time>2020-05-21T14:03:14Z</time><name>PT13583</name></trkpt>
<trkpt lat="53.358042" lon="-1.627315"><ele>427</ele><time>2020-05-21T14:03:15Z</time><name>PT13584</name></trkpt>
<trkpt lat="53.358046" lon="-1.627296"><ele>427</ele><time>2020-05-21T14:03:16Z</time><name>PT13585</name></trkpt>
<trkpt lat="53.358057" lon="-1.627278"><ele>427</ele><time>2020-05-21T14:03:17Z</time><name>PT13586</name></trkpt>
<trkpt lat="53.358065" lon="-1.627266"><ele>427</ele><time>2020-05-21T14:03:18Z</time><name>PT13587</name></trkpt>
<trkpt lat="53.358072" lon="-1.627256"><ele>427</ele><time>2020-05-21T14:03:19Z</time><name>PT13588</name></trkpt>
<trkpt lat="53.358078" lon="-1.627242"><ele>427</ele><time>2020-05-21T14:03:20Z</time><name>PT13589</name></trkpt>
<trkpt lat="53.358085" lon="-1.627226"><ele>427</ele><time>2020-05-21T14:03:21Z</time><name>PT13590</name></trkpt>
<trkpt lat="53.358094" lon="-1.627218"><ele>427</ele><time>2020-05-21T14:03:22Z</time><name>PT13591</name></trkpt>
<trkpt lat="53.358107" lon="-1.627205"><ele>427</ele><time>2020-05-21T14:03:23Z</time><name>PT13592</name></trkpt>
<trkpt lat="53.358118" lon="-1.627184"><ele>427</ele><time>2020-05-21T14:03:24Z</time><name>PT13593</name></trkpt>
<trkpt lat="53.358128" lon="-1.627157"><ele>427</ele><time>2020-05-21T14:03:25Z</time><name>PT13594</name></trkpt>
<trkpt lat="53.358134" lon="-1.627135"><ele>428</ele><time>2020-05-21T14:03:26Z</time><name>PT13595</name></trkpt>
<trkpt lat="53.358132" lon="-1.627116"><ele>427</ele><time>2020-05-21T14:03:27Z</time><name>PT13596</name></trkpt>
<trkpt lat="53.358133" lon="-1.627106"><ele>427</ele><time>2020-05-21T14:03:28Z</time><name>PT13597</name></trkpt>
<trkpt lat="53.358137" lon="-1.627090"><ele>426</ele><time>2020-05-21T14:03:29Z</time><name>PT13598</name></trkpt>
<trkpt lat="53.358140" lon="-1.627064"><ele>426</ele><time>2020-05-21T14:03:30Z</time><name>PT13599</name></trkpt>
<trkpt lat="53.358147" lon="-1.627036"><ele>426</ele><time>2020-05-21T14:03:31Z</time><name>PT13600</name></trkpt>
<trkpt lat="53.358156" lon="-1.627017"><ele>425</ele><time>2020-05-21T14:03:32Z</time><name>PT13601</name></trkpt>
<trkpt lat="53.358160" lon="-1.627002"><ele>425</ele><time>2020-05-21T14:03:33Z</time><name>PT13602</name></trkpt>
<trkpt lat="53.358163" lon="-1.626986"><ele>425</ele><time>2020-05-21T14:03:34Z</time><name>PT13603</name></trkpt>
<trkpt lat="53.358170" lon="-1.626972"><ele>425</ele><time>2020-05-21T14:03:36Z</time><name>PT13604</name></trkpt>
<trkpt lat="53.358176" lon="-1.626962"><ele>425</ele><time>2020-05-21T14:03:36Z</time><name>PT13605</name></trkpt>
<trkpt lat="53.358181" lon="-1.626947"><ele>424</ele><time>2020-05-21T14:03:37Z</time><name>PT13606</name></trkpt>
<trkpt lat="53.358187" lon="-1.626925"><ele>424</ele><time>2020-05-21T14:03:38Z</time><name>PT13607</name></trkpt>
<trkpt lat="53.358190" lon="-1.626901"><ele>424</ele><time>2020-05-21T14:03:39Z</time><name>PT13608</name></trkpt>
<trkpt lat="53.358191" lon="-1.626887"><ele>424</ele><time>2020-05-21T14:03:40Z</time><name>PT13609</name></trkpt>
<trkpt lat="53.358194" lon="-1.626872"><ele>424</ele><time>2020-05-21T14:03:42Z</time><name>PT13610</name></trkpt>
<trkpt lat="53.358199" lon="-1.626853"><ele>424</ele><time>2020-05-21T14:03:42Z</time><name>PT13611</name></trkpt>
<trkpt lat="53.358205" lon="-1.626835"><ele>424</ele><time>2020-05-21T14:03:43Z</time><name>PT13612</name></trkpt>
<trkpt lat="53.358213" lon="-1.626817"><ele>424</ele><time>2020-05-21T14:03:44Z</time><name>PT13613</name></trkpt>
<trkpt lat="53.358221" lon="-1.626788"><ele>424</ele><time>2020-05-21T14:03:45Z</time><name>PT13614</name></trkpt>
<trkpt lat="53.358228" lon="-1.626763"><ele>423</ele><time>2020-05-21T14:03:46Z</time><name>PT13615</name></trkpt>
<trkpt lat="53.358235" lon="-1.626748"><ele>422</ele><time>2020-05-21T14:03:47Z</time><name>PT13616</name></trkpt>
<trkpt lat="53.358241" lon="-1.626733"><ele>423</ele><time>2020-05-21T14:03:48Z</time><name>PT13617</name></trkpt>
<trkpt lat="53.358246" lon="-1.626713"><ele>423</ele><time>2020-05-21T14:03:49Z</time><name>PT13618</name></trkpt>
<trkpt lat="53.358252" lon="-1.626692"><ele>423</ele><time>2020-05-21T14:03:50Z</time><name>PT13619</name></trkpt>
<trkpt lat="53.358266" lon="-1.626682"><ele>423</ele><time>2020-05-21T14:03:51Z</time><name>PT13620</name></trkpt>
<trkpt lat="53.358279" lon="-1.626660"><ele>423</ele><time>2020-05-21T14:03:52Z</time><name>PT13621</name></trkpt>
<trkpt lat="53.358290" lon="-1.626637"><ele>423</ele><time>2020-05-21T14:03:53Z</time><name>PT13622</name></trkpt>
<trkpt lat="53.358297" lon="-1.626622"><ele>423</ele><time>2020-05-21T14:03:54Z</time><name>PT13623</name></trkpt>
<trkpt lat="53.358302" lon="-1.626613"><ele>423</ele><time>2020-05-21T14:03:55Z</time><name>PT13624</name></trkpt>
<trkpt lat="53.358305" lon="-1.626601"><ele>423</ele><time>2020-05-21T14:03:57Z</time><name>PT13625</name></trkpt>
<trkpt lat="53.358309" lon="-1.626581"><ele>423</ele><time>2020-05-21T14:03:57Z</time><name>PT13626</name></trkpt>
<trkpt lat="53.358315" lon="-1.626564"><ele>422</ele><time>2020-05-21T14:03:58Z</time><name>PT13627</name></trkpt>
<trkpt lat="53.358321" lon="-1.626536"><ele>422</ele><time>2020-05-21T14:03:59Z</time><name>PT13628</name></trkpt>
<trkpt lat="53.358327" lon="-1.626506"><ele>421</ele><time>2020-05-21T14:04:00Z</time><name>PT13629</name></trkpt>
<trkpt lat="53.358336" lon="-1.626483"><ele>421</ele><time>2020-05-21T14:04:01Z</time><name>PT13630</name></trkpt>
<trkpt lat="53.358342" lon="-1.626473"><ele>422</ele><time>2020-05-21T14:04:02Z</time><name>PT13631</name></trkpt>
<trkpt lat="53.358348" lon="-1.626469"><ele>421</ele><time>2020-05-21T14:04:03Z</time><name>PT13632</name></trkpt>
<trkpt lat="53.358356" lon="-1.626457"><ele>420</ele><time>2020-05-21T14:04:04Z</time><name>PT13633</name></trkpt>
<trkpt lat="53.358362" lon="-1.626436"><ele>420</ele><time>2020-05-21T14:04:05Z</time><name>PT13634</name></trkpt>
<trkpt lat="53.358369" lon="-1.626409"><ele>420</ele><time>2020-05-21T14:04:06Z</time><name>PT13635</name></trkpt>
<trkpt lat="53.358381" lon="-1.626383"><ele>421</ele><time>2020-05-21T14:04:07Z</time><name>PT13636</name></trkpt>
<trkpt lat="53.358390" lon="-1.626366"><ele>421</ele><time>2020-05-21T14:04:08Z</time><name>PT13637</name></trkpt>
<trkpt lat="53.358395" lon="-1.626353"><ele>421</ele><time>2020-05-21T14:04:09Z</time><name>PT13638</name></trkpt>
<trkpt lat="53.358398" lon="-1.626340"><ele>420</ele><time>2020-05-21T14:04:10Z</time><name>PT13639</name></trkpt>
<trkpt lat="53.358404" lon="-1.626323"><ele>420</ele><time>2020-05-21T14:04:11Z</time><name>PT13640</name></trkpt>
<trkpt lat="53.358410" lon="-1.626304"><ele>419</ele><time>2020-05-21T14:04:12Z</time><name>PT13641</name></trkpt>
<trkpt lat="53.358417" lon="-1.626288"><ele>420</ele><time>2020-05-21T14:04:13Z</time><name>PT13642</name></trkpt>
<trkpt lat="53.358425" lon="-1.626262"><ele>420</ele><time>2020-05-21T14:04:14Z</time><name>PT13643</name></trkpt>
<trkpt lat="53.358433" lon="-1.626237"><ele>420</ele><time>2020-05-21T14:04:15Z</time><name>PT13644</name></trkpt>
<trkpt lat="53.358437" lon="-1.626223"><ele>420</ele><time>2020-05-21T14:04:16Z</time><name>PT13645</name></trkpt>
<trkpt lat="53.358439" lon="-1.626206"><ele>419</ele><time>2020-05-21T14:04:17Z</time><name>PT13646</name></trkpt>
<trkpt lat="53.358447" lon="-1.626189"><ele>419</ele><time>2020-05-21T14:04:18Z</time><name>PT13647</name></trkpt>
<trkpt lat="53.358454" lon="-1.626170"><ele>419</ele><time>2020-05-21T14:04:19Z</time><name>PT13648</name></trkpt>
<trkpt lat="53.358460" lon="-1.626148"><ele>419</ele><time>2020-05-21T14:04:21Z</time><name>PT13649</name></trkpt>
<trkpt lat="53.358467" lon="-1.626126"><ele>420</ele><time>2020-05-21T14:04:21Z</time><name>PT13650</name></trkpt>
<trkpt lat="53.358474" lon="-1.626096"><ele>419</ele><time>2020-05-21T14:04:22Z</time><name>PT13651</name></trkpt>
<trkpt lat="53.358480" lon="-1.626077"><ele>419</ele><time>2020-05-21T14:04:23Z</time><name>PT13652</name></trkpt>
<trkpt lat="53.358485" lon="-1.626066"><ele>418</ele><time>2020-05-21T14:04:24Z</time><name>PT13653</name></trkpt>
<trkpt lat="53.358492" lon="-1.626048"><ele>418</ele><time>2020-05-21T14:04:26Z</time><name>PT13654</name></trkpt>
<trkpt lat="53.358498" lon="-1.626031"><ele>418</ele><time>2020-05-21T14:04:26Z</time><name>PT13655</name></trkpt>
<trkpt lat="53.358504" lon="-1.626009"><ele>418</ele><time>2020-05-21T14:04:27Z</time><name>PT13656</name></trkpt>
<trkpt lat="53.358503" lon="-1.625984"><ele>418</ele><time>2020-05-21T14:04:28Z</time><name>PT13657</name></trkpt>
<trkpt lat="53.358510" lon="-1.625960"><ele>418</ele><time>2020-05-21T14:04:29Z</time><name>PT13658</name></trkpt>
<trkpt lat="53.358518" lon="-1.625940"><ele>418</ele><time>2020-05-21T14:04:30Z</time><name>PT13659</name></trkpt>
<trkpt lat="53.358521" lon="-1.625925"><ele>417</ele><time>2020-05-21T14:04:31Z</time><name>PT13660</name></trkpt>
<trkpt lat="53.358527" lon="-1.625912"><ele>417</ele><time>2020-05-21T14:04:32Z</time><name>PT13661</name></trkpt>
<trkpt lat="53.358536" lon="-1.625910"><ele>417</ele><time>2020-05-21T14:04:33Z</time><name>PT13662</name></trkpt>
<trkpt lat="53.358543" lon="-1.625900"><ele>417</ele><time>2020-05-21T14:04:34Z</time><name>PT13663</name></trkpt>
<trkpt lat="53.358557" lon="-1.625876"><ele>418</ele><time>2020-05-21T14:04:36Z</time><name>PT13664</name></trkpt>
<trkpt lat="53.358567" lon="-1.625853"><ele>419</ele><time>2020-05-21T14:04:36Z</time><name>PT13665</name></trkpt>
<trkpt lat="53.358575" lon="-1.625830"><ele>419</ele><time>2020-05-21T14:04:37Z</time><name>PT13666</name></trkpt>
<trkpt lat="53.358584" lon="-1.625804"><ele>419</ele><time>2020-05-21T14:04:38Z</time><name>PT13667</name></trkpt>
<trkpt lat="53.358593" lon="-1.625783"><ele>419</ele><time>2020-05-21T14:04:39Z</time><name>PT13668</name></trkpt>
<trkpt lat="53.358600" lon="-1.625760"><ele>419</ele><time>2020-05-21T14:04:40Z</time><name>PT13669</name></trkpt>
<trkpt lat="53.358605" lon="-1.625746"><ele>419</ele><time>2020-05-21T14:04:41Z</time><name>PT13670</name></trkpt>
<trkpt lat="53.358612" lon="-1.625728"><ele>419</ele><time>2020-05-21T14:04:42Z</time><name>PT13671</name></trkpt>
<trkpt lat="53.358619" lon="-1.625706"><ele>419</ele><time>2020-05-21T14:04:43Z</time><name>PT13672</name></trkpt>
<trkpt lat="53.358623" lon="-1.625685"><ele>419</ele><time>2020-05-21T14:04:44Z</time><name>PT13673</name></trkpt>
<trkpt lat="53.358629" lon="-1.625664"><ele>418</ele><time>2020-05-21T14:04:45Z</time><name>PT13674</name></trkpt>
<trkpt lat="53.358636" lon="-1.625647"><ele>419</ele><time>2020-05-21T14:04:46Z</time><name>PT13675</name></trkpt>
<trkpt lat="53.358641" lon="-1.625627"><ele>418</ele><time>2020-05-21T14:04:47Z</time><name>PT13676</name></trkpt>
<trkpt lat="53.358649" lon="-1.625608"><ele>418</ele><time>2020-05-21T14:04:48Z</time><name>PT13677</name></trkpt>
<trkpt lat="53.358657" lon="-1.625589"><ele>418</ele><time>2020-05-21T14:04:49Z</time><name>PT13678</name></trkpt>
<trkpt lat="53.358665" lon="-1.625571"><ele>419</ele><time>2020-05-21T14:04:51Z</time><name>PT13679</name></trkpt>
<trkpt lat="53.358674" lon="-1.625553"><ele>418</ele><time>2020-05-21T14:04:51Z</time><name>PT13680</name></trkpt>
<trkpt lat="53.358682" lon="-1.625534"><ele>418</ele><time>2020-05-21T14:04:52Z</time><name>PT13681</name></trkpt>
<trkpt lat="53.358689" lon="-1.625515"><ele>418</ele><time>2020-05-21T14:04:53Z</time><name>PT13682</name></trkpt>
<trkpt lat="53.358695" lon="-1.625497"><ele>418</ele><time>2020-05-21T14:04:54Z</time><name>PT13683</name></trkpt>
<trkpt lat="53.358699" lon="-1.625476"><ele>418</ele><time>2020-05-21T14:04:55Z</time><name>PT13684</name></trkpt>
<trkpt lat="53.358704" lon="-1.625456"><ele>418</ele><time>2020-05-21T14:04:56Z</time><name>PT13685</name></trkpt>
<trkpt lat="53.358710" lon="-1.625436"><ele>418</ele><time>2020-05-21T14:04:57Z</time><name>PT13686</name></trkpt>
<trkpt lat="53.358717" lon="-1.625425"><ele>418</ele><time>2020-05-21T14:04:58Z</time><name>PT13687</name></trkpt>
<trkpt lat="53.358723" lon="-1.625407"><ele>417</ele><time>2020-05-21T14:04:59Z</time><name>PT13688</name></trkpt>
<trkpt lat="53.358727" lon="-1.625392"><ele>417</ele><time>2020-05-21T14:05:00Z</time><name>PT13689</name></trkpt>
<trkpt lat="53.358732" lon="-1.625356"><ele>417</ele><time>2020-05-21T14:05:01Z</time><name>PT13690</name></trkpt>
<trkpt lat="53.358737" lon="-1.625325"><ele>417</ele><time>2020-05-21T14:05:02Z</time><name>PT13691</name></trkpt>
<trkpt lat="53.358742" lon="-1.625305"><ele>416</ele><time>2020-05-21T14:05:03Z</time><name>PT13692</name></trkpt>
<trkpt lat="53.358751" lon="-1.625280"><ele>417</ele><time>2020-05-21T14:05:04Z</time><name>PT13693</name></trkpt>
<trkpt lat="53.358760" lon="-1.625254"><ele>417</ele><time>2020-05-21T14:05:06Z</time><name>PT13694</name></trkpt>
<trkpt lat="53.358768" lon="-1.625241"><ele>417</ele><time>2020-05-21T14:05:06Z</time><name>PT13695</name></trkpt>
<trkpt lat="53.358773" lon="-1.625231"><ele>416</ele><time>2020-05-21T14:05:07Z</time><name>PT13696</name></trkpt>
<trkpt lat="53.358776" lon="-1.625217"><ele>416</ele><time>2020-05-21T14:05:08Z</time><name>PT13697</name></trkpt>
<trkpt lat="53.358779" lon="-1.625194"><ele>416</ele><time>2020-05-21T14:05:09Z</time><name>PT13698</name></trkpt>
<trkpt lat="53.358785" lon="-1.625171"><ele>416</ele><time>2020-05-21T14:05:10Z</time><name>PT13699</name></trkpt>
<trkpt lat="53.358798" lon="-1.625154"><ele>416</ele><time>2020-05-21T14:05:11Z</time><name>PT13700</name></trkpt>
<trkpt lat="53.358808" lon="-1.625130"><ele>416</ele><time>2020-05-21T14:05:12Z</time><name>PT13701</name></trkpt>
<trkpt lat="53.358816" lon="-1.625109"><ele>417</ele><time>2020-05-21T14:05:13Z</time><name>PT13702</name></trkpt>
<trkpt lat="53.358820" lon="-1.625099"><ele>416</ele><time>2020-05-21T14:05:14Z</time><name>PT13703</name></trkpt>
<trkpt lat="53.358824" lon="-1.625090"><ele>416</ele><time>2020-05-21T14:05:15Z</time><name>PT13704</name></trkpt>
<trkpt lat="53.358828" lon="-1.625071"><ele>415</ele><time>2020-05-21T14:05:16Z</time><name>PT13705</name></trkpt>
<trkpt lat="53.358834" lon="-1.625051"><ele>415</ele><time>2020-05-21T14:05:17Z</time><name>PT13706</name></trkpt>
<trkpt lat="53.358841" lon="-1.625027"><ele>415</ele><time>2020-05-21T14:05:18Z</time><name>PT13707</name></trkpt>
<trkpt lat="53.358849" lon="-1.625004"><ele>415</ele><time>2020-05-21T14:05:19Z</time><name>PT13708</name></trkpt>
<trkpt lat="53.358858" lon="-1.624978"><ele>415</ele><time>2020-05-21T14:05:20Z</time><name>PT13709</name></trkpt>
<trkpt lat="53.358864" lon="-1.624962"><ele>416</ele><time>2020-05-21T14:05:21Z</time><name>PT13710</name></trkpt>
<trkpt lat="53.358867" lon="-1.624951"><ele>415</ele><time>2020-05-21T14:05:22Z</time><name>PT13711</name></trkpt>
<trkpt lat="53.358873" lon="-1.624942"><ele>415</ele><time>2020-05-21T14:05:23Z</time><name>PT13712</name></trkpt>
<trkpt lat="53.358880" lon="-1.624926"><ele>416</ele><time>2020-05-21T14:05:24Z</time><name>PT13713</name></trkpt>
<trkpt lat="53.358886" lon="-1.624905"><ele>416</ele><time>2020-05-21T14:05:25Z</time><name>PT13714</name></trkpt>
<trkpt lat="53.358891" lon="-1.624879"><ele>416</ele><time>2020-05-21T14:05:26Z</time><name>PT13715</name></trkpt>
<trkpt lat="53.358894" lon="-1.624853"><ele>416</ele><time>2020-05-21T14:05:27Z</time><name>PT13716</name></trkpt>
<trkpt lat="53.358896" lon="-1.624839"><ele>416</ele><time>2020-05-21T14:05:28Z</time><name>PT13717</name></trkpt>
<trkpt lat="53.358899" lon="-1.624831"><ele>416</ele><time>2020-05-21T14:05:29Z</time><name>PT13718</name></trkpt>
<trkpt lat="53.358906" lon="-1.624822"><ele>415</ele><time>2020-05-21T14:05:30Z</time><name>PT13719</name></trkpt>
<trkpt lat="53.358911" lon="-1.624808"><ele>415</ele><time>2020-05-21T14:05:31Z</time><name>PT13720</name></trkpt>
<trkpt lat="53.358916" lon="-1.624788"><ele>415</ele><time>2020-05-21T14:05:32Z</time><name>PT13721</name></trkpt>
<trkpt lat="53.358923" lon="-1.624771"><ele>415</ele><time>2020-05-21T14:05:33Z</time><name>PT13722</name></trkpt>
<trkpt lat="53.358927" lon="-1.624757"><ele>415</ele><time>2020-05-21T14:05:34Z</time><name>PT13723</name></trkpt>
<trkpt lat="53.358928" lon="-1.624743"><ele>415</ele><time>2020-05-21T14:05:35Z</time><name>PT13724</name></trkpt>
<trkpt lat="53.358936" lon="-1.624727"><ele>415</ele><time>2020-05-21T14:05:36Z</time><name>PT13725</name></trkpt>
<trkpt lat="53.358944" lon="-1.624711"><ele>415</ele><time>2020-05-21T14:05:37Z</time><name>PT13726</name></trkpt>
<trkpt lat="53.358952" lon="-1.624691"><ele>415</ele><time>2020-05-21T14:05:38Z</time><name>PT13727</name></trkpt>
<trkpt lat="53.358960" lon="-1.624665"><ele>415</ele><time>2020-05-21T14:05:39Z</time><name>PT13728</name></trkpt>
<trkpt lat="53.358964" lon="-1.624639"><ele>416</ele><time>2020-05-21T14:05:40Z</time><name>PT13729</name></trkpt>
<trkpt lat="53.358967" lon="-1.624624"><ele>416</ele><time>2020-05-21T14:05:41Z</time><name>PT13730</name></trkpt>
<trkpt lat="53.358971" lon="-1.624614"><ele>415</ele><time>2020-05-21T14:05:42Z</time><name>PT13731</name></trkpt>
<trkpt lat="53.358974" lon="-1.624601"><ele>414</ele><time>2020-05-21T14:05:43Z</time><name>PT13732</name></trkpt>
<trkpt lat="53.358976" lon="-1.624580"><ele>414</ele><time>2020-05-21T14:05:44Z</time><name>PT13733</name></trkpt>
<trkpt lat="53.358980" lon="-1.624553"><ele>413</ele><time>2020-05-21T14:05:45Z</time><name>PT13734</name></trkpt>
<trkpt lat="53.358985" lon="-1.624523"><ele>414</ele><time>2020-05-21T14:05:46Z</time><name>PT13735</name></trkpt>
<trkpt lat="53.358990" lon="-1.624493"><ele>414</ele><time>2020-05-21T14:05:47Z</time><name>PT13736</name></trkpt>
<trkpt lat="53.358993" lon="-1.624475"><ele>414</ele><time>2020-05-21T14:05:48Z</time><name>PT13737</name></trkpt>
<trkpt lat="53.358993" lon="-1.624463"><ele>413</ele><time>2020-05-21T14:05:49Z</time><name>PT13738</name></trkpt>
<trkpt lat="53.358994" lon="-1.624447"><ele>412</ele><time>2020-05-21T14:05:50Z</time><name>PT13739</name></trkpt>
<trkpt lat="53.358994" lon="-1.624425"><ele>412</ele><time>2020-05-21T14:05:51Z</time><name>PT13740</name></trkpt>
<trkpt lat="53.358997" lon="-1.624400"><ele>411</ele><time>2020-05-21T14:05:52Z</time><name>PT13741</name></trkpt>
<trkpt lat="53.358999" lon="-1.624359"><ele>411</ele><time>2020-05-21T14:05:53Z</time><name>PT13742</name></trkpt>
<trkpt lat="53.359000" lon="-1.624325"><ele>411</ele><time>2020-05-21T14:05:54Z</time><name>PT13743</name></trkpt>
<trkpt lat="53.359003" lon="-1.624309"><ele>411</ele><time>2020-05-21T14:05:55Z</time><name>PT13744</name></trkpt>
<trkpt lat="53.359004" lon="-1.624299"><ele>411</ele><time>2020-05-21T14:05:56Z</time><name>PT13745</name></trkpt>
<trkpt lat="53.359003" lon="-1.624289"><ele>410</ele><time>2020-05-21T14:05:57Z</time><name>PT13746</name></trkpt>
<trkpt lat="53.359009" lon="-1.624278"><ele>410</ele><time>2020-05-21T14:05:58Z</time><name>PT13747</name></trkpt>
<trkpt lat="53.359015" lon="-1.624262"><ele>409</ele><time>2020-05-21T14:05:59Z</time><name>PT13748</name></trkpt>
<trkpt lat="53.359020" lon="-1.624231"><ele>410</ele><time>2020-05-21T14:06:00Z</time><name>PT13749</name></trkpt>
<trkpt lat="53.359023" lon="-1.624200"><ele>411</ele><time>2020-05-21T14:06:01Z</time><name>PT13750</name></trkpt>
<trkpt lat="53.359025" lon="-1.624176"><ele>411</ele><time>2020-05-21T14:06:02Z</time><name>PT13751</name></trkpt>
<trkpt lat="53.359027" lon="-1.624162"><ele>411</ele><time>2020-05-21T14:06:03Z</time><name>PT13752</name></trkpt>
<trkpt lat="53.359029" lon="-1.624147"><ele>411</ele><time>2020-05-21T14:06:04Z</time><name>PT13753</name></trkpt>
<trkpt lat="53.359031" lon="-1.624132"><ele>410</ele><time>2020-05-21T14:06:05Z</time><name>PT13754</name></trkpt>
<trkpt lat="53.359037" lon="-1.624112"><ele>410</ele><time>2020-05-21T14:06:06Z</time><name>PT13755</name></trkpt>
<trkpt lat="53.359043" lon="-1.624090"><ele>409</ele><time>2020-05-21T14:06:07Z</time><name>PT13756</name></trkpt>
<trkpt lat="53.359047" lon="-1.624065"><ele>409</ele><time>2020-05-21T14:06:08Z</time><name>PT13757</name></trkpt>
<trkpt lat="53.359052" lon="-1.624037"><ele>409</ele><time>2020-05-21T14:06:09Z</time><name>PT13758</name></trkpt>
<trkpt lat="53.359054" lon="-1.624020"><ele>409</ele><time>2020-05-21T14:06:10Z</time><name>PT13759</name></trkpt>
<trkpt lat="53.359056" lon="-1.624007"><ele>409</ele><time>2020-05-21T14:06:11Z</time><name>PT13760</name></trkpt>
<trkpt lat="53.359056" lon="-1.623992"><ele>409</ele><time>2020-05-21T14:06:12Z</time><name>PT13761</name></trkpt>
<trkpt lat="53.359059" lon="-1.623967"><ele>408</ele><time>2020-05-21T14:06:13Z</time><name>PT13762</name></trkpt>
<trkpt lat="53.359064" lon="-1.623938"><ele>407</ele><time>2020-05-21T14:06:14Z</time><name>PT13763</name></trkpt>
<trkpt lat="53.359069" lon="-1.623912"><ele>407</ele><time>2020-05-21T14:06:15Z</time><name>PT13764</name></trkpt>
<trkpt lat="53.359074" lon="-1.623884"><ele>407</ele><time>2020-05-21T14:06:16Z</time><name>PT13765</name></trkpt>
<trkpt lat="53.359073" lon="-1.623869"><ele>407</ele><time>2020-05-21T14:06:17Z</time><name>PT13766</name></trkpt>
<trkpt lat="53.359072" lon="-1.623858"><ele>407</ele><time>2020-05-21T14:06:18Z</time><name>PT13767</name></trkpt>
<trkpt lat="53.359073" lon="-1.623841"><ele>407</ele><time>2020-05-21T14:06:19Z</time><name>PT13768</name></trkpt>
<trkpt lat="53.359077" lon="-1.623820"><ele>407</ele><time>2020-05-21T14:06:20Z</time><name>PT13769</name></trkpt>
<trkpt lat="53.359085" lon="-1.623799"><ele>407</ele><time>2020-05-21T14:06:21Z</time><name>PT13770</name></trkpt>
<trkpt lat="53.359092" lon="-1.623772"><ele>407</ele><time>2020-05-21T14:06:22Z</time><name>PT13771</name></trkpt>
<trkpt lat="53.359099" lon="-1.623746"><ele>407</ele><time>2020-05-21T14:06:23Z</time><name>PT13772</name></trkpt>
<trkpt lat="53.359109" lon="-1.623727"><ele>407</ele><time>2020-05-21T14:06:24Z</time><name>PT13773</name></trkpt>
<trkpt lat="53.359114" lon="-1.623712"><ele>407</ele><time>2020-05-21T14:06:25Z</time><name>PT13774</name></trkpt>
<trkpt lat="53.359120" lon="-1.623703"><ele>407</ele><time>2020-05-21T14:06:26Z</time><name>PT13775</name></trkpt>
<trkpt lat="53.359125" lon="-1.623689"><ele>406</ele><time>2020-05-21T14:06:27Z</time><name>PT13776</name></trkpt>
<trkpt lat="53.359134" lon="-1.623672"><ele>406</ele><time>2020-05-21T14:06:28Z</time><name>PT13777</name></trkpt>
<trkpt lat="53.359138" lon="-1.623645"><ele>405</ele><time>2020-05-21T14:06:29Z</time><name>PT13778</name></trkpt>
<trkpt lat="53.359145" lon="-1.623615"><ele>405</ele><time>2020-05-21T14:06:30Z</time><name>PT13779</name></trkpt>
<trkpt lat="53.359152" lon="-1.623589"><ele>405</ele><time>2020-05-21T14:06:31Z</time><name>PT13780</name></trkpt>
<trkpt lat="53.359158" lon="-1.623576"><ele>405</ele><time>2020-05-21T14:06:32Z</time><name>PT13781</name></trkpt>
<trkpt lat="53.359162" lon="-1.623566"><ele>405</ele><time>2020-05-21T14:06:33Z</time><name>PT13782</name></trkpt>
<trkpt lat="53.359168" lon="-1.623558"><ele>405</ele><time>2020-05-21T14:06:34Z</time><name>PT13783</name></trkpt>
<trkpt lat="53.359176" lon="-1.623550"><ele>404</ele><time>2020-05-21T14:06:35Z</time><name>PT13784</name></trkpt>
<trkpt lat="53.359185" lon="-1.623530"><ele>404</ele><time>2020-05-21T14:06:36Z</time><name>PT13785</name></trkpt>
<trkpt lat="53.359194" lon="-1.623515"><ele>404</ele><time>2020-05-21T14:06:37Z</time><name>PT13786</name></trkpt>
<trkpt lat="53.359205" lon="-1.623495"><ele>405</ele><time>2020-05-21T14:06:38Z</time><name>PT13787</name></trkpt>
<trkpt lat="53.359215" lon="-1.623473"><ele>405</ele><time>2020-05-21T14:06:39Z</time><name>PT13788</name></trkpt>
<trkpt lat="53.359222" lon="-1.623454"><ele>405</ele><time>2020-05-21T14:06:40Z</time><name>PT13789</name></trkpt>
<trkpt lat="53.359224" lon="-1.623440"><ele>405</ele><time>2020-05-21T14:06:41Z</time><name>PT13790</name></trkpt>
<trkpt lat="53.359230" lon="-1.623428"><ele>405</ele><time>2020-05-21T14:06:42Z</time><name>PT13791</name></trkpt>
<trkpt lat="53.359234" lon="-1.623407"><ele>405</ele><time>2020-05-21T14:06:43Z</time><name>PT13792</name></trkpt>
<trkpt lat="53.359242" lon="-1.623386"><ele>404</ele><time>2020-05-21T14:06:44Z</time><name>PT13793</name></trkpt>
<trkpt lat="53.359247" lon="-1.623359"><ele>404</ele><time>2020-05-21T14:06:45Z</time><name>PT13794</name></trkpt>
<trkpt lat="53.359252" lon="-1.623330"><ele>404</ele><time>2020-05-21T14:06:46Z</time><name>PT13795</name></trkpt>
<trkpt lat="53.359256" lon="-1.623312"><ele>404</ele><time>2020-05-21T14:06:47Z</time><name>PT13796</name></trkpt>
<trkpt lat="53.359257" lon="-1.623299"><ele>403</ele><time>2020-05-21T14:06:48Z</time><name>PT13797</name></trkpt>
<trkpt lat="53.359262" lon="-1.623277"><ele>404</ele><time>2020-05-21T14:06:49Z</time><name>PT13798</name></trkpt>
<trkpt lat="53.359267" lon="-1.623260"><ele>403</ele><time>2020-05-21T14:06:50Z</time><name>PT13799</name></trkpt>
<trkpt lat="53.359268" lon="-1.623249"><ele>403</ele><time>2020-05-21T14:06:51Z</time><name>PT13800</name></trkpt>
<trkpt lat="53.359269" lon="-1.623248"><ele>404</ele><time>2020-05-21T14:06:52Z</time><name>PT13801</name></trkpt>
<trkpt lat="53.359270" lon="-1.623246"><ele>404</ele><time>2020-05-21T14:06:53Z</time><name>PT13802</name></trkpt>
<trkpt lat="53.359275" lon="-1.623235"><ele>404</ele><time>2020-05-21T14:06:54Z</time><name>PT13803</name></trkpt>
<trkpt lat="53.359279" lon="-1.623214"><ele>404</ele><time>2020-05-21T14:06:55Z</time><name>PT13804</name></trkpt>
<trkpt lat="53.359285" lon="-1.623185"><ele>404</ele><time>2020-05-21T14:06:57Z</time><name>PT13805</name></trkpt>
<trkpt lat="53.359294" lon="-1.623157"><ele>404</ele><time>2020-05-21T14:06:57Z</time><name>PT13806</name></trkpt>
<trkpt lat="53.359301" lon="-1.623139"><ele>404</ele><time>2020-05-21T14:06:58Z</time><name>PT13807</name></trkpt>
<trkpt lat="53.359304" lon="-1.623126"><ele>404</ele><time>2020-05-21T14:06:59Z</time><name>PT13808</name></trkpt>
<trkpt lat="53.359310" lon="-1.623115"><ele>404</ele><time>2020-05-21T14:07:00Z</time><name>PT13809</name></trkpt>
<trkpt lat="53.359317" lon="-1.623098"><ele>404</ele><time>2020-05-21T14:07:01Z</time><name>PT13810</name></trkpt>
<trkpt lat="53.359326" lon="-1.623081"><ele>404</ele><time>2020-05-21T14:07:02Z</time><name>PT13811</name></trkpt>
<trkpt lat="53.359333" lon="-1.623055"><ele>404</ele><time>2020-05-21T14:07:03Z</time><name>PT13812</name></trkpt>
<trkpt lat="53.359344" lon="-1.623032"><ele>404</ele><time>2020-05-21T14:07:04Z</time><name>PT13813</name></trkpt>
<trkpt lat="53.359352" lon="-1.623007"><ele>404</ele><time>2020-05-21T14:07:05Z</time><name>PT13814</name></trkpt>
<trkpt lat="53.359359" lon="-1.622990"><ele>404</ele><time>2020-05-21T14:07:06Z</time><name>PT13815</name></trkpt>
<trkpt lat="53.359359" lon="-1.622982"><ele>404</ele><time>2020-05-21T14:07:07Z</time><name>PT13816</name></trkpt>
<trkpt lat="53.359360" lon="-1.622965"><ele>404</ele><time>2020-05-21T14:07:08Z</time><name>PT13817</name></trkpt>
<trkpt lat="53.359366" lon="-1.622941"><ele>404</ele><time>2020-05-21T14:07:09Z</time><name>PT13818</name></trkpt>
<trkpt lat="53.359373" lon="-1.622922"><ele>404</ele><time>2020-05-21T14:07:10Z</time><name>PT13819</name></trkpt>
<trkpt lat="53.359382" lon="-1.622897"><ele>404</ele><time>2020-05-21T14:07:11Z</time><name>PT13820</name></trkpt>
<trkpt lat="53.359389" lon="-1.622872"><ele>404</ele><time>2020-05-21T14:07:12Z</time><name>PT13821</name></trkpt>
<trkpt lat="53.359395" lon="-1.622853"><ele>404</ele><time>2020-05-21T14:07:13Z</time><name>PT13822</name></trkpt>
<trkpt lat="53.359402" lon="-1.622834"><ele>405</ele><time>2020-05-21T14:07:14Z</time><name>PT13823</name></trkpt>
<trkpt lat="53.359409" lon="-1.622821"><ele>405</ele><time>2020-05-21T14:07:15Z</time><name>PT13824</name></trkpt>
<trkpt lat="53.359416" lon="-1.622803"><ele>405</ele><time>2020-05-21T14:07:16Z</time><name>PT13825</name></trkpt>
<trkpt lat="53.359422" lon="-1.622779"><ele>405</ele><time>2020-05-21T14:07:17Z</time><name>PT13826</name></trkpt>
<trkpt lat="53.359431" lon="-1.622754"><ele>405</ele><time>2020-05-21T14:07:18Z</time><name>PT13827</name></trkpt>
<trkpt lat="53.359439" lon="-1.622727"><ele>405</ele><time>2020-05-21T14:07:19Z</time><name>PT13828</name></trkpt>
<trkpt lat="53.359447" lon="-1.622707"><ele>405</ele><time>2020-05-21T14:07:20Z</time><name>PT13829</name></trkpt>
<trkpt lat="53.359453" lon="-1.622695"><ele>405</ele><time>2020-05-21T14:07:21Z</time><name>PT13830</name></trkpt>
<trkpt lat="53.359460" lon="-1.622694"><ele>405</ele><time>2020-05-21T14:07:22Z</time><name>PT13831</name></trkpt>
<trkpt lat="53.359466" lon="-1.622678"><ele>404</ele><time>2020-05-21T14:07:23Z</time><name>PT13832</name></trkpt>
<trkpt lat="53.359472" lon="-1.622655"><ele>404</ele><time>2020-05-21T14:07:24Z</time><name>PT13833</name></trkpt>
<trkpt lat="53.359478" lon="-1.622626"><ele>404</ele><time>2020-05-21T14:07:25Z</time><name>PT13834</name></trkpt>
<trkpt lat="53.359489" lon="-1.622601"><ele>403</ele><time>2020-05-21T14:07:26Z</time><name>PT13835</name></trkpt>
<trkpt lat="53.359501" lon="-1.622578"><ele>404</ele><time>2020-05-21T14:07:27Z</time><name>PT13836</name></trkpt>
<trkpt lat="53.359508" lon="-1.622564"><ele>404</ele><time>2020-05-21T14:07:28Z</time><name>PT13837</name></trkpt>
<trkpt lat="53.359512" lon="-1.622553"><ele>404</ele><time>2020-05-21T14:07:29Z</time><name>PT13838</name></trkpt>
<trkpt lat="53.359518" lon="-1.622539"><ele>404</ele><time>2020-05-21T14:07:30Z</time><name>PT13839</name></trkpt>
<trkpt lat="53.359524" lon="-1.622524"><ele>403</ele><time>2020-05-21T14:07:31Z</time><name>PT13840</name></trkpt>
<trkpt lat="53.359531" lon="-1.622505"><ele>403</ele><time>2020-05-21T14:07:32Z</time><name>PT13841</name></trkpt>
<trkpt lat="53.359539" lon="-1.622483"><ele>403</ele><time>2020-05-21T14:07:33Z</time><name>PT13842</name></trkpt>
<trkpt lat="53.359549" lon="-1.622458"><ele>403</ele><time>2020-05-21T14:07:34Z</time><name>PT13843</name></trkpt>
<trkpt lat="53.359560" lon="-1.622433"><ele>403</ele><time>2020-05-21T14:07:35Z</time><name>PT13844</name></trkpt>
<trkpt lat="53.359567" lon="-1.622417"><ele>403</ele><time>2020-05-21T14:07:36Z</time><name>PT13845</name></trkpt>
<trkpt lat="53.359575" lon="-1.622407"><ele>405</ele><time>2020-05-21T14:07:37Z</time><name>PT13846</name></trkpt>
<trkpt lat="53.359581" lon="-1.622399"><ele>404</ele><time>2020-05-21T14:07:38Z</time><name>PT13847</name></trkpt>
<trkpt lat="53.359589" lon="-1.622383"><ele>404</ele><time>2020-05-21T14:07:39Z</time><name>PT13848</name></trkpt>
<trkpt lat="53.359596" lon="-1.622361"><ele>404</ele><time>2020-05-21T14:07:40Z</time><name>PT13849</name></trkpt>
<trkpt lat="53.359605" lon="-1.622337"><ele>404</ele><time>2020-05-21T14:07:41Z</time><name>PT13850</name></trkpt>
<trkpt lat="53.359617" lon="-1.622314"><ele>404</ele><time>2020-05-21T14:07:42Z</time><name>PT13851</name></trkpt>
<trkpt lat="53.359628" lon="-1.622297"><ele>404</ele><time>2020-05-21T14:07:43Z</time><name>PT13852</name></trkpt>
<trkpt lat="53.359633" lon="-1.622285"><ele>403</ele><time>2020-05-21T14:07:44Z</time><name>PT13853</name></trkpt>
<trkpt lat="53.359636" lon="-1.622275"><ele>402</ele><time>2020-05-21T14:07:45Z</time><name>PT13854</name></trkpt>
<trkpt lat="53.359645" lon="-1.622265"><ele>402</ele><time>2020-05-21T14:07:46Z</time><name>PT13855</name></trkpt>
<trkpt lat="53.359656" lon="-1.622251"><ele>401</ele><time>2020-05-21T14:07:47Z</time><name>PT13856</name></trkpt>
<trkpt lat="53.359666" lon="-1.622233"><ele>401</ele><time>2020-05-21T14:07:48Z</time><name>PT13857</name></trkpt>
<trkpt lat="53.359677" lon="-1.622210"><ele>401</ele><time>2020-05-21T14:07:49Z</time><name>PT13858</name></trkpt>
<trkpt lat="53.359689" lon="-1.622186"><ele>401</ele><time>2020-05-21T14:07:50Z</time><name>PT13859</name></trkpt>
<trkpt lat="53.359699" lon="-1.622172"><ele>401</ele><time>2020-05-21T14:07:51Z</time><name>PT13860</name></trkpt>
<trkpt lat="53.359704" lon="-1.622162"><ele>401</ele><time>2020-05-21T14:07:52Z</time><name>PT13861</name></trkpt>
<trkpt lat="53.359707" lon="-1.622150"><ele>400</ele><time>2020-05-21T14:07:53Z</time><name>PT13862</name></trkpt>
<trkpt lat="53.359711" lon="-1.622131"><ele>400</ele><time>2020-05-21T14:07:54Z</time><name>PT13863</name></trkpt>
<trkpt lat="53.359717" lon="-1.622107"><ele>400</ele><time>2020-05-21T14:07:55Z</time><name>PT13864</name></trkpt>
<trkpt lat="53.359725" lon="-1.622085"><ele>399</ele><time>2020-05-21T14:07:56Z</time><name>PT13865</name></trkpt>
<trkpt lat="53.359736" lon="-1.622062"><ele>399</ele><time>2020-05-21T14:07:57Z</time><name>PT13866</name></trkpt>
<trkpt lat="53.359743" lon="-1.622031"><ele>399</ele><time>2020-05-21T14:07:58Z</time><name>PT13867</name></trkpt>
<trkpt lat="53.359750" lon="-1.622011"><ele>399</ele><time>2020-05-21T14:07:59Z</time><name>PT13868</name></trkpt>
<trkpt lat="53.359755" lon="-1.621998"><ele>399</ele><time>2020-05-21T14:08:00Z</time><name>PT13869</name></trkpt>
<trkpt lat="53.359759" lon="-1.621987"><ele>399</ele><time>2020-05-21T14:08:01Z</time><name>PT13870</name></trkpt>
<trkpt lat="53.359764" lon="-1.621970"><ele>399</ele><time>2020-05-21T14:08:02Z</time><name>PT13871</name></trkpt>
<trkpt lat="53.359772" lon="-1.621948"><ele>399</ele><time>2020-05-21T14:08:03Z</time><name>PT13872</name></trkpt>
<trkpt lat="53.359781" lon="-1.621926"><ele>399</ele><time>2020-05-21T14:08:04Z</time><name>PT13873</name></trkpt>
<trkpt lat="53.359788" lon="-1.621896"><ele>399</ele><time>2020-05-21T14:08:05Z</time><name>PT13874</name></trkpt>
<trkpt lat="53.359796" lon="-1.621867"><ele>399</ele><time>2020-05-21T14:08:06Z</time><name>PT13875</name></trkpt>
<trkpt lat="53.359803" lon="-1.621845"><ele>399</ele><time>2020-05-21T14:08:07Z</time><name>PT13876</name></trkpt>
<trkpt lat="53.359805" lon="-1.621841"><ele>398</ele><time>2020-05-21T14:08:08Z</time><name>PT13877</name></trkpt>
<trkpt lat="53.359807" lon="-1.621824"><ele>399</ele><time>2020-05-21T14:08:09Z</time><name>PT13878</name></trkpt>
<trkpt lat="53.359813" lon="-1.621803"><ele>399</ele><time>2020-05-21T14:08:10Z</time><name>PT13879</name></trkpt>
<trkpt lat="53.359820" lon="-1.621780"><ele>399</ele><time>2020-05-21T14:08:11Z</time><name>PT13880</name></trkpt>
<trkpt lat="53.359830" lon="-1.621764"><ele>399</ele><time>2020-05-21T14:08:12Z</time><name>PT13881</name></trkpt>
<trkpt lat="53.359840" lon="-1.621744"><ele>399</ele><time>2020-05-21T14:08:13Z</time><name>PT13882</name></trkpt>
<trkpt lat="53.359851" lon="-1.621717"><ele>399</ele><time>2020-05-21T14:08:14Z</time><name>PT13883</name></trkpt>
<trkpt lat="53.359860" lon="-1.621693"><ele>399</ele><time>2020-05-21T14:08:15Z</time><name>PT13884</name></trkpt>
<trkpt lat="53.359865" lon="-1.621677"><ele>399</ele><time>2020-05-21T14:08:16Z</time><name>PT13885</name></trkpt>
<trkpt lat="53.359870" lon="-1.621666"><ele>399</ele><time>2020-05-21T14:08:17Z</time><name>PT13886</name></trkpt>
<trkpt lat="53.359878" lon="-1.621661"><ele>398</ele><time>2020-05-21T14:08:18Z</time><name>PT13887</name></trkpt>
<trkpt lat="53.359887" lon="-1.621653"><ele>398</ele><time>2020-05-21T14:08:19Z</time><name>PT13888</name></trkpt>
<trkpt lat="53.359898" lon="-1.621640"><ele>397</ele><time>2020-05-21T14:08:20Z</time><name>PT13889</name></trkpt>
<trkpt lat="53.359911" lon="-1.621623"><ele>397</ele><time>2020-05-21T14:08:21Z</time><name>PT13890</name></trkpt>
<trkpt lat="53.359926" lon="-1.621602"><ele>397</ele><time>2020-05-21T14:08:22Z</time><name>PT13891</name></trkpt>
<trkpt lat="53.359939" lon="-1.621584"><ele>397</ele><time>2020-05-21T14:08:23Z</time><name>PT13892</name></trkpt>
<trkpt lat="53.359945" lon="-1.621570"><ele>397</ele><time>2020-05-21T14:08:24Z</time><name>PT13893</name></trkpt>
<trkpt lat="53.359952" lon="-1.621555"><ele>397</ele><time>2020-05-21T14:08:25Z</time><name>PT13894</name></trkpt>
<trkpt lat="53.359960" lon="-1.621537"><ele>397</ele><time>2020-05-21T14:08:26Z</time><name>PT13895</name></trkpt>
<trkpt lat="53.359971" lon="-1.621520"><ele>398</ele><time>2020-05-21T14:08:27Z</time><name>PT13896</name></trkpt>
<trkpt lat="53.359981" lon="-1.621500"><ele>398</ele><time>2020-05-21T14:08:28Z</time><name>PT13897</name></trkpt>
<trkpt lat="53.359993" lon="-1.621476"><ele>398</ele><time>2020-05-21T14:08:29Z</time><name>PT13898</name></trkpt>
<trkpt lat="53.360007" lon="-1.621454"><ele>398</ele><time>2020-05-21T14:08:30Z</time><name>PT13899</name></trkpt>
<trkpt lat="53.360016" lon="-1.621434"><ele>398</ele><time>2020-05-21T14:08:31Z</time><name>PT13900</name></trkpt>
<trkpt lat="53.360022" lon="-1.621424"><ele>398</ele><time>2020-05-21T14:08:32Z</time><name>PT13901</name></trkpt>
<trkpt lat="53.360030" lon="-1.621416"><ele>397</ele><time>2020-05-21T14:08:33Z</time><name>PT13902</name></trkpt>
<trkpt lat="53.360037" lon="-1.621399"><ele>397</ele><time>2020-05-21T14:08:34Z</time><name>PT13903</name></trkpt>
<trkpt lat="53.360048" lon="-1.621388"><ele>397</ele><time>2020-05-21T14:08:35Z</time><name>PT13904</name></trkpt>
<trkpt lat="53.360059" lon="-1.621370"><ele>397</ele><time>2020-05-21T14:08:36Z</time><name>PT13905</name></trkpt>
<trkpt lat="53.360072" lon="-1.621348"><ele>397</ele><time>2020-05-21T14:08:37Z</time><name>PT13906</name></trkpt>
<trkpt lat="53.360082" lon="-1.621329"><ele>397</ele><time>2020-05-21T14:08:38Z</time><name>PT13907</name></trkpt>
<trkpt lat="53.360088" lon="-1.621317"><ele>397</ele><time>2020-05-21T14:08:39Z</time><name>PT13908</name></trkpt>
<trkpt lat="53.360096" lon="-1.621310"><ele>396</ele><time>2020-05-21T14:08:40Z</time><name>PT13909</name></trkpt>
<trkpt lat="53.360107" lon="-1.621299"><ele>396</ele><time>2020-05-21T14:08:41Z</time><name>PT13910</name></trkpt>
<trkpt lat="53.360117" lon="-1.621284"><ele>395</ele><time>2020-05-21T14:08:42Z</time><name>PT13911</name></trkpt>
<trkpt lat="53.360128" lon="-1.621262"><ele>395</ele><time>2020-05-21T14:08:43Z</time><name>PT13912</name></trkpt>
<trkpt lat="53.360139" lon="-1.621243"><ele>395</ele><time>2020-05-21T14:08:44Z</time><name>PT13913</name></trkpt>
<trkpt lat="53.360149" lon="-1.621234"><ele>394</ele><time>2020-05-21T14:08:45Z</time><name>PT13914</name></trkpt>
<trkpt lat="53.360156" lon="-1.621223"><ele>395</ele><time>2020-05-21T14:08:46Z</time><name>PT13915</name></trkpt>
<trkpt lat="53.360166" lon="-1.621208"><ele>395</ele><time>2020-05-21T14:08:47Z</time><name>PT13916</name></trkpt>
<trkpt lat="53.360177" lon="-1.621195"><ele>395</ele><time>2020-05-21T14:08:48Z</time><name>PT13917</name></trkpt>
<trkpt lat="53.360190" lon="-1.621179"><ele>395</ele><time>2020-05-21T14:08:49Z</time><name>PT13918</name></trkpt>
<trkpt lat="53.360204" lon="-1.621159"><ele>395</ele><time>2020-05-21T14:08:50Z</time><name>PT13919</name></trkpt>
<trkpt lat="53.360218" lon="-1.621139"><ele>395</ele><time>2020-05-21T14:08:51Z</time><name>PT13920</name></trkpt>
<trkpt lat="53.360228" lon="-1.621129"><ele>395</ele><time>2020-05-21T14:08:52Z</time><name>PT13921</name></trkpt>
<trkpt lat="53.360233" lon="-1.621119"><ele>395</ele><time>2020-05-21T14:08:53Z</time><name>PT13922</name></trkpt>
<trkpt lat="53.360237" lon="-1.621103"><ele>395</ele><time>2020-05-21T14:08:54Z</time><name>PT13923</name></trkpt>
<trkpt lat="53.360243" lon="-1.621090"><ele>395</ele><time>2020-05-21T14:08:55Z</time><name>PT13924</name></trkpt>
<trkpt lat="53.360251" lon="-1.621075"><ele>395</ele><time>2020-05-21T14:08:56Z</time><name>PT13925</name></trkpt>
<trkpt lat="53.360263" lon="-1.621056"><ele>395</ele><time>2020-05-21T14:08:57Z</time><name>PT13926</name></trkpt>
<trkpt lat="53.360276" lon="-1.621033"><ele>395</ele><time>2020-05-21T14:08:58Z</time><name>PT13927</name></trkpt>
<trkpt lat="53.360285" lon="-1.621006"><ele>395</ele><time>2020-05-21T14:08:59Z</time><name>PT13928</name></trkpt>
<trkpt lat="53.360288" lon="-1.620994"><ele>395</ele><time>2020-05-21T14:09:00Z</time><name>PT13929</name></trkpt>
<trkpt lat="53.360294" lon="-1.620985"><ele>395</ele><time>2020-05-21T14:09:01Z</time><name>PT13930</name></trkpt>
<trkpt lat="53.360302" lon="-1.620970"><ele>394</ele><time>2020-05-21T14:09:02Z</time><name>PT13931</name></trkpt>
<trkpt lat="53.360311" lon="-1.620953"><ele>394</ele><time>2020-05-21T14:09:03Z</time><name>PT13932</name></trkpt>
<trkpt lat="53.360321" lon="-1.620930"><ele>394</ele><time>2020-05-21T14:09:04Z</time><name>PT13933</name></trkpt>
<trkpt lat="53.360335" lon="-1.620909"><ele>395</ele><time>2020-05-21T14:09:05Z</time><name>PT13934</name></trkpt>
<trkpt lat="53.360344" lon="-1.620892"><ele>395</ele><time>2020-05-21T14:09:06Z</time><name>PT13935</name></trkpt>
<trkpt lat="53.360349" lon="-1.620884"><ele>395</ele><time>2020-05-21T14:09:07Z</time><name>PT13936</name></trkpt>
<trkpt lat="53.360354" lon="-1.620871"><ele>394</ele><time>2020-05-21T14:09:08Z</time><name>PT13937</name></trkpt>
<trkpt lat="53.360362" lon="-1.620859"><ele>394</ele><time>2020-05-21T14:09:09Z</time><name>PT13938</name></trkpt>
<trkpt lat="53.360374" lon="-1.620845"><ele>394</ele><time>2020-05-21T14:09:10Z</time><name>PT13939</name></trkpt>
<trkpt lat="53.360384" lon="-1.620823"><ele>394</ele><time>2020-05-21T14:09:11Z</time><name>PT13940</name></trkpt>
<trkpt lat="53.360395" lon="-1.620799"><ele>394</ele><time>2020-05-21T14:09:12Z</time><name>PT13941</name></trkpt>
<trkpt lat="53.360404" lon="-1.620779"><ele>395</ele><time>2020-05-21T14:09:13Z</time><name>PT13942</name></trkpt>
<trkpt lat="53.360412" lon="-1.620768"><ele>395</ele><time>2020-05-21T14:09:15Z</time><name>PT13943</name></trkpt>
<trkpt lat="53.360417" lon="-1.620754"><ele>395</ele><time>2020-05-21T14:09:15Z</time><name>PT13944</name></trkpt>
<trkpt lat="53.360421" lon="-1.620738"><ele>395</ele><time>2020-05-21T14:09:16Z</time><name>PT13945</name></trkpt>
<trkpt lat="53.360430" lon="-1.620721"><ele>395</ele><time>2020-05-21T14:09:17Z</time><name>PT13946</name></trkpt>
<trkpt lat="53.360438" lon="-1.620702"><ele>395</ele><time>2020-05-21T14:09:18Z</time><name>PT13947</name></trkpt>
<trkpt lat="53.360447" lon="-1.620680"><ele>395</ele><time>2020-05-21T14:09:19Z</time><name>PT13948</name></trkpt>
<trkpt lat="53.360456" lon="-1.620659"><ele>395</ele><time>2020-05-21T14:09:20Z</time><name>PT13949</name></trkpt>
<trkpt lat="53.360461" lon="-1.620637"><ele>395</ele><time>2020-05-21T14:09:21Z</time><name>PT13950</name></trkpt>
<trkpt lat="53.360465" lon="-1.620623"><ele>395</ele><time>2020-05-21T14:09:22Z</time><name>PT13951</name></trkpt>
<trkpt lat="53.360469" lon="-1.620605"><ele>396</ele><time>2020-05-21T14:09:23Z</time><name>PT13952</name></trkpt>
<trkpt lat="53.360477" lon="-1.620580"><ele>396</ele><time>2020-05-21T14:09:24Z</time><name>PT13953</name></trkpt>
<trkpt lat="53.360483" lon="-1.620556"><ele>395</ele><time>2020-05-21T14:09:26Z</time><name>PT13954</name></trkpt>
<trkpt lat="53.360489" lon="-1.620532"><ele>395</ele><time>2020-05-21T14:09:26Z</time><name>PT13955</name></trkpt>
<trkpt lat="53.360498" lon="-1.620504"><ele>395</ele><time>2020-05-21T14:09:27Z</time><name>PT13956</name></trkpt>
<trkpt lat="53.360505" lon="-1.620475"><ele>395</ele><time>2020-05-21T14:09:28Z</time><name>PT13957</name></trkpt>
<trkpt lat="53.360510" lon="-1.620462"><ele>395</ele><time>2020-05-21T14:09:29Z</time><name>PT13958</name></trkpt>
<trkpt lat="53.360508" lon="-1.620448"><ele>394</ele><time>2020-05-21T14:09:30Z</time><name>PT13959</name></trkpt>
<trkpt lat="53.360509" lon="-1.620432"><ele>393</ele><time>2020-05-21T14:09:31Z</time><name>PT13960</name></trkpt>
<trkpt lat="53.360518" lon="-1.620416"><ele>393</ele><time>2020-05-21T14:09:32Z</time><name>PT13961</name></trkpt>
<trkpt lat="53.360525" lon="-1.620398"><ele>392</ele><time>2020-05-21T14:09:33Z</time><name>PT13962</name></trkpt>
<trkpt lat="53.360531" lon="-1.620374"><ele>392</ele><time>2020-05-21T14:09:34Z</time><name>PT13963</name></trkpt>
<trkpt lat="53.360537" lon="-1.620349"><ele>391</ele><time>2020-05-21T14:09:35Z</time><name>PT13964</name></trkpt>
<trkpt lat="53.360545" lon="-1.620330"><ele>390</ele><time>2020-05-21T14:09:36Z</time><name>PT13965</name></trkpt>
<trkpt lat="53.360551" lon="-1.620319"><ele>390</ele><time>2020-05-21T14:09:37Z</time><name>PT13966</name></trkpt>
<trkpt lat="53.360559" lon="-1.620312"><ele>391</ele><time>2020-05-21T14:09:38Z</time><name>PT13967</name></trkpt>
<trkpt lat="53.360566" lon="-1.620297"><ele>390</ele><time>2020-05-21T14:09:39Z</time><name>PT13968</name></trkpt>
<trkpt lat="53.360574" lon="-1.620281"><ele>390</ele><time>2020-05-21T14:09:40Z</time><name>PT13969</name></trkpt>
<trkpt lat="53.360582" lon="-1.620262"><ele>390</ele><time>2020-05-21T14:09:41Z</time><name>PT13970</name></trkpt>
<trkpt lat="53.360591" lon="-1.620237"><ele>390</ele><time>2020-05-21T14:09:42Z</time><name>PT13971</name></trkpt>
<trkpt lat="53.360598" lon="-1.620216"><ele>390</ele><time>2020-05-21T14:09:43Z</time><name>PT13972</name></trkpt>
<trkpt lat="53.360606" lon="-1.620203"><ele>390</ele><time>2020-05-21T14:09:44Z</time><name>PT13973</name></trkpt>
<trkpt lat="53.360608" lon="-1.620199"><ele>390</ele><time>2020-05-21T14:09:45Z</time><name>PT13974</name></trkpt>
<trkpt lat="53.360605" lon="-1.620194"><ele>391</ele><time>2020-05-21T14:09:46Z</time><name>PT13975</name></trkpt>
<trkpt lat="53.360603" lon="-1.620192"><ele>391</ele><time>2020-05-21T14:09:47Z</time><name>PT13976</name></trkpt>
<trkpt lat="53.360603" lon="-1.620192"><ele>391</ele><time>2020-05-21T14:09:48Z</time><name>PT13977</name></trkpt>
<trkpt lat="53.360608" lon="-1.620184"><ele>391</ele><time>2020-05-21T14:09:49Z</time><name>PT13978</name></trkpt>
<trkpt lat="53.360615" lon="-1.620166"><ele>390</ele><time>2020-05-21T14:09:50Z</time><name>PT13979</name></trkpt>
<trkpt lat="53.360622" lon="-1.620140"><ele>391</ele><time>2020-05-21T14:09:51Z</time><name>PT13980</name></trkpt>
<trkpt lat="53.360626" lon="-1.620110"><ele>390</ele><time>2020-05-21T14:09:53Z</time><name>PT13981</name></trkpt>
<trkpt lat="53.360631" lon="-1.620086"><ele>390</ele><time>2020-05-21T14:09:53Z</time><name>PT13982</name></trkpt>
<trkpt lat="53.360635" lon="-1.620078"><ele>390</ele><time>2020-05-21T14:09:54Z</time><name>PT13983</name></trkpt>
<trkpt lat="53.360637" lon="-1.620067"><ele>390</ele><time>2020-05-21T14:09:55Z</time><name>PT13984</name></trkpt>
<trkpt lat="53.360643" lon="-1.620057"><ele>389</ele><time>2020-05-21T14:09:56Z</time><name>PT13985</name></trkpt>
<trkpt lat="53.360650" lon="-1.620037"><ele>390</ele><time>2020-05-21T14:09:57Z</time><name>PT13986</name></trkpt>
<trkpt lat="53.360657" lon="-1.620019"><ele>389</ele><time>2020-05-21T14:09:58Z</time><name>PT13987</name></trkpt>
<trkpt lat="53.360665" lon="-1.619996"><ele>389</ele><time>2020-05-21T14:09:59Z</time><name>PT13988</name></trkpt>
<trkpt lat="53.360674" lon="-1.619969"><ele>389</ele><time>2020-05-21T14:10:00Z</time><name>PT13989</name></trkpt>
<trkpt lat="53.360679" lon="-1.619949"><ele>387</ele><time>2020-05-21T14:10:01Z</time><name>PT13990</name></trkpt>
<trkpt lat="53.360682" lon="-1.619933"><ele>387</ele><time>2020-05-21T14:10:03Z</time><name>PT13991</name></trkpt>
<trkpt lat="53.360689" lon="-1.619924"><ele>387</ele><time>2020-05-21T14:10:03Z</time><name>PT13992</name></trkpt>
<trkpt lat="53.360695" lon="-1.619906"><ele>387</ele><time>2020-05-21T14:10:04Z</time><name>PT13993</name></trkpt>
<trkpt lat="53.360702" lon="-1.619884"><ele>387</ele><time>2020-05-21T14:10:05Z</time><name>PT13994</name></trkpt>
<trkpt lat="53.360708" lon="-1.619859"><ele>387</ele><time>2020-05-21T14:10:06Z</time><name>PT13995</name></trkpt>
<trkpt lat="53.360715" lon="-1.619832"><ele>388</ele><time>2020-05-21T14:10:07Z</time><name>PT13996</name></trkpt>
<trkpt lat="53.360723" lon="-1.619807"><ele>387</ele><time>2020-05-21T14:10:08Z</time><name>PT13997</name></trkpt>
<trkpt lat="53.360731" lon="-1.619782"><ele>388</ele><time>2020-05-21T14:10:09Z</time><name>PT13998</name></trkpt>
<trkpt lat="53.360731" lon="-1.619773"><ele>387</ele><time>2020-05-21T14:10:10Z</time><name>PT13999</name></trkpt>
<trkpt lat="53.360734" lon="-1.619760"><ele>387</ele><time>2020-05-21T14:10:11Z</time><name>PT14000</name></trkpt>
<trkpt lat="53.360740" lon="-1.619737"><ele>387</ele><time>2020-05-21T14:10:12Z</time><name>PT14001</name></trkpt>
<trkpt lat="53.360748" lon="-1.619715"><ele>387</ele><time>2020-05-21T14:10:14Z</time><name>PT14002</name></trkpt>
<trkpt lat="53.360754" lon="-1.619695"><ele>387</ele><time>2020-05-21T14:10:14Z</time><name>PT14003</name></trkpt>
<trkpt lat="53.360763" lon="-1.619672"><ele>387</ele><time>2020-05-21T14:10:15Z</time><name>PT14004</name></trkpt>
<trkpt lat="53.360772" lon="-1.619645"><ele>388</ele><time>2020-05-21T14:10:16Z</time><name>PT14005</name></trkpt>
<trkpt lat="53.360778" lon="-1.619632"><ele>388</ele><time>2020-05-21T14:10:18Z</time><name>PT14006</name></trkpt>
<trkpt lat="53.360784" lon="-1.619622"><ele>388</ele><time>2020-05-21T14:10:19Z</time><name>PT14007</name></trkpt>
<trkpt lat="53.360787" lon="-1.619608"><ele>387</ele><time>2020-05-21T14:10:19Z</time><name>PT14008</name></trkpt>
<trkpt lat="53.360796" lon="-1.619590"><ele>387</ele><time>2020-05-21T14:10:21Z</time><name>PT14009</name></trkpt>
<trkpt lat="53.360805" lon="-1.619568"><ele>387</ele><time>2020-05-21T14:10:21Z</time><name>PT14010</name></trkpt>
<trkpt lat="53.360813" lon="-1.619544"><ele>387</ele><time>2020-05-21T14:10:22Z</time><name>PT14011</name></trkpt>
<trkpt lat="53.360823" lon="-1.619521"><ele>387</ele><time>2020-05-21T14:10:23Z</time><name>PT14012</name></trkpt>
<trkpt lat="53.360830" lon="-1.619504"><ele>387</ele><time>2020-05-21T14:10:24Z</time><name>PT14013</name></trkpt>
<trkpt lat="53.360838" lon="-1.619495"><ele>387</ele><time>2020-05-21T14:10:25Z</time><name>PT14014</name></trkpt>
<trkpt lat="53.360844" lon="-1.619480"><ele>387</ele><time>2020-05-21T14:10:26Z</time><name>PT14015</name></trkpt>
<trkpt lat="53.360849" lon="-1.619459"><ele>387</ele><time>2020-05-21T14:10:27Z</time><name>PT14016</name></trkpt>
<trkpt lat="53.360854" lon="-1.619439"><ele>387</ele><time>2020-05-21T14:10:28Z</time><name>PT14017</name></trkpt>
<trkpt lat="53.360860" lon="-1.619414"><ele>387</ele><time>2020-05-21T14:10:29Z</time><name>PT14018</name></trkpt>
<trkpt lat="53.360870" lon="-1.619390"><ele>387</ele><time>2020-05-21T14:10:30Z</time><name>PT14019</name></trkpt>
<trkpt lat="53.360875" lon="-1.619377"><ele>386</ele><time>2020-05-21T14:10:31Z</time><name>PT14020</name></trkpt>
<trkpt lat="53.360881" lon="-1.619370"><ele>386</ele><time>2020-05-21T14:10:32Z</time><name>PT14021</name></trkpt>
<trkpt lat="53.360890" lon="-1.619364"><ele>386</ele><time>2020-05-21T14:10:33Z</time><name>PT14022</name></trkpt>
<trkpt lat="53.360899" lon="-1.619345"><ele>386</ele><time>2020-05-21T14:10:34Z</time><name>PT14023</name></trkpt>
<trkpt lat="53.360909" lon="-1.619324"><ele>386</ele><time>2020-05-21T14:10:35Z</time><name>PT14024</name></trkpt>
<trkpt lat="53.360922" lon="-1.619301"><ele>386</ele><time>2020-05-21T14:10:36Z</time><name>PT14025</name></trkpt>
<trkpt lat="53.360935" lon="-1.619281"><ele>386</ele><time>2020-05-21T14:10:37Z</time><name>PT14026</name></trkpt>
<trkpt lat="53.360942" lon="-1.619271"><ele>386</ele><time>2020-05-21T14:10:38Z</time><name>PT14027</name></trkpt>
<trkpt lat="53.360944" lon="-1.619257"><ele>386</ele><time>2020-05-21T14:10:39Z</time><name>PT14028</name></trkpt>
<trkpt lat="53.360957" lon="-1.619269"><ele>385</ele><time>2020-05-21T14:10:40Z</time><name>PT14029</name></trkpt>
<trkpt lat="53.360972" lon="-1.619267"><ele>385</ele><time>2020-05-21T14:10:41Z</time><name>PT14030</name></trkpt>
<trkpt lat="53.360983" lon="-1.619252"><ele>384</ele><time>2020-05-21T14:10:42Z</time><name>PT14031</name></trkpt>
<trkpt lat="53.360996" lon="-1.619228"><ele>385</ele><time>2020-05-21T14:10:43Z</time><name>PT14032</name></trkpt>
<trkpt lat="53.361005" lon="-1.619214"><ele>385</ele><time>2020-05-21T14:10:44Z</time><name>PT14033</name></trkpt>
<trkpt lat="53.361012" lon="-1.619206"><ele>385</ele><time>2020-05-21T14:10:45Z</time><name>PT14034</name></trkpt>
<trkpt lat="53.361024" lon="-1.619206"><ele>385</ele><time>2020-05-21T14:10:46Z</time><name>PT14035</name></trkpt>
<trkpt lat="53.361034" lon="-1.619196"><ele>384</ele><time>2020-05-21T14:10:47Z</time><name>PT14036</name></trkpt>
<trkpt lat="53.361045" lon="-1.619183"><ele>384</ele><time>2020-05-21T14:10:48Z</time><name>PT14037</name></trkpt>
<trkpt lat="53.361060" lon="-1.619171"><ele>384</ele><time>2020-05-21T14:10:49Z</time><name>PT14038</name></trkpt>
<trkpt lat="53.361074" lon="-1.619153"><ele>384</ele><time>2020-05-21T14:10:50Z</time><name>PT14039</name></trkpt>
<trkpt lat="53.361084" lon="-1.619139"><ele>384</ele><time>2020-05-21T14:10:51Z</time><name>PT14040</name></trkpt>
<trkpt lat="53.361088" lon="-1.619129"><ele>383</ele><time>2020-05-21T14:10:52Z</time><name>PT14041</name></trkpt>
<trkpt lat="53.361096" lon="-1.619123"><ele>383</ele><time>2020-05-21T14:10:53Z</time><name>PT14042</name></trkpt>
<trkpt lat="53.361105" lon="-1.619118"><ele>382</ele><time>2020-05-21T14:10:54Z</time><name>PT14043</name></trkpt>
<trkpt lat="53.361119" lon="-1.619112"><ele>382</ele><time>2020-05-21T14:10:55Z</time><name>PT14044</name></trkpt>
<trkpt lat="53.361134" lon="-1.619099"><ele>383</ele><time>2020-05-21T14:10:56Z</time><name>PT14045</name></trkpt>
<trkpt lat="53.361146" lon="-1.619084"><ele>383</ele><time>2020-05-21T14:10:57Z</time><name>PT14046</name></trkpt>
<trkpt lat="53.361155" lon="-1.619072"><ele>382</ele><time>2020-05-21T14:10:58Z</time><name>PT14047</name></trkpt>
<trkpt lat="53.361160" lon="-1.619058"><ele>383</ele><time>2020-05-21T14:10:59Z</time><name>PT14048</name></trkpt>
<trkpt lat="53.361169" lon="-1.619042"><ele>383</ele><time>2020-05-21T14:11:00Z</time><name>PT14049</name></trkpt>
<trkpt lat="53.361178" lon="-1.619032"><ele>382</ele><time>2020-05-21T14:11:01Z</time><name>PT14050</name></trkpt>
<trkpt lat="53.361189" lon="-1.619020"><ele>382</ele><time>2020-05-21T14:11:02Z</time><name>PT14051</name></trkpt>
<trkpt lat="53.361205" lon="-1.619012"><ele>383</ele><time>2020-05-21T14:11:03Z</time><name>PT14052</name></trkpt>
<trkpt lat="53.361221" lon="-1.618998"><ele>383</ele><time>2020-05-21T14:11:04Z</time><name>PT14053</name></trkpt>
<trkpt lat="53.361234" lon="-1.618986"><ele>383</ele><time>2020-05-21T14:11:05Z</time><name>PT14054</name></trkpt>
<trkpt lat="53.361240" lon="-1.618976"><ele>383</ele><time>2020-05-21T14:11:06Z</time><name>PT14055</name></trkpt>
<trkpt lat="53.361246" lon="-1.618969"><ele>382</ele><time>2020-05-21T14:11:07Z</time><name>PT14056</name></trkpt>
<trkpt lat="53.361256" lon="-1.618958"><ele>382</ele><time>2020-05-21T14:11:08Z</time><name>PT14057</name></trkpt>
<trkpt lat="53.361270" lon="-1.618949"><ele>381</ele><time>2020-05-21T14:11:09Z</time><name>PT14058</name></trkpt>
<trkpt lat="53.361286" lon="-1.618935"><ele>381</ele><time>2020-05-21T14:11:10Z</time><name>PT14059</name></trkpt>
<trkpt lat="53.361303" lon="-1.618920"><ele>381</ele><time>2020-05-21T14:11:11Z</time><name>PT14060</name></trkpt>
<trkpt lat="53.361316" lon="-1.618910"><ele>381</ele><time>2020-05-21T14:11:12Z</time><name>PT14061</name></trkpt>
<trkpt lat="53.361325" lon="-1.618902"><ele>381</ele><time>2020-05-21T14:11:13Z</time><name>PT14062</name></trkpt>
<trkpt lat="53.361332" lon="-1.618887"><ele>381</ele><time>2020-05-21T14:11:14Z</time><name>PT14063</name></trkpt>
<trkpt lat="53.361342" lon="-1.618872"><ele>381</ele><time>2020-05-21T14:11:15Z</time><name>PT14064</name></trkpt>
<trkpt lat="53.361351" lon="-1.618849"><ele>381</ele><time>2020-05-21T14:11:16Z</time><name>PT14065</name></trkpt>
<trkpt lat="53.361362" lon="-1.618827"><ele>382</ele><time>2020-05-21T14:11:17Z</time><name>PT14066</name></trkpt>
<trkpt lat="53.361374" lon="-1.618812"><ele>382</ele><time>2020-05-21T14:11:18Z</time><name>PT14067</name></trkpt>
<trkpt lat="53.361384" lon="-1.618799"><ele>382</ele><time>2020-05-21T14:11:19Z</time><name>PT14068</name></trkpt>
<trkpt lat="53.361384" lon="-1.618789"><ele>381</ele><time>2020-05-21T14:11:20Z</time><name>PT14069</name></trkpt>
<trkpt lat="53.361386" lon="-1.618781"><ele>381</ele><time>2020-05-21T14:11:21Z</time><name>PT14070</name></trkpt>
<trkpt lat="53.361393" lon="-1.618775"><ele>381</ele><time>2020-05-21T14:11:22Z</time><name>PT14071</name></trkpt>
<trkpt lat="53.361401" lon="-1.618762"><ele>382</ele><time>2020-05-21T14:11:23Z</time><name>PT14072</name></trkpt>
<trkpt lat="53.361409" lon="-1.618752"><ele>382</ele><time>2020-05-21T14:11:24Z</time><name>PT14073</name></trkpt>
<trkpt lat="53.361417" lon="-1.618745"><ele>381</ele><time>2020-05-21T14:11:25Z</time><name>PT14074</name></trkpt>
<trkpt lat="53.361421" lon="-1.618731"><ele>381</ele><time>2020-05-21T14:11:26Z</time><name>PT14075</name></trkpt>
<trkpt lat="53.361423" lon="-1.618732"><ele>381</ele><time>2020-05-21T14:11:27Z</time><name>PT14076</name></trkpt>
<trkpt lat="53.361420" lon="-1.618735"><ele>381</ele><time>2020-05-21T14:11:28Z</time><name>PT14077</name></trkpt>
<trkpt lat="53.361414" lon="-1.618737"><ele>381</ele><time>2020-05-21T14:11:29Z</time><name>PT14078</name></trkpt>
<trkpt lat="53.361410" lon="-1.618739"><ele>381</ele><time>2020-05-21T14:11:30Z</time><name>PT14079</name></trkpt>
<trkpt lat="53.361414" lon="-1.618738"><ele>381</ele><time>2020-05-21T14:11:31Z</time><name>PT14080</name></trkpt>
<trkpt lat="53.361422" lon="-1.618738"><ele>382</ele><time>2020-05-21T14:11:32Z</time><name>PT14081</name></trkpt>
<trkpt lat="53.361434" lon="-1.618737"><ele>381</ele><time>2020-05-21T14:11:33Z</time><name>PT14082</name></trkpt>
<trkpt lat="53.361445" lon="-1.618738"><ele>381</ele><time>2020-05-21T14:11:34Z</time><name>PT14083</name></trkpt>
<trkpt lat="53.361448" lon="-1.618742"><ele>381</ele><time>2020-05-21T14:11:36Z</time><name>PT14084</name></trkpt>
<trkpt lat="53.361447" lon="-1.618738"><ele>381</ele><time>2020-05-21T14:11:36Z</time><name>PT14085</name></trkpt>
<trkpt lat="53.361446" lon="-1.618730"><ele>381</ele><time>2020-05-21T14:11:37Z</time><name>PT14086</name></trkpt>
<trkpt lat="53.361444" lon="-1.618728"><ele>381</ele><time>2020-05-21T14:11:38Z</time><name>PT14087</name></trkpt>
<trkpt lat="53.361445" lon="-1.618729"><ele>382</ele><time>2020-05-21T14:11:39Z</time><name>PT14088</name></trkpt>
<trkpt lat="53.361451" lon="-1.618735"><ele>381</ele><time>2020-05-21T14:11:40Z</time><name>PT14089</name></trkpt>
<trkpt lat="53.361450" lon="-1.618731"><ele>381</ele><time>2020-05-21T14:11:41Z</time><name>PT14090</name></trkpt>
<trkpt lat="53.361454" lon="-1.618730"><ele>381</ele><time>2020-05-21T14:11:49Z</time><name>PT14091</name></trkpt>
<trkpt lat="53.361457" lon="-1.618729"><ele>381</ele><time>2020-05-21T14:11:50Z</time><name>PT14092</name></trkpt>
<trkpt lat="53.361459" lon="-1.618728"><ele>381</ele><time>2020-05-21T14:11:52Z</time><name>PT14093</name></trkpt>
<trkpt lat="53.361468" lon="-1.618726"><ele>382</ele><time>2020-05-21T14:12:06Z</time><name>PT14094</name></trkpt>
<trkpt lat="53.361469" lon="-1.618717"><ele>382</ele><time>2020-05-21T14:12:07Z</time><name>PT14095</name></trkpt>
<trkpt lat="53.361473" lon="-1.618712"><ele>382</ele><time>2020-05-21T14:12:08Z</time><name>PT14096</name></trkpt>
<trkpt lat="53.361481" lon="-1.618707"><ele>382</ele><time>2020-05-21T14:12:09Z</time><name>PT14097</name></trkpt>
<trkpt lat="53.361491" lon="-1.618698"><ele>382</ele><time>2020-05-21T14:12:10Z</time><name>PT14098</name></trkpt>
<trkpt lat="53.361500" lon="-1.618687"><ele>381</ele><time>2020-05-21T14:12:11Z</time><name>PT14099</name></trkpt>
<trkpt lat="53.361508" lon="-1.618680"><ele>381</ele><time>2020-05-21T14:12:12Z</time><name>PT14100</name></trkpt>
<trkpt lat="53.361519" lon="-1.618668"><ele>381</ele><time>2020-05-21T14:12:13Z</time><name>PT14101</name></trkpt>
<trkpt lat="53.361527" lon="-1.618667"><ele>380</ele><time>2020-05-21T14:12:14Z</time><name>PT14102</name></trkpt>
<trkpt lat="53.361533" lon="-1.618652"><ele>380</ele><time>2020-05-21T14:12:15Z</time><name>PT14103</name></trkpt>
<trkpt lat="53.361541" lon="-1.618627"><ele>380</ele><time>2020-05-21T14:12:16Z</time><name>PT14104</name></trkpt>
<trkpt lat="53.361548" lon="-1.618610"><ele>380</ele><time>2020-05-21T14:12:17Z</time><name>PT14105</name></trkpt>
<trkpt lat="53.361551" lon="-1.618597"><ele>380</ele><time>2020-05-21T14:12:18Z</time><name>PT14106</name></trkpt>
<trkpt lat="53.361558" lon="-1.618592"><ele>379</ele><time>2020-05-21T14:12:19Z</time><name>PT14107</name></trkpt>
<trkpt lat="53.361567" lon="-1.618582"><ele>379</ele><time>2020-05-21T14:12:20Z</time><name>PT14108</name></trkpt>
<trkpt lat="53.361576" lon="-1.618562"><ele>379</ele><time>2020-05-21T14:12:21Z</time><name>PT14109</name></trkpt>
<trkpt lat="53.361585" lon="-1.618543"><ele>379</ele><time>2020-05-21T14:12:22Z</time><name>PT14110</name></trkpt>
<trkpt lat="53.361594" lon="-1.618540"><ele>378</ele><time>2020-05-21T14:12:23Z</time><name>PT14111</name></trkpt>
<trkpt lat="53.361602" lon="-1.618534"><ele>378</ele><time>2020-05-21T14:12:24Z</time><name>PT14112</name></trkpt>
<trkpt lat="53.361611" lon="-1.618520"><ele>378</ele><time>2020-05-21T14:12:25Z</time><name>PT14113</name></trkpt>
<trkpt lat="53.361618" lon="-1.618506"><ele>378</ele><time>2020-05-21T14:12:26Z</time><name>PT14114</name></trkpt>
<trkpt lat="53.361630" lon="-1.618486"><ele>378</ele><time>2020-05-21T14:12:27Z</time><name>PT14115</name></trkpt>
<trkpt lat="53.361643" lon="-1.618468"><ele>378</ele><time>2020-05-21T14:12:28Z</time><name>PT14116</name></trkpt>
<trkpt lat="53.361652" lon="-1.618453"><ele>377</ele><time>2020-05-21T14:12:29Z</time><name>PT14117</name></trkpt>
<trkpt lat="53.361657" lon="-1.618440"><ele>378</ele><time>2020-05-21T14:12:30Z</time><name>PT14118</name></trkpt>
<trkpt lat="53.361665" lon="-1.618429"><ele>377</ele><time>2020-05-21T14:12:31Z</time><name>PT14119</name></trkpt>
<trkpt lat="53.361674" lon="-1.618416"><ele>377</ele><time>2020-05-21T14:12:32Z</time><name>PT14120</name></trkpt>
<trkpt lat="53.361683" lon="-1.618394"><ele>378</ele><time>2020-05-21T14:12:33Z</time><name>PT14121</name></trkpt>
<trkpt lat="53.361689" lon="-1.618363"><ele>378</ele><time>2020-05-21T14:12:34Z</time><name>PT14122</name></trkpt>
<trkpt lat="53.361698" lon="-1.618336"><ele>379</ele><time>2020-05-21T14:12:35Z</time><name>PT14123</name></trkpt>
<trkpt lat="53.361703" lon="-1.618323"><ele>379</ele><time>2020-05-21T14:12:36Z</time><name>PT14124</name></trkpt>
<trkpt lat="53.361710" lon="-1.618321"><ele>378</ele><time>2020-05-21T14:12:37Z</time><name>PT14125</name></trkpt>
<trkpt lat="53.361716" lon="-1.618308"><ele>377</ele><time>2020-05-21T14:12:38Z</time><name>PT14126</name></trkpt>
<trkpt lat="53.361721" lon="-1.618297"><ele>377</ele><time>2020-05-21T14:12:40Z</time><name>PT14127</name></trkpt>
<trkpt lat="53.361726" lon="-1.618287"><ele>376</ele><time>2020-05-21T14:12:40Z</time><name>PT14128</name></trkpt>
<trkpt lat="53.361735" lon="-1.618262"><ele>377</ele><time>2020-05-21T14:12:41Z</time><name>PT14129</name></trkpt>
<trkpt lat="53.361748" lon="-1.618245"><ele>377</ele><time>2020-05-21T14:12:42Z</time><name>PT14130</name></trkpt>
<trkpt lat="53.361755" lon="-1.618238"><ele>377</ele><time>2020-05-21T14:12:43Z</time><name>PT14131</name></trkpt>
<trkpt lat="53.361757" lon="-1.618235"><ele>377</ele><time>2020-05-21T14:12:44Z</time><name>PT14132</name></trkpt>
<trkpt lat="53.361757" lon="-1.618229"><ele>378</ele><time>2020-05-21T14:12:45Z</time><name>PT14133</name></trkpt>
<trkpt lat="53.361757" lon="-1.618228"><ele>378</ele><time>2020-05-21T14:12:46Z</time><name>PT14134</name></trkpt>
<trkpt lat="53.361756" lon="-1.618225"><ele>377</ele><time>2020-05-21T14:12:47Z</time><name>PT14135</name></trkpt>
<trkpt lat="53.361755" lon="-1.618202"><ele>377</ele><time>2020-05-21T14:12:50Z</time><name>PT14136</name></trkpt>
<trkpt lat="53.361763" lon="-1.618196"><ele>377</ele><time>2020-05-21T14:12:51Z</time><name>PT14137</name></trkpt>
<trkpt lat="53.361770" lon="-1.618195"><ele>377</ele><time>2020-05-21T14:12:52Z</time><name>PT14138</name></trkpt>
<trkpt lat="53.361782" lon="-1.618193"><ele>377</ele><time>2020-05-21T14:12:53Z</time><name>PT14139</name></trkpt>
<trkpt lat="53.361798" lon="-1.618176"><ele>376</ele><time>2020-05-21T14:12:54Z</time><name>PT14140</name></trkpt>
<trkpt lat="53.361814" lon="-1.618155"><ele>376</ele><time>2020-05-21T14:12:55Z</time><name>PT14141</name></trkpt>
<trkpt lat="53.361826" lon="-1.618129"><ele>377</ele><time>2020-05-21T14:12:56Z</time><name>PT14142</name></trkpt>
<trkpt lat="53.361832" lon="-1.618108"><ele>377</ele><time>2020-05-21T14:12:57Z</time><name>PT14143</name></trkpt>
<trkpt lat="53.361838" lon="-1.618096"><ele>376</ele><time>2020-05-21T14:12:58Z</time><name>PT14144</name></trkpt>
<trkpt lat="53.361847" lon="-1.618082"><ele>376</ele><time>2020-05-21T14:12:59Z</time><name>PT14145</name></trkpt>
<trkpt lat="53.361855" lon="-1.618062"><ele>375</ele><time>2020-05-21T14:13:00Z</time><name>PT14146</name></trkpt>
<trkpt lat="53.361862" lon="-1.618039"><ele>374</ele><time>2020-05-21T14:13:01Z</time><name>PT14147</name></trkpt>
<trkpt lat="53.361872" lon="-1.618011"><ele>375</ele><time>2020-05-21T14:13:02Z</time><name>PT14148</name></trkpt>
<trkpt lat="53.361885" lon="-1.617980"><ele>376</ele><time>2020-05-21T14:13:03Z</time><name>PT14149</name></trkpt>
<trkpt lat="53.361888" lon="-1.617947"><ele>376</ele><time>2020-05-21T14:13:04Z</time><name>PT14150</name></trkpt>
<trkpt lat="53.361892" lon="-1.617936"><ele>376</ele><time>2020-05-21T14:13:05Z</time><name>PT14151</name></trkpt>
<trkpt lat="53.361898" lon="-1.617925"><ele>376</ele><time>2020-05-21T14:13:06Z</time><name>PT14152</name></trkpt>
<trkpt lat="53.361903" lon="-1.617902"><ele>376</ele><time>2020-05-21T14:13:07Z</time><name>PT14153</name></trkpt>
<trkpt lat="53.361919" lon="-1.617904"><ele>375</ele><time>2020-05-21T14:13:08Z</time><name>PT14154</name></trkpt>
<trkpt lat="53.361928" lon="-1.617893"><ele>375</ele><time>2020-05-21T14:13:09Z</time><name>PT14155</name></trkpt>
<trkpt lat="53.361937" lon="-1.617876"><ele>375</ele><time>2020-05-21T14:13:10Z</time><name>PT14156</name></trkpt>
<trkpt lat="53.361948" lon="-1.617853"><ele>374</ele><time>2020-05-21T14:13:11Z</time><name>PT14157</name></trkpt>
<trkpt lat="53.361958" lon="-1.617830"><ele>374</ele><time>2020-05-21T14:13:12Z</time><name>PT14158</name></trkpt>
<trkpt lat="53.361966" lon="-1.617818"><ele>374</ele><time>2020-05-21T14:13:13Z</time><name>PT14159</name></trkpt>
<trkpt lat="53.361973" lon="-1.617804"><ele>374</ele><time>2020-05-21T14:13:14Z</time><name>PT14160</name></trkpt>
<trkpt lat="53.361978" lon="-1.617791"><ele>373</ele><time>2020-05-21T14:13:15Z</time><name>PT14161</name></trkpt>
<trkpt lat="53.361978" lon="-1.617758"><ele>372</ele><time>2020-05-21T14:13:16Z</time><name>PT14162</name></trkpt>
<trkpt lat="53.361985" lon="-1.617743"><ele>371</ele><time>2020-05-21T14:13:17Z</time><name>PT14163</name></trkpt>
<trkpt lat="53.361994" lon="-1.617725"><ele>372</ele><time>2020-05-21T14:13:18Z</time><name>PT14164</name></trkpt>
<trkpt lat="53.362005" lon="-1.617712"><ele>371</ele><time>2020-05-21T14:13:19Z</time><name>PT14165</name></trkpt>
<trkpt lat="53.362015" lon="-1.617685"><ele>371</ele><time>2020-05-21T14:13:20Z</time><name>PT14166</name></trkpt>
<trkpt lat="53.362026" lon="-1.617669"><ele>371</ele><time>2020-05-21T14:13:21Z</time><name>PT14167</name></trkpt>
<trkpt lat="53.362030" lon="-1.617658"><ele>371</ele><time>2020-05-21T14:13:22Z</time><name>PT14168</name></trkpt>
<trkpt lat="53.362034" lon="-1.617639"><ele>371</ele><time>2020-05-21T14:13:23Z</time><name>PT14169</name></trkpt>
<trkpt lat="53.362039" lon="-1.617624"><ele>370</ele><time>2020-05-21T14:13:24Z</time><name>PT14170</name></trkpt>
<trkpt lat="53.362053" lon="-1.617626"><ele>369</ele><time>2020-05-21T14:13:25Z</time><name>PT14171</name></trkpt>
<trkpt lat="53.362062" lon="-1.617609"><ele>369</ele><time>2020-05-21T14:13:26Z</time><name>PT14172</name></trkpt>
<trkpt lat="53.362070" lon="-1.617583"><ele>369</ele><time>2020-05-21T14:13:27Z</time><name>PT14173</name></trkpt>
<trkpt lat="53.362078" lon="-1.617549"><ele>370</ele><time>2020-05-21T14:13:28Z</time><name>PT14174</name></trkpt>
<trkpt lat="53.362087" lon="-1.617534"><ele>370</ele><time>2020-05-21T14:13:29Z</time><name>PT14175</name></trkpt>
<trkpt lat="53.362093" lon="-1.617517"><ele>370</ele><time>2020-05-21T14:13:30Z</time><name>PT14176</name></trkpt>
<trkpt lat="53.362098" lon="-1.617508"><ele>370</ele><time>2020-05-21T14:13:31Z</time><name>PT14177</name></trkpt>
<trkpt lat="53.362103" lon="-1.617494"><ele>368</ele><time>2020-05-21T14:13:32Z</time><name>PT14178</name></trkpt>
<trkpt lat="53.362111" lon="-1.617481"><ele>368</ele><time>2020-05-21T14:13:33Z</time><name>PT14179</name></trkpt>
<trkpt lat="53.362115" lon="-1.617458"><ele>368</ele><time>2020-05-21T14:13:34Z</time><name>PT14180</name></trkpt>
<trkpt lat="53.362131" lon="-1.617437"><ele>367</ele><time>2020-05-21T14:13:35Z</time><name>PT14181</name></trkpt>
<trkpt lat="53.362144" lon="-1.617405"><ele>368</ele><time>2020-05-21T14:13:36Z</time><name>PT14182</name></trkpt>
<trkpt lat="53.362151" lon="-1.617381"><ele>368</ele><time>2020-05-21T14:13:37Z</time><name>PT14183</name></trkpt>
<trkpt lat="53.362157" lon="-1.617365"><ele>367</ele><time>2020-05-21T14:13:38Z</time><name>PT14184</name></trkpt>
<trkpt lat="53.362158" lon="-1.617355"><ele>367</ele><time>2020-05-21T14:13:39Z</time><name>PT14185</name></trkpt>
<trkpt lat="53.362160" lon="-1.617344"><ele>367</ele><time>2020-05-21T14:13:40Z</time><name>PT14186</name></trkpt>
<trkpt lat="53.362171" lon="-1.617361"><ele>364</ele><time>2020-05-21T14:13:41Z</time><name>PT14187</name></trkpt>
<trkpt lat="53.362183" lon="-1.617357"><ele>363</ele><time>2020-05-21T14:13:42Z</time><name>PT14188</name></trkpt>
<trkpt lat="53.362193" lon="-1.617346"><ele>362</ele><time>2020-05-21T14:13:43Z</time><name>PT14189</name></trkpt>
<trkpt lat="53.362197" lon="-1.617313"><ele>362</ele><time>2020-05-21T14:13:44Z</time><name>PT14190</name></trkpt>
<trkpt lat="53.362201" lon="-1.617280"><ele>363</ele><time>2020-05-21T14:13:45Z</time><name>PT14191</name></trkpt>
<trkpt lat="53.362204" lon="-1.617261"><ele>363</ele><time>2020-05-21T14:13:46Z</time><name>PT14192</name></trkpt>
<trkpt lat="53.362205" lon="-1.617247"><ele>363</ele><time>2020-05-21T14:13:47Z</time><name>PT14193</name></trkpt>
<trkpt lat="53.362207" lon="-1.617231"><ele>363</ele><time>2020-05-21T14:13:49Z</time><name>PT14194</name></trkpt>
<trkpt lat="53.362213" lon="-1.617207"><ele>363</ele><time>2020-05-21T14:13:49Z</time><name>PT14195</name></trkpt>
<trkpt lat="53.362217" lon="-1.617188"><ele>363</ele><time>2020-05-21T14:13:50Z</time><name>PT14196</name></trkpt>
<trkpt lat="53.362225" lon="-1.617165"><ele>363</ele><time>2020-05-21T14:13:51Z</time><name>PT14197</name></trkpt>
<trkpt lat="53.362231" lon="-1.617132"><ele>363</ele><time>2020-05-21T14:13:52Z</time><name>PT14198</name></trkpt>
<trkpt lat="53.362240" lon="-1.617110"><ele>363</ele><time>2020-05-21T14:13:53Z</time><name>PT14199</name></trkpt>
<trkpt lat="53.362244" lon="-1.617094"><ele>363</ele><time>2020-05-21T14:13:54Z</time><name>PT14200</name></trkpt>
<trkpt lat="53.362244" lon="-1.617082"><ele>364</ele><time>2020-05-21T14:13:55Z</time><name>PT14201</name></trkpt>
<trkpt lat="53.362248" lon="-1.617063"><ele>363</ele><time>2020-05-21T14:13:56Z</time><name>PT14202</name></trkpt>
<trkpt lat="53.362256" lon="-1.617049"><ele>363</ele><time>2020-05-21T14:13:57Z</time><name>PT14203</name></trkpt>
<trkpt lat="53.362262" lon="-1.617037"><ele>363</ele><time>2020-05-21T14:13:58Z</time><name>PT14204</name></trkpt>
<trkpt lat="53.362271" lon="-1.617021"><ele>363</ele><time>2020-05-21T14:13:59Z</time><name>PT14205</name></trkpt>
<trkpt lat="53.362282" lon="-1.617003"><ele>363</ele><time>2020-05-21T14:14:00Z</time><name>PT14206</name></trkpt>
<trkpt lat="53.362288" lon="-1.616980"><ele>363</ele><time>2020-05-21T14:14:01Z</time><name>PT14207</name></trkpt>
<trkpt lat="53.362292" lon="-1.616963"><ele>364</ele><time>2020-05-21T14:14:02Z</time><name>PT14208</name></trkpt>
<trkpt lat="53.362294" lon="-1.616950"><ele>364</ele><time>2020-05-21T14:14:04Z</time><name>PT14209</name></trkpt>
<trkpt lat="53.362298" lon="-1.616937"><ele>363</ele><time>2020-05-21T14:14:04Z</time><name>PT14210</name></trkpt>
<trkpt lat="53.362305" lon="-1.616914"><ele>363</ele><time>2020-05-21T14:14:05Z</time><name>PT14211</name></trkpt>
<trkpt lat="53.362310" lon="-1.616896"><ele>363</ele><time>2020-05-21T14:14:07Z</time><name>PT14212</name></trkpt>
<trkpt lat="53.362315" lon="-1.616873"><ele>362</ele><time>2020-05-21T14:14:07Z</time><name>PT14213</name></trkpt>
<trkpt lat="53.362316" lon="-1.616843"><ele>363</ele><time>2020-05-21T14:14:08Z</time><name>PT14214</name></trkpt>
<trkpt lat="53.362319" lon="-1.616819"><ele>363</ele><time>2020-05-21T14:14:09Z</time><name>PT14215</name></trkpt>
<trkpt lat="53.362319" lon="-1.616803"><ele>363</ele><time>2020-05-21T14:14:10Z</time><name>PT14216</name></trkpt>
<trkpt lat="53.362322" lon="-1.616799"><ele>362</ele><time>2020-05-21T14:14:11Z</time><name>PT14217</name></trkpt>
<trkpt lat="53.362325" lon="-1.616785"><ele>362</ele><time>2020-05-21T14:14:12Z</time><name>PT14218</name></trkpt>
<trkpt lat="53.362331" lon="-1.616775"><ele>362</ele><time>2020-05-21T14:14:13Z</time><name>PT14219</name></trkpt>
<trkpt lat="53.362334" lon="-1.616753"><ele>362</ele><time>2020-05-21T14:14:14Z</time><name>PT14220</name></trkpt>
<trkpt lat="53.362340" lon="-1.616734"><ele>363</ele><time>2020-05-21T14:14:15Z</time><name>PT14221</name></trkpt>
<trkpt lat="53.362347" lon="-1.616714"><ele>362</ele><time>2020-05-21T14:14:16Z</time><name>PT14222</name></trkpt>
<trkpt lat="53.362355" lon="-1.616697"><ele>362</ele><time>2020-05-21T14:14:17Z</time><name>PT14223</name></trkpt>
<trkpt lat="53.362360" lon="-1.616676"><ele>362</ele><time>2020-05-21T14:14:19Z</time><name>PT14224</name></trkpt>
<trkpt lat="53.362370" lon="-1.616665"><ele>362</ele><time>2020-05-21T14:14:19Z</time><name>PT14225</name></trkpt>
<trkpt lat="53.362380" lon="-1.616651"><ele>361</ele><time>2020-05-21T14:14:20Z</time><name>PT14226</name></trkpt>
<trkpt lat="53.362392" lon="-1.616643"><ele>361</ele><time>2020-05-21T14:14:21Z</time><name>PT14227</name></trkpt>
<trkpt lat="53.362401" lon="-1.616632"><ele>360</ele><time>2020-05-21T14:14:22Z</time><name>PT14228</name></trkpt>
<trkpt lat="53.362404" lon="-1.616622"><ele>360</ele><time>2020-05-21T14:14:23Z</time><name>PT14229</name></trkpt>
<trkpt lat="53.362406" lon="-1.616608"><ele>359</ele><time>2020-05-21T14:14:24Z</time><name>PT14230</name></trkpt>
<trkpt lat="53.362408" lon="-1.616598"><ele>359</ele><time>2020-05-21T14:14:25Z</time><name>PT14231</name></trkpt>
<trkpt lat="53.362414" lon="-1.616582"><ele>359</ele><time>2020-05-21T14:14:26Z</time><name>PT14232</name></trkpt>
<trkpt lat="53.362421" lon="-1.616561"><ele>359</ele><time>2020-05-21T14:14:27Z</time><name>PT14233</name></trkpt>
<trkpt lat="53.362424" lon="-1.616548"><ele>358</ele><time>2020-05-21T14:14:28Z</time><name>PT14234</name></trkpt>
<trkpt lat="53.362428" lon="-1.616530"><ele>358</ele><time>2020-05-21T14:14:29Z</time><name>PT14235</name></trkpt>
<trkpt lat="53.362436" lon="-1.616507"><ele>359</ele><time>2020-05-21T14:14:30Z</time><name>PT14236</name></trkpt>
<trkpt lat="53.362443" lon="-1.616491"><ele>359</ele><time>2020-05-21T14:14:31Z</time><name>PT14237</name></trkpt>
<trkpt lat="53.362451" lon="-1.616479"><ele>358</ele><time>2020-05-21T14:14:32Z</time><name>PT14238</name></trkpt>
<trkpt lat="53.362460" lon="-1.616468"><ele>358</ele><time>2020-05-21T14:14:33Z</time><name>PT14239</name></trkpt>
<trkpt lat="53.362468" lon="-1.616462"><ele>357</ele><time>2020-05-21T14:14:34Z</time><name>PT14240</name></trkpt>
<trkpt lat="53.362474" lon="-1.616450"><ele>356</ele><time>2020-05-21T14:14:35Z</time><name>PT14241</name></trkpt>
<trkpt lat="53.362483" lon="-1.616433"><ele>356</ele><time>2020-05-21T14:14:36Z</time><name>PT14242</name></trkpt>
<trkpt lat="53.362488" lon="-1.616403"><ele>357</ele><time>2020-05-21T14:14:37Z</time><name>PT14243</name></trkpt>
<trkpt lat="53.362492" lon="-1.616385"><ele>357</ele><time>2020-05-21T14:14:38Z</time><name>PT14244</name></trkpt>
<trkpt lat="53.362492" lon="-1.616371"><ele>357</ele><time>2020-05-21T14:14:39Z</time><name>PT14245</name></trkpt>
<trkpt lat="53.362493" lon="-1.616356"><ele>357</ele><time>2020-05-21T14:14:41Z</time><name>PT14246</name></trkpt>
<trkpt lat="53.362498" lon="-1.616340"><ele>356</ele><time>2020-05-21T14:14:41Z</time><name>PT14247</name></trkpt>
<trkpt lat="53.362510" lon="-1.616329"><ele>357</ele><time>2020-05-21T14:14:42Z</time><name>PT14248</name></trkpt>
<trkpt lat="53.362520" lon="-1.616313"><ele>357</ele><time>2020-05-21T14:14:43Z</time><name>PT14249</name></trkpt>
<trkpt lat="53.362529" lon="-1.616302"><ele>357</ele><time>2020-05-21T14:14:44Z</time><name>PT14250</name></trkpt>
<trkpt lat="53.362535" lon="-1.616297"><ele>356</ele><time>2020-05-21T14:14:46Z</time><name>PT14251</name></trkpt>
<trkpt lat="53.362546" lon="-1.616295"><ele>356</ele><time>2020-05-21T14:14:46Z</time><name>PT14252</name></trkpt>
<trkpt lat="53.362555" lon="-1.616288"><ele>355</ele><time>2020-05-21T14:14:47Z</time><name>PT14253</name></trkpt>
<trkpt lat="53.362568" lon="-1.616277"><ele>356</ele><time>2020-05-21T14:14:48Z</time><name>PT14254</name></trkpt>
<trkpt lat="53.362581" lon="-1.616267"><ele>356</ele><time>2020-05-21T14:14:49Z</time><name>PT14255</name></trkpt>
<trkpt lat="53.362589" lon="-1.616260"><ele>356</ele><time>2020-05-21T14:14:50Z</time><name>PT14256</name></trkpt>
<trkpt lat="53.362590" lon="-1.616257"><ele>356</ele><time>2020-05-21T14:14:51Z</time><name>PT14257</name></trkpt>
<trkpt lat="53.362595" lon="-1.616254"><ele>356</ele><time>2020-05-21T14:14:53Z</time><name>PT14258</name></trkpt>
<trkpt lat="53.362609" lon="-1.616251"><ele>357</ele><time>2020-05-21T14:14:53Z</time><name>PT14259</name></trkpt>
<trkpt lat="53.362625" lon="-1.616251"><ele>357</ele><time>2020-05-21T14:14:54Z</time><name>PT14260</name></trkpt>
<trkpt lat="53.362639" lon="-1.616244"><ele>357</ele><time>2020-05-21T14:14:55Z</time><name>PT14261</name></trkpt>
<trkpt lat="53.362649" lon="-1.616237"><ele>357</ele><time>2020-05-21T14:14:56Z</time><name>PT14262</name></trkpt>
<trkpt lat="53.362656" lon="-1.616238"><ele>357</ele><time>2020-05-21T14:14:57Z</time><name>PT14263</name></trkpt>
<trkpt lat="53.362667" lon="-1.616244"><ele>356</ele><time>2020-05-21T14:14:58Z</time><name>PT14264</name></trkpt>
<trkpt lat="53.362677" lon="-1.616243"><ele>356</ele><time>2020-05-21T14:14:59Z</time><name>PT14265</name></trkpt>
<trkpt lat="53.362690" lon="-1.616239"><ele>356</ele><time>2020-05-21T14:15:00Z</time><name>PT14266</name></trkpt>
<trkpt lat="53.362706" lon="-1.616239"><ele>356</ele><time>2020-05-21T14:15:01Z</time><name>PT14267</name></trkpt>
<trkpt lat="53.362718" lon="-1.616250"><ele>355</ele><time>2020-05-21T14:15:02Z</time><name>PT14268</name></trkpt>
<trkpt lat="53.362728" lon="-1.616249"><ele>355</ele><time>2020-05-21T14:15:03Z</time><name>PT14269</name></trkpt>
<trkpt lat="53.362743" lon="-1.616240"><ele>355</ele><time>2020-05-21T14:15:04Z</time><name>PT14270</name></trkpt>
<trkpt lat="53.362754" lon="-1.616233"><ele>355</ele><time>2020-05-21T14:15:05Z</time><name>PT14271</name></trkpt>
<trkpt lat="53.362767" lon="-1.616233"><ele>355</ele><time>2020-05-21T14:15:06Z</time><name>PT14272</name></trkpt>
<trkpt lat="53.362777" lon="-1.616232"><ele>356</ele><time>2020-05-21T14:15:07Z</time><name>PT14273</name></trkpt>
<trkpt lat="53.362787" lon="-1.616231"><ele>356</ele><time>2020-05-21T14:15:08Z</time><name>PT14274</name></trkpt>
<trkpt lat="53.362798" lon="-1.616225"><ele>356</ele><time>2020-05-21T14:15:09Z</time><name>PT14275</name></trkpt>
<trkpt lat="53.362811" lon="-1.616219"><ele>356</ele><time>2020-05-21T14:15:10Z</time><name>PT14276</name></trkpt>
<trkpt lat="53.362826" lon="-1.616222"><ele>357</ele><time>2020-05-21T14:15:11Z</time><name>PT14277</name></trkpt>
<trkpt lat="53.362840" lon="-1.616221"><ele>357</ele><time>2020-05-21T14:15:12Z</time><name>PT14278</name></trkpt>
<trkpt lat="53.362857" lon="-1.616218"><ele>357</ele><time>2020-05-21T14:15:13Z</time><name>PT14279</name></trkpt>
<trkpt lat="53.362872" lon="-1.616218"><ele>357</ele><time>2020-05-21T14:15:14Z</time><name>PT14280</name></trkpt>
<trkpt lat="53.362884" lon="-1.616223"><ele>357</ele><time>2020-05-21T14:15:15Z</time><name>PT14281</name></trkpt>
<trkpt lat="53.362895" lon="-1.616222"><ele>357</ele><time>2020-05-21T14:15:16Z</time><name>PT14282</name></trkpt>
<trkpt lat="53.362905" lon="-1.616223"><ele>356</ele><time>2020-05-21T14:15:17Z</time><name>PT14283</name></trkpt>
<trkpt lat="53.362915" lon="-1.616225"><ele>356</ele><time>2020-05-21T14:15:18Z</time><name>PT14284</name></trkpt>
<trkpt lat="53.362930" lon="-1.616233"><ele>356</ele><time>2020-05-21T14:15:19Z</time><name>PT14285</name></trkpt>
<trkpt lat="53.362950" lon="-1.616229"><ele>356</ele><time>2020-05-21T14:15:20Z</time><name>PT14286</name></trkpt>
<trkpt lat="53.362966" lon="-1.616223"><ele>356</ele><time>2020-05-21T14:15:21Z</time><name>PT14287</name></trkpt>
<trkpt lat="53.362973" lon="-1.616218"><ele>357</ele><time>2020-05-21T14:15:22Z</time><name>PT14288</name></trkpt>
<trkpt lat="53.362980" lon="-1.616222"><ele>357</ele><time>2020-05-21T14:15:23Z</time><name>PT14289</name></trkpt>
<trkpt lat="53.362993" lon="-1.616220"><ele>357</ele><time>2020-05-21T14:15:24Z</time><name>PT14290</name></trkpt>
<trkpt lat="53.363014" lon="-1.616215"><ele>357</ele><time>2020-05-21T14:15:25Z</time><name>PT14291</name></trkpt>
<trkpt lat="53.363034" lon="-1.616214"><ele>357</ele><time>2020-05-21T14:15:26Z</time><name>PT14292</name></trkpt>
<trkpt lat="53.363051" lon="-1.616215"><ele>358</ele><time>2020-05-21T14:15:27Z</time><name>PT14293</name></trkpt>
<trkpt lat="53.363062" lon="-1.616222"><ele>357</ele><time>2020-05-21T14:15:28Z</time><name>PT14294</name></trkpt>
<trkpt lat="53.363070" lon="-1.616223"><ele>357</ele><time>2020-05-21T14:15:29Z</time><name>PT14295</name></trkpt>
<trkpt lat="53.363081" lon="-1.616226"><ele>357</ele><time>2020-05-21T14:15:30Z</time><name>PT14296</name></trkpt>
<trkpt lat="53.363092" lon="-1.616228"><ele>356</ele><time>2020-05-21T14:15:31Z</time><name>PT14297</name></trkpt>
<trkpt lat="53.363102" lon="-1.616230"><ele>356</ele><time>2020-05-21T14:15:32Z</time><name>PT14298</name></trkpt>
<trkpt lat="53.363116" lon="-1.616227"><ele>357</ele><time>2020-05-21T14:15:33Z</time><name>PT14299</name></trkpt>
<trkpt lat="53.363132" lon="-1.616230"><ele>357</ele><time>2020-05-21T14:15:34Z</time><name>PT14300</name></trkpt>
<trkpt lat="53.363148" lon="-1.616242"><ele>357</ele><time>2020-05-21T14:15:36Z</time><name>PT14301</name></trkpt>
<trkpt lat="53.363160" lon="-1.616248"><ele>357</ele><time>2020-05-21T14:15:36Z</time><name>PT14302</name></trkpt>
<trkpt lat="53.363165" lon="-1.616258"><ele>355</ele><time>2020-05-21T14:15:37Z</time><name>PT14303</name></trkpt>
<trkpt lat="53.363175" lon="-1.616255"><ele>354</ele><time>2020-05-21T14:15:38Z</time><name>PT14304</name></trkpt>
<trkpt lat="53.363186" lon="-1.616260"><ele>354</ele><time>2020-05-21T14:15:39Z</time><name>PT14305</name></trkpt>
<trkpt lat="53.363201" lon="-1.616262"><ele>355</ele><time>2020-05-21T14:15:40Z</time><name>PT14306</name></trkpt>
<trkpt lat="53.363219" lon="-1.616263"><ele>355</ele><time>2020-05-21T14:15:41Z</time><name>PT14307</name></trkpt>
<trkpt lat="53.363235" lon="-1.616263"><ele>355</ele><time>2020-05-21T14:15:42Z</time><name>PT14308</name></trkpt>
<trkpt lat="53.363245" lon="-1.616275"><ele>354</ele><time>2020-05-21T14:15:44Z</time><name>PT14309</name></trkpt>
<trkpt lat="53.363259" lon="-1.616275"><ele>355</ele><time>2020-05-21T14:15:44Z</time><name>PT14310</name></trkpt>
<trkpt lat="53.363273" lon="-1.616284"><ele>354</ele><time>2020-05-21T14:15:45Z</time><name>PT14311</name></trkpt>
<trkpt lat="53.363286" lon="-1.616282"><ele>354</ele><time>2020-05-21T14:15:46Z</time><name>PT14312</name></trkpt>
<trkpt lat="53.363300" lon="-1.616286"><ele>355</ele><time>2020-05-21T14:15:47Z</time><name>PT14313</name></trkpt>
<trkpt lat="53.363317" lon="-1.616287"><ele>354</ele><time>2020-05-21T14:15:48Z</time><name>PT14314</name></trkpt>
<trkpt lat="53.363332" lon="-1.616283"><ele>354</ele><time>2020-05-21T14:15:50Z</time><name>PT14315</name></trkpt>
<trkpt lat="53.363341" lon="-1.616280"><ele>354</ele><time>2020-05-21T14:15:50Z</time><name>PT14316</name></trkpt>
<trkpt lat="53.363349" lon="-1.616274"><ele>354</ele><time>2020-05-21T14:15:51Z</time><name>PT14317</name></trkpt>
<trkpt lat="53.363368" lon="-1.616277"><ele>352</ele><time>2020-05-21T14:15:52Z</time><name>PT14318</name></trkpt>
<trkpt lat="53.363386" lon="-1.616279"><ele>352</ele><time>2020-05-21T14:15:53Z</time><name>PT14319</name></trkpt>
<trkpt lat="53.363401" lon="-1.616279"><ele>351</ele><time>2020-05-21T14:15:54Z</time><name>PT14320</name></trkpt>
<trkpt lat="53.363415" lon="-1.616266"><ele>352</ele><time>2020-05-21T14:15:55Z</time><name>PT14321</name></trkpt>
<trkpt lat="53.363427" lon="-1.616259"><ele>352</ele><time>2020-05-21T14:15:56Z</time><name>PT14322</name></trkpt>
<trkpt lat="53.363436" lon="-1.616256"><ele>353</ele><time>2020-05-21T14:15:57Z</time><name>PT14323</name></trkpt>
<trkpt lat="53.363445" lon="-1.616257"><ele>352</ele><time>2020-05-21T14:15:58Z</time><name>PT14324</name></trkpt>
<trkpt lat="53.363456" lon="-1.616261"><ele>353</ele><time>2020-05-21T14:15:59Z</time><name>PT14325</name></trkpt>
<trkpt lat="53.363464" lon="-1.616261"><ele>352</ele><time>2020-05-21T14:16:00Z</time><name>PT14326</name></trkpt>
<trkpt lat="53.363473" lon="-1.616255"><ele>352</ele><time>2020-05-21T14:16:01Z</time><name>PT14327</name></trkpt>
<trkpt lat="53.363487" lon="-1.616249"><ele>353</ele><time>2020-05-21T14:16:03Z</time><name>PT14328</name></trkpt>
<trkpt lat="53.363501" lon="-1.616245"><ele>353</ele><time>2020-05-21T14:16:03Z</time><name>PT14329</name></trkpt>
<trkpt lat="53.363512" lon="-1.616243"><ele>353</ele><time>2020-05-21T14:16:04Z</time><name>PT14330</name></trkpt>
<trkpt lat="53.363521" lon="-1.616243"><ele>353</ele><time>2020-05-21T14:16:05Z</time><name>PT14331</name></trkpt>
<trkpt lat="53.363532" lon="-1.616241"><ele>353</ele><time>2020-05-21T14:16:06Z</time><name>PT14332</name></trkpt>
<trkpt lat="53.363546" lon="-1.616237"><ele>353</ele><time>2020-05-21T14:16:07Z</time><name>PT14333</name></trkpt>
<trkpt lat="53.363559" lon="-1.616233"><ele>353</ele><time>2020-05-21T14:16:08Z</time><name>PT14334</name></trkpt>
<trkpt lat="53.363575" lon="-1.616237"><ele>353</ele><time>2020-05-21T14:16:09Z</time><name>PT14335</name></trkpt>
<trkpt lat="53.363592" lon="-1.616241"><ele>354</ele><time>2020-05-21T14:16:10Z</time><name>PT14336</name></trkpt>
<trkpt lat="53.363605" lon="-1.616244"><ele>353</ele><time>2020-05-21T14:16:11Z</time><name>PT14337</name></trkpt>
<trkpt lat="53.363620" lon="-1.616245"><ele>354</ele><time>2020-05-21T14:16:12Z</time><name>PT14338</name></trkpt>
<trkpt lat="53.363637" lon="-1.616245"><ele>355</ele><time>2020-05-21T14:16:13Z</time><name>PT14339</name></trkpt>
<trkpt lat="53.363650" lon="-1.616248"><ele>355</ele><time>2020-05-21T14:16:14Z</time><name>PT14340</name></trkpt>
<trkpt lat="53.363665" lon="-1.616248"><ele>355</ele><time>2020-05-21T14:16:15Z</time><name>PT14341</name></trkpt>
<trkpt lat="53.363683" lon="-1.616245"><ele>355</ele><time>2020-05-21T14:16:16Z</time><name>PT14342</name></trkpt>
<trkpt lat="53.363695" lon="-1.616244"><ele>356</ele><time>2020-05-21T14:16:17Z</time><name>PT14343</name></trkpt>
<trkpt lat="53.363706" lon="-1.616240"><ele>357</ele><time>2020-05-21T14:16:18Z</time><name>PT14344</name></trkpt>
<trkpt lat="53.363716" lon="-1.616244"><ele>357</ele><time>2020-05-21T14:16:19Z</time><name>PT14345</name></trkpt>
<trkpt lat="53.363724" lon="-1.616248"><ele>357</ele><time>2020-05-21T14:16:20Z</time><name>PT14346</name></trkpt>
<trkpt lat="53.363738" lon="-1.616246"><ele>357</ele><time>2020-05-21T14:16:21Z</time><name>PT14347</name></trkpt>
<trkpt lat="53.363753" lon="-1.616248"><ele>357</ele><time>2020-05-21T14:16:22Z</time><name>PT14348</name></trkpt>
<trkpt lat="53.363768" lon="-1.616255"><ele>357</ele><time>2020-05-21T14:16:23Z</time><name>PT14349</name></trkpt>
<trkpt lat="53.363778" lon="-1.616260"><ele>357</ele><time>2020-05-21T14:16:24Z</time><name>PT14350</name></trkpt>
<trkpt lat="53.363791" lon="-1.616264"><ele>357</ele><time>2020-05-21T14:16:25Z</time><name>PT14351</name></trkpt>
<trkpt lat="53.363804" lon="-1.616262"><ele>357</ele><time>2020-05-21T14:16:27Z</time><name>PT14352</name></trkpt>
<trkpt lat="53.363818" lon="-1.616256"><ele>358</ele><time>2020-05-21T14:16:27Z</time><name>PT14353</name></trkpt>
<trkpt lat="53.363836" lon="-1.616259"><ele>358</ele><time>2020-05-21T14:16:28Z</time><name>PT14354</name></trkpt>
<trkpt lat="53.363854" lon="-1.616262"><ele>359</ele><time>2020-05-21T14:16:30Z</time><name>PT14355</name></trkpt>
<trkpt lat="53.363866" lon="-1.616261"><ele>358</ele><time>2020-05-21T14:16:30Z</time><name>PT14356</name></trkpt>
<trkpt lat="53.363874" lon="-1.616263"><ele>358</ele><time>2020-05-21T14:16:31Z</time><name>PT14357</name></trkpt>
<trkpt lat="53.363884" lon="-1.616274"><ele>357</ele><time>2020-05-21T14:16:32Z</time><name>PT14358</name></trkpt>
<trkpt lat="53.363895" lon="-1.616278"><ele>357</ele><time>2020-05-21T14:16:33Z</time><name>PT14359</name></trkpt>
<trkpt lat="53.363906" lon="-1.616283"><ele>356</ele><time>2020-05-21T14:16:34Z</time><name>PT14360</name></trkpt>
<trkpt lat="53.363919" lon="-1.616280"><ele>356</ele><time>2020-05-21T14:16:35Z</time><name>PT14361</name></trkpt>
<trkpt lat="53.363934" lon="-1.616280"><ele>356</ele><time>2020-05-21T14:16:36Z</time><name>PT14362</name></trkpt>
<trkpt lat="53.363945" lon="-1.616277"><ele>356</ele><time>2020-05-21T14:16:37Z</time><name>PT14363</name></trkpt>
<trkpt lat="53.363954" lon="-1.616277"><ele>356</ele><time>2020-05-21T14:16:38Z</time><name>PT14364</name></trkpt>
<trkpt lat="53.363969" lon="-1.616276"><ele>357</ele><time>2020-05-21T14:16:39Z</time><name>PT14365</name></trkpt>
<trkpt lat="53.363983" lon="-1.616274"><ele>357</ele><time>2020-05-21T14:16:40Z</time><name>PT14366</name></trkpt>
<trkpt lat="53.363996" lon="-1.616270"><ele>357</ele><time>2020-05-21T14:16:42Z</time><name>PT14367</name></trkpt>
<trkpt lat="53.364015" lon="-1.616264"><ele>358</ele><time>2020-05-21T14:16:42Z</time><name>PT14368</name></trkpt>
<trkpt lat="53.364030" lon="-1.616263"><ele>358</ele><time>2020-05-21T14:16:43Z</time><name>PT14369</name></trkpt>
<trkpt lat="53.364040" lon="-1.616263"><ele>357</ele><time>2020-05-21T14:16:44Z</time><name>PT14370</name></trkpt>
<trkpt lat="53.364051" lon="-1.616269"><ele>357</ele><time>2020-05-21T14:16:45Z</time><name>PT14371</name></trkpt>
<trkpt lat="53.364065" lon="-1.616270"><ele>357</ele><time>2020-05-21T14:16:46Z</time><name>PT14372</name></trkpt>
<trkpt lat="53.364079" lon="-1.616273"><ele>357</ele><time>2020-05-21T14:16:47Z</time><name>PT14373</name></trkpt>
<trkpt lat="53.364094" lon="-1.616274"><ele>358</ele><time>2020-05-21T14:16:48Z</time><name>PT14374</name></trkpt>
<trkpt lat="53.364111" lon="-1.616274"><ele>358</ele><time>2020-05-21T14:16:49Z</time><name>PT14375</name></trkpt>
<trkpt lat="53.364126" lon="-1.616278"><ele>358</ele><time>2020-05-21T14:16:50Z</time><name>PT14376</name></trkpt>
<trkpt lat="53.364136" lon="-1.616276"><ele>358</ele><time>2020-05-21T14:16:51Z</time><name>PT14377</name></trkpt>
<trkpt lat="53.364146" lon="-1.616276"><ele>357</ele><time>2020-05-21T14:16:52Z</time><name>PT14378</name></trkpt>
<trkpt lat="53.364159" lon="-1.616277"><ele>357</ele><time>2020-05-21T14:16:53Z</time><name>PT14379</name></trkpt>
<trkpt lat="53.364171" lon="-1.616275"><ele>357</ele><time>2020-05-21T14:16:54Z</time><name>PT14380</name></trkpt>
<trkpt lat="53.364187" lon="-1.616274"><ele>358</ele><time>2020-05-21T14:16:55Z</time><name>PT14381</name></trkpt>
<trkpt lat="53.364204" lon="-1.616271"><ele>358</ele><time>2020-05-21T14:16:56Z</time><name>PT14382</name></trkpt>
<trkpt lat="53.364218" lon="-1.616273"><ele>357</ele><time>2020-05-21T14:16:57Z</time><name>PT14383</name></trkpt>
<trkpt lat="53.364227" lon="-1.616273"><ele>357</ele><time>2020-05-21T14:16:58Z</time><name>PT14384</name></trkpt>
<trkpt lat="53.364237" lon="-1.616274"><ele>356</ele><time>2020-05-21T14:17:00Z</time><name>PT14385</name></trkpt>
<trkpt lat="53.364251" lon="-1.616278"><ele>356</ele><time>2020-05-21T14:17:00Z</time><name>PT14386</name></trkpt>
<trkpt lat="53.364265" lon="-1.616278"><ele>356</ele><time>2020-05-21T14:17:01Z</time><name>PT14387</name></trkpt>
<trkpt lat="53.364281" lon="-1.616279"><ele>357</ele><time>2020-05-21T14:17:02Z</time><name>PT14388</name></trkpt>
<trkpt lat="53.364299" lon="-1.616284"><ele>356</ele><time>2020-05-21T14:17:03Z</time><name>PT14389</name></trkpt>
<trkpt lat="53.364309" lon="-1.616285"><ele>356</ele><time>2020-05-21T14:17:04Z</time><name>PT14390</name></trkpt>
<trkpt lat="53.364317" lon="-1.616288"><ele>356</ele><time>2020-05-21T14:17:05Z</time><name>PT14391</name></trkpt>
<trkpt lat="53.364332" lon="-1.616288"><ele>356</ele><time>2020-05-21T14:17:06Z</time><name>PT14392</name></trkpt>
<trkpt lat="53.364343" lon="-1.616295"><ele>357</ele><time>2020-05-21T14:17:07Z</time><name>PT14393</name></trkpt>
<trkpt lat="53.364357" lon="-1.616300"><ele>357</ele><time>2020-05-21T14:17:08Z</time><name>PT14394</name></trkpt>
<trkpt lat="53.364375" lon="-1.616304"><ele>357</ele><time>2020-05-21T14:17:09Z</time><name>PT14395</name></trkpt>
<trkpt lat="53.364392" lon="-1.616309"><ele>357</ele><time>2020-05-21T14:17:10Z</time><name>PT14396</name></trkpt>
<trkpt lat="53.364403" lon="-1.616315"><ele>356</ele><time>2020-05-21T14:17:11Z</time><name>PT14397</name></trkpt>
<trkpt lat="53.364413" lon="-1.616317"><ele>356</ele><time>2020-05-21T14:17:12Z</time><name>PT14398</name></trkpt>
<trkpt lat="53.364424" lon="-1.616323"><ele>356</ele><time>2020-05-21T14:17:13Z</time><name>PT14399</name></trkpt>
<trkpt lat="53.364437" lon="-1.616323"><ele>356</ele><time>2020-05-21T14:17:14Z</time><name>PT14400</name></trkpt>
<trkpt lat="53.364455" lon="-1.616325"><ele>356</ele><time>2020-05-21T14:17:15Z</time><name>PT14401</name></trkpt>
<trkpt lat="53.364475" lon="-1.616321"><ele>357</ele><time>2020-05-21T14:17:16Z</time><name>PT14402</name></trkpt>
<trkpt lat="53.364488" lon="-1.616321"><ele>357</ele><time>2020-05-21T14:17:17Z</time><name>PT14403</name></trkpt>
<trkpt lat="53.364498" lon="-1.616321"><ele>357</ele><time>2020-05-21T14:17:18Z</time><name>PT14404</name></trkpt>
<trkpt lat="53.364508" lon="-1.616321"><ele>357</ele><time>2020-05-21T14:17:19Z</time><name>PT14405</name></trkpt>
<trkpt lat="53.364522" lon="-1.616320"><ele>356</ele><time>2020-05-21T14:17:20Z</time><name>PT14406</name></trkpt>
<trkpt lat="53.364534" lon="-1.616323"><ele>356</ele><time>2020-05-21T14:17:21Z</time><name>PT14407</name></trkpt>
<trkpt lat="53.364548" lon="-1.616323"><ele>356</ele><time>2020-05-21T14:17:22Z</time><name>PT14408</name></trkpt>
<trkpt lat="53.364572" lon="-1.616333"><ele>356</ele><time>2020-05-21T14:17:23Z</time><name>PT14409</name></trkpt>
<trkpt lat="53.364589" lon="-1.616337"><ele>356</ele><time>2020-05-21T14:17:24Z</time><name>PT14410</name></trkpt>
<trkpt lat="53.364601" lon="-1.616339"><ele>355</ele><time>2020-05-21T14:17:25Z</time><name>PT14411</name></trkpt>
<trkpt lat="53.364613" lon="-1.616337"><ele>355</ele><time>2020-05-21T14:17:27Z</time><name>PT14412</name></trkpt>
<trkpt lat="53.364624" lon="-1.616340"><ele>356</ele><time>2020-05-21T14:17:27Z</time><name>PT14413</name></trkpt>
<trkpt lat="53.364638" lon="-1.616343"><ele>355</ele><time>2020-05-21T14:17:28Z</time><name>PT14414</name></trkpt>
<trkpt lat="53.364652" lon="-1.616343"><ele>356</ele><time>2020-05-21T14:17:29Z</time><name>PT14415</name></trkpt>
<trkpt lat="53.364669" lon="-1.616345"><ele>356</ele><time>2020-05-21T14:17:30Z</time><name>PT14416</name></trkpt>
<trkpt lat="53.364687" lon="-1.616347"><ele>356</ele><time>2020-05-21T14:17:31Z</time><name>PT14417</name></trkpt>
<trkpt lat="53.364700" lon="-1.616352"><ele>356</ele><time>2020-05-21T14:17:32Z</time><name>PT14418</name></trkpt>
<trkpt lat="53.364710" lon="-1.616354"><ele>356</ele><time>2020-05-21T14:17:33Z</time><name>PT14419</name></trkpt>
<trkpt lat="53.364725" lon="-1.616359"><ele>355</ele><time>2020-05-21T14:17:34Z</time><name>PT14420</name></trkpt>
<trkpt lat="53.364738" lon="-1.616360"><ele>355</ele><time>2020-05-21T14:17:35Z</time><name>PT14421</name></trkpt>
<trkpt lat="53.364752" lon="-1.616361"><ele>356</ele><time>2020-05-21T14:17:36Z</time><name>PT14422</name></trkpt>
<trkpt lat="53.364769" lon="-1.616357"><ele>356</ele><time>2020-05-21T14:17:37Z</time><name>PT14423</name></trkpt>
<trkpt lat="53.364787" lon="-1.616358"><ele>356</ele><time>2020-05-21T14:17:38Z</time><name>PT14424</name></trkpt>
<trkpt lat="53.364803" lon="-1.616362"><ele>355</ele><time>2020-05-21T14:17:39Z</time><name>PT14425</name></trkpt>
<trkpt lat="53.364812" lon="-1.616368"><ele>355</ele><time>2020-05-21T14:17:40Z</time><name>PT14426</name></trkpt>
<trkpt lat="53.364825" lon="-1.616365"><ele>356</ele><time>2020-05-21T14:17:41Z</time><name>PT14427</name></trkpt>
<trkpt lat="53.364837" lon="-1.616368"><ele>356</ele><time>2020-05-21T14:17:42Z</time><name>PT14428</name></trkpt>
<trkpt lat="53.364847" lon="-1.616374"><ele>356</ele><time>2020-05-21T14:17:43Z</time><name>PT14429</name></trkpt>
<trkpt lat="53.364860" lon="-1.616379"><ele>356</ele><time>2020-05-21T14:17:44Z</time><name>PT14430</name></trkpt>
<trkpt lat="53.364876" lon="-1.616375"><ele>356</ele><time>2020-05-21T14:17:45Z</time><name>PT14431</name></trkpt>
<trkpt lat="53.364889" lon="-1.616376"><ele>357</ele><time>2020-05-21T14:17:46Z</time><name>PT14432</name></trkpt>
<trkpt lat="53.364894" lon="-1.616379"><ele>357</ele><time>2020-05-21T14:17:47Z</time><name>PT14433</name></trkpt>
<trkpt lat="53.364906" lon="-1.616372"><ele>357</ele><time>2020-05-21T14:17:48Z</time><name>PT14434</name></trkpt>
<trkpt lat="53.364919" lon="-1.616375"><ele>356</ele><time>2020-05-21T14:17:49Z</time><name>PT14435</name></trkpt>
<trkpt lat="53.364934" lon="-1.616376"><ele>357</ele><time>2020-05-21T14:17:50Z</time><name>PT14436</name></trkpt>
<trkpt lat="53.364951" lon="-1.616376"><ele>357</ele><time>2020-05-21T14:17:51Z</time><name>PT14437</name></trkpt>
<trkpt lat="53.364966" lon="-1.616380"><ele>357</ele><time>2020-05-21T14:17:52Z</time><name>PT14438</name></trkpt>
<trkpt lat="53.364980" lon="-1.616383"><ele>356</ele><time>2020-05-21T14:17:54Z</time><name>PT14439</name></trkpt>
<trkpt lat="53.364989" lon="-1.616383"><ele>357</ele><time>2020-05-21T14:17:54Z</time><name>PT14440</name></trkpt>
<trkpt lat="53.364997" lon="-1.616387"><ele>356</ele><time>2020-05-21T14:17:55Z</time><name>PT14441</name></trkpt>
<trkpt lat="53.365006" lon="-1.616391"><ele>355</ele><time>2020-05-21T14:17:56Z</time><name>PT14442</name></trkpt>
<trkpt lat="53.365017" lon="-1.616396"><ele>355</ele><time>2020-05-21T14:17:57Z</time><name>PT14443</name></trkpt>
<trkpt lat="53.365031" lon="-1.616397"><ele>356</ele><time>2020-05-21T14:17:58Z</time><name>PT14444</name></trkpt>
<trkpt lat="53.365047" lon="-1.616393"><ele>356</ele><time>2020-05-21T14:17:59Z</time><name>PT14445</name></trkpt>
<trkpt lat="53.365059" lon="-1.616393"><ele>356</ele><time>2020-05-21T14:18:00Z</time><name>PT14446</name></trkpt>
<trkpt lat="53.365070" lon="-1.616394"><ele>356</ele><time>2020-05-21T14:18:01Z</time><name>PT14447</name></trkpt>
<trkpt lat="53.365075" lon="-1.616391"><ele>356</ele><time>2020-05-21T14:18:02Z</time><name>PT14448</name></trkpt>
<trkpt lat="53.365085" lon="-1.616394"><ele>356</ele><time>2020-05-21T14:18:03Z</time><name>PT14449</name></trkpt>
<trkpt lat="53.365096" lon="-1.616405"><ele>356</ele><time>2020-05-21T14:18:04Z</time><name>PT14450</name></trkpt>
<trkpt lat="53.365112" lon="-1.616414"><ele>356</ele><time>2020-05-21T14:18:05Z</time><name>PT14451</name></trkpt>
<trkpt lat="53.365131" lon="-1.616412"><ele>357</ele><time>2020-05-21T14:18:06Z</time><name>PT14452</name></trkpt>
<trkpt lat="53.365148" lon="-1.616411"><ele>357</ele><time>2020-05-21T14:18:07Z</time><name>PT14453</name></trkpt>
<trkpt lat="53.365168" lon="-1.616408"><ele>356</ele><time>2020-05-21T14:18:09Z</time><name>PT14454</name></trkpt>
<trkpt lat="53.365177" lon="-1.616417"><ele>355</ele><time>2020-05-21T14:18:10Z</time><name>PT14455</name></trkpt>
<trkpt lat="53.365189" lon="-1.616419"><ele>355</ele><time>2020-05-21T14:18:11Z</time><name>PT14456</name></trkpt>
<trkpt lat="53.365204" lon="-1.616414"><ele>355</ele><time>2020-05-21T14:18:12Z</time><name>PT14457</name></trkpt>
<trkpt lat="53.365219" lon="-1.616412"><ele>355</ele><time>2020-05-21T14:18:13Z</time><name>PT14458</name></trkpt>
<trkpt lat="53.365234" lon="-1.616412"><ele>355</ele><time>2020-05-21T14:18:14Z</time><name>PT14459</name></trkpt>
<trkpt lat="53.365246" lon="-1.616409"><ele>355</ele><time>2020-05-21T14:18:15Z</time><name>PT14460</name></trkpt>
<trkpt lat="53.365261" lon="-1.616407"><ele>356</ele><time>2020-05-21T14:18:16Z</time><name>PT14461</name></trkpt>
<trkpt lat="53.365271" lon="-1.616407"><ele>355</ele><time>2020-05-21T14:18:17Z</time><name>PT14462</name></trkpt>
<trkpt lat="53.365288" lon="-1.616408"><ele>355</ele><time>2020-05-21T14:18:18Z</time><name>PT14463</name></trkpt>
<trkpt lat="53.365305" lon="-1.616407"><ele>355</ele><time>2020-05-21T14:18:19Z</time><name>PT14464</name></trkpt>
<trkpt lat="53.365315" lon="-1.616407"><ele>355</ele><time>2020-05-21T14:18:20Z</time><name>PT14465</name></trkpt>
<trkpt lat="53.365325" lon="-1.616408"><ele>355</ele><time>2020-05-21T14:18:21Z</time><name>PT14466</name></trkpt>
<trkpt lat="53.365343" lon="-1.616401"><ele>356</ele><time>2020-05-21T14:18:22Z</time><name>PT14467</name></trkpt>
<trkpt lat="53.365357" lon="-1.616398"><ele>356</ele><time>2020-05-21T14:18:23Z</time><name>PT14468</name></trkpt>
<trkpt lat="53.365376" lon="-1.616396"><ele>357</ele><time>2020-05-21T14:18:24Z</time><name>PT14469</name></trkpt>
<trkpt lat="53.365395" lon="-1.616400"><ele>357</ele><time>2020-05-21T14:18:25Z</time><name>PT14470</name></trkpt>
<trkpt lat="53.365407" lon="-1.616402"><ele>357</ele><time>2020-05-21T14:18:26Z</time><name>PT14471</name></trkpt>
<trkpt lat="53.365416" lon="-1.616399"><ele>357</ele><time>2020-05-21T14:18:27Z</time><name>PT14472</name></trkpt>
<trkpt lat="53.365427" lon="-1.616405"><ele>356</ele><time>2020-05-21T14:18:28Z</time><name>PT14473</name></trkpt>
<trkpt lat="53.365438" lon="-1.616410"><ele>356</ele><time>2020-05-21T14:18:29Z</time><name>PT14474</name></trkpt>
<trkpt lat="53.365457" lon="-1.616410"><ele>356</ele><time>2020-05-21T14:18:30Z</time><name>PT14475</name></trkpt>
<trkpt lat="53.365476" lon="-1.616409"><ele>357</ele><time>2020-05-21T14:18:31Z</time><name>PT14476</name></trkpt>
<trkpt lat="53.365492" lon="-1.616411"><ele>357</ele><time>2020-05-21T14:18:32Z</time><name>PT14477</name></trkpt>
<trkpt lat="53.365507" lon="-1.616420"><ele>357</ele><time>2020-05-21T14:18:33Z</time><name>PT14478</name></trkpt>
<trkpt lat="53.365519" lon="-1.616423"><ele>357</ele><time>2020-05-21T14:18:34Z</time><name>PT14479</name></trkpt>
<trkpt lat="53.365532" lon="-1.616429"><ele>357</ele><time>2020-05-21T14:18:35Z</time><name>PT14480</name></trkpt>
<trkpt lat="53.365545" lon="-1.616438"><ele>355</ele><time>2020-05-21T14:18:36Z</time><name>PT14481</name></trkpt>
<trkpt lat="53.365559" lon="-1.616446"><ele>355</ele><time>2020-05-21T14:18:37Z</time><name>PT14482</name></trkpt>
<trkpt lat="53.365574" lon="-1.616448"><ele>355</ele><time>2020-05-21T14:18:38Z</time><name>PT14483</name></trkpt>
<trkpt lat="53.365590" lon="-1.616450"><ele>355</ele><time>2020-05-21T14:18:39Z</time><name>PT14484</name></trkpt>
<trkpt lat="53.365601" lon="-1.616455"><ele>355</ele><time>2020-05-21T14:18:40Z</time><name>PT14485</name></trkpt>
<trkpt lat="53.365611" lon="-1.616459"><ele>355</ele><time>2020-05-21T14:18:41Z</time><name>PT14486</name></trkpt>
<trkpt lat="53.365621" lon="-1.616471"><ele>355</ele><time>2020-05-21T14:18:43Z</time><name>PT14487</name></trkpt>
<trkpt lat="53.365631" lon="-1.616476"><ele>355</ele><time>2020-05-21T14:18:43Z</time><name>PT14488</name></trkpt>
<trkpt lat="53.365643" lon="-1.616477"><ele>355</ele><time>2020-05-21T14:18:44Z</time><name>PT14489</name></trkpt>
<trkpt lat="53.365660" lon="-1.616481"><ele>355</ele><time>2020-05-21T14:18:45Z</time><name>PT14490</name></trkpt>
<trkpt lat="53.365680" lon="-1.616484"><ele>355</ele><time>2020-05-21T14:18:46Z</time><name>PT14491</name></trkpt>
<trkpt lat="53.365690" lon="-1.616483"><ele>355</ele><time>2020-05-21T14:18:47Z</time><name>PT14492</name></trkpt>
<trkpt lat="53.365699" lon="-1.616483"><ele>355</ele><time>2020-05-21T14:18:48Z</time><name>PT14493</name></trkpt>
<trkpt lat="53.365710" lon="-1.616480"><ele>356</ele><time>2020-05-21T14:18:49Z</time><name>PT14494</name></trkpt>
<trkpt lat="53.365723" lon="-1.616476"><ele>356</ele><time>2020-05-21T14:18:50Z</time><name>PT14495</name></trkpt>
<trkpt lat="53.365737" lon="-1.616476"><ele>356</ele><time>2020-05-21T14:18:51Z</time><name>PT14496</name></trkpt>
<trkpt lat="53.365754" lon="-1.616470"><ele>356</ele><time>2020-05-21T14:18:52Z</time><name>PT14497</name></trkpt>
<trkpt lat="53.365769" lon="-1.616467"><ele>356</ele><time>2020-05-21T14:18:53Z</time><name>PT14498</name></trkpt>
<trkpt lat="53.365782" lon="-1.616468"><ele>356</ele><time>2020-05-21T14:18:54Z</time><name>PT14499</name></trkpt>
<trkpt lat="53.365798" lon="-1.616463"><ele>357</ele><time>2020-05-21T14:18:56Z</time><name>PT14500</name></trkpt>
<trkpt lat="53.365815" lon="-1.616465"><ele>358</ele><time>2020-05-21T14:18:56Z</time><name>PT14501</name></trkpt>
<trkpt lat="53.365828" lon="-1.616472"><ele>358</ele><time>2020-05-21T14:18:57Z</time><name>PT14502</name></trkpt>
<trkpt lat="53.365845" lon="-1.616470"><ele>358</ele><time>2020-05-21T14:18:58Z</time><name>PT14503</name></trkpt>
<trkpt lat="53.365861" lon="-1.616470"><ele>358</ele><time>2020-05-21T14:18:59Z</time><name>PT14504</name></trkpt>
<trkpt lat="53.365873" lon="-1.616471"><ele>358</ele><time>2020-05-21T14:19:00Z</time><name>PT14505</name></trkpt>
<trkpt lat="53.365884" lon="-1.616469"><ele>358</ele><time>2020-05-21T14:19:01Z</time><name>PT14506</name></trkpt>
<trkpt lat="53.365903" lon="-1.616473"><ele>358</ele><time>2020-05-21T14:19:02Z</time><name>PT14507</name></trkpt>
<trkpt lat="53.365917" lon="-1.616476"><ele>358</ele><time>2020-05-21T14:19:03Z</time><name>PT14508</name></trkpt>
<trkpt lat="53.365930" lon="-1.616474"><ele>357</ele><time>2020-05-21T14:19:04Z</time><name>PT14509</name></trkpt>
<trkpt lat="53.365946" lon="-1.616468"><ele>357</ele><time>2020-05-21T14:19:06Z</time><name>PT14510</name></trkpt>
<trkpt lat="53.365960" lon="-1.616470"><ele>357</ele><time>2020-05-21T14:19:06Z</time><name>PT14511</name></trkpt>
<trkpt lat="53.365970" lon="-1.616469"><ele>357</ele><time>2020-05-21T14:19:07Z</time><name>PT14512</name></trkpt>
<trkpt lat="53.365982" lon="-1.616466"><ele>358</ele><time>2020-05-21T14:19:08Z</time><name>PT14513</name></trkpt>
<trkpt lat="53.365996" lon="-1.616468"><ele>357</ele><time>2020-05-21T14:19:09Z</time><name>PT14514</name></trkpt>
<trkpt lat="53.366008" lon="-1.616464"><ele>357</ele><time>2020-05-21T14:19:11Z</time><name>PT14515</name></trkpt>
<trkpt lat="53.366022" lon="-1.616463"><ele>357</ele><time>2020-05-21T14:19:11Z</time><name>PT14516</name></trkpt>
<trkpt lat="53.366039" lon="-1.616462"><ele>358</ele><time>2020-05-21T14:19:12Z</time><name>PT14517</name></trkpt>
<trkpt lat="53.366053" lon="-1.616463"><ele>358</ele><time>2020-05-21T14:19:13Z</time><name>PT14518</name></trkpt>
<trkpt lat="53.366064" lon="-1.616465"><ele>357</ele><time>2020-05-21T14:19:14Z</time><name>PT14519</name></trkpt>
<trkpt lat="53.366078" lon="-1.616460"><ele>358</ele><time>2020-05-21T14:19:15Z</time><name>PT14520</name></trkpt>
<trkpt lat="53.366092" lon="-1.616461"><ele>358</ele><time>2020-05-21T14:19:16Z</time><name>PT14521</name></trkpt>
<trkpt lat="53.366108" lon="-1.616466"><ele>358</ele><time>2020-05-21T14:19:18Z</time><name>PT14522</name></trkpt>
<trkpt lat="53.366126" lon="-1.616466"><ele>359</ele><time>2020-05-21T14:19:18Z</time><name>PT14523</name></trkpt>
<trkpt lat="53.366143" lon="-1.616464"><ele>359</ele><time>2020-05-21T14:19:19Z</time><name>PT14524</name></trkpt>
<trkpt lat="53.366156" lon="-1.616458"><ele>359</ele><time>2020-05-21T14:19:21Z</time><name>PT14525</name></trkpt>
<trkpt lat="53.366166" lon="-1.616455"><ele>360</ele><time>2020-05-21T14:19:21Z</time><name>PT14526</name></trkpt>
<trkpt lat="53.366177" lon="-1.616463"><ele>358</ele><time>2020-05-21T14:19:22Z</time><name>PT14527</name></trkpt>
<trkpt lat="53.366195" lon="-1.616466"><ele>357</ele><time>2020-05-21T14:19:23Z</time><name>PT14528</name></trkpt>
<trkpt lat="53.366209" lon="-1.616466"><ele>357</ele><time>2020-05-21T14:19:24Z</time><name>PT14529</name></trkpt>
<trkpt lat="53.366244" lon="-1.616456"><ele>358</ele><time>2020-05-21T14:19:26Z</time><name>PT14530</name></trkpt>
<trkpt lat="53.366258" lon="-1.616453"><ele>358</ele><time>2020-05-21T14:19:27Z</time><name>PT14531</name></trkpt>
<trkpt lat="53.366270" lon="-1.616450"><ele>358</ele><time>2020-05-21T14:19:28Z</time><name>PT14532</name></trkpt>
<trkpt lat="53.366283" lon="-1.616452"><ele>358</ele><time>2020-05-21T14:19:29Z</time><name>PT14533</name></trkpt>
<trkpt lat="53.366296" lon="-1.616450"><ele>358</ele><time>2020-05-21T14:19:30Z</time><name>PT14534</name></trkpt>
<trkpt lat="53.366307" lon="-1.616446"><ele>357</ele><time>2020-05-21T14:19:31Z</time><name>PT14535</name></trkpt>
<trkpt lat="53.366321" lon="-1.616446"><ele>358</ele><time>2020-05-21T14:19:32Z</time><name>PT14536</name></trkpt>
<trkpt lat="53.366340" lon="-1.616453"><ele>358</ele><time>2020-05-21T14:19:33Z</time><name>PT14537</name></trkpt>
<trkpt lat="53.366356" lon="-1.616461"><ele>357</ele><time>2020-05-21T14:19:34Z</time><name>PT14538</name></trkpt>
<trkpt lat="53.366364" lon="-1.616464"><ele>358</ele><time>2020-05-21T14:19:35Z</time><name>PT14539</name></trkpt>
<trkpt lat="53.366376" lon="-1.616461"><ele>359</ele><time>2020-05-21T14:19:36Z</time><name>PT14540</name></trkpt>
<trkpt lat="53.366388" lon="-1.616459"><ele>359</ele><time>2020-05-21T14:19:37Z</time><name>PT14541</name></trkpt>
<trkpt lat="53.366402" lon="-1.616456"><ele>359</ele><time>2020-05-21T14:19:38Z</time><name>PT14542</name></trkpt>
<trkpt lat="53.366417" lon="-1.616460"><ele>359</ele><time>2020-05-21T14:19:39Z</time><name>PT14543</name></trkpt>
<trkpt lat="53.366435" lon="-1.616461"><ele>359</ele><time>2020-05-21T14:19:40Z</time><name>PT14544</name></trkpt>
<trkpt lat="53.366451" lon="-1.616462"><ele>359</ele><time>2020-05-21T14:19:41Z</time><name>PT14545</name></trkpt>
<trkpt lat="53.366459" lon="-1.616470"><ele>358</ele><time>2020-05-21T14:19:42Z</time><name>PT14546</name></trkpt>
<trkpt lat="53.366468" lon="-1.616472"><ele>358</ele><time>2020-05-21T14:19:43Z</time><name>PT14547</name></trkpt>
<trkpt lat="53.366479" lon="-1.616475"><ele>357</ele><time>2020-05-21T14:19:44Z</time><name>PT14548</name></trkpt>
<trkpt lat="53.366494" lon="-1.616478"><ele>358</ele><time>2020-05-21T14:19:45Z</time><name>PT14549</name></trkpt>
<trkpt lat="53.366509" lon="-1.616481"><ele>357</ele><time>2020-05-21T14:19:46Z</time><name>PT14550</name></trkpt>
<trkpt lat="53.366527" lon="-1.616489"><ele>357</ele><time>2020-05-21T14:19:47Z</time><name>PT14551</name></trkpt>
<trkpt lat="53.366542" lon="-1.616490"><ele>357</ele><time>2020-05-21T14:19:48Z</time><name>PT14552</name></trkpt>
<trkpt lat="53.366556" lon="-1.616489"><ele>357</ele><time>2020-05-21T14:19:49Z</time><name>PT14553</name></trkpt>
<trkpt lat="53.366566" lon="-1.616487"><ele>357</ele><time>2020-05-21T14:19:50Z</time><name>PT14554</name></trkpt>
<trkpt lat="53.366577" lon="-1.616485"><ele>357</ele><time>2020-05-21T14:19:51Z</time><name>PT14555</name></trkpt>
<trkpt lat="53.366590" lon="-1.616478"><ele>357</ele><time>2020-05-21T14:19:52Z</time><name>PT14556</name></trkpt>
<trkpt lat="53.366605" lon="-1.616469"><ele>357</ele><time>2020-05-21T14:19:53Z</time><name>PT14557</name></trkpt>
<trkpt lat="53.366620" lon="-1.616462"><ele>357</ele><time>2020-05-21T14:19:54Z</time><name>PT14558</name></trkpt>
<trkpt lat="53.366634" lon="-1.616454"><ele>358</ele><time>2020-05-21T14:19:55Z</time><name>PT14559</name></trkpt>
<trkpt lat="53.366642" lon="-1.616447"><ele>358</ele><time>2020-05-21T14:19:56Z</time><name>PT14560</name></trkpt>
<trkpt lat="53.366651" lon="-1.616441"><ele>357</ele><time>2020-05-21T14:19:57Z</time><name>PT14561</name></trkpt>
<trkpt lat="53.366660" lon="-1.616435"><ele>356</ele><time>2020-05-21T14:19:58Z</time><name>PT14562</name></trkpt>
<trkpt lat="53.366673" lon="-1.616427"><ele>356</ele><time>2020-05-21T14:19:59Z</time><name>PT14563</name></trkpt>
<trkpt lat="53.366686" lon="-1.616416"><ele>356</ele><time>2020-05-21T14:20:00Z</time><name>PT14564</name></trkpt>
<trkpt lat="53.366700" lon="-1.616407"><ele>355</ele><time>2020-05-21T14:20:01Z</time><name>PT14565</name></trkpt>
<trkpt lat="53.366712" lon="-1.616395"><ele>355</ele><time>2020-05-21T14:20:02Z</time><name>PT14566</name></trkpt>
<trkpt lat="53.366721" lon="-1.616388"><ele>355</ele><time>2020-05-21T14:20:03Z</time><name>PT14567</name></trkpt>
<trkpt lat="53.366727" lon="-1.616381"><ele>355</ele><time>2020-05-21T14:20:04Z</time><name>PT14568</name></trkpt>
<trkpt lat="53.366733" lon="-1.616370"><ele>355</ele><time>2020-05-21T14:20:05Z</time><name>PT14569</name></trkpt>
<trkpt lat="53.366747" lon="-1.616356"><ele>355</ele><time>2020-05-21T14:20:06Z</time><name>PT14570</name></trkpt>
<trkpt lat="53.366763" lon="-1.616336"><ele>355</ele><time>2020-05-21T14:20:07Z</time><name>PT14571</name></trkpt>
<trkpt lat="53.366777" lon="-1.616321"><ele>355</ele><time>2020-05-21T14:20:08Z</time><name>PT14572</name></trkpt>
<trkpt lat="53.366787" lon="-1.616311"><ele>355</ele><time>2020-05-21T14:20:09Z</time><name>PT14573</name></trkpt>
<trkpt lat="53.366791" lon="-1.616300"><ele>355</ele><time>2020-05-21T14:20:10Z</time><name>PT14574</name></trkpt>
<trkpt lat="53.366797" lon="-1.616291"><ele>356</ele><time>2020-05-21T14:20:11Z</time><name>PT14575</name></trkpt>
<trkpt lat="53.366803" lon="-1.616274"><ele>355</ele><time>2020-05-21T14:20:12Z</time><name>PT14576</name></trkpt>
<trkpt lat="53.366815" lon="-1.616250"><ele>356</ele><time>2020-05-21T14:20:13Z</time><name>PT14577</name></trkpt>
<trkpt lat="53.366829" lon="-1.616228"><ele>356</ele><time>2020-05-21T14:20:14Z</time><name>PT14578</name></trkpt>
<trkpt lat="53.366839" lon="-1.616207"><ele>357</ele><time>2020-05-21T14:20:15Z</time><name>PT14579</name></trkpt>
<trkpt lat="53.366846" lon="-1.616198"><ele>357</ele><time>2020-05-21T14:20:16Z</time><name>PT14580</name></trkpt>
<trkpt lat="53.366853" lon="-1.616194"><ele>357</ele><time>2020-05-21T14:20:17Z</time><name>PT14581</name></trkpt>
<trkpt lat="53.366859" lon="-1.616181"><ele>357</ele><time>2020-05-21T14:20:18Z</time><name>PT14582</name></trkpt>
<trkpt lat="53.366870" lon="-1.616161"><ele>357</ele><time>2020-05-21T14:20:19Z</time><name>PT14583</name></trkpt>
<trkpt lat="53.366884" lon="-1.616139"><ele>357</ele><time>2020-05-21T14:20:20Z</time><name>PT14584</name></trkpt>
<trkpt lat="53.366897" lon="-1.616125"><ele>356</ele><time>2020-05-21T14:20:21Z</time><name>PT14585</name></trkpt>
<trkpt lat="53.366907" lon="-1.616118"><ele>356</ele><time>2020-05-21T14:20:22Z</time><name>PT14586</name></trkpt>
<trkpt lat="53.366918" lon="-1.616115"><ele>356</ele><time>2020-05-21T14:20:23Z</time><name>PT14587</name></trkpt>
<trkpt lat="53.366931" lon="-1.616109"><ele>356</ele><time>2020-05-21T14:20:24Z</time><name>PT14588</name></trkpt>
<trkpt lat="53.366944" lon="-1.616107"><ele>356</ele><time>2020-05-21T14:20:25Z</time><name>PT14589</name></trkpt>
<trkpt lat="53.366955" lon="-1.616107"><ele>356</ele><time>2020-05-21T14:20:26Z</time><name>PT14590</name></trkpt>
<trkpt lat="53.366966" lon="-1.616109"><ele>355</ele><time>2020-05-21T14:20:27Z</time><name>PT14591</name></trkpt>
<trkpt lat="53.366978" lon="-1.616111"><ele>355</ele><time>2020-05-21T14:20:28Z</time><name>PT14592</name></trkpt>
<trkpt lat="53.366987" lon="-1.616114"><ele>355</ele><time>2020-05-21T14:20:29Z</time><name>PT14593</name></trkpt>
<trkpt lat="53.366998" lon="-1.616118"><ele>356</ele><time>2020-05-21T14:20:30Z</time><name>PT14594</name></trkpt>
<trkpt lat="53.367010" lon="-1.616124"><ele>356</ele><time>2020-05-21T14:20:31Z</time><name>PT14595</name></trkpt>
<trkpt lat="53.367018" lon="-1.616128"><ele>355</ele><time>2020-05-21T14:20:32Z</time><name>PT14596</name></trkpt>
<trkpt lat="53.367027" lon="-1.616135"><ele>355</ele><time>2020-05-21T14:20:33Z</time><name>PT14597</name></trkpt>
<trkpt lat="53.367040" lon="-1.616140"><ele>355</ele><time>2020-05-21T14:20:34Z</time><name>PT14598</name></trkpt>
<trkpt lat="53.367055" lon="-1.616144"><ele>355</ele><time>2020-05-21T14:20:35Z</time><name>PT14599</name></trkpt>
<trkpt lat="53.367065" lon="-1.616146"><ele>355</ele><time>2020-05-21T14:20:36Z</time><name>PT14600</name></trkpt>
<trkpt lat="53.367071" lon="-1.616151"><ele>356</ele><time>2020-05-21T14:20:37Z</time><name>PT14601</name></trkpt>
<trkpt lat="53.367085" lon="-1.616162"><ele>357</ele><time>2020-05-21T14:20:38Z</time><name>PT14602</name></trkpt>
<trkpt lat="53.367102" lon="-1.616176"><ele>357</ele><time>2020-05-21T14:20:39Z</time><name>PT14603</name></trkpt>
<trkpt lat="53.367108" lon="-1.616183"><ele>357</ele><time>2020-05-21T14:20:40Z</time><name>PT14604</name></trkpt>
<trkpt lat="53.367115" lon="-1.616190"><ele>358</ele><time>2020-05-21T14:20:41Z</time><name>PT14605</name></trkpt>
<trkpt lat="53.367120" lon="-1.616193"><ele>358</ele><time>2020-05-21T14:20:42Z</time><name>PT14606</name></trkpt>
<trkpt lat="53.367128" lon="-1.616206"><ele>356</ele><time>2020-05-21T14:20:43Z</time><name>PT14607</name></trkpt>
<trkpt lat="53.367139" lon="-1.616200"><ele>356</ele><time>2020-05-21T14:20:44Z</time><name>PT14608</name></trkpt>
<trkpt lat="53.367154" lon="-1.616193"><ele>357</ele><time>2020-05-21T14:20:45Z</time><name>PT14609</name></trkpt>
<trkpt lat="53.367164" lon="-1.616175"><ele>357</ele><time>2020-05-21T14:20:46Z</time><name>PT14610</name></trkpt>
<trkpt lat="53.367170" lon="-1.616151"><ele>358</ele><time>2020-05-21T14:20:47Z</time><name>PT14611</name></trkpt>
<trkpt lat="53.367180" lon="-1.616146"><ele>357</ele><time>2020-05-21T14:20:48Z</time><name>PT14612</name></trkpt>
<trkpt lat="53.367192" lon="-1.616133"><ele>358</ele><time>2020-05-21T14:20:49Z</time><name>PT14613</name></trkpt>
<trkpt lat="53.367198" lon="-1.616120"><ele>358</ele><time>2020-05-21T14:20:50Z</time><name>PT14614</name></trkpt>
<trkpt lat="53.367204" lon="-1.616108"><ele>358</ele><time>2020-05-21T14:20:51Z</time><name>PT14615</name></trkpt>
<trkpt lat="53.367206" lon="-1.616094"><ele>358</ele><time>2020-05-21T14:20:52Z</time><name>PT14616</name></trkpt>
<trkpt lat="53.367205" lon="-1.616087"><ele>359</ele><time>2020-05-21T14:20:53Z</time><name>PT14617</name></trkpt>
<trkpt lat="53.367203" lon="-1.616087"><ele>359</ele><time>2020-05-21T14:20:54Z</time><name>PT14618</name></trkpt>
<trkpt lat="53.367203" lon="-1.616086"><ele>358</ele><time>2020-05-21T14:20:55Z</time><name>PT14619</name></trkpt>
<trkpt lat="53.367203" lon="-1.616085"><ele>358</ele><time>2020-05-21T14:20:56Z</time><name>PT14620</name></trkpt>
<trkpt lat="53.367203" lon="-1.616084"><ele>359</ele><time>2020-05-21T14:20:57Z</time><name>PT14621</name></trkpt></trkseg></trk></gpx>